<?xml version='1.0' encoding='UTF-8'?><gpx version="1.1" creator="JPX - https://github.com/jenetics/jpx" xmlns="http://www.topografix.com/GPX/1/1"><trk><trkseg><trkpt lat="45.355664997190004" lon="11.949057435628532"><ele>6.0</ele><time>2026-03-28T09:25:35Z</time></trkpt><trkpt lat="45.355600353785114" lon="11.949001014769413"><ele>6.0</ele><time>2026-03-28T09:34:03Z</time></trkpt><trkpt lat="45.35562174139359" lon="11.948836314850384"><ele>6.0</ele><time>2026-03-28T09:34:05Z</time></trkpt><trkpt lat="45.3556744512258" lon="11.948735602098106"><ele>6.0</ele><time>2026-03-28T09:34:06Z</time></trkpt><trkpt lat="45.355742523538055" lon="11.948646843718638"><ele>6.0</ele><time>2026-03-28T09:34:07Z</time></trkpt><trkpt lat="45.35581799304968" lon="11.948539762168588"><ele>6.0</ele><time>2026-03-28T09:34:08Z</time></trkpt><trkpt lat="45.35589993312812" lon="11.948424208232995"><ele>6.0</ele><time>2026-03-28T09:34:09Z</time></trkpt><trkpt lat="45.3559891724267" lon="11.948288246114158"><ele>6.0</ele><time>2026-03-28T09:34:10Z</time></trkpt><trkpt lat="45.356105132974314" lon="11.948112261821585"><ele>6.0</ele><time>2026-03-28T09:34:11Z</time></trkpt><trkpt lat="45.35623997612381" lon="11.947904116145558"><ele>6.0</ele><time>2026-03-28T09:34:12Z</time></trkpt><trkpt lat="45.35641384673277" lon="11.947642319584473"><ele>6.0</ele><time>2026-03-28T09:34:13Z</time></trkpt><trkpt lat="45.35657022141407" lon="11.947398252116491"><ele>5.333333333333333</ele><time>2026-03-28T09:34:14Z</time></trkpt><trkpt lat="45.35669522001669" lon="11.947202931009814"><ele>4.666666666666666</ele><time>2026-03-28T09:34:15Z</time></trkpt><trkpt lat="45.35680388659636" lon="11.94703365013272"><ele>4.0</ele><time>2026-03-28T09:34:16Z</time></trkpt><trkpt lat="45.356917948002746" lon="11.946869209470753"><ele>4.0</ele><time>2026-03-28T09:34:17Z</time></trkpt><trkpt lat="45.357014725656775" lon="11.946716387196165"><ele>4.0</ele><time>2026-03-28T09:34:18Z</time></trkpt><trkpt lat="45.35711587387857" lon="11.946562799814176"><ele>4.0</ele><time>2026-03-28T09:34:19Z</time></trkpt><trkpt lat="45.35721754805943" lon="11.946406127092255"><ele>4.0</ele><time>2026-03-28T09:34:20Z</time></trkpt><trkpt lat="45.35732514836502" lon="11.946243752117907"><ele>4.666666666666666</ele><time>2026-03-28T09:34:21Z</time></trkpt><trkpt lat="45.357438819627525" lon="11.946074322330347"><ele>5.333333333333333</ele><time>2026-03-28T09:34:22Z</time></trkpt><trkpt lat="45.3575548517117" lon="11.94589819128352"><ele>6.0</ele><time>2026-03-28T09:34:23Z</time></trkpt><trkpt lat="45.35766920825463" lon="11.94572038206783"><ele>6.0</ele><time>2026-03-28T09:34:24Z</time></trkpt><trkpt lat="45.35778555834656" lon="11.945572782150355"><ele>6.0</ele><time>2026-03-28T09:34:25Z</time></trkpt><trkpt lat="45.35787773030782" lon="11.945397749506776"><ele>6.0</ele><time>2026-03-28T09:34:26Z</time></trkpt><trkpt lat="45.35798635289859" lon="11.945235599966784"><ele>6.0</ele><time>2026-03-28T09:34:27Z</time></trkpt><trkpt lat="45.35810326772945" lon="11.945088691293588"><ele>6.0</ele><time>2026-03-28T09:34:28Z</time></trkpt><trkpt lat="45.358213379343816" lon="11.944919077588015"><ele>6.0</ele><time>2026-03-28T09:34:29Z</time></trkpt><trkpt lat="45.35831157293183" lon="11.9447387709991"><ele>6.333333333333334</ele><time>2026-03-28T09:34:30Z</time></trkpt><trkpt lat="45.35842560919535" lon="11.944567878361616"><ele>6.666666666666667</ele><time>2026-03-28T09:34:31Z</time></trkpt><trkpt lat="45.3585330084263" lon="11.944397479381642"><ele>7.0</ele><time>2026-03-28T09:34:32Z</time></trkpt><trkpt lat="45.35865306087763" lon="11.944244285299222"><ele>7.0</ele><time>2026-03-28T09:34:33Z</time></trkpt><trkpt lat="45.358761763169795" lon="11.944078488991018"><ele>7.0</ele><time>2026-03-28T09:34:34Z</time></trkpt><trkpt lat="45.35886606840175" lon="11.943919496679134"><ele>7.0</ele><time>2026-03-28T09:34:35Z</time></trkpt><trkpt lat="45.358967688694285" lon="11.943765765708356"><ele>7.333333333333334</ele><time>2026-03-28T09:34:36Z</time></trkpt><trkpt lat="45.35907531884425" lon="11.943602782925597"><ele>7.666666666666666</ele><time>2026-03-28T09:34:37Z</time></trkpt><trkpt lat="45.359185185939985" lon="11.943433639787221"><ele>8.0</ele><time>2026-03-28T09:34:38Z</time></trkpt><trkpt lat="45.35929181229322" lon="11.943272762449627"><ele>8.333333333333332</ele><time>2026-03-28T09:34:39Z</time></trkpt><trkpt lat="45.35940044479202" lon="11.943108765798893"><ele>8.666666666666666</ele><time>2026-03-28T09:34:40Z</time></trkpt><trkpt lat="45.35950939186547" lon="11.942943751033209"><ele>9.0</ele><time>2026-03-28T09:34:41Z</time></trkpt><trkpt lat="45.359617074433245" lon="11.942780978741801"><ele>9.0</ele><time>2026-03-28T09:34:42Z</time></trkpt><trkpt lat="45.359723915822215" lon="11.94261984419779"><ele>9.0</ele><time>2026-03-28T09:34:43Z</time></trkpt><trkpt lat="45.35982986598348" lon="11.942460230244187"><ele>9.0</ele><time>2026-03-28T09:34:44Z</time></trkpt><trkpt lat="45.359938142330336" lon="11.942295227597272"><ele>9.0</ele><time>2026-03-28T09:34:45Z</time></trkpt><trkpt lat="45.3600424462233" lon="11.942137805551118"><ele>9.0</ele><time>2026-03-28T09:34:46Z</time></trkpt><trkpt lat="45.36014856473009" lon="11.941977793528899"><ele>9.0</ele><time>2026-03-28T09:34:47Z</time></trkpt><trkpt lat="45.36025218745682" lon="11.941819180545243"><ele>8.666666666666666</ele><time>2026-03-28T09:34:48Z</time></trkpt><trkpt lat="45.36035626810379" lon="11.94165979907214"><ele>8.333333333333332</ele><time>2026-03-28T09:34:49Z</time></trkpt><trkpt lat="45.36046366308095" lon="11.9414959181599"><ele>8.0</ele><time>2026-03-28T09:34:50Z</time></trkpt><trkpt lat="45.360565343651814" lon="11.941338520294737"><ele>8.0</ele><time>2026-03-28T09:34:51Z</time></trkpt><trkpt lat="45.360659319765006" lon="11.941194231143355"><ele>8.0</ele><time>2026-03-28T09:34:52Z</time></trkpt><trkpt lat="45.36074868027742" lon="11.941058341285117"><ele>8.0</ele><time>2026-03-28T09:34:53Z</time></trkpt><trkpt lat="45.360833188923735" lon="11.940930050947097"><ele>8.0</ele><time>2026-03-28T09:34:54Z</time></trkpt><trkpt lat="45.360915977402676" lon="11.940804926993774"><ele>8.200000000000001</ele><time>2026-03-28T09:34:55Z</time></trkpt><trkpt lat="45.36099561121762" lon="11.940684407698068"><ele>8.4</ele><time>2026-03-28T09:34:56Z</time></trkpt><trkpt lat="45.361070852717404" lon="11.940570396727349"><ele>8.600000000000001</ele><time>2026-03-28T09:34:57Z</time></trkpt><trkpt lat="45.3611386698572" lon="11.940457836711294"><ele>8.8</ele><time>2026-03-28T09:34:58Z</time></trkpt><trkpt lat="45.36119712081012" lon="11.940335524890134"><ele>9.0</ele><time>2026-03-28T09:34:59Z</time></trkpt><trkpt lat="45.36124488263919" lon="11.940222363960435"><ele>9.0</ele><time>2026-03-28T09:35:00Z</time></trkpt><trkpt lat="45.36133106057206" lon="11.940143637597293"><ele>9.0</ele><time>2026-03-28T09:35:01Z</time></trkpt><trkpt lat="45.36143112331868" lon="11.940049307397043"><ele>9.0</ele><time>2026-03-28T09:35:02Z</time></trkpt><trkpt lat="45.36151545336367" lon="11.93991350843789"><ele>9.0</ele><time>2026-03-28T09:35:03Z</time></trkpt><trkpt lat="45.36158952803014" lon="11.939782851087774"><ele>9.0</ele><time>2026-03-28T09:35:04Z</time></trkpt><trkpt lat="45.36166428140014" lon="11.939667192484722"><ele>9.0</ele><time>2026-03-28T09:35:05Z</time></trkpt><trkpt lat="45.361743264101065" lon="11.939552145511483"><ele>9.0</ele><time>2026-03-28T09:35:06Z</time></trkpt><trkpt lat="45.36182115800488" lon="11.939422871666972"><ele>9.0</ele><time>2026-03-28T09:35:07Z</time></trkpt><trkpt lat="45.36190596433991" lon="11.93929371476745"><ele>8.75</ele><time>2026-03-28T09:35:08Z</time></trkpt><trkpt lat="45.36199703335008" lon="11.939159042090763"><ele>8.5</ele><time>2026-03-28T09:35:09Z</time></trkpt><trkpt lat="45.36208697795474" lon="11.939023861001955"><ele>8.25</ele><time>2026-03-28T09:35:10Z</time></trkpt><trkpt lat="45.36217434896797" lon="11.938886122004005"><ele>8.0</ele><time>2026-03-28T09:35:11Z</time></trkpt><trkpt lat="45.36227363318618" lon="11.938766006628278"><ele>7.75</ele><time>2026-03-28T09:35:11.999Z</time></trkpt><trkpt lat="45.36236209173905" lon="11.938634640986686"><ele>7.5</ele><time>2026-03-28T09:35:12.999Z</time></trkpt><trkpt lat="45.362449188132224" lon="11.938504662879783"><ele>7.25</ele><time>2026-03-28T09:35:13.999Z</time></trkpt><trkpt lat="45.362530149988245" lon="11.938382322053391"><ele>7.0</ele><time>2026-03-28T09:35:14.999Z</time></trkpt><trkpt lat="45.36260893831005" lon="11.93826326571764"><ele>7.5</ele><time>2026-03-28T09:35:15.999Z</time></trkpt><trkpt lat="45.362686698788025" lon="11.938145763085197"><ele>8.0</ele><time>2026-03-28T09:35:16.999Z</time></trkpt><trkpt lat="45.36276355370153" lon="11.938028053107347"><ele>8.5</ele><time>2026-03-28T09:35:17.999Z</time></trkpt><trkpt lat="45.36283909040882" lon="11.937912816893759"><ele>9.0</ele><time>2026-03-28T09:35:18.999Z</time></trkpt><trkpt lat="45.362915859193336" lon="11.937795701129723"><ele>9.0</ele><time>2026-03-28T09:35:19.999Z</time></trkpt><trkpt lat="45.36298856970286" lon="11.937686512317951"><ele>9.0</ele><time>2026-03-28T09:35:20.999Z</time></trkpt><trkpt lat="45.36306507270939" lon="11.937573067237933"><ele>9.0</ele><time>2026-03-28T09:35:21.999Z</time></trkpt><trkpt lat="45.363141475984605" lon="11.93745988129072"><ele>9.0</ele><time>2026-03-28T09:35:22.999Z</time></trkpt><trkpt lat="45.363215524495246" lon="11.93735018385023"><ele>9.0</ele><time>2026-03-28T09:35:23.999Z</time></trkpt><trkpt lat="45.36328988784124" lon="11.937240240246314"><ele>8.75</ele><time>2026-03-28T09:35:24.999Z</time></trkpt><trkpt lat="45.36336492846005" lon="11.937129286792551"><ele>8.5</ele><time>2026-03-28T09:35:25.999Z</time></trkpt><trkpt lat="45.36344089455837" lon="11.937018504905561"><ele>8.25</ele><time>2026-03-28T09:35:26.999Z</time></trkpt><trkpt lat="45.36352505520623" lon="11.936898425994542"><ele>8.0</ele><time>2026-03-28T09:35:27.999Z</time></trkpt><trkpt lat="45.3636112500097" lon="11.936779508374968"><ele>8.25</ele><time>2026-03-28T09:35:28.999Z</time></trkpt><trkpt lat="45.36368273724326" lon="11.936639375022098"><ele>8.5</ele><time>2026-03-28T09:35:29.999Z</time></trkpt><trkpt lat="45.36377051751048" lon="11.936527679118017"><ele>8.75</ele><time>2026-03-28T09:35:30.999Z</time></trkpt><trkpt lat="45.36385696179107" lon="11.9364175118988"><ele>9.0</ele><time>2026-03-28T09:35:31.999Z</time></trkpt><trkpt lat="45.363950805183165" lon="11.936290026736895"><ele>9.0</ele><time>2026-03-28T09:35:32.999Z</time></trkpt><trkpt lat="45.36405515283046" lon="11.936141076138092"><ele>9.0</ele><time>2026-03-28T09:35:33.999Z</time></trkpt><trkpt lat="45.364138977836134" lon="11.936014536606741"><ele>9.0</ele><time>2026-03-28T09:35:34.999Z</time></trkpt><trkpt lat="45.364217301981896" lon="11.935898744272388"><ele>9.0</ele><time>2026-03-28T09:35:35.999Z</time></trkpt><trkpt lat="45.36428889855626" lon="11.935785550787518"><ele>8.8</ele><time>2026-03-28T09:35:36.999Z</time></trkpt><trkpt lat="45.36434462034231" lon="11.935657432936813"><ele>8.600000000000001</ele><time>2026-03-28T09:35:37.999Z</time></trkpt><trkpt lat="45.36437452713901" lon="11.935515965545449"><ele>8.4</ele><time>2026-03-28T09:35:38.999Z</time></trkpt><trkpt lat="45.364390891665835" lon="11.935363687862424"><ele>8.200000000000001</ele><time>2026-03-28T09:35:39.999Z</time></trkpt><trkpt lat="45.36443245639292" lon="11.93522367062252"><ele>8.0</ele><time>2026-03-28T09:35:40.999Z</time></trkpt><trkpt lat="45.364454782537344" lon="11.935081338308164"><ele>7.800000000000001</ele><time>2026-03-28T09:35:41.999Z</time></trkpt><trkpt lat="45.364476148704895" lon="11.934945279075855"><ele>7.6000000000000005</ele><time>2026-03-28T09:35:42.999Z</time></trkpt><trkpt lat="45.36449932527377" lon="11.934800266023695"><ele>7.3999999999999995</ele><time>2026-03-28T09:35:43.999Z</time></trkpt><trkpt lat="45.36452334064757" lon="11.934650004717767"><ele>7.199999999999999</ele><time>2026-03-28T09:35:44.999Z</time></trkpt><trkpt lat="45.36454798916239" lon="11.934494196553219"><ele>7.0</ele><time>2026-03-28T09:35:45.999Z</time></trkpt><trkpt lat="45.36457350421557" lon="11.93432806962494"><ele>7.25</ele><time>2026-03-28T09:35:46.999Z</time></trkpt><trkpt lat="45.3646063276026" lon="11.93417778598007"><ele>7.5</ele><time>2026-03-28T09:35:47.999Z</time></trkpt><trkpt lat="45.364650616814295" lon="11.93403238580692"><ele>7.75</ele><time>2026-03-28T09:35:48.999Z</time></trkpt><trkpt lat="45.36470915354664" lon="11.933886554596139"><ele>8.0</ele><time>2026-03-28T09:35:49.999Z</time></trkpt><trkpt lat="45.36477925268958" lon="11.933738890628314"><ele>7.5</ele><time>2026-03-28T09:35:50.999Z</time></trkpt><trkpt lat="45.36485599613046" lon="11.933589212866268"><ele>7.0</ele><time>2026-03-28T09:35:51.999Z</time></trkpt><trkpt lat="45.36492477318388" lon="11.933423661885632"><ele>6.5</ele><time>2026-03-28T09:35:52.999Z</time></trkpt><trkpt lat="45.36500572290707" lon="11.933265249430953"><ele>6.0</ele><time>2026-03-28T09:35:53.999Z</time></trkpt><trkpt lat="45.36510248962621" lon="11.93311833236239"><ele>7.0</ele><time>2026-03-28T09:35:54.999Z</time></trkpt><trkpt lat="45.36518178091628" lon="11.932967810262255"><ele>8.0</ele><time>2026-03-28T09:35:55.999Z</time></trkpt><trkpt lat="45.36525620496991" lon="11.932826527912285"><ele>9.0</ele><time>2026-03-28T09:35:56.999Z</time></trkpt><trkpt lat="45.36533198219799" lon="11.932686349550746"><ele>10.0</ele><time>2026-03-28T09:35:57.999Z</time></trkpt><trkpt lat="45.36540213110484" lon="11.932558270592864"><ele>10.25</ele><time>2026-03-28T09:35:58.999Z</time></trkpt><trkpt lat="45.36547414207877" lon="11.932423625790708"><ele>10.5</ele><time>2026-03-28T09:35:59.999Z</time></trkpt><trkpt lat="45.36554198045763" lon="11.932285563761646"><ele>10.75</ele><time>2026-03-28T09:36:00.999Z</time></trkpt><trkpt lat="45.36559563508368" lon="11.932130319446165"><ele>11.0</ele><time>2026-03-28T09:36:01.999Z</time></trkpt><trkpt lat="45.36566300318571" lon="11.931999988981334"><ele>10.333333333333332</ele><time>2026-03-28T09:36:02.999Z</time></trkpt><trkpt lat="45.36572044200354" lon="11.931878413242694"><ele>9.666666666666666</ele><time>2026-03-28T09:36:03.999Z</time></trkpt><trkpt lat="45.36576673964758" lon="11.931765927025722"><ele>9.0</ele><time>2026-03-28T09:36:04.999Z</time></trkpt><trkpt lat="45.36580496321766" lon="11.93165522088223"><ele>8.333333333333334</ele><time>2026-03-28T09:36:05.999Z</time></trkpt><trkpt lat="45.36583259132236" lon="11.93155163847624"><ele>7.666666666666667</ele><time>2026-03-28T09:36:06.999Z</time></trkpt><trkpt lat="45.3658721093134" lon="11.931453771786126"><ele>7.0</ele><time>2026-03-28T09:36:07.999Z</time></trkpt><trkpt lat="45.36594338079529" lon="11.93135126600125"><ele>7.0</ele><time>2026-03-28T09:36:08.999Z</time></trkpt><trkpt lat="45.36600158677684" lon="11.931240244913718"><ele>6.999999999999999</ele><time>2026-03-28T09:36:09.999Z</time></trkpt><trkpt lat="45.36602420484347" lon="11.931117846521683"><ele>6.999999999999999</ele><time>2026-03-28T09:36:10.999Z</time></trkpt><trkpt lat="45.36604430869252" lon="11.931005912715943"><ele>7.0</ele><time>2026-03-28T09:36:11.999Z</time></trkpt><trkpt lat="45.366083110733776" lon="11.930891312341425"><ele>7.0</ele><time>2026-03-28T09:36:12.999Z</time></trkpt><trkpt lat="45.36613937177031" lon="11.930783854201932"><ele>7.0</ele><time>2026-03-28T09:36:14Z</time></trkpt><trkpt lat="45.36620037539602" lon="11.930683498721468"><ele>6.999999999999999</ele><time>2026-03-28T09:36:15Z</time></trkpt><trkpt lat="45.36627389714365" lon="11.930605224897457"><ele>6.999999999999999</ele><time>2026-03-28T09:36:16Z</time></trkpt><trkpt lat="45.366321080264235" lon="11.930497046491478"><ele>7.0</ele><time>2026-03-28T09:36:17Z</time></trkpt><trkpt lat="45.3663707012707" lon="11.930382507061047"><ele>7.0</ele><time>2026-03-28T09:36:18Z</time></trkpt><trkpt lat="45.36640364073324" lon="11.930263217950507"><ele>7.199999999999999</ele><time>2026-03-28T09:36:19Z</time></trkpt><trkpt lat="45.36644437754194" lon="11.930172289621236"><ele>7.3999999999999995</ele><time>2026-03-28T09:36:20Z</time></trkpt><trkpt lat="45.36650419897495" lon="11.93004929806162"><ele>7.6000000000000005</ele><time>2026-03-28T09:36:22Z</time></trkpt><trkpt lat="45.36654946316358" lon="11.92994719616618"><ele>7.800000000000001</ele><time>2026-03-28T09:36:25Z</time></trkpt><trkpt lat="45.36659752726318" lon="11.929827982584936"><ele>8.0</ele><time>2026-03-28T09:36:27Z</time></trkpt><trkpt lat="45.36664938683547" lon="11.929701054019041"><ele>8.0</ele><time>2026-03-28T09:36:28Z</time></trkpt><trkpt lat="45.36669080649594" lon="11.92960351098902"><ele>8.0</ele><time>2026-03-28T09:36:29Z</time></trkpt><trkpt lat="45.36673887447255" lon="11.929487184992887"><ele>8.0</ele><time>2026-03-28T09:36:30Z</time></trkpt><trkpt lat="45.36679333861643" lon="11.929361945615364"><ele>8.0</ele><time>2026-03-28T09:36:31Z</time></trkpt><trkpt lat="45.36685023631053" lon="11.92923037037933"><ele>8.0</ele><time>2026-03-28T09:36:32Z</time></trkpt><trkpt lat="45.366906525969576" lon="11.929095649392027"><ele>8.0</ele><time>2026-03-28T09:36:33Z</time></trkpt><trkpt lat="45.36696532120859" lon="11.928961280039086"><ele>8.0</ele><time>2026-03-28T09:36:34Z</time></trkpt><trkpt lat="45.367030686987434" lon="11.928811273481129"><ele>8.0</ele><time>2026-03-28T09:36:35Z</time></trkpt><trkpt lat="45.36710081108093" lon="11.928645320020323"><ele>8.0</ele><time>2026-03-28T09:36:36Z</time></trkpt><trkpt lat="45.367171504051214" lon="11.928475099387768"><ele>8.25</ele><time>2026-03-28T09:36:37Z</time></trkpt><trkpt lat="45.36723665117147" lon="11.928320156065745"><ele>8.5</ele><time>2026-03-28T09:36:38Z</time></trkpt><trkpt lat="45.36730129970427" lon="11.92816629549239"><ele>8.75</ele><time>2026-03-28T09:36:39Z</time></trkpt><trkpt lat="45.367368435904645" lon="11.92800559479248"><ele>9.0</ele><time>2026-03-28T09:36:40Z</time></trkpt><trkpt lat="45.367435342675385" lon="11.92784198032787"><ele>9.0</ele><time>2026-03-28T09:36:41Z</time></trkpt><trkpt lat="45.367500957175125" lon="11.927686544916378"><ele>9.0</ele><time>2026-03-28T09:36:42Z</time></trkpt><trkpt lat="45.367580985139305" lon="11.927547337513733"><ele>9.0</ele><time>2026-03-28T09:36:43Z</time></trkpt><trkpt lat="45.36764832181123" lon="11.927391342770106"><ele>9.0</ele><time>2026-03-28T09:36:44Z</time></trkpt><trkpt lat="45.3677016478386" lon="11.927222362902175"><ele>9.25</ele><time>2026-03-28T09:36:45Z</time></trkpt><trkpt lat="45.367767205309725" lon="11.927069022544066"><ele>9.5</ele><time>2026-03-28T09:36:46Z</time></trkpt><trkpt lat="45.36783014521958" lon="11.926919772238126"><ele>9.75</ele><time>2026-03-28T09:36:47Z</time></trkpt><trkpt lat="45.36788948861036" lon="11.926786558302691"><ele>10.0</ele><time>2026-03-28T09:36:48Z</time></trkpt><trkpt lat="45.36794401619139" lon="11.926650584034979"><ele>10.0</ele><time>2026-03-28T09:36:49Z</time></trkpt><trkpt lat="45.36801212274836" lon="11.92653408609368"><ele>10.0</ele><time>2026-03-28T09:36:50Z</time></trkpt><trkpt lat="45.368067083226215" lon="11.926404571147168"><ele>10.0</ele><time>2026-03-28T09:36:51Z</time></trkpt><trkpt lat="45.36810800981034" lon="11.926262018684538"><ele>10.0</ele><time>2026-03-28T09:36:52Z</time></trkpt><trkpt lat="45.368167160399" lon="11.926132644692036"><ele>10.0</ele><time>2026-03-28T09:36:53Z</time></trkpt><trkpt lat="45.368227570151035" lon="11.925982115992982"><ele>9.4</ele><time>2026-03-28T09:36:54Z</time></trkpt><trkpt lat="45.368287916287414" lon="11.925842392713559"><ele>8.8</ele><time>2026-03-28T09:36:55Z</time></trkpt><trkpt lat="45.368350492097555" lon="11.925710584462163"><ele>8.2</ele><time>2026-03-28T09:36:56Z</time></trkpt><trkpt lat="45.36840933999551" lon="11.925576855711471"><ele>7.6</ele><time>2026-03-28T09:36:57Z</time></trkpt><trkpt lat="45.368467083502345" lon="11.92544184300349"><ele>7.0</ele><time>2026-03-28T09:36:58Z</time></trkpt><trkpt lat="45.36852584082822" lon="11.925306836630655"><ele>7.0</ele><time>2026-03-28T09:36:59Z</time></trkpt><trkpt lat="45.36858267460641" lon="11.925169359374841"><ele>6.999999999999999</ele><time>2026-03-28T09:37:00Z</time></trkpt><trkpt lat="45.36863696391324" lon="11.92503273242943"><ele>6.999999999999999</ele><time>2026-03-28T09:37:01Z</time></trkpt><trkpt lat="45.36868814826208" lon="11.924904292501665"><ele>7.0</ele><time>2026-03-28T09:37:02Z</time></trkpt><trkpt lat="45.36874627583079" lon="11.924775351452478"><ele>7.0</ele><time>2026-03-28T09:37:03Z</time></trkpt><trkpt lat="45.368805152923315" lon="11.924642656637403"><ele>7.25</ele><time>2026-03-28T09:37:04Z</time></trkpt><trkpt lat="45.368861189026084" lon="11.924497903231781"><ele>7.5</ele><time>2026-03-28T09:37:05Z</time></trkpt><trkpt lat="45.3689206289641" lon="11.924351598572198"><ele>7.75</ele><time>2026-03-28T09:37:06Z</time></trkpt><trkpt lat="45.36898714108355" lon="11.924197860035473"><ele>8.0</ele><time>2026-03-28T09:37:07Z</time></trkpt><trkpt lat="45.36904727587623" lon="11.924051611521207"><ele>8.0</ele><time>2026-03-28T09:37:08Z</time></trkpt><trkpt lat="45.36910971688564" lon="11.923907077725882"><ele>8.0</ele><time>2026-03-28T09:37:09Z</time></trkpt><trkpt lat="45.36917250461975" lon="11.923759136006856"><ele>8.0</ele><time>2026-03-28T09:37:10Z</time></trkpt><trkpt lat="45.369230165930055" lon="11.923612411762546"><ele>8.0</ele><time>2026-03-28T09:37:11Z</time></trkpt><trkpt lat="45.36929142229685" lon="11.923461083442483"><ele>8.0</ele><time>2026-03-28T09:37:12Z</time></trkpt><trkpt lat="45.369351357855315" lon="11.923315056076556"><ele>8.0</ele><time>2026-03-28T09:37:13Z</time></trkpt><trkpt lat="45.3694059867562" lon="11.923171424605911"><ele>8.0</ele><time>2026-03-28T09:37:14Z</time></trkpt><trkpt lat="45.36946847313262" lon="11.923019653152668"><ele>8.0</ele><time>2026-03-28T09:37:15Z</time></trkpt><trkpt lat="45.36955357240694" lon="11.922895497778839"><ele>8.0</ele><time>2026-03-28T09:37:16Z</time></trkpt><trkpt lat="45.36961685772856" lon="11.922747512219926"><ele>8.0</ele><time>2026-03-28T09:37:17Z</time></trkpt><trkpt lat="45.369679280174296" lon="11.922601595153129"><ele>8.0</ele><time>2026-03-28T09:37:18Z</time></trkpt><trkpt lat="45.369743750855" lon="11.922451525461451"><ele>8.0</ele><time>2026-03-28T09:37:19Z</time></trkpt><trkpt lat="45.369806551535724" lon="11.92230554587341"><ele>8.5</ele><time>2026-03-28T09:37:20Z</time></trkpt><trkpt lat="45.36986741078063" lon="11.922162411192938"><ele>9.0</ele><time>2026-03-28T09:37:21Z</time></trkpt><trkpt lat="45.36992773583993" lon="11.922020563351834"><ele>9.5</ele><time>2026-03-28T09:37:22Z</time></trkpt><trkpt lat="45.369987064668116" lon="11.921879659435493"><ele>10.0</ele><time>2026-03-28T09:37:23Z</time></trkpt><trkpt lat="45.37004506003584" lon="11.9217415235821"><ele>9.833333333333334</ele><time>2026-03-28T09:37:24Z</time></trkpt><trkpt lat="45.37010057949436" lon="11.921609285005765"><ele>9.666666666666668</ele><time>2026-03-28T09:37:25Z</time></trkpt><trkpt lat="45.370147160898824" lon="11.921501042738566"><ele>9.5</ele><time>2026-03-28T09:37:26Z</time></trkpt><trkpt lat="45.37019421398838" lon="11.921392327396113"><ele>9.333333333333334</ele><time>2026-03-28T09:37:27Z</time></trkpt><trkpt lat="45.37023964579147" lon="11.921287523152142"><ele>9.166666666666666</ele><time>2026-03-28T09:37:28Z</time></trkpt><trkpt lat="45.37027393293773" lon="11.921208427956799"><ele>9.0</ele><time>2026-03-28T09:37:29Z</time></trkpt><trkpt lat="45.370326012093116" lon="11.921088289301212"><ele>9.0</ele><time>2026-03-28T09:37:30Z</time></trkpt><trkpt lat="45.370360337553635" lon="11.921008485019037"><ele>9.0</ele><time>2026-03-28T09:37:31Z</time></trkpt><trkpt lat="45.37039905431262" lon="11.920916817385788"><ele>9.0</ele><time>2026-03-28T09:37:32Z</time></trkpt><trkpt lat="45.37043916344047" lon="11.920821474670925"><ele>9.0</ele><time>2026-03-28T09:37:33Z</time></trkpt><trkpt lat="45.37048289567269" lon="11.920721421156598"><ele>9.0</ele><time>2026-03-28T09:37:35Z</time></trkpt><trkpt lat="45.37051086880984" lon="11.920579712665955"><ele>9.0</ele><time>2026-03-28T09:37:37Z</time></trkpt><trkpt lat="45.37053785146268" lon="11.92048541609722"><ele>9.0</ele><time>2026-03-28T09:37:38Z</time></trkpt><trkpt lat="45.37057693499913" lon="11.920380698554743"><ele>9.0</ele><time>2026-03-28T09:37:39Z</time></trkpt><trkpt lat="45.370624749070615" lon="11.920276132342165"><ele>9.0</ele><time>2026-03-28T09:37:40Z</time></trkpt><trkpt lat="45.3706735511803" lon="11.9201831838602"><ele>9.0</ele><time>2026-03-28T09:37:41Z</time></trkpt><trkpt lat="45.370747141997235" lon="11.9200922840435"><ele>9.0</ele><time>2026-03-28T09:37:42Z</time></trkpt><trkpt lat="45.37079527355945" lon="11.919977851147134"><ele>9.0</ele><time>2026-03-28T09:37:43Z</time></trkpt><trkpt lat="45.370846039963965" lon="11.919857138985655"><ele>9.4</ele><time>2026-03-28T09:37:43.999Z</time></trkpt><trkpt lat="45.37089671725089" lon="11.919736175965138"><ele>9.8</ele><time>2026-03-28T09:37:44.999Z</time></trkpt><trkpt lat="45.370947271676144" lon="11.919615277974666"><ele>10.200000000000001</ele><time>2026-03-28T09:37:45.999Z</time></trkpt><trkpt lat="45.370997809644585" lon="11.919494419650245"><ele>10.600000000000001</ele><time>2026-03-28T09:37:46.999Z</time></trkpt><trkpt lat="45.371048734281416" lon="11.91937507907704"><ele>11.0</ele><time>2026-03-28T09:37:47.999Z</time></trkpt><trkpt lat="45.37109949002459" lon="11.919255922629219"><ele>10.75</ele><time>2026-03-28T09:37:48.999Z</time></trkpt><trkpt lat="45.37115278512516" lon="11.919134234396028"><ele>10.5</ele><time>2026-03-28T09:37:49.999Z</time></trkpt><trkpt lat="45.37120818145668" lon="11.919007748427054"><ele>10.25</ele><time>2026-03-28T09:37:50.999Z</time></trkpt><trkpt lat="45.371272130497445" lon="11.918861734541817"><ele>10.0</ele><time>2026-03-28T09:37:51.999Z</time></trkpt><trkpt lat="45.37131475114903" lon="11.918674894148564"><ele>10.0</ele><time>2026-03-28T09:37:52.999Z</time></trkpt><trkpt lat="45.37138966471545" lon="11.918495780705237"><ele>10.0</ele><time>2026-03-28T09:37:53.999Z</time></trkpt><trkpt lat="45.37147057391656" lon="11.918306603870793"><ele>10.0</ele><time>2026-03-28T09:37:54.999Z</time></trkpt><trkpt lat="45.3715569542379" lon="11.918108561155"><ele>10.0</ele><time>2026-03-28T09:37:55.999Z</time></trkpt><trkpt lat="45.37166054740349" lon="11.917944311070142"><ele>10.0</ele><time>2026-03-28T09:37:56.999Z</time></trkpt><trkpt lat="45.37173187560533" lon="11.917777421760613"><ele>10.0</ele><time>2026-03-28T09:37:57.999Z</time></trkpt><trkpt lat="45.37179172550525" lon="11.91763742931088"><ele>10.0</ele><time>2026-03-28T09:37:58.999Z</time></trkpt><trkpt lat="45.37184165595232" lon="11.917520640098937"><ele>10.0</ele><time>2026-03-28T09:37:59.999Z</time></trkpt><trkpt lat="45.37188990786695" lon="11.917407775741792"><ele>10.0</ele><time>2026-03-28T09:38:00.999Z</time></trkpt><trkpt lat="45.371938402772834" lon="11.91729620697177"><ele>10.0</ele><time>2026-03-28T09:38:01.999Z</time></trkpt><trkpt lat="45.3719912177394" lon="11.917171983227618"><ele>10.0</ele><time>2026-03-28T09:38:02.999Z</time></trkpt><trkpt lat="45.372047784093176" lon="11.917041181708457"><ele>10.0</ele><time>2026-03-28T09:38:03.999Z</time></trkpt><trkpt lat="45.372099208353546" lon="11.916921806585151"><ele>10.0</ele><time>2026-03-28T09:38:04.999Z</time></trkpt><trkpt lat="45.37215002654282" lon="11.916803242305702"><ele>10.0</ele><time>2026-03-28T09:38:06Z</time></trkpt><trkpt lat="45.37220358493165" lon="11.916678284473655"><ele>10.0</ele><time>2026-03-28T09:38:07Z</time></trkpt><trkpt lat="45.37225671817956" lon="11.91655431484405"><ele>10.0</ele><time>2026-03-28T09:38:08Z</time></trkpt><trkpt lat="45.37231106588351" lon="11.916426774206164"><ele>10.0</ele><time>2026-03-28T09:38:09Z</time></trkpt><trkpt lat="45.3723645756141" lon="11.916300539142185"><ele>10.0</ele><time>2026-03-28T09:38:10Z</time></trkpt><trkpt lat="45.37242048178007" lon="11.916168201316456"><ele>10.0</ele><time>2026-03-28T09:38:11Z</time></trkpt><trkpt lat="45.37247519198257" lon="11.916038694589997"><ele>10.0</ele><time>2026-03-28T09:38:12Z</time></trkpt><trkpt lat="45.37253576041247" lon="11.915895983666704"><ele>10.0</ele><time>2026-03-28T09:38:13Z</time></trkpt><trkpt lat="45.37259786374187" lon="11.91574967465688"><ele>9.75</ele><time>2026-03-28T09:38:14Z</time></trkpt><trkpt lat="45.3726606501735" lon="11.91560404329747"><ele>9.5</ele><time>2026-03-28T09:38:15Z</time></trkpt><trkpt lat="45.37272577911818" lon="11.915452602702786"><ele>9.25</ele><time>2026-03-28T09:38:16Z</time></trkpt><trkpt lat="45.372793339172276" lon="11.915293916355651"><ele>9.0</ele><time>2026-03-28T09:38:17Z</time></trkpt><trkpt lat="45.37284102049446" lon="11.9151269628432"><ele>9.0</ele><time>2026-03-28T09:38:18Z</time></trkpt><trkpt lat="45.372908420493125" lon="11.914970940427237"><ele>9.0</ele><time>2026-03-28T09:38:19Z</time></trkpt><trkpt lat="45.372972209911175" lon="11.914821517722237"><ele>9.0</ele><time>2026-03-28T09:38:20Z</time></trkpt><trkpt lat="45.37303891302683" lon="11.914665655295314"><ele>9.0</ele><time>2026-03-28T09:38:21Z</time></trkpt><trkpt lat="45.37310353801943" lon="11.914502430745134"><ele>9.25</ele><time>2026-03-28T09:38:22Z</time></trkpt><trkpt lat="45.37316974340657" lon="11.914359120218782"><ele>9.5</ele><time>2026-03-28T09:38:23Z</time></trkpt><trkpt lat="45.37323232874056" lon="11.914208239586008"><ele>9.75</ele><time>2026-03-28T09:38:24Z</time></trkpt><trkpt lat="45.37330962250869" lon="11.914071470426192"><ele>10.0</ele><time>2026-03-28T09:38:25Z</time></trkpt><trkpt lat="45.37337326286436" lon="11.91392220211712"><ele>10.0</ele><time>2026-03-28T09:38:26Z</time></trkpt><trkpt lat="45.37343886558724" lon="11.913768331443608"><ele>10.0</ele><time>2026-03-28T09:38:27Z</time></trkpt><trkpt lat="45.37348954941052" lon="11.91360138889132"><ele>10.0</ele><time>2026-03-28T09:38:28Z</time></trkpt><trkpt lat="45.373554976305684" lon="11.913445618380013"><ele>10.0</ele><time>2026-03-28T09:38:29Z</time></trkpt><trkpt lat="45.373623381511464" lon="11.913292197009039"><ele>10.0</ele><time>2026-03-28T09:38:30Z</time></trkpt><trkpt lat="45.37369081853606" lon="11.913132786977542"><ele>10.0</ele><time>2026-03-28T09:38:31Z</time></trkpt><trkpt lat="45.373757894444644" lon="11.91297605746561"><ele>10.0</ele><time>2026-03-28T09:38:32Z</time></trkpt><trkpt lat="45.37382612973478" lon="11.912820857323506"><ele>10.0</ele><time>2026-03-28T09:38:33Z</time></trkpt><trkpt lat="45.373893944647456" lon="11.912662129621129"><ele>10.0</ele><time>2026-03-28T09:38:34Z</time></trkpt><trkpt lat="45.373961439267354" lon="11.912502101416965"><ele>10.0</ele><time>2026-03-28T09:38:35Z</time></trkpt><trkpt lat="45.37402457689951" lon="11.912350635894624"><ele>10.0</ele><time>2026-03-28T09:38:36Z</time></trkpt><trkpt lat="45.37409595396165" lon="11.91218521661796"><ele>10.0</ele><time>2026-03-28T09:38:37Z</time></trkpt><trkpt lat="45.374174747710796" lon="11.912005823208016"><ele>10.0</ele><time>2026-03-28T09:38:38Z</time></trkpt><trkpt lat="45.37424529964642" lon="11.911848078602622"><ele>10.0</ele><time>2026-03-28T09:38:39Z</time></trkpt><trkpt lat="45.37430719189366" lon="11.911693605628985"><ele>10.0</ele><time>2026-03-28T09:38:40Z</time></trkpt><trkpt lat="45.37436755357932" lon="11.911543691141517"><ele>10.0</ele><time>2026-03-28T09:38:41Z</time></trkpt><trkpt lat="45.3744466473092" lon="11.911404893695119"><ele>10.0</ele><time>2026-03-28T09:38:42Z</time></trkpt><trkpt lat="45.37451504664102" lon="11.911249966779447"><ele>10.0</ele><time>2026-03-28T09:38:43Z</time></trkpt><trkpt lat="45.37459207297554" lon="11.911078393372264"><ele>10.0</ele><time>2026-03-28T09:38:44Z</time></trkpt><trkpt lat="45.37467003090708" lon="11.910902390272138"><ele>10.0</ele><time>2026-03-28T09:38:45Z</time></trkpt><trkpt lat="45.37469813091526" lon="11.910713727199507"><ele>10.0</ele><time>2026-03-28T09:38:46Z</time></trkpt><trkpt lat="45.37475962718093" lon="11.91057303280341"><ele>10.0</ele><time>2026-03-28T09:38:47Z</time></trkpt><trkpt lat="45.37481510414837" lon="11.910446736420685"><ele>10.0</ele><time>2026-03-28T09:38:48Z</time></trkpt><trkpt lat="45.37486444969429" lon="11.910329253593634"><ele>10.0</ele><time>2026-03-28T09:38:49Z</time></trkpt><trkpt lat="45.374935900884445" lon="11.910233271047584"><ele>10.0</ele><time>2026-03-28T09:38:50Z</time></trkpt><trkpt lat="45.37497399512705" lon="11.910122599341658"><ele>10.0</ele><time>2026-03-28T09:38:51Z</time></trkpt><trkpt lat="45.37502647534529" lon="11.910046606776863"><ele>10.0</ele><time>2026-03-28T09:38:52Z</time></trkpt><trkpt lat="45.37507620219446" lon="11.90998785272768"><ele>10.0</ele><time>2026-03-28T09:38:54Z</time></trkpt><trkpt lat="45.37515337647495" lon="11.90994290739132"><ele>10.0</ele><time>2026-03-28T09:39:04Z</time></trkpt><trkpt lat="45.37521715290323" lon="11.909903736830108"><ele>10.0</ele><time>2026-03-28T09:39:05Z</time></trkpt><trkpt lat="45.37527303444059" lon="11.909712112739168"><ele>10.0</ele><time>2026-03-28T09:39:07Z</time></trkpt><trkpt lat="45.3752984722284" lon="11.909532633679033"><ele>10.0</ele><time>2026-03-28T09:39:08Z</time></trkpt><trkpt lat="45.37533650554437" lon="11.909368017216103"><ele>10.0</ele><time>2026-03-28T09:39:09Z</time></trkpt><trkpt lat="45.37538162046457" lon="11.909245019521213"><ele>10.0</ele><time>2026-03-28T09:39:10Z</time></trkpt><trkpt lat="45.375425189206204" lon="11.909178866675866"><ele>10.0</ele><time>2026-03-28T09:39:11Z</time></trkpt><trkpt lat="45.37541700843383" lon="11.909029904033481"><ele>10.0</ele><time>2026-03-28T09:39:13Z</time></trkpt><trkpt lat="45.37526762954081" lon="11.908958746205965"><ele>10.333333333333334</ele><time>2026-03-28T09:39:15Z</time></trkpt><trkpt lat="45.37519510683127" lon="11.908928779164995"><ele>10.666666666666668</ele><time>2026-03-28T09:39:16Z</time></trkpt><trkpt lat="45.37512210125787" lon="11.908892117549058"><ele>11.0</ele><time>2026-03-28T09:39:17Z</time></trkpt><trkpt lat="45.375047896421805" lon="11.90883709569402"><ele>11.333333333333334</ele><time>2026-03-28T09:39:18Z</time></trkpt><trkpt lat="45.37498769781746" lon="11.908745253064946"><ele>11.666666666666666</ele><time>2026-03-28T09:39:19Z</time></trkpt><trkpt lat="45.3749194237561" lon="11.908680559751188"><ele>12.0</ele><time>2026-03-28T09:39:20Z</time></trkpt><trkpt lat="45.374848345624336" lon="11.908609214516403"><ele>12.0</ele><time>2026-03-28T09:39:21Z</time></trkpt><trkpt lat="45.374769003120825" lon="11.908513176593155"><ele>12.0</ele><time>2026-03-28T09:39:22Z</time></trkpt><trkpt lat="45.37465068480217" lon="11.908383768373136"><ele>12.0</ele><time>2026-03-28T09:39:23Z</time></trkpt><trkpt lat="45.37451953357787" lon="11.9082174136615"><ele>12.0</ele><time>2026-03-28T09:39:24Z</time></trkpt><trkpt lat="45.374360016454574" lon="11.908029585738056"><ele>10.5</ele><time>2026-03-28T09:39:25Z</time></trkpt><trkpt lat="45.37416930324811" lon="11.907803443580724"><ele>9.0</ele><time>2026-03-28T09:39:26Z</time></trkpt><trkpt lat="45.37397845707225" lon="11.907585628785176"><ele>8.666666666666666</ele><time>2026-03-28T09:39:27Z</time></trkpt><trkpt lat="45.37379095426481" lon="11.907372420085867"><ele>8.333333333333332</ele><time>2026-03-28T09:39:28Z</time></trkpt><trkpt lat="45.373627139138904" lon="11.907186633232676"><ele>8.0</ele><time>2026-03-28T09:39:29Z</time></trkpt><trkpt lat="45.373480072086195" lon="11.907000836120297"><ele>8.0</ele><time>2026-03-28T09:39:30Z</time></trkpt><trkpt lat="45.37334545308346" lon="11.906826425230589"><ele>8.0</ele><time>2026-03-28T09:39:31Z</time></trkpt><trkpt lat="45.3732152272466" lon="11.90664820848881"><ele>8.0</ele><time>2026-03-28T09:39:32Z</time></trkpt><trkpt lat="45.37308616446787" lon="11.906477973952963"><ele>7.666666666666666</ele><time>2026-03-28T09:39:33Z</time></trkpt><trkpt lat="45.37296013195135" lon="11.906303408678768"><ele>7.333333333333334</ele><time>2026-03-28T09:39:34Z</time></trkpt><trkpt lat="45.372842513431216" lon="11.90613683905988"><ele>7.0</ele><time>2026-03-28T09:39:35Z</time></trkpt><trkpt lat="45.372729484152806" lon="11.905975573055107"><ele>7.333333333333334</ele><time>2026-03-28T09:39:36Z</time></trkpt><trkpt lat="45.372616299659555" lon="11.90581008880745"><ele>7.666666666666666</ele><time>2026-03-28T09:39:37Z</time></trkpt><trkpt lat="45.372502850645475" lon="11.905640888684767"><ele>8.0</ele><time>2026-03-28T09:39:38Z</time></trkpt><trkpt lat="45.37239306894954" lon="11.905476200351615"><ele>8.0</ele><time>2026-03-28T09:39:39Z</time></trkpt><trkpt lat="45.37229055101963" lon="11.905299616723267"><ele>8.0</ele><time>2026-03-28T09:39:40Z</time></trkpt><trkpt lat="45.372181707521975" lon="11.905109093498547"><ele>8.0</ele><time>2026-03-28T09:39:41Z</time></trkpt><trkpt lat="45.372075616296975" lon="11.90490084651637"><ele>7.666666666666666</ele><time>2026-03-28T09:39:42Z</time></trkpt><trkpt lat="45.371978569935266" lon="11.904695862530902"><ele>7.333333333333334</ele><time>2026-03-28T09:39:43Z</time></trkpt><trkpt lat="45.37189324783209" lon="11.904489987487297"><ele>7.0</ele><time>2026-03-28T09:39:44Z</time></trkpt><trkpt lat="45.37181000608328" lon="11.904288112892557"><ele>7.0</ele><time>2026-03-28T09:39:45Z</time></trkpt><trkpt lat="45.371724242258956" lon="11.904094130781138"><ele>7.0</ele><time>2026-03-28T09:39:46Z</time></trkpt><trkpt lat="45.371644355109794" lon="11.903902626022301"><ele>7.0</ele><time>2026-03-28T09:39:47Z</time></trkpt><trkpt lat="45.371568100947414" lon="11.903709364289522"><ele>7.0</ele><time>2026-03-28T09:39:48Z</time></trkpt><trkpt lat="45.37149223058937" lon="11.903512399877135"><ele>7.0</ele><time>2026-03-28T09:39:49Z</time></trkpt><trkpt lat="45.37142057101087" lon="11.903316325179695"><ele>7.0</ele><time>2026-03-28T09:39:50Z</time></trkpt><trkpt lat="45.37135304552371" lon="11.903118217966409"><ele>7.0</ele><time>2026-03-28T09:39:51Z</time></trkpt><trkpt lat="45.37128199948306" lon="11.902918270873176"><ele>7.0</ele><time>2026-03-28T09:39:52Z</time></trkpt><trkpt lat="45.37121135951311" lon="11.90271273981529"><ele>7.0</ele><time>2026-03-28T09:39:53Z</time></trkpt><trkpt lat="45.37114478686024" lon="11.90250318084018"><ele>7.0</ele><time>2026-03-28T09:39:54Z</time></trkpt><trkpt lat="45.3710801425951" lon="11.902281835327317"><ele>7.0</ele><time>2026-03-28T09:39:55Z</time></trkpt><trkpt lat="45.371017018196646" lon="11.902064628514262"><ele>7.0</ele><time>2026-03-28T09:39:56Z</time></trkpt><trkpt lat="45.37095224683293" lon="11.90185289192349"><ele>7.333333333333334</ele><time>2026-03-28T09:39:57Z</time></trkpt><trkpt lat="45.37088546378463" lon="11.901634226579034"><ele>7.666666666666666</ele><time>2026-03-28T09:39:58Z</time></trkpt><trkpt lat="45.37082234992994" lon="11.901432236290887"><ele>8.0</ele><time>2026-03-28T09:39:59Z</time></trkpt><trkpt lat="45.370760739004744" lon="11.901221579369253"><ele>8.0</ele><time>2026-03-28T09:40:00Z</time></trkpt><trkpt lat="45.37069743542702" lon="11.901013385799859"><ele>8.0</ele><time>2026-03-28T09:40:01Z</time></trkpt><trkpt lat="45.37063308957541" lon="11.900798950394082"><ele>8.0</ele><time>2026-03-28T09:40:02Z</time></trkpt><trkpt lat="45.37057291355398" lon="11.900591147197396"><ele>7.666666666666666</ele><time>2026-03-28T09:40:03Z</time></trkpt><trkpt lat="45.37051181226791" lon="11.900374521414061"><ele>7.333333333333334</ele><time>2026-03-28T09:40:04Z</time></trkpt><trkpt lat="45.370453115157055" lon="11.900167433768145"><ele>7.0</ele><time>2026-03-28T09:40:05Z</time></trkpt><trkpt lat="45.37039309285015" lon="11.89995541709667"><ele>7.0</ele><time>2026-03-28T09:40:06Z</time></trkpt><trkpt lat="45.37033262065477" lon="11.899743308044618"><ele>7.0</ele><time>2026-03-28T09:40:07Z</time></trkpt><trkpt lat="45.37027223828523" lon="11.899531082512365"><ele>7.0</ele><time>2026-03-28T09:40:08Z</time></trkpt><trkpt lat="45.37020505314376" lon="11.899291815227347"><ele>7.0</ele><time>2026-03-28T09:40:09Z</time></trkpt><trkpt lat="45.370123072392424" lon="11.899015691971803"><ele>7.0</ele><time>2026-03-28T09:40:10Z</time></trkpt><trkpt lat="45.370022187600505" lon="11.898683905072506"><ele>7.0</ele><time>2026-03-28T09:40:11Z</time></trkpt><trkpt lat="45.36991227461857" lon="11.8983040796742"><ele>7.0</ele><time>2026-03-28T09:40:12Z</time></trkpt><trkpt lat="45.36980527240599" lon="11.897933147017378"><ele>7.5</ele><time>2026-03-28T09:40:13Z</time></trkpt><trkpt lat="45.36968655339342" lon="11.897556344255321"><ele>8.0</ele><time>2026-03-28T09:40:14Z</time></trkpt><trkpt lat="45.36955059735657" lon="11.89714683658177"><ele>6.5</ele><time>2026-03-28T09:40:15Z</time></trkpt><trkpt lat="45.369417160444804" lon="11.896708309501498"><ele>5.0</ele><time>2026-03-28T09:40:16Z</time></trkpt><trkpt lat="45.36929337876385" lon="11.896288463167657"><ele>5.0</ele><time>2026-03-28T09:40:17Z</time></trkpt><trkpt lat="45.3691896424494" lon="11.895921173453477"><ele>5.0</ele><time>2026-03-28T09:40:18Z</time></trkpt><trkpt lat="45.36909872784019" lon="11.895593559426805"><ele>5.0</ele><time>2026-03-28T09:40:19Z</time></trkpt><trkpt lat="45.3690162713977" lon="11.895279992693126"><ele>5.0</ele><time>2026-03-28T09:40:20Z</time></trkpt><trkpt lat="45.368924033843655" lon="11.894953554885413"><ele>6.0</ele><time>2026-03-28T09:40:21Z</time></trkpt><trkpt lat="45.36883056826615" lon="11.894606541041405"><ele>7.0</ele><time>2026-03-28T09:40:22Z</time></trkpt><trkpt lat="45.36874009439402" lon="11.894260923143078"><ele>7.5</ele><time>2026-03-28T09:40:23Z</time></trkpt><trkpt lat="45.36865000483477" lon="11.893903150118323"><ele>8.0</ele><time>2026-03-28T09:40:24Z</time></trkpt><trkpt lat="45.368554118504846" lon="11.893502531583067"><ele>9.0</ele><time>2026-03-28T09:40:25Z</time></trkpt><trkpt lat="45.368455783076854" lon="11.893067639289505"><ele>10.0</ele><time>2026-03-28T09:40:26Z</time></trkpt><trkpt lat="45.36836328175344" lon="11.8926064035603"><ele>9.0</ele><time>2026-03-28T09:40:27Z</time></trkpt><trkpt lat="45.3682722240181" lon="11.892116240654643"><ele>8.0</ele><time>2026-03-28T09:40:28Z</time></trkpt><trkpt lat="45.36818351549312" lon="11.891619833850184"><ele>7.5</ele><time>2026-03-28T09:40:29Z</time></trkpt><trkpt lat="45.36809431909992" lon="11.891125916169441"><ele>7.0</ele><time>2026-03-28T09:40:30Z</time></trkpt><trkpt lat="45.36800911126433" lon="11.890663562663406"><ele>7.0</ele><time>2026-03-28T09:40:31Z</time></trkpt><trkpt lat="45.36792722370119" lon="11.890206821462934"><ele>7.0</ele><time>2026-03-28T09:40:32Z</time></trkpt><trkpt lat="45.36784727114534" lon="11.889760541269503"><ele>7.5</ele><time>2026-03-28T09:40:33Z</time></trkpt><trkpt lat="45.36777570717529" lon="11.889324741858767"><ele>8.0</ele><time>2026-03-28T09:40:34Z</time></trkpt><trkpt lat="45.36770535121222" lon="11.888897413178691"><ele>8.0</ele><time>2026-03-28T09:40:35Z</time></trkpt><trkpt lat="45.3676375309246" lon="11.888507733145378"><ele>8.0</ele><time>2026-03-28T09:40:36Z</time></trkpt><trkpt lat="45.36756835393608" lon="11.888144030207856"><ele>8.0</ele><time>2026-03-28T09:40:37Z</time></trkpt><trkpt lat="45.36750516855157" lon="11.88780373041455"><ele>8.0</ele><time>2026-03-28T09:40:38Z</time></trkpt><trkpt lat="45.367448203647086" lon="11.8874892429776"><ele>8.0</ele><time>2026-03-28T09:40:39Z</time></trkpt><trkpt lat="45.36739541163224" lon="11.887193698689186"><ele>8.0</ele><time>2026-03-28T09:40:40Z</time></trkpt><trkpt lat="45.36734495916481" lon="11.886918535809809"><ele>8.0</ele><time>2026-03-28T09:40:41Z</time></trkpt><trkpt lat="45.36729641092946" lon="11.886662885100996"><ele>7.666666666666666</ele><time>2026-03-28T09:40:42Z</time></trkpt><trkpt lat="45.36725019647033" lon="11.886418073886542"><ele>7.333333333333334</ele><time>2026-03-28T09:40:43Z</time></trkpt><trkpt lat="45.367208311383514" lon="11.886193448644644"><ele>7.0</ele><time>2026-03-28T09:40:44Z</time></trkpt><trkpt lat="45.36716636969662" lon="11.885953680028914"><ele>7.0</ele><time>2026-03-28T09:40:45Z</time></trkpt><trkpt lat="45.367122047866225" lon="11.88572176035498"><ele>7.0</ele><time>2026-03-28T09:40:46Z</time></trkpt><trkpt lat="45.3670739860739" lon="11.88546857284227"><ele>7.0</ele><time>2026-03-28T09:40:47Z</time></trkpt><trkpt lat="45.367030647688274" lon="11.88522486106899"><ele>7.333333333333334</ele><time>2026-03-28T09:40:48Z</time></trkpt><trkpt lat="45.36698728838671" lon="11.884974560163421"><ele>7.666666666666666</ele><time>2026-03-28T09:40:49Z</time></trkpt><trkpt lat="45.366933042296445" lon="11.884707005862424"><ele>8.0</ele><time>2026-03-28T09:40:50Z</time></trkpt><trkpt lat="45.366872714727684" lon="11.884432985794044"><ele>7.666666666666666</ele><time>2026-03-28T09:40:51Z</time></trkpt><trkpt lat="45.36681309812143" lon="11.884146496712745"><ele>7.333333333333334</ele><time>2026-03-28T09:40:52Z</time></trkpt><trkpt lat="45.36676097216814" lon="11.883859313751223"><ele>7.0</ele><time>2026-03-28T09:40:53Z</time></trkpt><trkpt lat="45.36670935699293" lon="11.883596798258333"><ele>8.0</ele><time>2026-03-28T09:40:54Z</time></trkpt><trkpt lat="45.366657035068705" lon="11.88330803263394"><ele>9.0</ele><time>2026-03-28T09:40:55Z</time></trkpt><trkpt lat="45.36659179434156" lon="11.88295800661203"><ele>9.0</ele><time>2026-03-28T09:40:56Z</time></trkpt><trkpt lat="45.36652288211179" lon="11.882578860817077"><ele>9.0</ele><time>2026-03-28T09:40:57Z</time></trkpt><trkpt lat="45.36644990341439" lon="11.882204577164604"><ele>9.0</ele><time>2026-03-28T09:40:58Z</time></trkpt><trkpt lat="45.36638158527445" lon="11.881838293769002"><ele>9.0</ele><time>2026-03-28T09:40:59Z</time></trkpt><trkpt lat="45.36632151674723" lon="11.881475298915051"><ele>8.5</ele><time>2026-03-28T09:41:00Z</time></trkpt><trkpt lat="45.36625359958624" lon="11.88111128770735"><ele>8.0</ele><time>2026-03-28T09:41:01Z</time></trkpt><trkpt lat="45.366177428458734" lon="11.880707760757883"><ele>8.0</ele><time>2026-03-28T09:41:02Z</time></trkpt><trkpt lat="45.366087705844606" lon="11.880258106667826"><ele>8.0</ele><time>2026-03-28T09:41:03Z</time></trkpt><trkpt lat="45.36600099151802" lon="11.879773542315602"><ele>8.0</ele><time>2026-03-28T09:41:04Z</time></trkpt><trkpt lat="45.36590784633906" lon="11.879259376635058"><ele>8.0</ele><time>2026-03-28T09:41:05Z</time></trkpt><trkpt lat="45.36580791179806" lon="11.87872702440192"><ele>7.5</ele><time>2026-03-28T09:41:06Z</time></trkpt><trkpt lat="45.36571123746978" lon="11.87818163675485"><ele>7.0</ele><time>2026-03-28T09:41:07Z</time></trkpt><trkpt lat="45.36562480877776" lon="11.87770851713577"><ele>7.0</ele><time>2026-03-28T09:41:08Z</time></trkpt><trkpt lat="45.36554471218524" lon="11.877254917701562"><ele>7.0</ele><time>2026-03-28T09:41:09Z</time></trkpt><trkpt lat="45.36546654768029" lon="11.876813464602593"><ele>7.0</ele><time>2026-03-28T09:41:10Z</time></trkpt><trkpt lat="45.365399496502064" lon="11.876380930372124"><ele>7.0</ele><time>2026-03-28T09:41:11Z</time></trkpt><trkpt lat="45.365336030659094" lon="11.875963820277745"><ele>7.5</ele><time>2026-03-28T09:41:12Z</time></trkpt><trkpt lat="45.36526503556357" lon="11.875558057216539"><ele>8.0</ele><time>2026-03-28T09:41:13Z</time></trkpt><trkpt lat="45.36519122262198" lon="11.875166785009624"><ele>8.5</ele><time>2026-03-28T09:41:14Z</time></trkpt><trkpt lat="45.36512055958163" lon="11.874788039813529"><ele>9.0</ele><time>2026-03-28T09:41:15Z</time></trkpt><trkpt lat="45.36505383436688" lon="11.874422486336647"><ele>9.0</ele><time>2026-03-28T09:41:16Z</time></trkpt><trkpt lat="45.364989052283605" lon="11.874061422863756"><ele>9.0</ele><time>2026-03-28T09:41:17Z</time></trkpt><trkpt lat="45.364924671252396" lon="11.873704971761281"><ele>9.0</ele><time>2026-03-28T09:41:18Z</time></trkpt><trkpt lat="45.36486268017657" lon="11.873356433741428"><ele>9.0</ele><time>2026-03-28T09:41:19Z</time></trkpt><trkpt lat="45.36479848396578" lon="11.873017102696819"><ele>9.0</ele><time>2026-03-28T09:41:20Z</time></trkpt><trkpt lat="45.3647374807075" lon="11.872663618939923"><ele>9.0</ele><time>2026-03-28T09:41:21Z</time></trkpt><trkpt lat="45.364670700836776" lon="11.872311937735136"><ele>9.0</ele><time>2026-03-28T09:41:22Z</time></trkpt><trkpt lat="45.364609201200466" lon="11.871960314862143"><ele>9.0</ele><time>2026-03-28T09:41:23Z</time></trkpt><trkpt lat="45.36454188361649" lon="11.871610309575946"><ele>10.0</ele><time>2026-03-28T09:41:24Z</time></trkpt><trkpt lat="45.364477386842445" lon="11.871256180110718"><ele>11.0</ele><time>2026-03-28T09:41:25Z</time></trkpt><trkpt lat="45.3644158449397" lon="11.870903645717702"><ele>11.0</ele><time>2026-03-28T09:41:26Z</time></trkpt><trkpt lat="45.36435631812133" lon="11.870557653493318"><ele>11.0</ele><time>2026-03-28T09:41:27Z</time></trkpt><trkpt lat="45.364301471073745" lon="11.870219003813693"><ele>9.5</ele><time>2026-03-28T09:41:28Z</time></trkpt><trkpt lat="45.364251240312676" lon="11.869868106246448"><ele>8.0</ele><time>2026-03-28T09:41:29Z</time></trkpt><trkpt lat="45.3642000955375" lon="11.869516274177045"><ele>8.0</ele><time>2026-03-28T09:41:30Z</time></trkpt><trkpt lat="45.36414817425841" lon="11.86916706979293"><ele>8.0</ele><time>2026-03-28T09:41:31Z</time></trkpt><trkpt lat="45.36409715443497" lon="11.868809821351004"><ele>8.0</ele><time>2026-03-28T09:41:32Z</time></trkpt><trkpt lat="45.36404965749585" lon="11.868451378860515"><ele>8.0</ele><time>2026-03-28T09:41:33Z</time></trkpt><trkpt lat="45.364001746437715" lon="11.868084730202572"><ele>8.0</ele><time>2026-03-28T09:41:34Z</time></trkpt><trkpt lat="45.36395925595454" lon="11.867719064957972"><ele>8.0</ele><time>2026-03-28T09:41:35Z</time></trkpt><trkpt lat="45.36392163759098" lon="11.867354121632985"><ele>8.0</ele><time>2026-03-28T09:41:36Z</time></trkpt><trkpt lat="45.363891132711025" lon="11.866999369054895"><ele>8.0</ele><time>2026-03-28T09:41:37Z</time></trkpt><trkpt lat="45.36386348300535" lon="11.866663707448119"><ele>8.0</ele><time>2026-03-28T09:41:38Z</time></trkpt><trkpt lat="45.3638375330785" lon="11.866325335136645"><ele>8.0</ele><time>2026-03-28T09:41:39Z</time></trkpt><trkpt lat="45.36381083249122" lon="11.866000569136276"><ele>8.5</ele><time>2026-03-28T09:41:40Z</time></trkpt><trkpt lat="45.36379121011119" lon="11.865671725348976"><ele>9.0</ele><time>2026-03-28T09:41:41Z</time></trkpt><trkpt lat="45.363766360979525" lon="11.86534120299212"><ele>8.5</ele><time>2026-03-28T09:41:42Z</time></trkpt><trkpt lat="45.363747312813494" lon="11.865015591883596"><ele>8.0</ele><time>2026-03-28T09:41:43Z</time></trkpt><trkpt lat="45.36373084218178" lon="11.864699996360072"><ele>8.0</ele><time>2026-03-28T09:41:44Z</time></trkpt><trkpt lat="45.363715224553246" lon="11.864382538649817"><ele>8.0</ele><time>2026-03-28T09:41:45Z</time></trkpt><trkpt lat="45.36370188087342" lon="11.864063404640588"><ele>8.0</ele><time>2026-03-28T09:41:46Z</time></trkpt><trkpt lat="45.36368501908778" lon="11.863747885541478"><ele>7.666666666666666</ele><time>2026-03-28T09:41:47Z</time></trkpt><trkpt lat="45.363671952274345" lon="11.863437149714391"><ele>7.333333333333334</ele><time>2026-03-28T09:41:48Z</time></trkpt><trkpt lat="45.363662617857024" lon="11.863139512576591"><ele>7.0</ele><time>2026-03-28T09:41:49Z</time></trkpt><trkpt lat="45.36365770464756" lon="11.862840017530434"><ele>7.333333333333334</ele><time>2026-03-28T09:41:50Z</time></trkpt><trkpt lat="45.36365235623031" lon="11.862547884904423"><ele>7.666666666666666</ele><time>2026-03-28T09:41:51Z</time></trkpt><trkpt lat="45.3636299301295" lon="11.862239715770912"><ele>8.0</ele><time>2026-03-28T09:41:52Z</time></trkpt><trkpt lat="45.36364080053221" lon="11.861898924913842"><ele>8.0</ele><time>2026-03-28T09:41:53Z</time></trkpt><trkpt lat="45.36362180405041" lon="11.861542188421334"><ele>8.0</ele><time>2026-03-28T09:41:54Z</time></trkpt><trkpt lat="45.3636074115101" lon="11.86120045738268"><ele>7.666666666666666</ele><time>2026-03-28T09:41:55Z</time></trkpt><trkpt lat="45.3635980946731" lon="11.860878087607881"><ele>7.333333333333334</ele><time>2026-03-28T09:41:56Z</time></trkpt><trkpt lat="45.36358801329617" lon="11.860583598707395"><ele>7.0</ele><time>2026-03-28T09:41:57Z</time></trkpt><trkpt lat="45.36357948584575" lon="11.860304288844993"><ele>7.0</ele><time>2026-03-28T09:41:58Z</time></trkpt><trkpt lat="45.363567922130244" lon="11.860032141753207"><ele>7.0</ele><time>2026-03-28T09:41:59Z</time></trkpt><trkpt lat="45.36355663116665" lon="11.85973779242582"><ele>7.0</ele><time>2026-03-28T09:42:00Z</time></trkpt><trkpt lat="45.363548499715655" lon="11.859460101551601"><ele>7.333333333333334</ele><time>2026-03-28T09:42:01Z</time></trkpt><trkpt lat="45.36354048354554" lon="11.859198031445304"><ele>7.666666666666666</ele><time>2026-03-28T09:42:02Z</time></trkpt><trkpt lat="45.363531128817094" lon="11.858949232370264"><ele>8.0</ele><time>2026-03-28T09:42:03Z</time></trkpt><trkpt lat="45.36352225944183" lon="11.858706229231409"><ele>8.0</ele><time>2026-03-28T09:42:04Z</time></trkpt><trkpt lat="45.363517337668625" lon="11.858468055868881"><ele>8.0</ele><time>2026-03-28T09:42:05Z</time></trkpt><trkpt lat="45.36351042422261" lon="11.85822186456078"><ele>8.0</ele><time>2026-03-28T09:42:06Z</time></trkpt><trkpt lat="45.363498159074574" lon="11.857976029088002"><ele>8.0</ele><time>2026-03-28T09:42:07Z</time></trkpt><trkpt lat="45.363486877164405" lon="11.85772033780908"><ele>8.0</ele><time>2026-03-28T09:42:08Z</time></trkpt><trkpt lat="45.36347710914602" lon="11.857487392864595"><ele>8.0</ele><time>2026-03-28T09:42:09Z</time></trkpt><trkpt lat="45.3634704262706" lon="11.857261925808162"><ele>8.333333333333332</ele><time>2026-03-28T09:42:10Z</time></trkpt><trkpt lat="45.36346103969072" lon="11.857047760181535"><ele>8.666666666666666</ele><time>2026-03-28T09:42:11Z</time></trkpt><trkpt lat="45.363451573704275" lon="11.856820767218712"><ele>9.0</ele><time>2026-03-28T09:42:12Z</time></trkpt><trkpt lat="45.36345318541726" lon="11.856579177941136"><ele>8.0</ele><time>2026-03-28T09:42:13Z</time></trkpt><trkpt lat="45.36347500335827" lon="11.856348473465012"><ele>7.0</ele><time>2026-03-28T09:42:14Z</time></trkpt><trkpt lat="45.36351738568386" lon="11.856131662243389"><ele>6.0</ele><time>2026-03-28T09:42:15Z</time></trkpt><trkpt lat="45.36357799349964" lon="11.85592645477929"><ele>6.0</ele><time>2026-03-28T09:42:16Z</time></trkpt><trkpt lat="45.36366789731249" lon="11.855744225233405"><ele>6.0</ele><time>2026-03-28T09:42:17Z</time></trkpt><trkpt lat="45.36377987192738" lon="11.855589038524938"><ele>6.0</ele><time>2026-03-28T09:42:18Z</time></trkpt><trkpt lat="45.363897398093194" lon="11.855452036113904"><ele>6.333333333333334</ele><time>2026-03-28T09:42:19Z</time></trkpt><trkpt lat="45.364021460498506" lon="11.855345330371224"><ele>6.666666666666667</ele><time>2026-03-28T09:42:20Z</time></trkpt><trkpt lat="45.36416162764956" lon="11.855248702881626"><ele>7.0</ele><time>2026-03-28T09:42:21Z</time></trkpt><trkpt lat="45.36431942633314" lon="11.855178100673315"><ele>7.0</ele><time>2026-03-28T09:42:22Z</time></trkpt><trkpt lat="45.36448751980033" lon="11.855149047771564"><ele>7.0</ele><time>2026-03-28T09:42:23Z</time></trkpt><trkpt lat="45.364654325698524" lon="11.85513208455677"><ele>7.0</ele><time>2026-03-28T09:42:24Z</time></trkpt><trkpt lat="45.364819920900935" lon="11.85510800885039"><ele>7.0</ele><time>2026-03-28T09:42:25Z</time></trkpt><trkpt lat="45.364992709079324" lon="11.855074586519391"><ele>7.0</ele><time>2026-03-28T09:42:26Z</time></trkpt><trkpt lat="45.36517934409953" lon="11.855033229378707"><ele>7.0</ele><time>2026-03-28T09:42:27Z</time></trkpt><trkpt lat="45.36537922397231" lon="11.854984330873375"><ele>8.5</ele><time>2026-03-28T09:42:28Z</time></trkpt><trkpt lat="45.365600188882134" lon="11.85495011846542"><ele>10.0</ele><time>2026-03-28T09:42:29Z</time></trkpt><trkpt lat="45.36585383475162" lon="11.85492628738335"><ele>10.0</ele><time>2026-03-28T09:42:30Z</time></trkpt><trkpt lat="45.366131296394585" lon="11.854903626695661"><ele>10.0</ele><time>2026-03-28T09:42:31Z</time></trkpt><trkpt lat="45.366409258203" lon="11.85488510579167"><ele>9.0</ele><time>2026-03-28T09:42:32Z</time></trkpt><trkpt lat="45.36671784449485" lon="11.854869595367452"><ele>8.0</ele><time>2026-03-28T09:42:33Z</time></trkpt><trkpt lat="45.367050659811966" lon="11.854847098756967"><ele>8.5</ele><time>2026-03-28T09:42:34Z</time></trkpt><trkpt lat="45.3673934347479" lon="11.854822954315491"><ele>9.0</ele><time>2026-03-28T09:42:35Z</time></trkpt><trkpt lat="45.367715111113796" lon="11.854810383264025"><ele>9.0</ele><time>2026-03-28T09:42:36Z</time></trkpt><trkpt lat="45.3680143311444" lon="11.85479915679441"><ele>9.0</ele><time>2026-03-28T09:42:37Z</time></trkpt><trkpt lat="45.36830118874158" lon="11.854781289313703"><ele>10.0</ele><time>2026-03-28T09:42:38Z</time></trkpt><trkpt lat="45.3685806500161" lon="11.854759967073756"><ele>11.0</ele><time>2026-03-28T09:42:39Z</time></trkpt><trkpt lat="45.36886012089474" lon="11.854740699547417"><ele>11.5</ele><time>2026-03-28T09:42:40Z</time></trkpt><trkpt lat="45.36913415739826" lon="11.854726416790147"><ele>12.0</ele><time>2026-03-28T09:42:41Z</time></trkpt><trkpt lat="45.3694109797952" lon="11.854714967323645"><ele>12.0</ele><time>2026-03-28T09:42:42Z</time></trkpt><trkpt lat="45.369685443243185" lon="11.854708019084232"><ele>12.0</ele><time>2026-03-28T09:42:43Z</time></trkpt><trkpt lat="45.369957392289095" lon="11.8546788488878"><ele>12.0</ele><time>2026-03-28T09:42:44Z</time></trkpt><trkpt lat="45.37020885533474" lon="11.854640465787316"><ele>12.0</ele><time>2026-03-28T09:42:45Z</time></trkpt><trkpt lat="45.37044419577137" lon="11.854580652851899"><ele>11.666666666666666</ele><time>2026-03-28T09:42:46Z</time></trkpt><trkpt lat="45.37066760081695" lon="11.854502434499903"><ele>11.333333333333332</ele><time>2026-03-28T09:42:47Z</time></trkpt><trkpt lat="45.37087431861988" lon="11.854415482818089"><ele>11.0</ele><time>2026-03-28T09:42:48Z</time></trkpt><trkpt lat="45.37106548388776" lon="11.854322770078703"><ele>11.0</ele><time>2026-03-28T09:42:49Z</time></trkpt><trkpt lat="45.371240162051706" lon="11.854224769272598"><ele>11.0</ele><time>2026-03-28T09:42:50Z</time></trkpt><trkpt lat="45.3714034321651" lon="11.854126500658456"><ele>11.0</ele><time>2026-03-28T09:42:51Z</time></trkpt><trkpt lat="45.37155961454031" lon="11.85403351670994"><ele>11.0</ele><time>2026-03-28T09:42:52Z</time></trkpt><trkpt lat="45.371694621267835" lon="11.853943559909608"><ele>11.0</ele><time>2026-03-28T09:42:53Z</time></trkpt><trkpt lat="45.37181665966326" lon="11.853854298145098"><ele>11.0</ele><time>2026-03-28T09:42:54Z</time></trkpt><trkpt lat="45.37195545208306" lon="11.853745528778559"><ele>11.0</ele><time>2026-03-28T09:42:55Z</time></trkpt><trkpt lat="45.37209739041944" lon="11.853616410661981"><ele>11.0</ele><time>2026-03-28T09:42:56Z</time></trkpt><trkpt lat="45.372244703944205" lon="11.853475841833978"><ele>11.0</ele><time>2026-03-28T09:42:57Z</time></trkpt><trkpt lat="45.37239258076772" lon="11.853326043688334"><ele>11.0</ele><time>2026-03-28T09:42:58Z</time></trkpt><trkpt lat="45.37253035263661" lon="11.853174631918009"><ele>11.0</ele><time>2026-03-28T09:42:59Z</time></trkpt><trkpt lat="45.37266179060286" lon="11.853027992710283"><ele>11.0</ele><time>2026-03-28T09:43:00Z</time></trkpt><trkpt lat="45.37278557128524" lon="11.852885323137482"><ele>11.0</ele><time>2026-03-28T09:43:01Z</time></trkpt><trkpt lat="45.372908491262486" lon="11.852736484251041"><ele>11.666666666666666</ele><time>2026-03-28T09:43:02Z</time></trkpt><trkpt lat="45.373032244083966" lon="11.852576172290453"><ele>12.333333333333332</ele><time>2026-03-28T09:43:03Z</time></trkpt><trkpt lat="45.373145350405295" lon="11.85240832099141"><ele>13.0</ele><time>2026-03-28T09:43:04Z</time></trkpt><trkpt lat="45.37325292731651" lon="11.852231777206715"><ele>13.0</ele><time>2026-03-28T09:43:05Z</time></trkpt><trkpt lat="45.37336581298699" lon="11.852051565150491"><ele>13.0</ele><time>2026-03-28T09:43:06Z</time></trkpt><trkpt lat="45.37347212086156" lon="11.851868160754861"><ele>13.0</ele><time>2026-03-28T09:43:07Z</time></trkpt><trkpt lat="45.37357789035747" lon="11.851673558772852"><ele>12.666666666666666</ele><time>2026-03-28T09:43:08Z</time></trkpt><trkpt lat="45.37367615522323" lon="11.851483413182969"><ele>12.333333333333332</ele><time>2026-03-28T09:43:09Z</time></trkpt><trkpt lat="45.3737713938801" lon="11.851288530973841"><ele>12.0</ele><time>2026-03-28T09:43:10Z</time></trkpt><trkpt lat="45.37388311748889" lon="11.851106312578013"><ele>11.666666666666666</ele><time>2026-03-28T09:43:11Z</time></trkpt><trkpt lat="45.37394800910254" lon="11.85087385845338"><ele>11.333333333333332</ele><time>2026-03-28T09:43:12Z</time></trkpt><trkpt lat="45.374030137885185" lon="11.850656355639373"><ele>11.0</ele><time>2026-03-28T09:43:13Z</time></trkpt><trkpt lat="45.37411709000914" lon="11.8504166999434"><ele>11.0</ele><time>2026-03-28T09:43:14Z</time></trkpt><trkpt lat="45.374214311901156" lon="11.85016966512404"><ele>11.0</ele><time>2026-03-28T09:43:15Z</time></trkpt><trkpt lat="45.374311717958314" lon="11.849913547408637"><ele>11.0</ele><time>2026-03-28T09:43:16Z</time></trkpt><trkpt lat="45.37441340064121" lon="11.849633422449104"><ele>11.0</ele><time>2026-03-28T09:43:17Z</time></trkpt><trkpt lat="45.3745131166232" lon="11.849372000173549"><ele>11.0</ele><time>2026-03-28T09:43:18Z</time></trkpt><trkpt lat="45.3746105918842" lon="11.849101677018313"><ele>11.0</ele><time>2026-03-28T09:43:19Z</time></trkpt><trkpt lat="45.374703367178626" lon="11.848838686967513"><ele>11.0</ele><time>2026-03-28T09:43:20Z</time></trkpt><trkpt lat="45.374796758406575" lon="11.848570486599343"><ele>11.0</ele><time>2026-03-28T09:43:21Z</time></trkpt><trkpt lat="45.37489596507682" lon="11.848295746764439"><ele>11.0</ele><time>2026-03-28T09:43:22Z</time></trkpt><trkpt lat="45.37499130566644" lon="11.848034069727928"><ele>11.333333333333332</ele><time>2026-03-28T09:43:23Z</time></trkpt><trkpt lat="45.37508933750152" lon="11.847774493600728"><ele>11.666666666666666</ele><time>2026-03-28T09:43:24Z</time></trkpt><trkpt lat="45.375184175413544" lon="11.847512995856015"><ele>12.0</ele><time>2026-03-28T09:43:25Z</time></trkpt><trkpt lat="45.375284492986374" lon="11.847240866482688"><ele>12.0</ele><time>2026-03-28T09:43:26Z</time></trkpt><trkpt lat="45.37538689397526" lon="11.846969005461382"><ele>12.0</ele><time>2026-03-28T09:43:27Z</time></trkpt><trkpt lat="45.37549543938259" lon="11.846693184870068"><ele>12.0</ele><time>2026-03-28T09:43:28Z</time></trkpt><trkpt lat="45.375611501757575" lon="11.846403935744968"><ele>11.5</ele><time>2026-03-28T09:43:29Z</time></trkpt><trkpt lat="45.37573629311934" lon="11.846058908693145"><ele>11.0</ele><time>2026-03-28T09:43:30Z</time></trkpt><trkpt lat="45.37587022619832" lon="11.845674678444475"><ele>10.5</ele><time>2026-03-28T09:43:31Z</time></trkpt><trkpt lat="45.37599057880348" lon="11.84533440020091"><ele>10.0</ele><time>2026-03-28T09:43:32Z</time></trkpt><trkpt lat="45.37609746129867" lon="11.845031735301186"><ele>10.0</ele><time>2026-03-28T09:43:33Z</time></trkpt><trkpt lat="45.37619415186688" lon="11.84474695542577"><ele>10.0</ele><time>2026-03-28T09:43:34Z</time></trkpt><trkpt lat="45.37628699122236" lon="11.844473726200093"><ele>10.0</ele><time>2026-03-28T09:43:35Z</time></trkpt><trkpt lat="45.37637928257152" lon="11.844213423881829"><ele>10.0</ele><time>2026-03-28T09:43:36Z</time></trkpt><trkpt lat="45.376474094296356" lon="11.84394327545553"><ele>10.0</ele><time>2026-03-28T09:43:37Z</time></trkpt><trkpt lat="45.3765715778557" lon="11.843669188857545"><ele>10.0</ele><time>2026-03-28T09:43:38Z</time></trkpt><trkpt lat="45.376667780275945" lon="11.843392242786322"><ele>10.0</ele><time>2026-03-28T09:43:39Z</time></trkpt><trkpt lat="45.37676327562757" lon="11.843116784697097"><ele>10.0</ele><time>2026-03-28T09:43:40Z</time></trkpt><trkpt lat="45.376861465392615" lon="11.842841986845945"><ele>10.0</ele><time>2026-03-28T09:43:41Z</time></trkpt><trkpt lat="45.37695580380539" lon="11.842560223085378"><ele>9.666666666666668</ele><time>2026-03-28T09:43:42Z</time></trkpt><trkpt lat="45.3770534421976" lon="11.842283671699263"><ele>9.333333333333334</ele><time>2026-03-28T09:43:43Z</time></trkpt><trkpt lat="45.3771487724237" lon="11.842007265543796"><ele>9.0</ele><time>2026-03-28T09:43:44Z</time></trkpt><trkpt lat="45.37723848329349" lon="11.841726126276605"><ele>9.0</ele><time>2026-03-28T09:43:45Z</time></trkpt><trkpt lat="45.37732954198753" lon="11.841439336016279"><ele>9.0</ele><time>2026-03-28T09:43:46Z</time></trkpt><trkpt lat="45.37741920910575" lon="11.841160199149067"><ele>9.0</ele><time>2026-03-28T09:43:47Z</time></trkpt><trkpt lat="45.377510960191955" lon="11.84087659549187"><ele>9.0</ele><time>2026-03-28T09:43:48Z</time></trkpt><trkpt lat="45.37759841937243" lon="11.840596739720082"><ele>9.0</ele><time>2026-03-28T09:43:49Z</time></trkpt><trkpt lat="45.37768445916778" lon="11.840312484304189"><ele>9.0</ele><time>2026-03-28T09:43:50Z</time></trkpt><trkpt lat="45.37777005888887" lon="11.84002994522435"><ele>9.333333333333334</ele><time>2026-03-28T09:43:51Z</time></trkpt><trkpt lat="45.37785230539657" lon="11.8397583536999"><ele>9.666666666666668</ele><time>2026-03-28T09:43:52Z</time></trkpt><trkpt lat="45.37793037460736" lon="11.839509123594736"><ele>10.0</ele><time>2026-03-28T09:43:53Z</time></trkpt><trkpt lat="45.37800708385972" lon="11.839257703401364"><ele>9.666666666666668</ele><time>2026-03-28T09:43:54Z</time></trkpt><trkpt lat="45.3780856512624" lon="11.839001004807036"><ele>9.333333333333334</ele><time>2026-03-28T09:43:55Z</time></trkpt><trkpt lat="45.37816724319963" lon="11.83873690283977"><ele>9.0</ele><time>2026-03-28T09:43:56Z</time></trkpt><trkpt lat="45.37824463017152" lon="11.838472569625473"><ele>8.666666666666666</ele><time>2026-03-28T09:43:57Z</time></trkpt><trkpt lat="45.378324764622356" lon="11.838211165582498"><ele>8.333333333333332</ele><time>2026-03-28T09:43:58Z</time></trkpt><trkpt lat="45.378404373328195" lon="11.837945806898164"><ele>8.0</ele><time>2026-03-28T09:43:59Z</time></trkpt><trkpt lat="45.37848566576037" lon="11.837673396765938"><ele>8.666666666666666</ele><time>2026-03-28T09:44:00Z</time></trkpt><trkpt lat="45.37856739245087" lon="11.837405563475915"><ele>9.333333333333334</ele><time>2026-03-28T09:44:01Z</time></trkpt><trkpt lat="45.37865148490452" lon="11.8371351579372"><ele>10.0</ele><time>2026-03-28T09:44:02Z</time></trkpt><trkpt lat="45.37873332508351" lon="11.83686357032623"><ele>10.0</ele><time>2026-03-28T09:44:03Z</time></trkpt><trkpt lat="45.37881644485375" lon="11.836586177292473"><ele>10.0</ele><time>2026-03-28T09:44:04Z</time></trkpt><trkpt lat="45.37889977589514" lon="11.836312319668991"><ele>10.0</ele><time>2026-03-28T09:44:05Z</time></trkpt><trkpt lat="45.37898134717572" lon="11.836034286477057"><ele>9.666666666666668</ele><time>2026-03-28T09:44:06Z</time></trkpt><trkpt lat="45.3790650070629" lon="11.835756914854558"><ele>9.333333333333334</ele><time>2026-03-28T09:44:07Z</time></trkpt><trkpt lat="45.37915071534674" lon="11.835480834844399"><ele>9.0</ele><time>2026-03-28T09:44:08Z</time></trkpt><trkpt lat="45.37923630103494" lon="11.835199378136751"><ele>9.666666666666666</ele><time>2026-03-28T09:44:09Z</time></trkpt><trkpt lat="45.379325977984195" lon="11.834916853097877"><ele>10.333333333333332</ele><time>2026-03-28T09:44:10Z</time></trkpt><trkpt lat="45.37941458394274" lon="11.83463860015893"><ele>11.0</ele><time>2026-03-28T09:44:11Z</time></trkpt><trkpt lat="45.37950212987386" lon="11.834358958460996"><ele>11.333333333333332</ele><time>2026-03-28T09:44:12Z</time></trkpt><trkpt lat="45.37959017368014" lon="11.834079660972114"><ele>11.666666666666666</ele><time>2026-03-28T09:44:13Z</time></trkpt><trkpt lat="45.37967893929408" lon="11.833800968900988"><ele>12.0</ele><time>2026-03-28T09:44:14Z</time></trkpt><trkpt lat="45.37976817122729" lon="11.833526983821372"><ele>12.0</ele><time>2026-03-28T09:44:15Z</time></trkpt><trkpt lat="45.379857335109506" lon="11.833250278633054"><ele>12.0</ele><time>2026-03-28T09:44:16Z</time></trkpt><trkpt lat="45.37994283302956" lon="11.83297492888269"><ele>12.0</ele><time>2026-03-28T09:44:17Z</time></trkpt><trkpt lat="45.38003085592702" lon="11.832700063766236"><ele>12.0</ele><time>2026-03-28T09:44:18Z</time></trkpt><trkpt lat="45.380120571203086" lon="11.832425577521107"><ele>12.0</ele><time>2026-03-28T09:44:19Z</time></trkpt><trkpt lat="45.38021132648164" lon="11.832143555328537"><ele>12.0</ele><time>2026-03-28T09:44:20Z</time></trkpt><trkpt lat="45.38029926551568" lon="11.831863334542644"><ele>12.0</ele><time>2026-03-28T09:44:21Z</time></trkpt><trkpt lat="45.38039127740733" lon="11.831582880060568"><ele>12.0</ele><time>2026-03-28T09:44:22Z</time></trkpt><trkpt lat="45.38048466119898" lon="11.831299003724363"><ele>12.0</ele><time>2026-03-28T09:44:23Z</time></trkpt><trkpt lat="45.38057352753536" lon="11.831015969079903"><ele>12.0</ele><time>2026-03-28T09:44:24.001Z</time></trkpt><trkpt lat="45.38066708977717" lon="11.83073278087729"><ele>12.0</ele><time>2026-03-28T09:44:25.001Z</time></trkpt><trkpt lat="45.38075663781431" lon="11.83044725335321"><ele>12.0</ele><time>2026-03-28T09:44:26.001Z</time></trkpt><trkpt lat="45.38084741141103" lon="11.830161095844383"><ele>13.0</ele><time>2026-03-28T09:44:27Z</time></trkpt><trkpt lat="45.38094099567785" lon="11.829874271487911"><ele>14.0</ele><time>2026-03-28T09:44:28Z</time></trkpt><trkpt lat="45.3810361002172" lon="11.829587875008714"><ele>15.0</ele><time>2026-03-28T09:44:29Z</time></trkpt><trkpt lat="45.38112768167296" lon="11.829305897796408"><ele>15.0</ele><time>2026-03-28T09:44:30Z</time></trkpt><trkpt lat="45.38121366305935" lon="11.829028304482584"><ele>15.0</ele><time>2026-03-28T09:44:31Z</time></trkpt><trkpt lat="45.38130352339869" lon="11.828746429484449"><ele>15.0</ele><time>2026-03-28T09:44:32Z</time></trkpt><trkpt lat="45.38139220931984" lon="11.82846016764137"><ele>14.333333333333332</ele><time>2026-03-28T09:44:33Z</time></trkpt><trkpt lat="45.38148031850534" lon="11.828177913577427"><ele>13.666666666666666</ele><time>2026-03-28T09:44:34Z</time></trkpt><trkpt lat="45.38156997241203" lon="11.827897845882969"><ele>13.0</ele><time>2026-03-28T09:44:35Z</time></trkpt><trkpt lat="45.38166167998103" lon="11.827617975186381"><ele>12.333333333333332</ele><time>2026-03-28T09:44:36Z</time></trkpt><trkpt lat="45.38175309317601" lon="11.827341331871237"><ele>11.666666666666666</ele><time>2026-03-28T09:44:37Z</time></trkpt><trkpt lat="45.381844579940086" lon="11.827062539262096"><ele>11.0</ele><time>2026-03-28T09:44:38Z</time></trkpt><trkpt lat="45.3819340327207" lon="11.826785630774042"><ele>11.0</ele><time>2026-03-28T09:44:39Z</time></trkpt><trkpt lat="45.382026840315355" lon="11.82650743221572"><ele>11.0</ele><time>2026-03-28T09:44:40Z</time></trkpt><trkpt lat="45.38212066498779" lon="11.826232166606868"><ele>11.0</ele><time>2026-03-28T09:44:41Z</time></trkpt><trkpt lat="45.382210586935564" lon="11.825983164799547"><ele>11.0</ele><time>2026-03-28T09:44:42Z</time></trkpt><trkpt lat="45.38229843623345" lon="11.8257382120715"><ele>11.0</ele><time>2026-03-28T09:44:43Z</time></trkpt><trkpt lat="45.38238132180248" lon="11.825488773036698"><ele>11.0</ele><time>2026-03-28T09:44:44Z</time></trkpt><trkpt lat="45.382470574459255" lon="11.825227438460555"><ele>11.0</ele><time>2026-03-28T09:44:45Z</time></trkpt><trkpt lat="45.382552974579205" lon="11.824977711527149"><ele>11.0</ele><time>2026-03-28T09:44:46Z</time></trkpt><trkpt lat="45.38263719764792" lon="11.824721984701082"><ele>11.0</ele><time>2026-03-28T09:44:47Z</time></trkpt><trkpt lat="45.38271855021693" lon="11.824470631826221"><ele>11.0</ele><time>2026-03-28T09:44:48Z</time></trkpt><trkpt lat="45.38278941293029" lon="11.824220942581189"><ele>11.0</ele><time>2026-03-28T09:44:49Z</time></trkpt><trkpt lat="45.38285764210273" lon="11.823961944920619"><ele>11.0</ele><time>2026-03-28T09:44:50Z</time></trkpt><trkpt lat="45.38291146828425" lon="11.823715912150254"><ele>11.0</ele><time>2026-03-28T09:44:51Z</time></trkpt><trkpt lat="45.38295960709806" lon="11.823466467163808"><ele>11.0</ele><time>2026-03-28T09:44:52Z</time></trkpt><trkpt lat="45.3830042436894" lon="11.823229078089803"><ele>11.0</ele><time>2026-03-28T09:44:53Z</time></trkpt><trkpt lat="45.38304256568473" lon="11.822992844269665"><ele>11.0</ele><time>2026-03-28T09:44:54Z</time></trkpt><trkpt lat="45.383078654172884" lon="11.822738867858046"><ele>11.0</ele><time>2026-03-28T09:44:55Z</time></trkpt><trkpt lat="45.38311366442362" lon="11.82245965001386"><ele>11.0</ele><time>2026-03-28T09:44:56Z</time></trkpt><trkpt lat="45.38315055247612" lon="11.82218241693323"><ele>11.0</ele><time>2026-03-28T09:44:57Z</time></trkpt><trkpt lat="45.38318910881734" lon="11.82189329538013"><ele>11.0</ele><time>2026-03-28T09:44:58Z</time></trkpt><trkpt lat="45.38322229889501" lon="11.821616987275826"><ele>11.0</ele><time>2026-03-28T09:44:59Z</time></trkpt><trkpt lat="45.38325807320032" lon="11.821336592476277"><ele>10.666666666666666</ele><time>2026-03-28T09:45:00Z</time></trkpt><trkpt lat="45.38329624904212" lon="11.821058920520368"><ele>10.333333333333334</ele><time>2026-03-28T09:45:01Z</time></trkpt><trkpt lat="45.38332858919369" lon="11.82078405983011"><ele>10.0</ele><time>2026-03-28T09:45:02Z</time></trkpt><trkpt lat="45.38335867325606" lon="11.820509183859379"><ele>10.0</ele><time>2026-03-28T09:45:03Z</time></trkpt><trkpt lat="45.383383267706535" lon="11.820246793118898"><ele>10.0</ele><time>2026-03-28T09:45:04Z</time></trkpt><trkpt lat="45.3834089671059" lon="11.819972208368108"><ele>10.0</ele><time>2026-03-28T09:45:05Z</time></trkpt><trkpt lat="45.38342895266139" lon="11.81970411295456"><ele>10.0</ele><time>2026-03-28T09:45:06Z</time></trkpt><trkpt lat="45.38344418662736" lon="11.81942663344238"><ele>10.0</ele><time>2026-03-28T09:45:07Z</time></trkpt><trkpt lat="45.383456893591074" lon="11.819153620530814"><ele>10.0</ele><time>2026-03-28T09:45:08Z</time></trkpt><trkpt lat="45.38346722091937" lon="11.818879673172024"><ele>9.666666666666668</ele><time>2026-03-28T09:45:09Z</time></trkpt><trkpt lat="45.38347537735399" lon="11.818601701744246"><ele>9.333333333333334</ele><time>2026-03-28T09:45:10Z</time></trkpt><trkpt lat="45.3834780901907" lon="11.818319716331782"><ele>9.0</ele><time>2026-03-28T09:45:11Z</time></trkpt><trkpt lat="45.383473197444836" lon="11.81803919596758"><ele>9.666666666666666</ele><time>2026-03-28T09:45:12Z</time></trkpt><trkpt lat="45.3834656715798" lon="11.81775146872148"><ele>10.333333333333332</ele><time>2026-03-28T09:45:13Z</time></trkpt><trkpt lat="45.383454021871884" lon="11.817465110708072"><ele>11.0</ele><time>2026-03-28T09:45:14Z</time></trkpt><trkpt lat="45.38343855655344" lon="11.817187532655415"><ele>11.333333333333332</ele><time>2026-03-28T09:45:15Z</time></trkpt><trkpt lat="45.38341941081533" lon="11.816918480569111"><ele>11.666666666666666</ele><time>2026-03-28T09:45:16Z</time></trkpt><trkpt lat="45.38339828915936" lon="11.816644452385827"><ele>12.0</ele><time>2026-03-28T09:45:17Z</time></trkpt><trkpt lat="45.38337649977578" lon="11.816370303564607"><ele>12.666666666666668</ele><time>2026-03-28T09:45:18Z</time></trkpt><trkpt lat="45.3833524976843" lon="11.816100444444459"><ele>13.333333333333334</ele><time>2026-03-28T09:45:19Z</time></trkpt><trkpt lat="45.38332986155583" lon="11.815840887285685"><ele>14.0</ele><time>2026-03-28T09:45:20Z</time></trkpt><trkpt lat="45.38330365021723" lon="11.815577960912275"><ele>14.333333333333334</ele><time>2026-03-28T09:45:21Z</time></trkpt><trkpt lat="45.38327833715143" lon="11.815297746082974"><ele>14.666666666666668</ele><time>2026-03-28T09:45:22Z</time></trkpt><trkpt lat="45.38325491894447" lon="11.815018740060546"><ele>15.0</ele><time>2026-03-28T09:45:23Z</time></trkpt><trkpt lat="45.383233310743115" lon="11.814760449195703"><ele>14.0</ele><time>2026-03-28T09:45:24Z</time></trkpt><trkpt lat="45.38321318281552" lon="11.814500042744562"><ele>13.0</ele><time>2026-03-28T09:45:25Z</time></trkpt><trkpt lat="45.38318733655104" lon="11.814244870701724"><ele>12.0</ele><time>2026-03-28T09:45:26Z</time></trkpt><trkpt lat="45.38316380106254" lon="11.813979210025767"><ele>11.666666666666666</ele><time>2026-03-28T09:45:27Z</time></trkpt><trkpt lat="45.383139736114664" lon="11.813729655148267"><ele>11.333333333333332</ele><time>2026-03-28T09:45:28Z</time></trkpt><trkpt lat="45.38311354783648" lon="11.813482910127815"><ele>11.0</ele><time>2026-03-28T09:45:29Z</time></trkpt><trkpt lat="45.383081369371446" lon="11.813244439278948"><ele>11.0</ele><time>2026-03-28T09:45:30Z</time></trkpt><trkpt lat="45.38303805197571" lon="11.813007520963154"><ele>11.0</ele><time>2026-03-28T09:45:31Z</time></trkpt><trkpt lat="45.382988187319235" lon="11.81275637092542"><ele>11.0</ele><time>2026-03-28T09:45:32Z</time></trkpt><trkpt lat="45.382929672041996" lon="11.812493159914002"><ele>10.666666666666666</ele><time>2026-03-28T09:45:33Z</time></trkpt><trkpt lat="45.38286867155073" lon="11.812255096565965"><ele>10.333333333333334</ele><time>2026-03-28T09:45:34Z</time></trkpt><trkpt lat="45.38279596817649" lon="11.812009437291156"><ele>10.0</ele><time>2026-03-28T09:45:35Z</time></trkpt><trkpt lat="45.38271577661133" lon="11.811772232140662"><ele>10.666666666666668</ele><time>2026-03-28T09:45:36Z</time></trkpt><trkpt lat="45.38262819870989" lon="11.811541478292122"><ele>11.333333333333334</ele><time>2026-03-28T09:45:37Z</time></trkpt><trkpt lat="45.38253652980879" lon="11.81130179409873"><ele>12.0</ele><time>2026-03-28T09:45:38Z</time></trkpt><trkpt lat="45.38242697478724" lon="11.811064575622785"><ele>11.666666666666666</ele><time>2026-03-28T09:45:39Z</time></trkpt><trkpt lat="45.38231451956137" lon="11.81084176021812"><ele>11.333333333333332</ele><time>2026-03-28T09:45:40Z</time></trkpt><trkpt lat="45.38219786105579" lon="11.810629115774562"><ele>11.0</ele><time>2026-03-28T09:45:41Z</time></trkpt><trkpt lat="45.382082869186775" lon="11.810431187996087"><ele>11.333333333333332</ele><time>2026-03-28T09:45:42Z</time></trkpt><trkpt lat="45.38196332433215" lon="11.810233984702334"><ele>11.666666666666666</ele><time>2026-03-28T09:45:43Z</time></trkpt><trkpt lat="45.38183734991344" lon="11.810059621992668"><ele>12.0</ele><time>2026-03-28T09:45:44Z</time></trkpt><trkpt lat="45.38170351095659" lon="11.809882253393804"><ele>12.0</ele><time>2026-03-28T09:45:45Z</time></trkpt><trkpt lat="45.381569711887366" lon="11.80971797078628"><ele>12.0</ele><time>2026-03-28T09:45:46Z</time></trkpt><trkpt lat="45.381433158865065" lon="11.809552031973565"><ele>12.0</ele><time>2026-03-28T09:45:47Z</time></trkpt><trkpt lat="45.38130122663945" lon="11.809394459005231"><ele>11.666666666666666</ele><time>2026-03-28T09:45:48Z</time></trkpt><trkpt lat="45.38116942098998" lon="11.80923301635076"><ele>11.333333333333332</ele><time>2026-03-28T09:45:49Z</time></trkpt><trkpt lat="45.381035945610336" lon="11.809073387919522"><ele>11.0</ele><time>2026-03-28T09:45:50Z</time></trkpt><trkpt lat="45.38090102576066" lon="11.80890591323053"><ele>11.0</ele><time>2026-03-28T09:45:51Z</time></trkpt><trkpt lat="45.38076916151755" lon="11.808738263015506"><ele>11.0</ele><time>2026-03-28T09:45:52Z</time></trkpt><trkpt lat="45.38063473396285" lon="11.808568473509624"><ele>11.0</ele><time>2026-03-28T09:45:53Z</time></trkpt><trkpt lat="45.38049499943876" lon="11.808410771275314"><ele>11.333333333333332</ele><time>2026-03-28T09:45:54Z</time></trkpt><trkpt lat="45.3803546267531" lon="11.808239988389145"><ele>11.666666666666666</ele><time>2026-03-28T09:45:55Z</time></trkpt><trkpt lat="45.3802141894542" lon="11.80807918728548"><ele>12.0</ele><time>2026-03-28T09:45:56Z</time></trkpt><trkpt lat="45.380074685517165" lon="11.80790815735014"><ele>12.0</ele><time>2026-03-28T09:45:57Z</time></trkpt><trkpt lat="45.379938059846175" lon="11.807745392019797"><ele>12.0</ele><time>2026-03-28T09:45:58Z</time></trkpt><trkpt lat="45.37980079877112" lon="11.807572037375259"><ele>12.0</ele><time>2026-03-28T09:45:59Z</time></trkpt><trkpt lat="45.3796701837708" lon="11.807410119795266"><ele>11.666666666666666</ele><time>2026-03-28T09:46:00Z</time></trkpt><trkpt lat="45.379540672573064" lon="11.807246879972174"><ele>11.333333333333332</ele><time>2026-03-28T09:46:01Z</time></trkpt><trkpt lat="45.37941043061055" lon="11.807081895712153"><ele>11.0</ele><time>2026-03-28T09:46:02Z</time></trkpt><trkpt lat="45.37927699985463" lon="11.806925689421872"><ele>11.0</ele><time>2026-03-28T09:46:03Z</time></trkpt><trkpt lat="45.37914289426776" lon="11.806765072106279"><ele>11.0</ele><time>2026-03-28T09:46:04Z</time></trkpt><trkpt lat="45.37901074979615" lon="11.80659600830869"><ele>11.0</ele><time>2026-03-28T09:46:05Z</time></trkpt><trkpt lat="45.378882095898476" lon="11.806440542373522"><ele>11.333333333333332</ele><time>2026-03-28T09:46:06Z</time></trkpt><trkpt lat="45.37875738296187" lon="11.806289015445486"><ele>11.666666666666666</ele><time>2026-03-28T09:46:07Z</time></trkpt><trkpt lat="45.37863301300061" lon="11.8061323539872"><ele>12.0</ele><time>2026-03-28T09:46:08Z</time></trkpt><trkpt lat="45.37851132787589" lon="11.805970633814095"><ele>12.0</ele><time>2026-03-28T09:46:09Z</time></trkpt><trkpt lat="45.378394895183874" lon="11.805806786590354"><ele>12.0</ele><time>2026-03-28T09:46:10Z</time></trkpt><trkpt lat="45.37827975780882" lon="11.805630391658868"><ele>12.0</ele><time>2026-03-28T09:46:11Z</time></trkpt><trkpt lat="45.37817367683967" lon="11.80545363773019"><ele>12.0</ele><time>2026-03-28T09:46:12Z</time></trkpt><trkpt lat="45.378072103349595" lon="11.805266334301576"><ele>12.0</ele><time>2026-03-28T09:46:13Z</time></trkpt><trkpt lat="45.37797231318097" lon="11.805068954840301"><ele>12.0</ele><time>2026-03-28T09:46:14Z</time></trkpt><trkpt lat="45.37787258233074" lon="11.804864146060202"><ele>12.0</ele><time>2026-03-28T09:46:15Z</time></trkpt><trkpt lat="45.37778307412576" lon="11.804660035734106"><ele>12.0</ele><time>2026-03-28T09:46:16Z</time></trkpt><trkpt lat="45.3777016302224" lon="11.80444561199281"><ele>12.0</ele><time>2026-03-28T09:46:17Z</time></trkpt><trkpt lat="45.37764601740479" lon="11.80420931780438"><ele>12.0</ele><time>2026-03-28T09:46:18Z</time></trkpt><trkpt lat="45.377576624577166" lon="11.803982559033797"><ele>12.0</ele><time>2026-03-28T09:46:19Z</time></trkpt><trkpt lat="45.37751826675526" lon="11.803762861536912"><ele>12.0</ele><time>2026-03-28T09:46:20Z</time></trkpt><trkpt lat="45.37746165916092" lon="11.803529465220487"><ele>12.0</ele><time>2026-03-28T09:46:21Z</time></trkpt><trkpt lat="45.3774122956302" lon="11.803296576394544"><ele>12.0</ele><time>2026-03-28T09:46:22Z</time></trkpt><trkpt lat="45.3773701889802" lon="11.803065820664994"><ele>12.0</ele><time>2026-03-28T09:46:23Z</time></trkpt><trkpt lat="45.377319855589" lon="11.80283627829614"><ele>12.0</ele><time>2026-03-28T09:46:24Z</time></trkpt><trkpt lat="45.37730843527291" lon="11.802596742134126"><ele>12.0</ele><time>2026-03-28T09:46:25Z</time></trkpt><trkpt lat="45.3772877733377" lon="11.80235600898113"><ele>12.0</ele><time>2026-03-28T09:46:26Z</time></trkpt><trkpt lat="45.37727790613268" lon="11.802115532989827"><ele>12.0</ele><time>2026-03-28T09:46:27Z</time></trkpt><trkpt lat="45.377260044036994" lon="11.801878569067433"><ele>12.0</ele><time>2026-03-28T09:46:28Z</time></trkpt><trkpt lat="45.37726852168074" lon="11.80163451310406"><ele>12.0</ele><time>2026-03-28T09:46:29Z</time></trkpt><trkpt lat="45.37727687445899" lon="11.80138661470176"><ele>12.0</ele><time>2026-03-28T09:46:30.001Z</time></trkpt><trkpt lat="45.37729179079156" lon="11.80113240573717"><ele>12.0</ele><time>2026-03-28T09:46:31.001Z</time></trkpt><trkpt lat="45.37732438493018" lon="11.800898854722968"><ele>12.0</ele><time>2026-03-28T09:46:32.001Z</time></trkpt><trkpt lat="45.37735684978533" lon="11.800644710771948"><ele>11.333333333333334</ele><time>2026-03-28T09:46:33.001Z</time></trkpt><trkpt lat="45.37739332261483" lon="11.800403874650392"><ele>10.666666666666668</ele><time>2026-03-28T09:46:34.001Z</time></trkpt><trkpt lat="45.37742446257865" lon="11.800159096009496"><ele>10.0</ele><time>2026-03-28T09:46:35.001Z</time></trkpt><trkpt lat="45.377482454162106" lon="11.799917241895095"><ele>10.0</ele><time>2026-03-28T09:46:36.001Z</time></trkpt><trkpt lat="45.37754314665253" lon="11.79968657285628"><ele>10.0</ele><time>2026-03-28T09:46:37.001Z</time></trkpt><trkpt lat="45.37761042874035" lon="11.799439241574408"><ele>10.0</ele><time>2026-03-28T09:46:38.001Z</time></trkpt><trkpt lat="45.377679876995515" lon="11.799176220218936"><ele>10.666666666666668</ele><time>2026-03-28T09:46:39Z</time></trkpt><trkpt lat="45.37777153028519" lon="11.798911653665389"><ele>11.333333333333334</ele><time>2026-03-28T09:46:40Z</time></trkpt><trkpt lat="45.3778310172" lon="11.798645183013965"><ele>12.0</ele><time>2026-03-28T09:46:41Z</time></trkpt><trkpt lat="45.37790798688558" lon="11.798384676155123"><ele>12.666666666666668</ele><time>2026-03-28T09:46:42Z</time></trkpt><trkpt lat="45.37798091429053" lon="11.798130235524921"><ele>13.333333333333334</ele><time>2026-03-28T09:46:43Z</time></trkpt><trkpt lat="45.3780532917215" lon="11.797883141818517"><ele>14.0</ele><time>2026-03-28T09:46:44Z</time></trkpt><trkpt lat="45.378123301830875" lon="11.79763490225602"><ele>14.0</ele><time>2026-03-28T09:46:45Z</time></trkpt><trkpt lat="45.3781949679602" lon="11.797396208266761"><ele>14.0</ele><time>2026-03-28T09:46:46Z</time></trkpt><trkpt lat="45.378261722367405" lon="11.79715319776252"><ele>14.0</ele><time>2026-03-28T09:46:47Z</time></trkpt><trkpt lat="45.37835279940655" lon="11.796890520317923"><ele>13.333333333333334</ele><time>2026-03-28T09:46:48Z</time></trkpt><trkpt lat="45.37841511103012" lon="11.796616391518214"><ele>12.666666666666668</ele><time>2026-03-28T09:46:49Z</time></trkpt><trkpt lat="45.37848932697071" lon="11.796356904736795"><ele>12.0</ele><time>2026-03-28T09:46:50Z</time></trkpt><trkpt lat="45.378556405685856" lon="11.79612193868539"><ele>11.0</ele><time>2026-03-28T09:46:51Z</time></trkpt><trkpt lat="45.37862520094415" lon="11.795878802918667"><ele>10.0</ele><time>2026-03-28T09:46:52Z</time></trkpt><trkpt lat="45.37869332015874" lon="11.7956379484649"><ele>9.0</ele><time>2026-03-28T09:46:53Z</time></trkpt><trkpt lat="45.378772352982324" lon="11.795419345569764"><ele>9.0</ele><time>2026-03-28T09:46:54Z</time></trkpt><trkpt lat="45.378838685170074" lon="11.795186750158955"><ele>9.0</ele><time>2026-03-28T09:46:55Z</time></trkpt><trkpt lat="45.37890879806669" lon="11.794940897730974"><ele>9.0</ele><time>2026-03-28T09:46:56Z</time></trkpt><trkpt lat="45.378978034531926" lon="11.794698118213509"><ele>9.333333333333334</ele><time>2026-03-28T09:46:57Z</time></trkpt><trkpt lat="45.37904900973088" lon="11.794449242025896"><ele>9.666666666666668</ele><time>2026-03-28T09:46:58Z</time></trkpt><trkpt lat="45.37911563417454" lon="11.794215621801134"><ele>10.0</ele><time>2026-03-28T09:46:59Z</time></trkpt><trkpt lat="45.37918141225086" lon="11.793984204224566"><ele>10.666666666666668</ele><time>2026-03-28T09:47:00Z</time></trkpt><trkpt lat="45.379248831335254" lon="11.793744546636114"><ele>11.333333333333334</ele><time>2026-03-28T09:47:01Z</time></trkpt><trkpt lat="45.37931551700332" lon="11.793507496085002"><ele>12.0</ele><time>2026-03-28T09:47:02Z</time></trkpt><trkpt lat="45.37938284850529" lon="11.793270788098605"><ele>12.0</ele><time>2026-03-28T09:47:03Z</time></trkpt><trkpt lat="45.3794479543071" lon="11.79304373439711"><ele>12.0</ele><time>2026-03-28T09:47:04Z</time></trkpt><trkpt lat="45.379511457604245" lon="11.792820445256536"><ele>12.0</ele><time>2026-03-28T09:47:05Z</time></trkpt><trkpt lat="45.37957229241719" lon="11.792605985697543"><ele>11.666666666666666</ele><time>2026-03-28T09:47:06Z</time></trkpt><trkpt lat="45.37961944372497" lon="11.792376835514105"><ele>11.333333333333332</ele><time>2026-03-28T09:47:07Z</time></trkpt><trkpt lat="45.37968472154493" lon="11.792152546014853"><ele>11.0</ele><time>2026-03-28T09:47:08Z</time></trkpt><trkpt lat="45.37976379439651" lon="11.791932445579892"><ele>11.0</ele><time>2026-03-28T09:47:09Z</time></trkpt><trkpt lat="45.37981755338823" lon="11.79168845330638"><ele>11.0</ele><time>2026-03-28T09:47:10Z</time></trkpt><trkpt lat="45.379898763863046" lon="11.791466339882085"><ele>11.0</ele><time>2026-03-28T09:47:11Z</time></trkpt><trkpt lat="45.37996640502382" lon="11.791230404201333"><ele>11.0</ele><time>2026-03-28T09:47:12Z</time></trkpt><trkpt lat="45.380034717089906" lon="11.790991103172745"><ele>11.0</ele><time>2026-03-28T09:47:13Z</time></trkpt><trkpt lat="45.38010007291218" lon="11.790762158024293"><ele>11.0</ele><time>2026-03-28T09:47:14Z</time></trkpt><trkpt lat="45.38016372894345" lon="11.790539167542669"><ele>11.0</ele><time>2026-03-28T09:47:15Z</time></trkpt><trkpt lat="45.38022615499311" lon="11.790320485481141"><ele>11.0</ele><time>2026-03-28T09:47:16Z</time></trkpt><trkpt lat="45.380286651646664" lon="11.790107996792601"><ele>11.0</ele><time>2026-03-28T09:47:17Z</time></trkpt><trkpt lat="45.38034721936802" lon="11.78989521856385"><ele>11.333333333333332</ele><time>2026-03-28T09:47:18Z</time></trkpt><trkpt lat="45.38039363715776" lon="11.789674472443627"><ele>11.666666666666666</ele><time>2026-03-28T09:47:19Z</time></trkpt><trkpt lat="45.380453211492714" lon="11.789464880855805"><ele>12.0</ele><time>2026-03-28T09:47:20Z</time></trkpt><trkpt lat="45.38050966994639" lon="11.789263173183755"><ele>12.0</ele><time>2026-03-28T09:47:21Z</time></trkpt><trkpt lat="45.380584193573085" lon="11.78906565624355"><ele>12.0</ele><time>2026-03-28T09:47:22Z</time></trkpt><trkpt lat="45.380648431689934" lon="11.788843932403111"><ele>12.0</ele><time>2026-03-28T09:47:23Z</time></trkpt><trkpt lat="45.38070694311522" lon="11.78864079238819"><ele>12.0</ele><time>2026-03-28T09:47:24Z</time></trkpt><trkpt lat="45.3807652874533" lon="11.78843284877346"><ele>12.0</ele><time>2026-03-28T09:47:25Z</time></trkpt><trkpt lat="45.38082540695347" lon="11.788220579281635"><ele>12.0</ele><time>2026-03-28T09:47:26Z</time></trkpt><trkpt lat="45.38088420065513" lon="11.788014518941255"><ele>12.0</ele><time>2026-03-28T09:47:27Z</time></trkpt><trkpt lat="45.38092636563997" lon="11.787806416576686"><ele>12.0</ele><time>2026-03-28T09:47:28Z</time></trkpt><trkpt lat="45.38100070380167" lon="11.787606209695948"><ele>12.0</ele><time>2026-03-28T09:47:29Z</time></trkpt><trkpt lat="45.38104639954404" lon="11.787387746807058"><ele>11.666666666666666</ele><time>2026-03-28T09:47:30Z</time></trkpt><trkpt lat="45.38110609918856" lon="11.787185027279492"><ele>11.333333333333332</ele><time>2026-03-28T09:47:31Z</time></trkpt><trkpt lat="45.38116218117566" lon="11.786984615071246"><ele>11.0</ele><time>2026-03-28T09:47:32Z</time></trkpt><trkpt lat="45.38122140141484" lon="11.786782671972816"><ele>11.0</ele><time>2026-03-28T09:47:33Z</time></trkpt><trkpt lat="45.381279379742516" lon="11.786574639605018"><ele>11.0</ele><time>2026-03-28T09:47:34Z</time></trkpt><trkpt lat="45.38133953199065" lon="11.786366069305714"><ele>11.0</ele><time>2026-03-28T09:47:35Z</time></trkpt><trkpt lat="45.381402099142676" lon="11.786148888732498"><ele>10.666666666666666</ele><time>2026-03-28T09:47:36Z</time></trkpt><trkpt lat="45.38146460593532" lon="11.785932112560483"><ele>10.333333333333334</ele><time>2026-03-28T09:47:37Z</time></trkpt><trkpt lat="45.38153220017161" lon="11.785708292293867"><ele>10.0</ele><time>2026-03-28T09:47:38Z</time></trkpt><trkpt lat="45.381601641181035" lon="11.785482143945751"><ele>10.0</ele><time>2026-03-28T09:47:39Z</time></trkpt><trkpt lat="45.38167081532781" lon="11.785268925975998"><ele>10.0</ele><time>2026-03-28T09:47:40Z</time></trkpt><trkpt lat="45.38173692937661" lon="11.785067158149085"><ele>10.0</ele><time>2026-03-28T09:47:41Z</time></trkpt><trkpt lat="45.38180765029359" lon="11.784866411438527"><ele>10.0</ele><time>2026-03-28T09:47:42Z</time></trkpt><trkpt lat="45.38187855652634" lon="11.784658057598907"><ele>10.0</ele><time>2026-03-28T09:47:43Z</time></trkpt><trkpt lat="45.38195578898555" lon="11.784444596058798"><ele>10.0</ele><time>2026-03-28T09:47:44Z</time></trkpt><trkpt lat="45.38203171880575" lon="11.784236684326734"><ele>10.0</ele><time>2026-03-28T09:47:45Z</time></trkpt><trkpt lat="45.38211184206131" lon="11.78402968626457"><ele>10.0</ele><time>2026-03-28T09:47:46Z</time></trkpt><trkpt lat="45.38219132711525" lon="11.783828246350424"><ele>10.0</ele><time>2026-03-28T09:47:47Z</time></trkpt><trkpt lat="45.38227206302384" lon="11.783633120095022"><ele>10.0</ele><time>2026-03-28T09:47:48Z</time></trkpt><trkpt lat="45.382352305291406" lon="11.783440464287084"><ele>10.0</ele><time>2026-03-28T09:47:49Z</time></trkpt><trkpt lat="45.38243521903657" lon="11.783244533491708"><ele>10.0</ele><time>2026-03-28T09:47:50Z</time></trkpt><trkpt lat="45.382513200260405" lon="11.78305217299864"><ele>10.0</ele><time>2026-03-28T09:47:51Z</time></trkpt><trkpt lat="45.38259410016601" lon="11.782863951643469"><ele>10.0</ele><time>2026-03-28T09:47:52Z</time></trkpt><trkpt lat="45.38268086659291" lon="11.782680285337303"><ele>10.0</ele><time>2026-03-28T09:47:53Z</time></trkpt><trkpt lat="45.38276091765418" lon="11.782502553565184"><ele>10.0</ele><time>2026-03-28T09:47:54Z</time></trkpt><trkpt lat="45.38283809499029" lon="11.782337975414373"><ele>10.0</ele><time>2026-03-28T09:47:55Z</time></trkpt><trkpt lat="45.38290946233744" lon="11.78218846596156"><ele>10.0</ele><time>2026-03-28T09:47:56Z</time></trkpt><trkpt lat="45.38298035071524" lon="11.782034103445945"><ele>10.0</ele><time>2026-03-28T09:47:57Z</time></trkpt><trkpt lat="45.383053845353885" lon="11.781876247867013"><ele>10.25</ele><time>2026-03-28T09:47:58Z</time></trkpt><trkpt lat="45.38312687425069" lon="11.781724119428077"><ele>10.5</ele><time>2026-03-28T09:47:59Z</time></trkpt><trkpt lat="45.383195056432974" lon="11.78157911628487"><ele>10.75</ele><time>2026-03-28T09:48:00Z</time></trkpt><trkpt lat="45.383260423667664" lon="11.78143443194363"><ele>11.0</ele><time>2026-03-28T09:48:01Z</time></trkpt><trkpt lat="45.383321841637326" lon="11.781302470777012"><ele>11.0</ele><time>2026-03-28T09:48:02Z</time></trkpt><trkpt lat="45.38337704718445" lon="11.781182603810134"><ele>11.0</ele><time>2026-03-28T09:48:03Z</time></trkpt><trkpt lat="45.38342671690726" lon="11.781077685626808"><ele>11.0</ele><time>2026-03-28T09:48:04Z</time></trkpt><trkpt lat="45.38346535600053" lon="11.78098781275523"><ele>11.0</ele><time>2026-03-28T09:48:05Z</time></trkpt><trkpt lat="45.38354333466103" lon="11.78086722565694"><ele>11.0</ele><time>2026-03-28T09:48:07Z</time></trkpt><trkpt lat="45.38364999332039" lon="11.780824214192583"><ele>11.200000000000001</ele><time>2026-03-28T09:48:09Z</time></trkpt><trkpt lat="45.38373391763156" lon="11.780812361392385"><ele>11.4</ele><time>2026-03-28T09:48:10Z</time></trkpt><trkpt lat="45.3838144410516" lon="11.780764646497351"><ele>11.6</ele><time>2026-03-28T09:48:11Z</time></trkpt><trkpt lat="45.383865379316255" lon="11.780678562760826"><ele>11.8</ele><time>2026-03-28T09:48:12Z</time></trkpt><trkpt lat="45.38388285287428" lon="11.78057192116571"><ele>12.0</ele><time>2026-03-28T09:48:13Z</time></trkpt><trkpt lat="45.383817487370216" lon="11.780358847581581"><ele>12.0</ele><time>2026-03-28T09:48:15Z</time></trkpt><trkpt lat="45.38373702407646" lon="11.780268228607412"><ele>12.0</ele><time>2026-03-28T09:48:16Z</time></trkpt><trkpt lat="45.38364226653281" lon="11.780165121178252"><ele>12.0</ele><time>2026-03-28T09:48:17Z</time></trkpt><trkpt lat="45.38356145499781" lon="11.780006397414404"><ele>12.0</ele><time>2026-03-28T09:48:18Z</time></trkpt><trkpt lat="45.38350005323996" lon="11.779800607303244"><ele>11.333333333333334</ele><time>2026-03-28T09:48:19Z</time></trkpt><trkpt lat="45.38347312593859" lon="11.779587934994039"><ele>10.666666666666668</ele><time>2026-03-28T09:48:20Z</time></trkpt><trkpt lat="45.383391794648524" lon="11.779376935848843"><ele>10.0</ele><time>2026-03-28T09:48:21Z</time></trkpt><trkpt lat="45.38333593248973" lon="11.779130557298814"><ele>9.75</ele><time>2026-03-28T09:48:22Z</time></trkpt><trkpt lat="45.38327554780087" lon="11.778927607698783"><ele>9.5</ele><time>2026-03-28T09:48:23Z</time></trkpt><trkpt lat="45.38322207275104" lon="11.778747880772709"><ele>9.25</ele><time>2026-03-28T09:48:24Z</time></trkpt><trkpt lat="45.383170521421505" lon="11.778574620178114"><ele>9.0</ele><time>2026-03-28T09:48:25Z</time></trkpt><trkpt lat="45.38312333558736" lon="11.778416030898951"><ele>9.25</ele><time>2026-03-28T09:48:26Z</time></trkpt><trkpt lat="45.38307906585061" lon="11.77826724199925"><ele>9.5</ele><time>2026-03-28T09:48:27Z</time></trkpt><trkpt lat="45.38303458829675" lon="11.778117756118984"><ele>9.75</ele><time>2026-03-28T09:48:28Z</time></trkpt><trkpt lat="45.382986821445705" lon="11.777958074141583"><ele>10.0</ele><time>2026-03-28T09:48:29Z</time></trkpt><trkpt lat="45.382938556099724" lon="11.77779672572075"><ele>10.5</ele><time>2026-03-28T09:48:30Z</time></trkpt><trkpt lat="45.38288955721557" lon="11.777632378987054"><ele>11.0</ele><time>2026-03-28T09:48:31Z</time></trkpt><trkpt lat="45.38283929710131" lon="11.777459828237005"><ele>11.5</ele><time>2026-03-28T09:48:32Z</time></trkpt><trkpt lat="45.382780428779306" lon="11.777262711016878"><ele>12.0</ele><time>2026-03-28T09:48:33Z</time></trkpt><trkpt lat="45.382706011513164" lon="11.777013913553098"><ele>13.0</ele><time>2026-03-28T09:48:34Z</time></trkpt><trkpt lat="45.382620678618046" lon="11.776728622127665"><ele>14.0</ele><time>2026-03-28T09:48:35Z</time></trkpt><trkpt lat="45.38253077874562" lon="11.776420480082836"><ele>14.0</ele><time>2026-03-28T09:48:36Z</time></trkpt><trkpt lat="45.38243953467229" lon="11.776106879838864"><ele>14.0</ele><time>2026-03-28T09:48:37Z</time></trkpt><trkpt lat="45.3823564020113" lon="11.77582759175999"><ele>13.333333333333334</ele><time>2026-03-28T09:48:38Z</time></trkpt><trkpt lat="45.382280210495836" lon="11.775571622787933"><ele>12.666666666666668</ele><time>2026-03-28T09:48:39Z</time></trkpt><trkpt lat="45.38220973989769" lon="11.775334873504333"><ele>12.0</ele><time>2026-03-28T09:48:40Z</time></trkpt><trkpt lat="45.382139808163274" lon="11.775099890824599"><ele>12.0</ele><time>2026-03-28T09:48:41Z</time></trkpt><trkpt lat="45.38207344814991" lon="11.774873509889611"><ele>12.0</ele><time>2026-03-28T09:48:42Z</time></trkpt><trkpt lat="45.382006440885014" lon="11.774644920906482"><ele>12.0</ele><time>2026-03-28T09:48:43Z</time></trkpt><trkpt lat="45.381944077623075" lon="11.774432174506629"><ele>12.333333333333332</ele><time>2026-03-28T09:48:44Z</time></trkpt><trkpt lat="45.381882037418215" lon="11.774220530186286"><ele>12.666666666666666</ele><time>2026-03-28T09:48:45Z</time></trkpt><trkpt lat="45.38182189338574" lon="11.774015354472908"><ele>13.0</ele><time>2026-03-28T09:48:46Z</time></trkpt><trkpt lat="45.38176205927053" lon="11.773812899191181"><ele>13.0</ele><time>2026-03-28T09:48:47Z</time></trkpt><trkpt lat="45.381701035089065" lon="11.773606722847594"><ele>13.0</ele><time>2026-03-28T09:48:48Z</time></trkpt><trkpt lat="45.38163814324704" lon="11.773399703737997"><ele>13.0</ele><time>2026-03-28T09:48:49Z</time></trkpt><trkpt lat="45.381577715821166" lon="11.773201769143844"><ele>12.666666666666666</ele><time>2026-03-28T09:48:50Z</time></trkpt><trkpt lat="45.381518118061" lon="11.773004825791308"><ele>12.333333333333332</ele><time>2026-03-28T09:48:51Z</time></trkpt><trkpt lat="45.3814596868894" lon="11.772807387128724"><ele>12.0</ele><time>2026-03-28T09:48:52Z</time></trkpt><trkpt lat="45.38140193733639" lon="11.772612251651989"><ele>12.0</ele><time>2026-03-28T09:48:53Z</time></trkpt><trkpt lat="45.38134447854118" lon="11.772418098644271"><ele>12.0</ele><time>2026-03-28T09:48:54Z</time></trkpt><trkpt lat="45.381286455232825" lon="11.772222038149728"><ele>12.0</ele><time>2026-03-28T09:48:55Z</time></trkpt><trkpt lat="45.381227441643254" lon="11.772024430392847"><ele>12.0</ele><time>2026-03-28T09:48:56Z</time></trkpt><trkpt lat="45.38116992674007" lon="11.77183240803372"><ele>12.0</ele><time>2026-03-28T09:48:57Z</time></trkpt><trkpt lat="45.38111131293964" lon="11.771636716831011"><ele>12.0</ele><time>2026-03-28T09:48:58Z</time></trkpt><trkpt lat="45.38105360644457" lon="11.771444054812802"><ele>12.0</ele><time>2026-03-28T09:48:59Z</time></trkpt><trkpt lat="45.38097428132125" lon="11.771261150240738"><ele>12.0</ele><time>2026-03-28T09:49:00Z</time></trkpt><trkpt lat="45.38091807877202" lon="11.771069834649849"><ele>12.25</ele><time>2026-03-28T09:49:01Z</time></trkpt><trkpt lat="45.38086298568233" lon="11.770883879602486"><ele>12.5</ele><time>2026-03-28T09:49:02Z</time></trkpt><trkpt lat="45.3808095646179" lon="11.770707794438882"><ele>12.75</ele><time>2026-03-28T09:49:03Z</time></trkpt><trkpt lat="45.380777461081884" lon="11.770516334918995"><ele>13.0</ele><time>2026-03-28T09:49:04Z</time></trkpt><trkpt lat="45.38072598509296" lon="11.770342013274174"><ele>13.25</ele><time>2026-03-28T09:49:05Z</time></trkpt><trkpt lat="45.38067238556579" lon="11.770160500345124"><ele>13.5</ele><time>2026-03-28T09:49:06Z</time></trkpt><trkpt lat="45.38061910270408" lon="11.769980059792504"><ele>13.75</ele><time>2026-03-28T09:49:07Z</time></trkpt><trkpt lat="45.38056459672236" lon="11.769795477186806"><ele>14.0</ele><time>2026-03-28T09:49:08Z</time></trkpt><trkpt lat="45.38051202412827" lon="11.769617441928752"><ele>13.75</ele><time>2026-03-28T09:49:09Z</time></trkpt><trkpt lat="45.380460825871445" lon="11.769447918924351"><ele>13.5</ele><time>2026-03-28T09:49:10Z</time></trkpt><trkpt lat="45.38040766544155" lon="11.769272523126853"><ele>13.25</ele><time>2026-03-28T09:49:11Z</time></trkpt><trkpt lat="45.380356401526036" lon="11.769102880525262"><ele>13.0</ele><time>2026-03-28T09:49:12Z</time></trkpt><trkpt lat="45.38030537344569" lon="11.768930511910627"><ele>13.0</ele><time>2026-03-28T09:49:13Z</time></trkpt><trkpt lat="45.380255276387" lon="11.768761288209625"><ele>13.0</ele><time>2026-03-28T09:49:14Z</time></trkpt><trkpt lat="45.380208536898344" lon="11.768603406101105"><ele>13.0</ele><time>2026-03-28T09:49:15Z</time></trkpt><trkpt lat="45.3801662709915" lon="11.768460635380144"><ele>13.0</ele><time>2026-03-28T09:49:16Z</time></trkpt><trkpt lat="45.38012520683735" lon="11.768321924079391"><ele>12.999999999999998</ele><time>2026-03-28T09:49:17Z</time></trkpt><trkpt lat="45.38008888493119" lon="11.76819923169814"><ele>13.0</ele><time>2026-03-28T09:49:18Z</time></trkpt><trkpt lat="45.38005660596317" lon="11.768090196030501"><ele>13.0</ele><time>2026-03-28T09:49:19Z</time></trkpt><trkpt lat="45.380027072472195" lon="11.767990434350038"><ele>13.0</ele><time>2026-03-28T09:49:20Z</time></trkpt><trkpt lat="45.380000345622854" lon="11.767899171168585"><ele>12.999999999999998</ele><time>2026-03-28T09:49:21Z</time></trkpt><trkpt lat="45.37995790276087" lon="11.767752057683133"><ele>13.0</ele><time>2026-03-28T09:49:23Z</time></trkpt><trkpt lat="45.3799004175874" lon="11.767621878753124"><ele>13.2</ele><time>2026-03-28T09:49:25Z</time></trkpt><trkpt lat="45.37990442613131" lon="11.767446881057735"><ele>13.4</ele><time>2026-03-28T09:49:27Z</time></trkpt><trkpt lat="45.379847714031534" lon="11.76729602904097"><ele>13.599999999999998</ele><time>2026-03-28T09:49:29Z</time></trkpt><trkpt lat="45.379783884201345" lon="11.767218907800126"><ele>13.799999999999999</ele><time>2026-03-28T09:49:31Z</time></trkpt><trkpt lat="45.37975303933959" lon="11.767126456446345"><ele>14.0</ele><time>2026-03-28T09:49:34Z</time></trkpt><trkpt lat="45.379712132180586" lon="11.767000292007435"><ele>14.0</ele><time>2026-03-28T09:49:36Z</time></trkpt><trkpt lat="45.37968242444647" lon="11.766898395532351"><ele>13.999999999999998</ele><time>2026-03-28T09:49:37Z</time></trkpt><trkpt lat="45.379665391682295" lon="11.766769338634687"><ele>13.999999999999998</ele><time>2026-03-28T09:49:38Z</time></trkpt><trkpt lat="45.379626248075" lon="11.766638313244663"><ele>14.0</ele><time>2026-03-28T09:49:39Z</time></trkpt><trkpt lat="45.37956316651372" lon="11.766507924488613"><ele>14.0</ele><time>2026-03-28T09:49:40Z</time></trkpt><trkpt lat="45.3795182238718" lon="11.766357831744555"><ele>14.0</ele><time>2026-03-28T09:49:41Z</time></trkpt><trkpt lat="45.37947764031599" lon="11.766220140760444"><ele>13.999999999999998</ele><time>2026-03-28T09:49:42Z</time></trkpt><trkpt lat="45.37943951156503" lon="11.766078249560037"><ele>13.999999999999998</ele><time>2026-03-28T09:49:43Z</time></trkpt><trkpt lat="45.379397235431405" lon="11.765940006686112"><ele>14.0</ele><time>2026-03-28T09:49:44Z</time></trkpt><trkpt lat="45.37935261865651" lon="11.76578811104112"><ele>14.0</ele><time>2026-03-28T09:49:45Z</time></trkpt><trkpt lat="45.37930433168046" lon="11.765626598569606"><ele>14.0</ele><time>2026-03-28T09:49:46Z</time></trkpt><trkpt lat="45.379272855738925" lon="11.76545213020431"><ele>14.0</ele><time>2026-03-28T09:49:47Z</time></trkpt><trkpt lat="45.379203430663736" lon="11.765297702972143"><ele>14.0</ele><time>2026-03-28T09:49:48Z</time></trkpt><trkpt lat="45.379151808254655" lon="11.765132852714249"><ele>14.0</ele><time>2026-03-28T09:49:49Z</time></trkpt><trkpt lat="45.37910475730084" lon="11.764965673933231"><ele>14.0</ele><time>2026-03-28T09:49:50Z</time></trkpt><trkpt lat="45.37905712701131" lon="11.764794428323505"><ele>14.0</ele><time>2026-03-28T09:49:51Z</time></trkpt><trkpt lat="45.379005077137364" lon="11.76462630005637"><ele>14.0</ele><time>2026-03-28T09:49:52Z</time></trkpt><trkpt lat="45.378969724649714" lon="11.764450229178623"><ele>14.0</ele><time>2026-03-28T09:49:53Z</time></trkpt><trkpt lat="45.378919068769534" lon="11.764282578043057"><ele>14.0</ele><time>2026-03-28T09:49:54Z</time></trkpt><trkpt lat="45.378868030675825" lon="11.764112542731395"><ele>14.0</ele><time>2026-03-28T09:49:55Z</time></trkpt><trkpt lat="45.37881712483194" lon="11.763942213394143"><ele>14.0</ele><time>2026-03-28T09:49:56Z</time></trkpt><trkpt lat="45.37876723840483" lon="11.763775294997805"><ele>14.0</ele><time>2026-03-28T09:49:57Z</time></trkpt><trkpt lat="45.37871804501169" lon="11.763609384303003"><ele>14.25</ele><time>2026-03-28T09:49:58Z</time></trkpt><trkpt lat="45.37866638558723" lon="11.763434635800927"><ele>14.5</ele><time>2026-03-28T09:49:59Z</time></trkpt><trkpt lat="45.378609299416645" lon="11.763241530230317"><ele>14.75</ele><time>2026-03-28T09:50:00Z</time></trkpt><trkpt lat="45.37853554170255" lon="11.763051545584915"><ele>15.0</ele><time>2026-03-28T09:50:01Z</time></trkpt><trkpt lat="45.378470406606766" lon="11.762835819539156"><ele>15.0</ele><time>2026-03-28T09:50:02Z</time></trkpt><trkpt lat="45.37842497670917" lon="11.762625194462894"><ele>15.0</ele><time>2026-03-28T09:50:03Z</time></trkpt><trkpt lat="45.37836284360621" lon="11.762418302135087"><ele>15.0</ele><time>2026-03-28T09:50:04Z</time></trkpt><trkpt lat="45.378287218997144" lon="11.762225552229099"><ele>15.0</ele><time>2026-03-28T09:50:05Z</time></trkpt><trkpt lat="45.378231113812056" lon="11.762023928703028"><ele>15.0</ele><time>2026-03-28T09:50:06Z</time></trkpt><trkpt lat="45.37817174895682" lon="11.761833072255111"><ele>15.0</ele><time>2026-03-28T09:50:07Z</time></trkpt><trkpt lat="45.378128266681905" lon="11.761630227203971"><ele>15.0</ele><time>2026-03-28T09:50:08Z</time></trkpt><trkpt lat="45.37806996443237" lon="11.761430600997102"><ele>15.333333333333332</ele><time>2026-03-28T09:50:09Z</time></trkpt><trkpt lat="45.37800957324829" lon="11.761227231117598"><ele>15.666666666666666</ele><time>2026-03-28T09:50:10Z</time></trkpt><trkpt lat="45.37795076302909" lon="11.761029505532868"><ele>16.0</ele><time>2026-03-28T09:50:11Z</time></trkpt><trkpt lat="45.377877468417616" lon="11.760842194914208"><ele>16.0</ele><time>2026-03-28T09:50:12Z</time></trkpt><trkpt lat="45.377821581445694" lon="11.760652591509832"><ele>16.0</ele><time>2026-03-28T09:50:13Z</time></trkpt><trkpt lat="45.37778076847755" lon="11.760460678662723"><ele>16.0</ele><time>2026-03-28T09:50:14Z</time></trkpt><trkpt lat="45.377711703684085" lon="11.760285610979542"><ele>16.0</ele><time>2026-03-28T09:50:15Z</time></trkpt><trkpt lat="45.377656983135715" lon="11.760098866278211"><ele>16.25</ele><time>2026-03-28T09:50:16Z</time></trkpt><trkpt lat="45.37760056845471" lon="11.75991217101128"><ele>16.5</ele><time>2026-03-28T09:50:17Z</time></trkpt><trkpt lat="45.37754460258669" lon="11.759724389289614"><ele>16.75</ele><time>2026-03-28T09:50:18Z</time></trkpt><trkpt lat="45.37748781629007" lon="11.759539148745018"><ele>17.0</ele><time>2026-03-28T09:50:19Z</time></trkpt><trkpt lat="45.37743019049141" lon="11.759346398806883"><ele>16.5</ele><time>2026-03-28T09:50:20Z</time></trkpt><trkpt lat="45.37737039230814" lon="11.759159074821524"><ele>16.0</ele><time>2026-03-28T09:50:21Z</time></trkpt><trkpt lat="45.37732772314837" lon="11.758962318308416"><ele>15.5</ele><time>2026-03-28T09:50:22Z</time></trkpt><trkpt lat="45.37725675756095" lon="11.75878242499129"><ele>15.0</ele><time>2026-03-28T09:50:23Z</time></trkpt><trkpt lat="45.3771998388742" lon="11.75859447780123"><ele>14.75</ele><time>2026-03-28T09:50:24Z</time></trkpt><trkpt lat="45.3771410269752" lon="11.758400159799663"><ele>14.5</ele><time>2026-03-28T09:50:25Z</time></trkpt><trkpt lat="45.377099808555194" lon="11.758207935746444"><ele>14.25</ele><time>2026-03-28T09:50:26Z</time></trkpt><trkpt lat="45.377041299697154" lon="11.75801532925072"><ele>14.0</ele><time>2026-03-28T09:50:27Z</time></trkpt><trkpt lat="45.376984422406274" lon="11.75782713831289"><ele>14.0</ele><time>2026-03-28T09:50:28Z</time></trkpt><trkpt lat="45.37692812545961" lon="11.757640381691635"><ele>14.0</ele><time>2026-03-28T09:50:29Z</time></trkpt><trkpt lat="45.376870105309784" lon="11.757447908600767"><ele>14.0</ele><time>2026-03-28T09:50:30Z</time></trkpt><trkpt lat="45.37681247314349" lon="11.757257463597421"><ele>14.0</ele><time>2026-03-28T09:50:31Z</time></trkpt><trkpt lat="45.376740672087074" lon="11.757078759156013"><ele>14.0</ele><time>2026-03-28T09:50:32Z</time></trkpt><trkpt lat="45.376697593611794" lon="11.756879926884388"><ele>14.0</ele><time>2026-03-28T09:50:33Z</time></trkpt><trkpt lat="45.37663979958522" lon="11.75668999423932"><ele>14.0</ele><time>2026-03-28T09:50:34Z</time></trkpt><trkpt lat="45.37656786951031" lon="11.75650968991243"><ele>14.0</ele><time>2026-03-28T09:50:35Z</time></trkpt><trkpt lat="45.37651380774603" lon="11.756320173439294"><ele>14.0</ele><time>2026-03-28T09:50:36Z</time></trkpt><trkpt lat="45.376456481793596" lon="11.756128803418028"><ele>14.0</ele><time>2026-03-28T09:50:37Z</time></trkpt><trkpt lat="45.376397839818054" lon="11.755941738893252"><ele>14.0</ele><time>2026-03-28T09:50:37.999Z</time></trkpt><trkpt lat="45.37633952904386" lon="11.755756520545876"><ele>14.0</ele><time>2026-03-28T09:50:38.999Z</time></trkpt><trkpt lat="45.376296509060616" lon="11.755556649079656"><ele>14.0</ele><time>2026-03-28T09:50:39.999Z</time></trkpt><trkpt lat="45.376240241313035" lon="11.755368617527147"><ele>14.0</ele><time>2026-03-28T09:50:40.999Z</time></trkpt><trkpt lat="45.37616879629756" lon="11.755185770700965"><ele>14.0</ele><time>2026-03-28T09:50:42Z</time></trkpt><trkpt lat="45.37611229576635" lon="11.754998446842363"><ele>14.0</ele><time>2026-03-28T09:50:43Z</time></trkpt><trkpt lat="45.37605456052905" lon="11.75480580770315"><ele>14.0</ele><time>2026-03-28T09:50:44Z</time></trkpt><trkpt lat="45.37599639712174" lon="11.75461387711422"><ele>14.0</ele><time>2026-03-28T09:50:45Z</time></trkpt><trkpt lat="45.375954795707536" lon="11.754416902253714"><ele>14.0</ele><time>2026-03-28T09:50:46Z</time></trkpt><trkpt lat="45.37589564991225" lon="11.754219968855557"><ele>14.0</ele><time>2026-03-28T09:50:47Z</time></trkpt><trkpt lat="45.37583507236541" lon="11.754018268089698"><ele>13.666666666666668</ele><time>2026-03-28T09:50:48Z</time></trkpt><trkpt lat="45.37577174715455" lon="11.75380950963317"><ele>13.333333333333332</ele><time>2026-03-28T09:50:49Z</time></trkpt><trkpt lat="45.375707217481335" lon="11.753596532693665"><ele>13.0</ele><time>2026-03-28T09:50:50Z</time></trkpt><trkpt lat="45.375643604192554" lon="11.753386580196224"><ele>12.666666666666666</ele><time>2026-03-28T09:50:51Z</time></trkpt><trkpt lat="45.37558127701843" lon="11.753180872479227"><ele>12.333333333333332</ele><time>2026-03-28T09:50:52Z</time></trkpt><trkpt lat="45.3755178217374" lon="11.752971611407412"><ele>12.0</ele><time>2026-03-28T09:50:53Z</time></trkpt><trkpt lat="45.37545440242496" lon="11.752762481878586"><ele>12.333333333333332</ele><time>2026-03-28T09:50:54Z</time></trkpt><trkpt lat="45.375392665097024" lon="11.752558898812778"><ele>12.666666666666666</ele><time>2026-03-28T09:50:55Z</time></trkpt><trkpt lat="45.37533089016042" lon="11.752355191728288"><ele>13.0</ele><time>2026-03-28T09:50:56Z</time></trkpt><trkpt lat="45.37526982679312" lon="11.752153134468644"><ele>13.0</ele><time>2026-03-28T09:50:57Z</time></trkpt><trkpt lat="45.37520676253663" lon="11.751943768676574"><ele>13.0</ele><time>2026-03-28T09:50:58Z</time></trkpt><trkpt lat="45.37514506586965" lon="11.751738749247213"><ele>13.0</ele><time>2026-03-28T09:50:59Z</time></trkpt><trkpt lat="45.37508266328389" lon="11.751534473815434"><ele>13.0</ele><time>2026-03-28T09:51:00Z</time></trkpt><trkpt lat="45.375021516451014" lon="11.751333147568875"><ele>13.0</ele><time>2026-03-28T09:51:01Z</time></trkpt><trkpt lat="45.37495845088269" lon="11.751125503854727"><ele>13.0</ele><time>2026-03-28T09:51:02Z</time></trkpt><trkpt lat="45.37489619721599" lon="11.75092053334465"><ele>13.333333333333332</ele><time>2026-03-28T09:51:03Z</time></trkpt><trkpt lat="45.37483360971967" lon="11.750714463696115"><ele>13.666666666666668</ele><time>2026-03-28T09:51:04Z</time></trkpt><trkpt lat="45.374771635402" lon="11.750510412623843"><ele>14.0</ele><time>2026-03-28T09:51:05Z</time></trkpt><trkpt lat="45.37471039934758" lon="11.750307042056106"><ele>14.25</ele><time>2026-03-28T09:51:06Z</time></trkpt><trkpt lat="45.374650873109985" lon="11.750110150918275"><ele>14.5</ele><time>2026-03-28T09:51:07Z</time></trkpt><trkpt lat="45.37459761741144" lon="11.749933749426283"><ele>14.75</ele><time>2026-03-28T09:51:08Z</time></trkpt><trkpt lat="45.37454240266266" lon="11.7497508318256"><ele>15.0</ele><time>2026-03-28T09:51:09Z</time></trkpt><trkpt lat="45.37448622434737" lon="11.749564722039654"><ele>15.0</ele><time>2026-03-28T09:51:10Z</time></trkpt><trkpt lat="45.37442947307861" lon="11.749377043414"><ele>15.0</ele><time>2026-03-28T09:51:11Z</time></trkpt><trkpt lat="45.37437367061039" lon="11.749192710946003"><ele>15.0</ele><time>2026-03-28T09:51:12Z</time></trkpt><trkpt lat="45.37431835944995" lon="11.749010591742948"><ele>15.0</ele><time>2026-03-28T09:51:13Z</time></trkpt><trkpt lat="45.37425877889933" lon="11.748814546918213"><ele>14.0</ele><time>2026-03-28T09:51:14Z</time></trkpt><trkpt lat="45.374138575844626" lon="11.748419542594094"><ele>13.0</ele><time>2026-03-28T09:51:16Z</time></trkpt><trkpt lat="45.37407608639027" lon="11.748215073115627"><ele>13.0</ele><time>2026-03-28T09:51:17Z</time></trkpt><trkpt lat="45.374013461566044" lon="11.748011969975588"><ele>13.0</ele><time>2026-03-28T09:51:18Z</time></trkpt><trkpt lat="45.37395169830747" lon="11.74780892934233"><ele>13.0</ele><time>2026-03-28T09:51:19Z</time></trkpt><trkpt lat="45.373875898766336" lon="11.747611879676384"><ele>13.333333333333332</ele><time>2026-03-28T09:51:20Z</time></trkpt><trkpt lat="45.373829008437745" lon="11.747400163293127"><ele>13.666666666666668</ele><time>2026-03-28T09:51:21Z</time></trkpt><trkpt lat="45.373765801054574" lon="11.747193321673155"><ele>14.0</ele><time>2026-03-28T09:51:22Z</time></trkpt><trkpt lat="45.37370364889807" lon="11.74699045032401"><ele>13.5</ele><time>2026-03-28T09:51:23Z</time></trkpt><trkpt lat="45.37362794410782" lon="11.746796899710473"><ele>13.0</ele><time>2026-03-28T09:51:24Z</time></trkpt><trkpt lat="45.373567869558386" lon="11.746606908236462"><ele>12.5</ele><time>2026-03-28T09:51:25Z</time></trkpt><trkpt lat="45.373504565299804" lon="11.746430145910166"><ele>12.0</ele><time>2026-03-28T09:51:26Z</time></trkpt><trkpt lat="45.3734319257708" lon="11.746263715070965"><ele>12.0</ele><time>2026-03-28T09:51:27Z</time></trkpt><trkpt lat="45.373351220883485" lon="11.746109197175693"><ele>12.0</ele><time>2026-03-28T09:51:28Z</time></trkpt><trkpt lat="45.37328626969963" lon="11.74596013500167"><ele>12.0</ele><time>2026-03-28T09:51:29Z</time></trkpt><trkpt lat="45.373205562561324" lon="11.745834390838546"><ele>12.0</ele><time>2026-03-28T09:51:30Z</time></trkpt><trkpt lat="45.373131746889236" lon="11.745727917960282"><ele>12.0</ele><time>2026-03-28T09:51:31Z</time></trkpt><trkpt lat="45.37306577712218" lon="11.745639471322777"><ele>12.0</ele><time>2026-03-28T09:51:32Z</time></trkpt><trkpt lat="45.37301354642622" lon="11.745571808763566"><ele>12.0</ele><time>2026-03-28T09:51:33Z</time></trkpt><trkpt lat="45.37292773228033" lon="11.745462023019822"><ele>12.0</ele><time>2026-03-28T09:51:35Z</time></trkpt><trkpt lat="45.37283652629646" lon="11.745373105928346"><ele>12.0</ele><time>2026-03-28T09:51:37Z</time></trkpt><trkpt lat="45.37277950956122" lon="11.74529483174742"><ele>12.333333333333334</ele><time>2026-03-28T09:51:40Z</time></trkpt><trkpt lat="45.372713540179625" lon="11.745176888301028"><ele>12.666666666666668</ele><time>2026-03-28T09:51:43Z</time></trkpt><trkpt lat="45.37268732141937" lon="11.74509197560439"><ele>13.0</ele><time>2026-03-28T09:51:44Z</time></trkpt><trkpt lat="45.37264631857334" lon="11.745011989535334"><ele>13.333333333333334</ele><time>2026-03-28T09:51:45Z</time></trkpt><trkpt lat="45.37258465989143" lon="11.744935162427407"><ele>13.666666666666668</ele><time>2026-03-28T09:51:46Z</time></trkpt><trkpt lat="45.37253981690878" lon="11.744841100381459"><ele>14.0</ele><time>2026-03-28T09:51:47Z</time></trkpt><trkpt lat="45.37245420709492" lon="11.74477512453855"><ele>14.000000000000002</ele><time>2026-03-28T09:51:49Z</time></trkpt><trkpt lat="45.37242915682624" lon="11.744652578547493"><ele>14.0</ele><time>2026-03-28T09:51:51Z</time></trkpt><trkpt lat="45.37239854873187" lon="11.74454291168523"><ele>14.0</ele><time>2026-03-28T09:51:53Z</time></trkpt><trkpt lat="45.37236230720544" lon="11.744432295109547"><ele>14.0</ele><time>2026-03-28T09:51:56Z</time></trkpt><trkpt lat="45.372349128288626" lon="11.744339980920213"><ele>14.000000000000002</ele><time>2026-03-28T09:51:58Z</time></trkpt><trkpt lat="45.37235324354005" lon="11.744226663789576"><ele>14.0</ele><time>2026-03-28T09:52:00Z</time></trkpt><trkpt lat="45.37234704305938" lon="11.74412785842832"><ele>14.000000000000002</ele><time>2026-03-28T09:52:02Z</time></trkpt><trkpt lat="45.3723404337951" lon="11.744029379076895"><ele>14.0</ele><time>2026-03-28T09:52:04Z</time></trkpt><trkpt lat="45.37233447076307" lon="11.743898938204971"><ele>14.0</ele><time>2026-03-28T09:52:06Z</time></trkpt><trkpt lat="45.37234386087103" lon="11.743773549484628"><ele>14.0</ele><time>2026-03-28T09:52:08Z</time></trkpt><trkpt lat="45.37239794091061" lon="11.743654490218294"><ele>14.000000000000002</ele><time>2026-03-28T09:52:10Z</time></trkpt><trkpt lat="45.372400062225346" lon="11.743529665480159"><ele>14.0</ele><time>2026-03-28T09:52:11.999Z</time></trkpt><trkpt lat="45.37231519926382" lon="11.74335757275764"><ele>14.000000000000002</ele><time>2026-03-28T09:52:13.999Z</time></trkpt><trkpt lat="45.37234419573887" lon="11.743228714731982"><ele>14.0</ele><time>2026-03-28T09:52:14.999Z</time></trkpt><trkpt lat="45.372339848915594" lon="11.743131868041928"><ele>14.0</ele><time>2026-03-28T09:52:15.999Z</time></trkpt><trkpt lat="45.37227865513177" lon="11.743017144878186"><ele>14.0</ele><time>2026-03-28T09:52:16.999Z</time></trkpt><trkpt lat="45.37228720546019" lon="11.742885426113556"><ele>14.000000000000002</ele><time>2026-03-28T09:52:17.999Z</time></trkpt><trkpt lat="45.372280707981396" lon="11.742757454044556"><ele>14.0</ele><time>2026-03-28T09:52:18.999Z</time></trkpt><trkpt lat="45.37225764117797" lon="11.742631162283333"><ele>13.799999999999999</ele><time>2026-03-28T09:52:19.999Z</time></trkpt><trkpt lat="45.372254673706124" lon="11.742506231941483"><ele>13.599999999999998</ele><time>2026-03-28T09:52:20.999Z</time></trkpt><trkpt lat="45.37224992116056" lon="11.742369288030327"><ele>13.4</ele><time>2026-03-28T09:52:21.999Z</time></trkpt><trkpt lat="45.372240215724084" lon="11.74222251101071"><ele>13.2</ele><time>2026-03-28T09:52:22.999Z</time></trkpt><trkpt lat="45.372248600930256" lon="11.742054592808302"><ele>13.0</ele><time>2026-03-28T09:52:23.999Z</time></trkpt><trkpt lat="45.37224012224043" lon="11.741904431824251"><ele>13.166666666666666</ele><time>2026-03-28T09:52:24.999Z</time></trkpt><trkpt lat="45.372233193876" lon="11.741772451720916"><ele>13.333333333333332</ele><time>2026-03-28T09:52:25.999Z</time></trkpt><trkpt lat="45.372210874506365" lon="11.741657339092015"><ele>13.5</ele><time>2026-03-28T09:52:26.999Z</time></trkpt><trkpt lat="45.37220913076319" lon="11.74156485974049"><ele>13.666666666666668</ele><time>2026-03-28T09:52:27.999Z</time></trkpt><trkpt lat="45.37220714184045" lon="11.741408891364902"><ele>13.833333333333334</ele><time>2026-03-28T09:52:29.999Z</time></trkpt><trkpt lat="45.372204263633314" lon="11.741313566991446"><ele>14.0</ele><time>2026-03-28T09:52:30.999Z</time></trkpt><trkpt lat="45.372198156741035" lon="11.74120430105845"><ele>14.000000000000002</ele><time>2026-03-28T09:52:31.999Z</time></trkpt><trkpt lat="45.37219384327631" lon="11.74108982377085"><ele>14.0</ele><time>2026-03-28T09:52:32.999Z</time></trkpt><trkpt lat="45.372185207208176" lon="11.740970005074132"><ele>14.0</ele><time>2026-03-28T09:52:33.999Z</time></trkpt><trkpt lat="45.372180154831305" lon="11.74084534812963"><ele>14.0</ele><time>2026-03-28T09:52:34.999Z</time></trkpt><trkpt lat="45.37217901953819" lon="11.740731121169349"><ele>14.000000000000002</ele><time>2026-03-28T09:52:35.999Z</time></trkpt><trkpt lat="45.37218018882424" lon="11.740624351166911"><ele>14.0</ele><time>2026-03-28T09:52:36.999Z</time></trkpt><trkpt lat="45.37216753817064" lon="11.740453439488338"><ele>13.75</ele><time>2026-03-28T09:52:37.999Z</time></trkpt><trkpt lat="45.37215781771922" lon="11.740304380726345"><ele>13.5</ele><time>2026-03-28T09:52:38.999Z</time></trkpt><trkpt lat="45.37214554643177" lon="11.740131064385189"><ele>13.25</ele><time>2026-03-28T09:52:39.999Z</time></trkpt><trkpt lat="45.37213245489707" lon="11.739936137835944"><ele>13.0</ele><time>2026-03-28T09:52:40.999Z</time></trkpt><trkpt lat="45.37212457856591" lon="11.739748890657346"><ele>13.0</ele><time>2026-03-28T09:52:41.999Z</time></trkpt><trkpt lat="45.372118646010634" lon="11.73955527621184"><ele>13.0</ele><time>2026-03-28T09:52:42.999Z</time></trkpt><trkpt lat="45.37211252848173" lon="11.739361872147912"><ele>13.0</ele><time>2026-03-28T09:52:43.999Z</time></trkpt><trkpt lat="45.3721036021473" lon="11.739164980477069"><ele>13.0</ele><time>2026-03-28T09:52:44.999Z</time></trkpt><trkpt lat="45.37209253539697" lon="11.738968756007814"><ele>13.25</ele><time>2026-03-28T09:52:45.999Z</time></trkpt><trkpt lat="45.37208519738062" lon="11.73877337751336"><ele>13.5</ele><time>2026-03-28T09:52:46.999Z</time></trkpt><trkpt lat="45.3720757064801" lon="11.738576623086232"><ele>13.75</ele><time>2026-03-28T09:52:48Z</time></trkpt><trkpt lat="45.37206206453582" lon="11.738382862867446"><ele>14.0</ele><time>2026-03-28T09:52:49Z</time></trkpt><trkpt lat="45.37205201013207" lon="11.73820556107333"><ele>14.0</ele><time>2026-03-28T09:52:50Z</time></trkpt><trkpt lat="45.37204122622494" lon="11.738037838943969"><ele>14.0</ele><time>2026-03-28T09:52:51Z</time></trkpt><trkpt lat="45.3720298541737" lon="11.737867899665408"><ele>14.0</ele><time>2026-03-28T09:52:52Z</time></trkpt><trkpt lat="45.37202155655635" lon="11.737695621917984"><ele>14.0</ele><time>2026-03-28T09:52:53Z</time></trkpt><trkpt lat="45.372013358726534" lon="11.737530386748837"><ele>14.0</ele><time>2026-03-28T09:52:54Z</time></trkpt><trkpt lat="45.372018200912805" lon="11.737392433831776"><ele>13.999999999999998</ele><time>2026-03-28T09:52:55Z</time></trkpt><trkpt lat="45.372013457326005" lon="11.737287020585512"><ele>13.999999999999998</ele><time>2026-03-28T09:52:56Z</time></trkpt><trkpt lat="45.37200612705416" lon="11.737130446673795"><ele>14.0</ele><time>2026-03-28T09:52:58Z</time></trkpt><trkpt lat="45.37200066319988" lon="11.736951736211122"><ele>14.0</ele><time>2026-03-28T09:53:00Z</time></trkpt><trkpt lat="45.37199564877949" lon="11.736845848203574"><ele>14.000000000000002</ele><time>2026-03-28T09:53:01Z</time></trkpt><trkpt lat="45.37198817138898" lon="11.73672345168587"><ele>14.0</ele><time>2026-03-28T09:53:02Z</time></trkpt><trkpt lat="45.371984625038095" lon="11.736617969582923"><ele>14.0</ele><time>2026-03-28T09:53:03Z</time></trkpt><trkpt lat="45.37198131472518" lon="11.736522905715818"><ele>14.0</ele><time>2026-03-28T09:53:04Z</time></trkpt><trkpt lat="45.37197356223041" lon="11.736415014258382"><ele>14.000000000000002</ele><time>2026-03-28T09:53:05Z</time></trkpt><trkpt lat="45.371965656972215" lon="11.736290845167852"><ele>14.0</ele><time>2026-03-28T09:53:06Z</time></trkpt><trkpt lat="45.37195880549776" lon="11.736164637215138"><ele>13.799999999999999</ele><time>2026-03-28T09:53:07Z</time></trkpt><trkpt lat="45.371952332626584" lon="11.736037844214417"><ele>13.599999999999998</ele><time>2026-03-28T09:53:08Z</time></trkpt><trkpt lat="45.37194348421488" lon="11.735904203974574"><ele>13.4</ele><time>2026-03-28T09:53:09Z</time></trkpt><trkpt lat="45.3719382910048" lon="11.735765082055819"><ele>13.2</ele><time>2026-03-28T09:53:10Z</time></trkpt><trkpt lat="45.371932122361095" lon="11.735622055590877"><ele>13.0</ele><time>2026-03-28T09:53:11Z</time></trkpt><trkpt lat="45.3719246395511" lon="11.735472721774805"><ele>13.0</ele><time>2026-03-28T09:53:12Z</time></trkpt><trkpt lat="45.37191619910977" lon="11.73531613587286"><ele>13.0</ele><time>2026-03-28T09:53:13Z</time></trkpt><trkpt lat="45.37190574104368" lon="11.73514955571095"><ele>13.0</ele><time>2026-03-28T09:53:14Z</time></trkpt><trkpt lat="45.37189568808969" lon="11.734964895530153"><ele>13.0</ele><time>2026-03-28T09:53:15Z</time></trkpt><trkpt lat="45.37188807070333" lon="11.734789737359243"><ele>13.0</ele><time>2026-03-28T09:53:16Z</time></trkpt><trkpt lat="45.37187907090436" lon="11.73462383055722"><ele>13.0</ele><time>2026-03-28T09:53:17Z</time></trkpt><trkpt lat="45.37187256947406" lon="11.734468788630554"><ele>13.0</ele><time>2026-03-28T09:53:18Z</time></trkpt><trkpt lat="45.37186686272858" lon="11.734318859430285"><ele>13.0</ele><time>2026-03-28T09:53:19Z</time></trkpt><trkpt lat="45.371859430195414" lon="11.734165733038923"><ele>13.0</ele><time>2026-03-28T09:53:20Z</time></trkpt><trkpt lat="45.37185154246501" lon="11.734015862524416"><ele>13.0</ele><time>2026-03-28T09:53:21Z</time></trkpt><trkpt lat="45.37184681813009" lon="11.73387914228447"><ele>13.0</ele><time>2026-03-28T09:53:22Z</time></trkpt><trkpt lat="45.371838936091436" lon="11.733743798679539"><ele>13.0</ele><time>2026-03-28T09:53:23Z</time></trkpt><trkpt lat="45.37182900128026" lon="11.733610430786015"><ele>13.0</ele><time>2026-03-28T09:53:24Z</time></trkpt><trkpt lat="45.371824918807874" lon="11.733469096459821"><ele>13.0</ele><time>2026-03-28T09:53:25Z</time></trkpt><trkpt lat="45.37183277881552" lon="11.733323564395944"><ele>13.166666666666666</ele><time>2026-03-28T09:53:26Z</time></trkpt><trkpt lat="45.37182727991808" lon="11.733181267250767"><ele>13.333333333333332</ele><time>2026-03-28T09:53:27Z</time></trkpt><trkpt lat="45.37180761428463" lon="11.73304996546311"><ele>13.5</ele><time>2026-03-28T09:53:28Z</time></trkpt><trkpt lat="45.37180891658974" lon="11.73294562046839"><ele>13.666666666666668</ele><time>2026-03-28T09:53:29Z</time></trkpt><trkpt lat="45.371807119369386" lon="11.73284859033522"><ele>13.833333333333334</ele><time>2026-03-28T09:53:30Z</time></trkpt><trkpt lat="45.37182278477152" lon="11.732704131505564"><ele>14.0</ele><time>2026-03-28T09:53:32Z</time></trkpt><trkpt lat="45.37186886025605" lon="11.732537804386112"><ele>14.000000000000002</ele><time>2026-03-28T09:53:35Z</time></trkpt><trkpt lat="45.37192939049955" lon="11.732486205533219"><ele>14.0</ele><time>2026-03-28T09:53:36Z</time></trkpt><trkpt lat="45.37200120769787" lon="11.732449584171862"><ele>14.0</ele><time>2026-03-28T09:53:37Z</time></trkpt><trkpt lat="45.372066839664136" lon="11.732386609824706"><ele>14.0</ele><time>2026-03-28T09:53:38Z</time></trkpt><trkpt lat="45.372136958658835" lon="11.732292313087656"><ele>14.000000000000002</ele><time>2026-03-28T09:53:40Z</time></trkpt><trkpt lat="45.372124604422844" lon="11.732161992929726"><ele>14.0</ele><time>2026-03-28T09:53:41Z</time></trkpt><trkpt lat="45.372095051649566" lon="11.732066690601187"><ele>14.000000000000002</ele><time>2026-03-28T09:53:42Z</time></trkpt><trkpt lat="45.37201075945643" lon="11.732033339407593"><ele>14.0</ele><time>2026-03-28T09:53:43Z</time></trkpt><trkpt lat="45.37195000780912" lon="11.731997529769602"><ele>14.0</ele><time>2026-03-28T09:53:44Z</time></trkpt><trkpt lat="45.37188979343146" lon="11.731967982641335"><ele>14.0</ele><time>2026-03-28T09:53:45Z</time></trkpt><trkpt lat="45.37181741530488" lon="11.731844025068158"><ele>14.000000000000002</ele><time>2026-03-28T09:53:47Z</time></trkpt><trkpt lat="45.37177018584603" lon="11.731776243369886"><ele>14.0</ele><time>2026-03-28T09:53:48Z</time></trkpt><trkpt lat="45.37177641803808" lon="11.731668085166067"><ele>14.0</ele><time>2026-03-28T09:53:49Z</time></trkpt><trkpt lat="45.37176455288556" lon="11.731566207590273"><ele>14.0</ele><time>2026-03-28T09:53:50Z</time></trkpt><trkpt lat="45.371755839899805" lon="11.73146045651359"><ele>14.0</ele><time>2026-03-28T09:53:51Z</time></trkpt><trkpt lat="45.37174896863404" lon="11.731362176186057"><ele>14.0</ele><time>2026-03-28T09:53:52Z</time></trkpt><trkpt lat="45.37172608742616" lon="11.73126463198304"><ele>14.0</ele><time>2026-03-28T09:53:53Z</time></trkpt><trkpt lat="45.37171776153388" lon="11.731162979671957"><ele>14.0</ele><time>2026-03-28T09:53:54Z</time></trkpt><trkpt lat="45.37172487211024" lon="11.731064053001292"><ele>14.0</ele><time>2026-03-28T09:53:55Z</time></trkpt><trkpt lat="45.37170082580273" lon="11.730963413124424"><ele>14.000000000000002</ele><time>2026-03-28T09:53:56Z</time></trkpt><trkpt lat="45.37169161980551" lon="11.73085528866405"><ele>14.0</ele><time>2026-03-28T09:53:57Z</time></trkpt><trkpt lat="45.37168316085868" lon="11.730749039403275"><ele>14.0</ele><time>2026-03-28T09:53:58Z</time></trkpt><trkpt lat="45.37167045436106" lon="11.730640772339317"><ele>14.0</ele><time>2026-03-28T09:53:59Z</time></trkpt><trkpt lat="45.371658206405705" lon="11.730535573868083"><ele>14.000000000000002</ele><time>2026-03-28T09:54:00Z</time></trkpt><trkpt lat="45.37164279591539" lon="11.730421578948427"><ele>14.0</ele><time>2026-03-28T09:54:01Z</time></trkpt><trkpt lat="45.371628332608246" lon="11.730291400370549"><ele>13.799999999999999</ele><time>2026-03-28T09:54:02Z</time></trkpt><trkpt lat="45.37161431951403" lon="11.73015367112188"><ele>13.599999999999998</ele><time>2026-03-28T09:54:03Z</time></trkpt><trkpt lat="45.37159692901929" lon="11.730014321137608"><ele>13.4</ele><time>2026-03-28T09:54:04Z</time></trkpt><trkpt lat="45.37157942237332" lon="11.72985984831616"><ele>13.2</ele><time>2026-03-28T09:54:05Z</time></trkpt><trkpt lat="45.371558170767116" lon="11.729686529557839"><ele>13.0</ele><time>2026-03-28T09:54:06Z</time></trkpt><trkpt lat="45.37154153417465" lon="11.729517539590837"><ele>13.0</ele><time>2026-03-28T09:54:07Z</time></trkpt><trkpt lat="45.371530783922516" lon="11.729367312016514"><ele>13.0</ele><time>2026-03-28T09:54:08Z</time></trkpt><trkpt lat="45.37152063627882" lon="11.729235673256696"><ele>13.0</ele><time>2026-03-28T09:54:09Z</time></trkpt><trkpt lat="45.37151255365056" lon="11.729099689825965"><ele>13.0</ele><time>2026-03-28T09:54:10Z</time></trkpt><trkpt lat="45.37150590854353" lon="11.7289586925628"><ele>13.0</ele><time>2026-03-28T09:54:11Z</time></trkpt><trkpt lat="45.371503145502366" lon="11.728822534046417"><ele>13.0</ele><time>2026-03-28T09:54:12Z</time></trkpt><trkpt lat="45.371496242878116" lon="11.728685566743037"><ele>13.0</ele><time>2026-03-28T09:54:13Z</time></trkpt><trkpt lat="45.37149127635366" lon="11.728546502485832"><ele>13.0</ele><time>2026-03-28T09:54:14Z</time></trkpt><trkpt lat="45.37149080357697" lon="11.728404025334669"><ele>13.0</ele><time>2026-03-28T09:54:15Z</time></trkpt><trkpt lat="45.37148568266582" lon="11.72824490628892"><ele>13.0</ele><time>2026-03-28T09:54:16Z</time></trkpt><trkpt lat="45.37147800731699" lon="11.728075686244402"><ele>13.25</ele><time>2026-03-28T09:54:17Z</time></trkpt><trkpt lat="45.37147477771564" lon="11.727911697385448"><ele>13.5</ele><time>2026-03-28T09:54:18Z</time></trkpt><trkpt lat="45.3714638658507" lon="11.727739511658037"><ele>13.75</ele><time>2026-03-28T09:54:19Z</time></trkpt><trkpt lat="45.37146016614833" lon="11.727558944854998"><ele>14.0</ele><time>2026-03-28T09:54:20Z</time></trkpt><trkpt lat="45.37145715829872" lon="11.727372731503944"><ele>14.25</ele><time>2026-03-28T09:54:21Z</time></trkpt><trkpt lat="45.37145239362416" lon="11.727196799834482"><ele>14.5</ele><time>2026-03-28T09:54:22Z</time></trkpt><trkpt lat="45.371445338893885" lon="11.727022622880911"><ele>14.75</ele><time>2026-03-28T09:54:23Z</time></trkpt><trkpt lat="45.37143777471844" lon="11.726846846332036"><ele>15.0</ele><time>2026-03-28T09:54:24Z</time></trkpt><trkpt lat="45.3714273582797" lon="11.72667049707288"><ele>15.0</ele><time>2026-03-28T09:54:25Z</time></trkpt><trkpt lat="45.371425001251616" lon="11.726485120026235"><ele>15.0</ele><time>2026-03-28T09:54:26Z</time></trkpt><trkpt lat="45.37141993556194" lon="11.72629537864348"><ele>15.0</ele><time>2026-03-28T09:54:27Z</time></trkpt><trkpt lat="45.37141058901475" lon="11.726103890052443"><ele>15.0</ele><time>2026-03-28T09:54:28Z</time></trkpt><trkpt lat="45.37139923991908" lon="11.72591474051354"><ele>15.25</ele><time>2026-03-28T09:54:28.999Z</time></trkpt><trkpt lat="45.37139866653142" lon="11.725723931195333"><ele>15.5</ele><time>2026-03-28T09:54:29.999Z</time></trkpt><trkpt lat="45.37138858139975" lon="11.725537019225735"><ele>15.75</ele><time>2026-03-28T09:54:30.999Z</time></trkpt><trkpt lat="45.371385851837" lon="11.725351077942362"><ele>16.0</ele><time>2026-03-28T09:54:31.999Z</time></trkpt><trkpt lat="45.3713807070925" lon="11.725171075531733"><ele>15.25</ele><time>2026-03-28T09:54:32.999Z</time></trkpt><trkpt lat="45.37137807001713" lon="11.724986976429381"><ele>14.5</ele><time>2026-03-28T09:54:33.999Z</time></trkpt><trkpt lat="45.37137615646656" lon="11.72479885137989"><ele>13.75</ele><time>2026-03-28T09:54:34.999Z</time></trkpt><trkpt lat="45.371368605822916" lon="11.72460555981364"><ele>13.0</ele><time>2026-03-28T09:54:35.999Z</time></trkpt><trkpt lat="45.37136307135691" lon="11.724399135552195"><ele>12.75</ele><time>2026-03-28T09:54:36.999Z</time></trkpt><trkpt lat="45.371359999145106" lon="11.724184956848289"><ele>12.5</ele><time>2026-03-28T09:54:37.999Z</time></trkpt><trkpt lat="45.371354371609556" lon="11.72397669812385"><ele>12.25</ele><time>2026-03-28T09:54:38.999Z</time></trkpt><trkpt lat="45.37135058153064" lon="11.723771258588906"><ele>12.0</ele><time>2026-03-28T09:54:39.999Z</time></trkpt><trkpt lat="45.37134310301057" lon="11.723581812850675"><ele>12.75</ele><time>2026-03-28T09:54:40.999Z</time></trkpt><trkpt lat="45.37133479888342" lon="11.72340601596298"><ele>13.5</ele><time>2026-03-28T09:54:41.999Z</time></trkpt><trkpt lat="45.3713300909173" lon="11.72323590605832"><ele>14.25</ele><time>2026-03-28T09:54:42.999Z</time></trkpt><trkpt lat="45.371326068422526" lon="11.723066291720293"><ele>15.0</ele><time>2026-03-28T09:54:43.999Z</time></trkpt><trkpt lat="45.37132070249745" lon="11.722913540806129"><ele>15.0</ele><time>2026-03-28T09:54:44.999Z</time></trkpt><trkpt lat="45.37131714624914" lon="11.722777516712537"><ele>15.0</ele><time>2026-03-28T09:54:45.999Z</time></trkpt><trkpt lat="45.37132933461046" lon="11.722649102546995"><ele>15.0</ele><time>2026-03-28T09:54:46.999Z</time></trkpt><trkpt lat="45.37132641683696" lon="11.722520183462374"><ele>15.0</ele><time>2026-03-28T09:54:47.999Z</time></trkpt><trkpt lat="45.37132346715648" lon="11.722390531597814"><ele>15.0</ele><time>2026-03-28T09:54:48.999Z</time></trkpt><trkpt lat="45.371309126897984" lon="11.722257873293184"><ele>15.0</ele><time>2026-03-28T09:54:49.999Z</time></trkpt><trkpt lat="45.37131137916156" lon="11.722111080875662"><ele>15.0</ele><time>2026-03-28T09:54:50.999Z</time></trkpt><trkpt lat="45.371307380390896" lon="11.721948127771844"><ele>15.0</ele><time>2026-03-28T09:54:51.999Z</time></trkpt><trkpt lat="45.37129828819883" lon="11.721782364126012"><ele>15.0</ele><time>2026-03-28T09:54:52.999Z</time></trkpt><trkpt lat="45.37129218055863" lon="11.721604708233505"><ele>15.0</ele><time>2026-03-28T09:54:54Z</time></trkpt><trkpt lat="45.37128917860449" lon="11.721435792375715"><ele>15.0</ele><time>2026-03-28T09:54:55Z</time></trkpt><trkpt lat="45.37128576317698" lon="11.72126373018482"><ele>15.0</ele><time>2026-03-28T09:54:56Z</time></trkpt><trkpt lat="45.371282293438966" lon="11.721087557925491"><ele>15.0</ele><time>2026-03-28T09:54:57Z</time></trkpt><trkpt lat="45.3712777663844" lon="11.72090250836562"><ele>15.0</ele><time>2026-03-28T09:54:58Z</time></trkpt><trkpt lat="45.37127521875867" lon="11.720725700321713"><ele>15.0</ele><time>2026-03-28T09:54:59Z</time></trkpt><trkpt lat="45.371270153471265" lon="11.720545268805013"><ele>15.0</ele><time>2026-03-28T09:55:00Z</time></trkpt><trkpt lat="45.37126545978189" lon="11.720364587887028"><ele>15.0</ele><time>2026-03-28T09:55:01Z</time></trkpt><trkpt lat="45.37125962688849" lon="11.720183675792688"><ele>15.0</ele><time>2026-03-28T09:55:02Z</time></trkpt><trkpt lat="45.371272461962064" lon="11.72004378613613"><ele>15.0</ele><time>2026-03-28T09:55:03Z</time></trkpt><trkpt lat="45.37126996504758" lon="11.719927165507043"><ele>15.0</ele><time>2026-03-28T09:55:05Z</time></trkpt><trkpt lat="45.37125515032642" lon="11.719793821321261"><ele>15.0</ele><time>2026-03-28T09:55:09Z</time></trkpt><trkpt lat="45.37125508792395" lon="11.719701646134862"><ele>15.0</ele><time>2026-03-28T09:55:10Z</time></trkpt><trkpt lat="45.37124930997706" lon="11.719510324322245"><ele>15.0</ele><time>2026-03-28T09:55:12Z</time></trkpt><trkpt lat="45.37124769588802" lon="11.719416447599011"><ele>15.0</ele><time>2026-03-28T09:55:13Z</time></trkpt><trkpt lat="45.371245647130806" lon="11.719312014101522"><ele>15.0</ele><time>2026-03-28T09:55:14Z</time></trkpt><trkpt lat="45.37124237650726" lon="11.719197265634246"><ele>15.0</ele><time>2026-03-28T09:55:15Z</time></trkpt><trkpt lat="45.37124081812364" lon="11.719072040233685"><ele>15.0</ele><time>2026-03-28T09:55:16Z</time></trkpt><trkpt lat="45.37123470959583" lon="11.718932823481325"><ele>15.0</ele><time>2026-03-28T09:55:17Z</time></trkpt><trkpt lat="45.371246028730425" lon="11.71879062243852"><ele>15.0</ele><time>2026-03-28T09:55:18Z</time></trkpt><trkpt lat="45.371240869467364" lon="11.718642274859954"><ele>15.0</ele><time>2026-03-28T09:55:19Z</time></trkpt><trkpt lat="45.371234991880456" lon="11.718485812718802"><ele>15.0</ele><time>2026-03-28T09:55:20Z</time></trkpt><trkpt lat="45.3712121099363" lon="11.718320865547717"><ele>15.0</ele><time>2026-03-28T09:55:21Z</time></trkpt><trkpt lat="45.37120448671989" lon="11.718144213301375"><ele>15.0</ele><time>2026-03-28T09:55:22Z</time></trkpt><trkpt lat="45.37119322088951" lon="11.717979519631887"><ele>15.0</ele><time>2026-03-28T09:55:23Z</time></trkpt><trkpt lat="45.37116925691781" lon="11.717807469672378"><ele>15.0</ele><time>2026-03-28T09:55:24Z</time></trkpt><trkpt lat="45.371125726173375" lon="11.71763508515843"><ele>15.0</ele><time>2026-03-28T09:55:25Z</time></trkpt><trkpt lat="45.37107248910302" lon="11.717492471037417"><ele>15.0</ele><time>2026-03-28T09:55:26Z</time></trkpt><trkpt lat="45.371006131243554" lon="11.717367957378059"><ele>15.0</ele><time>2026-03-28T09:55:27Z</time></trkpt><trkpt lat="45.370932918690656" lon="11.717241017170375"><ele>15.0</ele><time>2026-03-28T09:55:28Z</time></trkpt><trkpt lat="45.37085827997379" lon="11.717114888411489"><ele>15.0</ele><time>2026-03-28T09:55:29Z</time></trkpt><trkpt lat="45.37071499349003" lon="11.716863348449715"><ele>15.0</ele><time>2026-03-28T09:55:31Z</time></trkpt><trkpt lat="45.370641771889204" lon="11.71673841500278"><ele>15.0</ele><time>2026-03-28T09:55:32Z</time></trkpt><trkpt lat="45.37056973928333" lon="11.71661582496429"><ele>15.0</ele><time>2026-03-28T09:55:33Z</time></trkpt><trkpt lat="45.37049684801242" lon="11.716493330796087"><ele>15.0</ele><time>2026-03-28T09:55:34Z</time></trkpt><trkpt lat="45.3704202562288" lon="11.716367386412193"><ele>15.0</ele><time>2026-03-28T09:55:35Z</time></trkpt><trkpt lat="45.37034118055472" lon="11.716235250740391"><ele>15.0</ele><time>2026-03-28T09:55:36Z</time></trkpt><trkpt lat="45.37025837217848" lon="11.716091304452842"><ele>15.0</ele><time>2026-03-28T09:55:37Z</time></trkpt><trkpt lat="45.37017209353077" lon="11.715956207705702"><ele>15.0</ele><time>2026-03-28T09:55:38Z</time></trkpt><trkpt lat="45.37008301134218" lon="11.715794370263458"><ele>15.0</ele><time>2026-03-28T09:55:39Z</time></trkpt><trkpt lat="45.369990573894526" lon="11.715642034471907"><ele>15.0</ele><time>2026-03-28T09:55:40Z</time></trkpt><trkpt lat="45.36990559262428" lon="11.715503458083603"><ele>15.0</ele><time>2026-03-28T09:55:41Z</time></trkpt><trkpt lat="45.369823252395506" lon="11.715367015881604"><ele>15.0</ele><time>2026-03-28T09:55:42Z</time></trkpt><trkpt lat="45.36975614790455" lon="11.715199017118664"><ele>15.0</ele><time>2026-03-28T09:55:43Z</time></trkpt><trkpt lat="45.36967336048985" lon="11.715057077768462"><ele>15.0</ele><time>2026-03-28T09:55:44Z</time></trkpt><trkpt lat="45.369589515066394" lon="11.714913651201687"><ele>15.0</ele><time>2026-03-28T09:55:45Z</time></trkpt><trkpt lat="45.36948572381494" lon="11.714795099619776"><ele>15.0</ele><time>2026-03-28T09:55:46Z</time></trkpt><trkpt lat="45.36940401211084" lon="11.714648808170274"><ele>15.0</ele><time>2026-03-28T09:55:47Z</time></trkpt><trkpt lat="45.369324298421844" lon="11.714504095034002"><ele>15.0</ele><time>2026-03-28T09:55:48Z</time></trkpt><trkpt lat="45.36924725780765" lon="11.714366157069378"><ele>15.0</ele><time>2026-03-28T09:55:49Z</time></trkpt><trkpt lat="45.369172632709734" lon="11.714221457139294"><ele>15.0</ele><time>2026-03-28T09:55:50Z</time></trkpt><trkpt lat="45.36909598978777" lon="11.714082301410487"><ele>14.75</ele><time>2026-03-28T09:55:51Z</time></trkpt><trkpt lat="45.369022597661875" lon="11.713936173861399"><ele>14.5</ele><time>2026-03-28T09:55:52Z</time></trkpt><trkpt lat="45.36895262711607" lon="11.71378934362805"><ele>14.25</ele><time>2026-03-28T09:55:53Z</time></trkpt><trkpt lat="45.36888472180309" lon="11.713639376854054"><ele>14.0</ele><time>2026-03-28T09:55:54Z</time></trkpt><trkpt lat="45.36881693422372" lon="11.713490638558143"><ele>14.5</ele><time>2026-03-28T09:55:55Z</time></trkpt><trkpt lat="45.36875030652487" lon="11.713343075456343"><ele>15.0</ele><time>2026-03-28T09:55:56Z</time></trkpt><trkpt lat="45.3686843736381" lon="11.713194533533908"><ele>15.5</ele><time>2026-03-28T09:55:57Z</time></trkpt><trkpt lat="45.3686190590883" lon="11.71304589881762"><ele>16.0</ele><time>2026-03-28T09:55:58Z</time></trkpt><trkpt lat="45.36854678336943" lon="11.712896782381605"><ele>16.0</ele><time>2026-03-28T09:55:59Z</time></trkpt><trkpt lat="45.36846271144263" lon="11.712726288759065"><ele>16.0</ele><time>2026-03-28T09:56:00Z</time></trkpt><trkpt lat="45.368376860367476" lon="11.712567073495164"><ele>16.0</ele><time>2026-03-28T09:56:01Z</time></trkpt><trkpt lat="45.36831508443357" lon="11.712415510988013"><ele>16.0</ele><time>2026-03-28T09:56:02Z</time></trkpt><trkpt lat="45.36825425877718" lon="11.712271714756184"><ele>16.0</ele><time>2026-03-28T09:56:03Z</time></trkpt><trkpt lat="45.36819311908076" lon="11.712140815100675"><ele>16.0</ele><time>2026-03-28T09:56:04Z</time></trkpt><trkpt lat="45.368148622327865" lon="11.711998549360073"><ele>16.0</ele><time>2026-03-28T09:56:05Z</time></trkpt><trkpt lat="45.36808390296997" lon="11.711901278430096"><ele>16.0</ele><time>2026-03-28T09:56:06Z</time></trkpt><trkpt lat="45.36805155914849" lon="11.711790437540154"><ele>16.0</ele><time>2026-03-28T09:56:07Z</time></trkpt><trkpt lat="45.36801028715919" lon="11.711701098014435"><ele>15.714285714285714</ele><time>2026-03-28T09:56:08Z</time></trkpt><trkpt lat="45.36796113484123" lon="11.71163045788968"><ele>15.428571428571427</ele><time>2026-03-28T09:56:09Z</time></trkpt><trkpt lat="45.36792157592621" lon="11.711540961761385"><ele>15.142857142857142</ele><time>2026-03-28T09:56:10Z</time></trkpt><trkpt lat="45.36788353629626" lon="11.711454919127913"><ele>14.857142857142858</ele><time>2026-03-28T09:56:11Z</time></trkpt><trkpt lat="45.36784362756346" lon="11.711369660913837"><ele>14.571428571428571</ele><time>2026-03-28T09:56:12Z</time></trkpt><trkpt lat="45.367807518805044" lon="11.711292345078038"><ele>14.285714285714285</ele><time>2026-03-28T09:56:13Z</time></trkpt><trkpt lat="45.36777159769494" lon="11.711218671583332"><ele>14.0</ele><time>2026-03-28T09:56:14Z</time></trkpt><trkpt lat="45.36771160557616" lon="11.711075409776834"><ele>14.399999999999999</ele><time>2026-03-28T09:56:16Z</time></trkpt><trkpt lat="45.36764538433179" lon="11.710939159233469"><ele>14.799999999999999</ele><time>2026-03-28T09:56:17.999Z</time></trkpt><trkpt lat="45.36757973590737" lon="11.710786080752895"><ele>15.200000000000001</ele><time>2026-03-28T09:56:19.999Z</time></trkpt><trkpt lat="45.367550009966266" lon="11.710707029644432"><ele>15.600000000000001</ele><time>2026-03-28T09:56:20.999Z</time></trkpt><trkpt lat="45.36750126005911" lon="11.710570707096464"><ele>16.0</ele><time>2026-03-28T09:56:22.999Z</time></trkpt><trkpt lat="45.36744419314732" lon="11.710424771301541"><ele>15.999999999999998</ele><time>2026-03-28T09:56:24.999Z</time></trkpt><trkpt lat="45.36738945819658" lon="11.710279179254266"><ele>16.0</ele><time>2026-03-28T09:56:26.999Z</time></trkpt><trkpt lat="45.36733256914997" lon="11.710130190308288"><ele>16.0</ele><time>2026-03-28T09:56:28.999Z</time></trkpt><trkpt lat="45.36730558858344" lon="11.71004884766768"><ele>16.0</ele><time>2026-03-28T09:56:29.999Z</time></trkpt><trkpt lat="45.36727460780538" lon="11.709962871900043"><ele>15.999999999999998</ele><time>2026-03-28T09:56:30.999Z</time></trkpt><trkpt lat="45.36723705333371" lon="11.709858107923534"><ele>16.0</ele><time>2026-03-28T09:56:31.999Z</time></trkpt><trkpt lat="45.36719992718035" lon="11.70976105038507"><ele>15.857142857142856</ele><time>2026-03-28T09:56:32.999Z</time></trkpt><trkpt lat="45.36716484150882" lon="11.709660047656206"><ele>15.714285714285712</ele><time>2026-03-28T09:56:33.999Z</time></trkpt><trkpt lat="45.36712735946195" lon="11.709559022075272"><ele>15.571428571428571</ele><time>2026-03-28T09:56:34.999Z</time></trkpt><trkpt lat="45.36709413860282" lon="11.70946736359614"><ele>15.428571428571427</ele><time>2026-03-28T09:56:35.999Z</time></trkpt><trkpt lat="45.367062470200665" lon="11.709379358835392"><ele>15.285714285714285</ele><time>2026-03-28T09:56:36.999Z</time></trkpt><trkpt lat="45.36703203105643" lon="11.709292530899997"><ele>15.142857142857142</ele><time>2026-03-28T09:56:37.999Z</time></trkpt><trkpt lat="45.367000847540766" lon="11.709198895050754"><ele>15.0</ele><time>2026-03-28T09:56:38.999Z</time></trkpt><trkpt lat="45.36696729859478" lon="11.70911285460581"><ele>15.0</ele><time>2026-03-28T09:56:39.999Z</time></trkpt><trkpt lat="45.36693335138629" lon="11.709017379673448"><ele>15.0</ele><time>2026-03-28T09:56:40.999Z</time></trkpt><trkpt lat="45.366900590140375" lon="11.708921437330597"><ele>15.0</ele><time>2026-03-28T09:56:41.999Z</time></trkpt><trkpt lat="45.366862428177384" lon="11.708818750571439"><ele>15.0</ele><time>2026-03-28T09:56:42.999Z</time></trkpt><trkpt lat="45.366826461005296" lon="11.708712171448148"><ele>15.0</ele><time>2026-03-28T09:56:43.999Z</time></trkpt><trkpt lat="45.36679816654165" lon="11.70861556569611"><ele>15.0</ele><time>2026-03-28T09:56:44.999Z</time></trkpt><trkpt lat="45.36674174757324" lon="11.708462393542575"><ele>15.333333333333334</ele><time>2026-03-28T09:56:46.999Z</time></trkpt><trkpt lat="45.36670526358173" lon="11.7083691971032"><ele>15.666666666666668</ele><time>2026-03-28T09:56:47.999Z</time></trkpt><trkpt lat="45.366671248847624" lon="11.708273989229715"><ele>16.0</ele><time>2026-03-28T09:56:48.999Z</time></trkpt><trkpt lat="45.366639246345095" lon="11.708172880154061"><ele>16.333333333333336</ele><time>2026-03-28T09:56:49.999Z</time></trkpt><trkpt lat="45.36660042316614" lon="11.708057800270673"><ele>16.666666666666668</ele><time>2026-03-28T09:56:50.999Z</time></trkpt><trkpt lat="45.366556483412275" lon="11.70793692298727"><ele>17.0</ele><time>2026-03-28T09:56:51.999Z</time></trkpt><trkpt lat="45.36651339488538" lon="11.707811721298306"><ele>17.166666666666668</ele><time>2026-03-28T09:56:52.999Z</time></trkpt><trkpt lat="45.36647232992806" lon="11.707704234027034"><ele>17.333333333333336</ele><time>2026-03-28T09:56:53.999Z</time></trkpt><trkpt lat="45.36643477181344" lon="11.70760741518295"><ele>17.5</ele><time>2026-03-28T09:56:54.999Z</time></trkpt><trkpt lat="45.366395730535885" lon="11.707513038670719"><ele>17.666666666666668</ele><time>2026-03-28T09:56:55.999Z</time></trkpt><trkpt lat="45.36634012637578" lon="11.707402844472286"><ele>17.833333333333332</ele><time>2026-03-28T09:56:56.999Z</time></trkpt><trkpt lat="45.36627344487453" lon="11.707298314690021"><ele>18.0</ele><time>2026-03-28T09:56:57.999Z</time></trkpt><trkpt lat="45.36623679290598" lon="11.707207026928234"><ele>18.0</ele><time>2026-03-28T09:56:58.999Z</time></trkpt><trkpt lat="45.36622560494791" lon="11.707100387158649"><ele>18.0</ele><time>2026-03-28T09:57:00Z</time></trkpt><trkpt lat="45.366244993078176" lon="11.706965971456901"><ele>18.0</ele><time>2026-03-28T09:57:01Z</time></trkpt><trkpt lat="45.36628983381075" lon="11.706789896589884"><ele>18.0</ele><time>2026-03-28T09:57:02Z</time></trkpt><trkpt lat="45.36633049371102" lon="11.706562149925155"><ele>17.333333333333332</ele><time>2026-03-28T09:57:03Z</time></trkpt><trkpt lat="45.36635471769058" lon="11.70630062349933"><ele>16.666666666666664</ele><time>2026-03-28T09:57:04Z</time></trkpt><trkpt lat="45.36639422144498" lon="11.706052473253823"><ele>16.0</ele><time>2026-03-28T09:57:05Z</time></trkpt><trkpt lat="45.366407637711696" lon="11.705836118276544"><ele>15.333333333333332</ele><time>2026-03-28T09:57:06Z</time></trkpt><trkpt lat="45.366417356133944" lon="11.705627438806967"><ele>14.666666666666668</ele><time>2026-03-28T09:57:07Z</time></trkpt><trkpt lat="45.366398543907465" lon="11.705400334836778"><ele>14.0</ele><time>2026-03-28T09:57:08Z</time></trkpt><trkpt lat="45.36635330256282" lon="11.705143765059086"><ele>14.0</ele><time>2026-03-28T09:57:09Z</time></trkpt><trkpt lat="45.3663095274846" lon="11.704888667110728"><ele>14.0</ele><time>2026-03-28T09:57:10Z</time></trkpt><trkpt lat="45.36625553404612" lon="11.704601163559932"><ele>14.0</ele><time>2026-03-28T09:57:11Z</time></trkpt><trkpt lat="45.36619570382424" lon="11.704282891756629"><ele>13.5</ele><time>2026-03-28T09:57:12Z</time></trkpt><trkpt lat="45.36613681463889" lon="11.703969625818518"><ele>13.0</ele><time>2026-03-28T09:57:13Z</time></trkpt><trkpt lat="45.36606581489987" lon="11.703666780366166"><ele>13.0</ele><time>2026-03-28T09:57:14Z</time></trkpt><trkpt lat="45.36604662409275" lon="11.70335816885523"><ele>13.0</ele><time>2026-03-28T09:57:15Z</time></trkpt><trkpt lat="45.366025276438855" lon="11.703048916091321"><ele>13.0</ele><time>2026-03-28T09:57:16Z</time></trkpt><trkpt lat="45.366006204075354" lon="11.702745572707858"><ele>13.0</ele><time>2026-03-28T09:57:17Z</time></trkpt><trkpt lat="45.36598770576053" lon="11.70244347508969"><ele>13.0</ele><time>2026-03-28T09:57:18Z</time></trkpt><trkpt lat="45.36597119242138" lon="11.702152845420033"><ele>13.0</ele><time>2026-03-28T09:57:19Z</time></trkpt><trkpt lat="45.3659547878777" lon="11.701864841611707"><ele>13.0</ele><time>2026-03-28T09:57:20Z</time></trkpt><trkpt lat="45.36593761444649" lon="11.70157593794101"><ele>13.0</ele><time>2026-03-28T09:57:21Z</time></trkpt><trkpt lat="45.36591081765671" lon="11.70099018660042"><ele>13.333333333333332</ele><time>2026-03-28T09:57:23Z</time></trkpt><trkpt lat="45.365909778313906" lon="11.700684208563027"><ele>13.666666666666668</ele><time>2026-03-28T09:57:24Z</time></trkpt><trkpt lat="45.36591065928665" lon="11.700363728855544"><ele>14.0</ele><time>2026-03-28T09:57:25Z</time></trkpt><trkpt lat="45.36589610198342" lon="11.700048600586028"><ele>14.0</ele><time>2026-03-28T09:57:26Z</time></trkpt><trkpt lat="45.36591240541777" lon="11.699743669331681"><ele>14.0</ele><time>2026-03-28T09:57:27Z</time></trkpt><trkpt lat="45.36589651251467" lon="11.699430286536655"><ele>14.0</ele><time>2026-03-28T09:57:28Z</time></trkpt><trkpt lat="45.36589795948397" lon="11.699124033084605"><ele>14.0</ele><time>2026-03-28T09:57:29Z</time></trkpt><trkpt lat="45.365913520497934" lon="11.698822820330344"><ele>14.0</ele><time>2026-03-28T09:57:30Z</time></trkpt><trkpt lat="45.365913907711224" lon="11.698512316986752"><ele>14.0</ele><time>2026-03-28T09:57:31Z</time></trkpt><trkpt lat="45.365914289810696" lon="11.698205914596334"><ele>14.0</ele><time>2026-03-28T09:57:32Z</time></trkpt><trkpt lat="45.36591466698813" lon="11.697903458445802"><ele>14.0</ele><time>2026-03-28T09:57:33Z</time></trkpt><trkpt lat="45.36591503977565" lon="11.697604523179098"><ele>14.0</ele><time>2026-03-28T09:57:34Z</time></trkpt><trkpt lat="45.365918786555206" lon="11.697306513041534"><ele>13.666666666666668</ele><time>2026-03-28T09:57:35Z</time></trkpt><trkpt lat="45.36592978425483" lon="11.69701124737172"><ele>13.333333333333332</ele><time>2026-03-28T09:57:36Z</time></trkpt><trkpt lat="45.36594392560895" lon="11.696719065180542"><ele>13.0</ele><time>2026-03-28T09:57:37Z</time></trkpt><trkpt lat="45.36596005769959" lon="11.696424381552605"><ele>12.333333333333332</ele><time>2026-03-28T09:57:38Z</time></trkpt><trkpt lat="45.36597617683539" lon="11.696135948870563"><ele>11.666666666666666</ele><time>2026-03-28T09:57:39Z</time></trkpt><trkpt lat="45.365991968669775" lon="11.695853372904253"><ele>11.0</ele><time>2026-03-28T09:57:40Z</time></trkpt><trkpt lat="45.36600775322025" lon="11.695571742917917"><ele>11.0</ele><time>2026-03-28T09:57:41Z</time></trkpt><trkpt lat="45.36602344745339" lon="11.6952921143212"><ele>11.0</ele><time>2026-03-28T09:57:42Z</time></trkpt><trkpt lat="45.36603847218007" lon="11.695022881612239"><ele>11.0</ele><time>2026-03-28T09:57:43Z</time></trkpt><trkpt lat="45.36605260339218" lon="11.694746325526305"><ele>11.666666666666666</ele><time>2026-03-28T09:57:44Z</time></trkpt><trkpt lat="45.36607177602481" lon="11.694477012584791"><ele>12.333333333333332</ele><time>2026-03-28T09:57:45Z</time></trkpt><trkpt lat="45.36609292432822" lon="11.694205818145672"><ele>13.0</ele><time>2026-03-28T09:57:46Z</time></trkpt><trkpt lat="45.36611603138933" lon="11.693942190250972"><ele>13.0</ele><time>2026-03-28T09:57:47Z</time></trkpt><trkpt lat="45.36614776092413" lon="11.693685073602111"><ele>13.0</ele><time>2026-03-28T09:57:48Z</time></trkpt><trkpt lat="45.36618787328497" lon="11.693438513967212"><ele>13.0</ele><time>2026-03-28T09:57:49Z</time></trkpt><trkpt lat="45.366234501106675" lon="11.693187775503505"><ele>13.0</ele><time>2026-03-28T09:57:50Z</time></trkpt><trkpt lat="45.366282500318064" lon="11.692941423687405"><ele>13.0</ele><time>2026-03-28T09:57:51Z</time></trkpt><trkpt lat="45.36633372050263" lon="11.692699907765983"><ele>13.0</ele><time>2026-03-28T09:57:52Z</time></trkpt><trkpt lat="45.3663845631759" lon="11.692460198889275"><ele>12.666666666666666</ele><time>2026-03-28T09:57:53Z</time></trkpt><trkpt lat="45.36643400300227" lon="11.692227101681762"><ele>12.333333333333332</ele><time>2026-03-28T09:57:54Z</time></trkpt><trkpt lat="45.36648320276648" lon="11.691995136231869"><ele>12.0</ele><time>2026-03-28T09:57:55Z</time></trkpt><trkpt lat="45.36653029432244" lon="11.691771270416854"><ele>12.0</ele><time>2026-03-28T09:57:56Z</time></trkpt><trkpt lat="45.3665630750487" lon="11.69157026705664"><ele>12.0</ele><time>2026-03-28T09:57:57Z</time></trkpt><trkpt lat="45.36658526124818" lon="11.691383197658121"><ele>12.0</ele><time>2026-03-28T09:57:58Z</time></trkpt><trkpt lat="45.36659233039226" lon="11.691204660964258"><ele>12.0</ele><time>2026-03-28T09:57:59Z</time></trkpt><trkpt lat="45.36658969283632" lon="11.691035081507202"><ele>13.0</ele><time>2026-03-28T09:58:00Z</time></trkpt><trkpt lat="45.36655836025987" lon="11.690860985760617"><ele>14.0</ele><time>2026-03-28T09:58:01Z</time></trkpt><trkpt lat="45.36654904472915" lon="11.690679100852838"><ele>15.0</ele><time>2026-03-28T09:58:02Z</time></trkpt><trkpt lat="45.36652979954507" lon="11.690509021319167"><ele>16.0</ele><time>2026-03-28T09:58:03Z</time></trkpt><trkpt lat="45.36652658030493" lon="11.690323051204206"><ele>18.333333333333332</ele><time>2026-03-28T09:58:04Z</time></trkpt><trkpt lat="45.366538002976256" lon="11.690113971057317"><ele>20.666666666666668</ele><time>2026-03-28T09:58:05Z</time></trkpt><trkpt lat="45.36655778204638" lon="11.689895016559694"><ele>23.0</ele><time>2026-03-28T09:58:06Z</time></trkpt><trkpt lat="45.366587434527894" lon="11.689685013304173"><ele>23.0</ele><time>2026-03-28T09:58:07Z</time></trkpt><trkpt lat="45.36662108978268" lon="11.689509665844701"><ele>23.0</ele><time>2026-03-28T09:58:08Z</time></trkpt><trkpt lat="45.36665697097814" lon="11.689361758580533"><ele>23.0</ele><time>2026-03-28T09:58:09Z</time></trkpt><trkpt lat="45.366688077325456" lon="11.689224498625977"><ele>23.0</ele><time>2026-03-28T09:58:10Z</time></trkpt><trkpt lat="45.366763256181954" lon="11.689110241763043"><ele>23.0</ele><time>2026-03-28T09:58:11Z</time></trkpt><trkpt lat="45.366865407151955" lon="11.689011243220326"><ele>25.4</ele><time>2026-03-28T09:58:12Z</time></trkpt><trkpt lat="45.366960906914436" lon="11.688922747138227"><ele>27.799999999999997</ele><time>2026-03-28T09:58:13Z</time></trkpt><trkpt lat="45.36702918799418" lon="11.688831577116064"><ele>30.2</ele><time>2026-03-28T09:58:14Z</time></trkpt><trkpt lat="45.36706421602314" lon="11.688726982106534"><ele>32.6</ele><time>2026-03-28T09:58:15Z</time></trkpt><trkpt lat="45.367059735311116" lon="11.688627285901696"><ele>35.0</ele><time>2026-03-28T09:58:16Z</time></trkpt><trkpt lat="45.36693936617539" lon="11.688547467985785"><ele>35.0</ele><time>2026-03-28T09:58:18Z</time></trkpt><trkpt lat="45.3668649958938" lon="11.688658407974945"><ele>35.0</ele><time>2026-03-28T09:58:19Z</time></trkpt><trkpt lat="45.3668221402018" lon="11.688760424402268"><ele>35.0</ele><time>2026-03-28T09:58:20Z</time></trkpt><trkpt lat="45.3667418540261" lon="11.688818746653965"><ele>35.0</ele><time>2026-03-28T09:58:22Z</time></trkpt><trkpt lat="45.36674245039812" lon="11.688718016747774"><ele>35.0</ele><time>2026-03-28T09:58:23Z</time></trkpt><trkpt lat="45.366826079664534" lon="11.688586142484104"><ele>38.2</ele><time>2026-03-28T09:58:25Z</time></trkpt><trkpt lat="45.36687413022938" lon="11.688489308520904"><ele>41.4</ele><time>2026-03-28T09:58:25.999Z</time></trkpt><trkpt lat="45.36687989774928" lon="11.688349665780624"><ele>44.599999999999994</ele><time>2026-03-28T09:58:27.999Z</time></trkpt><trkpt lat="45.36676402785631" lon="11.688292478074414"><ele>47.8</ele><time>2026-03-28T09:58:29.999Z</time></trkpt><trkpt lat="45.366709343681144" lon="11.688396789851264"><ele>51.0</ele><time>2026-03-28T09:58:30.999Z</time></trkpt><trkpt lat="45.366667292644394" lon="11.688512129178354"><ele>49.0</ele><time>2026-03-28T09:58:31.999Z</time></trkpt><trkpt lat="45.36660813111941" lon="11.688645617897352"><ele>47.0</ele><time>2026-03-28T09:58:32.999Z</time></trkpt><trkpt lat="45.36650013644899" lon="11.68872813775787"><ele>45.0</ele><time>2026-03-28T09:58:33.999Z</time></trkpt><trkpt lat="45.36638363191175" lon="11.688836272596523"><ele>43.0</ele><time>2026-03-28T09:58:34.999Z</time></trkpt><trkpt lat="45.36627547264628" lon="11.688924223341752"><ele>43.0</ele><time>2026-03-28T09:58:35.999Z</time></trkpt><trkpt lat="45.36617650733085" lon="11.688988671310808"><ele>43.0</ele><time>2026-03-28T09:58:36.999Z</time></trkpt><trkpt lat="45.36609187410377" lon="11.688999978208757"><ele>43.0</ele><time>2026-03-28T09:58:37.999Z</time></trkpt><trkpt lat="45.36600928090173" lon="11.688982038198773"><ele>43.0</ele><time>2026-03-28T09:58:38.999Z</time></trkpt><trkpt lat="45.36593409037835" lon="11.688912052716658"><ele>43.0</ele><time>2026-03-28T09:58:39.999Z</time></trkpt><trkpt lat="45.36587458032505" lon="11.688801810075814"><ele>43.0</ele><time>2026-03-28T09:58:40.999Z</time></trkpt><trkpt lat="45.365837329758804" lon="11.688665629093427"><ele>43.0</ele><time>2026-03-28T09:58:41.999Z</time></trkpt><trkpt lat="45.3657865061246" lon="11.688519554399992"><ele>43.0</ele><time>2026-03-28T09:58:42.999Z</time></trkpt><trkpt lat="45.36573063531137" lon="11.68835897315572"><ele>43.0</ele><time>2026-03-28T09:58:43.999Z</time></trkpt><trkpt lat="45.365664355826446" lon="11.688174625484958"><ele>44.66666666666667</ele><time>2026-03-28T09:58:44.999Z</time></trkpt><trkpt lat="45.365590035217956" lon="11.68797962929903"><ele>46.333333333333336</ele><time>2026-03-28T09:58:45.999Z</time></trkpt><trkpt lat="45.36549509952784" lon="11.6878033132832"><ele>48.0</ele><time>2026-03-28T09:58:46.999Z</time></trkpt><trkpt lat="45.36539087369072" lon="11.687639329555681"><ele>52.0</ele><time>2026-03-28T09:58:47.999Z</time></trkpt><trkpt lat="45.36526058160556" lon="11.687508913251595"><ele>56.0</ele><time>2026-03-28T09:58:48.999Z</time></trkpt><trkpt lat="45.365146685255915" lon="11.687345043527028"><ele>60.0</ele><time>2026-03-28T09:58:49.999Z</time></trkpt><trkpt lat="45.365035480724714" lon="11.687232495362029"><ele>60.0</ele><time>2026-03-28T09:58:50.999Z</time></trkpt><trkpt lat="45.36493890287802" lon="11.687138060033043"><ele>60.0</ele><time>2026-03-28T09:58:51.999Z</time></trkpt><trkpt lat="45.36483783190278" lon="11.687098807825036"><ele>60.0</ele><time>2026-03-28T09:58:52.999Z</time></trkpt><trkpt lat="45.36474584780027" lon="11.687084161331013"><ele>60.0</ele><time>2026-03-28T09:58:53.999Z</time></trkpt><trkpt lat="45.36465821642531" lon="11.687083531082985"><ele>60.0</ele><time>2026-03-28T09:58:54.999Z</time></trkpt><trkpt lat="45.36454201930258" lon="11.687061530711695"><ele>60.25</ele><time>2026-03-28T09:58:55.999Z</time></trkpt><trkpt lat="45.3644094574028" lon="11.687055625454553"><ele>60.5</ele><time>2026-03-28T09:58:56.999Z</time></trkpt><trkpt lat="45.364258534193034" lon="11.687068409617845"><ele>60.75</ele><time>2026-03-28T09:58:57.999Z</time></trkpt><trkpt lat="45.364095033344576" lon="11.687040120517231"><ele>61.0</ele><time>2026-03-28T09:58:58.999Z</time></trkpt><trkpt lat="45.36396298576654" lon="11.687031516796665"><ele>61.25</ele><time>2026-03-28T09:58:59.999Z</time></trkpt><trkpt lat="45.363855267020924" lon="11.687019022187368"><ele>61.5</ele><time>2026-03-28T09:59:00.999Z</time></trkpt><trkpt lat="45.36374209140761" lon="11.686979263143979"><ele>61.75</ele><time>2026-03-28T09:59:01.999Z</time></trkpt><trkpt lat="45.36364388688005" lon="11.686882278963441"><ele>62.0</ele><time>2026-03-28T09:59:02.999Z</time></trkpt><trkpt lat="45.3635607078211" lon="11.686744183769616"><ele>64.4</ele><time>2026-03-28T09:59:03.999Z</time></trkpt><trkpt lat="45.36348176913619" lon="11.686607291269661"><ele>66.80000000000001</ele><time>2026-03-28T09:59:04.999Z</time></trkpt><trkpt lat="45.363421186128626" lon="11.686491176153899"><ele>69.2</ele><time>2026-03-28T09:59:06Z</time></trkpt><trkpt lat="45.363374622742874" lon="11.68638819263083"><ele>71.60000000000001</ele><time>2026-03-28T09:59:07Z</time></trkpt><trkpt lat="45.363365892812794" lon="11.68628002906959"><ele>74.0</ele><time>2026-03-28T09:59:08Z</time></trkpt><trkpt lat="45.3633792213945" lon="11.68617564159869"><ele>75.2</ele><time>2026-03-28T09:59:09Z</time></trkpt><trkpt lat="45.36342339056827" lon="11.686074182195426"><ele>76.4</ele><time>2026-03-28T09:59:10Z</time></trkpt><trkpt lat="45.36351755690436" lon="11.686037913000588"><ele>77.6</ele><time>2026-03-28T09:59:11Z</time></trkpt><trkpt lat="45.36362718189397" lon="11.6860655449838"><ele>78.8</ele><time>2026-03-28T09:59:12Z</time></trkpt><trkpt lat="45.36375565028322" lon="11.686049219478452"><ele>80.0</ele><time>2026-03-28T09:59:13Z</time></trkpt><trkpt lat="45.36390025433996" lon="11.686047606705086"><ele>82.66666666666667</ele><time>2026-03-28T09:59:14Z</time></trkpt><trkpt lat="45.364067764464004" lon="11.68604113038348"><ele>85.33333333333333</ele><time>2026-03-28T09:59:15Z</time></trkpt><trkpt lat="45.36425658585729" lon="11.686010000991809"><ele>88.0</ele><time>2026-03-28T09:59:16Z</time></trkpt><trkpt lat="45.36443413962141" lon="11.685957903454279"><ele>88.0</ele><time>2026-03-28T09:59:17Z</time></trkpt><trkpt lat="45.364603815678755" lon="11.685914709181883"><ele>88.0</ele><time>2026-03-28T09:59:18Z</time></trkpt><trkpt lat="45.36474626921208" lon="11.685892719438728"><ele>88.0</ele><time>2026-03-28T09:59:19Z</time></trkpt><trkpt lat="45.36486723982795" lon="11.685877470753427"><ele>88.0</ele><time>2026-03-28T09:59:20Z</time></trkpt><trkpt lat="45.364974024187354" lon="11.68584794072026"><ele>89.2</ele><time>2026-03-28T09:59:21Z</time></trkpt><trkpt lat="45.36505994285525" lon="11.685811820046583"><ele>90.4</ele><time>2026-03-28T09:59:22Z</time></trkpt><trkpt lat="45.36514137469656" lon="11.685768356269353"><ele>91.60000000000001</ele><time>2026-03-28T09:59:23Z</time></trkpt><trkpt lat="45.3652208229954" lon="11.685684312841031"><ele>92.80000000000001</ele><time>2026-03-28T09:59:24Z</time></trkpt><trkpt lat="45.365292464593765" lon="11.685555696845926"><ele>94.0</ele><time>2026-03-28T09:59:25Z</time></trkpt><trkpt lat="45.36535737741899" lon="11.685400012438198"><ele>95.66666666666666</ele><time>2026-03-28T09:59:26Z</time></trkpt><trkpt lat="45.36543756361856" lon="11.685238745580149"><ele>97.33333333333333</ele><time>2026-03-28T09:59:27Z</time></trkpt><trkpt lat="45.36553085784883" lon="11.685069401415456"><ele>99.0</ele><time>2026-03-28T09:59:28Z</time></trkpt><trkpt lat="45.36562710562054" lon="11.68488817542172"><ele>99.0</ele><time>2026-03-28T09:59:29Z</time></trkpt><trkpt lat="45.36572601969838" lon="11.684699051758157"><ele>99.0</ele><time>2026-03-28T09:59:30Z</time></trkpt><trkpt lat="45.36580922899835" lon="11.684547953007787"><ele>99.0</ele><time>2026-03-28T09:59:31Z</time></trkpt><trkpt lat="45.36586639807085" lon="11.684442286734358"><ele>99.0</ele><time>2026-03-28T09:59:32Z</time></trkpt><trkpt lat="45.36589992699616" lon="11.684344179006308"><ele>100.4</ele><time>2026-03-28T09:59:33Z</time></trkpt><trkpt lat="45.36589028660811" lon="11.684235622494416"><ele>101.80000000000001</ele><time>2026-03-28T09:59:34Z</time></trkpt><trkpt lat="45.36583411442535" lon="11.684127930966397"><ele>103.19999999999999</ele><time>2026-03-28T09:59:35Z</time></trkpt><trkpt lat="45.36576210420343" lon="11.684043427173311"><ele>104.6</ele><time>2026-03-28T09:59:36Z</time></trkpt><trkpt lat="45.36565013540565" lon="11.684107139686"><ele>106.0</ele><time>2026-03-28T09:59:37Z</time></trkpt><trkpt lat="45.36555545443658" lon="11.684203409606459"><ele>105.75</ele><time>2026-03-28T09:59:38Z</time></trkpt><trkpt lat="45.36546436058358" lon="11.684345389289303"><ele>105.5</ele><time>2026-03-28T09:59:39Z</time></trkpt><trkpt lat="45.36534029879973" lon="11.684444023222714"><ele>105.25</ele><time>2026-03-28T09:59:40Z</time></trkpt><trkpt lat="45.365243881941005" lon="11.684533559638927"><ele>105.0</ele><time>2026-03-28T09:59:41Z</time></trkpt><trkpt lat="45.365167199276904" lon="11.684577581155326"><ele>105.0</ele><time>2026-03-28T09:59:42Z</time></trkpt><trkpt lat="45.36509447828323" lon="11.68457850681015"><ele>105.0</ele><time>2026-03-28T09:59:43Z</time></trkpt><trkpt lat="45.365051301565124" lon="11.684462786319935"><ele>105.0</ele><time>2026-03-28T09:59:44Z</time></trkpt><trkpt lat="45.365022850460164" lon="11.684354284812706"><ele>105.0</ele><time>2026-03-28T09:59:45Z</time></trkpt><trkpt lat="45.36507436531357" lon="11.684237674424695"><ele>105.0</ele><time>2026-03-28T09:59:46Z</time></trkpt><trkpt lat="45.365186713933106" lon="11.684146222564896"><ele>107.0</ele><time>2026-03-28T09:59:47Z</time></trkpt><trkpt lat="45.36530110103186" lon="11.684001849740483"><ele>109.0</ele><time>2026-03-28T09:59:48Z</time></trkpt><trkpt lat="45.3654222068485" lon="11.683848775031677"><ele>111.0</ele><time>2026-03-28T09:59:49Z</time></trkpt><trkpt lat="45.36552626959199" lon="11.683684781980945"><ele>111.75</ele><time>2026-03-28T09:59:50Z</time></trkpt><trkpt lat="45.36563897978935" lon="11.683544650468846"><ele>112.5</ele><time>2026-03-28T09:59:51Z</time></trkpt><trkpt lat="45.365738685091024" lon="11.683441498512911"><ele>113.25</ele><time>2026-03-28T09:59:52Z</time></trkpt><trkpt lat="45.36582044827999" lon="11.683335715850685"><ele>114.0</ele><time>2026-03-28T09:59:53Z</time></trkpt><trkpt lat="45.36588546519334" lon="11.683222835399022"><ele>114.0</ele><time>2026-03-28T09:59:54Z</time></trkpt><trkpt lat="45.365954025286676" lon="11.683141045869561"><ele>114.0</ele><time>2026-03-28T09:59:55Z</time></trkpt><trkpt lat="45.36602605079207" lon="11.683042186499272"><ele>114.0</ele><time>2026-03-28T09:59:56Z</time></trkpt><trkpt lat="45.366096555867834" lon="11.682928308668481"><ele>114.0</ele><time>2026-03-28T09:59:57Z</time></trkpt><trkpt lat="45.36617007182847" lon="11.682807748048686"><ele>114.0</ele><time>2026-03-28T09:59:58Z</time></trkpt><trkpt lat="45.36624255883171" lon="11.682692020462822"><ele>114.6</ele><time>2026-03-28T09:59:59Z</time></trkpt><trkpt lat="45.36632446018829" lon="11.68258245493904"><ele>115.2</ele><time>2026-03-28T10:00:00Z</time></trkpt><trkpt lat="45.36641246127687" lon="11.682475817277034"><ele>115.79999999999998</ele><time>2026-03-28T10:00:01Z</time></trkpt><trkpt lat="45.36649714736797" lon="11.682391398522922"><ele>116.39999999999999</ele><time>2026-03-28T10:00:02Z</time></trkpt><trkpt lat="45.36658436459328" lon="11.682323074598388"><ele>117.0</ele><time>2026-03-28T10:00:03Z</time></trkpt><trkpt lat="45.36667637816186" lon="11.682264420966437"><ele>117.0</ele><time>2026-03-28T10:00:04Z</time></trkpt><trkpt lat="45.366769890543154" lon="11.682201486952604"><ele>117.0</ele><time>2026-03-28T10:00:05Z</time></trkpt><trkpt lat="45.36686735268309" lon="11.682135090817846"><ele>117.0</ele><time>2026-03-28T10:00:06Z</time></trkpt><trkpt lat="45.36698393669087" lon="11.682069918364204"><ele>117.0</ele><time>2026-03-28T10:00:07Z</time></trkpt><trkpt lat="45.36711337452002" lon="11.682008310391996"><ele>117.0</ele><time>2026-03-28T10:00:08Z</time></trkpt><trkpt lat="45.3672314969576" lon="11.681939076214327"><ele>117.0</ele><time>2026-03-28T10:00:09Z</time></trkpt><trkpt lat="45.367335114086295" lon="11.68183969906711"><ele>117.0</ele><time>2026-03-28T10:00:10Z</time></trkpt><trkpt lat="45.36743490908566" lon="11.68171113500882"><ele>117.0</ele><time>2026-03-28T10:00:11Z</time></trkpt><trkpt lat="45.36754937992912" lon="11.681568084453046"><ele>119.0</ele><time>2026-03-28T10:00:12Z</time></trkpt><trkpt lat="45.367642303542105" lon="11.681412949378746"><ele>121.0</ele><time>2026-03-28T10:00:13Z</time></trkpt><trkpt lat="45.36773689559502" lon="11.681253463463339"><ele>123.0</ele><time>2026-03-28T10:00:14Z</time></trkpt><trkpt lat="45.36783282321915" lon="11.681096670808142"><ele>125.0</ele><time>2026-03-28T10:00:15Z</time></trkpt><trkpt lat="45.36793963000852" lon="11.680962501805574"><ele>128.0</ele><time>2026-03-28T10:00:16Z</time></trkpt><trkpt lat="45.368056098533586" lon="11.680844992154375"><ele>131.0</ele><time>2026-03-28T10:00:17Z</time></trkpt><trkpt lat="45.36817900824289" lon="11.680727218961296"><ele>134.0</ele><time>2026-03-28T10:00:18Z</time></trkpt><trkpt lat="45.368284966981435" lon="11.680605679215825"><ele>137.0</ele><time>2026-03-28T10:00:19Z</time></trkpt><trkpt lat="45.36837603875767" lon="11.680522785467415"><ele>137.0</ele><time>2026-03-28T10:00:20Z</time></trkpt><trkpt lat="45.36845393025463" lon="11.680447738704357"><ele>137.0</ele><time>2026-03-28T10:00:21Z</time></trkpt><trkpt lat="45.36852428254971" lon="11.680378657960283"><ele>137.0</ele><time>2026-03-28T10:00:22Z</time></trkpt><trkpt lat="45.36859270621664" lon="11.680315506467329"><ele>137.0</ele><time>2026-03-28T10:00:23Z</time></trkpt><trkpt lat="45.368647490877706" lon="11.680255729588922"><ele>137.0</ele><time>2026-03-28T10:00:24Z</time></trkpt><trkpt lat="45.3687039566134" lon="11.680161276984911"><ele>137.0</ele><time>2026-03-28T10:00:25Z</time></trkpt><trkpt lat="45.368754381820146" lon="11.680006202270937"><ele>140.0</ele><time>2026-03-28T10:00:26Z</time></trkpt><trkpt lat="45.368780817796214" lon="11.679796741504791"><ele>143.0</ele><time>2026-03-28T10:00:27Z</time></trkpt><trkpt lat="45.36878949968033" lon="11.67955397322525"><ele>146.0</ele><time>2026-03-28T10:00:27.999Z</time></trkpt><trkpt lat="45.368797447936785" lon="11.679303618748385"><ele>148.0</ele><time>2026-03-28T10:00:28.999Z</time></trkpt><trkpt lat="45.36881545815934" lon="11.679021027226321"><ele>150.0</ele><time>2026-03-28T10:00:29.999Z</time></trkpt><trkpt lat="45.368861272282864" lon="11.678733934558656"><ele>152.0</ele><time>2026-03-28T10:00:30.999Z</time></trkpt><trkpt lat="45.36888806373002" lon="11.678433252499145"><ele>147.33333333333331</ele><time>2026-03-28T10:00:31.999Z</time></trkpt><trkpt lat="45.36893685657236" lon="11.678187051027058"><ele>142.66666666666666</ele><time>2026-03-28T10:00:32.999Z</time></trkpt><trkpt lat="45.36899733348316" lon="11.677976031066539"><ele>138.0</ele><time>2026-03-28T10:00:33.999Z</time></trkpt><trkpt lat="45.36905500963325" lon="11.677779331700359"><ele>140.0</ele><time>2026-03-28T10:00:34.999Z</time></trkpt><trkpt lat="45.36911819646805" lon="11.677565673559759"><ele>142.0</ele><time>2026-03-28T10:00:35.999Z</time></trkpt><trkpt lat="45.36918200632677" lon="11.67735112533358"><ele>144.0</ele><time>2026-03-28T10:00:36.999Z</time></trkpt><trkpt lat="45.36925005851556" lon="11.67712931345934"><ele>147.66666666666666</ele><time>2026-03-28T10:00:37.999Z</time></trkpt><trkpt lat="45.36930500047892" lon="11.676876647007344"><ele>151.33333333333331</ele><time>2026-03-28T10:00:38.999Z</time></trkpt><trkpt lat="45.36935603019896" lon="11.67662156664801"><ele>155.0</ele><time>2026-03-28T10:00:39.999Z</time></trkpt><trkpt lat="45.36938539903316" lon="11.676345044180044"><ele>155.0</ele><time>2026-03-28T10:00:40.999Z</time></trkpt><trkpt lat="45.36943025349437" lon="11.676041689578625"><ele>155.0</ele><time>2026-03-28T10:00:41.999Z</time></trkpt><trkpt lat="45.36946883575332" lon="11.675717832424763"><ele>155.0</ele><time>2026-03-28T10:00:42.999Z</time></trkpt><trkpt lat="45.36950762046329" lon="11.675372540983593"><ele>154.0</ele><time>2026-03-28T10:00:43.999Z</time></trkpt><trkpt lat="45.369549246394136" lon="11.674996369562598"><ele>153.0</ele><time>2026-03-28T10:00:44.999Z</time></trkpt><trkpt lat="45.369593789417635" lon="11.674593836549045"><ele>152.5</ele><time>2026-03-28T10:00:45.999Z</time></trkpt><trkpt lat="45.369637383626554" lon="11.67418341008097"><ele>152.0</ele><time>2026-03-28T10:00:46.999Z</time></trkpt><trkpt lat="45.36968244563764" lon="11.673775184051067"><ele>143.5</ele><time>2026-03-28T10:00:47.999Z</time></trkpt><trkpt lat="45.36972198426021" lon="11.673421201447727"><ele>135.0</ele><time>2026-03-28T10:00:48.999Z</time></trkpt><trkpt lat="45.369756568686654" lon="11.673111572981126"><ele>135.0</ele><time>2026-03-28T10:00:49.999Z</time></trkpt><trkpt lat="45.36978710248826" lon="11.672821877541763"><ele>135.0</ele><time>2026-03-28T10:00:50.999Z</time></trkpt><trkpt lat="45.369817350470576" lon="11.67257307574769"><ele>135.0</ele><time>2026-03-28T10:00:51.999Z</time></trkpt><trkpt lat="45.36987838077063" lon="11.67236564667001"><ele>136.66666666666666</ele><time>2026-03-28T10:00:52.999Z</time></trkpt><trkpt lat="45.36996207156551" lon="11.672169683870667"><ele>138.33333333333331</ele><time>2026-03-28T10:00:53.999Z</time></trkpt><trkpt lat="45.3700395063046" lon="11.671957539003785"><ele>140.0</ele><time>2026-03-28T10:00:54.999Z</time></trkpt><trkpt lat="45.370130012840676" lon="11.671799061789292"><ele>141.5</ele><time>2026-03-28T10:00:55.999Z</time></trkpt><trkpt lat="45.37019479005952" lon="11.67161886148504"><ele>143.0</ele><time>2026-03-28T10:00:56.999Z</time></trkpt><trkpt lat="45.370235645497715" lon="11.671402240838859"><ele>144.5</ele><time>2026-03-28T10:00:57.999Z</time></trkpt><trkpt lat="45.37025550703945" lon="11.671193757267368"><ele>146.0</ele><time>2026-03-28T10:00:58.999Z</time></trkpt><trkpt lat="45.37025257930538" lon="11.670989252630738"><ele>146.0</ele><time>2026-03-28T10:00:59.999Z</time></trkpt><trkpt lat="45.370228245101806" lon="11.670798684366437"><ele>146.0</ele><time>2026-03-28T10:01:00.999Z</time></trkpt><trkpt lat="45.37019674584089" lon="11.670590492167172"><ele>146.0</ele><time>2026-03-28T10:01:01.999Z</time></trkpt><trkpt lat="45.37011379368565" lon="11.670397510443832"><ele>146.0</ele><time>2026-03-28T10:01:02.999Z</time></trkpt><trkpt lat="45.37004277887327" lon="11.670163029930682"><ele>146.0</ele><time>2026-03-28T10:01:03.999Z</time></trkpt><trkpt lat="45.369952032208055" lon="11.669916410564376"><ele>146.0</ele><time>2026-03-28T10:01:04.999Z</time></trkpt><trkpt lat="45.36985620805417" lon="11.669655632897342"><ele>146.0</ele><time>2026-03-28T10:01:05.999Z</time></trkpt><trkpt lat="45.36975810926838" lon="11.669386644557946"><ele>147.0</ele><time>2026-03-28T10:01:06.999Z</time></trkpt><trkpt lat="45.369658620926124" lon="11.669113931073085"><ele>148.0</ele><time>2026-03-28T10:01:07.999Z</time></trkpt><trkpt lat="45.3695412796196" lon="11.668842921736045"><ele>149.0</ele><time>2026-03-28T10:01:08.999Z</time></trkpt><trkpt lat="45.36946443021111" lon="11.668587058210425"><ele>149.0</ele><time>2026-03-28T10:01:09.999Z</time></trkpt><trkpt lat="45.36938800106452" lon="11.66838271352907"><ele>149.0</ele><time>2026-03-28T10:01:10.999Z</time></trkpt><trkpt lat="45.36931870912786" lon="11.668209033797911"><ele>149.0</ele><time>2026-03-28T10:01:12Z</time></trkpt><trkpt lat="45.36924861398531" lon="11.668081561836775"><ele>149.0</ele><time>2026-03-28T10:01:13Z</time></trkpt><trkpt lat="45.36917348257598" lon="11.66796797533285"><ele>149.0</ele><time>2026-03-28T10:01:14Z</time></trkpt><trkpt lat="45.369062620464085" lon="11.667891621239038"><ele>149.0</ele><time>2026-03-28T10:01:15Z</time></trkpt><trkpt lat="45.36893720050525" lon="11.667852134276746"><ele>149.0</ele><time>2026-03-28T10:01:16Z</time></trkpt><trkpt lat="45.36882130934937" lon="11.667846130265344"><ele>149.0</ele><time>2026-03-28T10:01:17Z</time></trkpt><trkpt lat="45.36870635167499" lon="11.667881546864036"><ele>150.25</ele><time>2026-03-28T10:01:18Z</time></trkpt><trkpt lat="45.368597577741376" lon="11.667951512432593"><ele>151.5</ele><time>2026-03-28T10:01:19Z</time></trkpt><trkpt lat="45.368490568887296" lon="11.66804279315789"><ele>152.75</ele><time>2026-03-28T10:01:20Z</time></trkpt><trkpt lat="45.36836969224454" lon="11.668092882831708"><ele>154.0</ele><time>2026-03-28T10:01:21Z</time></trkpt><trkpt lat="45.368243192017424" lon="11.668136472847703"><ele>154.0</ele><time>2026-03-28T10:01:22Z</time></trkpt><trkpt lat="45.36812299856868" lon="11.668038718462306"><ele>154.0</ele><time>2026-03-28T10:01:23Z</time></trkpt><trkpt lat="45.36800407171207" lon="11.66793918594043"><ele>154.0</ele><time>2026-03-28T10:01:24Z</time></trkpt><trkpt lat="45.367912596102286" lon="11.667779487462564"><ele>154.0</ele><time>2026-03-28T10:01:25Z</time></trkpt><trkpt lat="45.36780905542224" lon="11.667592268036028"><ele>154.66666666666669</ele><time>2026-03-28T10:01:26Z</time></trkpt><trkpt lat="45.36769406389271" lon="11.667391594608171"><ele>155.33333333333334</ele><time>2026-03-28T10:01:27Z</time></trkpt><trkpt lat="45.36757380985744" lon="11.667178743642873"><ele>156.0</ele><time>2026-03-28T10:01:28Z</time></trkpt><trkpt lat="45.36745919197788" lon="11.666977068921991"><ele>156.0</ele><time>2026-03-28T10:01:29Z</time></trkpt><trkpt lat="45.3673555735565" lon="11.66679598164352"><ele>156.0</ele><time>2026-03-28T10:01:30Z</time></trkpt><trkpt lat="45.36726154532761" lon="11.666632834172479"><ele>156.0</ele><time>2026-03-28T10:01:31Z</time></trkpt><trkpt lat="45.367168937468755" lon="11.66647693876495"><ele>156.0</ele><time>2026-03-28T10:01:32Z</time></trkpt><trkpt lat="45.36707779285948" lon="11.666315914422556"><ele>156.0</ele><time>2026-03-28T10:01:33Z</time></trkpt><trkpt lat="45.36698702393117" lon="11.666142743177225"><ele>156.0</ele><time>2026-03-28T10:01:34Z</time></trkpt><trkpt lat="45.36691520834039" lon="11.665962103835552"><ele>156.0</ele><time>2026-03-28T10:01:35Z</time></trkpt><trkpt lat="45.366857558233605" lon="11.665791807466688"><ele>154.6</ele><time>2026-03-28T10:01:36Z</time></trkpt><trkpt lat="45.36680409299659" lon="11.665634904385167"><ele>153.2</ele><time>2026-03-28T10:01:37Z</time></trkpt><trkpt lat="45.36675335377378" lon="11.665485517531115"><ele>151.8</ele><time>2026-03-28T10:01:38Z</time></trkpt><trkpt lat="45.366707405260144" lon="11.665350235487166"><ele>150.4</ele><time>2026-03-28T10:01:39Z</time></trkpt><trkpt lat="45.366669134476346" lon="11.665237558350407"><ele>149.0</ele><time>2026-03-28T10:01:40Z</time></trkpt><trkpt lat="45.36663278997568" lon="11.665130552388021"><ele>149.2</ele><time>2026-03-28T10:01:41Z</time></trkpt><trkpt lat="45.36660033888812" lon="11.665036952587513"><ele>149.4</ele><time>2026-03-28T10:01:42Z</time></trkpt><trkpt lat="45.36654749372463" lon="11.66488284355551"><ele>149.6</ele><time>2026-03-28T10:01:44Z</time></trkpt><trkpt lat="45.36650888080881" lon="11.664769504915155"><ele>149.8</ele><time>2026-03-28T10:01:45Z</time></trkpt><trkpt lat="45.36644690472844" lon="11.664587589519924"><ele>150.0</ele><time>2026-03-28T10:01:46Z</time></trkpt><trkpt lat="45.36639360432957" lon="11.664431139248503"><ele>150.66666666666666</ele><time>2026-03-28T10:01:47Z</time></trkpt><trkpt lat="45.36635162415613" lon="11.664303094879504"><ele>151.33333333333334</ele><time>2026-03-28T10:01:48Z</time></trkpt><trkpt lat="45.366315474696655" lon="11.66419374727401"><ele>152.0</ele><time>2026-03-28T10:01:49Z</time></trkpt><trkpt lat="45.366284735179974" lon="11.664100764040269"><ele>152.66666666666669</ele><time>2026-03-28T10:01:50Z</time></trkpt><trkpt lat="45.366255371972706" lon="11.664017158411774"><ele>153.33333333333334</ele><time>2026-03-28T10:01:51Z</time></trkpt><trkpt lat="45.36620292184029" lon="11.6638712777894"><ele>154.0</ele><time>2026-03-28T10:01:53Z</time></trkpt><trkpt lat="45.36614522066623" lon="11.663735425948527"><ele>154.0</ele><time>2026-03-28T10:01:55Z</time></trkpt><trkpt lat="45.36610518313924" lon="11.66365846368691"><ele>154.0</ele><time>2026-03-28T10:01:56Z</time></trkpt><trkpt lat="45.36605228439076" lon="11.66356986515137"><ele>154.0</ele><time>2026-03-28T10:01:57Z</time></trkpt><trkpt lat="45.36600228402666" lon="11.663476582222861"><ele>154.0</ele><time>2026-03-28T10:01:58Z</time></trkpt><trkpt lat="45.36595180372169" lon="11.663378174284357"><ele>154.0</ele><time>2026-03-28T10:01:59Z</time></trkpt><trkpt lat="45.365896460555206" lon="11.663263022446728"><ele>154.0</ele><time>2026-03-28T10:02:00Z</time></trkpt><trkpt lat="45.36583669708814" lon="11.663124084401938"><ele>153.4</ele><time>2026-03-28T10:02:01Z</time></trkpt><trkpt lat="45.365773138960094" lon="11.662978914542094"><ele>152.8</ele><time>2026-03-28T10:02:02Z</time></trkpt><trkpt lat="45.3657072018521" lon="11.66285348674445"><ele>152.2</ele><time>2026-03-28T10:02:03Z</time></trkpt><trkpt lat="45.3656405893867" lon="11.66274908507713"><ele>151.6</ele><time>2026-03-28T10:02:04Z</time></trkpt><trkpt lat="45.365577075826096" lon="11.662653886424641"><ele>151.0</ele><time>2026-03-28T10:02:05Z</time></trkpt><trkpt lat="45.365516422299905" lon="11.662570253784148"><ele>151.0</ele><time>2026-03-28T10:02:06Z</time></trkpt><trkpt lat="45.36546509635476" lon="11.662497410028093"><ele>151.0</ele><time>2026-03-28T10:02:07Z</time></trkpt><trkpt lat="45.365423493002446" lon="11.662421800847044"><ele>151.0</ele><time>2026-03-28T10:02:08Z</time></trkpt><trkpt lat="45.36539510731211" lon="11.66234143602206"><ele>151.0</ele><time>2026-03-28T10:02:09Z</time></trkpt><trkpt lat="45.36544826041187" lon="11.662178886346798"><ele>151.0</ele><time>2026-03-28T10:02:11Z</time></trkpt><trkpt lat="45.36553349804539" lon="11.662136598192017"><ele>151.0</ele><time>2026-03-28T10:02:12Z</time></trkpt><trkpt lat="45.365638303835475" lon="11.662137239640442"><ele>149.0</ele><time>2026-03-28T10:02:13Z</time></trkpt><trkpt lat="45.36577370358516" lon="11.662169316993836"><ele>147.0</ele><time>2026-03-28T10:02:14Z</time></trkpt><trkpt lat="45.36592762674239" lon="11.66222298612785"><ele>145.0</ele><time>2026-03-28T10:02:15Z</time></trkpt><trkpt lat="45.366060612244326" lon="11.662286479071108"><ele>143.0</ele><time>2026-03-28T10:02:16Z</time></trkpt><trkpt lat="45.36617571051537" lon="11.662362259108841"><ele>143.0</ele><time>2026-03-28T10:02:17Z</time></trkpt><trkpt lat="45.36629711871875" lon="11.66245768390538"><ele>143.0</ele><time>2026-03-28T10:02:18Z</time></trkpt><trkpt lat="45.3664235359397" lon="11.662557827918002"><ele>143.0</ele><time>2026-03-28T10:02:19Z</time></trkpt><trkpt lat="45.366547620247275" lon="11.662650287170631"><ele>143.0</ele><time>2026-03-28T10:02:20Z</time></trkpt><trkpt lat="45.366678853647734" lon="11.662747139667053"><ele>143.33333333333331</ele><time>2026-03-28T10:02:21Z</time></trkpt><trkpt lat="45.3668110229801" lon="11.662863148124202"><ele>143.66666666666666</ele><time>2026-03-28T10:02:22Z</time></trkpt><trkpt lat="45.36694739559931" lon="11.662999230665042"><ele>144.0</ele><time>2026-03-28T10:02:23Z</time></trkpt><trkpt lat="45.36707657943973" lon="11.663124328285374"><ele>139.25</ele><time>2026-03-28T10:02:24Z</time></trkpt><trkpt lat="45.367200621627035" lon="11.663235538227514"><ele>134.5</ele><time>2026-03-28T10:02:25Z</time></trkpt><trkpt lat="45.36731498708381" lon="11.663345220516097"><ele>129.75</ele><time>2026-03-28T10:02:26Z</time></trkpt><trkpt lat="45.36741593158922" lon="11.663445454072612"><ele>125.0</ele><time>2026-03-28T10:02:27Z</time></trkpt><trkpt lat="45.36749972361419" lon="11.663521945784503"><ele>125.0</ele><time>2026-03-28T10:02:28Z</time></trkpt><trkpt lat="45.36756587388736" lon="11.663573137758037"><ele>125.0</ele><time>2026-03-28T10:02:29Z</time></trkpt><trkpt lat="45.367687815431374" lon="11.663543414630508"><ele>125.0</ele><time>2026-03-28T10:02:31Z</time></trkpt><trkpt lat="45.36772501554944" lon="11.66344775937047"><ele>125.0</ele><time>2026-03-28T10:02:31.999Z</time></trkpt><trkpt lat="45.36773767796221" lon="11.663326109822657"><ele>125.0</ele><time>2026-03-28T10:02:32.999Z</time></trkpt><trkpt lat="45.367724090531176" lon="11.663190184534933"><ele>125.0</ele><time>2026-03-28T10:02:33.999Z</time></trkpt><trkpt lat="45.367730791231175" lon="11.66307457432448"><ele>125.0</ele><time>2026-03-28T10:02:34.999Z</time></trkpt><trkpt lat="45.36774243844191" lon="11.662966784063293"><ele>125.0</ele><time>2026-03-28T10:02:35.999Z</time></trkpt><trkpt lat="45.36780402240822" lon="11.662881824694756"><ele>125.0</ele><time>2026-03-28T10:02:36.999Z</time></trkpt><trkpt lat="45.367887018463286" lon="11.662803559047733"><ele>125.0</ele><time>2026-03-28T10:02:37.999Z</time></trkpt><trkpt lat="45.367979895880865" lon="11.662728528881185"><ele>121.6</ele><time>2026-03-28T10:02:38.999Z</time></trkpt><trkpt lat="45.36808828987335" lon="11.662685028784622"><ele>118.2</ele><time>2026-03-28T10:02:39.999Z</time></trkpt><trkpt lat="45.36819238112207" lon="11.662665437258674"><ele>114.80000000000001</ele><time>2026-03-28T10:02:40.999Z</time></trkpt><trkpt lat="45.36828958746817" lon="11.662675501303495"><ele>111.4</ele><time>2026-03-28T10:02:41.999Z</time></trkpt><trkpt lat="45.36838498966671" lon="11.662721013104408"><ele>108.0</ele><time>2026-03-28T10:02:42.999Z</time></trkpt><trkpt lat="45.36848209520742" lon="11.662780888251431"><ele>109.25</ele><time>2026-03-28T10:02:43.999Z</time></trkpt><trkpt lat="45.36858234183034" lon="11.662836933264813"><ele>110.5</ele><time>2026-03-28T10:02:44.999Z</time></trkpt><trkpt lat="45.36868524680424" lon="11.66292317856783"><ele>111.75</ele><time>2026-03-28T10:02:45.999Z</time></trkpt><trkpt lat="45.36876077836848" lon="11.663057773176321"><ele>113.0</ele><time>2026-03-28T10:02:46.999Z</time></trkpt><trkpt lat="45.3688123192314" lon="11.663210474865467"><ele>110.75</ele><time>2026-03-28T10:02:47.999Z</time></trkpt><trkpt lat="45.36886988581764" lon="11.66333235661322"><ele>108.5</ele><time>2026-03-28T10:02:48.999Z</time></trkpt><trkpt lat="45.36896893280326" lon="11.663418030351728"><ele>106.25</ele><time>2026-03-28T10:02:49.999Z</time></trkpt><trkpt lat="45.36909470834442" lon="11.663473073780033"><ele>104.0</ele><time>2026-03-28T10:02:50.999Z</time></trkpt><trkpt lat="45.36922174781254" lon="11.663497197284892"><ele>104.0</ele><time>2026-03-28T10:02:51.999Z</time></trkpt><trkpt lat="45.36932159792906" lon="11.663537530445941"><ele>104.0</ele><time>2026-03-28T10:02:52.999Z</time></trkpt><trkpt lat="45.369407583624735" lon="11.663614789981132"><ele>104.0</ele><time>2026-03-28T10:02:53.999Z</time></trkpt><trkpt lat="45.36948171642743" lon="11.663702706309712"><ele>104.0</ele><time>2026-03-28T10:02:54.999Z</time></trkpt><trkpt lat="45.369542338146225" lon="11.663798813061943"><ele>104.0</ele><time>2026-03-28T10:02:55.999Z</time></trkpt><trkpt lat="45.36960663701484" lon="11.663904914660511"><ele>102.75</ele><time>2026-03-28T10:02:56.999Z</time></trkpt><trkpt lat="45.36968035265347" lon="11.664017871917212"><ele>101.5</ele><time>2026-03-28T10:02:57.999Z</time></trkpt><trkpt lat="45.369770295702274" lon="11.66413501976076"><ele>100.25</ele><time>2026-03-28T10:02:58.999Z</time></trkpt><trkpt lat="45.36988711832828" lon="11.664217241418767"><ele>99.0</ele><time>2026-03-28T10:02:59.999Z</time></trkpt><trkpt lat="45.37001043204944" lon="11.664257224459453"><ele>99.0</ele><time>2026-03-28T10:03:00.999Z</time></trkpt><trkpt lat="45.37011387827403" lon="11.66429192130414"><ele>99.0</ele><time>2026-03-28T10:03:01.999Z</time></trkpt><trkpt lat="45.37020100947991" lon="11.66434500208842"><ele>99.0</ele><time>2026-03-28T10:03:02.999Z</time></trkpt><trkpt lat="45.37027726300106" lon="11.66436981391185"><ele>99.0</ele><time>2026-03-28T10:03:03.999Z</time></trkpt><trkpt lat="45.37034226534287" lon="11.66434327916444"><ele>99.0</ele><time>2026-03-28T10:03:04.999Z</time></trkpt><trkpt lat="45.37040063982833" lon="11.664280839290168"><ele>99.0</ele><time>2026-03-28T10:03:05.999Z</time></trkpt><trkpt lat="45.37046276048513" lon="11.664177701824677"><ele>99.0</ele><time>2026-03-28T10:03:06.999Z</time></trkpt><trkpt lat="45.37051105771516" lon="11.66404359063504"><ele>99.0</ele><time>2026-03-28T10:03:07.999Z</time></trkpt><trkpt lat="45.37056430084519" lon="11.663915883034791"><ele>99.0</ele><time>2026-03-28T10:03:08.999Z</time></trkpt><trkpt lat="45.370616159732954" lon="11.66377261480068"><ele>99.0</ele><time>2026-03-28T10:03:09.999Z</time></trkpt><trkpt lat="45.37067881379782" lon="11.663624525905163"><ele>99.0</ele><time>2026-03-28T10:03:10.999Z</time></trkpt><trkpt lat="45.37075319767777" lon="11.663474068372075"><ele>95.33333333333333</ele><time>2026-03-28T10:03:11.999Z</time></trkpt><trkpt lat="45.37084996580378" lon="11.663313624132828"><ele>91.66666666666666</ele><time>2026-03-28T10:03:12.999Z</time></trkpt><trkpt lat="45.370964967849844" lon="11.663157879682256"><ele>88.0</ele><time>2026-03-28T10:03:13.999Z</time></trkpt><trkpt lat="45.3710715180822" lon="11.663022602079593"><ele>88.0</ele><time>2026-03-28T10:03:14.999Z</time></trkpt><trkpt lat="45.371187458067816" lon="11.6629270929232"><ele>88.0</ele><time>2026-03-28T10:03:15.999Z</time></trkpt><trkpt lat="45.37129388409533" lon="11.662835732548105"><ele>88.0</ele><time>2026-03-28T10:03:16.999Z</time></trkpt><trkpt lat="45.37139501891131" lon="11.662742475794518"><ele>88.0</ele><time>2026-03-28T10:03:18Z</time></trkpt><trkpt lat="45.37149510283167" lon="11.662682651759754"><ele>85.60000000000001</ele><time>2026-03-28T10:03:19Z</time></trkpt><trkpt lat="45.371584183855546" lon="11.6626565349128"><ele>83.2</ele><time>2026-03-28T10:03:20Z</time></trkpt><trkpt lat="45.371658668887605" lon="11.662630869374784"><ele>80.8</ele><time>2026-03-28T10:03:21Z</time></trkpt><trkpt lat="45.37172711999858" lon="11.662487491761684"><ele>78.4</ele><time>2026-03-28T10:03:23Z</time></trkpt><trkpt lat="45.371700952788515" lon="11.662356685321049"><ele>76.0</ele><time>2026-03-28T10:03:24Z</time></trkpt><trkpt lat="45.37160233717492" lon="11.66227592961814"><ele>76.0</ele><time>2026-03-28T10:03:25Z</time></trkpt><trkpt lat="45.37147323045026" lon="11.662386810179854"><ele>76.0</ele><time>2026-03-28T10:03:26Z</time></trkpt><trkpt lat="45.37137183433036" lon="11.66246292641638"><ele>76.0</ele><time>2026-03-28T10:03:27Z</time></trkpt><trkpt lat="45.37124827022821" lon="11.662540940335827"><ele>76.0</ele><time>2026-03-28T10:03:28Z</time></trkpt><trkpt lat="45.37114228317333" lon="11.662607856767188"><ele>76.39999999999999</ele><time>2026-03-28T10:03:29Z</time></trkpt><trkpt lat="45.37105980825526" lon="11.662654153393518"><ele>76.8</ele><time>2026-03-28T10:03:30Z</time></trkpt><trkpt lat="45.37098953293547" lon="11.662688966777658"><ele>77.19999999999999</ele><time>2026-03-28T10:03:31Z</time></trkpt><trkpt lat="45.37089616325126" lon="11.662587214899332"><ele>77.6</ele><time>2026-03-28T10:03:33Z</time></trkpt><trkpt lat="45.37090922991551" lon="11.662483254031667"><ele>78.0</ele><time>2026-03-28T10:03:34Z</time></trkpt><trkpt lat="45.37097887482543" lon="11.662361948842667"><ele>78.0</ele><time>2026-03-28T10:03:35Z</time></trkpt><trkpt lat="45.37104080537408" lon="11.662174400161842"><ele>78.0</ele><time>2026-03-28T10:03:36Z</time></trkpt><trkpt lat="45.371060489192686" lon="11.66194002652291"><ele>78.0</ele><time>2026-03-28T10:03:37Z</time></trkpt><trkpt lat="45.37107622200177" lon="11.66168221236462"><ele>77.0</ele><time>2026-03-28T10:03:38Z</time></trkpt><trkpt lat="45.37109349817161" lon="11.66138943217961"><ele>76.0</ele><time>2026-03-28T10:03:39Z</time></trkpt><trkpt lat="45.371122114629436" lon="11.66112028469639"><ele>75.0</ele><time>2026-03-28T10:03:40Z</time></trkpt><trkpt lat="45.37109902155324" lon="11.660870284011398"><ele>72.66666666666667</ele><time>2026-03-28T10:03:41Z</time></trkpt><trkpt lat="45.37107688021918" lon="11.660645883951705"><ele>70.33333333333334</ele><time>2026-03-28T10:03:42Z</time></trkpt><trkpt lat="45.37101136649138" lon="11.660431636354666"><ele>68.0</ele><time>2026-03-28T10:03:43Z</time></trkpt><trkpt lat="45.370967203126156" lon="11.660226753649916"><ele>66.0</ele><time>2026-03-28T10:03:44Z</time></trkpt><trkpt lat="45.37090481602148" lon="11.660040476089398"><ele>64.0</ele><time>2026-03-28T10:03:45Z</time></trkpt><trkpt lat="45.37084269363495" lon="11.65986513720035"><ele>62.0</ele><time>2026-03-28T10:03:46Z</time></trkpt><trkpt lat="45.37078017036796" lon="11.659688492518692"><ele>60.0</ele><time>2026-03-28T10:03:47Z</time></trkpt><trkpt lat="45.37071856124645" lon="11.659514430606004"><ele>58.75</ele><time>2026-03-28T10:03:48Z</time></trkpt><trkpt lat="45.370660221887974" lon="11.659349606591814"><ele>57.5</ele><time>2026-03-28T10:03:49Z</time></trkpt><trkpt lat="45.37060660490251" lon="11.659194943842197"><ele>56.25</ele><time>2026-03-28T10:03:50Z</time></trkpt><trkpt lat="45.37055329475102" lon="11.6590410843133"><ele>55.0</ele><time>2026-03-28T10:03:51Z</time></trkpt><trkpt lat="45.37050380985458" lon="11.658898227004313"><ele>55.8</ele><time>2026-03-28T10:03:52Z</time></trkpt><trkpt lat="45.370455740691334" lon="11.658759456753208"><ele>56.6</ele><time>2026-03-28T10:03:53Z</time></trkpt><trkpt lat="45.37040922240797" lon="11.658625163712133"><ele>57.400000000000006</ele><time>2026-03-28T10:03:54Z</time></trkpt><trkpt lat="45.37036542533428" lon="11.658498726538829"><ele>58.2</ele><time>2026-03-28T10:03:55Z</time></trkpt><trkpt lat="45.37031659968119" lon="11.658375137297497"><ele>59.0</ele><time>2026-03-28T10:03:56Z</time></trkpt><trkpt lat="45.37025902310765" lon="11.658261959855862"><ele>59.0</ele><time>2026-03-28T10:03:57Z</time></trkpt><trkpt lat="45.37019259815215" lon="11.65815776208679"><ele>59.00000000000001</ele><time>2026-03-28T10:03:58Z</time></trkpt><trkpt lat="45.37012042185143" lon="11.65805847874447"><ele>59.00000000000001</ele><time>2026-03-28T10:03:59Z</time></trkpt><trkpt lat="45.370042583857696" lon="11.657945019862334"><ele>59.0</ele><time>2026-03-28T10:04:00Z</time></trkpt><trkpt lat="45.369983772809626" lon="11.657828530944911"><ele>59.0</ele><time>2026-03-28T10:04:01Z</time></trkpt><trkpt lat="45.36993057442902" lon="11.657702049650625"><ele>57.333333333333336</ele><time>2026-03-28T10:04:02Z</time></trkpt><trkpt lat="45.36988092186862" lon="11.657583005106302"><ele>55.66666666666667</ele><time>2026-03-28T10:04:03Z</time></trkpt><trkpt lat="45.36983593635746" lon="11.657471945144637"><ele>54.0</ele><time>2026-03-28T10:04:04Z</time></trkpt><trkpt lat="45.369804233398106" lon="11.657382366960183"><ele>52.33333333333333</ele><time>2026-03-28T10:04:05Z</time></trkpt><trkpt lat="45.3697832439831" lon="11.657285129815463"><ele>50.666666666666664</ele><time>2026-03-28T10:04:06Z</time></trkpt><trkpt lat="45.36977340432028" lon="11.657195235082135"><ele>49.0</ele><time>2026-03-28T10:04:07Z</time></trkpt><trkpt lat="45.3698285917677" lon="11.657100733321144"><ele>49.0</ele><time>2026-03-28T10:04:08Z</time></trkpt><trkpt lat="45.36991841634554" lon="11.657022478154078"><ele>49.0</ele><time>2026-03-28T10:04:09Z</time></trkpt><trkpt lat="45.370049917139546" lon="11.656950765387068"><ele>49.0</ele><time>2026-03-28T10:04:10Z</time></trkpt><trkpt lat="45.37018490480006" lon="11.656897409182232"><ele>49.0</ele><time>2026-03-28T10:04:11Z</time></trkpt><trkpt lat="45.37030362352642" lon="11.656840530571577"><ele>47.666666666666664</ele><time>2026-03-28T10:04:12Z</time></trkpt><trkpt lat="45.37044310658627" lon="11.656757819011329"><ele>46.33333333333333</ele><time>2026-03-28T10:04:13Z</time></trkpt><trkpt lat="45.37060399790138" lon="11.656656876356124"><ele>45.0</ele><time>2026-03-28T10:04:14Z</time></trkpt><trkpt lat="45.37079715341801" lon="11.656557071322025"><ele>43.666666666666664</ele><time>2026-03-28T10:04:15Z</time></trkpt><trkpt lat="45.370981693239905" lon="11.656475028442348"><ele>42.33333333333333</ele><time>2026-03-28T10:04:16Z</time></trkpt><trkpt lat="45.3711614042947" lon="11.656400329152854"><ele>41.0</ele><time>2026-03-28T10:04:17Z</time></trkpt><trkpt lat="45.37133453586533" lon="11.656320659412968"><ele>41.666666666666664</ele><time>2026-03-28T10:04:18Z</time></trkpt><trkpt lat="45.37150093284426" lon="11.656246753483323"><ele>42.333333333333336</ele><time>2026-03-28T10:04:19Z</time></trkpt><trkpt lat="45.37164823849491" lon="11.65617442018695"><ele>43.0</ele><time>2026-03-28T10:04:20Z</time></trkpt><trkpt lat="45.371799730641655" lon="11.656106967975395"><ele>40.75</ele><time>2026-03-28T10:04:21Z</time></trkpt><trkpt lat="45.371936052916844" lon="11.656038340241569"><ele>38.5</ele><time>2026-03-28T10:04:22Z</time></trkpt><trkpt lat="45.372064052400404" lon="11.655972820145756"><ele>36.25</ele><time>2026-03-28T10:04:23Z</time></trkpt><trkpt lat="45.37218887179047" lon="11.655907484554715"><ele>34.0</ele><time>2026-03-28T10:04:24Z</time></trkpt><trkpt lat="45.37232190188854" lon="11.655855332711877"><ele>34.0</ele><time>2026-03-28T10:04:25Z</time></trkpt><trkpt lat="45.372458749403336" lon="11.655789162926945"><ele>34.0</ele><time>2026-03-28T10:04:26Z</time></trkpt><trkpt lat="45.37260479883251" lon="11.655707234035987"><ele>34.0</ele><time>2026-03-28T10:04:27Z</time></trkpt><trkpt lat="45.3727552189337" lon="11.65561317048888"><ele>34.0</ele><time>2026-03-28T10:04:28Z</time></trkpt><trkpt lat="45.37291059375606" lon="11.655517820056337"><ele>34.0</ele><time>2026-03-28T10:04:29Z</time></trkpt><trkpt lat="45.37306399690689" lon="11.655423168306971"><ele>34.0</ele><time>2026-03-28T10:04:30Z</time></trkpt><trkpt lat="45.37321168822882" lon="11.655351959987065"><ele>34.75</ele><time>2026-03-28T10:04:31Z</time></trkpt><trkpt lat="45.37333547549227" lon="11.655286118452494"><ele>35.5</ele><time>2026-03-28T10:04:32Z</time></trkpt><trkpt lat="45.37346141181824" lon="11.655252896633879"><ele>36.25</ele><time>2026-03-28T10:04:33Z</time></trkpt><trkpt lat="45.373586448559365" lon="11.655261605373342"><ele>37.0</ele><time>2026-03-28T10:04:33.999Z</time></trkpt><trkpt lat="45.373690827729696" lon="11.655303277877854"><ele>37.0</ele><time>2026-03-28T10:04:34.999Z</time></trkpt><trkpt lat="45.373776230833556" lon="11.655379340532201"><ele>37.0</ele><time>2026-03-28T10:04:35.999Z</time></trkpt><trkpt lat="45.37385584330881" lon="11.65548566217892"><ele>37.0</ele><time>2026-03-28T10:04:36.999Z</time></trkpt><trkpt lat="45.37391782463044" lon="11.6556090590158"><ele>37.0</ele><time>2026-03-28T10:04:37.999Z</time></trkpt><trkpt lat="45.373968308277725" lon="11.655747654256883"><ele>37.0</ele><time>2026-03-28T10:04:38.999Z</time></trkpt><trkpt lat="45.37400279490754" lon="11.655896874006476"><ele>33.800000000000004</ele><time>2026-03-28T10:04:39.999Z</time></trkpt><trkpt lat="45.37401461212515" lon="11.65604361897416"><ele>30.6</ele><time>2026-03-28T10:04:40.999Z</time></trkpt><trkpt lat="45.37400447430345" lon="11.656188060303657"><ele>27.400000000000002</ele><time>2026-03-28T10:04:41.999Z</time></trkpt><trkpt lat="45.37397950310839" lon="11.656334114068144"><ele>24.200000000000003</ele><time>2026-03-28T10:04:42.999Z</time></trkpt><trkpt lat="45.37394045206655" lon="11.656486313063557"><ele>21.0</ele><time>2026-03-28T10:04:43.999Z</time></trkpt><trkpt lat="45.373907506146146" lon="11.65665635731486"><ele>20.75</ele><time>2026-03-28T10:04:44.999Z</time></trkpt><trkpt lat="45.373892548754746" lon="11.656841975444165"><ele>20.5</ele><time>2026-03-28T10:04:45.999Z</time></trkpt><trkpt lat="45.37388940182153" lon="11.657023350394304"><ele>20.25</ele><time>2026-03-28T10:04:46.999Z</time></trkpt><trkpt lat="45.37389408162166" lon="11.657209969268722"><ele>20.0</ele><time>2026-03-28T10:04:47.999Z</time></trkpt><trkpt lat="45.37391602078267" lon="11.65740067367431"><ele>19.0</ele><time>2026-03-28T10:04:48.999Z</time></trkpt><trkpt lat="45.373974678421135" lon="11.657623885044163"><ele>18.0</ele><time>2026-03-28T10:04:49.999Z</time></trkpt><trkpt lat="45.374062204848926" lon="11.657926300378879"><ele>17.0</ele><time>2026-03-28T10:04:50.999Z</time></trkpt><trkpt lat="45.374151205934275" lon="11.658233604273464"><ele>16.666666666666668</ele><time>2026-03-28T10:04:51.999Z</time></trkpt><trkpt lat="45.374212238421954" lon="11.658505683690827"><ele>16.333333333333332</ele><time>2026-03-28T10:04:52.999Z</time></trkpt><trkpt lat="45.37425223171951" lon="11.658738983218697"><ele>16.0</ele><time>2026-03-28T10:04:53.999Z</time></trkpt><trkpt lat="45.37426620250189" lon="11.658966811607058"><ele>16.666666666666664</ele><time>2026-03-28T10:04:54.999Z</time></trkpt><trkpt lat="45.37426138977348" lon="11.65919265662682"><ele>17.333333333333332</ele><time>2026-03-28T10:04:55.999Z</time></trkpt><trkpt lat="45.37424093863397" lon="11.659417291848436"><ele>18.0</ele><time>2026-03-28T10:04:56.999Z</time></trkpt><trkpt lat="45.37422499343063" lon="11.65963969043188"><ele>18.333333333333332</ele><time>2026-03-28T10:04:57.999Z</time></trkpt><trkpt lat="45.37423306721468" lon="11.659852925909801"><ele>18.666666666666664</ele><time>2026-03-28T10:04:58.999Z</time></trkpt><trkpt lat="45.37426245789846" lon="11.660073150991526"><ele>19.0</ele><time>2026-03-28T10:04:59.999Z</time></trkpt><trkpt lat="45.3743093362364" lon="11.660286576057382"><ele>20.0</ele><time>2026-03-28T10:05:00.999Z</time></trkpt><trkpt lat="45.37437754161772" lon="11.660473907153163"><ele>21.0</ele><time>2026-03-28T10:05:01.999Z</time></trkpt><trkpt lat="45.37446505294111" lon="11.66065762205819"><ele>22.0</ele><time>2026-03-28T10:05:02.999Z</time></trkpt><trkpt lat="45.374561734426976" lon="11.66082931291883"><ele>22.0</ele><time>2026-03-28T10:05:03.999Z</time></trkpt><trkpt lat="45.37467306569462" lon="11.660969047654149"><ele>22.0</ele><time>2026-03-28T10:05:04.999Z</time></trkpt><trkpt lat="45.374788272081034" lon="11.661072880918626"><ele>22.0</ele><time>2026-03-28T10:05:05.999Z</time></trkpt><trkpt lat="45.374906270573355" lon="11.661151211985555"><ele>22.0</ele><time>2026-03-28T10:05:06.999Z</time></trkpt><trkpt lat="45.37503740505094" lon="11.661204839274284"><ele>22.0</ele><time>2026-03-28T10:05:07.999Z</time></trkpt><trkpt lat="45.37517331106306" lon="11.661237303007658"><ele>22.0</ele><time>2026-03-28T10:05:08.999Z</time></trkpt><trkpt lat="45.37529802133081" lon="11.661247513029016"><ele>22.0</ele><time>2026-03-28T10:05:09.999Z</time></trkpt><trkpt lat="45.37542175601055" lon="11.661254587746177"><ele>22.0</ele><time>2026-03-28T10:05:10.999Z</time></trkpt><trkpt lat="45.37555090814521" lon="11.66125367440018"><ele>22.0</ele><time>2026-03-28T10:05:11.999Z</time></trkpt><trkpt lat="45.37569201444374" lon="11.661243762878154"><ele>22.0</ele><time>2026-03-28T10:05:12.999Z</time></trkpt><trkpt lat="45.375842793002406" lon="11.661229697967144"><ele>22.0</ele><time>2026-03-28T10:05:13.999Z</time></trkpt><trkpt lat="45.37600187320279" lon="11.661193214114478"><ele>21.333333333333332</ele><time>2026-03-28T10:05:14.999Z</time></trkpt><trkpt lat="45.376160195118274" lon="11.661109008604765"><ele>20.666666666666668</ele><time>2026-03-28T10:05:15.999Z</time></trkpt><trkpt lat="45.3763044859804" lon="11.6609736683858"><ele>20.0</ele><time>2026-03-28T10:05:16.999Z</time></trkpt><trkpt lat="45.37643266553403" lon="11.660796272579864"><ele>20.0</ele><time>2026-03-28T10:05:17.999Z</time></trkpt><trkpt lat="45.37654562013506" lon="11.660570967698554"><ele>20.0</ele><time>2026-03-28T10:05:18.999Z</time></trkpt><trkpt lat="45.37663469030155" lon="11.660305363655054"><ele>20.0</ele><time>2026-03-28T10:05:19.999Z</time></trkpt><trkpt lat="45.37669930361182" lon="11.660016792697396"><ele>20.0</ele><time>2026-03-28T10:05:20.999Z</time></trkpt><trkpt lat="45.37676575451727" lon="11.65970103318204"><ele>20.0</ele><time>2026-03-28T10:05:21.999Z</time></trkpt><trkpt lat="45.37687172542861" lon="11.659359883927655"><ele>19.5</ele><time>2026-03-28T10:05:22.999Z</time></trkpt><trkpt lat="45.37701790954767" lon="11.659030966732786"><ele>19.0</ele><time>2026-03-28T10:05:24Z</time></trkpt><trkpt lat="45.377138334318126" lon="11.65868200997409"><ele>27.5</ele><time>2026-03-28T10:05:25Z</time></trkpt><trkpt lat="45.377257922650074" lon="11.658312160388258"><ele>36.0</ele><time>2026-03-28T10:05:26Z</time></trkpt><trkpt lat="45.377349415618646" lon="11.657915350403545"><ele>33.5</ele><time>2026-03-28T10:05:27Z</time></trkpt><trkpt lat="45.37741231562572" lon="11.657551640923787"><ele>31.0</ele><time>2026-03-28T10:05:28Z</time></trkpt><trkpt lat="45.377479408141916" lon="11.65723617448683"><ele>28.666666666666668</ele><time>2026-03-28T10:05:29Z</time></trkpt><trkpt lat="45.377539834144564" lon="11.656947058680137"><ele>26.333333333333336</ele><time>2026-03-28T10:05:30Z</time></trkpt><trkpt lat="45.377624718809514" lon="11.656691606978741"><ele>24.0</ele><time>2026-03-28T10:05:31Z</time></trkpt><trkpt lat="45.37772348788538" lon="11.65643501303456"><ele>24.0</ele><time>2026-03-28T10:05:32Z</time></trkpt><trkpt lat="45.37783565274213" lon="11.656166151701989"><ele>24.0</ele><time>2026-03-28T10:05:33Z</time></trkpt><trkpt lat="45.37794301660751" lon="11.655879124890049"><ele>24.0</ele><time>2026-03-28T10:05:34Z</time></trkpt><trkpt lat="45.378056019568476" lon="11.655595672508818"><ele>27.5</ele><time>2026-03-28T10:05:35Z</time></trkpt><trkpt lat="45.37814797817758" lon="11.65529252116484"><ele>31.0</ele><time>2026-03-28T10:05:36Z</time></trkpt><trkpt lat="45.37823030003181" lon="11.654960022766874"><ele>31.0</ele><time>2026-03-28T10:05:37Z</time></trkpt><trkpt lat="45.3783155776475" lon="11.65461614138032"><ele>31.0</ele><time>2026-03-28T10:05:38Z</time></trkpt><trkpt lat="45.37842711256816" lon="11.654322521218214"><ele>29.333333333333336</ele><time>2026-03-28T10:05:39Z</time></trkpt><trkpt lat="45.37849093223988" lon="11.654037036503398"><ele>27.666666666666664</ele><time>2026-03-28T10:05:40Z</time></trkpt><trkpt lat="45.37855579322709" lon="11.653780471695908"><ele>26.0</ele><time>2026-03-28T10:05:41Z</time></trkpt><trkpt lat="45.378627045832225" lon="11.653556172207217"><ele>25.5</ele><time>2026-03-28T10:05:42Z</time></trkpt><trkpt lat="45.37868994280611" lon="11.653350871502814"><ele>25.0</ele><time>2026-03-28T10:05:43Z</time></trkpt><trkpt lat="45.37876972162927" lon="11.65319257050324"><ele>24.5</ele><time>2026-03-28T10:05:44Z</time></trkpt><trkpt lat="45.378860498137314" lon="11.653051720702063"><ele>24.0</ele><time>2026-03-28T10:05:45Z</time></trkpt><trkpt lat="45.378989584997704" lon="11.652951346896291"><ele>24.0</ele><time>2026-03-28T10:05:46Z</time></trkpt><trkpt lat="45.379133415682766" lon="11.652885715584008"><ele>24.0</ele><time>2026-03-28T10:05:47Z</time></trkpt><trkpt lat="45.37929033154869" lon="11.65287497763189"><ele>24.0</ele><time>2026-03-28T10:05:48Z</time></trkpt><trkpt lat="45.3794573846393" lon="11.652882343933532"><ele>24.0</ele><time>2026-03-28T10:05:49Z</time></trkpt><trkpt lat="45.3796356336897" lon="11.652898718437559"><ele>24.0</ele><time>2026-03-28T10:05:50Z</time></trkpt><trkpt lat="45.379806906864914" lon="11.652910560091126"><ele>24.0</ele><time>2026-03-28T10:05:51Z</time></trkpt><trkpt lat="45.379978673843624" lon="11.652921851943514"><ele>22.666666666666668</ele><time>2026-03-28T10:05:52Z</time></trkpt><trkpt lat="45.380157769265594" lon="11.652931475955755"><ele>21.333333333333336</ele><time>2026-03-28T10:05:53Z</time></trkpt><trkpt lat="45.38031727354523" lon="11.652937064162675"><ele>20.0</ele><time>2026-03-28T10:05:54Z</time></trkpt><trkpt lat="45.38046912175479" lon="11.652938581991172"><ele>18.75</ele><time>2026-03-28T10:05:55Z</time></trkpt><trkpt lat="45.38061372388369" lon="11.652941792864683"><ele>17.5</ele><time>2026-03-28T10:05:56Z</time></trkpt><trkpt lat="45.380756757159226" lon="11.652942813450556"><ele>16.25</ele><time>2026-03-28T10:05:57Z</time></trkpt><trkpt lat="45.38089867163453" lon="11.652941201286076"><ele>15.0</ele><time>2026-03-28T10:05:58Z</time></trkpt><trkpt lat="45.381035194260186" lon="11.652940760861695"><ele>15.0</ele><time>2026-03-28T10:05:59Z</time></trkpt><trkpt lat="45.38116282515364" lon="11.652937217213871"><ele>15.0</ele><time>2026-03-28T10:06:00Z</time></trkpt><trkpt lat="45.38128570735506" lon="11.652935912596266"><ele>15.0</ele><time>2026-03-28T10:06:01Z</time></trkpt><trkpt lat="45.381404977700534" lon="11.652931988238494"><ele>15.0</ele><time>2026-03-28T10:06:02Z</time></trkpt><trkpt lat="45.38152765372044" lon="11.652924486632585"><ele>14.75</ele><time>2026-03-28T10:06:03Z</time></trkpt><trkpt lat="45.38164704749663" lon="11.65291555901496"><ele>14.5</ele><time>2026-03-28T10:06:04Z</time></trkpt><trkpt lat="45.38177067306078" lon="11.65289937037369"><ele>14.25</ele><time>2026-03-28T10:06:05Z</time></trkpt><trkpt lat="45.381890756011025" lon="11.652887738328898"><ele>14.0</ele><time>2026-03-28T10:06:06Z</time></trkpt><trkpt lat="45.382012880688514" lon="11.652862074332411"><ele>14.0</ele><time>2026-03-28T10:06:07Z</time></trkpt><trkpt lat="45.38213557518172" lon="11.652840638446259"><ele>14.0</ele><time>2026-03-28T10:06:08Z</time></trkpt><trkpt lat="45.382252494897244" lon="11.652821474023408"><ele>14.0</ele><time>2026-03-28T10:06:09Z</time></trkpt><trkpt lat="45.382374466636946" lon="11.652803113256477"><ele>14.0</ele><time>2026-03-28T10:06:10Z</time></trkpt><trkpt lat="45.38249811132552" lon="11.652791920014153"><ele>14.399999999999999</ele><time>2026-03-28T10:06:11Z</time></trkpt><trkpt lat="45.38262308958857" lon="11.652776285123558"><ele>14.799999999999999</ele><time>2026-03-28T10:06:12Z</time></trkpt><trkpt lat="45.38273619369906" lon="11.652751522431096"><ele>15.200000000000001</ele><time>2026-03-28T10:06:13Z</time></trkpt><trkpt lat="45.382838529810115" lon="11.652735764488606"><ele>15.600000000000001</ele><time>2026-03-28T10:06:14Z</time></trkpt><trkpt lat="45.38293231830246" lon="11.652717858802673"><ele>16.0</ele><time>2026-03-28T10:06:15Z</time></trkpt><trkpt lat="45.38301596898153" lon="11.65270650385242"><ele>15.999999999999998</ele><time>2026-03-28T10:06:16Z</time></trkpt><trkpt lat="45.38309717419961" lon="11.652701542776555"><ele>16.0</ele><time>2026-03-28T10:06:17Z</time></trkpt><trkpt lat="45.38317250427049" lon="11.652685282853191"><ele>16.0</ele><time>2026-03-28T10:06:18Z</time></trkpt><trkpt lat="45.38324967148929" lon="11.652671795366981"><ele>16.0</ele><time>2026-03-28T10:06:19Z</time></trkpt><trkpt lat="45.38333249811591" lon="11.65266335528448"><ele>15.999999999999998</ele><time>2026-03-28T10:06:20Z</time></trkpt><trkpt lat="45.383418733745245" lon="11.652647629505722"><ele>16.0</ele><time>2026-03-28T10:06:21Z</time></trkpt><trkpt lat="45.38350349513832" lon="11.652626766082133"><ele>15.999999999999998</ele><time>2026-03-28T10:06:22Z</time></trkpt><trkpt lat="45.383580854984075" lon="11.652605667369441"><ele>16.0</ele><time>2026-03-28T10:06:23Z</time></trkpt><trkpt lat="45.38364394293748" lon="11.652590648886322"><ele>16.0</ele><time>2026-03-28T10:06:24Z</time></trkpt><trkpt lat="45.38374103474485" lon="11.652572663180754"><ele>16.0</ele><time>2026-03-28T10:06:26Z</time></trkpt><trkpt lat="45.383863296274065" lon="11.652563863721772"><ele>15.999999999999998</ele><time>2026-03-28T10:06:28Z</time></trkpt><trkpt lat="45.38394720031306" lon="11.652558734671889"><ele>16.0</ele><time>2026-03-28T10:06:29Z</time></trkpt><trkpt lat="45.384038573515255" lon="11.652572816181737"><ele>16.0</ele><time>2026-03-28T10:06:30Z</time></trkpt><trkpt lat="45.38414308840241" lon="11.652632787218185"><ele>16.0</ele><time>2026-03-28T10:06:31Z</time></trkpt><trkpt lat="45.384249374565115" lon="11.65271274701793"><ele>16.0</ele><time>2026-03-28T10:06:32Z</time></trkpt><trkpt lat="45.38434520718829" lon="11.652777595879833"><ele>16.0</ele><time>2026-03-28T10:06:33Z</time></trkpt><trkpt lat="45.3844459453241" lon="11.652837781785506"><ele>16.0</ele><time>2026-03-28T10:06:34Z</time></trkpt><trkpt lat="45.384548315852165" lon="11.65289273128983"><ele>16.0</ele><time>2026-03-28T10:06:35Z</time></trkpt><trkpt lat="45.38465475411322" lon="11.652929990431625"><ele>16.0</ele><time>2026-03-28T10:06:36Z</time></trkpt><trkpt lat="45.38477405965657" lon="11.65294189511232"><ele>16.0</ele><time>2026-03-28T10:06:37Z</time></trkpt><trkpt lat="45.38489062665157" lon="11.65292471959163"><ele>16.0</ele><time>2026-03-28T10:06:38Z</time></trkpt><trkpt lat="45.38499367924877" lon="11.652903671814714"><ele>15.999999999999998</ele><time>2026-03-28T10:06:39Z</time></trkpt><trkpt lat="45.385091980241306" lon="11.652884274123059"><ele>16.0</ele><time>2026-03-28T10:06:40Z</time></trkpt><trkpt lat="45.38518673889246" lon="11.652868951191122"><ele>16.0</ele><time>2026-03-28T10:06:41Z</time></trkpt><trkpt lat="45.38527549845361" lon="11.652847037868337"><ele>16.0</ele><time>2026-03-28T10:06:42Z</time></trkpt><trkpt lat="45.38535221430989" lon="11.652819958470696"><ele>15.999999999999998</ele><time>2026-03-28T10:06:43Z</time></trkpt><trkpt lat="45.385417689755634" lon="11.652794471318485"><ele>16.0</ele><time>2026-03-28T10:06:44Z</time></trkpt><trkpt lat="45.38547988480655" lon="11.65276596680657"><ele>16.400000000000002</ele><time>2026-03-28T10:06:44.999Z</time></trkpt><trkpt lat="45.38555402613792" lon="11.652751149717748"><ele>16.8</ele><time>2026-03-28T10:06:45.999Z</time></trkpt><trkpt lat="45.38562627466497" lon="11.652746090479663"><ele>17.200000000000003</ele><time>2026-03-28T10:06:46.999Z</time></trkpt><trkpt lat="45.38568291049946" lon="11.652703230595487"><ele>17.6</ele><time>2026-03-28T10:06:47.999Z</time></trkpt><trkpt lat="45.385681126615026" lon="11.652544661284406"><ele>18.0</ele><time>2026-03-28T10:06:49.999Z</time></trkpt><trkpt lat="45.38559565195792" lon="11.652397105669424"><ele>18.0</ele><time>2026-03-28T10:06:51.999Z</time></trkpt><trkpt lat="45.38556038836233" lon="11.652288641842787"><ele>18.0</ele><time>2026-03-28T10:06:52.999Z</time></trkpt><trkpt lat="45.385528929842124" lon="11.652181929126805"><ele>18.0</ele><time>2026-03-28T10:06:53.999Z</time></trkpt><trkpt lat="45.385491824265" lon="11.652082776980194"><ele>18.0</ele><time>2026-03-28T10:06:54.999Z</time></trkpt><trkpt lat="45.38544932872535" lon="11.652004537953896"><ele>18.0</ele><time>2026-03-28T10:06:55.999Z</time></trkpt><trkpt lat="45.3853952040607" lon="11.651862570417315"><ele>18.0</ele><time>2026-03-28T10:06:57.999Z</time></trkpt><trkpt lat="45.38538413690776" lon="11.65172744160582"><ele>18.0</ele><time>2026-03-28T10:06:59.999Z</time></trkpt><trkpt lat="45.38542711617973" lon="11.651661494350067"><ele>18.0</ele><time>2026-03-28T10:07:00.999Z</time></trkpt><trkpt lat="45.385494428314786" lon="11.651618091562167"><ele>18.0</ele><time>2026-03-28T10:07:01.999Z</time></trkpt><trkpt lat="45.38557068399423" lon="11.651586751707791"><ele>18.0</ele><time>2026-03-28T10:07:02.999Z</time></trkpt><trkpt lat="45.3856556481743" lon="11.651544409882366"><ele>18.0</ele><time>2026-03-28T10:07:03.999Z</time></trkpt><trkpt lat="45.385753373029104" lon="11.651478075277058"><ele>18.0</ele><time>2026-03-28T10:07:04.999Z</time></trkpt><trkpt lat="45.38586632919241" lon="11.65140649534752"><ele>18.0</ele><time>2026-03-28T10:07:05.999Z</time></trkpt><trkpt lat="45.38618616568851" lon="11.651221350659918"><ele>18.0</ele><time>2026-03-28T10:07:08.999Z</time></trkpt><trkpt lat="45.38629550024529" lon="11.65117530795471"><ele>18.0</ele><time>2026-03-28T10:07:09.999Z</time></trkpt><trkpt lat="45.386408791873585" lon="11.651149426415799"><ele>18.0</ele><time>2026-03-28T10:07:10.999Z</time></trkpt><trkpt lat="45.386523485689494" lon="11.651142547283333"><ele>18.0</ele><time>2026-03-28T10:07:11.999Z</time></trkpt><trkpt lat="45.38663050824831" lon="11.65113926158324"><ele>18.0</ele><time>2026-03-28T10:07:12.999Z</time></trkpt><trkpt lat="45.38673446939594" lon="11.651132086180668"><ele>18.0</ele><time>2026-03-28T10:07:13.999Z</time></trkpt><trkpt lat="45.38684041911604" lon="11.651122217816535"><ele>17.8</ele><time>2026-03-28T10:07:14.999Z</time></trkpt><trkpt lat="45.38694631023152" lon="11.651107651880485"><ele>17.6</ele><time>2026-03-28T10:07:15.999Z</time></trkpt><trkpt lat="45.38705259394141" lon="11.651092742200534"><ele>17.4</ele><time>2026-03-28T10:07:16.999Z</time></trkpt><trkpt lat="45.38716043820172" lon="11.651081427304886"><ele>17.2</ele><time>2026-03-28T10:07:17.999Z</time></trkpt><trkpt lat="45.3872626593462" lon="11.651072328893273"><ele>17.0</ele><time>2026-03-28T10:07:18.999Z</time></trkpt><trkpt lat="45.38736247341065" lon="11.65106660689543"><ele>16.8</ele><time>2026-03-28T10:07:19.999Z</time></trkpt><trkpt lat="45.38746031656796" lon="11.651054364165624"><ele>16.6</ele><time>2026-03-28T10:07:20.999Z</time></trkpt><trkpt lat="45.387553969544065" lon="11.651040321794085"><ele>16.400000000000002</ele><time>2026-03-28T10:07:21.999Z</time></trkpt><trkpt lat="45.387649027984" lon="11.651030746827622"><ele>16.2</ele><time>2026-03-28T10:07:22.999Z</time></trkpt><trkpt lat="45.38774286832799" lon="11.651022581522131"><ele>16.0</ele><time>2026-03-28T10:07:23.999Z</time></trkpt><trkpt lat="45.387829787393215" lon="11.6510100833914"><ele>16.0</ele><time>2026-03-28T10:07:24.999Z</time></trkpt><trkpt lat="45.38790440360711" lon="11.65100572937729"><ele>16.0</ele><time>2026-03-28T10:07:25.999Z</time></trkpt><trkpt lat="45.3879733838929" lon="11.650997438460537"><ele>16.0</ele><time>2026-03-28T10:07:26.999Z</time></trkpt><trkpt lat="45.388064819408086" lon="11.650981134736561"><ele>16.0</ele><time>2026-03-28T10:07:27.999Z</time></trkpt><trkpt lat="45.38820673152449" lon="11.650970633100345"><ele>16.0</ele><time>2026-03-28T10:07:28.999Z</time></trkpt><trkpt lat="45.38837439669168" lon="11.650978110099848"><ele>16.0</ele><time>2026-03-28T10:07:30Z</time></trkpt><trkpt lat="45.38852969556402" lon="11.651001293809678"><ele>16.0</ele><time>2026-03-28T10:07:31Z</time></trkpt><trkpt lat="45.38866227986752" lon="11.651021314530434"><ele>16.0</ele><time>2026-03-28T10:07:32Z</time></trkpt><trkpt lat="45.38879453197425" lon="11.651037104929804"><ele>16.0</ele><time>2026-03-28T10:07:33Z</time></trkpt><trkpt lat="45.388928271808766" lon="11.65104865690682"><ele>15.75</ele><time>2026-03-28T10:07:34Z</time></trkpt><trkpt lat="45.389052066006556" lon="11.65106663240976"><ele>15.5</ele><time>2026-03-28T10:07:35Z</time></trkpt><trkpt lat="45.38916942191947" lon="11.651080650970052"><ele>15.25</ele><time>2026-03-28T10:07:36Z</time></trkpt><trkpt lat="45.38927456348497" lon="11.651091788941608"><ele>15.0</ele><time>2026-03-28T10:07:37Z</time></trkpt><trkpt lat="45.38939531890508" lon="11.651101714453695"><ele>15.333333333333332</ele><time>2026-03-28T10:07:38Z</time></trkpt><trkpt lat="45.389544440435465" lon="11.65114606554414"><ele>15.666666666666666</ele><time>2026-03-28T10:07:39Z</time></trkpt><trkpt lat="45.389709828687344" lon="11.651152076120662"><ele>16.0</ele><time>2026-03-28T10:07:40Z</time></trkpt><trkpt lat="45.38987635609799" lon="11.65119047174815"><ele>15.333333333333332</ele><time>2026-03-28T10:07:41Z</time></trkpt><trkpt lat="45.39004195237627" lon="11.651222091354288"><ele>14.666666666666668</ele><time>2026-03-28T10:07:42Z</time></trkpt><trkpt lat="45.39020794166096" lon="11.651244870677537"><ele>14.0</ele><time>2026-03-28T10:07:43Z</time></trkpt><trkpt lat="45.390363879819375" lon="11.651259029759515"><ele>14.333333333333334</ele><time>2026-03-28T10:07:44Z</time></trkpt><trkpt lat="45.39052159475594" lon="11.6512650987864"><ele>14.666666666666668</ele><time>2026-03-28T10:07:45Z</time></trkpt><trkpt lat="45.39066986632341" lon="11.651248604074588"><ele>15.0</ele><time>2026-03-28T10:07:46Z</time></trkpt><trkpt lat="45.39081047669321" lon="11.65121017133024"><ele>15.0</ele><time>2026-03-28T10:07:47Z</time></trkpt><trkpt lat="45.39093947218974" lon="11.651141289968123"><ele>15.0</ele><time>2026-03-28T10:07:48Z</time></trkpt><trkpt lat="45.39106140378977" lon="11.65104457148545"><ele>15.0</ele><time>2026-03-28T10:07:49Z</time></trkpt><trkpt lat="45.39118251924102" lon="11.650905289118775"><ele>15.0</ele><time>2026-03-28T10:07:50Z</time></trkpt><trkpt lat="45.39129712057042" lon="11.65074501230766"><ele>15.333333333333332</ele><time>2026-03-28T10:07:51Z</time></trkpt><trkpt lat="45.39140543236442" lon="11.650567874789639"><ele>15.666666666666666</ele><time>2026-03-28T10:07:52Z</time></trkpt><trkpt lat="45.391514141123494" lon="11.65036936064811"><ele>16.0</ele><time>2026-03-28T10:07:53Z</time></trkpt><trkpt lat="45.39163033983377" lon="11.650160565344006"><ele>16.0</ele><time>2026-03-28T10:07:54Z</time></trkpt><trkpt lat="45.39174004417638" lon="11.64997727416891"><ele>16.0</ele><time>2026-03-28T10:07:55Z</time></trkpt><trkpt lat="45.391844455112235" lon="11.649799911998867"><ele>16.0</ele><time>2026-03-28T10:07:56Z</time></trkpt><trkpt lat="45.391941221880025" lon="11.64962551831711"><ele>16.0</ele><time>2026-03-28T10:07:57Z</time></trkpt><trkpt lat="45.39206332314122" lon="11.64945362276197"><ele>16.0</ele><time>2026-03-28T10:07:58Z</time></trkpt><trkpt lat="45.39218683559246" lon="11.649243937730864"><ele>16.0</ele><time>2026-03-28T10:07:59Z</time></trkpt><trkpt lat="45.392302916487345" lon="11.649046899904992"><ele>16.0</ele><time>2026-03-28T10:08:00Z</time></trkpt><trkpt lat="45.392433039144834" lon="11.648826027351525"><ele>16.0</ele><time>2026-03-28T10:08:01Z</time></trkpt><trkpt lat="45.39255581714556" lon="11.648584322277316"><ele>16.0</ele><time>2026-03-28T10:08:02Z</time></trkpt><trkpt lat="45.39269493506899" lon="11.648350769632817"><ele>16.0</ele><time>2026-03-28T10:08:03Z</time></trkpt><trkpt lat="45.39283187144291" lon="11.64811899255805"><ele>16.0</ele><time>2026-03-28T10:08:04Z</time></trkpt><trkpt lat="45.392966549179484" lon="11.64789149280122"><ele>16.0</ele><time>2026-03-28T10:08:05Z</time></trkpt><trkpt lat="45.39310356418583" lon="11.647656977845767"><ele>16.0</ele><time>2026-03-28T10:08:06Z</time></trkpt><trkpt lat="45.393266155886195" lon="11.647404042654191"><ele>16.0</ele><time>2026-03-28T10:08:07Z</time></trkpt><trkpt lat="45.39343426074819" lon="11.64711524259446"><ele>16.0</ele><time>2026-03-28T10:08:08Z</time></trkpt><trkpt lat="45.39361938409154" lon="11.646793708047912"><ele>16.0</ele><time>2026-03-28T10:08:09Z</time></trkpt><trkpt lat="45.39381121029972" lon="11.646464135306694"><ele>16.0</ele><time>2026-03-28T10:08:10Z</time></trkpt><trkpt lat="45.39400838890676" lon="11.646138332230072"><ele>16.0</ele><time>2026-03-28T10:08:11Z</time></trkpt><trkpt lat="45.39420651506994" lon="11.6458001548822"><ele>16.0</ele><time>2026-03-28T10:08:12Z</time></trkpt><trkpt lat="45.39437871401244" lon="11.645468698150204"><ele>16.0</ele><time>2026-03-28T10:08:13Z</time></trkpt><trkpt lat="45.39455297331042" lon="11.645167500687135"><ele>16.5</ele><time>2026-03-28T10:08:14Z</time></trkpt><trkpt lat="45.39473375546799" lon="11.644864651749279"><ele>17.0</ele><time>2026-03-28T10:08:15Z</time></trkpt><trkpt lat="45.3949061958915" lon="11.644570190590954"><ele>17.5</ele><time>2026-03-28T10:08:16Z</time></trkpt><trkpt lat="45.3950692992491" lon="11.644296977516083"><ele>18.0</ele><time>2026-03-28T10:08:17Z</time></trkpt><trkpt lat="45.395228959853114" lon="11.644032942242564"><ele>18.0</ele><time>2026-03-28T10:08:18Z</time></trkpt><trkpt lat="45.395386992247914" lon="11.64376216860402"><ele>18.0</ele><time>2026-03-28T10:08:19Z</time></trkpt><trkpt lat="45.39553850694099" lon="11.643491635731735"><ele>17.0</ele><time>2026-03-28T10:08:20Z</time></trkpt><trkpt lat="45.39569705618968" lon="11.64322210508903"><ele>16.0</ele><time>2026-03-28T10:08:21Z</time></trkpt><trkpt lat="45.39585357980287" lon="11.642959078797263"><ele>16.0</ele><time>2026-03-28T10:08:22Z</time></trkpt><trkpt lat="45.39600706449175" lon="11.642697767272148"><ele>16.0</ele><time>2026-03-28T10:08:23Z</time></trkpt><trkpt lat="45.39616347463258" lon="11.642431017981417"><ele>16.0</ele><time>2026-03-28T10:08:24Z</time></trkpt><trkpt lat="45.396320289525484" lon="11.642167350258365"><ele>16.0</ele><time>2026-03-28T10:08:25Z</time></trkpt><trkpt lat="45.39647777218778" lon="11.641898641369247"><ele>18.0</ele><time>2026-03-28T10:08:26Z</time></trkpt><trkpt lat="45.396631841331924" lon="11.641632034686005"><ele>20.0</ele><time>2026-03-28T10:08:27Z</time></trkpt><trkpt lat="45.3967873286649" lon="11.641366946139856"><ele>19.0</ele><time>2026-03-28T10:08:28Z</time></trkpt><trkpt lat="45.39693964719056" lon="11.641108831872755"><ele>18.0</ele><time>2026-03-28T10:08:29Z</time></trkpt><trkpt lat="45.39709173132043" lon="11.640850809952582"><ele>19.0</ele><time>2026-03-28T10:08:30Z</time></trkpt><trkpt lat="45.397238278031914" lon="11.640595543417621"><ele>20.0</ele><time>2026-03-28T10:08:31Z</time></trkpt><trkpt lat="45.397387710324644" lon="11.640336987336491"><ele>19.0</ele><time>2026-03-28T10:08:32Z</time></trkpt><trkpt lat="45.39754440463095" lon="11.640096845912334"><ele>18.0</ele><time>2026-03-28T10:08:33Z</time></trkpt><trkpt lat="45.397708700069444" lon="11.639856576526132"><ele>18.0</ele><time>2026-03-28T10:08:34Z</time></trkpt><trkpt lat="45.39788019553343" lon="11.639618915463826"><ele>18.0</ele><time>2026-03-28T10:08:35Z</time></trkpt><trkpt lat="45.39804487725891" lon="11.639380411604028"><ele>17.0</ele><time>2026-03-28T10:08:36Z</time></trkpt><trkpt lat="45.39820738589815" lon="11.639139464417221"><ele>16.0</ele><time>2026-03-28T10:08:37Z</time></trkpt><trkpt lat="45.39837456934837" lon="11.638896866655463"><ele>16.0</ele><time>2026-03-28T10:08:38Z</time></trkpt><trkpt lat="45.39853973967701" lon="11.638654217228986"><ele>16.0</ele><time>2026-03-28T10:08:39Z</time></trkpt><trkpt lat="45.39870069347611" lon="11.638419076282736"><ele>16.0</ele><time>2026-03-28T10:08:40Z</time></trkpt><trkpt lat="45.39886692828581" lon="11.63816767832902"><ele>16.0</ele><time>2026-03-28T10:08:41Z</time></trkpt><trkpt lat="45.39903217422169" lon="11.637929811095976"><ele>16.5</ele><time>2026-03-28T10:08:42Z</time></trkpt><trkpt lat="45.399194688373775" lon="11.637687620979982"><ele>17.0</ele><time>2026-03-28T10:08:43Z</time></trkpt><trkpt lat="45.3993621932715" lon="11.637440642945274"><ele>17.0</ele><time>2026-03-28T10:08:44Z</time></trkpt><trkpt lat="45.39952596353207" lon="11.637191778002835"><ele>17.0</ele><time>2026-03-28T10:08:45Z</time></trkpt><trkpt lat="45.399688993685764" lon="11.636946061398747"><ele>17.0</ele><time>2026-03-28T10:08:46Z</time></trkpt><trkpt lat="45.39985872790718" lon="11.636697713320805"><ele>17.0</ele><time>2026-03-28T10:08:47Z</time></trkpt><trkpt lat="45.40002153900557" lon="11.636452169453255"><ele>17.0</ele><time>2026-03-28T10:08:48Z</time></trkpt><trkpt lat="45.40018408525654" lon="11.63620804826421"><ele>17.0</ele><time>2026-03-28T10:08:49Z</time></trkpt><trkpt lat="45.400340415502804" lon="11.635964696454751"><ele>17.5</ele><time>2026-03-28T10:08:50Z</time></trkpt><trkpt lat="45.4005142363257" lon="11.635727355905912"><ele>18.0</ele><time>2026-03-28T10:08:51Z</time></trkpt><trkpt lat="45.40067756520806" lon="11.635495719088636"><ele>18.0</ele><time>2026-03-28T10:08:52Z</time></trkpt><trkpt lat="45.40082643645457" lon="11.635290883426192"><ele>18.0</ele><time>2026-03-28T10:08:53Z</time></trkpt><trkpt lat="45.40095421386698" lon="11.635093779557735"><ele>18.0</ele><time>2026-03-28T10:08:54Z</time></trkpt><trkpt lat="45.401081742972636" lon="11.63491004429674"><ele>18.0</ele><time>2026-03-28T10:08:55Z</time></trkpt><trkpt lat="45.40120572182262" lon="11.634747707217356"><ele>18.0</ele><time>2026-03-28T10:08:56Z</time></trkpt><trkpt lat="45.40130976726319" lon="11.63459273504024"><ele>18.0</ele><time>2026-03-28T10:08:57Z</time></trkpt><trkpt lat="45.40139372029869" lon="11.634436041080946"><ele>17.333333333333332</ele><time>2026-03-28T10:08:58Z</time></trkpt><trkpt lat="45.40145370765857" lon="11.634255239323835"><ele>16.666666666666664</ele><time>2026-03-28T10:08:58.999Z</time></trkpt><trkpt lat="45.40149201131756" lon="11.634033249328983"><ele>16.0</ele><time>2026-03-28T10:08:59.999Z</time></trkpt><trkpt lat="45.40151687913852" lon="11.633786044790469"><ele>16.0</ele><time>2026-03-28T10:09:00.999Z</time></trkpt><trkpt lat="45.401546224252314" lon="11.633494575002612"><ele>16.0</ele><time>2026-03-28T10:09:01.999Z</time></trkpt><trkpt lat="45.40158111138591" lon="11.63320651023671"><ele>16.0</ele><time>2026-03-28T10:09:02.999Z</time></trkpt><trkpt lat="45.401621232793346" lon="11.632914083419406"><ele>16.0</ele><time>2026-03-28T10:09:03.999Z</time></trkpt><trkpt lat="45.40165837602595" lon="11.632627831183175"><ele>16.0</ele><time>2026-03-28T10:09:04.999Z</time></trkpt><trkpt lat="45.40169494877785" lon="11.632337261152884"><ele>16.0</ele><time>2026-03-28T10:09:05.999Z</time></trkpt><trkpt lat="45.401732618495124" lon="11.632043187381052"><ele>15.0</ele><time>2026-03-28T10:09:06.999Z</time></trkpt><trkpt lat="45.40176846625368" lon="11.631765243349857"><ele>14.0</ele><time>2026-03-28T10:09:07.999Z</time></trkpt><trkpt lat="45.40180414380742" lon="11.631484177868563"><ele>13.0</ele><time>2026-03-28T10:09:08.999Z</time></trkpt><trkpt lat="45.401839345524344" lon="11.631190007196683"><ele>13.333333333333332</ele><time>2026-03-28T10:09:09.999Z</time></trkpt><trkpt lat="45.40187130217747" lon="11.630923559248512"><ele>13.666666666666668</ele><time>2026-03-28T10:09:10.999Z</time></trkpt><trkpt lat="45.40190423790918" lon="11.630647979170565"><ele>14.0</ele><time>2026-03-28T10:09:11.999Z</time></trkpt><trkpt lat="45.4019671699116" lon="11.630103815161881"><ele>14.333333333333334</ele><time>2026-03-28T10:09:13.999Z</time></trkpt><trkpt lat="45.40200298752987" lon="11.6298429784782"><ele>14.666666666666668</ele><time>2026-03-28T10:09:14.999Z</time></trkpt><trkpt lat="45.402036675974806" lon="11.629574165382072"><ele>15.0</ele><time>2026-03-28T10:09:15.999Z</time></trkpt><trkpt lat="45.40206644850203" lon="11.629300607280697"><ele>15.333333333333332</ele><time>2026-03-28T10:09:16.999Z</time></trkpt><trkpt lat="45.402088120563604" lon="11.629026327093275"><ele>15.666666666666666</ele><time>2026-03-28T10:09:17.999Z</time></trkpt><trkpt lat="45.40210572246115" lon="11.628749729823811"><ele>16.0</ele><time>2026-03-28T10:09:18.999Z</time></trkpt><trkpt lat="45.40210755697991" lon="11.628478670025507"><ele>16.333333333333332</ele><time>2026-03-28T10:09:19.999Z</time></trkpt><trkpt lat="45.4021043671706" lon="11.62819874803449"><ele>16.666666666666668</ele><time>2026-03-28T10:09:20.999Z</time></trkpt><trkpt lat="45.40209970956595" lon="11.627924047676101"><ele>17.0</ele><time>2026-03-28T10:09:21.999Z</time></trkpt><trkpt lat="45.40209694899186" lon="11.627640921806137"><ele>17.0</ele><time>2026-03-28T10:09:22.999Z</time></trkpt><trkpt lat="45.402099547546264" lon="11.627376174439389"><ele>17.0</ele><time>2026-03-28T10:09:23.999Z</time></trkpt><trkpt lat="45.402091972497075" lon="11.62711416180891"><ele>17.0</ele><time>2026-03-28T10:09:24.999Z</time></trkpt><trkpt lat="45.40208471268257" lon="11.626840192299245"><ele>17.0</ele><time>2026-03-28T10:09:25.999Z</time></trkpt><trkpt lat="45.402080057371506" lon="11.626571283601383"><ele>17.0</ele><time>2026-03-28T10:09:26.999Z</time></trkpt><trkpt lat="45.402086721952855" lon="11.626316193520104"><ele>17.0</ele><time>2026-03-28T10:09:27.999Z</time></trkpt><trkpt lat="45.40210355795057" lon="11.626093391745973"><ele>16.666666666666668</ele><time>2026-03-28T10:09:28.999Z</time></trkpt><trkpt lat="45.402115180343216" lon="11.62585616532503"><ele>16.333333333333332</ele><time>2026-03-28T10:09:29.999Z</time></trkpt><trkpt lat="45.40211609600435" lon="11.62560332980082"><ele>16.0</ele><time>2026-03-28T10:09:30.999Z</time></trkpt><trkpt lat="45.40211889633935" lon="11.625345748986055"><ele>16.0</ele><time>2026-03-28T10:09:31.999Z</time></trkpt><trkpt lat="45.40213473357073" lon="11.625074389953795"><ele>16.0</ele><time>2026-03-28T10:09:32.999Z</time></trkpt><trkpt lat="45.402136212458295" lon="11.624812164815339"><ele>16.0</ele><time>2026-03-28T10:09:33.999Z</time></trkpt><trkpt lat="45.40214707817812" lon="11.624578168423433"><ele>16.0</ele><time>2026-03-28T10:09:34.999Z</time></trkpt><trkpt lat="45.402150706402644" lon="11.624360657536801"><ele>16.0</ele><time>2026-03-28T10:09:36Z</time></trkpt><trkpt lat="45.40214733113219" lon="11.624169510856737"><ele>16.0</ele><time>2026-03-28T10:09:37Z</time></trkpt><trkpt lat="45.40212080515464" lon="11.623992975590838"><ele>16.0</ele><time>2026-03-28T10:09:38Z</time></trkpt><trkpt lat="45.402083811966904" lon="11.62384764899806"><ele>16.0</ele><time>2026-03-28T10:09:39Z</time></trkpt><trkpt lat="45.4020008154229" lon="11.623749417691837"><ele>16.0</ele><time>2026-03-28T10:09:40Z</time></trkpt><trkpt lat="45.401858969600546" lon="11.623756848510315"><ele>16.0</ele><time>2026-03-28T10:09:41Z</time></trkpt><trkpt lat="45.40171280834515" lon="11.623780326369891"><ele>16.0</ele><time>2026-03-28T10:09:42Z</time></trkpt><trkpt lat="45.40154368277886" lon="11.623753387792597"><ele>16.0</ele><time>2026-03-28T10:09:43Z</time></trkpt><trkpt lat="45.401371900937086" lon="11.623749964420483"><ele>16.0</ele><time>2026-03-28T10:09:44Z</time></trkpt><trkpt lat="45.401207003155164" lon="11.623746678235971"><ele>16.0</ele><time>2026-03-28T10:09:45Z</time></trkpt><trkpt lat="45.401066415812025" lon="11.623742788643977"><ele>16.0</ele><time>2026-03-28T10:09:46Z</time></trkpt><trkpt lat="45.40094076719555" lon="11.623734429251085"><ele>16.0</ele><time>2026-03-28T10:09:47Z</time></trkpt><trkpt lat="45.40082766640825" lon="11.623707746482845"><ele>16.0</ele><time>2026-03-28T10:09:48Z</time></trkpt><trkpt lat="45.40074029371106" lon="11.623627739861279"><ele>16.0</ele><time>2026-03-28T10:09:49Z</time></trkpt><trkpt lat="45.40070689084145" lon="11.623468261040584"><ele>16.0</ele><time>2026-03-28T10:09:50Z</time></trkpt><trkpt lat="45.40067730822495" lon="11.62327462111193"><ele>16.0</ele><time>2026-03-28T10:09:51Z</time></trkpt><trkpt lat="45.40066490683053" lon="11.623034969509291"><ele>16.0</ele><time>2026-03-28T10:09:52Z</time></trkpt><trkpt lat="45.40067053252536" lon="11.622754931408302"><ele>15.666666666666666</ele><time>2026-03-28T10:09:53Z</time></trkpt><trkpt lat="45.40069304912341" lon="11.622488308406275"><ele>15.333333333333332</ele><time>2026-03-28T10:09:54Z</time></trkpt><trkpt lat="45.40067977758167" lon="11.622261450914221"><ele>15.0</ele><time>2026-03-28T10:09:55Z</time></trkpt><trkpt lat="45.400654867899185" lon="11.622045341350095"><ele>15.333333333333332</ele><time>2026-03-28T10:09:56Z</time></trkpt><trkpt lat="45.40057817808669" lon="11.621853743056619"><ele>15.666666666666666</ele><time>2026-03-28T10:09:57Z</time></trkpt><trkpt lat="45.40047281834815" lon="11.621651222277997"><ele>16.0</ele><time>2026-03-28T10:09:58Z</time></trkpt><trkpt lat="45.40034813597352" lon="11.621443418314376"><ele>16.333333333333332</ele><time>2026-03-28T10:09:59Z</time></trkpt><trkpt lat="45.40023166315621" lon="11.621244898522711"><ele>16.666666666666668</ele><time>2026-03-28T10:10:00Z</time></trkpt><trkpt lat="45.40011988902603" lon="11.621026214580414"><ele>17.0</ele><time>2026-03-28T10:10:01Z</time></trkpt><trkpt lat="45.400024902903695" lon="11.620803295558877"><ele>17.0</ele><time>2026-03-28T10:10:02Z</time></trkpt><trkpt lat="45.39996498140014" lon="11.620586802360695"><ele>17.0</ele><time>2026-03-28T10:10:03Z</time></trkpt><trkpt lat="45.3999407210262" lon="11.620387971270251"><ele>17.0</ele><time>2026-03-28T10:10:04Z</time></trkpt><trkpt lat="45.399923871616046" lon="11.620168014726906"><ele>16.666666666666668</ele><time>2026-03-28T10:10:05Z</time></trkpt><trkpt lat="45.399918587476" lon="11.619937224615901"><ele>16.333333333333332</ele><time>2026-03-28T10:10:06Z</time></trkpt><trkpt lat="45.399933631600724" lon="11.619713683809138"><ele>16.0</ele><time>2026-03-28T10:10:07Z</time></trkpt><trkpt lat="45.3999620381587" lon="11.619483732766282"><ele>16.0</ele><time>2026-03-28T10:10:08Z</time></trkpt><trkpt lat="45.39999302420863" lon="11.619249608379691"><ele>16.0</ele><time>2026-03-28T10:10:09Z</time></trkpt><trkpt lat="45.40001588182517" lon="11.61900877509541"><ele>16.0</ele><time>2026-03-28T10:10:10Z</time></trkpt><trkpt lat="45.400033986530275" lon="11.618764965117986"><ele>16.333333333333332</ele><time>2026-03-28T10:10:11Z</time></trkpt><trkpt lat="45.400048220740075" lon="11.618515173028495"><ele>16.666666666666668</ele><time>2026-03-28T10:10:12Z</time></trkpt><trkpt lat="45.400061655795845" lon="11.618276613361504"><ele>17.0</ele><time>2026-03-28T10:10:13Z</time></trkpt><trkpt lat="45.40007472115725" lon="11.618044618392698"><ele>17.0</ele><time>2026-03-28T10:10:14Z</time></trkpt><trkpt lat="45.400087688152674" lon="11.61780212703739"><ele>17.0</ele><time>2026-03-28T10:10:15Z</time></trkpt><trkpt lat="45.40008987811337" lon="11.617547383100382"><ele>17.0</ele><time>2026-03-28T10:10:16Z</time></trkpt><trkpt lat="45.40004754461939" lon="11.617300947657528"><ele>17.0</ele><time>2026-03-28T10:10:17Z</time></trkpt><trkpt lat="45.39998615086372" lon="11.617048961174607"><ele>17.0</ele><time>2026-03-28T10:10:18Z</time></trkpt><trkpt lat="45.39991952100007" lon="11.616786887596959"><ele>17.0</ele><time>2026-03-28T10:10:19Z</time></trkpt><trkpt lat="45.399851877251905" lon="11.616520781213644"><ele>17.0</ele><time>2026-03-28T10:10:20Z</time></trkpt><trkpt lat="45.39978422262515" lon="11.616254587519144"><ele>17.0</ele><time>2026-03-28T10:10:21Z</time></trkpt><trkpt lat="45.399720121631574" lon="11.616002375993132"><ele>17.0</ele><time>2026-03-28T10:10:22Z</time></trkpt><trkpt lat="45.399656977187384" lon="11.615740127508722"><ele>17.0</ele><time>2026-03-28T10:10:23Z</time></trkpt><trkpt lat="45.39961165675315" lon="11.615473184718454"><ele>17.0</ele><time>2026-03-28T10:10:24Z</time></trkpt><trkpt lat="45.39957805333309" lon="11.615225330162408"><ele>17.0</ele><time>2026-03-28T10:10:25Z</time></trkpt><trkpt lat="45.39954884943388" lon="11.614998044564553"><ele>16.75</ele><time>2026-03-28T10:10:26Z</time></trkpt><trkpt lat="45.39952218047575" lon="11.614790487596153"><ele>16.5</ele><time>2026-03-28T10:10:27Z</time></trkpt><trkpt lat="45.399498477558765" lon="11.614601610978381"><ele>16.25</ele><time>2026-03-28T10:10:28Z</time></trkpt><trkpt lat="45.39947884155924" lon="11.614433677315368"><ele>16.0</ele><time>2026-03-28T10:10:29Z</time></trkpt><trkpt lat="45.39946159044287" lon="11.614286140051746"><ele>15.8</ele><time>2026-03-28T10:10:30Z</time></trkpt><trkpt lat="45.39944684346013" lon="11.614160018850793"><ele>15.600000000000001</ele><time>2026-03-28T10:10:31Z</time></trkpt><trkpt lat="45.39943401958435" lon="11.614043879874808"><ele>15.4</ele><time>2026-03-28T10:10:32Z</time></trkpt><trkpt lat="45.39942467645839" lon="11.613950710496965"><ele>15.2</ele><time>2026-03-28T10:10:33Z</time></trkpt><trkpt lat="45.39923334989223" lon="11.613888841123607"><ele>15.0</ele><time>2026-03-28T10:10:36Z</time></trkpt><trkpt lat="45.399166339582514" lon="11.613898805622764"><ele>15.0</ele><time>2026-03-28T10:10:37Z</time></trkpt><trkpt lat="45.39909261329961" lon="11.613910455947728"><ele>15.0</ele><time>2026-03-28T10:10:38Z</time></trkpt><trkpt lat="45.398998726783994" lon="11.613926144428545"><ele>15.0</ele><time>2026-03-28T10:10:39Z</time></trkpt><trkpt lat="45.39887419529498" lon="11.613943268783409"><ele>15.0</ele><time>2026-03-28T10:10:40Z</time></trkpt><trkpt lat="45.39872699977149" lon="11.61395786480133"><ele>15.0</ele><time>2026-03-28T10:10:41Z</time></trkpt><trkpt lat="45.39856428884543" lon="11.613956365169582"><ele>15.0</ele><time>2026-03-28T10:10:42Z</time></trkpt><trkpt lat="45.39840553254078" lon="11.613939164749722"><ele>15.0</ele><time>2026-03-28T10:10:43Z</time></trkpt><trkpt lat="45.39827314335822" lon="11.61392418553516"><ele>15.0</ele><time>2026-03-28T10:10:44Z</time></trkpt><trkpt lat="45.398163970328085" lon="11.613911367917314"><ele>15.0</ele><time>2026-03-28T10:10:45Z</time></trkpt><trkpt lat="45.39807473227129" lon="11.613898395964005"><ele>15.0</ele><time>2026-03-28T10:10:46Z</time></trkpt><trkpt lat="45.39800230141344" lon="11.613883946537134"><ele>15.0</ele><time>2026-03-28T10:10:47Z</time></trkpt><trkpt lat="45.39789885202653" lon="11.613803269980272"><ele>15.0</ele><time>2026-03-28T10:10:49Z</time></trkpt><trkpt lat="45.39786960836562" lon="11.61370935118441"><ele>15.0</ele><time>2026-03-28T10:10:50Z</time></trkpt><trkpt lat="45.39783326244169" lon="11.613569161536107"><ele>15.0</ele><time>2026-03-28T10:10:51Z</time></trkpt><trkpt lat="45.39779886843241" lon="11.613389239463144"><ele>15.333333333333332</ele><time>2026-03-28T10:10:52Z</time></trkpt><trkpt lat="45.39776529734004" lon="11.613192192083298"><ele>15.666666666666666</ele><time>2026-03-28T10:10:53Z</time></trkpt><trkpt lat="45.39772935651623" lon="11.6129680805949"><ele>16.0</ele><time>2026-03-28T10:10:54Z</time></trkpt><trkpt lat="45.39766095180186" lon="11.612525984231315"><ele>16.25</ele><time>2026-03-28T10:10:55.999Z</time></trkpt><trkpt lat="45.397627332771414" lon="11.612320780953574"><ele>16.5</ele><time>2026-03-28T10:10:56.999Z</time></trkpt><trkpt lat="45.39759274324341" lon="11.612131229107359"><ele>16.75</ele><time>2026-03-28T10:10:57.999Z</time></trkpt><trkpt lat="45.39755566704499" lon="11.611927738782454"><ele>17.0</ele><time>2026-03-28T10:10:58.999Z</time></trkpt><trkpt lat="45.39752010898144" lon="11.611715526460298"><ele>17.0</ele><time>2026-03-28T10:10:59.999Z</time></trkpt><trkpt lat="45.397492031345344" lon="11.611502952626267"><ele>17.0</ele><time>2026-03-28T10:11:00.999Z</time></trkpt><trkpt lat="45.397483337457786" lon="11.611265701487433"><ele>17.0</ele><time>2026-03-28T10:11:01.999Z</time></trkpt><trkpt lat="45.397481986138274" lon="11.61101643298258"><ele>17.0</ele><time>2026-03-28T10:11:02.999Z</time></trkpt><trkpt lat="45.397487782393576" lon="11.610734638527866"><ele>17.0</ele><time>2026-03-28T10:11:03.999Z</time></trkpt><trkpt lat="45.39749681606921" lon="11.610435066425746"><ele>17.0</ele><time>2026-03-28T10:11:04.999Z</time></trkpt><trkpt lat="45.3975052120407" lon="11.610156641629699"><ele>17.0</ele><time>2026-03-28T10:11:05.999Z</time></trkpt><trkpt lat="45.39750986651701" lon="11.609925774278194"><ele>17.0</ele><time>2026-03-28T10:11:06.999Z</time></trkpt><trkpt lat="45.39750765844016" lon="11.609750793168558"><ele>17.0</ele><time>2026-03-28T10:11:07.999Z</time></trkpt><trkpt lat="45.39749832470615" lon="11.60961795431269"><ele>17.0</ele><time>2026-03-28T10:11:08.999Z</time></trkpt><trkpt lat="45.3974532001468" lon="11.609503122355326"><ele>17.0</ele><time>2026-03-28T10:11:09.999Z</time></trkpt><trkpt lat="45.39735470985536" lon="11.609429650481555"><ele>17.0</ele><time>2026-03-28T10:11:10.999Z</time></trkpt><trkpt lat="45.3972326981891" lon="11.609440671981321"><ele>17.0</ele><time>2026-03-28T10:11:11.999Z</time></trkpt><trkpt lat="45.39709093658964" lon="11.609392281179403"><ele>17.0</ele><time>2026-03-28T10:11:12.999Z</time></trkpt><trkpt lat="45.39694006232721" lon="11.609361711655199"><ele>16.8</ele><time>2026-03-28T10:11:13.999Z</time></trkpt><trkpt lat="45.396804661263936" lon="11.609336024417578"><ele>16.6</ele><time>2026-03-28T10:11:14.999Z</time></trkpt><trkpt lat="45.396685874183525" lon="11.609311403254981"><ele>16.400000000000002</ele><time>2026-03-28T10:11:15.999Z</time></trkpt><trkpt lat="45.39658469565681" lon="11.609285880335655"><ele>16.2</ele><time>2026-03-28T10:11:16.999Z</time></trkpt><trkpt lat="45.396504017675355" lon="11.609262703340896"><ele>16.0</ele><time>2026-03-28T10:11:17.999Z</time></trkpt><trkpt lat="45.39642840014255" lon="11.609256817907148"><ele>16.0</ele><time>2026-03-28T10:11:18.999Z</time></trkpt><trkpt lat="45.39644676964183" lon="11.609001952101163"><ele>16.0</ele><time>2026-03-28T10:11:20.999Z</time></trkpt><trkpt lat="45.39644592092183" lon="11.608821858367047"><ele>16.0</ele><time>2026-03-28T10:11:21.999Z</time></trkpt><trkpt lat="45.396427800327" lon="11.60860996230348"><ele>15.666666666666666</ele><time>2026-03-28T10:11:22.999Z</time></trkpt><trkpt lat="45.396396682256835" lon="11.60838324788374"><ele>15.333333333333332</ele><time>2026-03-28T10:11:23.999Z</time></trkpt><trkpt lat="45.39636975362991" lon="11.608143739527021"><ele>15.0</ele><time>2026-03-28T10:11:24.999Z</time></trkpt><trkpt lat="45.396378454981466" lon="11.607921395509573"><ele>15.333333333333332</ele><time>2026-03-28T10:11:25.999Z</time></trkpt><trkpt lat="45.39642239218983" lon="11.607704427075548"><ele>15.666666666666666</ele><time>2026-03-28T10:11:26.999Z</time></trkpt><trkpt lat="45.39647788615629" lon="11.607449076546459"><ele>16.0</ele><time>2026-03-28T10:11:27.999Z</time></trkpt><trkpt lat="45.396529984623385" lon="11.607200902207957"><ele>16.333333333333332</ele><time>2026-03-28T10:11:28.999Z</time></trkpt><trkpt lat="45.39657418559083" lon="11.606948381512318"><ele>16.666666666666668</ele><time>2026-03-28T10:11:29.999Z</time></trkpt><trkpt lat="45.396596884276235" lon="11.606672370443517"><ele>17.0</ele><time>2026-03-28T10:11:30.999Z</time></trkpt><trkpt lat="45.39658795969747" lon="11.606383259707478"><ele>17.0</ele><time>2026-03-28T10:11:31.999Z</time></trkpt><trkpt lat="45.396561297656035" lon="11.606095182388371"><ele>17.0</ele><time>2026-03-28T10:11:32.999Z</time></trkpt><trkpt lat="45.396545378433494" lon="11.605812670156777"><ele>17.0</ele><time>2026-03-28T10:11:33.999Z</time></trkpt><trkpt lat="45.39654359708618" lon="11.605530730050814"><ele>17.0</ele><time>2026-03-28T10:11:34.999Z</time></trkpt><trkpt lat="45.396556783975676" lon="11.605265712029098"><ele>17.0</ele><time>2026-03-28T10:11:35.999Z</time></trkpt><trkpt lat="45.39656939871856" lon="11.605028701629806"><ele>17.0</ele><time>2026-03-28T10:11:36.999Z</time></trkpt><trkpt lat="45.396577708542985" lon="11.60481602154811"><ele>17.0</ele><time>2026-03-28T10:11:37.999Z</time></trkpt><trkpt lat="45.39657931010476" lon="11.604619472612985"><ele>17.0</ele><time>2026-03-28T10:11:38.999Z</time></trkpt><trkpt lat="45.3965753278338" lon="11.6044307525843"><ele>17.0</ele><time>2026-03-28T10:11:39.999Z</time></trkpt><trkpt lat="45.39656802371377" lon="11.604261595606813"><ele>17.0</ele><time>2026-03-28T10:11:40.999Z</time></trkpt><trkpt lat="45.396558837055075" lon="11.604103539633089"><ele>16.75</ele><time>2026-03-28T10:11:42Z</time></trkpt><trkpt lat="45.39654989387472" lon="11.603949672668897"><ele>16.5</ele><time>2026-03-28T10:11:43Z</time></trkpt><trkpt lat="45.396540889484655" lon="11.603787385261123"><ele>16.25</ele><time>2026-03-28T10:11:44Z</time></trkpt><trkpt lat="45.39653223804187" lon="11.603582033463574"><ele>16.0</ele><time>2026-03-28T10:11:45Z</time></trkpt><trkpt lat="45.39653083807785" lon="11.603339786992436"><ele>16.0</ele><time>2026-03-28T10:11:46Z</time></trkpt><trkpt lat="45.39655819645517" lon="11.603089816005799"><ele>16.0</ele><time>2026-03-28T10:11:47Z</time></trkpt><trkpt lat="45.39663419331045" lon="11.602826953951283"><ele>16.0</ele><time>2026-03-28T10:11:48Z</time></trkpt><trkpt lat="45.39671079355911" lon="11.602576126197377"><ele>16.0</ele><time>2026-03-28T10:11:49Z</time></trkpt><trkpt lat="45.39678396929977" lon="11.602372586081461"><ele>16.0</ele><time>2026-03-28T10:11:50Z</time></trkpt><trkpt lat="45.39688566549905" lon="11.602186937660845"><ele>16.0</ele><time>2026-03-28T10:11:51Z</time></trkpt><trkpt lat="45.396999665419955" lon="11.602033888262195"><ele>16.0</ele><time>2026-03-28T10:11:52Z</time></trkpt><trkpt lat="45.397093658684376" lon="11.601866095102748"><ele>16.0</ele><time>2026-03-28T10:11:53Z</time></trkpt><trkpt lat="45.39718143628816" lon="11.601693534857061"><ele>16.0</ele><time>2026-03-28T10:11:54Z</time></trkpt><trkpt lat="45.397252666158586" lon="11.601488597747943"><ele>16.0</ele><time>2026-03-28T10:11:55Z</time></trkpt><trkpt lat="45.39733165101643" lon="11.601314703454104"><ele>16.0</ele><time>2026-03-28T10:11:56Z</time></trkpt><trkpt lat="45.39735439889649" lon="11.601139787529398"><ele>16.0</ele><time>2026-03-28T10:11:57Z</time></trkpt><trkpt lat="45.39738429349196" lon="11.60097306440351"><ele>16.0</ele><time>2026-03-28T10:11:58Z</time></trkpt><trkpt lat="45.39736859552736" lon="11.600786977021308"><ele>16.5</ele><time>2026-03-28T10:11:59Z</time></trkpt><trkpt lat="45.39731715403347" lon="11.600601692725963"><ele>17.0</ele><time>2026-03-28T10:12:00Z</time></trkpt><trkpt lat="45.39722778167912" lon="11.60043248801392"><ele>17.5</ele><time>2026-03-28T10:12:01Z</time></trkpt><trkpt lat="45.39712228189361" lon="11.60026592134616"><ele>18.0</ele><time>2026-03-28T10:12:02Z</time></trkpt><trkpt lat="45.397016275308175" lon="11.6000999516755"><ele>18.0</ele><time>2026-03-28T10:12:03Z</time></trkpt><trkpt lat="45.39690446479274" lon="11.59991576343277"><ele>18.0</ele><time>2026-03-28T10:12:04Z</time></trkpt><trkpt lat="45.39679612306948" lon="11.599711395455833"><ele>18.0</ele><time>2026-03-28T10:12:05Z</time></trkpt><trkpt lat="45.3966872099418" lon="11.599492252253878"><ele>19.666666666666668</ele><time>2026-03-28T10:12:06Z</time></trkpt><trkpt lat="45.39658717602729" lon="11.59929752792431"><ele>21.333333333333336</ele><time>2026-03-28T10:12:07Z</time></trkpt><trkpt lat="45.39648445139479" lon="11.599134426377129"><ele>23.0</ele><time>2026-03-28T10:12:08Z</time></trkpt><trkpt lat="45.396393465060626" lon="11.598980248808783"><ele>22.5</ele><time>2026-03-28T10:12:09Z</time></trkpt><trkpt lat="45.396316501036466" lon="11.59881263522746"><ele>22.0</ele><time>2026-03-28T10:12:10Z</time></trkpt><trkpt lat="45.396268055068624" lon="11.598647101485787"><ele>21.5</ele><time>2026-03-28T10:12:11Z</time></trkpt><trkpt lat="45.39624124082057" lon="11.598455302600621"><ele>21.0</ele><time>2026-03-28T10:12:12Z</time></trkpt><trkpt lat="45.39624965947086" lon="11.598252586343596"><ele>20.666666666666668</ele><time>2026-03-28T10:12:13Z</time></trkpt><trkpt lat="45.39626331566623" lon="11.598010996991407"><ele>20.333333333333336</ele><time>2026-03-28T10:12:14Z</time></trkpt><trkpt lat="45.396278575700535" lon="11.597773211496396"><ele>20.0</ele><time>2026-03-28T10:12:15Z</time></trkpt><trkpt lat="45.39629286452369" lon="11.597562855964688"><ele>20.5</ele><time>2026-03-28T10:12:16Z</time></trkpt><trkpt lat="45.39630717472939" lon="11.597372378673471"><ele>21.0</ele><time>2026-03-28T10:12:17Z</time></trkpt><trkpt lat="45.396323663023225" lon="11.597178375480834"><ele>21.5</ele><time>2026-03-28T10:12:18Z</time></trkpt><trkpt lat="45.396340262941095" lon="11.597008727946735"><ele>22.0</ele><time>2026-03-28T10:12:19Z</time></trkpt><trkpt lat="45.39634035171391" lon="11.5968639072259"><ele>22.0</ele><time>2026-03-28T10:12:20Z</time></trkpt><trkpt lat="45.39633995948071" lon="11.596747362094915"><ele>22.0</ele><time>2026-03-28T10:12:21Z</time></trkpt><trkpt lat="45.39632830976425" lon="11.59664070972287"><ele>22.0</ele><time>2026-03-28T10:12:22Z</time></trkpt><trkpt lat="45.39623043280868" lon="11.596572475065575"><ele>22.0</ele><time>2026-03-28T10:12:23Z</time></trkpt><trkpt lat="45.39610891405307" lon="11.596514293385958"><ele>22.0</ele><time>2026-03-28T10:12:24Z</time></trkpt><trkpt lat="45.39599365663255" lon="11.596431471504813"><ele>22.0</ele><time>2026-03-28T10:12:25Z</time></trkpt><trkpt lat="45.39587298020673" lon="11.596327768421618"><ele>22.0</ele><time>2026-03-28T10:12:26Z</time></trkpt><trkpt lat="45.395774208142974" lon="11.596179342747025"><ele>22.0</ele><time>2026-03-28T10:12:27Z</time></trkpt><trkpt lat="45.3956789327315" lon="11.59601931290576"><ele>22.0</ele><time>2026-03-28T10:12:28Z</time></trkpt><trkpt lat="45.39560935789745" lon="11.595862487718751"><ele>21.0</ele><time>2026-03-28T10:12:29Z</time></trkpt><trkpt lat="45.395573857608845" lon="11.595710719041412"><ele>20.0</ele><time>2026-03-28T10:12:30Z</time></trkpt><trkpt lat="45.395556282823435" lon="11.595540910600448"><ele>19.0</ele><time>2026-03-28T10:12:31Z</time></trkpt><trkpt lat="45.39555088984191" lon="11.595362151302892"><ele>18.0</ele><time>2026-03-28T10:12:32Z</time></trkpt><trkpt lat="45.39554024888485" lon="11.595176408142192"><ele>18.0</ele><time>2026-03-28T10:12:33Z</time></trkpt><trkpt lat="45.39552948695024" lon="11.59498855334517"><ele>18.0</ele><time>2026-03-28T10:12:34Z</time></trkpt><trkpt lat="45.39551773973874" lon="11.594800961729595"><ele>18.0</ele><time>2026-03-28T10:12:35Z</time></trkpt><trkpt lat="45.39550553286326" lon="11.594608488464415"><ele>18.0</ele><time>2026-03-28T10:12:36Z</time></trkpt><trkpt lat="45.395493043399114" lon="11.594411559325122"><ele>18.0</ele><time>2026-03-28T10:12:37Z</time></trkpt><trkpt lat="45.39547998554131" lon="11.594205668013212"><ele>18.0</ele><time>2026-03-28T10:12:38Z</time></trkpt><trkpt lat="45.395464628937304" lon="11.593963531292648"><ele>18.0</ele><time>2026-03-28T10:12:39Z</time></trkpt><trkpt lat="45.395447944616414" lon="11.593700459503816"><ele>17.666666666666668</ele><time>2026-03-28T10:12:40Z</time></trkpt><trkpt lat="45.39543346487071" lon="11.59347214803246"><ele>17.333333333333336</ele><time>2026-03-28T10:12:41Z</time></trkpt><trkpt lat="45.39541998748605" lon="11.593256237948252"><ele>17.0</ele><time>2026-03-28T10:12:42Z</time></trkpt><trkpt lat="45.39540664309" lon="11.593042332171006"><ele>16.666666666666668</ele><time>2026-03-28T10:12:43Z</time></trkpt><trkpt lat="45.39539282923306" lon="11.592820901062538"><ele>16.333333333333332</ele><time>2026-03-28T10:12:44Z</time></trkpt><trkpt lat="45.39537903994917" lon="11.592592243215872"><ele>16.0</ele><time>2026-03-28T10:12:45Z</time></trkpt><trkpt lat="45.39536541376314" lon="11.592366095795578"><ele>16.0</ele><time>2026-03-28T10:12:46Z</time></trkpt><trkpt lat="45.39535162566442" lon="11.59213726129482"><ele>16.0</ele><time>2026-03-28T10:12:47Z</time></trkpt><trkpt lat="45.395337722686676" lon="11.591906518537705"><ele>16.0</ele><time>2026-03-28T10:12:48Z</time></trkpt><trkpt lat="45.39532302350506" lon="11.59168306074769"><ele>16.0</ele><time>2026-03-28T10:12:49Z</time></trkpt><trkpt lat="45.395308566099075" lon="11.591459899783972"><ele>16.0</ele><time>2026-03-28T10:12:50Z</time></trkpt><trkpt lat="45.395293975961465" lon="11.591234689945642"><ele>16.0</ele><time>2026-03-28T10:12:51Z</time></trkpt><trkpt lat="45.39528032939848" lon="11.591024045059726"><ele>16.5</ele><time>2026-03-28T10:12:52Z</time></trkpt><trkpt lat="45.39526674611582" lon="11.590814376737008"><ele>17.0</ele><time>2026-03-28T10:12:53Z</time></trkpt><trkpt lat="45.39523820840172" lon="11.590617404928965"><ele>17.5</ele><time>2026-03-28T10:12:54Z</time></trkpt><trkpt lat="45.39522327449634" lon="11.590401715210753"><ele>18.0</ele><time>2026-03-28T10:12:55Z</time></trkpt><trkpt lat="45.395226119217575" lon="11.590187395803396"><ele>18.5</ele><time>2026-03-28T10:12:56Z</time></trkpt><trkpt lat="45.39521074834586" lon="11.589984609572333"><ele>19.0</ele><time>2026-03-28T10:12:57Z</time></trkpt><trkpt lat="45.39517565337163" lon="11.589779376117404"><ele>19.5</ele><time>2026-03-28T10:12:58Z</time></trkpt><trkpt lat="45.39510429316803" lon="11.589581077335417"><ele>20.0</ele><time>2026-03-28T10:12:58.999Z</time></trkpt><trkpt lat="45.394994244594294" lon="11.589421667652081"><ele>19.75</ele><time>2026-03-28T10:12:59.999Z</time></trkpt><trkpt lat="45.39487437536526" lon="11.589282902336715"><ele>19.5</ele><time>2026-03-28T10:13:00.999Z</time></trkpt><trkpt lat="45.39476593760393" lon="11.589137477057161"><ele>19.25</ele><time>2026-03-28T10:13:01.999Z</time></trkpt><trkpt lat="45.39466887163406" lon="11.58898403053714"><ele>19.0</ele><time>2026-03-28T10:13:02.999Z</time></trkpt><trkpt lat="45.39458091147268" lon="11.588802963895585"><ele>19.666666666666664</ele><time>2026-03-28T10:13:03.999Z</time></trkpt><trkpt lat="45.394513433878764" lon="11.588591531673888"><ele>20.333333333333332</ele><time>2026-03-28T10:13:04.999Z</time></trkpt><trkpt lat="45.394447182826454" lon="11.588360948913442"><ele>21.0</ele><time>2026-03-28T10:13:05.999Z</time></trkpt><trkpt lat="45.39438546925279" lon="11.58811189703827"><ele>21.0</ele><time>2026-03-28T10:13:06.999Z</time></trkpt><trkpt lat="45.39433316302498" lon="11.587864874373356"><ele>21.0</ele><time>2026-03-28T10:13:07.999Z</time></trkpt><trkpt lat="45.39428925333329" lon="11.587619464337022"><ele>21.0</ele><time>2026-03-28T10:13:08.999Z</time></trkpt><trkpt lat="45.39423348822507" lon="11.587356430786436"><ele>22.666666666666664</ele><time>2026-03-28T10:13:09.999Z</time></trkpt><trkpt lat="45.39421074729819" lon="11.587111889106252"><ele>24.333333333333332</ele><time>2026-03-28T10:13:10.999Z</time></trkpt><trkpt lat="45.394175757387664" lon="11.586871437468933"><ele>26.0</ele><time>2026-03-28T10:13:11.999Z</time></trkpt><trkpt lat="45.39415415576292" lon="11.58663538058798"><ele>26.333333333333332</ele><time>2026-03-28T10:13:12.999Z</time></trkpt><trkpt lat="45.394143581738675" lon="11.586396435364492"><ele>26.666666666666664</ele><time>2026-03-28T10:13:13.999Z</time></trkpt><trkpt lat="45.39414472766664" lon="11.586185117068691"><ele>27.0</ele><time>2026-03-28T10:13:14.999Z</time></trkpt><trkpt lat="45.39415900667332" lon="11.585989056485873"><ele>26.333333333333336</ele><time>2026-03-28T10:13:15.999Z</time></trkpt><trkpt lat="45.394190441862015" lon="11.585786194641774"><ele>25.666666666666668</ele><time>2026-03-28T10:13:16.999Z</time></trkpt><trkpt lat="45.394235323160245" lon="11.58557387554378"><ele>25.0</ele><time>2026-03-28T10:13:17.999Z</time></trkpt><trkpt lat="45.394295433950866" lon="11.585343174137334"><ele>23.666666666666668</ele><time>2026-03-28T10:13:18.999Z</time></trkpt><trkpt lat="45.394345733477245" lon="11.585109312086383"><ele>22.333333333333336</ele><time>2026-03-28T10:13:19.999Z</time></trkpt><trkpt lat="45.39440606816699" lon="11.584915710974553"><ele>21.0</ele><time>2026-03-28T10:13:20.999Z</time></trkpt><trkpt lat="45.39445661901081" lon="11.584734557709144"><ele>21.0</ele><time>2026-03-28T10:13:21.999Z</time></trkpt><trkpt lat="45.39449376941238" lon="11.584550507856525"><ele>21.0</ele><time>2026-03-28T10:13:22.999Z</time></trkpt><trkpt lat="45.39449177791814" lon="11.584372860361622"><ele>21.0</ele><time>2026-03-28T10:13:23.999Z</time></trkpt><trkpt lat="45.3944592195805" lon="11.584164484809587"><ele>21.0</ele><time>2026-03-28T10:13:24.999Z</time></trkpt><trkpt lat="45.39440449727367" lon="11.583970416662082"><ele>20.25</ele><time>2026-03-28T10:13:25.999Z</time></trkpt><trkpt lat="45.39435612262502" lon="11.583800565224735"><ele>19.5</ele><time>2026-03-28T10:13:26.999Z</time></trkpt><trkpt lat="45.394311714687625" lon="11.5836520582204"><ele>18.75</ele><time>2026-03-28T10:13:27.999Z</time></trkpt><trkpt lat="45.394269827768255" lon="11.58351511047471"><ele>18.0</ele><time>2026-03-28T10:13:28.999Z</time></trkpt><trkpt lat="45.39421610361756" lon="11.583350202249527"><ele>18.0</ele><time>2026-03-28T10:13:29.999Z</time></trkpt><trkpt lat="45.39413787760485" lon="11.583163656228919"><ele>18.0</ele><time>2026-03-28T10:13:30.999Z</time></trkpt><trkpt lat="45.39408963826906" lon="11.58296594675458"><ele>18.0</ele><time>2026-03-28T10:13:31.999Z</time></trkpt><trkpt lat="45.39402126019943" lon="11.582761615447895"><ele>18.0</ele><time>2026-03-28T10:13:32.999Z</time></trkpt><trkpt lat="45.39395542225367" lon="11.582561984656612"><ele>18.0</ele><time>2026-03-28T10:13:33.999Z</time></trkpt><trkpt lat="45.39390533410309" lon="11.582384866234744"><ele>18.0</ele><time>2026-03-28T10:13:34.999Z</time></trkpt><trkpt lat="45.39384605608897" lon="11.582187773945199"><ele>18.0</ele><time>2026-03-28T10:13:35.999Z</time></trkpt><trkpt lat="45.39379070913415" lon="11.582002518431402"><ele>17.8</ele><time>2026-03-28T10:13:36.999Z</time></trkpt><trkpt lat="45.39374271250475" lon="11.581854033351373"><ele>17.6</ele><time>2026-03-28T10:13:37.999Z</time></trkpt><trkpt lat="45.39368851312914" lon="11.581750625521847"><ele>17.4</ele><time>2026-03-28T10:13:38.999Z</time></trkpt><trkpt lat="45.393612628200884" lon="11.581681603783606"><ele>17.2</ele><time>2026-03-28T10:13:39.999Z</time></trkpt><trkpt lat="45.393525928333766" lon="11.581660010160302"><ele>17.0</ele><time>2026-03-28T10:13:40.999Z</time></trkpt><trkpt lat="45.393431269851085" lon="11.581676429017481"><ele>17.0</ele><time>2026-03-28T10:13:41.999Z</time></trkpt><trkpt lat="45.39333359100373" lon="11.581673792311731"><ele>17.0</ele><time>2026-03-28T10:13:42.999Z</time></trkpt><trkpt lat="45.393238855256556" lon="11.581677136650105"><ele>17.0</ele><time>2026-03-28T10:13:43.999Z</time></trkpt><trkpt lat="45.393142631931504" lon="11.58170046093084"><ele>17.0</ele><time>2026-03-28T10:13:44.999Z</time></trkpt><trkpt lat="45.39304339264785" lon="11.581692767940451"><ele>17.0</ele><time>2026-03-28T10:13:45.999Z</time></trkpt><trkpt lat="45.39295309360044" lon="11.581700774180131"><ele>17.166666666666668</ele><time>2026-03-28T10:13:46.999Z</time></trkpt><trkpt lat="45.39285882443881" lon="11.581705824411218"><ele>17.333333333333336</ele><time>2026-03-28T10:13:48Z</time></trkpt><trkpt lat="45.39277460925777" lon="11.581711793358325"><ele>17.5</ele><time>2026-03-28T10:13:49Z</time></trkpt><trkpt lat="45.39270084686632" lon="11.581718605486941"><ele>17.666666666666668</ele><time>2026-03-28T10:13:50Z</time></trkpt><trkpt lat="45.392634788847474" lon="11.581719050200764"><ele>17.833333333333332</ele><time>2026-03-28T10:13:51Z</time></trkpt><trkpt lat="45.392556983943" lon="11.5817019992857"><ele>18.0</ele><time>2026-03-28T10:13:53Z</time></trkpt><trkpt lat="45.39253483091783" lon="11.581574822132179"><ele>18.0</ele><time>2026-03-28T10:13:56Z</time></trkpt><trkpt lat="45.392539535471556" lon="11.581456410369322"><ele>18.0</ele><time>2026-03-28T10:13:57Z</time></trkpt><trkpt lat="45.39253940001396" lon="11.581308181286065"><ele>18.0</ele><time>2026-03-28T10:13:58Z</time></trkpt><trkpt lat="45.392528159686904" lon="11.58113667329276"><ele>18.0</ele><time>2026-03-28T10:13:59Z</time></trkpt><trkpt lat="45.39252282880661" lon="11.58095068074424"><ele>18.0</ele><time>2026-03-28T10:14:00Z</time></trkpt><trkpt lat="45.392517297688485" lon="11.580786423421541"><ele>18.0</ele><time>2026-03-28T10:14:01Z</time></trkpt><trkpt lat="45.39251308463595" lon="11.580637978268612"><ele>18.0</ele><time>2026-03-28T10:14:02Z</time></trkpt><trkpt lat="45.39250326840382" lon="11.580493810632412"><ele>18.0</ele><time>2026-03-28T10:14:03Z</time></trkpt><trkpt lat="45.392499909847814" lon="11.580321863856724"><ele>18.0</ele><time>2026-03-28T10:14:04Z</time></trkpt><trkpt lat="45.392496094287075" lon="11.580146199763181"><ele>18.0</ele><time>2026-03-28T10:14:05Z</time></trkpt><trkpt lat="45.39249043846938" lon="11.57997198667545"><ele>18.0</ele><time>2026-03-28T10:14:06Z</time></trkpt><trkpt lat="45.39248247430563" lon="11.57979368596941"><ele>18.0</ele><time>2026-03-28T10:14:07Z</time></trkpt><trkpt lat="45.39247527110405" lon="11.57961220236327"><ele>18.0</ele><time>2026-03-28T10:14:08Z</time></trkpt><trkpt lat="45.3924680098792" lon="11.57942513114301"><ele>18.0</ele><time>2026-03-28T10:14:09Z</time></trkpt><trkpt lat="45.392456508073764" lon="11.579235185808859"><ele>18.0</ele><time>2026-03-28T10:14:10Z</time></trkpt><trkpt lat="45.392446798052774" lon="11.57904514124763"><ele>18.0</ele><time>2026-03-28T10:14:11Z</time></trkpt><trkpt lat="45.39243643287279" lon="11.578870321837748"><ele>18.0</ele><time>2026-03-28T10:14:12Z</time></trkpt><trkpt lat="45.39244107167825" lon="11.57870540141216"><ele>18.0</ele><time>2026-03-28T10:14:13Z</time></trkpt><trkpt lat="45.39241313550393" lon="11.57854729111949"><ele>18.0</ele><time>2026-03-28T10:14:14Z</time></trkpt><trkpt lat="45.392396597901595" lon="11.57838184278508"><ele>18.0</ele><time>2026-03-28T10:14:15Z</time></trkpt><trkpt lat="45.39238100019563" lon="11.57820438921908"><ele>18.0</ele><time>2026-03-28T10:14:16Z</time></trkpt><trkpt lat="45.39236297149861" lon="11.578036276185784"><ele>18.0</ele><time>2026-03-28T10:14:17Z</time></trkpt><trkpt lat="45.392343885458985" lon="11.577860166836516"><ele>18.0</ele><time>2026-03-28T10:14:18Z</time></trkpt><trkpt lat="45.39232672118845" lon="11.577678950780424"><ele>18.0</ele><time>2026-03-28T10:14:19Z</time></trkpt><trkpt lat="45.39231188544189" lon="11.57750246987013"><ele>18.0</ele><time>2026-03-28T10:14:20Z</time></trkpt><trkpt lat="45.39229701937488" lon="11.577337157385928"><ele>18.25</ele><time>2026-03-28T10:14:21Z</time></trkpt><trkpt lat="45.39228169292333" lon="11.577175840410842"><ele>18.5</ele><time>2026-03-28T10:14:22Z</time></trkpt><trkpt lat="45.3922678183762" lon="11.577017222250321"><ele>18.75</ele><time>2026-03-28T10:14:23Z</time></trkpt><trkpt lat="45.39226010719275" lon="11.576859350116553"><ele>19.0</ele><time>2026-03-28T10:14:24Z</time></trkpt><trkpt lat="45.39223663482007" lon="11.576703213879194"><ele>19.0</ele><time>2026-03-28T10:14:25Z</time></trkpt><trkpt lat="45.392219079856154" lon="11.576551642504"><ele>19.0</ele><time>2026-03-28T10:14:26Z</time></trkpt><trkpt lat="45.39220157144567" lon="11.57642678907838"><ele>19.0</ele><time>2026-03-28T10:14:27Z</time></trkpt><trkpt lat="45.39220764871373" lon="11.576306525333793"><ele>19.0</ele><time>2026-03-28T10:14:28Z</time></trkpt><trkpt lat="45.39219223256035" lon="11.57619811209088"><ele>19.0</ele><time>2026-03-28T10:14:29Z</time></trkpt><trkpt lat="45.39219119169294" lon="11.576105770157103"><ele>19.0</ele><time>2026-03-28T10:14:30Z</time></trkpt><trkpt lat="45.3921997867523" lon="11.575971618443265"><ele>19.0</ele><time>2026-03-28T10:14:32Z</time></trkpt><trkpt lat="45.39222989135058" lon="11.575816412961426"><ele>19.0</ele><time>2026-03-28T10:16:14Z</time></trkpt><trkpt lat="45.392253770209415" lon="11.575700762750714"><ele>19.0</ele><time>2026-03-28T10:16:16Z</time></trkpt><trkpt lat="45.39226462580571" lon="11.575589198931004"><ele>19.0</ele><time>2026-03-28T10:16:18Z</time></trkpt><trkpt lat="45.392090748387766" lon="11.575470986942408"><ele>19.0</ele><time>2026-03-28T10:16:19Z</time></trkpt><trkpt lat="45.39203664086763" lon="11.575397404797677"><ele>19.0</ele><time>2026-03-28T10:16:20Z</time></trkpt><trkpt lat="45.39208521526528" lon="11.575200704469358"><ele>19.0</ele><time>2026-03-28T10:16:22Z</time></trkpt><trkpt lat="45.392094734905946" lon="11.5750556052798"><ele>19.0</ele><time>2026-03-28T10:16:23Z</time></trkpt><trkpt lat="45.392106198105296" lon="11.57486080986708"><ele>19.0</ele><time>2026-03-28T10:16:24Z</time></trkpt><trkpt lat="45.39211051495189" lon="11.574644549860617"><ele>19.0</ele><time>2026-03-28T10:16:25Z</time></trkpt><trkpt lat="45.3921463059683" lon="11.574419236607222"><ele>19.0</ele><time>2026-03-28T10:16:26Z</time></trkpt><trkpt lat="45.39219652936962" lon="11.574191946659312"><ele>19.0</ele><time>2026-03-28T10:16:27Z</time></trkpt><trkpt lat="45.39225748633487" lon="11.573953448525538"><ele>19.0</ele><time>2026-03-28T10:16:28Z</time></trkpt><trkpt lat="45.392312260787094" lon="11.573745623643921"><ele>19.0</ele><time>2026-03-28T10:16:29Z</time></trkpt><trkpt lat="45.39236278045989" lon="11.573543809199935"><ele>18.666666666666664</ele><time>2026-03-28T10:16:30Z</time></trkpt><trkpt lat="45.39240052557078" lon="11.573317263126187"><ele>18.333333333333332</ele><time>2026-03-28T10:16:31Z</time></trkpt><trkpt lat="45.39244621818357" lon="11.573082584409494"><ele>18.0</ele><time>2026-03-28T10:16:32Z</time></trkpt><trkpt lat="45.39248103790201" lon="11.572856097054428"><ele>18.0</ele><time>2026-03-28T10:16:33Z</time></trkpt><trkpt lat="45.3925043538086" lon="11.572628059637092"><ele>18.0</ele><time>2026-03-28T10:16:34Z</time></trkpt><trkpt lat="45.392516663247164" lon="11.57239191926293"><ele>18.0</ele><time>2026-03-28T10:16:35Z</time></trkpt><trkpt lat="45.39251748223044" lon="11.572149848992192"><ele>18.0</ele><time>2026-03-28T10:16:36Z</time></trkpt><trkpt lat="45.39251051260898" lon="11.571896671576905"><ele>18.0</ele><time>2026-03-28T10:16:37Z</time></trkpt><trkpt lat="45.39250504273449" lon="11.571631933636853"><ele>18.0</ele><time>2026-03-28T10:16:38Z</time></trkpt><trkpt lat="45.39250446534037" lon="11.571361293363935"><ele>18.25</ele><time>2026-03-28T10:16:39Z</time></trkpt><trkpt lat="45.39249558394526" lon="11.57112490474941"><ele>18.5</ele><time>2026-03-28T10:16:40Z</time></trkpt><trkpt lat="45.39249101671219" lon="11.570917267518597"><ele>18.75</ele><time>2026-03-28T10:16:41Z</time></trkpt><trkpt lat="45.39253073061479" lon="11.570738980206013"><ele>19.0</ele><time>2026-03-28T10:16:42Z</time></trkpt><trkpt lat="45.392581609803024" lon="11.570572633630777"><ele>19.0</ele><time>2026-03-28T10:16:43Z</time></trkpt><trkpt lat="45.3926691958083" lon="11.570425770554328"><ele>19.0</ele><time>2026-03-28T10:16:44Z</time></trkpt><trkpt lat="45.39277493526462" lon="11.57030909006125"><ele>19.0</ele><time>2026-03-28T10:16:45Z</time></trkpt><trkpt lat="45.392901577481254" lon="11.570231944256328"><ele>19.0</ele><time>2026-03-28T10:16:46Z</time></trkpt><trkpt lat="45.39305450946153" lon="11.5701952461997"><ele>18.333333333333332</ele><time>2026-03-28T10:16:47Z</time></trkpt><trkpt lat="45.393220731697944" lon="11.570173091016885"><ele>17.666666666666668</ele><time>2026-03-28T10:16:48Z</time></trkpt><trkpt lat="45.393407949108855" lon="11.570149873226766"><ele>17.0</ele><time>2026-03-28T10:16:49Z</time></trkpt><trkpt lat="45.39361593213569" lon="11.57011127200333"><ele>17.0</ele><time>2026-03-28T10:16:50Z</time></trkpt><trkpt lat="45.393834213130845" lon="11.570083904704836"><ele>17.0</ele><time>2026-03-28T10:16:51Z</time></trkpt><trkpt lat="45.394017122228206" lon="11.570069542577876"><ele>17.0</ele><time>2026-03-28T10:16:52Z</time></trkpt><trkpt lat="45.39418053673276" lon="11.570049379604548"><ele>17.333333333333336</ele><time>2026-03-28T10:16:53Z</time></trkpt><trkpt lat="45.39433454044443" lon="11.569990686718077"><ele>17.666666666666668</ele><time>2026-03-28T10:16:54Z</time></trkpt><trkpt lat="45.394476734163426" lon="11.569888138023318"><ele>18.0</ele><time>2026-03-28T10:16:55Z</time></trkpt><trkpt lat="45.394608834518216" lon="11.56976025896702"><ele>18.333333333333332</ele><time>2026-03-28T10:16:56Z</time></trkpt><trkpt lat="45.39474388142065" lon="11.569588025546365"><ele>18.666666666666664</ele><time>2026-03-28T10:16:57Z</time></trkpt><trkpt lat="45.39488268036441" lon="11.569443309085749"><ele>19.0</ele><time>2026-03-28T10:16:58Z</time></trkpt><trkpt lat="45.39500241561028" lon="11.569282022220067"><ele>18.666666666666664</ele><time>2026-03-28T10:16:59Z</time></trkpt><trkpt lat="45.395104419151345" lon="11.569095037847603"><ele>18.333333333333332</ele><time>2026-03-28T10:17:00Z</time></trkpt><trkpt lat="45.395210481446725" lon="11.568895378139823"><ele>18.0</ele><time>2026-03-28T10:17:01Z</time></trkpt><trkpt lat="45.39531847443677" lon="11.568687053408746"><ele>18.0</ele><time>2026-03-28T10:17:02Z</time></trkpt><trkpt lat="45.3954276580261" lon="11.568482690149095"><ele>18.0</ele><time>2026-03-28T10:17:03Z</time></trkpt><trkpt lat="45.39553804798304" lon="11.568276395023707"><ele>18.0</ele><time>2026-03-28T10:17:04Z</time></trkpt><trkpt lat="45.39566056703113" lon="11.568086104986035"><ele>18.0</ele><time>2026-03-28T10:17:04.999Z</time></trkpt><trkpt lat="45.3957765612937" lon="11.567871141786702"><ele>18.0</ele><time>2026-03-28T10:17:05.999Z</time></trkpt><trkpt lat="45.39589209097487" lon="11.567657310547737"><ele>18.0</ele><time>2026-03-28T10:17:06.999Z</time></trkpt><trkpt lat="45.39600433198331" lon="11.56744952165029"><ele>18.0</ele><time>2026-03-28T10:17:07.999Z</time></trkpt><trkpt lat="45.3961112097843" lon="11.567251661935083"><ele>18.0</ele><time>2026-03-28T10:17:08.999Z</time></trkpt><trkpt lat="45.39621712419528" lon="11.567027002748201"><ele>18.0</ele><time>2026-03-28T10:17:09.999Z</time></trkpt><trkpt lat="45.39634221120316" lon="11.566842491707657"><ele>17.666666666666668</ele><time>2026-03-28T10:17:10.999Z</time></trkpt><trkpt lat="45.396464126106636" lon="11.566649189960328"><ele>17.333333333333336</ele><time>2026-03-28T10:17:11.999Z</time></trkpt><trkpt lat="45.39658310012613" lon="11.566432170039038"><ele>17.0</ele><time>2026-03-28T10:17:12.999Z</time></trkpt><trkpt lat="45.396717460619044" lon="11.5662432536199"><ele>17.333333333333336</ele><time>2026-03-28T10:17:13.999Z</time></trkpt><trkpt lat="45.39685193850405" lon="11.566057548852259"><ele>17.666666666666668</ele><time>2026-03-28T10:17:14.999Z</time></trkpt><trkpt lat="45.39699978696804" lon="11.565872789653707"><ele>18.0</ele><time>2026-03-28T10:17:15.999Z</time></trkpt><trkpt lat="45.397161566346206" lon="11.565676142635104"><ele>18.333333333333332</ele><time>2026-03-28T10:17:16.999Z</time></trkpt><trkpt lat="45.39732466333422" lon="11.565509454960035"><ele>18.666666666666664</ele><time>2026-03-28T10:17:17.999Z</time></trkpt><trkpt lat="45.39746762208803" lon="11.565336617731171"><ele>19.0</ele><time>2026-03-28T10:17:18.999Z</time></trkpt><trkpt lat="45.397640486483205" lon="11.565250474742554"><ele>19.0</ele><time>2026-03-28T10:17:19.999Z</time></trkpt><trkpt lat="45.39773365474566" lon="11.564986339194663"><ele>19.0</ele><time>2026-03-28T10:17:20.999Z</time></trkpt><trkpt lat="45.397888422981794" lon="11.564813421682768"><ele>19.0</ele><time>2026-03-28T10:17:21.999Z</time></trkpt><trkpt lat="45.39805344491168" lon="11.564623566608523"><ele>19.333333333333332</ele><time>2026-03-28T10:17:22.999Z</time></trkpt><trkpt lat="45.398215202582854" lon="11.564434633558566"><ele>19.666666666666668</ele><time>2026-03-28T10:17:23.999Z</time></trkpt><trkpt lat="45.39838048554791" lon="11.564233932139368"><ele>20.0</ele><time>2026-03-28T10:17:24.999Z</time></trkpt><trkpt lat="45.39854827780204" lon="11.56402643786002"><ele>20.0</ele><time>2026-03-28T10:17:25.999Z</time></trkpt><trkpt lat="45.39872182684867" lon="11.563819463327656"><ele>20.0</ele><time>2026-03-28T10:17:26.999Z</time></trkpt><trkpt lat="45.39890254393144" lon="11.563601911059802"><ele>18.5</ele><time>2026-03-28T10:17:27.999Z</time></trkpt><trkpt lat="45.399088616453454" lon="11.563372373077321"><ele>17.0</ele><time>2026-03-28T10:17:28.999Z</time></trkpt><trkpt lat="45.39930025038372" lon="11.563144701212925"><ele>17.0</ele><time>2026-03-28T10:17:29.999Z</time></trkpt><trkpt lat="45.399504748499346" lon="11.562869992705604"><ele>17.0</ele><time>2026-03-28T10:17:30.999Z</time></trkpt><trkpt lat="45.399717255761836" lon="11.562610479894515"><ele>16.5</ele><time>2026-03-28T10:17:31.999Z</time></trkpt><trkpt lat="45.39989393992906" lon="11.562368109072867"><ele>16.0</ele><time>2026-03-28T10:17:32.999Z</time></trkpt><trkpt lat="45.40005176625985" lon="11.56213214253617"><ele>15.666666666666666</ele><time>2026-03-28T10:17:33.999Z</time></trkpt><trkpt lat="45.400188915365554" lon="11.561890053919031"><ele>15.333333333333332</ele><time>2026-03-28T10:17:34.999Z</time></trkpt><trkpt lat="45.40031288649321" lon="11.561636457275048"><ele>15.0</ele><time>2026-03-28T10:17:35.999Z</time></trkpt><trkpt lat="45.400423812548915" lon="11.561366226613892"><ele>15.666666666666668</ele><time>2026-03-28T10:17:36.999Z</time></trkpt><trkpt lat="45.40052703661873" lon="11.561091696204148"><ele>16.333333333333336</ele><time>2026-03-28T10:17:37.999Z</time></trkpt><trkpt lat="45.40061597690459" lon="11.560809964462276"><ele>17.0</ele><time>2026-03-28T10:17:38.999Z</time></trkpt><trkpt lat="45.40070752171985" lon="11.560525010534583"><ele>16.666666666666668</ele><time>2026-03-28T10:17:39.999Z</time></trkpt><trkpt lat="45.40078213648278" lon="11.560225147091867"><ele>16.333333333333332</ele><time>2026-03-28T10:17:40.999Z</time></trkpt><trkpt lat="45.40085702791134" lon="11.559921506736869"><ele>16.0</ele><time>2026-03-28T10:17:41.999Z</time></trkpt><trkpt lat="45.40093059191739" lon="11.559623248117967"><ele>16.0</ele><time>2026-03-28T10:17:42.999Z</time></trkpt><trkpt lat="45.40100739449203" lon="11.559311859144211"><ele>16.0</ele><time>2026-03-28T10:17:43.999Z</time></trkpt><trkpt lat="45.40108591934668" lon="11.558997045065027"><ele>16.0</ele><time>2026-03-28T10:17:44.999Z</time></trkpt><trkpt lat="45.401184343753144" lon="11.558679903383146"><ele>16.0</ele><time>2026-03-28T10:17:45.999Z</time></trkpt><trkpt lat="45.40129054718674" lon="11.558369476495718"><ele>16.0</ele><time>2026-03-28T10:17:46.999Z</time></trkpt><trkpt lat="45.401385508704806" lon="11.558087560424719"><ele>16.0</ele><time>2026-03-28T10:17:47.999Z</time></trkpt><trkpt lat="45.401469013440995" lon="11.557827263115378"><ele>16.0</ele><time>2026-03-28T10:17:48.999Z</time></trkpt><trkpt lat="45.401551217521025" lon="11.557587008322669"><ele>16.0</ele><time>2026-03-28T10:17:49.999Z</time></trkpt><trkpt lat="45.40164155334159" lon="11.557359819338318"><ele>16.0</ele><time>2026-03-28T10:17:50.999Z</time></trkpt><trkpt lat="45.4017527712329" lon="11.557132663455349"><ele>16.0</ele><time>2026-03-28T10:17:51.999Z</time></trkpt><trkpt lat="45.40186548303666" lon="11.556927756969895"><ele>16.0</ele><time>2026-03-28T10:17:52.999Z</time></trkpt><trkpt lat="45.40198706304036" lon="11.556751855167969"><ele>16.0</ele><time>2026-03-28T10:17:53.999Z</time></trkpt><trkpt lat="45.40212710760901" lon="11.556591650298486"><ele>16.0</ele><time>2026-03-28T10:17:54.999Z</time></trkpt><trkpt lat="45.40227809472645" lon="11.556424966652614"><ele>16.666666666666664</ele><time>2026-03-28T10:17:55.999Z</time></trkpt><trkpt lat="45.40246287104883" lon="11.556321614252743"><ele>17.333333333333332</ele><time>2026-03-28T10:17:56.999Z</time></trkpt><trkpt lat="45.402664699669515" lon="11.556252417652303"><ele>18.0</ele><time>2026-03-28T10:17:57.999Z</time></trkpt><trkpt lat="45.402872997757854" lon="11.556197500522668"><ele>18.0</ele><time>2026-03-28T10:17:58.999Z</time></trkpt><trkpt lat="45.40309143035381" lon="11.55615156455233"><ele>18.0</ele><time>2026-03-28T10:18:00Z</time></trkpt><trkpt lat="45.40331184627637" lon="11.556065285466147"><ele>18.0</ele><time>2026-03-28T10:18:01Z</time></trkpt><trkpt lat="45.403520643115144" lon="11.555960212913812"><ele>18.0</ele><time>2026-03-28T10:18:02Z</time></trkpt><trkpt lat="45.4037047771795" lon="11.555851319187239"><ele>18.0</ele><time>2026-03-28T10:18:03Z</time></trkpt><trkpt lat="45.40387241996005" lon="11.555746583449785"><ele>18.0</ele><time>2026-03-28T10:18:04Z</time></trkpt><trkpt lat="45.40404222441514" lon="11.555659343635801"><ele>17.666666666666668</ele><time>2026-03-28T10:18:05Z</time></trkpt><trkpt lat="45.404185857309756" lon="11.55557725296866"><ele>17.333333333333336</ele><time>2026-03-28T10:18:06Z</time></trkpt><trkpt lat="45.40433919077205" lon="11.555491290334421"><ele>17.0</ele><time>2026-03-28T10:18:07Z</time></trkpt><trkpt lat="45.404497294983564" lon="11.555403116394377"><ele>17.333333333333336</ele><time>2026-03-28T10:18:08Z</time></trkpt><trkpt lat="45.404648863206724" lon="11.555298878460606"><ele>17.666666666666668</ele><time>2026-03-28T10:18:09Z</time></trkpt><trkpt lat="45.40479976017291" lon="11.555212660962209"><ele>18.0</ele><time>2026-03-28T10:18:10Z</time></trkpt><trkpt lat="45.40495325410957" lon="11.555126532812434"><ele>18.333333333333332</ele><time>2026-03-28T10:18:11Z</time></trkpt><trkpt lat="45.40510128979028" lon="11.55504599009768"><ele>18.666666666666664</ele><time>2026-03-28T10:18:12Z</time></trkpt><trkpt lat="45.405252824816294" lon="11.55497144137637"><ele>19.0</ele><time>2026-03-28T10:18:13Z</time></trkpt><trkpt lat="45.40540042935203" lon="11.55489395055109"><ele>19.0</ele><time>2026-03-28T10:18:14Z</time></trkpt><trkpt lat="45.40554995468338" lon="11.55480979474627"><ele>19.0</ele><time>2026-03-28T10:18:15Z</time></trkpt><trkpt lat="45.40569514694908" lon="11.554721225383444"><ele>19.0</ele><time>2026-03-28T10:18:16Z</time></trkpt><trkpt lat="45.40583357444672" lon="11.55465953129924"><ele>19.0</ele><time>2026-03-28T10:18:17Z</time></trkpt><trkpt lat="45.40595779188598" lon="11.554589268523436"><ele>19.0</ele><time>2026-03-28T10:18:18Z</time></trkpt><trkpt lat="45.40608271706629" lon="11.554518605419112"><ele>19.0</ele><time>2026-03-28T10:18:19Z</time></trkpt><trkpt lat="45.40616248892578" lon="11.554286188906413"><ele>19.666666666666664</ele><time>2026-03-28T10:18:20Z</time></trkpt><trkpt lat="45.40626021127481" lon="11.554124690645432"><ele>20.333333333333332</ele><time>2026-03-28T10:18:21Z</time></trkpt><trkpt lat="45.40634207713443" lon="11.553944320494685"><ele>21.0</ele><time>2026-03-28T10:18:22Z</time></trkpt><trkpt lat="45.406419292628726" lon="11.55376179960459"><ele>21.666666666666668</ele><time>2026-03-28T10:18:23Z</time></trkpt><trkpt lat="45.40650427291126" lon="11.553582662702274"><ele>22.333333333333336</ele><time>2026-03-28T10:18:24Z</time></trkpt><trkpt lat="45.40659096825248" lon="11.553404841534464"><ele>23.0</ele><time>2026-03-28T10:18:25Z</time></trkpt><trkpt lat="45.406675124020175" lon="11.553230013652023"><ele>23.0</ele><time>2026-03-28T10:18:26Z</time></trkpt><trkpt lat="45.406757606601204" lon="11.553056601978716"><ele>23.0</ele><time>2026-03-28T10:18:27Z</time></trkpt><trkpt lat="45.406842313763825" lon="11.55288741217314"><ele>23.0</ele><time>2026-03-28T10:18:28Z</time></trkpt><trkpt lat="45.40692867300737" lon="11.55271843424189"><ele>23.0</ele><time>2026-03-28T10:18:29Z</time></trkpt><trkpt lat="45.40701870292834" lon="11.552538124137621"><ele>23.0</ele><time>2026-03-28T10:18:30Z</time></trkpt><trkpt lat="45.40710556310027" lon="11.552358080459586"><ele>23.0</ele><time>2026-03-28T10:18:31Z</time></trkpt><trkpt lat="45.40718511537923" lon="11.552190535437996"><ele>23.0</ele><time>2026-03-28T10:18:32Z</time></trkpt><trkpt lat="45.40727854050287" lon="11.55200409903557"><ele>23.333333333333336</ele><time>2026-03-28T10:18:33Z</time></trkpt><trkpt lat="45.40737374802008" lon="11.55179943461806"><ele>23.666666666666668</ele><time>2026-03-28T10:18:34Z</time></trkpt><trkpt lat="45.407477279607136" lon="11.551597308362151"><ele>24.0</ele><time>2026-03-28T10:18:35Z</time></trkpt><trkpt lat="45.4075778787274" lon="11.551401424954467"><ele>24.666666666666664</ele><time>2026-03-28T10:18:36Z</time></trkpt><trkpt lat="45.40767226616019" lon="11.551206934074191"><ele>25.333333333333332</ele><time>2026-03-28T10:18:37Z</time></trkpt><trkpt lat="45.407763617526676" lon="11.55101465713288"><ele>26.0</ele><time>2026-03-28T10:18:38Z</time></trkpt><trkpt lat="45.40785804493386" lon="11.550821966577082"><ele>26.0</ele><time>2026-03-28T10:18:39Z</time></trkpt><trkpt lat="45.40794360341702" lon="11.550640756019632"><ele>26.0</ele><time>2026-03-28T10:18:40Z</time></trkpt><trkpt lat="45.40802486608215" lon="11.5504698587414"><ele>26.0</ele><time>2026-03-28T10:18:41Z</time></trkpt><trkpt lat="45.40810786604455" lon="11.550300615137813"><ele>26.0</ele><time>2026-03-28T10:18:42Z</time></trkpt><trkpt lat="45.40819170332177" lon="11.55013080389582"><ele>26.5</ele><time>2026-03-28T10:18:43Z</time></trkpt><trkpt lat="45.40827039653905" lon="11.549961464950089"><ele>27.0</ele><time>2026-03-28T10:18:44Z</time></trkpt><trkpt lat="45.4083485646409" lon="11.549797260293188"><ele>27.5</ele><time>2026-03-28T10:18:45Z</time></trkpt><trkpt lat="45.40842412374063" lon="11.549625879055975"><ele>28.0</ele><time>2026-03-28T10:18:46Z</time></trkpt><trkpt lat="45.40849756436716" lon="11.549449277993354"><ele>28.5</ele><time>2026-03-28T10:18:47Z</time></trkpt><trkpt lat="45.408560428460724" lon="11.549269936861274"><ele>29.0</ele><time>2026-03-28T10:18:48Z</time></trkpt><trkpt lat="45.40862255682754" lon="11.549087641600236"><ele>29.5</ele><time>2026-03-28T10:18:49Z</time></trkpt><trkpt lat="45.40867998697649" lon="11.54890547869852"><ele>30.0</ele><time>2026-03-28T10:18:50Z</time></trkpt><trkpt lat="45.40873097046667" lon="11.548712979203968"><ele>30.0</ele><time>2026-03-28T10:18:51Z</time></trkpt><trkpt lat="45.408767166540464" lon="11.548504688463185"><ele>30.0</ele><time>2026-03-28T10:18:52Z</time></trkpt><trkpt lat="45.40879504638746" lon="11.54829729334183"><ele>30.0</ele><time>2026-03-28T10:18:53Z</time></trkpt><trkpt lat="45.408821460518055" lon="11.5481093658186"><ele>30.0</ele><time>2026-03-28T10:18:54Z</time></trkpt><trkpt lat="45.40884165059712" lon="11.547926256792962"><ele>31.0</ele><time>2026-03-28T10:18:55Z</time></trkpt><trkpt lat="45.40885749437672" lon="11.547744035642822"><ele>32.0</ele><time>2026-03-28T10:18:56Z</time></trkpt><trkpt lat="45.40887326400245" lon="11.547556159519605"><ele>33.0</ele><time>2026-03-28T10:18:57Z</time></trkpt><trkpt lat="45.40888628946653" lon="11.547371258667702"><ele>34.0</ele><time>2026-03-28T10:18:58Z</time></trkpt><trkpt lat="45.40890125393994" lon="11.547200656698859"><ele>34.5</ele><time>2026-03-28T10:18:59Z</time></trkpt><trkpt lat="45.408914414897865" lon="11.547032462616828"><ele>35.0</ele><time>2026-03-28T10:19:00Z</time></trkpt><trkpt lat="45.40892488991114" lon="11.546862416501734"><ele>35.5</ele><time>2026-03-28T10:19:01Z</time></trkpt><trkpt lat="45.40893560776423" lon="11.546697600236543"><ele>36.0</ele><time>2026-03-28T10:19:02Z</time></trkpt><trkpt lat="45.40894631387798" lon="11.546526436432057"><ele>36.0</ele><time>2026-03-28T10:19:03Z</time></trkpt><trkpt lat="45.40896168448483" lon="11.546352716737852"><ele>36.0</ele><time>2026-03-28T10:19:04Z</time></trkpt><trkpt lat="45.408971311764155" lon="11.546156290078311"><ele>36.0</ele><time>2026-03-28T10:19:05Z</time></trkpt><trkpt lat="45.4089852956233" lon="11.54595123775446"><ele>36.0</ele><time>2026-03-28T10:19:06Z</time></trkpt><trkpt lat="45.40899546373394" lon="11.545760026753884"><ele>36.5</ele><time>2026-03-28T10:19:07Z</time></trkpt><trkpt lat="45.40901257898698" lon="11.545587614531762"><ele>37.0</ele><time>2026-03-28T10:19:08Z</time></trkpt><trkpt lat="45.40902475931096" lon="11.545411890270417"><ele>37.5</ele><time>2026-03-28T10:19:08.999Z</time></trkpt><trkpt lat="45.40903834488533" lon="11.545249037112317"><ele>38.0</ele><time>2026-03-28T10:19:09.999Z</time></trkpt><trkpt lat="45.4090520950187" lon="11.545079615908278"><ele>38.75</ele><time>2026-03-28T10:19:10.999Z</time></trkpt><trkpt lat="45.40906459121795" lon="11.54491236646978"><ele>39.5</ele><time>2026-03-28T10:19:11.999Z</time></trkpt><trkpt lat="45.409075510385925" lon="11.544741616987487"><ele>40.25</ele><time>2026-03-28T10:19:12.999Z</time></trkpt><trkpt lat="45.40908567181405" lon="11.544574551272078"><ele>41.0</ele><time>2026-03-28T10:19:13.999Z</time></trkpt><trkpt lat="45.40912041233191" lon="11.544404460591114"><ele>41.599999999999994</ele><time>2026-03-28T10:19:14.999Z</time></trkpt><trkpt lat="45.40912137624147" lon="11.544249268476486"><ele>42.2</ele><time>2026-03-28T10:19:15.999Z</time></trkpt><trkpt lat="45.40911930695452" lon="11.54409148043516"><ele>42.8</ele><time>2026-03-28T10:19:16.999Z</time></trkpt><trkpt lat="45.409117891575804" lon="11.543941630583447"><ele>43.400000000000006</ele><time>2026-03-28T10:19:17.999Z</time></trkpt><trkpt lat="45.40911647864047" lon="11.543792039941572"><ele>44.0</ele><time>2026-03-28T10:19:18.999Z</time></trkpt><trkpt lat="45.40911595922018" lon="11.543661043746186"><ele>44.33333333333333</ele><time>2026-03-28T10:19:19.999Z</time></trkpt><trkpt lat="45.40911553724562" lon="11.543550345375433"><ele>44.666666666666664</ele><time>2026-03-28T10:19:20.999Z</time></trkpt><trkpt lat="45.40911460836426" lon="11.543440669861253"><ele>45.0</ele><time>2026-03-28T10:19:21.999Z</time></trkpt><trkpt lat="45.40911367755449" lon="11.54332964595608"><ele>45.333333333333336</ele><time>2026-03-28T10:19:22.999Z</time></trkpt><trkpt lat="45.40911286704446" lon="11.543232971410811"><ele>45.66666666666667</ele><time>2026-03-28T10:19:23.999Z</time></trkpt><trkpt lat="45.40911162032179" lon="11.54308426706716"><ele>46.0</ele><time>2026-03-28T10:19:25.999Z</time></trkpt><trkpt lat="45.40911070689831" lon="11.542975315614285"><ele>46.75</ele><time>2026-03-28T10:19:26.999Z</time></trkpt><trkpt lat="45.4090925401934" lon="11.542802818527088"><ele>47.5</ele><time>2026-03-28T10:19:27.999Z</time></trkpt><trkpt lat="45.40909137819525" lon="11.542596672413772"><ele>48.25</ele><time>2026-03-28T10:19:28.999Z</time></trkpt><trkpt lat="45.40911460098633" lon="11.542389220271271"><ele>49.0</ele><time>2026-03-28T10:19:29.999Z</time></trkpt><trkpt lat="45.40913238014576" lon="11.542155057225061"><ele>50.33333333333333</ele><time>2026-03-28T10:19:30.999Z</time></trkpt><trkpt lat="45.40916288044564" lon="11.54192202218963"><ele>51.66666666666667</ele><time>2026-03-28T10:19:31.999Z</time></trkpt><trkpt lat="45.40921162151242" lon="11.541662640530868"><ele>53.0</ele><time>2026-03-28T10:19:32.999Z</time></trkpt><trkpt lat="45.409267157089964" lon="11.541389049099772"><ele>53.66666666666667</ele><time>2026-03-28T10:19:33.999Z</time></trkpt><trkpt lat="45.40932359923597" lon="11.541112668032556"><ele>54.33333333333333</ele><time>2026-03-28T10:19:34.999Z</time></trkpt><trkpt lat="45.40936951845631" lon="11.540881734696589"><ele>55.0</ele><time>2026-03-28T10:19:35.999Z</time></trkpt><trkpt lat="45.4094162661474" lon="11.54065055159767"><ele>55.0</ele><time>2026-03-28T10:19:36.999Z</time></trkpt><trkpt lat="45.409432179006565" lon="11.54043966523185"><ele>55.0</ele><time>2026-03-28T10:19:37.999Z</time></trkpt><trkpt lat="45.40947199810431" lon="11.540273193780463"><ele>55.0</ele><time>2026-03-28T10:19:38.999Z</time></trkpt><trkpt lat="45.409511367717656" lon="11.540099454200778"><ele>55.0</ele><time>2026-03-28T10:19:39.999Z</time></trkpt><trkpt lat="45.409549307093" lon="11.539947693478474"><ele>55.4</ele><time>2026-03-28T10:19:40.999Z</time></trkpt><trkpt lat="45.409627586599655" lon="11.539846747752946"><ele>55.8</ele><time>2026-03-28T10:19:41.999Z</time></trkpt><trkpt lat="45.40966481875245" lon="11.539748636248426"><ele>56.2</ele><time>2026-03-28T10:19:42.999Z</time></trkpt><trkpt lat="45.40969178989356" lon="11.539661196107943"><ele>56.6</ele><time>2026-03-28T10:19:43.999Z</time></trkpt><trkpt lat="45.40978959038583" lon="11.53962404890671"><ele>57.0</ele><time>2026-03-28T10:19:45.999Z</time></trkpt><trkpt lat="45.40990480066713" lon="11.539639349622233"><ele>58.0</ele><time>2026-03-28T10:19:47.999Z</time></trkpt><trkpt lat="45.40997920875705" lon="11.539658724061052"><ele>59.0</ele><time>2026-03-28T10:19:48.999Z</time></trkpt><trkpt lat="45.410069395369966" lon="11.539671687373596"><ele>60.0</ele><time>2026-03-28T10:19:49.999Z</time></trkpt><trkpt lat="45.41017041187238" lon="11.539692591263668"><ele>61.0</ele><time>2026-03-28T10:19:50.999Z</time></trkpt><trkpt lat="45.410281733729676" lon="11.53971982458287"><ele>62.0</ele><time>2026-03-28T10:19:51.999Z</time></trkpt><trkpt lat="45.410375358472386" lon="11.53974083564736"><ele>62.0</ele><time>2026-03-28T10:19:52.999Z</time></trkpt><trkpt lat="45.41044824764743" lon="11.539752300807699"><ele>62.00000000000001</ele><time>2026-03-28T10:19:53.999Z</time></trkpt><trkpt lat="45.41051321805057" lon="11.539760331606487"><ele>62.0</ele><time>2026-03-28T10:19:54.999Z</time></trkpt><trkpt lat="45.41057811222486" lon="11.539684593704644"><ele>62.0</ele><time>2026-03-28T10:19:55.999Z</time></trkpt><trkpt lat="45.4106101076402" lon="11.539564509966283"><ele>62.00000000000001</ele><time>2026-03-28T10:19:56.999Z</time></trkpt><trkpt lat="45.41067019976731" lon="11.539537356808149"><ele>62.0</ele><time>2026-03-28T10:19:57.999Z</time></trkpt><trkpt lat="45.41072781084103" lon="11.539589698344592"><ele>62.0</ele><time>2026-03-28T10:19:58.999Z</time></trkpt><trkpt lat="45.4107911403388" lon="11.539687167749674"><ele>63.0</ele><time>2026-03-28T10:19:59.999Z</time></trkpt><trkpt lat="45.41085037651161" lon="11.53976706369451"><ele>64.0</ele><time>2026-03-28T10:20:00.999Z</time></trkpt><trkpt lat="45.41091197369703" lon="11.539792554739291"><ele>65.0</ele><time>2026-03-28T10:20:01.999Z</time></trkpt><trkpt lat="45.41098266490233" lon="11.539774269195311"><ele>66.0</ele><time>2026-03-28T10:20:02.999Z</time></trkpt><trkpt lat="45.41104014855" lon="11.539638918740655"><ele>67.0</ele><time>2026-03-28T10:20:03.999Z</time></trkpt><trkpt lat="45.411107819960094" lon="11.539483435134997"><ele>67.25</ele><time>2026-03-28T10:20:04.999Z</time></trkpt><trkpt lat="45.41118410449526" lon="11.539304629150005"><ele>67.5</ele><time>2026-03-28T10:20:06Z</time></trkpt><trkpt lat="45.41125587662727" lon="11.539113582508417"><ele>67.75</ele><time>2026-03-28T10:20:07Z</time></trkpt><trkpt lat="45.41130268597121" lon="11.538950195577183"><ele>68.0</ele><time>2026-03-28T10:20:08Z</time></trkpt><trkpt lat="45.411324386980674" lon="11.538773206896092"><ele>70.0</ele><time>2026-03-28T10:20:09Z</time></trkpt><trkpt lat="45.411362935913445" lon="11.53863118916925"><ele>72.0</ele><time>2026-03-28T10:20:10Z</time></trkpt><trkpt lat="45.41139386814393" lon="11.53852153973974"><ele>74.0</ele><time>2026-03-28T10:20:11Z</time></trkpt><trkpt lat="45.41143327318899" lon="11.53844737938668"><ele>76.0</ele><time>2026-03-28T10:20:12Z</time></trkpt><trkpt lat="45.4115106576454" lon="11.538411281973053"><ele>78.0</ele><time>2026-03-28T10:20:13Z</time></trkpt><trkpt lat="45.41160300183594" lon="11.538371266546347"><ele>80.0</ele><time>2026-03-28T10:20:14Z</time></trkpt><trkpt lat="45.41170617985166" lon="11.538403809686315"><ele>80.0</ele><time>2026-03-28T10:20:15Z</time></trkpt><trkpt lat="45.41180291321008" lon="11.538471803869559"><ele>80.0</ele><time>2026-03-28T10:20:16Z</time></trkpt><trkpt lat="45.4118506625101" lon="11.538605884141955"><ele>80.0</ele><time>2026-03-28T10:20:17Z</time></trkpt><trkpt lat="45.411908762783646" lon="11.538731024078361"><ele>80.0</ele><time>2026-03-28T10:20:18Z</time></trkpt><trkpt lat="45.41196283296471" lon="11.538803591841601"><ele>80.0</ele><time>2026-03-28T10:20:19Z</time></trkpt><trkpt lat="45.41204406935907" lon="11.538789338549458"><ele>80.75</ele><time>2026-03-28T10:20:20Z</time></trkpt><trkpt lat="45.41213764291398" lon="11.538727848548897"><ele>81.5</ele><time>2026-03-28T10:20:21Z</time></trkpt><trkpt lat="45.412215486240775" lon="11.538603343497744"><ele>82.25</ele><time>2026-03-28T10:20:22Z</time></trkpt><trkpt lat="45.4122723753423" lon="11.538456400217893"><ele>83.0</ele><time>2026-03-28T10:20:23Z</time></trkpt><trkpt lat="45.4122913422086" lon="11.538286905215937"><ele>83.5</ele><time>2026-03-28T10:20:24Z</time></trkpt><trkpt lat="45.41226306642444" lon="11.538119585891423"><ele>84.0</ele><time>2026-03-28T10:20:25Z</time></trkpt><trkpt lat="45.4121918506536" lon="11.537947955495616"><ele>84.5</ele><time>2026-03-28T10:20:26Z</time></trkpt><trkpt lat="45.41216144227748" lon="11.537752951565187"><ele>85.0</ele><time>2026-03-28T10:20:27Z</time></trkpt><trkpt lat="45.412147381124015" lon="11.537528157840272"><ele>85.0</ele><time>2026-03-28T10:20:28Z</time></trkpt><trkpt lat="45.41213559760369" lon="11.537306782171434"><ele>85.0</ele><time>2026-03-28T10:20:29Z</time></trkpt><trkpt lat="45.41207556418264" lon="11.537080630586711"><ele>85.0</ele><time>2026-03-28T10:20:30Z</time></trkpt><trkpt lat="45.41202777096408" lon="11.536860177000104"><ele>85.8</ele><time>2026-03-28T10:20:31Z</time></trkpt><trkpt lat="45.41197429549522" lon="11.53669944975043"><ele>86.6</ele><time>2026-03-28T10:20:32Z</time></trkpt><trkpt lat="45.41194156575304" lon="11.536583741375315"><ele>87.4</ele><time>2026-03-28T10:20:33Z</time></trkpt><trkpt lat="45.411930839393435" lon="11.536492250575956"><ele>88.2</ele><time>2026-03-28T10:20:34Z</time></trkpt><trkpt lat="45.412020864905465" lon="11.536340091635159"><ele>89.0</ele><time>2026-03-28T10:20:36Z</time></trkpt><trkpt lat="45.41209305982304" lon="11.536200724594602"><ele>100.33333333333334</ele><time>2026-03-28T10:20:37Z</time></trkpt><trkpt lat="45.41217140675183" lon="11.53604028111444"><ele>111.66666666666667</ele><time>2026-03-28T10:20:38Z</time></trkpt><trkpt lat="45.412251072438195" lon="11.535842382984756"><ele>123.0</ele><time>2026-03-28T10:20:39Z</time></trkpt><trkpt lat="45.41232980262459" lon="11.535654826178803"><ele>123.0</ele><time>2026-03-28T10:20:40Z</time></trkpt><trkpt lat="45.4124142086682" lon="11.535452257134784"><ele>123.0</ele><time>2026-03-28T10:20:41Z</time></trkpt><trkpt lat="45.41249353160161" lon="11.535250518487446"><ele>123.0</ele><time>2026-03-28T10:20:42Z</time></trkpt><trkpt lat="45.41257930288739" lon="11.53505083569982"><ele>119.33333333333334</ele><time>2026-03-28T10:20:43Z</time></trkpt><trkpt lat="45.41266825973901" lon="11.534860894485721"><ele>115.66666666666667</ele><time>2026-03-28T10:20:44Z</time></trkpt><trkpt lat="45.41276843674205" lon="11.53468510434851"><ele>112.0</ele><time>2026-03-28T10:20:45Z</time></trkpt><trkpt lat="45.41289416932793" lon="11.534521740921784"><ele>109.0</ele><time>2026-03-28T10:20:46Z</time></trkpt><trkpt lat="45.41298737109613" lon="11.534319353275857"><ele>106.0</ele><time>2026-03-28T10:20:47Z</time></trkpt><trkpt lat="45.413079855136814" lon="11.534101561548908"><ele>103.0</ele><time>2026-03-28T10:20:48Z</time></trkpt><trkpt lat="45.41319188358412" lon="11.533871933184866"><ele>110.0</ele><time>2026-03-28T10:20:49Z</time></trkpt><trkpt lat="45.41329094827429" lon="11.533652107353662"><ele>117.0</ele><time>2026-03-28T10:20:50Z</time></trkpt><trkpt lat="45.41336669487038" lon="11.533449446864784"><ele>124.0</ele><time>2026-03-28T10:20:51Z</time></trkpt><trkpt lat="45.41344530059076" lon="11.533298471880697"><ele>124.0</ele><time>2026-03-28T10:20:52Z</time></trkpt><trkpt lat="45.413556227196736" lon="11.533207865406844"><ele>124.0</ele><time>2026-03-28T10:20:53Z</time></trkpt><trkpt lat="45.41367232407349" lon="11.533107233605469"><ele>124.0</ele><time>2026-03-28T10:20:54Z</time></trkpt><trkpt lat="45.41380860555997" lon="11.533031300183648"><ele>124.0</ele><time>2026-03-28T10:20:55Z</time></trkpt><trkpt lat="45.41395070656923" lon="11.532955619219479"><ele>126.25</ele><time>2026-03-28T10:20:56Z</time></trkpt><trkpt lat="45.41408203361972" lon="11.532849480773137"><ele>128.5</ele><time>2026-03-28T10:20:57Z</time></trkpt><trkpt lat="45.41420367382537" lon="11.532767080945472"><ele>130.75</ele><time>2026-03-28T10:20:58Z</time></trkpt><trkpt lat="45.414313863752184" lon="11.53268829439454"><ele>133.0</ele><time>2026-03-28T10:20:59Z</time></trkpt><trkpt lat="45.41441641032179" lon="11.532613367864457"><ele>133.0</ele><time>2026-03-28T10:21:00Z</time></trkpt><trkpt lat="45.41451157044897" lon="11.532568661101168"><ele>133.0</ele><time>2026-03-28T10:21:01Z</time></trkpt><trkpt lat="45.41462828718666" lon="11.532595333327787"><ele>133.0</ele><time>2026-03-28T10:21:02Z</time></trkpt><trkpt lat="45.41475023543488" lon="11.532595901782814"><ele>133.0</ele><time>2026-03-28T10:21:03Z</time></trkpt><trkpt lat="45.41487391940976" lon="11.53261515301659"><ele>136.6</ele><time>2026-03-28T10:21:04Z</time></trkpt><trkpt lat="45.41497518239947" lon="11.53260279068753"><ele>140.20000000000002</ele><time>2026-03-28T10:21:05Z</time></trkpt><trkpt lat="45.41506210615385" lon="11.532548470061013"><ele>143.8</ele><time>2026-03-28T10:21:06Z</time></trkpt><trkpt lat="45.41515222086764" lon="11.532461991186"><ele>147.4</ele><time>2026-03-28T10:21:07Z</time></trkpt><trkpt lat="45.41523369528663" lon="11.532321115815597"><ele>151.0</ele><time>2026-03-28T10:21:08Z</time></trkpt><trkpt lat="45.415313897446836" lon="11.532135148147843"><ele>146.66666666666669</ele><time>2026-03-28T10:21:09Z</time></trkpt><trkpt lat="45.41542281539996" lon="11.53190993937041"><ele>142.33333333333334</ele><time>2026-03-28T10:21:10Z</time></trkpt><trkpt lat="45.41552898878204" lon="11.53166740186836"><ele>138.0</ele><time>2026-03-28T10:21:11Z</time></trkpt><trkpt lat="45.415629567503636" lon="11.531375020912803"><ele>149.33333333333334</ele><time>2026-03-28T10:21:12Z</time></trkpt><trkpt lat="45.415711157061004" lon="11.531115736471378"><ele>160.66666666666669</ele><time>2026-03-28T10:21:13Z</time></trkpt><trkpt lat="45.41577091179661" lon="11.530837043655529"><ele>172.0</ele><time>2026-03-28T10:21:14Z</time></trkpt><trkpt lat="45.415827502324625" lon="11.530566454228731"><ele>171.0</ele><time>2026-03-28T10:21:15Z</time></trkpt><trkpt lat="45.41587241771225" lon="11.530310163771919"><ele>170.0</ele><time>2026-03-28T10:21:16Z</time></trkpt><trkpt lat="45.41590850232435" lon="11.53006328092858"><ele>169.0</ele><time>2026-03-28T10:21:17Z</time></trkpt><trkpt lat="45.41592875633681" lon="11.529830237512115"><ele>169.0</ele><time>2026-03-28T10:21:17.999Z</time></trkpt><trkpt lat="45.41595124525486" lon="11.52958783554678"><ele>169.0</ele><time>2026-03-28T10:21:18.999Z</time></trkpt><trkpt lat="45.4159479992826" lon="11.529300494593286"><ele>169.0</ele><time>2026-03-28T10:21:19.999Z</time></trkpt><trkpt lat="45.41594222849817" lon="11.52899395073159"><ele>174.0</ele><time>2026-03-28T10:21:20.999Z</time></trkpt><trkpt lat="45.41593645594145" lon="11.528701367699645"><ele>179.0</ele><time>2026-03-28T10:21:21.999Z</time></trkpt><trkpt lat="45.415933740473115" lon="11.5284599873101"><ele>184.0</ele><time>2026-03-28T10:21:22.999Z</time></trkpt><trkpt lat="45.41593776058691" lon="11.528256501560524"><ele>184.0</ele><time>2026-03-28T10:21:23.999Z</time></trkpt><trkpt lat="45.415968484411955" lon="11.528066194738317"><ele>184.0</ele><time>2026-03-28T10:21:24.999Z</time></trkpt><trkpt lat="45.4160185909203" lon="11.527903494033087"><ele>184.0</ele><time>2026-03-28T10:21:25.999Z</time></trkpt><trkpt lat="45.416086355153325" lon="11.527764044454164"><ele>184.0</ele><time>2026-03-28T10:21:26.999Z</time></trkpt><trkpt lat="45.41617814787578" lon="11.527648744177386"><ele>190.66666666666669</ele><time>2026-03-28T10:21:27.999Z</time></trkpt><trkpt lat="45.416297543608934" lon="11.527529017242815"><ele>197.33333333333334</ele><time>2026-03-28T10:21:28.999Z</time></trkpt><trkpt lat="45.41642333657272" lon="11.527380522114568"><ele>204.0</ele><time>2026-03-28T10:21:29.999Z</time></trkpt><trkpt lat="45.41655183787594" lon="11.52720478143387"><ele>205.0</ele><time>2026-03-28T10:21:30.999Z</time></trkpt><trkpt lat="45.41668761261063" lon="11.527014747470112"><ele>206.0</ele><time>2026-03-28T10:21:31.999Z</time></trkpt><trkpt lat="45.41683429606877" lon="11.526828090334583"><ele>207.0</ele><time>2026-03-28T10:21:32.999Z</time></trkpt><trkpt lat="45.416976286058954" lon="11.52667659036192"><ele>207.0</ele><time>2026-03-28T10:21:33.999Z</time></trkpt><trkpt lat="45.41708670384648" lon="11.526553360879197"><ele>207.0</ele><time>2026-03-28T10:21:34.999Z</time></trkpt><trkpt lat="45.41718682108212" lon="11.526396238018478"><ele>207.0</ele><time>2026-03-28T10:21:35.999Z</time></trkpt><trkpt lat="45.41727806629117" lon="11.52618476609333"><ele>208.25</ele><time>2026-03-28T10:21:36.999Z</time></trkpt><trkpt lat="45.417372117909956" lon="11.525979389654356"><ele>209.5</ele><time>2026-03-28T10:21:37.999Z</time></trkpt><trkpt lat="45.41746220399091" lon="11.525836526943435"><ele>210.75</ele><time>2026-03-28T10:21:38.999Z</time></trkpt><trkpt lat="45.41755587536266" lon="11.525725819959675"><ele>212.0</ele><time>2026-03-28T10:21:39.999Z</time></trkpt><trkpt lat="45.41762775867696" lon="11.525606455599638"><ele>212.0</ele><time>2026-03-28T10:21:40.999Z</time></trkpt><trkpt lat="45.41767788888311" lon="11.525454483067586"><ele>212.0</ele><time>2026-03-28T10:21:41.999Z</time></trkpt><trkpt lat="45.41770016071257" lon="11.525265085865376"><ele>212.0</ele><time>2026-03-28T10:21:42.999Z</time></trkpt><trkpt lat="45.41773246582557" lon="11.525031646756121"><ele>212.0</ele><time>2026-03-28T10:21:43.999Z</time></trkpt><trkpt lat="45.41783126792268" lon="11.524794792982867"><ele>220.66666666666669</ele><time>2026-03-28T10:21:44.999Z</time></trkpt><trkpt lat="45.41790941364792" lon="11.5245177602263"><ele>229.33333333333331</ele><time>2026-03-28T10:21:45.999Z</time></trkpt><trkpt lat="45.417997688153726" lon="11.524266489434888"><ele>238.0</ele><time>2026-03-28T10:21:46.999Z</time></trkpt><trkpt lat="45.41806717146528" lon="11.52406282175543"><ele>237.75</ele><time>2026-03-28T10:21:47.999Z</time></trkpt><trkpt lat="45.418128756047274" lon="11.523895557432162"><ele>237.5</ele><time>2026-03-28T10:21:48.999Z</time></trkpt><trkpt lat="45.41819799208575" lon="11.523720926004858"><ele>237.25</ele><time>2026-03-28T10:21:49.999Z</time></trkpt><trkpt lat="45.4182645893171" lon="11.523563308963285"><ele>237.0</ele><time>2026-03-28T10:21:50.999Z</time></trkpt><trkpt lat="45.418322973445605" lon="11.523411699266765"><ele>237.0</ele><time>2026-03-28T10:21:51.999Z</time></trkpt><trkpt lat="45.41837351482619" lon="11.523259547821267"><ele>237.0</ele><time>2026-03-28T10:21:52.999Z</time></trkpt><trkpt lat="45.418421305736096" lon="11.523102427787371"><ele>237.0</ele><time>2026-03-28T10:21:53.999Z</time></trkpt><trkpt lat="45.418471028772515" lon="11.522939686054956"><ele>237.0</ele><time>2026-03-28T10:21:54.999Z</time></trkpt><trkpt lat="45.4185240054242" lon="11.522774746536186"><ele>238.0</ele><time>2026-03-28T10:21:55.999Z</time></trkpt><trkpt lat="45.41855721257141" lon="11.522607474092135"><ele>239.0</ele><time>2026-03-28T10:21:56.999Z</time></trkpt><trkpt lat="45.418591813951814" lon="11.522451897253804"><ele>240.0</ele><time>2026-03-28T10:21:57.999Z</time></trkpt><trkpt lat="45.418627192756404" lon="11.522305314325253"><ele>241.0</ele><time>2026-03-28T10:21:58.999Z</time></trkpt><trkpt lat="45.41866395833064" lon="11.522162704591894"><ele>243.66666666666666</ele><time>2026-03-28T10:21:59.999Z</time></trkpt><trkpt lat="45.41869937683683" lon="11.52202791433487"><ele>246.33333333333331</ele><time>2026-03-28T10:22:00.999Z</time></trkpt><trkpt lat="45.41874279774233" lon="11.521921368457484"><ele>249.0</ele><time>2026-03-28T10:22:01.999Z</time></trkpt><trkpt lat="45.41876350128216" lon="11.521823827537581"><ele>251.66666666666669</ele><time>2026-03-28T10:22:02.999Z</time></trkpt><trkpt lat="45.41878509568276" lon="11.52173686497501"><ele>254.33333333333334</ele><time>2026-03-28T10:22:03.999Z</time></trkpt><trkpt lat="45.41880925653572" lon="11.521650787364871"><ele>257.0</ele><time>2026-03-28T10:22:05.999Z</time></trkpt><trkpt lat="45.418803576182164" lon="11.521475846490466"><ele>257.5</ele><time>2026-03-28T10:29:30Z</time></trkpt><trkpt lat="45.41883684177553" lon="11.521378762040824"><ele>258.0</ele><time>2026-03-28T10:29:31Z</time></trkpt><trkpt lat="45.41887370838157" lon="11.521282626637941"><ele>258.5</ele><time>2026-03-28T10:29:32Z</time></trkpt><trkpt lat="45.41890257230197" lon="11.521179713970744"><ele>259.0</ele><time>2026-03-28T10:29:33Z</time></trkpt><trkpt lat="45.418947184099785" lon="11.521086396316038"><ele>259.5</ele><time>2026-03-28T10:29:34Z</time></trkpt><trkpt lat="45.418963981193656" lon="11.52097128793948"><ele>260.0</ele><time>2026-03-28T10:29:34.999Z</time></trkpt><trkpt lat="45.41900033696782" lon="11.520856127113609"><ele>260.0</ele><time>2026-03-28T10:29:35.999Z</time></trkpt><trkpt lat="45.41905306155263" lon="11.520751329602733"><ele>260.0</ele><time>2026-03-28T10:29:36.999Z</time></trkpt><trkpt lat="45.41909613576496" lon="11.520617262382839"><ele>260.0</ele><time>2026-03-28T10:29:37.999Z</time></trkpt><trkpt lat="45.419131362025574" lon="11.520499036081565"><ele>260.0</ele><time>2026-03-28T10:29:38.999Z</time></trkpt><trkpt lat="45.41917303610059" lon="11.520380189823612"><ele>260.0</ele><time>2026-03-28T10:29:39.999Z</time></trkpt><trkpt lat="45.41922172296271" lon="11.520268889204035"><ele>259.2</ele><time>2026-03-28T10:29:40.999Z</time></trkpt><trkpt lat="45.419274749882696" lon="11.520162337702306"><ele>258.4</ele><time>2026-03-28T10:29:41.999Z</time></trkpt><trkpt lat="45.41933264419159" lon="11.520055592121457"><ele>257.6</ele><time>2026-03-28T10:29:42.999Z</time></trkpt><trkpt lat="45.41940577707119" lon="11.519925171061956"><ele>256.8</ele><time>2026-03-28T10:29:43.999Z</time></trkpt><trkpt lat="45.41949882106004" lon="11.519791543654174"><ele>256.0</ele><time>2026-03-28T10:29:44.999Z</time></trkpt><trkpt lat="45.4196013348189" lon="11.519667874051022"><ele>257.25</ele><time>2026-03-28T10:29:45.999Z</time></trkpt><trkpt lat="45.41970724735018" lon="11.519556989132388"><ele>258.5</ele><time>2026-03-28T10:29:46.999Z</time></trkpt><trkpt lat="45.41981079819341" lon="11.51945338715853"><ele>259.75</ele><time>2026-03-28T10:29:47.999Z</time></trkpt><trkpt lat="45.419905095935995" lon="11.519360458348253"><ele>261.0</ele><time>2026-03-28T10:29:48.999Z</time></trkpt><trkpt lat="45.41999478623006" lon="11.519278028102592"><ele>261.0</ele><time>2026-03-28T10:29:49.999Z</time></trkpt><trkpt lat="45.42007689888791" lon="11.519231606918453"><ele>261.0</ele><time>2026-03-28T10:29:50.999Z</time></trkpt><trkpt lat="45.42015030284289" lon="11.519203805302185"><ele>261.0</ele><time>2026-03-28T10:29:51.999Z</time></trkpt><trkpt lat="45.4202131312812" lon="11.519177987510126"><ele>261.0</ele><time>2026-03-28T10:29:52.999Z</time></trkpt><trkpt lat="45.42026974426168" lon="11.519118787310669"><ele>261.0</ele><time>2026-03-28T10:29:53.999Z</time></trkpt><trkpt lat="45.42032083878185" lon="11.519057982485513"><ele>261.0</ele><time>2026-03-28T10:29:54.999Z</time></trkpt><trkpt lat="45.42034329084109" lon="11.518922240222757"><ele>261.0</ele><time>2026-03-28T10:29:55.999Z</time></trkpt><trkpt lat="45.42029945839468" lon="11.518789048427209"><ele>261.0</ele><time>2026-03-28T10:29:56.999Z</time></trkpt><trkpt lat="45.42021807345692" lon="11.518690812773283"><ele>261.0</ele><time>2026-03-28T10:29:57.999Z</time></trkpt><trkpt lat="45.420135697972015" lon="11.518559045580597"><ele>261.0</ele><time>2026-03-28T10:29:58.999Z</time></trkpt><trkpt lat="45.42004256667092" lon="11.518422511808748"><ele>263.40000000000003</ele><time>2026-03-28T10:29:59.999Z</time></trkpt><trkpt lat="45.41995527162797" lon="11.51835134176442"><ele>265.8</ele><time>2026-03-28T10:30:00.999Z</time></trkpt><trkpt lat="45.41986220394696" lon="11.518298672892781"><ele>268.20000000000005</ele><time>2026-03-28T10:30:01.999Z</time></trkpt><trkpt lat="45.41975036158416" lon="11.518283244561875"><ele>270.6</ele><time>2026-03-28T10:30:02.999Z</time></trkpt><trkpt lat="45.41964787789198" lon="11.51830824435432"><ele>273.0</ele><time>2026-03-28T10:30:03.999Z</time></trkpt><trkpt lat="45.41954902626696" lon="11.518365782114833"><ele>276.0</ele><time>2026-03-28T10:30:04.999Z</time></trkpt><trkpt lat="45.41946244818705" lon="11.518467521511464"><ele>279.0</ele><time>2026-03-28T10:30:05.999Z</time></trkpt><trkpt lat="45.41939480190433" lon="11.518585539591319"><ele>282.0</ele><time>2026-03-28T10:30:06.999Z</time></trkpt><trkpt lat="45.419335618575076" lon="11.5186538331292"><ele>285.0</ele><time>2026-03-28T10:30:07.999Z</time></trkpt><trkpt lat="45.41926887309764" lon="11.518665508171157"><ele>288.0</ele><time>2026-03-28T10:30:09.999Z</time></trkpt><trkpt lat="45.41928791726302" lon="11.518523569520248"><ele>288.0</ele><time>2026-03-28T10:30:11.999Z</time></trkpt><trkpt lat="45.419366042541114" lon="11.518464554537417"><ele>288.0</ele><time>2026-03-28T10:30:12.999Z</time></trkpt><trkpt lat="45.41943765681775" lon="11.518362262054588"><ele>288.0</ele><time>2026-03-28T10:30:13.999Z</time></trkpt><trkpt lat="45.419523078602595" lon="11.518263707568067"><ele>288.0</ele><time>2026-03-28T10:30:14.999Z</time></trkpt><trkpt lat="45.41962355386676" lon="11.51813937813944"><ele>288.0</ele><time>2026-03-28T10:30:15.999Z</time></trkpt><trkpt lat="45.41973931388069" lon="11.518017618361652"><ele>284.25</ele><time>2026-03-28T10:30:16.999Z</time></trkpt><trkpt lat="45.41985919335215" lon="11.51793648873519"><ele>280.5</ele><time>2026-03-28T10:30:17.999Z</time></trkpt><trkpt lat="45.4199617334975" lon="11.517916626885004"><ele>276.75</ele><time>2026-03-28T10:30:18.999Z</time></trkpt><trkpt lat="45.42007808701959" lon="11.51794412864104"><ele>273.0</ele><time>2026-03-28T10:30:19.999Z</time></trkpt><trkpt lat="45.42019784265826" lon="11.518010169074692"><ele>273.0</ele><time>2026-03-28T10:30:20.999Z</time></trkpt><trkpt lat="45.42030906232283" lon="11.518116301301342"><ele>273.0</ele><time>2026-03-28T10:30:21.999Z</time></trkpt><trkpt lat="45.4204058473889" lon="11.518259017575831"><ele>273.0</ele><time>2026-03-28T10:30:22.999Z</time></trkpt><trkpt lat="45.42050164543532" lon="11.518425505175367"><ele>273.0</ele><time>2026-03-28T10:30:23.999Z</time></trkpt><trkpt lat="45.42058916505539" lon="11.518559050683768"><ele>278.0</ele><time>2026-03-28T10:30:24.999Z</time></trkpt><trkpt lat="45.420682715795245" lon="11.518653564972954"><ele>283.0</ele><time>2026-03-28T10:30:25.999Z</time></trkpt><trkpt lat="45.42079841500791" lon="11.518704750054665"><ele>288.0</ele><time>2026-03-28T10:30:26.999Z</time></trkpt><trkpt lat="45.420940522107934" lon="11.518718625990724"><ele>293.0</ele><time>2026-03-28T10:30:27.999Z</time></trkpt><trkpt lat="45.42107936447929" lon="11.518732051867952"><ele>293.0</ele><time>2026-03-28T10:30:28.999Z</time></trkpt><trkpt lat="45.42118526372985" lon="11.518748784082176"><ele>293.0</ele><time>2026-03-28T10:30:29.999Z</time></trkpt><trkpt lat="45.4212897192186" lon="11.518728470404344"><ele>293.0</ele><time>2026-03-28T10:30:30.999Z</time></trkpt><trkpt lat="45.42139240917739" lon="11.518660734020607"><ele>293.0</ele><time>2026-03-28T10:30:31.999Z</time></trkpt><trkpt lat="45.42150106240746" lon="11.518570746771582"><ele>293.75</ele><time>2026-03-28T10:30:32.999Z</time></trkpt><trkpt lat="45.42161531140454" lon="11.518454988345516"><ele>294.5</ele><time>2026-03-28T10:30:33.999Z</time></trkpt><trkpt lat="45.421714951222604" lon="11.518299402767326"><ele>295.25</ele><time>2026-03-28T10:30:34.999Z</time></trkpt><trkpt lat="45.421802400213025" lon="11.51812173932786"><ele>296.0</ele><time>2026-03-28T10:30:36Z</time></trkpt><trkpt lat="45.421907843516415" lon="11.517946736873437"><ele>296.2</ele><time>2026-03-28T10:30:37Z</time></trkpt><trkpt lat="45.42198475471612" lon="11.517790853140816"><ele>296.40000000000003</ele><time>2026-03-28T10:30:38Z</time></trkpt><trkpt lat="45.42205068005486" lon="11.51766354008079"><ele>296.6</ele><time>2026-03-28T10:30:39Z</time></trkpt><trkpt lat="45.42210826983951" lon="11.517557618050175"><ele>296.8</ele><time>2026-03-28T10:30:40Z</time></trkpt><trkpt lat="45.422157907651346" lon="11.517456579484724"><ele>297.0</ele><time>2026-03-28T10:30:41Z</time></trkpt><trkpt lat="45.42221703740274" lon="11.51738319497865"><ele>297.0</ele><time>2026-03-28T10:30:42Z</time></trkpt><trkpt lat="45.42227255694823" lon="11.517304585061673"><ele>297.0</ele><time>2026-03-28T10:30:43Z</time></trkpt><trkpt lat="45.422335760943525" lon="11.517221371975124"><ele>297.0</ele><time>2026-03-28T10:30:44Z</time></trkpt><trkpt lat="45.42240750986705" lon="11.517136523642339"><ele>297.0</ele><time>2026-03-28T10:30:45Z</time></trkpt><trkpt lat="45.422483618930436" lon="11.517070381882254"><ele>297.0</ele><time>2026-03-28T10:30:46Z</time></trkpt><trkpt lat="45.42255981663327" lon="11.517019209261655"><ele>297.0</ele><time>2026-03-28T10:30:47Z</time></trkpt><trkpt lat="45.42266375849649" lon="11.517035786697178"><ele>297.0</ele><time>2026-03-28T10:30:48Z</time></trkpt><trkpt lat="45.42276631437399" lon="11.517107346769992"><ele>297.0</ele><time>2026-03-28T10:30:49Z</time></trkpt><trkpt lat="45.42285694131847" lon="11.51722020467566"><ele>297.0</ele><time>2026-03-28T10:30:50Z</time></trkpt><trkpt lat="45.42291969220681" lon="11.51735381336526"><ele>297.0</ele><time>2026-03-28T10:30:51Z</time></trkpt><trkpt lat="45.4229495242839" lon="11.51749846892957"><ele>297.0</ele><time>2026-03-28T10:30:52Z</time></trkpt><trkpt lat="45.42293141794888" lon="11.51767627845194"><ele>297.0</ele><time>2026-03-28T10:30:53Z</time></trkpt><trkpt lat="45.42291458821524" lon="11.51786035974725"><ele>297.0</ele><time>2026-03-28T10:30:54Z</time></trkpt><trkpt lat="45.42293280661017" lon="11.518023509636453"><ele>297.0</ele><time>2026-03-28T10:30:55Z</time></trkpt><trkpt lat="45.422982931147494" lon="11.518140145502143"><ele>300.25</ele><time>2026-03-28T10:30:56Z</time></trkpt><trkpt lat="45.42306721535569" lon="11.518207870957312"><ele>303.5</ele><time>2026-03-28T10:30:57Z</time></trkpt><trkpt lat="45.42315273992462" lon="11.518311186635707"><ele>306.75</ele><time>2026-03-28T10:30:58Z</time></trkpt><trkpt lat="45.42327134097114" lon="11.518380908183774"><ele>310.0</ele><time>2026-03-28T10:30:59Z</time></trkpt><trkpt lat="45.42339373379374" lon="11.518415894340515"><ele>310.0</ele><time>2026-03-28T10:31:00Z</time></trkpt><trkpt lat="45.42352587779852" lon="11.518412942249244"><ele>310.0</ele><time>2026-03-28T10:31:01Z</time></trkpt><trkpt lat="45.423673822567096" lon="11.518373586293116"><ele>310.0</ele><time>2026-03-28T10:31:02Z</time></trkpt><trkpt lat="45.42383050847453" lon="11.518353500115898"><ele>310.0</ele><time>2026-03-28T10:31:03Z</time></trkpt><trkpt lat="45.42399621713313" lon="11.518392451544537"><ele>312.3333333333333</ele><time>2026-03-28T10:31:04Z</time></trkpt><trkpt lat="45.42415484489969" lon="11.518499072689949"><ele>314.6666666666667</ele><time>2026-03-28T10:31:05Z</time></trkpt><trkpt lat="45.42430025999559" lon="11.518652663930641"><ele>317.0</ele><time>2026-03-28T10:31:06Z</time></trkpt><trkpt lat="45.42445106282409" lon="11.518797069564906"><ele>317.0</ele><time>2026-03-28T10:31:07Z</time></trkpt><trkpt lat="45.424610998569555" lon="11.518906173970759"><ele>317.0</ele><time>2026-03-28T10:31:08Z</time></trkpt><trkpt lat="45.42476173046119" lon="11.51896757367612"><ele>317.0</ele><time>2026-03-28T10:31:09Z</time></trkpt><trkpt lat="45.4248872665683" lon="11.519065421594474"><ele>319.25</ele><time>2026-03-28T10:31:10Z</time></trkpt><trkpt lat="45.42497418189606" lon="11.519192329303658"><ele>321.5</ele><time>2026-03-28T10:31:11Z</time></trkpt><trkpt lat="45.42504691848207" lon="11.519337961501313"><ele>323.75</ele><time>2026-03-28T10:31:12Z</time></trkpt><trkpt lat="45.42513255159581" lon="11.519453523016418"><ele>326.0</ele><time>2026-03-28T10:31:13Z</time></trkpt><trkpt lat="45.425235392587425" lon="11.519522898922311"><ele>326.0</ele><time>2026-03-28T10:31:14Z</time></trkpt><trkpt lat="45.42536851769235" lon="11.519555360337307"><ele>326.0</ele><time>2026-03-28T10:31:15Z</time></trkpt><trkpt lat="45.4255276910139" lon="11.519575710045748"><ele>326.0</ele><time>2026-03-28T10:31:16Z</time></trkpt><trkpt lat="45.425709922683936" lon="11.519595071242291"><ele>326.33333333333337</ele><time>2026-03-28T10:31:17Z</time></trkpt><trkpt lat="45.42589508425367" lon="11.519642155599607"><ele>326.6666666666667</ele><time>2026-03-28T10:31:18Z</time></trkpt><trkpt lat="45.42608931741703" lon="11.519687779099867"><ele>327.0</ele><time>2026-03-28T10:31:19Z</time></trkpt><trkpt lat="45.4262852307106" lon="11.519732704830197"><ele>329.0</ele><time>2026-03-28T10:31:20Z</time></trkpt><trkpt lat="45.42647815133696" lon="11.51976701005496"><ele>331.0</ele><time>2026-03-28T10:31:21Z</time></trkpt><trkpt lat="45.426683772529145" lon="11.51976134333538"><ele>333.0</ele><time>2026-03-28T10:31:22Z</time></trkpt><trkpt lat="45.42688075244148" lon="11.519719977187943"><ele>333.0</ele><time>2026-03-28T10:31:23Z</time></trkpt><trkpt lat="45.42705612959942" lon="11.519687085371006"><ele>333.0</ele><time>2026-03-28T10:31:24Z</time></trkpt><trkpt lat="45.427233433429535" lon="11.519685075429706"><ele>333.0</ele><time>2026-03-28T10:31:25Z</time></trkpt><trkpt lat="45.42742000223159" lon="11.519715168607057"><ele>332.3333333333333</ele><time>2026-03-28T10:31:26Z</time></trkpt><trkpt lat="45.427616057321806" lon="11.519759557991938"><ele>331.66666666666663</ele><time>2026-03-28T10:31:27Z</time></trkpt><trkpt lat="45.427827108249936" lon="11.519810418355615"><ele>331.0</ele><time>2026-03-28T10:31:28Z</time></trkpt><trkpt lat="45.428029132859244" lon="11.519862307887799"><ele>331.0</ele><time>2026-03-28T10:31:29Z</time></trkpt><trkpt lat="45.42820493971427" lon="11.519913469058482"><ele>331.0</ele><time>2026-03-28T10:31:30Z</time></trkpt><trkpt lat="45.428366245930015" lon="11.519941956796341"><ele>331.0</ele><time>2026-03-28T10:31:31Z</time></trkpt><trkpt lat="45.428529043203696" lon="11.519951050038573"><ele>331.0</ele><time>2026-03-28T10:31:32Z</time></trkpt><trkpt lat="45.4286732626408" lon="11.519984344487327"><ele>331.0</ele><time>2026-03-28T10:31:33Z</time></trkpt><trkpt lat="45.42881708938064" lon="11.520007943416884"><ele>331.0</ele><time>2026-03-28T10:31:34Z</time></trkpt><trkpt lat="45.4289452316806" lon="11.520013668320438"><ele>331.0</ele><time>2026-03-28T10:31:35Z</time></trkpt><trkpt lat="45.429064026879665" lon="11.519998942329776"><ele>330.25</ele><time>2026-03-28T10:31:36Z</time></trkpt><trkpt lat="45.42916100712783" lon="11.519949109418373"><ele>329.5</ele><time>2026-03-28T10:31:37Z</time></trkpt><trkpt lat="45.429240277782405" lon="11.519858978543635"><ele>328.75</ele><time>2026-03-28T10:31:38Z</time></trkpt><trkpt lat="45.429303386540475" lon="11.519706845646752"><ele>328.0</ele><time>2026-03-28T10:31:38.999Z</time></trkpt><trkpt lat="45.42934352202234" lon="11.519533385333737"><ele>327.3333333333333</ele><time>2026-03-28T10:31:39.999Z</time></trkpt><trkpt lat="45.42936277283356" lon="11.51933266632307"><ele>326.6666666666667</ele><time>2026-03-28T10:31:40.999Z</time></trkpt><trkpt lat="45.42939307471478" lon="11.519099247067478"><ele>326.0</ele><time>2026-03-28T10:31:41.999Z</time></trkpt><trkpt lat="45.42944623988846" lon="11.518852397128024"><ele>329.6666666666667</ele><time>2026-03-28T10:31:42.999Z</time></trkpt><trkpt lat="45.4295144614119" lon="11.518573538128845"><ele>333.3333333333333</ele><time>2026-03-28T10:31:43.999Z</time></trkpt><trkpt lat="45.42959202517465" lon="11.518322152874292"><ele>337.0</ele><time>2026-03-28T10:31:44.999Z</time></trkpt><trkpt lat="45.42969183230225" lon="11.518119909351414"><ele>338.3333333333333</ele><time>2026-03-28T10:31:45.999Z</time></trkpt><trkpt lat="45.42982111656855" lon="11.517930132330006"><ele>339.6666666666667</ele><time>2026-03-28T10:31:46.999Z</time></trkpt><trkpt lat="45.429967166916555" lon="11.517726331638116"><ele>341.0</ele><time>2026-03-28T10:31:47.999Z</time></trkpt><trkpt lat="45.430133484704434" lon="11.517500320971582"><ele>341.0</ele><time>2026-03-28T10:31:48.999Z</time></trkpt><trkpt lat="45.430287068557625" lon="11.517296084185391"><ele>341.0</ele><time>2026-03-28T10:31:49.999Z</time></trkpt><trkpt lat="45.43041597413207" lon="11.517129726586912"><ele>341.0</ele><time>2026-03-28T10:31:50.999Z</time></trkpt><trkpt lat="45.43053571782819" lon="11.516998608551145"><ele>344.0</ele><time>2026-03-28T10:31:51.999Z</time></trkpt><trkpt lat="45.4306361678184" lon="11.516924413828876"><ele>347.0</ele><time>2026-03-28T10:31:52.999Z</time></trkpt><trkpt lat="45.430705490197354" lon="11.516848726462392"><ele>350.0</ele><time>2026-03-28T10:31:53.999Z</time></trkpt><trkpt lat="45.43072982371708" lon="11.516735571631687"><ele>353.0</ele><time>2026-03-28T10:31:54.999Z</time></trkpt><trkpt lat="45.43072242795424" lon="11.516600061083262"><ele>356.0</ele><time>2026-03-28T10:31:55.999Z</time></trkpt><trkpt lat="45.43065349018778" lon="11.516493122501041"><ele>356.0</ele><time>2026-03-28T10:31:56.999Z</time></trkpt><trkpt lat="45.430557245454985" lon="11.516423856314468"><ele>356.0</ele><time>2026-03-28T10:31:57.999Z</time></trkpt><trkpt lat="45.43042270452456" lon="11.516394132565846"><ele>356.0</ele><time>2026-03-28T10:31:58.999Z</time></trkpt><trkpt lat="45.430270333419884" lon="11.51637347298294"><ele>356.0</ele><time>2026-03-28T10:31:59.999Z</time></trkpt><trkpt lat="45.43012817940991" lon="11.51635978067271"><ele>355.0</ele><time>2026-03-28T10:32:00.999Z</time></trkpt><trkpt lat="45.43002568374828" lon="11.51635091051774"><ele>354.0</ele><time>2026-03-28T10:32:01.999Z</time></trkpt><trkpt lat="45.4299204575374" lon="11.516313070391018"><ele>353.0</ele><time>2026-03-28T10:32:02.999Z</time></trkpt><trkpt lat="45.42981998778325" lon="11.516237224952663"><ele>352.0</ele><time>2026-03-28T10:32:03.999Z</time></trkpt><trkpt lat="45.42973055632106" lon="11.516121624442407"><ele>351.0</ele><time>2026-03-28T10:32:04.999Z</time></trkpt><trkpt lat="45.42963744790008" lon="11.515960311795459"><ele>355.75</ele><time>2026-03-28T10:32:05.999Z</time></trkpt><trkpt lat="45.429530466191544" lon="11.515800821735153"><ele>360.5</ele><time>2026-03-28T10:32:06.999Z</time></trkpt><trkpt lat="45.429444513678845" lon="11.515660544142317"><ele>365.25</ele><time>2026-03-28T10:32:07.999Z</time></trkpt><trkpt lat="45.429387362587995" lon="11.515527199536614"><ele>370.0</ele><time>2026-03-28T10:32:08.999Z</time></trkpt><trkpt lat="45.42935905225157" lon="11.515370541156217"><ele>370.5</ele><time>2026-03-28T10:32:09.999Z</time></trkpt><trkpt lat="45.42935919512289" lon="11.51518586003519"><ele>371.0</ele><time>2026-03-28T10:32:10.999Z</time></trkpt><trkpt lat="45.4293853748438" lon="11.514985164376927"><ele>371.5</ele><time>2026-03-28T10:32:11.999Z</time></trkpt><trkpt lat="45.42941124877236" lon="11.514807285345254"><ele>372.0</ele><time>2026-03-28T10:32:12.999Z</time></trkpt><trkpt lat="45.42942711464557" lon="11.514670289277042"><ele>371.40000000000003</ele><time>2026-03-28T10:32:13.999Z</time></trkpt><trkpt lat="45.429431665327584" lon="11.514552345402848"><ele>370.8</ele><time>2026-03-28T10:32:14.999Z</time></trkpt><trkpt lat="45.429434826291946" lon="11.514458116333158"><ele>370.2</ele><time>2026-03-28T10:32:15.999Z</time></trkpt><trkpt lat="45.429433779576875" lon="11.514366841344055"><ele>369.6</ele><time>2026-03-28T10:32:16.999Z</time></trkpt><trkpt lat="45.42939276236118" lon="11.514182457482471"><ele>369.0</ele><time>2026-03-28T10:32:18.999Z</time></trkpt><trkpt lat="45.42935802987004" lon="11.514044669576286"><ele>369.0</ele><time>2026-03-28T10:32:19.999Z</time></trkpt><trkpt lat="45.42931539519827" lon="11.513886210859805"><ele>369.0</ele><time>2026-03-28T10:32:20.999Z</time></trkpt><trkpt lat="45.42927327976175" lon="11.513704859363376"><ele>369.0</ele><time>2026-03-28T10:32:21.999Z</time></trkpt><trkpt lat="45.429240095341164" lon="11.513529934893327"><ele>369.0</ele><time>2026-03-28T10:32:22.999Z</time></trkpt><trkpt lat="45.429250119603864" lon="11.51337061574322"><ele>367.5</ele><time>2026-03-28T10:32:23.999Z</time></trkpt><trkpt lat="45.429300933996394" lon="11.51320778579"><ele>366.0</ele><time>2026-03-28T10:32:24.999Z</time></trkpt><trkpt lat="45.42939453525057" lon="11.51305378511046"><ele>364.5</ele><time>2026-03-28T10:32:25.999Z</time></trkpt><trkpt lat="45.42950698083981" lon="11.512897384955268"><ele>363.0</ele><time>2026-03-28T10:32:26.999Z</time></trkpt><trkpt lat="45.42959981213031" lon="11.512721201961408"><ele>362.25</ele><time>2026-03-28T10:32:27.999Z</time></trkpt><trkpt lat="45.429662322467415" lon="11.512550358577316"><ele>361.5</ele><time>2026-03-28T10:32:28.999Z</time></trkpt><trkpt lat="45.429728648980124" lon="11.51239969250061"><ele>360.75</ele><time>2026-03-28T10:32:29.999Z</time></trkpt><trkpt lat="45.42981624499346" lon="11.512279009739341"><ele>360.0</ele><time>2026-03-28T10:32:30.999Z</time></trkpt><trkpt lat="45.42995036071485" lon="11.512214819783003"><ele>360.0</ele><time>2026-03-28T10:32:31.999Z</time></trkpt><trkpt lat="45.430101115698754" lon="11.51215826389294"><ele>360.0</ele><time>2026-03-28T10:32:32.999Z</time></trkpt><trkpt lat="45.430275565725445" lon="11.512097280386127"><ele>360.0</ele><time>2026-03-28T10:32:33.999Z</time></trkpt><trkpt lat="45.430432913183864" lon="11.512037262647413"><ele>360.5</ele><time>2026-03-28T10:32:34.999Z</time></trkpt><trkpt lat="45.430566175242426" lon="11.511980662136656"><ele>361.0</ele><time>2026-03-28T10:32:35.999Z</time></trkpt><trkpt lat="45.4306829265797" lon="11.511909662399855"><ele>361.5</ele><time>2026-03-28T10:32:36.999Z</time></trkpt><trkpt lat="45.430787402172975" lon="11.511767946159871"><ele>362.0</ele><time>2026-03-28T10:32:37.999Z</time></trkpt><trkpt lat="45.43087512899599" lon="11.511572160091083"><ele>362.0</ele><time>2026-03-28T10:32:38.999Z</time></trkpt><trkpt lat="45.43095648781305" lon="11.511340944124093"><ele>362.0</ele><time>2026-03-28T10:32:39.999Z</time></trkpt><trkpt lat="45.43104622198252" lon="11.511120304391731"><ele>362.0</ele><time>2026-03-28T10:32:40.999Z</time></trkpt><trkpt lat="45.431136966956856" lon="11.510964778267857"><ele>363.0</ele><time>2026-03-28T10:32:42Z</time></trkpt><trkpt lat="45.43123155239598" lon="11.510819641658076"><ele>364.0</ele><time>2026-03-28T10:32:43Z</time></trkpt><trkpt lat="45.43133769835139" lon="11.51066398214864"><ele>365.0</ele><time>2026-03-28T10:32:44Z</time></trkpt><trkpt lat="45.43143456530821" lon="11.510468686412665"><ele>362.5</ele><time>2026-03-28T10:32:45Z</time></trkpt><trkpt lat="45.43150087002331" lon="11.510266579143737"><ele>360.0</ele><time>2026-03-28T10:32:46Z</time></trkpt><trkpt lat="45.431553354208035" lon="11.510088173184236"><ele>357.5</ele><time>2026-03-28T10:32:47Z</time></trkpt><trkpt lat="45.431601050690446" lon="11.509934600825314"><ele>355.0</ele><time>2026-03-28T10:32:48Z</time></trkpt><trkpt lat="45.431646649983605" lon="11.509815092046573"><ele>355.0</ele><time>2026-03-28T10:32:49Z</time></trkpt><trkpt lat="45.43170036191414" lon="11.509737621943284"><ele>355.0</ele><time>2026-03-28T10:32:50Z</time></trkpt><trkpt lat="45.43176439800844" lon="11.509719070266561"><ele>355.0</ele><time>2026-03-28T10:32:51Z</time></trkpt><trkpt lat="45.431856876422486" lon="11.509786721556925"><ele>355.0</ele><time>2026-03-28T10:32:53Z</time></trkpt><trkpt lat="45.43191519558999" lon="11.509905140168888"><ele>355.0</ele><time>2026-03-28T10:32:55Z</time></trkpt><trkpt lat="45.431941316638" lon="11.510005346824117"><ele>355.0</ele><time>2026-03-28T10:32:56Z</time></trkpt><trkpt lat="45.431972273997516" lon="11.510110466464658"><ele>355.0</ele><time>2026-03-28T10:32:57Z</time></trkpt><trkpt lat="45.43202773064741" lon="11.510207411354191"><ele>355.0</ele><time>2026-03-28T10:32:58Z</time></trkpt><trkpt lat="45.43208708403065" lon="11.51028004336956"><ele>355.0</ele><time>2026-03-28T10:32:59Z</time></trkpt><trkpt lat="45.43217602983254" lon="11.510342720791122"><ele>355.0</ele><time>2026-03-28T10:33:01Z</time></trkpt><trkpt lat="45.43227724057685" lon="11.510390206676043"><ele>355.0</ele><time>2026-03-28T10:33:15Z</time></trkpt><trkpt lat="45.43236365301098" lon="11.510431539245756"><ele>356.0</ele><time>2026-03-28T10:33:16Z</time></trkpt><trkpt lat="45.432433244382295" lon="11.510484378571814"><ele>357.0</ele><time>2026-03-28T10:33:17Z</time></trkpt><trkpt lat="45.43250240172572" lon="11.510549521503261"><ele>358.0</ele><time>2026-03-28T10:33:18Z</time></trkpt><trkpt lat="45.43257964003288" lon="11.51060181576568"><ele>359.0</ele><time>2026-03-28T10:33:19Z</time></trkpt><trkpt lat="45.43266789756136" lon="11.510618592536112"><ele>360.0</ele><time>2026-03-28T10:33:20Z</time></trkpt><trkpt lat="45.43275556382997" lon="11.510603506857665"><ele>361.0</ele><time>2026-03-28T10:33:21Z</time></trkpt><trkpt lat="45.43285391221017" lon="11.510537303242106"><ele>361.0</ele><time>2026-03-28T10:33:22Z</time></trkpt><trkpt lat="45.432952668429586" lon="11.510452568754708"><ele>361.0</ele><time>2026-03-28T10:33:23Z</time></trkpt><trkpt lat="45.43305416555828" lon="11.510329808590372"><ele>361.0</ele><time>2026-03-28T10:33:24Z</time></trkpt><trkpt lat="45.43316222571992" lon="11.510149944462153"><ele>361.0</ele><time>2026-03-28T10:33:25Z</time></trkpt><trkpt lat="45.43326936157389" lon="11.509979341108613"><ele>360.75</ele><time>2026-03-28T10:33:26Z</time></trkpt><trkpt lat="45.433373374947834" lon="11.509829403975246"><ele>360.5</ele><time>2026-03-28T10:33:27Z</time></trkpt><trkpt lat="45.433472119481095" lon="11.509683646814162"><ele>360.25</ele><time>2026-03-28T10:33:28Z</time></trkpt><trkpt lat="45.4335747068827" lon="11.509557228000627"><ele>360.0</ele><time>2026-03-28T10:33:29Z</time></trkpt><trkpt lat="45.43368383499902" lon="11.509466570410497"><ele>360.0</ele><time>2026-03-28T10:33:30Z</time></trkpt><trkpt lat="45.433797683083704" lon="11.509403885818509"><ele>360.0</ele><time>2026-03-28T10:33:31Z</time></trkpt><trkpt lat="45.4339439200259" lon="11.509364360762568"><ele>360.0</ele><time>2026-03-28T10:33:32Z</time></trkpt><trkpt lat="45.434083096651754" lon="11.509324615856366"><ele>360.0</ele><time>2026-03-28T10:33:33Z</time></trkpt><trkpt lat="45.43423572040577" lon="11.509329544949601"><ele>357.0</ele><time>2026-03-28T10:33:34Z</time></trkpt><trkpt lat="45.43437678896089" lon="11.509351215860159"><ele>354.0</ele><time>2026-03-28T10:33:35Z</time></trkpt><trkpt lat="45.434509167853925" lon="11.509349566027684"><ele>351.0</ele><time>2026-03-28T10:33:36Z</time></trkpt><trkpt lat="45.43464069809265" lon="11.509321128572102"><ele>348.0</ele><time>2026-03-28T10:33:37Z</time></trkpt><trkpt lat="45.434774569822196" lon="11.509297841336123"><ele>345.75</ele><time>2026-03-28T10:33:38Z</time></trkpt><trkpt lat="45.434904137275495" lon="11.509315748899592"><ele>343.5</ele><time>2026-03-28T10:33:39Z</time></trkpt><trkpt lat="45.43503080069169" lon="11.509373801774684"><ele>341.25</ele><time>2026-03-28T10:33:40Z</time></trkpt><trkpt lat="45.435151935581565" lon="11.509456732660272"><ele>339.0</ele><time>2026-03-28T10:33:41Z</time></trkpt><trkpt lat="45.435274703031126" lon="11.50954349178863"><ele>337.5</ele><time>2026-03-28T10:33:42Z</time></trkpt><trkpt lat="45.43539133446587" lon="11.509608546430902"><ele>336.0</ele><time>2026-03-28T10:33:42.999Z</time></trkpt><trkpt lat="45.435524235161104" lon="11.509621718766812"><ele>334.5</ele><time>2026-03-28T10:33:43.999Z</time></trkpt><trkpt lat="45.43565773494751" lon="11.509610982563782"><ele>333.0</ele><time>2026-03-28T10:33:44.999Z</time></trkpt><trkpt lat="45.43577908305893" lon="11.509596389085528"><ele>332.75</ele><time>2026-03-28T10:33:45.999Z</time></trkpt><trkpt lat="45.43589249598995" lon="11.50958690869198"><ele>332.5</ele><time>2026-03-28T10:33:46.999Z</time></trkpt><trkpt lat="45.436002978152914" lon="11.50962984522332"><ele>332.25</ele><time>2026-03-28T10:33:47.999Z</time></trkpt><trkpt lat="45.436103178980495" lon="11.509730137180645"><ele>332.0</ele><time>2026-03-28T10:33:48.999Z</time></trkpt><trkpt lat="45.4361999306924" lon="11.509861405301182"><ele>332.0</ele><time>2026-03-28T10:33:49.999Z</time></trkpt><trkpt lat="45.43628542261252" lon="11.509987067256017"><ele>332.0</ele><time>2026-03-28T10:33:50.999Z</time></trkpt><trkpt lat="45.436369180912386" lon="11.510107282957424"><ele>332.0</ele><time>2026-03-28T10:33:51.999Z</time></trkpt><trkpt lat="45.43644579362019" lon="11.510228672039869"><ele>332.0</ele><time>2026-03-28T10:33:52.999Z</time></trkpt><trkpt lat="45.43651043535825" lon="11.510390977557044"><ele>330.0</ele><time>2026-03-28T10:33:53.999Z</time></trkpt><trkpt lat="45.436564978133305" lon="11.51060420633049"><ele>328.0</ele><time>2026-03-28T10:33:54.999Z</time></trkpt><trkpt lat="45.436608831567696" lon="11.51085481616347"><ele>326.0</ele><time>2026-03-28T10:33:55.999Z</time></trkpt><trkpt lat="45.43665218670237" lon="11.51108447557392"><ele>327.33333333333337</ele><time>2026-03-28T10:33:56.999Z</time></trkpt><trkpt lat="45.436702315647814" lon="11.511289972224505"><ele>328.6666666666667</ele><time>2026-03-28T10:33:57.999Z</time></trkpt><trkpt lat="45.43677412970677" lon="11.51148264645789"><ele>330.0</ele><time>2026-03-28T10:33:58.999Z</time></trkpt><trkpt lat="45.436882249295515" lon="11.51164155969913"><ele>330.0</ele><time>2026-03-28T10:33:59.999Z</time></trkpt><trkpt lat="45.43697595835495" lon="11.51176225185756"><ele>330.0</ele><time>2026-03-28T10:34:00.999Z</time></trkpt><trkpt lat="45.43706965131787" lon="11.51186811414478"><ele>330.0</ele><time>2026-03-28T10:34:01.999Z</time></trkpt><trkpt lat="45.43719411968496" lon="11.51200899894618"><ele>330.0</ele><time>2026-03-28T10:34:02.999Z</time></trkpt><trkpt lat="45.43729566280581" lon="11.512161623094954"><ele>328.75</ele><time>2026-03-28T10:34:03.999Z</time></trkpt><trkpt lat="45.43739158570421" lon="11.512288004843636"><ele>327.5</ele><time>2026-03-28T10:34:04.999Z</time></trkpt><trkpt lat="45.43752859629985" lon="11.512326819684127"><ele>326.25</ele><time>2026-03-28T10:34:05.999Z</time></trkpt><trkpt lat="45.43768199418543" lon="11.512345613633656"><ele>325.0</ele><time>2026-03-28T10:34:06.999Z</time></trkpt><trkpt lat="45.43786222899033" lon="11.512334803415763"><ele>326.3333333333333</ele><time>2026-03-28T10:34:07.999Z</time></trkpt><trkpt lat="45.43806237860848" lon="11.512303753772738"><ele>327.6666666666667</ele><time>2026-03-28T10:34:08.999Z</time></trkpt><trkpt lat="45.43825006105379" lon="11.512274089435179"><ele>329.0</ele><time>2026-03-28T10:34:09.999Z</time></trkpt><trkpt lat="45.43840680760472" lon="11.512278313767323"><ele>329.0</ele><time>2026-03-28T10:34:10.999Z</time></trkpt><trkpt lat="45.438547009603276" lon="11.512329205902867"><ele>329.0</ele><time>2026-03-28T10:34:11.999Z</time></trkpt><trkpt lat="45.4386686870497" lon="11.51241708421348"><ele>329.0</ele><time>2026-03-28T10:34:12.999Z</time></trkpt><trkpt lat="45.43879113738784" lon="11.512549769763739"><ele>329.0</ele><time>2026-03-28T10:34:13.999Z</time></trkpt><trkpt lat="45.43895089494087" lon="11.512676877280903"><ele>333.33333333333337</ele><time>2026-03-28T10:34:14.999Z</time></trkpt><trkpt lat="45.43912680965108" lon="11.512768889611676"><ele>337.6666666666667</ele><time>2026-03-28T10:34:15.999Z</time></trkpt><trkpt lat="45.43930463891514" lon="11.512850678566641"><ele>342.0</ele><time>2026-03-28T10:34:16.999Z</time></trkpt><trkpt lat="45.43944478193531" lon="11.51292884525435"><ele>342.0</ele><time>2026-03-28T10:34:17.999Z</time></trkpt><trkpt lat="45.43957951753086" lon="11.512994437540584"><ele>342.0</ele><time>2026-03-28T10:34:18.999Z</time></trkpt><trkpt lat="45.43972149434987" lon="11.513012268500963"><ele>342.0</ele><time>2026-03-28T10:34:19.999Z</time></trkpt><trkpt lat="45.439877303252665" lon="11.512968067827266"><ele>342.0</ele><time>2026-03-28T10:34:20.999Z</time></trkpt><trkpt lat="45.44003830573394" lon="11.512893450435795"><ele>342.3333333333333</ele><time>2026-03-28T10:34:21.999Z</time></trkpt><trkpt lat="45.44021010735527" lon="11.512782138593533"><ele>342.66666666666663</ele><time>2026-03-28T10:34:22.999Z</time></trkpt><trkpt lat="45.440401785567644" lon="11.512641948443598"><ele>343.0</ele><time>2026-03-28T10:34:23.999Z</time></trkpt><trkpt lat="45.44062125443036" lon="11.512499313107808"><ele>348.5</ele><time>2026-03-28T10:34:24.999Z</time></trkpt><trkpt lat="45.44085908027478" lon="11.512370604594581"><ele>354.0</ele><time>2026-03-28T10:34:25.999Z</time></trkpt><trkpt lat="45.44108526982203" lon="11.512236244270834"><ele>354.0</ele><time>2026-03-28T10:34:26.999Z</time></trkpt><trkpt lat="45.44127869997364" lon="11.512093456707097"><ele>354.0</ele><time>2026-03-28T10:34:27.999Z</time></trkpt><trkpt lat="45.44145222929484" lon="11.51193314535566"><ele>354.0</ele><time>2026-03-28T10:34:28.999Z</time></trkpt><trkpt lat="45.441635018026965" lon="11.511752225469328"><ele>355.0</ele><time>2026-03-28T10:34:29.999Z</time></trkpt><trkpt lat="45.441798616486004" lon="11.511617340207517"><ele>356.0</ele><time>2026-03-28T10:34:30.999Z</time></trkpt><trkpt lat="45.44193500358127" lon="11.511507858324103"><ele>357.0</ele><time>2026-03-28T10:34:31.999Z</time></trkpt><trkpt lat="45.442035699162474" lon="11.511403707994031"><ele>357.0</ele><time>2026-03-28T10:34:32.999Z</time></trkpt><trkpt lat="45.44212183300156" lon="11.511323801929102"><ele>357.0</ele><time>2026-03-28T10:34:33.999Z</time></trkpt><trkpt lat="45.442209034825474" lon="11.511287992693024"><ele>357.0</ele><time>2026-03-28T10:34:34.999Z</time></trkpt><trkpt lat="45.442281485069124" lon="11.511322046474351"><ele>357.0</ele><time>2026-03-28T10:34:35.999Z</time></trkpt><trkpt lat="45.442324803656234" lon="11.511411546433145"><ele>357.0</ele><time>2026-03-28T10:34:36.999Z</time></trkpt><trkpt lat="45.442360958149585" lon="11.51153811533917"><ele>357.0</ele><time>2026-03-28T10:34:37.999Z</time></trkpt><trkpt lat="45.442403090826325" lon="11.511693443878599"><ele>360.75</ele><time>2026-03-28T10:34:38.999Z</time></trkpt><trkpt lat="45.4424812073688" lon="11.511858857481535"><ele>364.5</ele><time>2026-03-28T10:34:39.999Z</time></trkpt><trkpt lat="45.44256446264706" lon="11.512002330711828"><ele>368.25</ele><time>2026-03-28T10:34:40.999Z</time></trkpt><trkpt lat="45.442663136601006" lon="11.512102327292721"><ele>372.0</ele><time>2026-03-28T10:34:41.999Z</time></trkpt><trkpt lat="45.442793276967215" lon="11.512179898236703"><ele>372.75</ele><time>2026-03-28T10:34:42.999Z</time></trkpt><trkpt lat="45.44293101564382" lon="11.51227444656942"><ele>373.5</ele><time>2026-03-28T10:34:43.999Z</time></trkpt><trkpt lat="45.44306512667143" lon="11.512342198766007"><ele>374.25</ele><time>2026-03-28T10:34:44.999Z</time></trkpt><trkpt lat="45.44320736072359" lon="11.512375014374827"><ele>375.0</ele><time>2026-03-28T10:34:45.999Z</time></trkpt><trkpt lat="45.44335284684405" lon="11.512360943798889"><ele>376.5</ele><time>2026-03-28T10:34:46.999Z</time></trkpt><trkpt lat="45.44347605066701" lon="11.512356808224112"><ele>378.0</ele><time>2026-03-28T10:34:48Z</time></trkpt><trkpt lat="45.44358331319219" lon="11.51239382328371"><ele>379.5</ele><time>2026-03-28T10:34:49Z</time></trkpt><trkpt lat="45.44368725873104" lon="11.512485097300637"><ele>381.0</ele><time>2026-03-28T10:34:50Z</time></trkpt><trkpt lat="45.44377846901749" lon="11.512611421975704"><ele>380.75</ele><time>2026-03-28T10:34:51Z</time></trkpt><trkpt lat="45.443880452233905" lon="11.512738088633688"><ele>380.5</ele><time>2026-03-28T10:34:52Z</time></trkpt><trkpt lat="45.444009435722485" lon="11.512834906647258"><ele>380.25</ele><time>2026-03-28T10:34:53Z</time></trkpt><trkpt lat="45.44415848861588" lon="11.512903804432245"><ele>380.0</ele><time>2026-03-28T10:34:54Z</time></trkpt><trkpt lat="45.44429816865505" lon="11.51296312202319"><ele>380.0</ele><time>2026-03-28T10:34:55Z</time></trkpt><trkpt lat="45.44442865179445" lon="11.512995665146065"><ele>380.0</ele><time>2026-03-28T10:34:56Z</time></trkpt><trkpt lat="45.44454740945022" lon="11.513006707776658"><ele>380.0</ele><time>2026-03-28T10:34:57Z</time></trkpt><trkpt lat="45.44465374436765" lon="11.512985667377997"><ele>380.0</ele><time>2026-03-28T10:34:58Z</time></trkpt><trkpt lat="45.44475563684038" lon="11.512925401248555"><ele>379.25</ele><time>2026-03-28T10:34:59Z</time></trkpt><trkpt lat="45.444861951576314" lon="11.512836052474354"><ele>378.5</ele><time>2026-03-28T10:35:00Z</time></trkpt><trkpt lat="45.44496949995076" lon="11.512703422111963"><ele>377.75</ele><time>2026-03-28T10:35:01Z</time></trkpt><trkpt lat="45.445077159449006" lon="11.512552829285017"><ele>377.0</ele><time>2026-03-28T10:35:02Z</time></trkpt><trkpt lat="45.44516765040116" lon="11.512367733734774"><ele>377.0</ele><time>2026-03-28T10:35:03Z</time></trkpt><trkpt lat="45.44524590257084" lon="11.51216840724298"><ele>377.0</ele><time>2026-03-28T10:35:04Z</time></trkpt><trkpt lat="45.44532123831993" lon="11.511984496151195"><ele>377.0</ele><time>2026-03-28T10:35:05Z</time></trkpt><trkpt lat="45.44542199866869" lon="11.511804959109963"><ele>373.33333333333337</ele><time>2026-03-28T10:35:06Z</time></trkpt><trkpt lat="45.44555483220428" lon="11.51164230631618"><ele>369.6666666666667</ele><time>2026-03-28T10:35:07Z</time></trkpt><trkpt lat="45.44571628592524" lon="11.511481793933621"><ele>366.0</ele><time>2026-03-28T10:35:08Z</time></trkpt><trkpt lat="45.44586287160423" lon="11.511330184111506"><ele>365.75</ele><time>2026-03-28T10:35:09Z</time></trkpt><trkpt lat="45.44598812376671" lon="11.511192697291264"><ele>365.5</ele><time>2026-03-28T10:35:10Z</time></trkpt><trkpt lat="45.446093245612325" lon="11.511058257832934"><ele>365.25</ele><time>2026-03-28T10:35:11Z</time></trkpt><trkpt lat="45.446155472387815" lon="11.510914022021757"><ele>365.0</ele><time>2026-03-28T10:35:12Z</time></trkpt><trkpt lat="45.446161167080184" lon="11.510765064111252"><ele>365.0</ele><time>2026-03-28T10:35:13Z</time></trkpt><trkpt lat="45.44612952782087" lon="11.51061327767875"><ele>365.0</ele><time>2026-03-28T10:35:14Z</time></trkpt><trkpt lat="45.446069806507104" lon="11.510444140186026"><ele>365.0</ele><time>2026-03-28T10:35:15Z</time></trkpt><trkpt lat="45.44601498380749" lon="11.510282930684664"><ele>365.0</ele><time>2026-03-28T10:35:16Z</time></trkpt><trkpt lat="45.445981887062125" lon="11.510131954245468"><ele>364.2</ele><time>2026-03-28T10:35:17Z</time></trkpt><trkpt lat="45.44597608766999" lon="11.510006292642892"><ele>363.4</ele><time>2026-03-28T10:35:18Z</time></trkpt><trkpt lat="45.446009812952184" lon="11.509878119149326"><ele>362.6</ele><time>2026-03-28T10:35:19Z</time></trkpt><trkpt lat="45.44607596523626" lon="11.509744848418352"><ele>361.8</ele><time>2026-03-28T10:35:20Z</time></trkpt><trkpt lat="45.44617107089225" lon="11.509592174670649"><ele>361.0</ele><time>2026-03-28T10:35:21Z</time></trkpt><trkpt lat="45.44628374204728" lon="11.509446798804607"><ele>366.0</ele><time>2026-03-28T10:35:22Z</time></trkpt><trkpt lat="45.446418256653814" lon="11.509285703903451"><ele>371.0</ele><time>2026-03-28T10:35:23Z</time></trkpt><trkpt lat="45.446568140251635" lon="11.50911262972601"><ele>376.0</ele><time>2026-03-28T10:35:24Z</time></trkpt><trkpt lat="45.44671773232477" lon="11.508912622337334"><ele>371.0</ele><time>2026-03-28T10:35:25Z</time></trkpt><trkpt lat="45.44684856913251" lon="11.508715905474213"><ele>366.0</ele><time>2026-03-28T10:35:26Z</time></trkpt><trkpt lat="45.44696221414201" lon="11.508560675546809"><ele>361.0</ele><time>2026-03-28T10:35:27Z</time></trkpt><trkpt lat="45.44706799074746" lon="11.508441117173366"><ele>363.25</ele><time>2026-03-28T10:35:28Z</time></trkpt><trkpt lat="45.4471762387782" lon="11.508371904692934"><ele>365.5</ele><time>2026-03-28T10:35:29Z</time></trkpt><trkpt lat="45.447298569062276" lon="11.508356369334757"><ele>367.75</ele><time>2026-03-28T10:35:30Z</time></trkpt><trkpt lat="45.44744825195331" lon="11.508391088727961"><ele>370.0</ele><time>2026-03-28T10:35:31Z</time></trkpt><trkpt lat="45.447608264735074" lon="11.508427725673409"><ele>370.0</ele><time>2026-03-28T10:35:32Z</time></trkpt><trkpt lat="45.44774861182978" lon="11.508427046199262"><ele>370.0</ele><time>2026-03-28T10:35:33Z</time></trkpt><trkpt lat="45.447874631242904" lon="11.50837955697132"><ele>370.0</ele><time>2026-03-28T10:35:34Z</time></trkpt><trkpt lat="45.44799939632363" lon="11.508284007351422"><ele>370.0</ele><time>2026-03-28T10:35:35Z</time></trkpt><trkpt lat="45.448109648679925" lon="11.508150361717142"><ele>371.5</ele><time>2026-03-28T10:35:36Z</time></trkpt><trkpt lat="45.44818660180258" lon="11.508008284373679"><ele>373.0</ele><time>2026-03-28T10:35:37Z</time></trkpt><trkpt lat="45.448216172463255" lon="11.507861581182057"><ele>374.5</ele><time>2026-03-28T10:35:38Z</time></trkpt><trkpt lat="45.44819885769249" lon="11.50769865282847"><ele>376.0</ele><time>2026-03-28T10:35:39Z</time></trkpt><trkpt lat="45.44814977384408" lon="11.507517736343198"><ele>376.0</ele><time>2026-03-28T10:35:40Z</time></trkpt><trkpt lat="45.448067596149485" lon="11.5073086608467"><ele>376.0</ele><time>2026-03-28T10:35:41Z</time></trkpt><trkpt lat="45.447998873463064" lon="11.507082851360877"><ele>376.0</ele><time>2026-03-28T10:35:42Z</time></trkpt><trkpt lat="45.447948284895865" lon="11.506888735451682"><ele>374.25</ele><time>2026-03-28T10:35:43Z</time></trkpt><trkpt lat="45.44791932617749" lon="11.50672479890214"><ele>372.5</ele><time>2026-03-28T10:35:44Z</time></trkpt><trkpt lat="45.447928760082604" lon="11.506588829494584"><ele>370.75</ele><time>2026-03-28T10:35:45Z</time></trkpt><trkpt lat="45.44798943294771" lon="11.506456025011095"><ele>369.0</ele><time>2026-03-28T10:35:46Z</time></trkpt><trkpt lat="45.44810212683963" lon="11.506334936762492"><ele>365.0</ele><time>2026-03-28T10:35:47Z</time></trkpt><trkpt lat="45.44824902113964" lon="11.506229545263313"><ele>361.0</ele><time>2026-03-28T10:35:48Z</time></trkpt><trkpt lat="45.44841877588197" lon="11.506110721321487"><ele>357.0</ele><time>2026-03-28T10:35:49Z</time></trkpt><trkpt lat="45.44859856667617" lon="11.505948520515739"><ele>357.0</ele><time>2026-03-28T10:35:50Z</time></trkpt><trkpt lat="45.44874799521937" lon="11.505766999969026"><ele>357.0</ele><time>2026-03-28T10:35:51Z</time></trkpt><trkpt lat="45.44886851467803" lon="11.505600992107148"><ele>357.0</ele><time>2026-03-28T10:35:52Z</time></trkpt><trkpt lat="45.44898111118084" lon="11.50547439602987"><ele>356.25</ele><time>2026-03-28T10:35:53Z</time></trkpt><trkpt lat="45.44910606981497" lon="11.505412696901328"><ele>355.5</ele><time>2026-03-28T10:35:54Z</time></trkpt><trkpt lat="45.44924906996164" lon="11.505403532949895"><ele>354.75</ele><time>2026-03-28T10:35:55Z</time></trkpt><trkpt lat="45.44939671265209" lon="11.505401810995926"><ele>354.0</ele><time>2026-03-28T10:35:56Z</time></trkpt><trkpt lat="45.44953274824915" lon="11.505336082526144"><ele>356.0</ele><time>2026-03-28T10:35:57Z</time></trkpt><trkpt lat="45.44967261233171" lon="11.505199275831156"><ele>358.0</ele><time>2026-03-28T10:35:58Z</time></trkpt><trkpt lat="45.449816286097864" lon="11.504997343019657"><ele>360.0</ele><time>2026-03-28T10:35:59Z</time></trkpt><trkpt lat="45.44997026847946" lon="11.504785561905436"><ele>360.0</ele><time>2026-03-28T10:36:00Z</time></trkpt><trkpt lat="45.450138163927335" lon="11.504585898106365"><ele>360.0</ele><time>2026-03-28T10:36:01Z</time></trkpt><trkpt lat="45.45028678062279" lon="11.504409314702691"><ele>360.0</ele><time>2026-03-28T10:36:02Z</time></trkpt><trkpt lat="45.4504211473349" lon="11.504194094470282"><ele>360.0</ele><time>2026-03-28T10:36:03Z</time></trkpt><trkpt lat="45.45051808926676" lon="11.503972116340288"><ele>360.0</ele><time>2026-03-28T10:36:04Z</time></trkpt><trkpt lat="45.450614175281245" lon="11.503790377879271"><ele>360.0</ele><time>2026-03-28T10:36:05Z</time></trkpt><trkpt lat="45.45072799552506" lon="11.503646199036709"><ele>360.0</ele><time>2026-03-28T10:36:06Z</time></trkpt><trkpt lat="45.4508532065881" lon="11.503540245157236"><ele>360.0</ele><time>2026-03-28T10:36:07Z</time></trkpt><trkpt lat="45.450986091164296" lon="11.503436773707039"><ele>360.0</ele><time>2026-03-28T10:36:08Z</time></trkpt><trkpt lat="45.45112637897642" lon="11.503319233062548"><ele>360.0</ele><time>2026-03-28T10:36:09Z</time></trkpt><trkpt lat="45.451266040854414" lon="11.503173706169203"><ele>360.0</ele><time>2026-03-28T10:36:10Z</time></trkpt><trkpt lat="45.45141151646641" lon="11.502998032835649"><ele>360.0</ele><time>2026-03-28T10:36:11Z</time></trkpt><trkpt lat="45.45157836658127" lon="11.502798522715747"><ele>359.0</ele><time>2026-03-28T10:36:12Z</time></trkpt><trkpt lat="45.45174962261311" lon="11.502588022680584"><ele>358.0</ele><time>2026-03-28T10:36:13Z</time></trkpt><trkpt lat="45.45192252747598" lon="11.502358526491268"><ele>358.0</ele><time>2026-03-28T10:36:14Z</time></trkpt><trkpt lat="45.45211848156375" lon="11.502100763754664"><ele>358.0</ele><time>2026-03-28T10:36:15Z</time></trkpt><trkpt lat="45.452274505375414" lon="11.501887426229603"><ele>361.0</ele><time>2026-03-28T10:36:16Z</time></trkpt><trkpt lat="45.452393004391766" lon="11.501695239470974"><ele>364.0</ele><time>2026-03-28T10:36:17Z</time></trkpt><trkpt lat="45.4524743246508" lon="11.501531761522815"><ele>367.0</ele><time>2026-03-28T10:36:18Z</time></trkpt><trkpt lat="45.45252785430217" lon="11.501363561522732"><ele>368.5</ele><time>2026-03-28T10:36:19Z</time></trkpt><trkpt lat="45.452555769101295" lon="11.501176997259707"><ele>370.0</ele><time>2026-03-28T10:36:20Z</time></trkpt><trkpt lat="45.452564532336865" lon="11.500967014890227"><ele>371.5</ele><time>2026-03-28T10:36:21Z</time></trkpt><trkpt lat="45.45256444361564" lon="11.500737580085334"><ele>373.0</ele><time>2026-03-28T10:36:22Z</time></trkpt><trkpt lat="45.452601876555036" lon="11.50049978400532"><ele>375.0</ele><time>2026-03-28T10:36:23Z</time></trkpt><trkpt lat="45.45265038311442" lon="11.500282426730955"><ele>377.0</ele><time>2026-03-28T10:36:24Z</time></trkpt><trkpt lat="45.45270474309683" lon="11.500089549366026"><ele>379.0</ele><time>2026-03-28T10:36:25Z</time></trkpt><trkpt lat="45.4527603707866" lon="11.499882933053227"><ele>379.0</ele><time>2026-03-28T10:36:26Z</time></trkpt><trkpt lat="45.45280044436731" lon="11.499680662157063"><ele>379.0</ele><time>2026-03-28T10:36:27Z</time></trkpt><trkpt lat="45.45281931578051" lon="11.499495447641085"><ele>379.0</ele><time>2026-03-28T10:36:27.999Z</time></trkpt><trkpt lat="45.45283933690317" lon="11.499321937572624"><ele>379.0</ele><time>2026-03-28T10:36:28.999Z</time></trkpt><trkpt lat="45.45284366440765" lon="11.499137900804554"><ele>377.75</ele><time>2026-03-28T10:36:29.999Z</time></trkpt><trkpt lat="45.45281802521959" lon="11.498941817895435"><ele>376.5</ele><time>2026-03-28T10:36:30.999Z</time></trkpt><trkpt lat="45.4527687118968" lon="11.498773036120776"><ele>375.25</ele><time>2026-03-28T10:36:31.999Z</time></trkpt><trkpt lat="45.45270168771646" lon="11.498632747533556"><ele>374.0</ele><time>2026-03-28T10:36:32.999Z</time></trkpt><trkpt lat="45.45263783784782" lon="11.498499647133123"><ele>373.0</ele><time>2026-03-28T10:36:33.999Z</time></trkpt><trkpt lat="45.452616114849334" lon="11.498343840243788"><ele>372.0</ele><time>2026-03-28T10:36:34.999Z</time></trkpt><trkpt lat="45.45263746921533" lon="11.498159201862393"><ele>371.0</ele><time>2026-03-28T10:36:35.999Z</time></trkpt><trkpt lat="45.45269398934969" lon="11.497966069345399"><ele>370.0</ele><time>2026-03-28T10:36:36.999Z</time></trkpt><trkpt lat="45.45278877825743" lon="11.497815708077862"><ele>370.66666666666663</ele><time>2026-03-28T10:36:37.999Z</time></trkpt><trkpt lat="45.45290775712395" lon="11.497669629781036"><ele>371.3333333333333</ele><time>2026-03-28T10:36:38.999Z</time></trkpt><trkpt lat="45.45305638229408" lon="11.49754787590958"><ele>372.0</ele><time>2026-03-28T10:36:39.999Z</time></trkpt><trkpt lat="45.453231342410845" lon="11.497417759464499"><ele>372.0</ele><time>2026-03-28T10:36:40.999Z</time></trkpt><trkpt lat="45.453384978614956" lon="11.497267442054824"><ele>372.0</ele><time>2026-03-28T10:36:41.999Z</time></trkpt><trkpt lat="45.453481308189545" lon="11.497092653103005"><ele>372.0</ele><time>2026-03-28T10:36:42.999Z</time></trkpt><trkpt lat="45.45353558142736" lon="11.49690330210095"><ele>371.75</ele><time>2026-03-28T10:36:43.999Z</time></trkpt><trkpt lat="45.45354900703453" lon="11.49671202027997"><ele>371.5</ele><time>2026-03-28T10:36:44.999Z</time></trkpt><trkpt lat="45.45353055610455" lon="11.496515497944289"><ele>371.25</ele><time>2026-03-28T10:36:45.999Z</time></trkpt><trkpt lat="45.45352295473108" lon="11.496330295173182"><ele>371.0</ele><time>2026-03-28T10:36:46.999Z</time></trkpt><trkpt lat="45.453547889495766" lon="11.496154003238617"><ele>370.25</ele><time>2026-03-28T10:36:47.999Z</time></trkpt><trkpt lat="45.45358671477313" lon="11.495962021117172"><ele>369.5</ele><time>2026-03-28T10:36:48.999Z</time></trkpt><trkpt lat="45.45363305912199" lon="11.495786678233147"><ele>368.75</ele><time>2026-03-28T10:36:49.999Z</time></trkpt><trkpt lat="45.453670979631006" lon="11.495590199714952"><ele>368.0</ele><time>2026-03-28T10:36:50.999Z</time></trkpt><trkpt lat="45.453705022131935" lon="11.495389720335062"><ele>367.4</ele><time>2026-03-28T10:36:51.999Z</time></trkpt><trkpt lat="45.45373923472851" lon="11.49522046185109"><ele>366.79999999999995</ele><time>2026-03-28T10:36:52.999Z</time></trkpt><trkpt lat="45.453786966153956" lon="11.495092924043991"><ele>366.2</ele><time>2026-03-28T10:36:54Z</time></trkpt><trkpt lat="45.45384934417107" lon="11.494977550072525"><ele>365.6</ele><time>2026-03-28T10:36:55Z</time></trkpt><trkpt lat="45.4539358583524" lon="11.494859093305013"><ele>365.0</ele><time>2026-03-28T10:36:56Z</time></trkpt><trkpt lat="45.45402581895991" lon="11.494743873434464"><ele>366.0</ele><time>2026-03-28T10:36:57Z</time></trkpt><trkpt lat="45.45410953875025" lon="11.494621647737786"><ele>367.0</ele><time>2026-03-28T10:36:58Z</time></trkpt><trkpt lat="45.45417153416198" lon="11.494521724932692"><ele>368.0</ele><time>2026-03-28T10:36:59Z</time></trkpt><trkpt lat="45.45422248168662" lon="11.494416353209207"><ele>369.0</ele><time>2026-03-28T10:37:00Z</time></trkpt><trkpt lat="45.45425480594092" lon="11.494310218601148"><ele>370.0</ele><time>2026-03-28T10:37:01Z</time></trkpt><trkpt lat="45.45431558317168" lon="11.494184889362284"><ele>370.0</ele><time>2026-03-28T10:37:03Z</time></trkpt><trkpt lat="45.454413408961976" lon="11.494171427702334"><ele>370.0</ele><time>2026-03-28T10:37:05Z</time></trkpt><trkpt lat="45.45449967926996" lon="11.494212952619726"><ele>370.0</ele><time>2026-03-28T10:37:06Z</time></trkpt><trkpt lat="45.454592919636674" lon="11.494287642098355"><ele>370.0</ele><time>2026-03-28T10:37:07Z</time></trkpt><trkpt lat="45.45471676280053" lon="11.494368596504025"><ele>370.0</ele><time>2026-03-28T10:37:08Z</time></trkpt><trkpt lat="45.45486271701661" lon="11.49443905216887"><ele>368.0</ele><time>2026-03-28T10:37:09Z</time></trkpt><trkpt lat="45.45501695121289" lon="11.494481438831855"><ele>366.0</ele><time>2026-03-28T10:37:10Z</time></trkpt><trkpt lat="45.455175314803725" lon="11.494487061109922"><ele>364.0</ele><time>2026-03-28T10:37:11Z</time></trkpt><trkpt lat="45.45533071033959" lon="11.494470012929364"><ele>360.5</ele><time>2026-03-28T10:37:12Z</time></trkpt><trkpt lat="45.45547524669563" lon="11.494437968287075"><ele>357.0</ele><time>2026-03-28T10:37:13Z</time></trkpt><trkpt lat="45.45560348403127" lon="11.494365563686811"><ele>353.5</ele><time>2026-03-28T10:37:14Z</time></trkpt><trkpt lat="45.4557269788232" lon="11.494293794728872"><ele>350.0</ele><time>2026-03-28T10:37:15Z</time></trkpt><trkpt lat="45.45585683496906" lon="11.494252068174953"><ele>350.0</ele><time>2026-03-28T10:37:16Z</time></trkpt><trkpt lat="45.456017736464226" lon="11.494246440888274"><ele>350.0</ele><time>2026-03-28T10:37:17Z</time></trkpt><trkpt lat="45.45619137670889" lon="11.494271770989327"><ele>350.0</ele><time>2026-03-28T10:37:18Z</time></trkpt><trkpt lat="45.45637582093521" lon="11.494238855908652"><ele>348.0</ele><time>2026-03-28T10:37:19Z</time></trkpt><trkpt lat="45.45657742881758" lon="11.494173108225384"><ele>346.0</ele><time>2026-03-28T10:37:20Z</time></trkpt><trkpt lat="45.4567870461801" lon="11.494115608969363"><ele>344.0</ele><time>2026-03-28T10:37:21Z</time></trkpt><trkpt lat="45.45699117935723" lon="11.494081295783788"><ele>342.6666666666667</ele><time>2026-03-28T10:37:22Z</time></trkpt><trkpt lat="45.45717700663688" lon="11.494072027135372"><ele>341.3333333333333</ele><time>2026-03-28T10:37:23Z</time></trkpt><trkpt lat="45.45734532137178" lon="11.49405444599109"><ele>340.0</ele><time>2026-03-28T10:37:24Z</time></trkpt><trkpt lat="45.45750417446137" lon="11.494033881890934"><ele>340.0</ele><time>2026-03-28T10:37:25Z</time></trkpt><trkpt lat="45.45764733914621" lon="11.494041595874325"><ele>340.0</ele><time>2026-03-28T10:37:26Z</time></trkpt><trkpt lat="45.45778112097708" lon="11.494099270024124"><ele>340.0</ele><time>2026-03-28T10:37:27Z</time></trkpt><trkpt lat="45.457911055622304" lon="11.494142219053069"><ele>340.0</ele><time>2026-03-28T10:37:28Z</time></trkpt><trkpt lat="45.458061731252876" lon="11.494133774006222"><ele>340.25</ele><time>2026-03-28T10:37:29Z</time></trkpt><trkpt lat="45.458220050003476" lon="11.494068654243424"><ele>340.5</ele><time>2026-03-28T10:37:30Z</time></trkpt><trkpt lat="45.45835965174205" lon="11.493998753791384"><ele>340.75</ele><time>2026-03-28T10:37:31Z</time></trkpt><trkpt lat="45.45848005137248" lon="11.49392692054825"><ele>341.0</ele><time>2026-03-28T10:37:32Z</time></trkpt><trkpt lat="45.458589832635994" lon="11.493878055687615"><ele>341.0</ele><time>2026-03-28T10:37:33Z</time></trkpt><trkpt lat="45.45869571080301" lon="11.493856301254056"><ele>341.0</ele><time>2026-03-28T10:37:34Z</time></trkpt><trkpt lat="45.45880643979855" lon="11.493856178498314"><ele>341.0</ele><time>2026-03-28T10:37:35Z</time></trkpt><trkpt lat="45.45891929305362" lon="11.49386559959126"><ele>341.0</ele><time>2026-03-28T10:37:36Z</time></trkpt><trkpt lat="45.45903572906806" lon="11.493857674416537"><ele>341.0</ele><time>2026-03-28T10:37:37Z</time></trkpt><trkpt lat="45.45915188537289" lon="11.493843698112459"><ele>339.0</ele><time>2026-03-28T10:37:38Z</time></trkpt><trkpt lat="45.45927090549472" lon="11.493818965311442"><ele>337.0</ele><time>2026-03-28T10:37:39Z</time></trkpt><trkpt lat="45.4593864528939" lon="11.493785867181103"><ele>335.0</ele><time>2026-03-28T10:37:40Z</time></trkpt><trkpt lat="45.45949966826353" lon="11.493740207876192"><ele>333.0</ele><time>2026-03-28T10:37:41Z</time></trkpt><trkpt lat="45.45961219820195" lon="11.493684053930442"><ele>332.0</ele><time>2026-03-28T10:37:42Z</time></trkpt><trkpt lat="45.45972613667247" lon="11.493626923153458"><ele>331.0</ele><time>2026-03-28T10:37:43Z</time></trkpt><trkpt lat="45.459840786853114" lon="11.493579974430522"><ele>330.0</ele><time>2026-03-28T10:37:44Z</time></trkpt><trkpt lat="45.45995241049428" lon="11.493552409360536"><ele>329.0</ele><time>2026-03-28T10:37:45Z</time></trkpt><trkpt lat="45.46006224810421" lon="11.493544076901749"><ele>329.0</ele><time>2026-03-28T10:37:46Z</time></trkpt><trkpt lat="45.460163039686144" lon="11.493543177932"><ele>329.0</ele><time>2026-03-28T10:37:47Z</time></trkpt><trkpt lat="45.460258932690955" lon="11.493549964353104"><ele>329.0</ele><time>2026-03-28T10:37:48Z</time></trkpt><trkpt lat="45.46034392625491" lon="11.493555632649297"><ele>329.0</ele><time>2026-03-28T10:37:49Z</time></trkpt><trkpt lat="45.46042430980797" lon="11.493559386293365"><ele>329.0</ele><time>2026-03-28T10:37:50Z</time></trkpt><trkpt lat="45.46049585669806" lon="11.493564203932372"><ele>329.0</ele><time>2026-03-28T10:37:51Z</time></trkpt><trkpt lat="45.4605595294566" lon="11.493567797204562"><ele>330.2</ele><time>2026-03-28T10:37:52Z</time></trkpt><trkpt lat="45.46067486212472" lon="11.49358211566797"><ele>331.4</ele><time>2026-03-28T10:37:54Z</time></trkpt><trkpt lat="45.46076862072009" lon="11.493609779418065"><ele>332.6</ele><time>2026-03-28T10:37:56Z</time></trkpt><trkpt lat="45.46087683370915" lon="11.493642843866402"><ele>333.8</ele><time>2026-03-28T10:37:58Z</time></trkpt><trkpt lat="45.4609752691318" lon="11.493679439139497"><ele>335.0</ele><time>2026-03-28T10:38:00Z</time></trkpt><trkpt lat="45.461071494564216" lon="11.49371979008668"><ele>329.2</ele><time>2026-03-28T10:38:02Z</time></trkpt><trkpt lat="45.46116434745192" lon="11.493756052202663"><ele>323.4</ele><time>2026-03-28T10:38:04Z</time></trkpt><trkpt lat="45.46128903820674" lon="11.493792144027205"><ele>317.6</ele><time>2026-03-28T10:38:06Z</time></trkpt><trkpt lat="45.46135662280747" lon="11.49381087342393"><ele>311.8</ele><time>2026-03-28T10:38:07Z</time></trkpt><trkpt lat="45.461440184562115" lon="11.493832772525943"><ele>306.0</ele><time>2026-03-28T10:38:08Z</time></trkpt><trkpt lat="45.46152527149428" lon="11.493849604942843"><ele>306.0</ele><time>2026-03-28T10:38:09Z</time></trkpt><trkpt lat="45.46161048108772" lon="11.493858962891004"><ele>306.0</ele><time>2026-03-28T10:38:10Z</time></trkpt><trkpt lat="45.46169698504829" lon="11.493850690665527"><ele>306.0</ele><time>2026-03-28T10:38:11Z</time></trkpt><trkpt lat="45.461794312600304" lon="11.493849356790657"><ele>306.0</ele><time>2026-03-28T10:38:12Z</time></trkpt><trkpt lat="45.461892123525324" lon="11.493851345058209"><ele>306.0</ele><time>2026-03-28T10:38:13Z</time></trkpt><trkpt lat="45.46198705099645" lon="11.493860520405063"><ele>306.0</ele><time>2026-03-28T10:38:14Z</time></trkpt><trkpt lat="45.46207467991764" lon="11.493875961852444"><ele>306.0</ele><time>2026-03-28T10:38:15Z</time></trkpt><trkpt lat="45.4621525243333" lon="11.493902825075082"><ele>306.0</ele><time>2026-03-28T10:38:16Z</time></trkpt><trkpt lat="45.46222593456364" lon="11.493935439135514"><ele>306.0</ele><time>2026-03-28T10:38:17Z</time></trkpt><trkpt lat="45.4623092649774" lon="11.493986493380351"><ele>306.0</ele><time>2026-03-28T10:38:18Z</time></trkpt><trkpt lat="45.4624286151214" lon="11.494062177908223"><ele>310.3333333333333</ele><time>2026-03-28T10:38:19Z</time></trkpt><trkpt lat="45.46256566512378" lon="11.494153867835626"><ele>314.66666666666663</ele><time>2026-03-28T10:38:20Z</time></trkpt><trkpt lat="45.462719090007205" lon="11.494279090738877"><ele>319.0</ele><time>2026-03-28T10:38:21Z</time></trkpt><trkpt lat="45.46286020411148" lon="11.494402920143933"><ele>321.25</ele><time>2026-03-28T10:38:22Z</time></trkpt><trkpt lat="45.46297935521271" lon="11.494514165438884"><ele>323.5</ele><time>2026-03-28T10:38:23Z</time></trkpt><trkpt lat="45.46308859835869" lon="11.494608729702755"><ele>325.75</ele><time>2026-03-28T10:38:24Z</time></trkpt><trkpt lat="45.46320427643394" lon="11.494681455122413"><ele>328.0</ele><time>2026-03-28T10:38:25Z</time></trkpt><trkpt lat="45.46333828057731" lon="11.494722819816237"><ele>321.0</ele><time>2026-03-28T10:38:26Z</time></trkpt><trkpt lat="45.463501779019836" lon="11.494731387835271"><ele>314.0</ele><time>2026-03-28T10:38:27Z</time></trkpt><trkpt lat="45.46369036986006" lon="11.49474753000376"><ele>307.0</ele><time>2026-03-28T10:38:28Z</time></trkpt><trkpt lat="45.46389974089116" lon="11.494794975597504"><ele>307.0</ele><time>2026-03-28T10:38:29Z</time></trkpt><trkpt lat="45.46407374151523" lon="11.494859595265597"><ele>307.0</ele><time>2026-03-28T10:38:30Z</time></trkpt><trkpt lat="45.464235157900184" lon="11.494924431198177"><ele>307.0</ele><time>2026-03-28T10:38:31Z</time></trkpt><trkpt lat="45.46439061407155" lon="11.494988001713267"><ele>307.0</ele><time>2026-03-28T10:38:32Z</time></trkpt><trkpt lat="45.46453946577372" lon="11.49504215179357"><ele>307.0</ele><time>2026-03-28T10:38:33Z</time></trkpt><trkpt lat="45.46468696939482" lon="11.495080186555"><ele>307.0</ele><time>2026-03-28T10:38:34Z</time></trkpt><trkpt lat="45.46486100693673" lon="11.495106962928453"><ele>308.3333333333333</ele><time>2026-03-28T10:38:35Z</time></trkpt><trkpt lat="45.465052018964265" lon="11.495134153816146"><ele>309.6666666666667</ele><time>2026-03-28T10:38:35.999Z</time></trkpt><trkpt lat="45.465240001289835" lon="11.4951774174079"><ele>311.0</ele><time>2026-03-28T10:38:36.999Z</time></trkpt><trkpt lat="45.46541349938426" lon="11.495235878734672"><ele>310.33333333333337</ele><time>2026-03-28T10:38:37.999Z</time></trkpt><trkpt lat="45.46558018381601" lon="11.495294136344466"><ele>309.6666666666667</ele><time>2026-03-28T10:38:38.999Z</time></trkpt><trkpt lat="45.46573976102233" lon="11.495335956617252"><ele>309.0</ele><time>2026-03-28T10:38:39.999Z</time></trkpt><trkpt lat="45.46589956154323" lon="11.495356707915317"><ele>309.0</ele><time>2026-03-28T10:38:40.999Z</time></trkpt><trkpt lat="45.4660430326299" lon="11.49536507184499"><ele>309.0</ele><time>2026-03-28T10:38:41.999Z</time></trkpt><trkpt lat="45.46617311327355" lon="11.49537760556098"><ele>309.0</ele><time>2026-03-28T10:38:42.999Z</time></trkpt><trkpt lat="45.46629124810432" lon="11.495414010898664"><ele>309.0</ele><time>2026-03-28T10:38:43.999Z</time></trkpt><trkpt lat="45.466393252183884" lon="11.4954937864032"><ele>303.0</ele><time>2026-03-28T10:38:44.999Z</time></trkpt><trkpt lat="45.466484354734206" lon="11.495606147364981"><ele>297.0</ele><time>2026-03-28T10:38:45.999Z</time></trkpt><trkpt lat="45.46654399744581" lon="11.495767874231195"><ele>291.0</ele><time>2026-03-28T10:38:46.999Z</time></trkpt><trkpt lat="45.466589485697014" lon="11.49593277943642"><ele>285.0</ele><time>2026-03-28T10:38:47.999Z</time></trkpt><trkpt lat="45.466644489414186" lon="11.496053980662586"><ele>285.0</ele><time>2026-03-28T10:38:48.999Z</time></trkpt><trkpt lat="45.46673210737514" lon="11.496113824213653"><ele>285.0</ele><time>2026-03-28T10:38:49.999Z</time></trkpt><trkpt lat="45.46684123813318" lon="11.496116060016345"><ele>285.0</ele><time>2026-03-28T10:38:50.999Z</time></trkpt><trkpt lat="45.46694879763779" lon="11.496091519397066"><ele>285.0</ele><time>2026-03-28T10:38:51.999Z</time></trkpt><trkpt lat="45.4670561876751" lon="11.496069966628562"><ele>285.0</ele><time>2026-03-28T10:38:52.999Z</time></trkpt><trkpt lat="45.4671728114193" lon="11.496077053169618"><ele>284.0</ele><time>2026-03-28T10:38:53.999Z</time></trkpt><trkpt lat="45.46729051651567" lon="11.496128108102248"><ele>283.0</ele><time>2026-03-28T10:38:54.999Z</time></trkpt><trkpt lat="45.46742367857413" lon="11.496233438447536"><ele>282.0</ele><time>2026-03-28T10:38:55.999Z</time></trkpt><trkpt lat="45.4675479382585" lon="11.496367769155048"><ele>281.0</ele><time>2026-03-28T10:38:56.999Z</time></trkpt><trkpt lat="45.46766139944288" lon="11.49651163325252"><ele>280.5</ele><time>2026-03-28T10:38:57.999Z</time></trkpt><trkpt lat="45.46777732160101" lon="11.49665965258667"><ele>280.0</ele><time>2026-03-28T10:38:58.999Z</time></trkpt><trkpt lat="45.46789010699283" lon="11.496788615132118"><ele>279.5</ele><time>2026-03-28T10:39:00Z</time></trkpt><trkpt lat="45.468006120644404" lon="11.49688854107519"><ele>279.0</ele><time>2026-03-28T10:39:01Z</time></trkpt><trkpt lat="45.46813440740572" lon="11.496944184141558"><ele>278.5</ele><time>2026-03-28T10:39:02Z</time></trkpt><trkpt lat="45.468260648243806" lon="11.496951811169943"><ele>278.0</ele><time>2026-03-28T10:39:03Z</time></trkpt><trkpt lat="45.46837917482987" lon="11.496908893528301"><ele>277.5</ele><time>2026-03-28T10:39:04Z</time></trkpt><trkpt lat="45.46852267453584" lon="11.49684164700892"><ele>277.0</ele><time>2026-03-28T10:39:05Z</time></trkpt><trkpt lat="45.46869019056656" lon="11.496800014354537"><ele>276.3333333333333</ele><time>2026-03-28T10:39:06Z</time></trkpt><trkpt lat="45.46887901916964" lon="11.496805803539386"><ele>275.6666666666667</ele><time>2026-03-28T10:39:07Z</time></trkpt><trkpt lat="45.46906788577516" lon="11.49683510167467"><ele>275.0</ele><time>2026-03-28T10:39:08Z</time></trkpt><trkpt lat="45.469231001331" lon="11.496863374417021"><ele>275.0</ele><time>2026-03-28T10:39:09Z</time></trkpt><trkpt lat="45.46937793801363" lon="11.49691327907448"><ele>275.0</ele><time>2026-03-28T10:39:10Z</time></trkpt><trkpt lat="45.46950908808267" lon="11.496988002859963"><ele>275.0</ele><time>2026-03-28T10:39:11Z</time></trkpt><trkpt lat="45.469642922333236" lon="11.497075534633586"><ele>275.0</ele><time>2026-03-28T10:39:12Z</time></trkpt><trkpt lat="45.469802687648965" lon="11.49713256526493"><ele>273.6666666666667</ele><time>2026-03-28T10:39:13Z</time></trkpt><trkpt lat="45.469987400834384" lon="11.49714256070047"><ele>272.3333333333333</ele><time>2026-03-28T10:39:14Z</time></trkpt><trkpt lat="45.47017781160796" lon="11.49711584547472"><ele>271.0</ele><time>2026-03-28T10:39:15Z</time></trkpt><trkpt lat="45.47037387121324" lon="11.497076931070728"><ele>270.0</ele><time>2026-03-28T10:39:16Z</time></trkpt><trkpt lat="45.470561827124484" lon="11.49705715364948"><ele>269.0</ele><time>2026-03-28T10:39:17Z</time></trkpt><trkpt lat="45.47075495732485" lon="11.497055435186464"><ele>268.0</ele><time>2026-03-28T10:39:18Z</time></trkpt><trkpt lat="45.47097440387519" lon="11.497065622373224"><ele>268.0</ele><time>2026-03-28T10:39:19Z</time></trkpt><trkpt lat="45.47119377480582" lon="11.49708283409043"><ele>268.0</ele><time>2026-03-28T10:39:20Z</time></trkpt><trkpt lat="45.47138743425316" lon="11.497090383279568"><ele>268.0</ele><time>2026-03-28T10:39:21Z</time></trkpt><trkpt lat="45.47157109989488" lon="11.497081494492674"><ele>265.3333333333333</ele><time>2026-03-28T10:39:22Z</time></trkpt><trkpt lat="45.47174732858134" lon="11.497045509375646"><ele>262.6666666666667</ele><time>2026-03-28T10:39:23Z</time></trkpt><trkpt lat="45.47193083460488" lon="11.496991451559367"><ele>260.0</ele><time>2026-03-28T10:39:24Z</time></trkpt><trkpt lat="45.47211212991349" lon="11.496924582270905"><ele>259.0</ele><time>2026-03-28T10:39:25Z</time></trkpt><trkpt lat="45.47229794998034" lon="11.496853920667805"><ele>258.0</ele><time>2026-03-28T10:39:26Z</time></trkpt><trkpt lat="45.472479101393354" lon="11.496773041525946"><ele>257.0</ele><time>2026-03-28T10:39:27Z</time></trkpt><trkpt lat="45.47267510138905" lon="11.496682563357215"><ele>257.0</ele><time>2026-03-28T10:39:28Z</time></trkpt><trkpt lat="45.47287988034142" lon="11.4966016102101"><ele>257.0</ele><time>2026-03-28T10:39:29Z</time></trkpt><trkpt lat="45.47308983400909" lon="11.496515002134613"><ele>257.0</ele><time>2026-03-28T10:39:30Z</time></trkpt><trkpt lat="45.47328869269062" lon="11.496439939378961"><ele>256.33333333333337</ele><time>2026-03-28T10:39:31Z</time></trkpt><trkpt lat="45.47346639924078" lon="11.49637848453769"><ele>255.66666666666669</ele><time>2026-03-28T10:39:32Z</time></trkpt><trkpt lat="45.47362410769643" lon="11.49633036107558"><ele>255.0</ele><time>2026-03-28T10:39:33Z</time></trkpt><trkpt lat="45.47375657972351" lon="11.496297890470728"><ele>255.25</ele><time>2026-03-28T10:39:34Z</time></trkpt><trkpt lat="45.4738798764184" lon="11.496283606316023"><ele>255.5</ele><time>2026-03-28T10:39:35Z</time></trkpt><trkpt lat="45.47399173072891" lon="11.496306013749733"><ele>255.75</ele><time>2026-03-28T10:39:36Z</time></trkpt><trkpt lat="45.47410653399789" lon="11.4963461848621"><ele>256.0</ele><time>2026-03-28T10:39:37Z</time></trkpt><trkpt lat="45.47422506225059" lon="11.496417465842143"><ele>256.0</ele><time>2026-03-28T10:39:38Z</time></trkpt><trkpt lat="45.474334334589884" lon="11.496504055992279"><ele>256.0</ele><time>2026-03-28T10:39:39Z</time></trkpt><trkpt lat="45.474434318237044" lon="11.496603747017113"><ele>256.0</ele><time>2026-03-28T10:39:40Z</time></trkpt><trkpt lat="45.47452313080387" lon="11.496725822542368"><ele>256.0</ele><time>2026-03-28T10:39:41Z</time></trkpt><trkpt lat="45.47460083159565" lon="11.496854991217754"><ele>254.25</ele><time>2026-03-28T10:39:42Z</time></trkpt><trkpt lat="45.474679146851386" lon="11.496974674754371"><ele>252.5</ele><time>2026-03-28T10:39:43Z</time></trkpt><trkpt lat="45.474765586470184" lon="11.497079366770373"><ele>250.75</ele><time>2026-03-28T10:39:44Z</time></trkpt><trkpt lat="45.474862482076595" lon="11.497167351491028"><ele>249.0</ele><time>2026-03-28T10:39:45Z</time></trkpt><trkpt lat="45.47495922765543" lon="11.497241841417845"><ele>248.0</ele><time>2026-03-28T10:39:46Z</time></trkpt><trkpt lat="45.475053273181594" lon="11.497301714272588"><ele>246.99999999999997</ele><time>2026-03-28T10:39:47Z</time></trkpt><trkpt lat="45.47515137429971" lon="11.497362684786008"><ele>245.99999999999997</ele><time>2026-03-28T10:39:48Z</time></trkpt><trkpt lat="45.47523138257281" lon="11.497420129987963"><ele>245.0</ele><time>2026-03-28T10:39:49Z</time></trkpt><trkpt lat="45.47529411753237" lon="11.49746387939474"><ele>244.0</ele><time>2026-03-28T10:39:50Z</time></trkpt><trkpt lat="45.475398826128234" lon="11.497461877263593"><ele>244.0</ele><time>2026-03-28T10:39:52Z</time></trkpt><trkpt lat="45.475410709969374" lon="11.497329569931543"><ele>243.99999999999997</ele><time>2026-03-28T10:39:54Z</time></trkpt><trkpt lat="45.47541177200355" lon="11.497183922239287"><ele>243.99999999999997</ele><time>2026-03-28T10:39:56Z</time></trkpt><trkpt lat="45.47539279838659" lon="11.497015385803632"><ele>244.0</ele><time>2026-03-28T10:39:58Z</time></trkpt><trkpt lat="45.475385082201385" lon="11.496918215236551"><ele>244.0</ele><time>2026-03-28T10:39:59Z</time></trkpt><trkpt lat="45.475377134046525" lon="11.496818123495375"><ele>244.49999999999997</ele><time>2026-03-28T10:40:00Z</time></trkpt><trkpt lat="45.47536914450028" lon="11.496717510411626"><ele>245.0</ele><time>2026-03-28T10:40:01Z</time></trkpt><trkpt lat="45.47536133489774" lon="11.49661916344712"><ele>245.5</ele><time>2026-03-28T10:40:02Z</time></trkpt><trkpt lat="45.47535403010967" lon="11.49651678458357"><ele>246.0</ele><time>2026-03-28T10:40:03Z</time></trkpt><trkpt lat="45.4753461482491" lon="11.496398600969936"><ele>246.49999999999997</ele><time>2026-03-28T10:40:04Z</time></trkpt><trkpt lat="45.47533617799214" lon="11.496238831750405"><ele>247.0</ele><time>2026-03-28T10:40:05Z</time></trkpt><trkpt lat="45.4753254539008" lon="11.49603749168006"><ele>247.0</ele><time>2026-03-28T10:40:06Z</time></trkpt><trkpt lat="45.475315716922104" lon="11.49582077516294"><ele>247.0</ele><time>2026-03-28T10:40:07Z</time></trkpt><trkpt lat="45.475306189777065" lon="11.495563019354762"><ele>247.0</ele><time>2026-03-28T10:40:08Z</time></trkpt><trkpt lat="45.47529824032979" lon="11.495286822296165"><ele>248.75</ele><time>2026-03-28T10:40:09Z</time></trkpt><trkpt lat="45.47529257653284" lon="11.495062199697085"><ele>250.5</ele><time>2026-03-28T10:40:10Z</time></trkpt><trkpt lat="45.47530294446274" lon="11.494886473458724"><ele>252.25</ele><time>2026-03-28T10:40:11Z</time></trkpt><trkpt lat="45.47533433706404" lon="11.494747384450559"><ele>254.0</ele><time>2026-03-28T10:40:12Z</time></trkpt><trkpt lat="45.47539954600377" lon="11.494618031591893"><ele>253.0</ele><time>2026-03-28T10:40:13Z</time></trkpt><trkpt lat="45.47550746641095" lon="11.494467227611032"><ele>252.0</ele><time>2026-03-28T10:40:14Z</time></trkpt><trkpt lat="45.47565491675164" lon="11.494316307647422"><ele>251.0</ele><time>2026-03-28T10:40:15Z</time></trkpt><trkpt lat="45.475806738518074" lon="11.49413196607584"><ele>251.0</ele><time>2026-03-28T10:40:16Z</time></trkpt><trkpt lat="45.47597651816458" lon="11.493948930394001"><ele>251.0</ele><time>2026-03-28T10:40:17Z</time></trkpt><trkpt lat="45.476145820724135" lon="11.49379613852313"><ele>251.0</ele><time>2026-03-28T10:40:18Z</time></trkpt><trkpt lat="45.47630210831685" lon="11.49366025554514"><ele>250.33333333333334</ele><time>2026-03-28T10:40:19Z</time></trkpt><trkpt lat="45.47648691681794" lon="11.493528582550327"><ele>249.66666666666669</ele><time>2026-03-28T10:40:20Z</time></trkpt><trkpt lat="45.476664314531135" lon="11.493419065018104"><ele>249.0</ele><time>2026-03-28T10:40:21Z</time></trkpt><trkpt lat="45.47683019224158" lon="11.493330288805469"><ele>249.0</ele><time>2026-03-28T10:40:22Z</time></trkpt><trkpt lat="45.47700999295997" lon="11.493273989743711"><ele>249.0</ele><time>2026-03-28T10:40:22.999Z</time></trkpt><trkpt lat="45.477185916115445" lon="11.493228559436112"><ele>249.0</ele><time>2026-03-28T10:40:23.999Z</time></trkpt><trkpt lat="45.47734347797598" lon="11.493154360044553"><ele>249.0</ele><time>2026-03-28T10:40:24.999Z</time></trkpt><trkpt lat="45.47749248185148" lon="11.493040623703834"><ele>249.0</ele><time>2026-03-28T10:40:25.999Z</time></trkpt><trkpt lat="45.47762034191225" lon="11.492923090814367"><ele>249.0</ele><time>2026-03-28T10:40:26.999Z</time></trkpt><trkpt lat="45.47773604655827" lon="11.492825502141265"><ele>249.0</ele><time>2026-03-28T10:40:27.999Z</time></trkpt><trkpt lat="45.4778326109319" lon="11.49274105106154"><ele>249.0</ele><time>2026-03-28T10:40:28.999Z</time></trkpt><trkpt lat="45.477910180954765" lon="11.492631307204714"><ele>249.0</ele><time>2026-03-28T10:40:29.999Z</time></trkpt><trkpt lat="45.47797946883233" lon="11.492481769245662"><ele>249.0</ele><time>2026-03-28T10:40:30.999Z</time></trkpt><trkpt lat="45.47804542731046" lon="11.492308225164487"><ele>247.5</ele><time>2026-03-28T10:40:31.999Z</time></trkpt><trkpt lat="45.47810233565849" lon="11.492126622670675"><ele>246.0</ele><time>2026-03-28T10:40:32.999Z</time></trkpt><trkpt lat="45.47815657667656" lon="11.491950093649724"><ele>244.5</ele><time>2026-03-28T10:40:33.999Z</time></trkpt><trkpt lat="45.47820220683222" lon="11.49180057270901"><ele>243.0</ele><time>2026-03-28T10:40:34.999Z</time></trkpt><trkpt lat="45.4782507484901" lon="11.491642886098688"><ele>243.0</ele><time>2026-03-28T10:40:35.999Z</time></trkpt><trkpt lat="45.47830406301073" lon="11.491468901723911"><ele>243.0</ele><time>2026-03-28T10:40:36.999Z</time></trkpt><trkpt lat="45.47834406630825" lon="11.491301513200366"><ele>243.0</ele><time>2026-03-28T10:40:37.999Z</time></trkpt><trkpt lat="45.47837332284542" lon="11.49111532463867"><ele>243.0</ele><time>2026-03-28T10:40:38.999Z</time></trkpt><trkpt lat="45.47838609297073" lon="11.49092100793785"><ele>244.5</ele><time>2026-03-28T10:40:39.999Z</time></trkpt><trkpt lat="45.47839126314848" lon="11.490711586575953"><ele>246.0</ele><time>2026-03-28T10:40:40.999Z</time></trkpt><trkpt lat="45.478392613424184" lon="11.490519989038702"><ele>247.5</ele><time>2026-03-28T10:40:41.999Z</time></trkpt><trkpt lat="45.478396662900494" lon="11.490353245072754"><ele>249.0</ele><time>2026-03-28T10:40:42.999Z</time></trkpt><trkpt lat="45.47840008412759" lon="11.490206406088687"><ele>249.0</ele><time>2026-03-28T10:40:43.999Z</time></trkpt><trkpt lat="45.47839532240956" lon="11.490036089688886"><ele>249.0</ele><time>2026-03-28T10:40:44.999Z</time></trkpt><trkpt lat="45.47837406112434" lon="11.489850240629844"><ele>249.0</ele><time>2026-03-28T10:40:45.999Z</time></trkpt><trkpt lat="45.478324588356685" lon="11.489662353842217"><ele>249.0</ele><time>2026-03-28T10:40:46.999Z</time></trkpt><trkpt lat="45.47826450012763" lon="11.489450173115396"><ele>248.33333333333331</ele><time>2026-03-28T10:40:47.999Z</time></trkpt><trkpt lat="45.4782041234104" lon="11.489219272111738"><ele>247.66666666666666</ele><time>2026-03-28T10:40:48.999Z</time></trkpt><trkpt lat="45.478153371930716" lon="11.488959656106664"><ele>247.0</ele><time>2026-03-28T10:40:49.999Z</time></trkpt><trkpt lat="45.47810762737736" lon="11.488697785123048"><ele>247.0</ele><time>2026-03-28T10:40:50.999Z</time></trkpt><trkpt lat="45.47807076037734" lon="11.488474229589395"><ele>247.0</ele><time>2026-03-28T10:40:51.999Z</time></trkpt><trkpt lat="45.47803698561234" lon="11.488263337188151"><ele>247.0</ele><time>2026-03-28T10:40:52.999Z</time></trkpt><trkpt lat="45.47800976869733" lon="11.488072911745157"><ele>247.0</ele><time>2026-03-28T10:40:53.999Z</time></trkpt><trkpt lat="45.47799219856562" lon="11.487887948194816"><ele>248.5</ele><time>2026-03-28T10:40:54.999Z</time></trkpt><trkpt lat="45.477991241650464" lon="11.487718222460991"><ele>250.0</ele><time>2026-03-28T10:40:55.999Z</time></trkpt><trkpt lat="45.4780076467905" lon="11.487528198703968"><ele>251.5</ele><time>2026-03-28T10:40:56.999Z</time></trkpt><trkpt lat="45.478030539882184" lon="11.487318237100487"><ele>253.0</ele><time>2026-03-28T10:40:57.999Z</time></trkpt><trkpt lat="45.47805241821507" lon="11.48709770845901"><ele>252.66666666666666</ele><time>2026-03-28T10:40:58.999Z</time></trkpt><trkpt lat="45.47807329257862" lon="11.486877305314541"><ele>252.33333333333331</ele><time>2026-03-28T10:40:59.999Z</time></trkpt><trkpt lat="45.47810029682922" lon="11.486662202644233"><ele>252.0</ele><time>2026-03-28T10:41:00.999Z</time></trkpt><trkpt lat="45.47813636433141" lon="11.486438730418328"><ele>250.66666666666669</ele><time>2026-03-28T10:41:01.999Z</time></trkpt><trkpt lat="45.47818512659176" lon="11.486204743274268"><ele>249.33333333333334</ele><time>2026-03-28T10:41:02.999Z</time></trkpt><trkpt lat="45.47825125136897" lon="11.485941088128266"><ele>248.0</ele><time>2026-03-28T10:41:03.999Z</time></trkpt><trkpt lat="45.47831579090545" lon="11.485674461421793"><ele>246.0</ele><time>2026-03-28T10:41:04.999Z</time></trkpt><trkpt lat="45.478385456975225" lon="11.485385612966944"><ele>244.0</ele><time>2026-03-28T10:41:06Z</time></trkpt><trkpt lat="45.4784361222276" lon="11.485107927740115"><ele>242.0</ele><time>2026-03-28T10:41:07Z</time></trkpt><trkpt lat="45.47849467579766" lon="11.484867288999537"><ele>242.0</ele><time>2026-03-28T10:41:08Z</time></trkpt><trkpt lat="45.478551856458424" lon="11.484647326946613"><ele>242.0</ele><time>2026-03-28T10:41:09Z</time></trkpt><trkpt lat="45.47859521687346" lon="11.484428327073417"><ele>242.0</ele><time>2026-03-28T10:41:10Z</time></trkpt><trkpt lat="45.4786262582269" lon="11.48421550230053"><ele>240.75</ele><time>2026-03-28T10:41:11Z</time></trkpt><trkpt lat="45.47864152050734" lon="11.484016149103411"><ele>239.5</ele><time>2026-03-28T10:41:12Z</time></trkpt><trkpt lat="45.4786755689882" lon="11.48382401282404"><ele>238.25</ele><time>2026-03-28T10:41:13Z</time></trkpt><trkpt lat="45.47867702113736" lon="11.483619469265443"><ele>237.0</ele><time>2026-03-28T10:41:14Z</time></trkpt><trkpt lat="45.47869804991745" lon="11.483424820355381"><ele>236.5</ele><time>2026-03-28T10:41:15Z</time></trkpt><trkpt lat="45.478700014943115" lon="11.48323872743556"><ele>236.0</ele><time>2026-03-28T10:41:16Z</time></trkpt><trkpt lat="45.4786772005799" lon="11.483036571119653"><ele>235.5</ele><time>2026-03-28T10:41:17Z</time></trkpt><trkpt lat="45.47864451768042" lon="11.48283872392351"><ele>235.0</ele><time>2026-03-28T10:41:18Z</time></trkpt><trkpt lat="45.478610482875105" lon="11.482635085340034"><ele>236.5</ele><time>2026-03-28T10:41:19Z</time></trkpt><trkpt lat="45.478555587347024" lon="11.482455857554434"><ele>238.0</ele><time>2026-03-28T10:41:20Z</time></trkpt><trkpt lat="45.4785169465814" lon="11.482281214523798"><ele>239.5</ele><time>2026-03-28T10:41:21Z</time></trkpt><trkpt lat="45.47848881323269" lon="11.482128224675995"><ele>241.0</ele><time>2026-03-28T10:41:22Z</time></trkpt><trkpt lat="45.47845132495969" lon="11.48201533989958"><ele>242.0</ele><time>2026-03-28T10:41:23Z</time></trkpt><trkpt lat="45.478386762354816" lon="11.481917220505252"><ele>243.00000000000003</ele><time>2026-03-28T10:41:24Z</time></trkpt><trkpt lat="45.4782962497004" lon="11.481871927310648"><ele>244.00000000000003</ele><time>2026-03-28T10:41:25Z</time></trkpt><trkpt lat="45.478205481815095" lon="11.481872579842983"><ele>245.0</ele><time>2026-03-28T10:41:26Z</time></trkpt><trkpt lat="45.47812933003322" lon="11.48193750558091"><ele>246.0</ele><time>2026-03-28T10:41:27Z</time></trkpt><trkpt lat="45.47805606845366" lon="11.482044939715847"><ele>244.75</ele><time>2026-03-28T10:41:28Z</time></trkpt><trkpt lat="45.47799832282633" lon="11.48220466635514"><ele>243.5</ele><time>2026-03-28T10:41:29Z</time></trkpt><trkpt lat="45.47795149532686" lon="11.482395192834614"><ele>242.25</ele><time>2026-03-28T10:41:30Z</time></trkpt><trkpt lat="45.477893027382294" lon="11.48256551923042"><ele>241.0</ele><time>2026-03-28T10:41:31Z</time></trkpt><trkpt lat="45.47785382345043" lon="11.482719077444353"><ele>242.0</ele><time>2026-03-28T10:41:32Z</time></trkpt><trkpt lat="45.47780946641234" lon="11.482850997688674"><ele>243.00000000000003</ele><time>2026-03-28T10:41:33Z</time></trkpt><trkpt lat="45.47777496832277" lon="11.482973281846403"><ele>244.00000000000003</ele><time>2026-03-28T10:41:34Z</time></trkpt><trkpt lat="45.47773136656903" lon="11.483089613623752"><ele>245.0</ele><time>2026-03-28T10:41:35Z</time></trkpt><trkpt lat="45.47768929909701" lon="11.483221875704393"><ele>246.0</ele><time>2026-03-28T10:41:36Z</time></trkpt><trkpt lat="45.47761924747522" lon="11.48338636502858"><ele>246.0</ele><time>2026-03-28T10:41:37Z</time></trkpt><trkpt lat="45.47752524114647" lon="11.483564751129949"><ele>246.0</ele><time>2026-03-28T10:41:38Z</time></trkpt><trkpt lat="45.47745426619611" lon="11.483734035812322"><ele>246.0</ele><time>2026-03-28T10:41:39Z</time></trkpt><trkpt lat="45.47738108096413" lon="11.48388050745728"><ele>246.0</ele><time>2026-03-28T10:41:40Z</time></trkpt><trkpt lat="45.47730442538678" lon="11.484008316733465"><ele>242.5</ele><time>2026-03-28T10:41:41Z</time></trkpt><trkpt lat="45.47720546174712" lon="11.484083466683273"><ele>239.0</ele><time>2026-03-28T10:41:42Z</time></trkpt><trkpt lat="45.47709155435471" lon="11.484153849603823"><ele>235.5</ele><time>2026-03-28T10:41:43Z</time></trkpt><trkpt lat="45.47696581990152" lon="11.484212846116094"><ele>232.0</ele><time>2026-03-28T10:41:44Z</time></trkpt><trkpt lat="45.47685418360641" lon="11.484243645790398"><ele>231.8</ele><time>2026-03-28T10:41:45Z</time></trkpt><trkpt lat="45.47675643026406" lon="11.48423820459012"><ele>231.6</ele><time>2026-03-28T10:41:46Z</time></trkpt><trkpt lat="45.4766625556104" lon="11.484201593685142"><ele>231.40000000000003</ele><time>2026-03-28T10:41:47Z</time></trkpt><trkpt lat="45.47655803096361" lon="11.484155630375783"><ele>231.20000000000002</ele><time>2026-03-28T10:41:48Z</time></trkpt><trkpt lat="45.47646663052583" lon="11.484102202829197"><ele>231.0</ele><time>2026-03-28T10:41:49Z</time></trkpt><trkpt lat="45.47639521762254" lon="11.484034430568629"><ele>231.0</ele><time>2026-03-28T10:41:50Z</time></trkpt><trkpt lat="45.476355035135214" lon="11.48392691105156"><ele>231.00000000000003</ele><time>2026-03-28T10:41:51Z</time></trkpt><trkpt lat="45.47635990430747" lon="11.483826177120154"><ele>231.00000000000003</ele><time>2026-03-28T10:41:52Z</time></trkpt><trkpt lat="45.47639124490459" lon="11.483713569508714"><ele>231.0</ele><time>2026-03-28T10:41:53Z</time></trkpt><trkpt lat="45.47643157220363" lon="11.483550976031204"><ele>231.0</ele><time>2026-03-28T10:41:54Z</time></trkpt><trkpt lat="45.47648428308555" lon="11.483384584917465"><ele>232.0</ele><time>2026-03-28T10:41:55Z</time></trkpt><trkpt lat="45.4765588451916" lon="11.483205151141565"><ele>233.0</ele><time>2026-03-28T10:41:56Z</time></trkpt><trkpt lat="45.47662133000434" lon="11.48300189518821"><ele>234.0</ele><time>2026-03-28T10:41:57Z</time></trkpt><trkpt lat="45.476665798869455" lon="11.482779990537741"><ele>231.0</ele><time>2026-03-28T10:41:58Z</time></trkpt><trkpt lat="45.47669838445362" lon="11.482539553363837"><ele>228.0</ele><time>2026-03-28T10:41:59Z</time></trkpt><trkpt lat="45.476727839478436" lon="11.482286883493165"><ele>225.0</ele><time>2026-03-28T10:42:00Z</time></trkpt><trkpt lat="45.47673759528811" lon="11.482023191171423"><ele>223.66666666666669</ele><time>2026-03-28T10:42:01Z</time></trkpt><trkpt lat="45.47675385857337" lon="11.481758051414372"><ele>222.33333333333334</ele><time>2026-03-28T10:42:02Z</time></trkpt><trkpt lat="45.47679002682213" lon="11.481488238320463"><ele>221.0</ele><time>2026-03-28T10:42:03Z</time></trkpt><trkpt lat="45.47683793204935" lon="11.481206085342377"><ele>217.33333333333334</ele><time>2026-03-28T10:42:04Z</time></trkpt><trkpt lat="45.476889686274056" lon="11.48089998346819"><ele>213.66666666666669</ele><time>2026-03-28T10:42:05Z</time></trkpt><trkpt lat="45.47693479540518" lon="11.480622223908384"><ele>210.0</ele><time>2026-03-28T10:42:06Z</time></trkpt><trkpt lat="45.476964171082365" lon="11.48037137558847"><ele>206.33333333333331</ele><time>2026-03-28T10:42:07Z</time></trkpt><trkpt lat="45.477008865216774" lon="11.480136775320672"><ele>202.66666666666666</ele><time>2026-03-28T10:42:08Z</time></trkpt><trkpt lat="45.47704935466102" lon="11.479890230957935"><ele>199.0</ele><time>2026-03-28T10:42:09Z</time></trkpt><trkpt lat="45.47710404407165" lon="11.479664865919844"><ele>214.66666666666666</ele><time>2026-03-28T10:42:10Z</time></trkpt><trkpt lat="45.4771380498805" lon="11.479410839109539"><ele>230.33333333333331</ele><time>2026-03-28T10:42:11Z</time></trkpt><trkpt lat="45.47713349166621" lon="11.479150710293732"><ele>246.0</ele><time>2026-03-28T10:42:12Z</time></trkpt><trkpt lat="45.477126349114656" lon="11.478891690557134"><ele>247.0</ele><time>2026-03-28T10:42:13Z</time></trkpt><trkpt lat="45.47713017529584" lon="11.478625112322135"><ele>248.0</ele><time>2026-03-28T10:42:14Z</time></trkpt><trkpt lat="45.47711673430406" lon="11.478372370850682"><ele>249.0</ele><time>2026-03-28T10:42:15Z</time></trkpt><trkpt lat="45.477104068571826" lon="11.478134206992955"><ele>229.66666666666666</ele><time>2026-03-28T10:42:16Z</time></trkpt><trkpt lat="45.47709296956037" lon="11.477903586631232"><ele>210.33333333333331</ele><time>2026-03-28T10:42:17Z</time></trkpt><trkpt lat="45.477087040762676" lon="11.477668512449803"><ele>191.0</ele><time>2026-03-28T10:42:18Z</time></trkpt><trkpt lat="45.47709759863075" lon="11.477409054842337"><ele>208.33333333333331</ele><time>2026-03-28T10:42:19Z</time></trkpt><trkpt lat="45.477126681700334" lon="11.47712159924091"><ele>225.66666666666666</ele><time>2026-03-28T10:42:20Z</time></trkpt><trkpt lat="45.4771479095427" lon="11.47683838183549"><ele>243.0</ele><time>2026-03-28T10:42:21Z</time></trkpt><trkpt lat="45.477161047955406" lon="11.47654019999214"><ele>242.0</ele><time>2026-03-28T10:42:22Z</time></trkpt><trkpt lat="45.47715548456638" lon="11.476259619736616"><ele>241.0</ele><time>2026-03-28T10:42:23Z</time></trkpt><trkpt lat="45.477135404448106" lon="11.475994669184036"><ele>240.0</ele><time>2026-03-28T10:42:24Z</time></trkpt><trkpt lat="45.47711567494043" lon="11.47573020350872"><ele>224.0</ele><time>2026-03-28T10:42:25Z</time></trkpt><trkpt lat="45.47709882628815" lon="11.475473683318576"><ele>208.0</ele><time>2026-03-28T10:42:26Z</time></trkpt><trkpt lat="45.47709333031659" lon="11.47521917317711"><ele>192.0</ele><time>2026-03-28T10:42:26.999Z</time></trkpt><trkpt lat="45.4770920464566" lon="11.474937264199284"><ele>192.0</ele><time>2026-03-28T10:42:27.999Z</time></trkpt><trkpt lat="45.4770928701399" lon="11.474675701280221"><ele>192.0</ele><time>2026-03-28T10:42:28.999Z</time></trkpt><trkpt lat="45.47710248597987" lon="11.474435171387167"><ele>192.0</ele><time>2026-03-28T10:42:29.999Z</time></trkpt><trkpt lat="45.477125737234495" lon="11.474209042728344"><ele>198.25</ele><time>2026-03-28T10:42:30.999Z</time></trkpt><trkpt lat="45.47715976542744" lon="11.473998942586466"><ele>204.5</ele><time>2026-03-28T10:42:31.999Z</time></trkpt><trkpt lat="45.47719380165294" lon="11.473797359378702"><ele>210.75</ele><time>2026-03-28T10:42:32.999Z</time></trkpt><trkpt lat="45.477225233624154" lon="11.473595661542035"><ele>217.0</ele><time>2026-03-28T10:42:33.999Z</time></trkpt><trkpt lat="45.477243914544374" lon="11.473390462342968"><ele>217.0</ele><time>2026-03-28T10:42:34.999Z</time></trkpt><trkpt lat="45.477241236628366" lon="11.473195454566055"><ele>217.0</ele><time>2026-03-28T10:42:35.999Z</time></trkpt><trkpt lat="45.47721901962981" lon="11.473006386938359"><ele>217.0</ele><time>2026-03-28T10:42:36.999Z</time></trkpt><trkpt lat="45.47718303048142" lon="11.472828342632889"><ele>217.0</ele><time>2026-03-28T10:42:37.999Z</time></trkpt><trkpt lat="45.477130384813094" lon="11.472664180768941"><ele>210.6</ele><time>2026-03-28T10:42:38.999Z</time></trkpt><trkpt lat="45.47705556079494" lon="11.4725264503999"><ele>204.2</ele><time>2026-03-28T10:42:39.999Z</time></trkpt><trkpt lat="45.47696718912518" lon="11.472415187009736"><ele>197.8</ele><time>2026-03-28T10:42:40.999Z</time></trkpt><trkpt lat="45.47688681401378" lon="11.472306572067364"><ele>191.4</ele><time>2026-03-28T10:42:41.999Z</time></trkpt><trkpt lat="45.47682078393093" lon="11.472204814482545"><ele>185.0</ele><time>2026-03-28T10:42:42.999Z</time></trkpt><trkpt lat="45.47677542121819" lon="11.472088398242954"><ele>184.8</ele><time>2026-03-28T10:42:43.999Z</time></trkpt><trkpt lat="45.47677882212103" lon="11.47195961886435"><ele>184.6</ele><time>2026-03-28T10:42:44.999Z</time></trkpt><trkpt lat="45.476768547430275" lon="11.471820250562267"><ele>184.39999999999998</ele><time>2026-03-28T10:42:45.999Z</time></trkpt><trkpt lat="45.4767586859269" lon="11.471672402957806"><ele>184.2</ele><time>2026-03-28T10:42:46.999Z</time></trkpt><trkpt lat="45.47672041043123" lon="11.471530837165625"><ele>184.0</ele><time>2026-03-28T10:42:47.999Z</time></trkpt><trkpt lat="45.47671011827431" lon="11.471383149328634"><ele>184.39999999999998</ele><time>2026-03-28T10:42:48.999Z</time></trkpt><trkpt lat="45.47669831444263" lon="11.471238220873616"><ele>184.8</ele><time>2026-03-28T10:42:49.999Z</time></trkpt><trkpt lat="45.47669100046295" lon="11.471086250374203"><ele>185.2</ele><time>2026-03-28T10:42:50.999Z</time></trkpt><trkpt lat="45.476709126932015" lon="11.470930026667768"><ele>185.60000000000002</ele><time>2026-03-28T10:42:51.999Z</time></trkpt><trkpt lat="45.47669603627852" lon="11.470783017114853"><ele>186.0</ele><time>2026-03-28T10:42:52.999Z</time></trkpt><trkpt lat="45.476680046425" lon="11.470630782809174"><ele>186.0</ele><time>2026-03-28T10:42:53.999Z</time></trkpt><trkpt lat="45.47665438643508" lon="11.470483430260263"><ele>186.0</ele><time>2026-03-28T10:42:54.999Z</time></trkpt><trkpt lat="45.47662581092133" lon="11.470340292693955"><ele>186.0</ele><time>2026-03-28T10:42:55.999Z</time></trkpt><trkpt lat="45.47659667522017" lon="11.470198444257449"><ele>186.0</ele><time>2026-03-28T10:42:56.999Z</time></trkpt><trkpt lat="45.47657010219925" lon="11.470060639096546"><ele>186.0</ele><time>2026-03-28T10:42:57.999Z</time></trkpt><trkpt lat="45.47653736518529" lon="11.46992502356598"><ele>185.60000000000002</ele><time>2026-03-28T10:42:58.999Z</time></trkpt><trkpt lat="45.4765173673155" lon="11.4697837431236"><ele>185.2</ele><time>2026-03-28T10:42:59.999Z</time></trkpt><trkpt lat="45.47650901569848" lon="11.469644368655596"><ele>184.8</ele><time>2026-03-28T10:43:00.999Z</time></trkpt><trkpt lat="45.47649922752978" lon="11.46950688796594"><ele>184.39999999999998</ele><time>2026-03-28T10:43:01.999Z</time></trkpt><trkpt lat="45.47648543260149" lon="11.469376404888457"><ele>184.0</ele><time>2026-03-28T10:43:02.999Z</time></trkpt><trkpt lat="45.476410488136715" lon="11.469268622335193"><ele>185.2</ele><time>2026-03-28T10:43:03.999Z</time></trkpt><trkpt lat="45.476334970926814" lon="11.46918259536956"><ele>186.39999999999998</ele><time>2026-03-28T10:43:04.999Z</time></trkpt><trkpt lat="45.47625364939989" lon="11.46910259267027"><ele>187.6</ele><time>2026-03-28T10:43:05.999Z</time></trkpt><trkpt lat="45.47618555940924" lon="11.469000153346297"><ele>188.8</ele><time>2026-03-28T10:43:06.999Z</time></trkpt><trkpt lat="45.47610981756479" lon="11.4689053700061"><ele>190.0</ele><time>2026-03-28T10:43:07.999Z</time></trkpt><trkpt lat="45.4760336620136" lon="11.468794986324815"><ele>187.75</ele><time>2026-03-28T10:43:08.999Z</time></trkpt><trkpt lat="45.475954587570435" lon="11.468667980466712"><ele>185.5</ele><time>2026-03-28T10:43:09.999Z</time></trkpt><trkpt lat="45.47587367981586" lon="11.468537549917613"><ele>183.25</ele><time>2026-03-28T10:43:10.999Z</time></trkpt><trkpt lat="45.475795259502966" lon="11.468407663824337"><ele>181.0</ele><time>2026-03-28T10:43:12Z</time></trkpt><trkpt lat="45.4757195261006" lon="11.468265901812595"><ele>181.0</ele><time>2026-03-28T10:43:13Z</time></trkpt><trkpt lat="45.475644601679484" lon="11.468096883858534"><ele>181.0</ele><time>2026-03-28T10:43:14Z</time></trkpt><trkpt lat="45.475570412974385" lon="11.46792444359756"><ele>181.0</ele><time>2026-03-28T10:43:15Z</time></trkpt><trkpt lat="45.475500048896045" lon="11.467762598430644"><ele>181.0</ele><time>2026-03-28T10:43:16Z</time></trkpt><trkpt lat="45.475417215317414" lon="11.467624949363561"><ele>178.5</ele><time>2026-03-28T10:43:17Z</time></trkpt><trkpt lat="45.475353393200535" lon="11.467483596184112"><ele>176.0</ele><time>2026-03-28T10:43:18Z</time></trkpt><trkpt lat="45.47530022426781" lon="11.46733059571207"><ele>173.5</ele><time>2026-03-28T10:43:19Z</time></trkpt><trkpt lat="45.47521794881186" lon="11.46719710099607"><ele>171.0</ele><time>2026-03-28T10:43:20Z</time></trkpt><trkpt lat="45.47515190482045" lon="11.467049370350548"><ele>171.0</ele><time>2026-03-28T10:43:21Z</time></trkpt><trkpt lat="45.47508705458697" lon="11.466904658378358"><ele>171.0</ele><time>2026-03-28T10:43:22Z</time></trkpt><trkpt lat="45.47503648751044" lon="11.466756605824209"><ele>171.0</ele><time>2026-03-28T10:43:23Z</time></trkpt><trkpt lat="45.47500251268183" lon="11.466580745672763"><ele>171.0</ele><time>2026-03-28T10:43:24Z</time></trkpt><trkpt lat="45.47497448450276" lon="11.466391275096418"><ele>172.75</ele><time>2026-03-28T10:43:25Z</time></trkpt><trkpt lat="45.47494260937399" lon="11.466220392179117"><ele>174.5</ele><time>2026-03-28T10:43:26Z</time></trkpt><trkpt lat="45.47491047377069" lon="11.466062282940445"><ele>176.25</ele><time>2026-03-28T10:43:27Z</time></trkpt><trkpt lat="45.47479868501368" lon="11.465968098185378"><ele>178.0</ele><time>2026-03-28T10:43:28Z</time></trkpt><trkpt lat="45.47469906209223" lon="11.465852606029799"><ele>172.75</ele><time>2026-03-28T10:43:29Z</time></trkpt><trkpt lat="45.47459228434218" lon="11.465746730002476"><ele>167.5</ele><time>2026-03-28T10:43:30Z</time></trkpt><trkpt lat="45.47450915219476" lon="11.465633278066875"><ele>162.25</ele><time>2026-03-28T10:43:31Z</time></trkpt><trkpt lat="45.47442941925702" lon="11.465475584680343"><ele>157.0</ele><time>2026-03-28T10:43:32Z</time></trkpt><trkpt lat="45.47432307848064" lon="11.465292259581501"><ele>157.0</ele><time>2026-03-28T10:43:33Z</time></trkpt><trkpt lat="45.47421911846491" lon="11.465098802402643"><ele>157.0</ele><time>2026-03-28T10:43:34Z</time></trkpt><trkpt lat="45.47409519733665" lon="11.464914964147871"><ele>157.0</ele><time>2026-03-28T10:43:35Z</time></trkpt><trkpt lat="45.47399471812836" lon="11.46473220527537"><ele>154.75</ele><time>2026-03-28T10:43:36Z</time></trkpt><trkpt lat="45.47387681147223" lon="11.464592340183488"><ele>152.5</ele><time>2026-03-28T10:43:37Z</time></trkpt><trkpt lat="45.473766053631245" lon="11.464459568872943"><ele>150.25</ele><time>2026-03-28T10:43:38Z</time></trkpt><trkpt lat="45.47364277285807" lon="11.464355966270091"><ele>148.0</ele><time>2026-03-28T10:43:39Z</time></trkpt><trkpt lat="45.47351473608444" lon="11.464273426513897"><ele>148.0</ele><time>2026-03-28T10:43:40Z</time></trkpt><trkpt lat="45.47339904855066" lon="11.464167642006023"><ele>148.0</ele><time>2026-03-28T10:43:41Z</time></trkpt><trkpt lat="45.4732816267897" lon="11.464097924609234"><ele>148.0</ele><time>2026-03-28T10:43:42Z</time></trkpt><trkpt lat="45.473164536459" lon="11.464060348188625"><ele>148.0</ele><time>2026-03-28T10:43:43Z</time></trkpt><trkpt lat="45.47304336155944" lon="11.464092948239418"><ele>145.20000000000002</ele><time>2026-03-28T10:43:44Z</time></trkpt><trkpt lat="45.47293170265776" lon="11.46407812001311"><ele>142.4</ele><time>2026-03-28T10:43:45Z</time></trkpt><trkpt lat="45.47282756687476" lon="11.464084483530188"><ele>139.60000000000002</ele><time>2026-03-28T10:43:46Z</time></trkpt><trkpt lat="45.472716150310404" lon="11.464085766441904"><ele>136.8</ele><time>2026-03-28T10:43:47Z</time></trkpt><trkpt lat="45.47261931493934" lon="11.464065141778264"><ele>134.0</ele><time>2026-03-28T10:43:48Z</time></trkpt><trkpt lat="45.472535832117956" lon="11.464014630378305"><ele>134.0</ele><time>2026-03-28T10:43:49Z</time></trkpt><trkpt lat="45.47246319657544" lon="11.463948746119613"><ele>134.0</ele><time>2026-03-28T10:43:50Z</time></trkpt><trkpt lat="45.47239095904337" lon="11.463873494291633"><ele>134.0</ele><time>2026-03-28T10:43:51Z</time></trkpt><trkpt lat="45.47232259514468" lon="11.463806151360878"><ele>134.0</ele><time>2026-03-28T10:43:52Z</time></trkpt><trkpt lat="45.472245461103505" lon="11.463728125358548"><ele>134.0</ele><time>2026-03-28T10:43:53Z</time></trkpt><trkpt lat="45.47216828825814" lon="11.463620421949846"><ele>130.75</ele><time>2026-03-28T10:43:54Z</time></trkpt><trkpt lat="45.47210165042783" lon="11.463495036593901"><ele>127.5</ele><time>2026-03-28T10:43:55Z</time></trkpt><trkpt lat="45.47202721646203" lon="11.463367243849506"><ele>124.25</ele><time>2026-03-28T10:43:56Z</time></trkpt><trkpt lat="45.47196640289484" lon="11.463227635036436"><ele>121.0</ele><time>2026-03-28T10:43:57Z</time></trkpt><trkpt lat="45.47190806286199" lon="11.463091955219314"><ele>121.0</ele><time>2026-03-28T10:43:58Z</time></trkpt><trkpt lat="45.47185157660019" lon="11.462953981494167"><ele>121.0</ele><time>2026-03-28T10:43:59Z</time></trkpt><trkpt lat="45.47179194050851" lon="11.46282256989439"><ele>121.0</ele><time>2026-03-28T10:44:00Z</time></trkpt><trkpt lat="45.47173624231075" lon="11.462692042255458"><ele>121.0</ele><time>2026-03-28T10:44:01Z</time></trkpt><trkpt lat="45.47168770094454" lon="11.462565912999326"><ele>121.0</ele><time>2026-03-28T10:44:02Z</time></trkpt><trkpt lat="45.471647811909875" lon="11.462439173244768"><ele>122.19999999999999</ele><time>2026-03-28T10:44:03Z</time></trkpt><trkpt lat="45.47162166641248" lon="11.462305278251359"><ele>123.39999999999999</ele><time>2026-03-28T10:44:04Z</time></trkpt><trkpt lat="45.471615924546896" lon="11.462176711031384"><ele>124.6</ele><time>2026-03-28T10:44:05Z</time></trkpt><trkpt lat="45.47161990694913" lon="11.462012184666047"><ele>125.8</ele><time>2026-03-28T10:44:06Z</time></trkpt><trkpt lat="45.47162276954887" lon="11.461822370931358"><ele>127.0</ele><time>2026-03-28T10:44:07Z</time></trkpt><trkpt lat="45.4716208449024" lon="11.461626402552863"><ele>127.0</ele><time>2026-03-28T10:44:08Z</time></trkpt><trkpt lat="45.471620457961244" lon="11.46143967749212"><ele>127.0</ele><time>2026-03-28T10:44:09Z</time></trkpt><trkpt lat="45.47162012060653" lon="11.461255925949244"><ele>127.0</ele><time>2026-03-28T10:44:10Z</time></trkpt><trkpt lat="45.47161356265973" lon="11.461081129690571"><ele>127.0</ele><time>2026-03-28T10:44:11Z</time></trkpt><trkpt lat="45.47160344424493" lon="11.46091198360836"><ele>126.5</ele><time>2026-03-28T10:44:12Z</time></trkpt><trkpt lat="45.47154506900687" lon="11.46075093525158"><ele>126.0</ele><time>2026-03-28T10:44:13Z</time></trkpt><trkpt lat="45.4714527821627" lon="11.460637669293147"><ele>125.5</ele><time>2026-03-28T10:44:14Z</time></trkpt><trkpt lat="45.47137084416749" lon="11.460530781086533"><ele>125.0</ele><time>2026-03-28T10:44:15Z</time></trkpt><trkpt lat="45.471276523203635" lon="11.460395477674718"><ele>121.75</ele><time>2026-03-28T10:44:16Z</time></trkpt><trkpt lat="45.47120097162432" lon="11.460211801681606"><ele>118.5</ele><time>2026-03-28T10:44:17Z</time></trkpt><trkpt lat="45.47114344957784" lon="11.460024899518874"><ele>115.25</ele><time>2026-03-28T10:44:18Z</time></trkpt><trkpt lat="45.47106645245532" lon="11.459865322665813"><ele>112.0</ele><time>2026-03-28T10:44:19Z</time></trkpt><trkpt lat="45.470984184578" lon="11.459718530766027"><ele>117.33333333333334</ele><time>2026-03-28T10:44:20Z</time></trkpt><trkpt lat="45.47086961637134" lon="11.45959665051502"><ele>122.66666666666666</ele><time>2026-03-28T10:44:21Z</time></trkpt><trkpt lat="45.47073280569787" lon="11.459486192010008"><ele>128.0</ele><time>2026-03-28T10:44:22Z</time></trkpt><trkpt lat="45.4706030792823" lon="11.459350377994438"><ele>128.0</ele><time>2026-03-28T10:44:23Z</time></trkpt><trkpt lat="45.47047979418482" lon="11.459242069240695"><ele>128.0</ele><time>2026-03-28T10:44:24Z</time></trkpt><trkpt lat="45.47035405076439" lon="11.459150517681577"><ele>128.0</ele><time>2026-03-28T10:44:25Z</time></trkpt><trkpt lat="45.47022217198854" lon="11.459087117568702"><ele>128.0</ele><time>2026-03-28T10:44:26Z</time></trkpt><trkpt lat="45.470096032530385" lon="11.459043771441069"><ele>125.5</ele><time>2026-03-28T10:44:27Z</time></trkpt><trkpt lat="45.469970679281424" lon="11.45900132777512"><ele>123.0</ele><time>2026-03-28T10:44:28Z</time></trkpt><trkpt lat="45.46986495596011" lon="11.45893910966916"><ele>120.5</ele><time>2026-03-28T10:44:29Z</time></trkpt><trkpt lat="45.46976116402146" lon="11.458853288575634"><ele>118.0</ele><time>2026-03-28T10:44:30Z</time></trkpt><trkpt lat="45.4696833033617" lon="11.45872239741559"><ele>118.0</ele><time>2026-03-28T10:44:30.999Z</time></trkpt><trkpt lat="45.46963164086541" lon="11.458563851189348"><ele>118.0</ele><time>2026-03-28T10:44:31.999Z</time></trkpt><trkpt lat="45.46956927188441" lon="11.458394192536995"><ele>118.0</ele><time>2026-03-28T10:44:32.999Z</time></trkpt><trkpt lat="45.46950961813981" lon="11.458225262550036"><ele>118.0</ele><time>2026-03-28T10:44:33.999Z</time></trkpt><trkpt lat="45.46945142475864" lon="11.45805940807981"><ele>109.25</ele><time>2026-03-28T10:44:34.999Z</time></trkpt><trkpt lat="45.469369958171626" lon="11.457930656521137"><ele>100.5</ele><time>2026-03-28T10:44:35.999Z</time></trkpt><trkpt lat="45.469342974656925" lon="11.45777948948399"><ele>91.75</ele><time>2026-03-28T10:44:36.999Z</time></trkpt><trkpt lat="45.469339809957354" lon="11.457621482331989"><ele>83.0</ele><time>2026-03-28T10:44:37.999Z</time></trkpt><trkpt lat="45.46936374543603" lon="11.457444958202398"><ele>83.0</ele><time>2026-03-28T10:44:38.999Z</time></trkpt><trkpt lat="45.4694297028953" lon="11.457273726883871"><ele>83.0</ele><time>2026-03-28T10:44:39.999Z</time></trkpt><trkpt lat="45.469478649225664" lon="11.457075075732115"><ele>83.0</ele><time>2026-03-28T10:44:40.999Z</time></trkpt><trkpt lat="45.46951780872489" lon="11.456875655775141"><ele>83.0</ele><time>2026-03-28T10:44:41.999Z</time></trkpt><trkpt lat="45.469583749983244" lon="11.456698329914131"><ele>86.5</ele><time>2026-03-28T10:44:42.999Z</time></trkpt><trkpt lat="45.469620314365265" lon="11.456519531025894"><ele>90.0</ele><time>2026-03-28T10:44:43.999Z</time></trkpt><trkpt lat="45.46966920087667" lon="11.456350008271743"><ele>93.5</ele><time>2026-03-28T10:44:44.999Z</time></trkpt><trkpt lat="45.46971814613057" lon="11.456182195576243"><ele>97.0</ele><time>2026-03-28T10:44:45.999Z</time></trkpt><trkpt lat="45.46976323383052" lon="11.456013176535633"><ele>97.0</ele><time>2026-03-28T10:44:46.999Z</time></trkpt><trkpt lat="45.46979747160167" lon="11.455824293102816"><ele>97.0</ele><time>2026-03-28T10:44:47.999Z</time></trkpt><trkpt lat="45.469819287215266" lon="11.455624788360323"><ele>97.0</ele><time>2026-03-28T10:44:48.999Z</time></trkpt><trkpt lat="45.46982940997421" lon="11.45542900828672"><ele>97.0</ele><time>2026-03-28T10:44:49.999Z</time></trkpt><trkpt lat="45.46984853184417" lon="11.45523614795387"><ele>96.75</ele><time>2026-03-28T10:44:50.999Z</time></trkpt><trkpt lat="45.46985244529754" lon="11.455051981263503"><ele>96.5</ele><time>2026-03-28T10:44:51.999Z</time></trkpt><trkpt lat="45.46984748245983" lon="11.454877818247716"><ele>96.25</ele><time>2026-03-28T10:44:52.999Z</time></trkpt><trkpt lat="45.46982848395508" lon="11.454718782988317"><ele>96.0</ele><time>2026-03-28T10:44:53.999Z</time></trkpt><trkpt lat="45.4697915154702" lon="11.454562065789647"><ele>95.8</ele><time>2026-03-28T10:44:54.999Z</time></trkpt><trkpt lat="45.46975348758048" lon="11.454426838977982"><ele>95.6</ele><time>2026-03-28T10:44:55.999Z</time></trkpt><trkpt lat="45.4697137999746" lon="11.45430426469185"><ele>95.4</ele><time>2026-03-28T10:44:56.999Z</time></trkpt><trkpt lat="45.46967740957876" lon="11.454190047129462"><ele>95.2</ele><time>2026-03-28T10:44:57.999Z</time></trkpt><trkpt lat="45.469643661173095" lon="11.454078856938136"><ele>95.0</ele><time>2026-03-28T10:44:58.999Z</time></trkpt><trkpt lat="45.46960655450667" lon="11.453977019804706"><ele>93.16666666666667</ele><time>2026-03-28T10:44:59.999Z</time></trkpt><trkpt lat="45.46957013686088" lon="11.453871386839415"><ele>91.33333333333334</ele><time>2026-03-28T10:45:00.999Z</time></trkpt><trkpt lat="45.46955162557563" lon="11.453756277036879"><ele>89.5</ele><time>2026-03-28T10:45:01.999Z</time></trkpt><trkpt lat="45.46954095603925" lon="11.453638507302905"><ele>87.66666666666667</ele><time>2026-03-28T10:45:02.999Z</time></trkpt><trkpt lat="45.4695420805435" lon="11.453529412834978"><ele>85.83333333333333</ele><time>2026-03-28T10:45:03.999Z</time></trkpt><trkpt lat="45.46953943243283" lon="11.453422501557386"><ele>84.0</ele><time>2026-03-28T10:45:04.999Z</time></trkpt><trkpt lat="45.46954342599263" lon="11.453308073739693"><ele>84.0</ele><time>2026-03-28T10:45:05.999Z</time></trkpt><trkpt lat="45.46955291257721" lon="11.453187917780916"><ele>84.0</ele><time>2026-03-28T10:45:06.999Z</time></trkpt><trkpt lat="45.46956893250572" lon="11.453079028120518"><ele>84.0</ele><time>2026-03-28T10:45:07.999Z</time></trkpt><trkpt lat="45.469595682649704" lon="11.452974874525893"><ele>84.0</ele><time>2026-03-28T10:45:08.999Z</time></trkpt><trkpt lat="45.46962824863264" lon="11.452880845585588"><ele>84.0</ele><time>2026-03-28T10:45:09.999Z</time></trkpt><trkpt lat="45.469662670300174" lon="11.452789324177784"><ele>84.0</ele><time>2026-03-28T10:45:10.999Z</time></trkpt><trkpt lat="45.46969534097166" lon="11.452696143736155"><ele>85.75</ele><time>2026-03-28T10:45:11.999Z</time></trkpt><trkpt lat="45.46972724523137" lon="11.452593773265583"><ele>87.5</ele><time>2026-03-28T10:45:12.999Z</time></trkpt><trkpt lat="45.46976677895817" lon="11.452466626942304"><ele>89.25</ele><time>2026-03-28T10:45:13.999Z</time></trkpt><trkpt lat="45.46981829798693" lon="11.452306592940724"><ele>91.0</ele><time>2026-03-28T10:45:14.999Z</time></trkpt><trkpt lat="45.46987507138527" lon="11.452106939238185"><ele>86.0</ele><time>2026-03-28T10:45:15.999Z</time></trkpt><trkpt lat="45.46993371422597" lon="11.451912785963149"><ele>81.0</ele><time>2026-03-28T10:45:16.999Z</time></trkpt><trkpt lat="45.47000323364093" lon="11.451695318581226"><ele>76.0</ele><time>2026-03-28T10:45:18Z</time></trkpt><trkpt lat="45.470074048366676" lon="11.451487242422807"><ele>76.0</ele><time>2026-03-28T10:45:19Z</time></trkpt><trkpt lat="45.470135059919855" lon="11.451291872790996"><ele>76.0</ele><time>2026-03-28T10:45:20Z</time></trkpt><trkpt lat="45.470195410023166" lon="11.45110457545256"><ele>76.0</ele><time>2026-03-28T10:45:21Z</time></trkpt><trkpt lat="45.47025249043689" lon="11.450926403774945"><ele>76.0</ele><time>2026-03-28T10:45:22Z</time></trkpt><trkpt lat="45.470312299784865" lon="11.450764545682556"><ele>76.0</ele><time>2026-03-28T10:45:23Z</time></trkpt><trkpt lat="45.47038678180487" lon="11.450613202996106"><ele>76.0</ele><time>2026-03-28T10:45:24Z</time></trkpt><trkpt lat="45.47048730862671" lon="11.450480684105472"><ele>76.0</ele><time>2026-03-28T10:45:25Z</time></trkpt><trkpt lat="45.47060568298782" lon="11.450345241870325"><ele>76.0</ele><time>2026-03-28T10:45:26Z</time></trkpt><trkpt lat="45.470726071263336" lon="11.450205045946197"><ele>72.25</ele><time>2026-03-28T10:45:27Z</time></trkpt><trkpt lat="45.47084241095089" lon="11.450076308192795"><ele>68.5</ele><time>2026-03-28T10:45:28Z</time></trkpt><trkpt lat="45.470947016564644" lon="11.449945137295568"><ele>64.75</ele><time>2026-03-28T10:45:29Z</time></trkpt><trkpt lat="45.47103648441797" lon="11.449804803992583"><ele>61.0</ele><time>2026-03-28T10:45:30Z</time></trkpt><trkpt lat="45.47110687898978" lon="11.449651444470668"><ele>59.25</ele><time>2026-03-28T10:45:31Z</time></trkpt><trkpt lat="45.471168358451465" lon="11.449476644498146"><ele>57.5</ele><time>2026-03-28T10:45:32Z</time></trkpt><trkpt lat="45.47122324127722" lon="11.449292996370076"><ele>55.75</ele><time>2026-03-28T10:45:33Z</time></trkpt><trkpt lat="45.4712559968909" lon="11.4491042513803"><ele>54.0</ele><time>2026-03-28T10:45:34Z</time></trkpt><trkpt lat="45.47126390239244" lon="11.448898181902345"><ele>53.5</ele><time>2026-03-28T10:45:35Z</time></trkpt><trkpt lat="45.47128689821987" lon="11.448701602268226"><ele>53.0</ele><time>2026-03-28T10:45:36Z</time></trkpt><trkpt lat="45.47129952567058" lon="11.448519545424482"><ele>52.5</ele><time>2026-03-28T10:45:37Z</time></trkpt><trkpt lat="45.47131888442456" lon="11.448372282503495"><ele>52.0</ele><time>2026-03-28T10:45:38Z</time></trkpt><trkpt lat="45.47136943144413" lon="11.448246865575749"><ele>52.0</ele><time>2026-03-28T10:45:39Z</time></trkpt><trkpt lat="45.47143262813244" lon="11.448093413693956"><ele>52.0</ele><time>2026-03-28T10:45:40Z</time></trkpt><trkpt lat="45.471534090120656" lon="11.447946988045928"><ele>52.0</ele><time>2026-03-28T10:45:41Z</time></trkpt><trkpt lat="45.47162188523683" lon="11.447803228084762"><ele>52.0</ele><time>2026-03-28T10:45:42Z</time></trkpt><trkpt lat="45.47169541196691" lon="11.447678571986572"><ele>51.400000000000006</ele><time>2026-03-28T10:45:43Z</time></trkpt><trkpt lat="45.471768905117806" lon="11.44756673892368"><ele>50.800000000000004</ele><time>2026-03-28T10:45:44Z</time></trkpt><trkpt lat="45.471836355863736" lon="11.447443120001026"><ele>50.2</ele><time>2026-03-28T10:45:45Z</time></trkpt><trkpt lat="45.471895153112015" lon="11.447316142159622"><ele>49.6</ele><time>2026-03-28T10:45:46Z</time></trkpt><trkpt lat="45.47194755700123" lon="11.447185551496998"><ele>49.0</ele><time>2026-03-28T10:45:47Z</time></trkpt><trkpt lat="45.47200291139178" lon="11.447055215460031"><ele>48.99999999999999</ele><time>2026-03-28T10:45:48Z</time></trkpt><trkpt lat="45.47205148377744" lon="11.446935120872867"><ele>49.0</ele><time>2026-03-28T10:45:49Z</time></trkpt><trkpt lat="45.472098003502545" lon="11.446829076854295"><ele>49.0</ele><time>2026-03-28T10:45:50Z</time></trkpt><trkpt lat="45.47213450351331" lon="11.446746120663379"><ele>49.0</ele><time>2026-03-28T10:45:51Z</time></trkpt><trkpt lat="45.472169423745264" lon="11.446653665189041"><ele>48.99999999999999</ele><time>2026-03-28T10:45:52Z</time></trkpt><trkpt lat="45.47220846929398" lon="11.446563912390666"><ele>49.0</ele><time>2026-03-28T10:45:53Z</time></trkpt><trkpt lat="45.47224904045709" lon="11.446481519953169"><ele>48.99999999999999</ele><time>2026-03-28T10:45:54Z</time></trkpt><trkpt lat="45.47228266611855" lon="11.446394272765874"><ele>49.0</ele><time>2026-03-28T10:45:55Z</time></trkpt><trkpt lat="45.472322816925484" lon="11.44630697990532"><ele>49.0</ele><time>2026-03-28T10:45:56Z</time></trkpt><trkpt lat="45.47236624112307" lon="11.446215999234713"><ele>49.0</ele><time>2026-03-28T10:45:57Z</time></trkpt><trkpt lat="45.47241621727797" lon="11.446119427101552"><ele>48.99999999999999</ele><time>2026-03-28T10:45:58Z</time></trkpt><trkpt lat="45.4724698842022" lon="11.446019425539403"><ele>49.0</ele><time>2026-03-28T10:45:59Z</time></trkpt><trkpt lat="45.47252036652051" lon="11.445919609064765"><ele>49.0</ele><time>2026-03-28T10:46:00Z</time></trkpt><trkpt lat="45.47257088280463" lon="11.445818040949856"><ele>49.0</ele><time>2026-03-28T10:46:01Z</time></trkpt><trkpt lat="45.472627323856855" lon="11.445709543557278"><ele>49.0</ele><time>2026-03-28T10:46:02Z</time></trkpt><trkpt lat="45.47268365625095" lon="11.445607907449109"><ele>49.0</ele><time>2026-03-28T10:46:03Z</time></trkpt><trkpt lat="45.47273874436871" lon="11.4455041347279"><ele>49.0</ele><time>2026-03-28T10:46:04Z</time></trkpt><trkpt lat="45.472792752671005" lon="11.445400848257787"><ele>48.99999999999999</ele><time>2026-03-28T10:46:05Z</time></trkpt><trkpt lat="45.472848193564865" lon="11.445297079381769"><ele>49.0</ele><time>2026-03-28T10:46:06Z</time></trkpt><trkpt lat="45.47289727743981" lon="11.445202843018258"><ele>49.0</ele><time>2026-03-28T10:46:07Z</time></trkpt><trkpt lat="45.47294295024337" lon="11.445122777707084"><ele>49.0</ele><time>2026-03-28T10:46:08Z</time></trkpt><trkpt lat="45.47298427301836" lon="11.445042580746183"><ele>48.99999999999999</ele><time>2026-03-28T10:46:09Z</time></trkpt><trkpt lat="45.47303465386985" lon="11.444959556839853"><ele>49.0</ele><time>2026-03-28T10:46:10Z</time></trkpt><trkpt lat="45.47308857825726" lon="11.444870544859333"><ele>49.0</ele><time>2026-03-28T10:46:11Z</time></trkpt><trkpt lat="45.47314010792759" lon="11.44477638037223"><ele>49.0</ele><time>2026-03-28T10:46:12Z</time></trkpt><trkpt lat="45.47319688380844" lon="11.444679886862167"><ele>49.0</ele><time>2026-03-28T10:46:13Z</time></trkpt><trkpt lat="45.47326360609412" lon="11.444577373418722"><ele>49.0</ele><time>2026-03-28T10:46:14Z</time></trkpt><trkpt lat="45.47333183094122" lon="11.444471580671964"><ele>49.0</ele><time>2026-03-28T10:46:15Z</time></trkpt><trkpt lat="45.47340272718835" lon="11.444369132879034"><ele>48.800000000000004</ele><time>2026-03-28T10:46:16Z</time></trkpt><trkpt lat="45.47346912534668" lon="11.444267199102866"><ele>48.6</ele><time>2026-03-28T10:46:17Z</time></trkpt><trkpt lat="45.47354199521824" lon="11.444154795057447"><ele>48.4</ele><time>2026-03-28T10:46:18Z</time></trkpt><trkpt lat="45.47362184406889" lon="11.444038322884692"><ele>48.2</ele><time>2026-03-28T10:46:19Z</time></trkpt><trkpt lat="45.47370198088168" lon="11.443918288469927"><ele>48.0</ele><time>2026-03-28T10:46:20Z</time></trkpt><trkpt lat="45.47378549093717" lon="11.443792413145198"><ele>47.8</ele><time>2026-03-28T10:46:21Z</time></trkpt><trkpt lat="45.473862113015386" lon="11.443672991683002"><ele>47.599999999999994</ele><time>2026-03-28T10:46:22Z</time></trkpt><trkpt lat="45.47393831744738" lon="11.443557706667006"><ele>47.400000000000006</ele><time>2026-03-28T10:46:22.999Z</time></trkpt><trkpt lat="45.47401727397205" lon="11.443444317858852"><ele>47.2</ele><time>2026-03-28T10:46:23.999Z</time></trkpt><trkpt lat="45.47409247878775" lon="11.443336964380052"><ele>47.0</ele><time>2026-03-28T10:46:24.999Z</time></trkpt><trkpt lat="45.47416381494463" lon="11.4432307662252"><ele>47.0</ele><time>2026-03-28T10:46:25.999Z</time></trkpt><trkpt lat="45.47423886553687" lon="11.443129245043552"><ele>47.0</ele><time>2026-03-28T10:46:26.999Z</time></trkpt><trkpt lat="45.47428912521174" lon="11.443068924931005"><ele>47.0</ele><time>2026-03-28T10:46:27.999Z</time></trkpt><trkpt lat="45.474346672440646" lon="11.44299119532548"><ele>47.0</ele><time>2026-03-28T10:46:31.999Z</time></trkpt><trkpt lat="45.47439547812245" lon="11.4429254560859"><ele>47.0</ele><time>2026-03-28T10:46:34.999Z</time></trkpt><trkpt lat="45.47444472158735" lon="11.442855438522423"><ele>47.0</ele><time>2026-03-28T10:46:36.999Z</time></trkpt><trkpt lat="45.47449336132628" lon="11.442786695221718"><ele>47.0</ele><time>2026-03-28T10:46:39.999Z</time></trkpt><trkpt lat="45.474564357288315" lon="11.442702480925892"><ele>47.0</ele><time>2026-03-28T10:46:44.999Z</time></trkpt><trkpt lat="45.47464733850751" lon="11.442589335190087"><ele>47.0</ele><time>2026-03-28T10:46:46.999Z</time></trkpt><trkpt lat="45.474735995007826" lon="11.4424603716225"><ele>47.0</ele><time>2026-03-28T10:46:48.999Z</time></trkpt><trkpt lat="45.47478747485968" lon="11.44238272819262"><ele>47.0</ele><time>2026-03-28T10:46:49.999Z</time></trkpt><trkpt lat="45.4748418363093" lon="11.442307958068355"><ele>47.0</ele><time>2026-03-28T10:46:50.999Z</time></trkpt><trkpt lat="45.474899185144935" lon="11.442227807929298"><ele>47.0</ele><time>2026-03-28T10:46:51.999Z</time></trkpt><trkpt lat="45.47496343502105" lon="11.442139998703038"><ele>47.0</ele><time>2026-03-28T10:46:52.999Z</time></trkpt><trkpt lat="45.475032777038095" lon="11.442045857616122"><ele>47.0</ele><time>2026-03-28T10:46:53.999Z</time></trkpt><trkpt lat="45.47510100874138" lon="11.441949778078806"><ele>47.0</ele><time>2026-03-28T10:46:54.999Z</time></trkpt><trkpt lat="45.47516184280339" lon="11.441859572188104"><ele>47.0</ele><time>2026-03-28T10:46:55.999Z</time></trkpt><trkpt lat="45.475224341001706" lon="11.4417636111832"><ele>47.0</ele><time>2026-03-28T10:46:56.999Z</time></trkpt><trkpt lat="45.475292235017406" lon="11.441651762222152"><ele>47.0</ele><time>2026-03-28T10:46:57.999Z</time></trkpt><trkpt lat="45.47538130393569" lon="11.441526265229362"><ele>47.0</ele><time>2026-03-28T10:46:59.999Z</time></trkpt><trkpt lat="45.475437113980576" lon="11.441441419232255"><ele>47.0</ele><time>2026-03-28T10:47:00.999Z</time></trkpt><trkpt lat="45.475488691859425" lon="11.441349653965316"><ele>47.0</ele><time>2026-03-28T10:47:01.999Z</time></trkpt><trkpt lat="45.47553206429248" lon="11.441266947160589"><ele>46.666666666666664</ele><time>2026-03-28T10:47:02.999Z</time></trkpt><trkpt lat="45.475577175286936" lon="11.441198383272315"><ele>46.33333333333333</ele><time>2026-03-28T10:47:03.999Z</time></trkpt><trkpt lat="45.475693942129084" lon="11.441098051222069"><ele>46.0</ele><time>2026-03-28T10:47:05.999Z</time></trkpt><trkpt lat="45.47575612710105" lon="11.441045786673882"><ele>45.666666666666664</ele><time>2026-03-28T10:47:06.999Z</time></trkpt><trkpt lat="45.475808584499745" lon="11.44096946014912"><ele>45.333333333333336</ele><time>2026-03-28T10:47:07.999Z</time></trkpt><trkpt lat="45.47587924231959" lon="11.440873037358747"><ele>45.0</ele><time>2026-03-28T10:47:08.999Z</time></trkpt><trkpt lat="45.47592964052917" lon="11.440695216803952"><ele>45.0</ele><time>2026-03-28T10:47:09.999Z</time></trkpt><trkpt lat="45.476040718105324" lon="11.440500132753591"><ele>45.0</ele><time>2026-03-28T10:47:10.999Z</time></trkpt><trkpt lat="45.47615480554787" lon="11.440320643331342"><ele>45.0</ele><time>2026-03-28T10:47:11.999Z</time></trkpt><trkpt lat="45.47624628961802" lon="11.440162838957615"><ele>45.75</ele><time>2026-03-28T10:47:12.999Z</time></trkpt><trkpt lat="45.47633840066019" lon="11.440030098178044"><ele>46.5</ele><time>2026-03-28T10:47:13.999Z</time></trkpt><trkpt lat="45.47641643498143" lon="11.439903307751603"><ele>47.25</ele><time>2026-03-28T10:47:14.999Z</time></trkpt><trkpt lat="45.47649479224768" lon="11.439779971855765"><ele>48.0</ele><time>2026-03-28T10:47:15.999Z</time></trkpt><trkpt lat="45.47657620347631" lon="11.439646360070103"><ele>47.75</ele><time>2026-03-28T10:47:16.999Z</time></trkpt><trkpt lat="45.47665959492833" lon="11.439517293546253"><ele>47.5</ele><time>2026-03-28T10:47:17.999Z</time></trkpt><trkpt lat="45.476743903807154" lon="11.439387836277437"><ele>47.25</ele><time>2026-03-28T10:47:18.999Z</time></trkpt><trkpt lat="45.47682842757231" lon="11.439254750694214"><ele>47.0</ele><time>2026-03-28T10:47:19.999Z</time></trkpt><trkpt lat="45.47692145396662" lon="11.4391249366013"><ele>47.0</ele><time>2026-03-28T10:47:20.999Z</time></trkpt><trkpt lat="45.47700806518016" lon="11.438981473037481"><ele>47.0</ele><time>2026-03-28T10:47:21.999Z</time></trkpt><trkpt lat="45.477099180773884" lon="11.438845483410255"><ele>47.0</ele><time>2026-03-28T10:47:22.999Z</time></trkpt><trkpt lat="45.477188887760974" lon="11.438703870681305"><ele>47.0</ele><time>2026-03-28T10:47:24Z</time></trkpt><trkpt lat="45.47727533603877" lon="11.43855746943277"><ele>47.25</ele><time>2026-03-28T10:47:25Z</time></trkpt><trkpt lat="45.477373359699335" lon="11.438409623092538"><ele>47.5</ele><time>2026-03-28T10:47:26Z</time></trkpt><trkpt lat="45.477474841271736" lon="11.438253216440895"><ele>47.75</ele><time>2026-03-28T10:47:27Z</time></trkpt><trkpt lat="45.47757834907613" lon="11.438092065504812"><ele>48.0</ele><time>2026-03-28T10:47:28Z</time></trkpt><trkpt lat="45.47768830426415" lon="11.437920798229039"><ele>48.0</ele><time>2026-03-28T10:47:29Z</time></trkpt><trkpt lat="45.47779519298957" lon="11.43775412265999"><ele>48.0</ele><time>2026-03-28T10:47:30Z</time></trkpt><trkpt lat="45.47790376582904" lon="11.437585662301519"><ele>48.0</ele><time>2026-03-28T10:47:31Z</time></trkpt><trkpt lat="45.47801411651997" lon="11.43741073029044"><ele>48.0</ele><time>2026-03-28T10:47:32Z</time></trkpt><trkpt lat="45.47812623249838" lon="11.437233310853403"><ele>48.0</ele><time>2026-03-28T10:47:33Z</time></trkpt><trkpt lat="45.47824366964104" lon="11.437049037963442"><ele>48.0</ele><time>2026-03-28T10:47:34Z</time></trkpt><trkpt lat="45.47836838925618" lon="11.436861623508243"><ele>48.0</ele><time>2026-03-28T10:47:35Z</time></trkpt><trkpt lat="45.478491977327316" lon="11.436670960632242"><ele>48.0</ele><time>2026-03-28T10:47:36Z</time></trkpt><trkpt lat="45.478617386744006" lon="11.436476463173692"><ele>48.0</ele><time>2026-03-28T10:47:37Z</time></trkpt><trkpt lat="45.478734554847904" lon="11.436291112797246"><ele>48.66666666666667</ele><time>2026-03-28T10:47:38Z</time></trkpt><trkpt lat="45.478863108895176" lon="11.436091614004662"><ele>49.333333333333336</ele><time>2026-03-28T10:47:39Z</time></trkpt><trkpt lat="45.47899176802965" lon="11.435881733794096"><ele>50.0</ele><time>2026-03-28T10:47:40Z</time></trkpt><trkpt lat="45.47912871018081" lon="11.435669611246858"><ele>50.0</ele><time>2026-03-28T10:47:41Z</time></trkpt><trkpt lat="45.47926260477032" lon="11.435465472400647"><ele>50.0</ele><time>2026-03-28T10:47:42Z</time></trkpt><trkpt lat="45.47939473792793" lon="11.435265259815678"><ele>50.0</ele><time>2026-03-28T10:47:43Z</time></trkpt><trkpt lat="45.47952174596815" lon="11.43506990121315"><ele>49.66666666666667</ele><time>2026-03-28T10:47:44Z</time></trkpt><trkpt lat="45.47963670027752" lon="11.434901795096321"><ele>49.33333333333333</ele><time>2026-03-28T10:47:45Z</time></trkpt><trkpt lat="45.47974300169063" lon="11.434746008758873"><ele>49.0</ele><time>2026-03-28T10:47:46Z</time></trkpt><trkpt lat="45.47983616475126" lon="11.434602176455195"><ele>49.5</ele><time>2026-03-28T10:47:47Z</time></trkpt><trkpt lat="45.47993414356372" lon="11.434462328393597"><ele>50.0</ele><time>2026-03-28T10:47:48Z</time></trkpt><trkpt lat="45.48002937252858" lon="11.434321805560206"><ele>50.5</ele><time>2026-03-28T10:47:49Z</time></trkpt><trkpt lat="45.48012800597448" lon="11.434164478438642"><ele>51.0</ele><time>2026-03-28T10:47:50Z</time></trkpt><trkpt lat="45.48022419729795" lon="11.434012185530896"><ele>51.0</ele><time>2026-03-28T10:47:51Z</time></trkpt><trkpt lat="45.48031546092316" lon="11.43387383197668"><ele>51.0</ele><time>2026-03-28T10:47:52Z</time></trkpt><trkpt lat="45.48040123995829" lon="11.43374633160276"><ele>51.0</ele><time>2026-03-28T10:47:53Z</time></trkpt><trkpt lat="45.480474723422766" lon="11.43364404084627"><ele>51.0</ele><time>2026-03-28T10:47:54Z</time></trkpt><trkpt lat="45.48052750727286" lon="11.43357493728858"><ele>51.0</ele><time>2026-03-28T10:47:55Z</time></trkpt><trkpt lat="45.4806001060007" lon="11.43353255550195"><ele>50.833333333333336</ele><time>2026-03-28T10:47:57Z</time></trkpt><trkpt lat="45.480665972268916" lon="11.433588166762108"><ele>50.66666666666667</ele><time>2026-03-28T10:47:59Z</time></trkpt><trkpt lat="45.48074735136979" lon="11.433454927120268"><ele>50.5</ele><time>2026-03-28T10:48:01Z</time></trkpt><trkpt lat="45.4808002099134" lon="11.433353686103317"><ele>50.333333333333336</ele><time>2026-03-28T10:48:03Z</time></trkpt><trkpt lat="45.48072100401035" lon="11.433405062278174"><ele>50.16666666666667</ele><time>2026-03-28T11:01:25.999Z</time></trkpt><trkpt lat="45.480684914485416" lon="11.433482422072318"><ele>50.0</ele><time>2026-03-28T11:01:27.999Z</time></trkpt><trkpt lat="45.480637842684104" lon="11.433545475424209"><ele>50.0</ele><time>2026-03-28T11:01:33.999Z</time></trkpt><trkpt lat="45.48060727971774" lon="11.433454843666388"><ele>50.0</ele><time>2026-03-28T11:01:52.999Z</time></trkpt><trkpt lat="45.480692067579284" lon="11.433316622670315"><ele>50.0</ele><time>2026-03-28T11:01:54.999Z</time></trkpt><trkpt lat="45.48075632247203" lon="11.4332268729377"><ele>50.0</ele><time>2026-03-28T11:01:55.999Z</time></trkpt><trkpt lat="45.48080215007238" lon="11.43315565679"><ele>50.0</ele><time>2026-03-28T11:01:56.999Z</time></trkpt><trkpt lat="45.48089521371891" lon="11.43305264413555"><ele>50.00000000000001</ele><time>2026-03-28T11:01:58.999Z</time></trkpt><trkpt lat="45.48095883718581" lon="11.433023345298922"><ele>50.0</ele><time>2026-03-28T11:01:59.999Z</time></trkpt><trkpt lat="45.4810292306843" lon="11.433018581703264"><ele>50.0</ele><time>2026-03-28T11:02:00.999Z</time></trkpt><trkpt lat="45.481105402860464" lon="11.433029182954167"><ele>50.0</ele><time>2026-03-28T11:02:01.999Z</time></trkpt><trkpt lat="45.4811764547466" lon="11.433072567091918"><ele>50.00000000000001</ele><time>2026-03-28T11:02:02.999Z</time></trkpt><trkpt lat="45.48124763697182" lon="11.433153479058745"><ele>50.0</ele><time>2026-03-28T11:02:03.999Z</time></trkpt><trkpt lat="45.481322319478494" lon="11.4332449183354"><ele>50.0</ele><time>2026-03-28T11:02:04.999Z</time></trkpt><trkpt lat="45.48140101236104" lon="11.433334474424539"><ele>50.0</ele><time>2026-03-28T11:02:06Z</time></trkpt><trkpt lat="45.48148997912842" lon="11.433426832437297"><ele>50.0</ele><time>2026-03-28T11:02:07Z</time></trkpt><trkpt lat="45.48157989579471" lon="11.433522408496325"><ele>50.0</ele><time>2026-03-28T11:02:08Z</time></trkpt><trkpt lat="45.48166895810536" lon="11.433624552549981"><ele>50.0</ele><time>2026-03-28T11:02:09Z</time></trkpt><trkpt lat="45.481754969110185" lon="11.433725456545188"><ele>50.25</ele><time>2026-03-28T11:02:10Z</time></trkpt><trkpt lat="45.48185010024609" lon="11.43382961375277"><ele>50.5</ele><time>2026-03-28T11:02:11Z</time></trkpt><trkpt lat="45.48195156777006" lon="11.433942889100079"><ele>50.75</ele><time>2026-03-28T11:02:12Z</time></trkpt><trkpt lat="45.48205404871795" lon="11.434056901601869"><ele>51.0</ele><time>2026-03-28T11:02:13Z</time></trkpt><trkpt lat="45.48215065579029" lon="11.434168684222398"><ele>51.0</ele><time>2026-03-28T11:02:14Z</time></trkpt><trkpt lat="45.48225222521788" lon="11.434284124523048"><ele>51.0</ele><time>2026-03-28T11:02:15Z</time></trkpt><trkpt lat="45.48235177958583" lon="11.43440039955842"><ele>51.0</ele><time>2026-03-28T11:02:16Z</time></trkpt><trkpt lat="45.482454228187954" lon="11.434520560580909"><ele>51.0</ele><time>2026-03-28T11:02:17Z</time></trkpt><trkpt lat="45.48255909535288" lon="11.434643834557312"><ele>51.0</ele><time>2026-03-28T11:02:18Z</time></trkpt><trkpt lat="45.48266597484233" lon="11.434770733703084"><ele>51.0</ele><time>2026-03-28T11:02:19Z</time></trkpt><trkpt lat="45.48277148680763" lon="11.434899109868308"><ele>51.0</ele><time>2026-03-28T11:02:20Z</time></trkpt><trkpt lat="45.48287870525721" lon="11.435024934683948"><ele>51.0</ele><time>2026-03-28T11:02:21Z</time></trkpt><trkpt lat="45.48298887158007" lon="11.43515250419323"><ele>51.25</ele><time>2026-03-28T11:02:22Z</time></trkpt><trkpt lat="45.483102344215375" lon="11.435282617660851"><ele>51.5</ele><time>2026-03-28T11:02:23Z</time></trkpt><trkpt lat="45.48321953191318" lon="11.435421278886379"><ele>51.75</ele><time>2026-03-28T11:02:24Z</time></trkpt><trkpt lat="45.48333627866423" lon="11.435559107404737"><ele>52.0</ele><time>2026-03-28T11:02:25Z</time></trkpt><trkpt lat="45.483458369953375" lon="11.435704107646993"><ele>52.0</ele><time>2026-03-28T11:02:26Z</time></trkpt><trkpt lat="45.48357910352431" lon="11.435841275714244"><ele>52.0</ele><time>2026-03-28T11:02:27Z</time></trkpt><trkpt lat="45.48370014737683" lon="11.435978073972542"><ele>52.0</ele><time>2026-03-28T11:02:28Z</time></trkpt><trkpt lat="45.483827358890125" lon="11.436123584626664"><ele>52.0</ele><time>2026-03-28T11:02:29Z</time></trkpt><trkpt lat="45.483952855601686" lon="11.436275297649106"><ele>52.0</ele><time>2026-03-28T11:02:30Z</time></trkpt><trkpt lat="45.4840773761269" lon="11.43642359762838"><ele>52.0</ele><time>2026-03-28T11:02:31Z</time></trkpt><trkpt lat="45.48420935267544" lon="11.436581203747844"><ele>51.666666666666664</ele><time>2026-03-28T11:02:32Z</time></trkpt><trkpt lat="45.48433436452701" lon="11.436731272300543"><ele>51.33333333333333</ele><time>2026-03-28T11:02:33Z</time></trkpt><trkpt lat="45.48445491363684" lon="11.43688396171482"><ele>51.0</ele><time>2026-03-28T11:02:34Z</time></trkpt><trkpt lat="45.48456931519085" lon="11.437052026214886"><ele>50.33333333333333</ele><time>2026-03-28T11:02:35Z</time></trkpt><trkpt lat="45.484671867426826" lon="11.437208998707028"><ele>49.666666666666664</ele><time>2026-03-28T11:02:36Z</time></trkpt><trkpt lat="45.48477993553938" lon="11.437373778578422"><ele>49.0</ele><time>2026-03-28T11:02:37Z</time></trkpt><trkpt lat="45.48489997377378" lon="11.437549634079456"><ele>49.0</ele><time>2026-03-28T11:02:38Z</time></trkpt><trkpt lat="45.485013569410974" lon="11.43770841822331"><ele>49.0</ele><time>2026-03-28T11:02:39Z</time></trkpt><trkpt lat="45.485133157737174" lon="11.437865899429529"><ele>49.0</ele><time>2026-03-28T11:02:40Z</time></trkpt><trkpt lat="45.48525670973878" lon="11.43799903060351"><ele>49.33333333333333</ele><time>2026-03-28T11:02:41Z</time></trkpt><trkpt lat="45.48539041037212" lon="11.438118436901167"><ele>49.66666666666667</ele><time>2026-03-28T11:02:42Z</time></trkpt><trkpt lat="45.48553108473613" lon="11.438222180061596"><ele>50.0</ele><time>2026-03-28T11:02:43Z</time></trkpt><trkpt lat="45.485676208156775" lon="11.438309094106991"><ele>50.333333333333336</ele><time>2026-03-28T11:02:44Z</time></trkpt><trkpt lat="45.48581855797785" lon="11.438374026756694"><ele>50.66666666666667</ele><time>2026-03-28T11:02:45Z</time></trkpt><trkpt lat="45.48596960579253" lon="11.438420560538944"><ele>51.0</ele><time>2026-03-28T11:02:46Z</time></trkpt><trkpt lat="45.48612335646293" lon="11.438444217855084"><ele>51.33333333333333</ele><time>2026-03-28T11:02:47Z</time></trkpt><trkpt lat="45.4862723262131" lon="11.438451108702415"><ele>51.666666666666664</ele><time>2026-03-28T11:02:48Z</time></trkpt><trkpt lat="45.486423166516595" lon="11.438447268192416"><ele>52.0</ele><time>2026-03-28T11:02:49Z</time></trkpt><trkpt lat="45.48657267905145" lon="11.438435209389324"><ele>52.0</ele><time>2026-03-28T11:02:50Z</time></trkpt><trkpt lat="45.48672060014475" lon="11.438412615774505"><ele>52.0</ele><time>2026-03-28T11:02:51Z</time></trkpt><trkpt lat="45.486864352015715" lon="11.438381217053463"><ele>52.0</ele><time>2026-03-28T11:02:52Z</time></trkpt><trkpt lat="45.48702289928233" lon="11.438343753946043"><ele>52.0</ele><time>2026-03-28T11:02:53Z</time></trkpt><trkpt lat="45.4871983731748" lon="11.438321079997916"><ele>52.0</ele><time>2026-03-28T11:02:54Z</time></trkpt><trkpt lat="45.48735347840372" lon="11.43829865925676"><ele>52.0</ele><time>2026-03-28T11:02:55Z</time></trkpt><trkpt lat="45.487511479676805" lon="11.43827322170088"><ele>52.0</ele><time>2026-03-28T11:02:56Z</time></trkpt><trkpt lat="45.487662374378274" lon="11.438238542145038"><ele>52.0</ele><time>2026-03-28T11:02:57Z</time></trkpt><trkpt lat="45.48781263369744" lon="11.43820015602159"><ele>52.0</ele><time>2026-03-28T11:02:58Z</time></trkpt><trkpt lat="45.48794949758016" lon="11.438174051008401"><ele>52.0</ele><time>2026-03-28T11:02:59Z</time></trkpt><trkpt lat="45.48808608786536" lon="11.438154352188526"><ele>52.5</ele><time>2026-03-28T11:03:00Z</time></trkpt><trkpt lat="45.48821836164805" lon="11.4381334751671"><ele>53.0</ele><time>2026-03-28T11:03:01Z</time></trkpt><trkpt lat="45.48833379996242" lon="11.4381126490445"><ele>53.5</ele><time>2026-03-28T11:03:02Z</time></trkpt><trkpt lat="45.48844016743951" lon="11.438094252230549"><ele>54.0</ele><time>2026-03-28T11:03:03Z</time></trkpt><trkpt lat="45.488538315264094" lon="11.438094300290082"><ele>54.0</ele><time>2026-03-28T11:03:04Z</time></trkpt><trkpt lat="45.48864009471882" lon="11.438122978008966"><ele>54.00000000000001</ele><time>2026-03-28T11:03:05Z</time></trkpt><trkpt lat="45.488742096536505" lon="11.43819266806212"><ele>54.00000000000001</ele><time>2026-03-28T11:03:06Z</time></trkpt><trkpt lat="45.48883923998545" lon="11.438282118016193"><ele>54.0</ele><time>2026-03-28T11:03:07Z</time></trkpt><trkpt lat="45.48893753252103" lon="11.438342269101756"><ele>54.0</ele><time>2026-03-28T11:03:08Z</time></trkpt><trkpt lat="45.48904005587862" lon="11.438355026715286"><ele>53.800000000000004</ele><time>2026-03-28T11:03:09Z</time></trkpt><trkpt lat="45.489141892059955" lon="11.43833815219692"><ele>53.60000000000001</ele><time>2026-03-28T11:03:10Z</time></trkpt><trkpt lat="45.48923764232937" lon="11.438329572684115"><ele>53.4</ele><time>2026-03-28T11:03:11Z</time></trkpt><trkpt lat="45.48931683513062" lon="11.438278281316082"><ele>53.2</ele><time>2026-03-28T11:03:12Z</time></trkpt><trkpt lat="45.48938608295819" lon="11.438209207849749"><ele>53.0</ele><time>2026-03-28T11:03:13Z</time></trkpt><trkpt lat="45.48941602513832" lon="11.438075261336587"><ele>53.00000000000001</ele><time>2026-03-28T11:03:14Z</time></trkpt><trkpt lat="45.489458552828026" lon="11.437973507870124"><ele>53.0</ele><time>2026-03-28T11:03:15Z</time></trkpt><trkpt lat="45.48948700365547" lon="11.437850595972753"><ele>53.0</ele><time>2026-03-28T11:03:16Z</time></trkpt><trkpt lat="45.48950573872706" lon="11.437715286059698"><ele>53.0</ele><time>2026-03-28T11:03:17Z</time></trkpt><trkpt lat="45.489521803256025" lon="11.437590879250319"><ele>53.00000000000001</ele><time>2026-03-28T11:03:18Z</time></trkpt><trkpt lat="45.48954683052921" lon="11.437497189821348"><ele>53.0</ele><time>2026-03-28T11:03:19Z</time></trkpt><trkpt lat="45.4895906488962" lon="11.43741538475982"><ele>52.599999999999994</ele><time>2026-03-28T11:03:20Z</time></trkpt><trkpt lat="45.48964616928977" lon="11.437342930533413"><ele>52.199999999999996</ele><time>2026-03-28T11:03:21Z</time></trkpt><trkpt lat="45.48975133609593" lon="11.437332333301613"><ele>51.8</ele><time>2026-03-28T11:03:22Z</time></trkpt><trkpt lat="45.48982791003464" lon="11.437254056413895"><ele>51.4</ele><time>2026-03-28T11:03:22.999Z</time></trkpt><trkpt lat="45.48989466387577" lon="11.437164084595924"><ele>51.0</ele><time>2026-03-28T11:03:23.999Z</time></trkpt><trkpt lat="45.48995845602338" lon="11.437074972149968"><ele>51.0</ele><time>2026-03-28T11:03:24.999Z</time></trkpt><trkpt lat="45.49002474521572" lon="11.436982368202655"><ele>51.0</ele><time>2026-03-28T11:03:25.999Z</time></trkpt><trkpt lat="45.49008273651612" lon="11.43687368980671"><ele>51.0</ele><time>2026-03-28T11:03:26.999Z</time></trkpt><trkpt lat="45.49015900679569" lon="11.4367735000822"><ele>51.0</ele><time>2026-03-28T11:03:27.999Z</time></trkpt><trkpt lat="45.490243910866994" lon="11.43666406005399"><ele>51.0</ele><time>2026-03-28T11:03:28.999Z</time></trkpt><trkpt lat="45.490334101183045" lon="11.436546819045354"><ele>51.0</ele><time>2026-03-28T11:03:29.999Z</time></trkpt><trkpt lat="45.49042038746227" lon="11.436436069850435"><ele>51.0</ele><time>2026-03-28T11:03:30.999Z</time></trkpt><trkpt lat="45.49050932336689" lon="11.436322097238268"><ele>51.0</ele><time>2026-03-28T11:03:31.999Z</time></trkpt><trkpt lat="45.49059548698152" lon="11.436207573133204"><ele>51.0</ele><time>2026-03-28T11:03:32.999Z</time></trkpt><trkpt lat="45.490684869334224" lon="11.436094541123198"><ele>52.25</ele><time>2026-03-28T11:03:33.999Z</time></trkpt><trkpt lat="45.490774128831" lon="11.435982799148082"><ele>53.5</ele><time>2026-03-28T11:03:34.999Z</time></trkpt><trkpt lat="45.490858790390604" lon="11.435878217531753"><ele>54.75</ele><time>2026-03-28T11:03:35.999Z</time></trkpt><trkpt lat="45.490940944901716" lon="11.435770848619667"><ele>56.0</ele><time>2026-03-28T11:03:36.999Z</time></trkpt><trkpt lat="45.49102715262722" lon="11.435658606053472"><ele>56.0</ele><time>2026-03-28T11:03:37.999Z</time></trkpt><trkpt lat="45.49111290242749" lon="11.435541580103385"><ele>56.0</ele><time>2026-03-28T11:03:38.999Z</time></trkpt><trkpt lat="45.49120026710324" lon="11.435427199479069"><ele>56.0</ele><time>2026-03-28T11:03:39.999Z</time></trkpt><trkpt lat="45.49128732847875" lon="11.435321335087703"><ele>56.0</ele><time>2026-03-28T11:03:40.999Z</time></trkpt><trkpt lat="45.49136855595312" lon="11.43521845853432"><ele>56.0</ele><time>2026-03-28T11:03:41.999Z</time></trkpt><trkpt lat="45.49144683516529" lon="11.435112867819813"><ele>55.99999999999999</ele><time>2026-03-28T11:03:42.999Z</time></trkpt><trkpt lat="45.491529410398876" lon="11.435007249595987"><ele>55.99999999999999</ele><time>2026-03-28T11:03:43.999Z</time></trkpt><trkpt lat="45.49161348863601" lon="11.434900577118002"><ele>56.0</ele><time>2026-03-28T11:03:44.999Z</time></trkpt><trkpt lat="45.49170375300442" lon="11.43479157978323"><ele>56.0</ele><time>2026-03-28T11:03:45.999Z</time></trkpt><trkpt lat="45.49179085462105" lon="11.434686932313568"><ele>56.0</ele><time>2026-03-28T11:03:46.999Z</time></trkpt><trkpt lat="45.49188107898688" lon="11.434585660716717"><ele>55.99999999999999</ele><time>2026-03-28T11:03:47.999Z</time></trkpt><trkpt lat="45.491973794075705" lon="11.434494085291758"><ele>55.99999999999999</ele><time>2026-03-28T11:03:48.999Z</time></trkpt><trkpt lat="45.492066128533224" lon="11.434405078865451"><ele>56.0</ele><time>2026-03-28T11:03:49.999Z</time></trkpt><trkpt lat="45.49215744460201" lon="11.434323888894374"><ele>56.0</ele><time>2026-03-28T11:03:50.999Z</time></trkpt><trkpt lat="45.49224774889454" lon="11.434241164954502"><ele>56.0</ele><time>2026-03-28T11:03:51.999Z</time></trkpt><trkpt lat="45.49233842866284" lon="11.434158139708181"><ele>55.99999999999999</ele><time>2026-03-28T11:03:52.999Z</time></trkpt><trkpt lat="45.49242704358859" lon="11.434074822695987"><ele>55.99999999999999</ele><time>2026-03-28T11:03:53.999Z</time></trkpt><trkpt lat="45.49251419251751" lon="11.433993754971096"><ele>56.0</ele><time>2026-03-28T11:03:54.999Z</time></trkpt><trkpt lat="45.49259796241709" lon="11.433916161270192"><ele>56.0</ele><time>2026-03-28T11:03:55.999Z</time></trkpt><trkpt lat="45.49268196731212" lon="11.433841603967592"><ele>56.0</ele><time>2026-03-28T11:03:56.999Z</time></trkpt><trkpt lat="45.492765919888356" lon="11.43376086718375"><ele>55.99999999999999</ele><time>2026-03-28T11:03:57.999Z</time></trkpt><trkpt lat="45.49285200547374" lon="11.433679473337047"><ele>55.99999999999999</ele><time>2026-03-28T11:03:58.999Z</time></trkpt><trkpt lat="45.49293563798203" lon="11.433600681762233"><ele>56.0</ele><time>2026-03-28T11:03:59.999Z</time></trkpt><trkpt lat="45.49302617680594" lon="11.433537340143422"><ele>56.0</ele><time>2026-03-28T11:04:00.999Z</time></trkpt><trkpt lat="45.49309286364684" lon="11.433438970642355"><ele>56.199999999999996</ele><time>2026-03-28T11:04:01.999Z</time></trkpt><trkpt lat="45.49317018716485" lon="11.433362421812067"><ele>56.39999999999999</ele><time>2026-03-28T11:04:02.999Z</time></trkpt><trkpt lat="45.49324465059939" lon="11.433284473630213"><ele>56.6</ele><time>2026-03-28T11:04:03.999Z</time></trkpt><trkpt lat="45.493324829640144" lon="11.433197730890841"><ele>56.8</ele><time>2026-03-28T11:04:04.999Z</time></trkpt><trkpt lat="45.49340731680635" lon="11.43309583014842"><ele>57.0</ele><time>2026-03-28T11:04:05.999Z</time></trkpt><trkpt lat="45.49349909557665" lon="11.432984904418268"><ele>56.8</ele><time>2026-03-28T11:04:06.999Z</time></trkpt><trkpt lat="45.4935892932508" lon="11.43286931924187"><ele>56.6</ele><time>2026-03-28T11:04:07.999Z</time></trkpt><trkpt lat="45.49367509787019" lon="11.432768915646703"><ele>56.39999999999999</ele><time>2026-03-28T11:04:08.999Z</time></trkpt><trkpt lat="45.49375182382559" lon="11.43266629613179"><ele>56.199999999999996</ele><time>2026-03-28T11:04:09.999Z</time></trkpt><trkpt lat="45.4938263290389" lon="11.43256005256647"><ele>56.0</ele><time>2026-03-28T11:04:10.999Z</time></trkpt><trkpt lat="45.49391009521008" lon="11.432449547521173"><ele>56.599999999999994</ele><time>2026-03-28T11:04:12Z</time></trkpt><trkpt lat="45.49399355585318" lon="11.432341897828135"><ele>57.199999999999996</ele><time>2026-03-28T11:04:13Z</time></trkpt><trkpt lat="45.49407232052296" lon="11.4322271658958"><ele>57.800000000000004</ele><time>2026-03-28T11:04:14Z</time></trkpt><trkpt lat="45.49414069739986" lon="11.432116458778738"><ele>58.400000000000006</ele><time>2026-03-28T11:04:15Z</time></trkpt><trkpt lat="45.49420708650328" lon="11.43199402754168"><ele>59.0</ele><time>2026-03-28T11:04:16Z</time></trkpt><trkpt lat="45.494276891544146" lon="11.431860767340197"><ele>59.0</ele><time>2026-03-28T11:04:17Z</time></trkpt><trkpt lat="45.494368509956104" lon="11.431665203053056"><ele>59.0</ele><time>2026-03-28T11:04:18Z</time></trkpt><trkpt lat="45.494456439649504" lon="11.431476319175156"><ele>59.0</ele><time>2026-03-28T11:04:19Z</time></trkpt><trkpt lat="45.49452456496169" lon="11.431342496415732"><ele>59.0</ele><time>2026-03-28T11:04:20Z</time></trkpt><trkpt lat="45.494577766423554" lon="11.431248964012193"><ele>59.16666666666667</ele><time>2026-03-28T11:04:21Z</time></trkpt><trkpt lat="45.494660708255374" lon="11.431136751039356"><ele>59.333333333333336</ele><time>2026-03-28T11:04:23Z</time></trkpt><trkpt lat="45.49472255522355" lon="11.431086582037066"><ele>59.5</ele><time>2026-03-28T11:04:24Z</time></trkpt><trkpt lat="45.49479501742664" lon="11.431014721561208"><ele>59.66666666666667</ele><time>2026-03-28T11:04:25Z</time></trkpt><trkpt lat="45.49483896452935" lon="11.430936889613653"><ele>59.833333333333336</ele><time>2026-03-28T11:04:26Z</time></trkpt><trkpt lat="45.49485862292123" lon="11.43084784825071"><ele>60.0</ele><time>2026-03-28T11:04:27Z</time></trkpt><trkpt lat="45.49487042505689" lon="11.430755452004243"><ele>60.0</ele><time>2026-03-28T11:04:28Z</time></trkpt><trkpt lat="45.49489445809515" lon="11.430643520140537"><ele>60.0</ele><time>2026-03-28T11:04:29Z</time></trkpt><trkpt lat="45.4949425391528" lon="11.430504682659704"><ele>60.0</ele><time>2026-03-28T11:04:30Z</time></trkpt><trkpt lat="45.4950122514259" lon="11.430336462934507"><ele>60.0</ele><time>2026-03-28T11:04:31Z</time></trkpt><trkpt lat="45.4950958442414" lon="11.430140316382015"><ele>60.0</ele><time>2026-03-28T11:04:32Z</time></trkpt><trkpt lat="45.49517324551682" lon="11.429942232264722"><ele>60.0</ele><time>2026-03-28T11:04:33Z</time></trkpt><trkpt lat="45.49526381692979" lon="11.429715122035041"><ele>60.0</ele><time>2026-03-28T11:04:34Z</time></trkpt><trkpt lat="45.4953518506361" lon="11.429485501637275"><ele>59.66666666666667</ele><time>2026-03-28T11:04:35Z</time></trkpt><trkpt lat="45.495429361797" lon="11.42926663684931"><ele>59.333333333333336</ele><time>2026-03-28T11:04:36Z</time></trkpt><trkpt lat="45.49550211700488" lon="11.429057860360846"><ele>59.0</ele><time>2026-03-28T11:04:37Z</time></trkpt><trkpt lat="45.495586692816765" lon="11.42888372904813"><ele>59.25</ele><time>2026-03-28T11:04:38Z</time></trkpt><trkpt lat="45.49563653898204" lon="11.428697302274768"><ele>59.5</ele><time>2026-03-28T11:04:39Z</time></trkpt><trkpt lat="45.49569857686381" lon="11.42852121495028"><ele>59.75</ele><time>2026-03-28T11:04:40Z</time></trkpt><trkpt lat="45.495766141429236" lon="11.428337507465331"><ele>60.0</ele><time>2026-03-28T11:04:41Z</time></trkpt><trkpt lat="45.49582978528499" lon="11.42815757180264"><ele>60.0</ele><time>2026-03-28T11:04:42Z</time></trkpt><trkpt lat="45.49590131483748" lon="11.427973504238025"><ele>60.0</ele><time>2026-03-28T11:04:43Z</time></trkpt><trkpt lat="45.49597454895345" lon="11.427784591528505"><ele>60.0</ele><time>2026-03-28T11:04:44Z</time></trkpt><trkpt lat="45.49604557826318" lon="11.427585483603314"><ele>60.0</ele><time>2026-03-28T11:04:45Z</time></trkpt><trkpt lat="45.49611006721335" lon="11.427397895299151"><ele>60.0</ele><time>2026-03-28T11:04:46Z</time></trkpt><trkpt lat="45.496173065657686" lon="11.427212491166715"><ele>60.0</ele><time>2026-03-28T11:04:47Z</time></trkpt><trkpt lat="45.496242798698724" lon="11.42702136654869"><ele>60.0</ele><time>2026-03-28T11:04:48Z</time></trkpt><trkpt lat="45.49631145174894" lon="11.42682099432849"><ele>60.0</ele><time>2026-03-28T11:04:49Z</time></trkpt><trkpt lat="45.49638558097115" lon="11.426611688468695"><ele>60.0</ele><time>2026-03-28T11:04:50Z</time></trkpt><trkpt lat="45.49645507911053" lon="11.42641604243256"><ele>60.0</ele><time>2026-03-28T11:04:51Z</time></trkpt><trkpt lat="45.496532134631465" lon="11.426204374615681"><ele>60.0</ele><time>2026-03-28T11:04:52Z</time></trkpt><trkpt lat="45.49660441001896" lon="11.426001476876348"><ele>60.0</ele><time>2026-03-28T11:04:53Z</time></trkpt><trkpt lat="45.496672567256404" lon="11.425808702352166"><ele>60.0</ele><time>2026-03-28T11:04:54Z</time></trkpt><trkpt lat="45.49674404338569" lon="11.42560999373779"><ele>61.0</ele><time>2026-03-28T11:04:55Z</time></trkpt><trkpt lat="45.4968118013" lon="11.42540852657906"><ele>62.0</ele><time>2026-03-28T11:04:56Z</time></trkpt><trkpt lat="45.49687971960706" lon="11.425210951701038"><ele>63.0</ele><time>2026-03-28T11:04:57Z</time></trkpt><trkpt lat="45.496950517485224" lon="11.42501467158482"><ele>63.0</ele><time>2026-03-28T11:04:58Z</time></trkpt><trkpt lat="45.49702240326509" lon="11.424821061129332"><ele>63.0</ele><time>2026-03-28T11:04:59Z</time></trkpt><trkpt lat="45.4970921139146" lon="11.4246270595563"><ele>63.0</ele><time>2026-03-28T11:05:00Z</time></trkpt><trkpt lat="45.49716212953124" lon="11.42443177521765"><ele>63.0</ele><time>2026-03-28T11:05:01Z</time></trkpt><trkpt lat="45.497229916940825" lon="11.424237534562575"><ele>63.0</ele><time>2026-03-28T11:05:02Z</time></trkpt><trkpt lat="45.49730134974406" lon="11.42404262923825"><ele>63.0</ele><time>2026-03-28T11:05:03Z</time></trkpt><trkpt lat="45.497373847435775" lon="11.42384929987284"><ele>63.0</ele><time>2026-03-28T11:05:04Z</time></trkpt><trkpt lat="45.49743996289352" lon="11.423656877053675"><ele>63.0</ele><time>2026-03-28T11:05:05Z</time></trkpt><trkpt lat="45.49750634294585" lon="11.423474325744753"><ele>63.0</ele><time>2026-03-28T11:05:06Z</time></trkpt><trkpt lat="45.497566169313785" lon="11.423309245241866"><ele>63.0</ele><time>2026-03-28T11:05:07Z</time></trkpt><trkpt lat="45.497616955353514" lon="11.423147238297751"><ele>63.0</ele><time>2026-03-28T11:05:08Z</time></trkpt><trkpt lat="45.49767206974153" lon="11.422999762779533"><ele>63.0</ele><time>2026-03-28T11:05:09Z</time></trkpt><trkpt lat="45.49771976551795" lon="11.42285204811961"><ele>63.0</ele><time>2026-03-28T11:05:10Z</time></trkpt><trkpt lat="45.497773497048954" lon="11.422702820657127"><ele>63.0</ele><time>2026-03-28T11:05:11Z</time></trkpt><trkpt lat="45.49782189151614" lon="11.422560866530725"><ele>62.8</ele><time>2026-03-28T11:05:11.999Z</time></trkpt><trkpt lat="45.49787273966359" lon="11.422422957454849"><ele>62.599999999999994</ele><time>2026-03-28T11:05:12.999Z</time></trkpt><trkpt lat="45.49792288088626" lon="11.422289912444118"><ele>62.400000000000006</ele><time>2026-03-28T11:05:13.999Z</time></trkpt><trkpt lat="45.497968078461774" lon="11.422172560651633"><ele>62.2</ele><time>2026-03-28T11:05:14.999Z</time></trkpt><trkpt lat="45.498003374937774" lon="11.422065817594074"><ele>62.0</ele><time>2026-03-28T11:05:15.999Z</time></trkpt><trkpt lat="45.498046351910055" lon="11.421960649130371"><ele>62.00000000000001</ele><time>2026-03-28T11:05:17.999Z</time></trkpt><trkpt lat="45.49810976302746" lon="11.421885291349144"><ele>62.0</ele><time>2026-03-28T11:05:20.999Z</time></trkpt><trkpt lat="45.49816722463454" lon="11.421837265393737"><ele>62.0</ele><time>2026-03-28T11:05:21.999Z</time></trkpt><trkpt lat="45.4982569119726" lon="11.421719117406289"><ele>62.0</ele><time>2026-03-28T11:05:23.999Z</time></trkpt><trkpt lat="45.49828818353005" lon="11.42163620039255"><ele>62.00000000000001</ele><time>2026-03-28T11:05:24.999Z</time></trkpt><trkpt lat="45.498274048581735" lon="11.421519668452184"><ele>62.0</ele><time>2026-03-28T11:05:25.999Z</time></trkpt><trkpt lat="45.49828234094636" lon="11.421403729362254"><ele>62.16666666666667</ele><time>2026-03-28T11:05:26.999Z</time></trkpt><trkpt lat="45.49828923766141" lon="11.421290531243733"><ele>62.333333333333336</ele><time>2026-03-28T11:05:27.999Z</time></trkpt><trkpt lat="45.49830773152204" lon="11.42118282854896"><ele>62.5</ele><time>2026-03-28T11:05:28.999Z</time></trkpt><trkpt lat="45.49834389404563" lon="11.42107194745517"><ele>62.66666666666667</ele><time>2026-03-28T11:05:29.999Z</time></trkpt><trkpt lat="45.498387433882996" lon="11.42096395426754"><ele>62.833333333333336</ele><time>2026-03-28T11:05:30.999Z</time></trkpt><trkpt lat="45.49843619354204" lon="11.420843245176819"><ele>63.0</ele><time>2026-03-28T11:05:31.999Z</time></trkpt><trkpt lat="45.498487006915504" lon="11.420707281515064"><ele>63.0</ele><time>2026-03-28T11:05:32.999Z</time></trkpt><trkpt lat="45.49852949573297" lon="11.420563609338195"><ele>63.0</ele><time>2026-03-28T11:05:33.999Z</time></trkpt><trkpt lat="45.49858171331081" lon="11.420417260945777"><ele>63.0</ele><time>2026-03-28T11:05:34.999Z</time></trkpt><trkpt lat="45.498641717823844" lon="11.420268916437902"><ele>63.0</ele><time>2026-03-28T11:05:35.999Z</time></trkpt><trkpt lat="45.49869584424759" lon="11.420115114897781"><ele>63.25</ele><time>2026-03-28T11:05:36.999Z</time></trkpt><trkpt lat="45.49874581708315" lon="11.419955324920826"><ele>63.5</ele><time>2026-03-28T11:05:37.999Z</time></trkpt><trkpt lat="45.49880083525883" lon="11.419805592770661"><ele>63.75</ele><time>2026-03-28T11:05:38.999Z</time></trkpt><trkpt lat="45.49885431474422" lon="11.419662748011802"><ele>64.0</ele><time>2026-03-28T11:05:39.999Z</time></trkpt><trkpt lat="45.498897809741486" lon="11.419537111345"><ele>64.4</ele><time>2026-03-28T11:05:40.999Z</time></trkpt><trkpt lat="45.49894033394876" lon="11.419418864057784"><ele>64.80000000000001</ele><time>2026-03-28T11:05:41.999Z</time></trkpt><trkpt lat="45.49898144690726" lon="11.41929722354373"><ele>65.19999999999999</ele><time>2026-03-28T11:05:42.999Z</time></trkpt><trkpt lat="45.49902324763735" lon="11.419178612101582"><ele>65.6</ele><time>2026-03-28T11:05:43.999Z</time></trkpt><trkpt lat="45.499067881951234" lon="11.419066299667639"><ele>66.0</ele><time>2026-03-28T11:05:44.999Z</time></trkpt><trkpt lat="45.49910299625582" lon="11.41896531050974"><ele>66.0</ele><time>2026-03-28T11:05:45.999Z</time></trkpt><trkpt lat="45.499132626906736" lon="11.418877443298511"><ele>66.0</ele><time>2026-03-28T11:05:46.999Z</time></trkpt><trkpt lat="45.49915803088002" lon="11.418791052488567"><ele>66.0</ele><time>2026-03-28T11:05:47.999Z</time></trkpt><trkpt lat="45.499212352706586" lon="11.4186428332489"><ele>66.0</ele><time>2026-03-28T11:05:49.999Z</time></trkpt><trkpt lat="45.49926404859219" lon="11.418503955447589"><ele>66.0</ele><time>2026-03-28T11:05:51.999Z</time></trkpt><trkpt lat="45.49932753131965" lon="11.418368593426067"><ele>66.0</ele><time>2026-03-28T11:05:53.999Z</time></trkpt><trkpt lat="45.499407311678354" lon="11.418243541590465"><ele>66.0</ele><time>2026-03-28T11:05:55.999Z</time></trkpt><trkpt lat="45.49943581310267" lon="11.418157014765928"><ele>66.0</ele><time>2026-03-28T11:05:56.999Z</time></trkpt><trkpt lat="45.49945093380858" lon="11.418049995747939"><ele>66.0</ele><time>2026-03-28T11:05:57.999Z</time></trkpt><trkpt lat="45.49945889755767" lon="11.417932174128008"><ele>66.0</ele><time>2026-03-28T11:05:58.999Z</time></trkpt><trkpt lat="45.49949412822702" lon="11.417823463730883"><ele>66.0</ele><time>2026-03-28T11:05:59.999Z</time></trkpt><trkpt lat="45.49953239705028" lon="11.417721310402325"><ele>66.0</ele><time>2026-03-28T11:06:00.999Z</time></trkpt><trkpt lat="45.499572379212644" lon="11.417593445852672"><ele>66.0</ele><time>2026-03-28T11:06:01.999Z</time></trkpt><trkpt lat="45.49961674799252" lon="11.417471841747085"><ele>66.0</ele><time>2026-03-28T11:06:02.999Z</time></trkpt><trkpt lat="45.49966256339883" lon="11.417329820797628"><ele>66.0</ele><time>2026-03-28T11:06:03.999Z</time></trkpt><trkpt lat="45.499710544319626" lon="11.417194940560439"><ele>66.0</ele><time>2026-03-28T11:06:04.999Z</time></trkpt><trkpt lat="45.499758790488976" lon="11.417060332235756"><ele>66.0</ele><time>2026-03-28T11:06:05.999Z</time></trkpt><trkpt lat="45.499810309022926" lon="11.416926197486164"><ele>66.0</ele><time>2026-03-28T11:06:06.999Z</time></trkpt><trkpt lat="45.49985567699042" lon="11.416803132516446"><ele>66.0</ele><time>2026-03-28T11:06:07.999Z</time></trkpt><trkpt lat="45.49990528325664" lon="11.416679481815335"><ele>66.0</ele><time>2026-03-28T11:06:08.999Z</time></trkpt><trkpt lat="45.49995033263683" lon="11.416535338859859"><ele>66.0</ele><time>2026-03-28T11:06:09.999Z</time></trkpt><trkpt lat="45.50000104530798" lon="11.416378287917096"><ele>66.39999999999999</ele><time>2026-03-28T11:06:10.999Z</time></trkpt><trkpt lat="45.50005969460526" lon="11.416245172382688"><ele>66.8</ele><time>2026-03-28T11:06:11.999Z</time></trkpt><trkpt lat="45.500098805332875" lon="11.416123954777149"><ele>67.19999999999999</ele><time>2026-03-28T11:06:12.999Z</time></trkpt><trkpt lat="45.50014199593734" lon="11.416006917868364"><ele>67.6</ele><time>2026-03-28T11:06:13.999Z</time></trkpt><trkpt lat="45.50018682032502" lon="11.415885030550728"><ele>68.0</ele><time>2026-03-28T11:06:14.999Z</time></trkpt><trkpt lat="45.50022878151855" lon="11.415765989142367"><ele>68.0</ele><time>2026-03-28T11:06:15.999Z</time></trkpt><trkpt lat="45.500274343692745" lon="11.415633667235063"><ele>68.0</ele><time>2026-03-28T11:06:16.999Z</time></trkpt><trkpt lat="45.50032125144345" lon="11.415501361993028"><ele>68.0</ele><time>2026-03-28T11:06:18Z</time></trkpt><trkpt lat="45.50036999840978" lon="11.41536773107284"><ele>68.0</ele><time>2026-03-28T11:06:19Z</time></trkpt><trkpt lat="45.50041812033255" lon="11.415230381219823"><ele>68.0</ele><time>2026-03-28T11:06:20Z</time></trkpt><trkpt lat="45.50046539382443" lon="11.415102701594147"><ele>67.8</ele><time>2026-03-28T11:06:21Z</time></trkpt><trkpt lat="45.50051034930115" lon="11.414981875765186"><ele>67.6</ele><time>2026-03-28T11:06:22Z</time></trkpt><trkpt lat="45.50056006395135" lon="11.414853459654761"><ele>67.4</ele><time>2026-03-28T11:06:23Z</time></trkpt><trkpt lat="45.50060397414467" lon="11.414727162837531"><ele>67.2</ele><time>2026-03-28T11:06:24Z</time></trkpt><trkpt lat="45.50064736784601" lon="11.414603035327923"><ele>67.0</ele><time>2026-03-28T11:06:25Z</time></trkpt><trkpt lat="45.50070066052154" lon="11.414467361040726"><ele>67.0</ele><time>2026-03-28T11:06:26Z</time></trkpt><trkpt lat="45.50075037023404" lon="11.414327837404608"><ele>67.0</ele><time>2026-03-28T11:06:27Z</time></trkpt><trkpt lat="45.50080171000904" lon="11.414172815058219"><ele>67.0</ele><time>2026-03-28T11:06:28Z</time></trkpt><trkpt lat="45.500856147994" lon="11.414013723741855"><ele>67.0</ele><time>2026-03-28T11:06:29Z</time></trkpt><trkpt lat="45.50091471563986" lon="11.413859627266204"><ele>67.25</ele><time>2026-03-28T11:06:30Z</time></trkpt><trkpt lat="45.50096786832808" lon="11.4137060795507"><ele>67.5</ele><time>2026-03-28T11:06:31Z</time></trkpt><trkpt lat="45.501022845161046" lon="11.413556848039985"><ele>67.75</ele><time>2026-03-28T11:06:32Z</time></trkpt><trkpt lat="45.5010777619566" lon="11.413396003372958"><ele>68.0</ele><time>2026-03-28T11:06:33Z</time></trkpt><trkpt lat="45.50113328498141" lon="11.41324468154139"><ele>68.0</ele><time>2026-03-28T11:06:34Z</time></trkpt><trkpt lat="45.50118717269595" lon="11.41309944776211"><ele>68.0</ele><time>2026-03-28T11:06:35Z</time></trkpt><trkpt lat="45.50123697341197" lon="11.41295999254042"><ele>68.0</ele><time>2026-03-28T11:06:36Z</time></trkpt><trkpt lat="45.501287432339176" lon="11.41281746324436"><ele>68.0</ele><time>2026-03-28T11:06:37Z</time></trkpt><trkpt lat="45.50133264179387" lon="11.41267602783586"><ele>68.0</ele><time>2026-03-28T11:06:38Z</time></trkpt><trkpt lat="45.50138382638631" lon="11.412541063396628"><ele>68.2</ele><time>2026-03-28T11:06:39Z</time></trkpt><trkpt lat="45.50143248508584" lon="11.412397903424173"><ele>68.4</ele><time>2026-03-28T11:06:40Z</time></trkpt><trkpt lat="45.50148350723168" lon="11.412245616253852"><ele>68.60000000000001</ele><time>2026-03-28T11:06:41Z</time></trkpt><trkpt lat="45.501530570355904" lon="11.412106357104745"><ele>68.8</ele><time>2026-03-28T11:06:42Z</time></trkpt><trkpt lat="45.50158397862777" lon="11.411988534541694"><ele>69.0</ele><time>2026-03-28T11:06:43Z</time></trkpt><trkpt lat="45.50162990782894" lon="11.411887678632802"><ele>69.0</ele><time>2026-03-28T11:06:44Z</time></trkpt><trkpt lat="45.50166061805284" lon="11.411807891733163"><ele>69.0</ele><time>2026-03-28T11:06:45Z</time></trkpt><trkpt lat="45.50169012127603" lon="11.411713087828405"><ele>69.0</ele><time>2026-03-28T11:06:46Z</time></trkpt><trkpt lat="45.501724209952165" lon="11.411587305694216"><ele>69.0</ele><time>2026-03-28T11:06:47Z</time></trkpt><trkpt lat="45.5017656078798" lon="11.41145160755351"><ele>69.0</ele><time>2026-03-28T11:06:48Z</time></trkpt><trkpt lat="45.50181501455924" lon="11.411322712988492"><ele>69.0</ele><time>2026-03-28T11:06:49Z</time></trkpt><trkpt lat="45.501870261028294" lon="11.411209789035295"><ele>69.0</ele><time>2026-03-28T11:06:50Z</time></trkpt><trkpt lat="45.50192368198972" lon="11.411116221566184"><ele>69.0</ele><time>2026-03-28T11:06:51Z</time></trkpt><trkpt lat="45.50197835273579" lon="11.411028813851914"><ele>69.0</ele><time>2026-03-28T11:06:52Z</time></trkpt><trkpt lat="45.50202269388763" lon="11.410961077018161"><ele>69.0</ele><time>2026-03-28T11:06:53Z</time></trkpt><trkpt lat="45.5020846102999" lon="11.410878882526307"><ele>69.0</ele><time>2026-03-28T11:06:55Z</time></trkpt><trkpt lat="45.502169263808696" lon="11.410763031149607"><ele>69.0</ele><time>2026-03-28T11:06:58Z</time></trkpt><trkpt lat="45.50222615156496" lon="11.410694843428862"><ele>69.0</ele><time>2026-03-28T11:06:59Z</time></trkpt><trkpt lat="45.502273329778475" lon="11.410616128173334"><ele>69.0</ele><time>2026-03-28T11:07:00Z</time></trkpt><trkpt lat="45.50230438559939" lon="11.410519460867585"><ele>69.0</ele><time>2026-03-28T11:07:01Z</time></trkpt><trkpt lat="45.502335015539764" lon="11.410423180797208"><ele>69.0</ele><time>2026-03-28T11:07:02Z</time></trkpt><trkpt lat="45.502304321376684" lon="11.410306925953458"><ele>69.0</ele><time>2026-03-28T11:07:03Z</time></trkpt><trkpt lat="45.502281055471805" lon="11.410201362467687"><ele>69.0</ele><time>2026-03-28T11:07:04Z</time></trkpt><trkpt lat="45.502270998181814" lon="11.410094125379707"><ele>69.0</ele><time>2026-03-28T11:07:05Z</time></trkpt><trkpt lat="45.502298303076955" lon="11.409968451049357"><ele>69.0</ele><time>2026-03-28T11:07:06Z</time></trkpt><trkpt lat="45.502347978520156" lon="11.409845152784476"><ele>69.0</ele><time>2026-03-28T11:07:07Z</time></trkpt><trkpt lat="45.50241323899194" lon="11.409721053376362"><ele>69.0</ele><time>2026-03-28T11:07:08Z</time></trkpt><trkpt lat="45.5024723341328" lon="11.409589421834088"><ele>69.0</ele><time>2026-03-28T11:07:09Z</time></trkpt><trkpt lat="45.50253865060178" lon="11.409456413378747"><ele>69.25</ele><time>2026-03-28T11:07:10Z</time></trkpt><trkpt lat="45.502605864551406" lon="11.40931784407552"><ele>69.5</ele><time>2026-03-28T11:07:11Z</time></trkpt><trkpt lat="45.50268150610091" lon="11.40917241510563"><ele>69.75</ele><time>2026-03-28T11:07:12Z</time></trkpt><trkpt lat="45.50275096550102" lon="11.409028571337833"><ele>70.0</ele><time>2026-03-28T11:07:13Z</time></trkpt><trkpt lat="45.502824952916484" lon="11.408883612806346"><ele>69.75</ele><time>2026-03-28T11:07:14Z</time></trkpt><trkpt lat="45.502909029949485" lon="11.408726697174284"><ele>69.5</ele><time>2026-03-28T11:07:15Z</time></trkpt><trkpt lat="45.502996089193765" lon="11.408574855866233"><ele>69.25</ele><time>2026-03-28T11:07:16Z</time></trkpt><trkpt lat="45.503085427685455" lon="11.408416767301874"><ele>69.0</ele><time>2026-03-28T11:07:17Z</time></trkpt><trkpt lat="45.50317186734451" lon="11.408255875103329"><ele>69.25</ele><time>2026-03-28T11:07:18Z</time></trkpt><trkpt lat="45.50326377864291" lon="11.408085881364672"><ele>69.5</ele><time>2026-03-28T11:07:19Z</time></trkpt><trkpt lat="45.503353571235515" lon="11.407918813021599"><ele>69.75</ele><time>2026-03-28T11:07:20Z</time></trkpt><trkpt lat="45.50344742782085" lon="11.407751284033225"><ele>70.0</ele><time>2026-03-28T11:07:21Z</time></trkpt><trkpt lat="45.50353725806427" lon="11.40758959454404"><ele>70.0</ele><time>2026-03-28T11:07:22Z</time></trkpt><trkpt lat="45.503626360758716" lon="11.40743202477744"><ele>70.0</ele><time>2026-03-28T11:07:23Z</time></trkpt><trkpt lat="45.50371095487717" lon="11.407293135186142"><ele>70.0</ele><time>2026-03-28T11:07:24Z</time></trkpt><trkpt lat="45.503785737004236" lon="11.407163898523025"><ele>70.0</ele><time>2026-03-28T11:07:25Z</time></trkpt><trkpt lat="45.50385344513893" lon="11.407046257103465"><ele>70.2</ele><time>2026-03-28T11:07:26Z</time></trkpt><trkpt lat="45.50392051130242" lon="11.40693160774921"><ele>70.4</ele><time>2026-03-28T11:07:27Z</time></trkpt><trkpt lat="45.503987319076536" lon="11.406814082838018"><ele>70.6</ele><time>2026-03-28T11:07:28Z</time></trkpt><trkpt lat="45.504053479746645" lon="11.406684629352377"><ele>70.8</ele><time>2026-03-28T11:07:29Z</time></trkpt><trkpt lat="45.504126232632174" lon="11.406547046854397"><ele>71.0</ele><time>2026-03-28T11:07:30Z</time></trkpt><trkpt lat="45.50420565508166" lon="11.40639994768666"><ele>71.2</ele><time>2026-03-28T11:07:31Z</time></trkpt><trkpt lat="45.50428693629906" lon="11.40625480301249"><ele>71.39999999999999</ele><time>2026-03-28T11:07:31.999Z</time></trkpt><trkpt lat="45.50435945642431" lon="11.40612523692472"><ele>71.6</ele><time>2026-03-28T11:07:32.999Z</time></trkpt><trkpt lat="45.50442242232986" lon="11.406010466668407"><ele>71.8</ele><time>2026-03-28T11:07:33.999Z</time></trkpt><trkpt lat="45.504473204986084" lon="11.405923319385854"><ele>72.0</ele><time>2026-03-28T11:07:34.999Z</time></trkpt><trkpt lat="45.50452727272232" lon="11.40582123391409"><ele>72.0</ele><time>2026-03-28T11:07:36.999Z</time></trkpt><trkpt lat="45.504566799429206" lon="11.405750167172465"><ele>72.0</ele><time>2026-03-28T11:07:48.999Z</time></trkpt><trkpt lat="45.504633383447654" lon="11.405628013864"><ele>72.0</ele><time>2026-03-28T11:08:07.999Z</time></trkpt><trkpt lat="45.5046980892102" lon="11.405529893497885"><ele>72.0</ele><time>2026-03-28T11:08:08.999Z</time></trkpt><trkpt lat="45.50476318761164" lon="11.40540795936862"><ele>72.0</ele><time>2026-03-28T11:08:09.999Z</time></trkpt><trkpt lat="45.50484065352083" lon="11.40527500552672"><ele>72.0</ele><time>2026-03-28T11:08:10.999Z</time></trkpt><trkpt lat="45.50489860722295" lon="11.405145690298818"><ele>72.0</ele><time>2026-03-28T11:08:11.999Z</time></trkpt><trkpt lat="45.50495629317544" lon="11.404972867587821"><ele>72.0</ele><time>2026-03-28T11:08:12.999Z</time></trkpt><trkpt lat="45.5050345794088" lon="11.404793887353136"><ele>72.0</ele><time>2026-03-28T11:08:13.999Z</time></trkpt><trkpt lat="45.50509532840347" lon="11.40458320226538"><ele>72.66666666666667</ele><time>2026-03-28T11:08:14.999Z</time></trkpt><trkpt lat="45.50518390729022" lon="11.40435534422808"><ele>73.33333333333334</ele><time>2026-03-28T11:08:15.999Z</time></trkpt><trkpt lat="45.505263937831366" lon="11.404126003492433"><ele>74.0</ele><time>2026-03-28T11:08:16.999Z</time></trkpt><trkpt lat="45.50535554799522" lon="11.40388364239339"><ele>73.66666666666667</ele><time>2026-03-28T11:08:17.999Z</time></trkpt><trkpt lat="45.50545344871238" lon="11.403629404553667"><ele>73.33333333333333</ele><time>2026-03-28T11:08:18.999Z</time></trkpt><trkpt lat="45.50554584038392" lon="11.403361391039619"><ele>73.0</ele><time>2026-03-28T11:08:19.999Z</time></trkpt><trkpt lat="45.50563670652638" lon="11.403103604166478"><ele>73.66666666666666</ele><time>2026-03-28T11:08:20.999Z</time></trkpt><trkpt lat="45.50572813856454" lon="11.402837809684028"><ele>74.33333333333333</ele><time>2026-03-28T11:08:21.999Z</time></trkpt><trkpt lat="45.50582605025473" lon="11.40256741476602"><ele>75.0</ele><time>2026-03-28T11:08:22.999Z</time></trkpt><trkpt lat="45.50591771761737" lon="11.402307243154782"><ele>74.66666666666667</ele><time>2026-03-28T11:08:24Z</time></trkpt><trkpt lat="45.506005463298735" lon="11.402061027197192"><ele>74.33333333333334</ele><time>2026-03-28T11:08:25Z</time></trkpt><trkpt lat="45.50608920652065" lon="11.401829070213655"><ele>74.0</ele><time>2026-03-28T11:08:26Z</time></trkpt><trkpt lat="45.506173244528505" lon="11.401599457441156"><ele>74.33333333333334</ele><time>2026-03-28T11:08:27Z</time></trkpt><trkpt lat="45.50625458941619" lon="11.40136860278439"><ele>74.66666666666667</ele><time>2026-03-28T11:08:28Z</time></trkpt><trkpt lat="45.50633261094314" lon="11.401146269409448"><ele>75.0</ele><time>2026-03-28T11:08:29Z</time></trkpt><trkpt lat="45.506416798319975" lon="11.400924171216639"><ele>75.0</ele><time>2026-03-28T11:08:30Z</time></trkpt><trkpt lat="45.506504400114224" lon="11.400707914383847"><ele>75.0</ele><time>2026-03-28T11:08:31Z</time></trkpt><trkpt lat="45.506596135370245" lon="11.400509268034988"><ele>75.0</ele><time>2026-03-28T11:08:32Z</time></trkpt><trkpt lat="45.506701555116095" lon="11.400316709680204"><ele>74.66666666666667</ele><time>2026-03-28T11:08:33Z</time></trkpt><trkpt lat="45.50681356649145" lon="11.400139841560488"><ele>74.33333333333334</ele><time>2026-03-28T11:08:34Z</time></trkpt><trkpt lat="45.50692081529476" lon="11.39999966555774"><ele>74.0</ele><time>2026-03-28T11:08:35Z</time></trkpt><trkpt lat="45.50702399025783" lon="11.399868602684124"><ele>74.5</ele><time>2026-03-28T11:08:36Z</time></trkpt><trkpt lat="45.50711085169629" lon="11.399736878566982"><ele>75.0</ele><time>2026-03-28T11:08:37Z</time></trkpt><trkpt lat="45.50719434612444" lon="11.399607389523755"><ele>75.5</ele><time>2026-03-28T11:08:38Z</time></trkpt><trkpt lat="45.50729371918503" lon="11.399477607448349"><ele>76.0</ele><time>2026-03-28T11:08:39Z</time></trkpt><trkpt lat="45.50740687573346" lon="11.39933854611753"><ele>76.0</ele><time>2026-03-28T11:08:40Z</time></trkpt><trkpt lat="45.50753036574618" lon="11.39919391924762"><ele>76.0</ele><time>2026-03-28T11:08:41Z</time></trkpt><trkpt lat="45.507647616905416" lon="11.399061806514924"><ele>76.0</ele><time>2026-03-28T11:08:42Z</time></trkpt><trkpt lat="45.507766392489636" lon="11.398914020508645"><ele>76.0</ele><time>2026-03-28T11:08:43Z</time></trkpt><trkpt lat="45.507874882637154" lon="11.398764247017072"><ele>76.0</ele><time>2026-03-28T11:08:44Z</time></trkpt><trkpt lat="45.50797914885621" lon="11.39861761651337"><ele>76.0</ele><time>2026-03-28T11:08:45Z</time></trkpt><trkpt lat="45.5080884828349" lon="11.39847698831356"><ele>76.0</ele><time>2026-03-28T11:08:46Z</time></trkpt><trkpt lat="45.508193410668945" lon="11.398338528730422"><ele>76.25</ele><time>2026-03-28T11:08:47Z</time></trkpt><trkpt lat="45.50829319094116" lon="11.39820659398183"><ele>76.5</ele><time>2026-03-28T11:08:48Z</time></trkpt><trkpt lat="45.50839150004157" lon="11.398073246352306"><ele>76.75</ele><time>2026-03-28T11:08:49Z</time></trkpt><trkpt lat="45.508477256105316" lon="11.397955636674665"><ele>77.0</ele><time>2026-03-28T11:08:50Z</time></trkpt><trkpt lat="45.50855668084316" lon="11.3978487150915"><ele>77.2</ele><time>2026-03-28T11:08:51Z</time></trkpt><trkpt lat="45.50863530459866" lon="11.397740783644936"><ele>77.4</ele><time>2026-03-28T11:08:52Z</time></trkpt><trkpt lat="45.508709752885814" lon="11.39764471728496"><ele>77.6</ele><time>2026-03-28T11:08:53Z</time></trkpt><trkpt lat="45.50878211748425" lon="11.397561992262904"><ele>77.8</ele><time>2026-03-28T11:08:54Z</time></trkpt><trkpt lat="45.50886218925693" lon="11.397501428958474"><ele>78.0</ele><time>2026-03-28T11:08:55Z</time></trkpt><trkpt lat="45.50893660161441" lon="11.39743802124032"><ele>78.0</ele><time>2026-03-28T11:08:56Z</time></trkpt><trkpt lat="45.508990868316296" lon="11.397351199363111"><ele>78.0</ele><time>2026-03-28T11:08:57Z</time></trkpt><trkpt lat="45.50904084431001" lon="11.39723984837334"><ele>78.0</ele><time>2026-03-28T11:08:58Z</time></trkpt><trkpt lat="45.509110801906424" lon="11.397118939269554"><ele>78.0</ele><time>2026-03-28T11:08:59Z</time></trkpt><trkpt lat="45.509207626364685" lon="11.396989643571303"><ele>78.0</ele><time>2026-03-28T11:09:00Z</time></trkpt><trkpt lat="45.50929660504927" lon="11.396876546428327"><ele>78.0</ele><time>2026-03-28T11:09:01Z</time></trkpt><trkpt lat="45.50937804945645" lon="11.39676800966115"><ele>78.0</ele><time>2026-03-28T11:09:02Z</time></trkpt><trkpt lat="45.5094503798546" lon="11.396664895933872"><ele>78.0</ele><time>2026-03-28T11:09:03Z</time></trkpt><trkpt lat="45.50952071728424" lon="11.396565956673628"><ele>78.0</ele><time>2026-03-28T11:09:04Z</time></trkpt><trkpt lat="45.50958943530742" lon="11.396474129957742"><ele>78.0</ele><time>2026-03-28T11:09:05Z</time></trkpt><trkpt lat="45.50966365526246" lon="11.396378863461468"><ele>77.8</ele><time>2026-03-28T11:09:06Z</time></trkpt><trkpt lat="45.50974357043618" lon="11.396273368137829"><ele>77.6</ele><time>2026-03-28T11:09:07Z</time></trkpt><trkpt lat="45.50982628951364" lon="11.396159129350924"><ele>77.4</ele><time>2026-03-28T11:09:08Z</time></trkpt><trkpt lat="45.509906197633065" lon="11.39604732410128"><ele>77.2</ele><time>2026-03-28T11:09:09Z</time></trkpt><trkpt lat="45.50998720044985" lon="11.39594420214478"><ele>77.0</ele><time>2026-03-28T11:09:10Z</time></trkpt><trkpt lat="45.510066281510575" lon="11.395850851311005"><ele>77.0</ele><time>2026-03-28T11:09:11Z</time></trkpt><trkpt lat="45.51013696817921" lon="11.395753564468677"><ele>77.0</ele><time>2026-03-28T11:09:12Z</time></trkpt><trkpt lat="45.510205748267055" lon="11.395659065501231"><ele>77.0</ele><time>2026-03-28T11:09:13Z</time></trkpt><trkpt lat="45.510280653472016" lon="11.395564368915313"><ele>77.0</ele><time>2026-03-28T11:09:14Z</time></trkpt><trkpt lat="45.510359485713096" lon="11.395463390816634"><ele>77.0</ele><time>2026-03-28T11:09:15Z</time></trkpt><trkpt lat="45.51044112794772" lon="11.39535369845723"><ele>77.75</ele><time>2026-03-28T11:09:16Z</time></trkpt><trkpt lat="45.51052580910885" lon="11.395236165073042"><ele>78.5</ele><time>2026-03-28T11:09:17Z</time></trkpt><trkpt lat="45.510610794896124" lon="11.395106303390985"><ele>79.25</ele><time>2026-03-28T11:09:18Z</time></trkpt><trkpt lat="45.510698748053976" lon="11.394973246044378"><ele>80.0</ele><time>2026-03-28T11:09:19Z</time></trkpt><trkpt lat="45.51077917058019" lon="11.394850664106587"><ele>80.0</ele><time>2026-03-28T11:09:20Z</time></trkpt><trkpt lat="45.510853100680244" lon="11.39475874868965"><ele>80.0</ele><time>2026-03-28T11:09:21Z</time></trkpt><trkpt lat="45.51093876247122" lon="11.394709081879803"><ele>80.0</ele><time>2026-03-28T11:09:22Z</time></trkpt><trkpt lat="45.51086307667795" lon="11.394445995982911"><ele>80.0</ele><time>2026-03-28T11:09:23Z</time></trkpt><trkpt lat="45.51082483204874" lon="11.394259779581288"><ele>80.0</ele><time>2026-03-28T11:09:24Z</time></trkpt><trkpt lat="45.510771928015615" lon="11.39405881156812"><ele>80.0</ele><time>2026-03-28T11:09:25Z</time></trkpt><trkpt lat="45.510722377722" lon="11.393838131051517"><ele>80.0</ele><time>2026-03-28T11:09:26Z</time></trkpt><trkpt lat="45.51067614034318" lon="11.393590306848406"><ele>80.0</ele><time>2026-03-28T11:09:27Z</time></trkpt><trkpt lat="45.51063247594511" lon="11.393350849525488"><ele>80.0</ele><time>2026-03-28T11:09:28Z</time></trkpt><trkpt lat="45.51059631549705" lon="11.393126041918801"><ele>80.0</ele><time>2026-03-28T11:09:29Z</time></trkpt><trkpt lat="45.51056038947695" lon="11.392900262780206"><ele>80.0</ele><time>2026-03-28T11:09:30Z</time></trkpt><trkpt lat="45.51051891782189" lon="11.392674940068208"><ele>80.0</ele><time>2026-03-28T11:09:31Z</time></trkpt><trkpt lat="45.51047201546986" lon="11.392448096780626"><ele>80.0</ele><time>2026-03-28T11:09:32Z</time></trkpt><trkpt lat="45.510403398830114" lon="11.392186664794567"><ele>79.66666666666667</ele><time>2026-03-28T11:09:33Z</time></trkpt><trkpt lat="45.510343610203115" lon="11.39189392073864"><ele>79.33333333333333</ele><time>2026-03-28T11:09:34Z</time></trkpt><trkpt lat="45.510287666294495" lon="11.39161552816033"><ele>79.0</ele><time>2026-03-28T11:09:35Z</time></trkpt><trkpt lat="45.51023056379774" lon="11.39131554305891"><ele>79.0</ele><time>2026-03-28T11:09:36Z</time></trkpt><trkpt lat="45.510177919422176" lon="11.391056422883457"><ele>79.0</ele><time>2026-03-28T11:09:37Z</time></trkpt><trkpt lat="45.51013090264434" lon="11.390834541246665"><ele>79.0</ele><time>2026-03-28T11:09:38Z</time></trkpt><trkpt lat="45.51009219255532" lon="11.390634251640881"><ele>78.4</ele><time>2026-03-28T11:09:39Z</time></trkpt><trkpt lat="45.51005485622044" lon="11.390436328049983"><ele>77.80000000000001</ele><time>2026-03-28T11:09:40Z</time></trkpt><trkpt lat="45.51003247147621" lon="11.39026438287505"><ele>77.19999999999999</ele><time>2026-03-28T11:09:41Z</time></trkpt><trkpt lat="45.510014000051775" lon="11.390125560702867"><ele>76.6</ele><time>2026-03-28T11:09:42Z</time></trkpt><trkpt lat="45.510006216665836" lon="11.390015524025484"><ele>76.0</ele><time>2026-03-28T11:09:43Z</time></trkpt><trkpt lat="45.51001635713658" lon="11.389868369769575"><ele>76.0</ele><time>2026-03-28T11:09:45Z</time></trkpt><trkpt lat="45.51004160919676" lon="11.389768343540636"><ele>76.0</ele><time>2026-03-28T11:09:47Z</time></trkpt><trkpt lat="45.51011232518227" lon="11.38959747401041"><ele>76.0</ele><time>2026-03-28T11:09:49Z</time></trkpt><trkpt lat="45.51017938300366" lon="11.389480939115204"><ele>76.0</ele><time>2026-03-28T11:09:50Z</time></trkpt><trkpt lat="45.510253917028415" lon="11.389359040899462"><ele>76.0</ele><time>2026-03-28T11:09:51Z</time></trkpt><trkpt lat="45.51032863916579" lon="11.38921115027043"><ele>76.0</ele><time>2026-03-28T11:09:52Z</time></trkpt><trkpt lat="45.510381594942416" lon="11.38904561529287"><ele>76.0</ele><time>2026-03-28T11:09:53Z</time></trkpt><trkpt lat="45.51041136449366" lon="11.388866110667898"><ele>76.0</ele><time>2026-03-28T11:09:54Z</time></trkpt><trkpt lat="45.51042372902324" lon="11.388681184734692"><ele>76.0</ele><time>2026-03-28T11:09:55Z</time></trkpt><trkpt lat="45.51041454831063" lon="11.388488516800601"><ele>76.75</ele><time>2026-03-28T11:09:56Z</time></trkpt><trkpt lat="45.51037651286945" lon="11.388300451574564"><ele>77.5</ele><time>2026-03-28T11:09:57Z</time></trkpt><trkpt lat="45.51031113750965" lon="11.388114801565607"><ele>78.25</ele><time>2026-03-28T11:09:58Z</time></trkpt><trkpt lat="45.510228554410574" lon="11.387970204944798"><ele>79.0</ele><time>2026-03-28T11:09:59Z</time></trkpt><trkpt lat="45.51012862305846" lon="11.387851264355987"><ele>79.5</ele><time>2026-03-28T11:10:00Z</time></trkpt><trkpt lat="45.510012221551115" lon="11.38777265449466"><ele>80.0</ele><time>2026-03-28T11:10:01Z</time></trkpt><trkpt lat="45.50990778453411" lon="11.38769390426863"><ele>80.5</ele><time>2026-03-28T11:10:02Z</time></trkpt><trkpt lat="45.5098005784875" lon="11.387659838536969"><ele>81.0</ele><time>2026-03-28T11:10:03Z</time></trkpt><trkpt lat="45.50970023083309" lon="11.387665738825088"><ele>81.0</ele><time>2026-03-28T11:10:04Z</time></trkpt><trkpt lat="45.50961895215596" lon="11.387595077125926"><ele>81.0</ele><time>2026-03-28T11:10:05Z</time></trkpt><trkpt lat="45.509551724963806" lon="11.387527978087885"><ele>81.0</ele><time>2026-03-28T11:10:06Z</time></trkpt><trkpt lat="45.50949569755364" lon="11.387437093709572"><ele>81.0</ele><time>2026-03-28T11:10:07Z</time></trkpt><trkpt lat="45.50944575465838" lon="11.387318801919875"><ele>81.0</ele><time>2026-03-28T11:10:07.999Z</time></trkpt><trkpt lat="45.509408100695644" lon="11.38718606039322"><ele>80.6</ele><time>2026-03-28T11:10:08.999Z</time></trkpt><trkpt lat="45.5093860160369" lon="11.387045388866778"><ele>80.19999999999999</ele><time>2026-03-28T11:10:09.999Z</time></trkpt><trkpt lat="45.5093826338208" lon="11.38689646283519"><ele>79.80000000000001</ele><time>2026-03-28T11:10:10.999Z</time></trkpt><trkpt lat="45.509387775196245" lon="11.386743106158741"><ele>79.4</ele><time>2026-03-28T11:10:11.999Z</time></trkpt><trkpt lat="45.50939463561165" lon="11.386594202389551"><ele>79.0</ele><time>2026-03-28T11:10:12.999Z</time></trkpt><trkpt lat="45.50940154908642" lon="11.386449269800242"><ele>79.4</ele><time>2026-03-28T11:10:13.999Z</time></trkpt><trkpt lat="45.50941517696389" lon="11.386303835867475"><ele>79.80000000000001</ele><time>2026-03-28T11:10:14.999Z</time></trkpt><trkpt lat="45.50943538892971" lon="11.386152906842554"><ele>80.19999999999999</ele><time>2026-03-28T11:10:15.999Z</time></trkpt><trkpt lat="45.509460766555605" lon="11.385998321958345"><ele>80.6</ele><time>2026-03-28T11:10:16.999Z</time></trkpt><trkpt lat="45.50948608499908" lon="11.385849934027656"><ele>81.0</ele><time>2026-03-28T11:10:17.999Z</time></trkpt><trkpt lat="45.50951072904935" lon="11.38570681164793"><ele>81.0</ele><time>2026-03-28T11:10:18.999Z</time></trkpt><trkpt lat="45.50953574594658" lon="11.385566553311241"><ele>81.0</ele><time>2026-03-28T11:10:19.999Z</time></trkpt><trkpt lat="45.50956507445001" lon="11.385430523219274"><ele>81.0</ele><time>2026-03-28T11:10:20.999Z</time></trkpt><trkpt lat="45.50959595766452" lon="11.385297224713591"><ele>81.0</ele><time>2026-03-28T11:10:21.999Z</time></trkpt><trkpt lat="45.50962505073986" lon="11.385164180392497"><ele>81.0</ele><time>2026-03-28T11:10:22.999Z</time></trkpt><trkpt lat="45.50965480378412" lon="11.385032366849424"><ele>81.0</ele><time>2026-03-28T11:10:23.999Z</time></trkpt><trkpt lat="45.50968383505698" lon="11.38489146500198"><ele>81.0</ele><time>2026-03-28T11:10:24.999Z</time></trkpt><trkpt lat="45.509713123747915" lon="11.384741007697134"><ele>81.0</ele><time>2026-03-28T11:10:25.999Z</time></trkpt><trkpt lat="45.5097451265004" lon="11.384576715909999"><ele>81.0</ele><time>2026-03-28T11:10:26.999Z</time></trkpt><trkpt lat="45.50977972877202" lon="11.384405367134205"><ele>80.5</ele><time>2026-03-28T11:10:27.999Z</time></trkpt><trkpt lat="45.50982015898551" lon="11.384241176662883"><ele>80.0</ele><time>2026-03-28T11:10:28.999Z</time></trkpt><trkpt lat="45.50986196774707" lon="11.3840765073511"><ele>79.5</ele><time>2026-03-28T11:10:30Z</time></trkpt><trkpt lat="45.50989897247311" lon="11.383911732953187"><ele>79.0</ele><time>2026-03-28T11:10:31Z</time></trkpt><trkpt lat="45.50993280655065" lon="11.38374840364925"><ele>78.83333333333333</ele><time>2026-03-28T11:10:32Z</time></trkpt><trkpt lat="45.509964688773294" lon="11.383602035902209"><ele>78.66666666666666</ele><time>2026-03-28T11:10:33Z</time></trkpt><trkpt lat="45.509992723761194" lon="11.383468585081841"><ele>78.5</ele><time>2026-03-28T11:10:34Z</time></trkpt><trkpt lat="45.51001570913704" lon="11.383349991240895"><ele>78.33333333333333</ele><time>2026-03-28T11:10:35Z</time></trkpt><trkpt lat="45.51004515427845" lon="11.383246877261668"><ele>78.16666666666667</ele><time>2026-03-28T11:10:36Z</time></trkpt><trkpt lat="45.51008435999842" lon="11.383169029879038"><ele>78.0</ele><time>2026-03-28T11:10:37Z</time></trkpt><trkpt lat="45.51016171290533" lon="11.38305697962519"><ele>78.5</ele><time>2026-03-28T11:10:39Z</time></trkpt><trkpt lat="45.51017771810839" lon="11.382932709082366"><ele>79.0</ele><time>2026-03-28T11:10:41Z</time></trkpt><trkpt lat="45.51019225773487" lon="11.382837265497738"><ele>79.5</ele><time>2026-03-28T11:10:43Z</time></trkpt><trkpt lat="45.510177718459374" lon="11.382738127566082"><ele>80.0</ele><time>2026-03-28T11:14:32.999Z</time></trkpt><trkpt lat="45.51017871424903" lon="11.38264828103362"><ele>80.5</ele><time>2026-03-28T11:14:50Z</time></trkpt><trkpt lat="45.510191744940535" lon="11.382472696561127"><ele>81.0</ele><time>2026-03-28T11:15:09Z</time></trkpt><trkpt lat="45.510217541016615" lon="11.382338745409788"><ele>81.0</ele><time>2026-03-28T11:15:10Z</time></trkpt><trkpt lat="45.51025447083172" lon="11.382186538392704"><ele>81.0</ele><time>2026-03-28T11:15:11Z</time></trkpt><trkpt lat="45.51029400268121" lon="11.382013131613174"><ele>81.0</ele><time>2026-03-28T11:15:12Z</time></trkpt><trkpt lat="45.51033242997583" lon="11.381825589453774"><ele>81.0</ele><time>2026-03-28T11:15:13Z</time></trkpt><trkpt lat="45.510374648170334" lon="11.38161180747148"><ele>81.33333333333333</ele><time>2026-03-28T11:15:14Z</time></trkpt><trkpt lat="45.51042032474584" lon="11.38138916044057"><ele>81.66666666666666</ele><time>2026-03-28T11:15:15Z</time></trkpt><trkpt lat="45.51047213465528" lon="11.381153329877701"><ele>82.0</ele><time>2026-03-28T11:15:16Z</time></trkpt><trkpt lat="45.51052692503567" lon="11.380907477930466"><ele>82.0</ele><time>2026-03-28T11:15:17Z</time></trkpt><trkpt lat="45.51058268669246" lon="11.380653245485387"><ele>82.0</ele><time>2026-03-28T11:15:18Z</time></trkpt><trkpt lat="45.51063768695618" lon="11.38041239059476"><ele>82.0</ele><time>2026-03-28T11:15:19Z</time></trkpt><trkpt lat="45.51070192463931" lon="11.38019826649466"><ele>82.33333333333333</ele><time>2026-03-28T11:15:20Z</time></trkpt><trkpt lat="45.5107703419018" lon="11.379982182636944"><ele>82.66666666666667</ele><time>2026-03-28T11:15:21Z</time></trkpt><trkpt lat="45.510845859951516" lon="11.379769224452067"><ele>83.0</ele><time>2026-03-28T11:15:22Z</time></trkpt><trkpt lat="45.51092447372819" lon="11.379560945385247"><ele>81.66666666666667</ele><time>2026-03-28T11:15:23Z</time></trkpt><trkpt lat="45.51100821778992" lon="11.379351616890787"><ele>80.33333333333333</ele><time>2026-03-28T11:15:24Z</time></trkpt><trkpt lat="45.51109017948732" lon="11.379133302222547"><ele>79.0</ele><time>2026-03-28T11:15:25Z</time></trkpt><trkpt lat="45.51116650086087" lon="11.378913424341551"><ele>80.0</ele><time>2026-03-28T11:15:26Z</time></trkpt><trkpt lat="45.51125624390586" lon="11.37868419188379"><ele>81.0</ele><time>2026-03-28T11:15:27Z</time></trkpt><trkpt lat="45.51134064749096" lon="11.378462153395576"><ele>82.0</ele><time>2026-03-28T11:15:28Z</time></trkpt><trkpt lat="45.5114277853035" lon="11.378228824257775"><ele>83.0</ele><time>2026-03-28T11:15:29Z</time></trkpt><trkpt lat="45.51151287708755" lon="11.378000570200836"><ele>84.0</ele><time>2026-03-28T11:15:30Z</time></trkpt><trkpt lat="45.51160467320541" lon="11.377756543346319"><ele>85.0</ele><time>2026-03-28T11:15:31Z</time></trkpt><trkpt lat="45.5116984707911" lon="11.37751337198794"><ele>85.0</ele><time>2026-03-28T11:15:32Z</time></trkpt><trkpt lat="45.51179291868939" lon="11.377276072531059"><ele>85.0</ele><time>2026-03-28T11:15:33Z</time></trkpt><trkpt lat="45.511887430009644" lon="11.377033452747748"><ele>85.0</ele><time>2026-03-28T11:15:34Z</time></trkpt><trkpt lat="45.511976078208974" lon="11.376801523911846"><ele>84.66666666666666</ele><time>2026-03-28T11:15:35Z</time></trkpt><trkpt lat="45.51205125510838" lon="11.376573690024447"><ele>84.33333333333333</ele><time>2026-03-28T11:15:36Z</time></trkpt><trkpt lat="45.51211694664758" lon="11.376336586434135"><ele>84.0</ele><time>2026-03-28T11:15:37Z</time></trkpt><trkpt lat="45.512168506855936" lon="11.376100246541501"><ele>84.0</ele><time>2026-03-28T11:15:38Z</time></trkpt><trkpt lat="45.51219646381383" lon="11.3758604939658"><ele>84.0</ele><time>2026-03-28T11:15:39Z</time></trkpt><trkpt lat="45.51224619682591" lon="11.375619226601058"><ele>84.0</ele><time>2026-03-28T11:15:40Z</time></trkpt><trkpt lat="45.5122808565747" lon="11.375389464454592"><ele>84.33333333333333</ele><time>2026-03-28T11:15:41Z</time></trkpt><trkpt lat="45.512333041165014" lon="11.375172199438138"><ele>84.66666666666666</ele><time>2026-03-28T11:15:42Z</time></trkpt><trkpt lat="45.51240733956272" lon="11.374954141761311"><ele>85.0</ele><time>2026-03-28T11:15:43Z</time></trkpt><trkpt lat="45.512497751701275" lon="11.374726748926182"><ele>84.33333333333333</ele><time>2026-03-28T11:15:44Z</time></trkpt><trkpt lat="45.51259070131344" lon="11.374472757272654"><ele>83.66666666666667</ele><time>2026-03-28T11:15:45Z</time></trkpt><trkpt lat="45.51270169623717" lon="11.374235264475633"><ele>83.0</ele><time>2026-03-28T11:15:46Z</time></trkpt><trkpt lat="45.51280873806218" lon="11.37398598447802"><ele>82.0</ele><time>2026-03-28T11:15:47Z</time></trkpt><trkpt lat="45.512915830689394" lon="11.373726565106697"><ele>81.0</ele><time>2026-03-28T11:15:48Z</time></trkpt><trkpt lat="45.513032101359734" lon="11.373465779331259"><ele>80.0</ele><time>2026-03-28T11:15:49Z</time></trkpt><trkpt lat="45.51314748805071" lon="11.37320604433098"><ele>80.0</ele><time>2026-03-28T11:15:50Z</time></trkpt><trkpt lat="45.51325812454033" lon="11.372948696897419"><ele>80.0</ele><time>2026-03-28T11:15:51Z</time></trkpt><trkpt lat="45.51335975219349" lon="11.372700947936258"><ele>80.0</ele><time>2026-03-28T11:15:52Z</time></trkpt><trkpt lat="45.513457349530746" lon="11.372448839747287"><ele>80.0</ele><time>2026-03-28T11:15:53Z</time></trkpt><trkpt lat="45.51353370534512" lon="11.37218334786774"><ele>80.0</ele><time>2026-03-28T11:15:54Z</time></trkpt><trkpt lat="45.51361684078127" lon="11.371921535443104"><ele>80.0</ele><time>2026-03-28T11:15:55Z</time></trkpt><trkpt lat="45.51364337438696" lon="11.37163387953894"><ele>80.33333333333334</ele><time>2026-03-28T11:15:56Z</time></trkpt><trkpt lat="45.51366092691188" lon="11.37135020125327"><ele>80.66666666666667</ele><time>2026-03-28T11:15:57Z</time></trkpt><trkpt lat="45.51367079413997" lon="11.371066820412409"><ele>81.0</ele><time>2026-03-28T11:15:58Z</time></trkpt><trkpt lat="45.51366835471041" lon="11.370786557369595"><ele>81.0</ele><time>2026-03-28T11:15:59Z</time></trkpt><trkpt lat="45.51366255652118" lon="11.370525233805107"><ele>81.0</ele><time>2026-03-28T11:16:00Z</time></trkpt><trkpt lat="45.5136569043032" lon="11.370270489474592"><ele>81.0</ele><time>2026-03-28T11:16:01Z</time></trkpt><trkpt lat="45.513650878293056" lon="11.369998898181827"><ele>81.33333333333333</ele><time>2026-03-28T11:16:02Z</time></trkpt><trkpt lat="45.51364477880468" lon="11.369723995287986"><ele>81.66666666666666</ele><time>2026-03-28T11:16:03Z</time></trkpt><trkpt lat="45.51363866392872" lon="11.369448398820658"><ele>82.0</ele><time>2026-03-28T11:16:04Z</time></trkpt><trkpt lat="45.51363253938528" lon="11.369172368447396"><ele>82.0</ele><time>2026-03-28T11:16:05Z</time></trkpt><trkpt lat="45.513627145918825" lon="11.368901606690544"><ele>82.0</ele><time>2026-03-28T11:16:06Z</time></trkpt><trkpt lat="45.51362162732789" lon="11.36863039532659"><ele>82.0</ele><time>2026-03-28T11:16:07Z</time></trkpt><trkpt lat="45.51361717375518" lon="11.368362211778212"><ele>82.33333333333333</ele><time>2026-03-28T11:16:08Z</time></trkpt><trkpt lat="45.513612538127326" lon="11.36809794020383"><ele>82.66666666666667</ele><time>2026-03-28T11:16:09Z</time></trkpt><trkpt lat="45.513607381208665" lon="11.367826472415318"><ele>83.0</ele><time>2026-03-28T11:16:10Z</time></trkpt><trkpt lat="45.51360261248053" lon="11.367575439401733"><ele>84.5</ele><time>2026-03-28T11:16:11Z</time></trkpt><trkpt lat="45.51359318947653" lon="11.367094767792514"><ele>86.0</ele><time>2026-03-28T11:16:13Z</time></trkpt><trkpt lat="45.51358843600704" lon="11.366870062882542"><ele>86.0</ele><time>2026-03-28T11:16:14Z</time></trkpt><trkpt lat="45.513584558845245" lon="11.366688238646883"><ele>86.0</ele><time>2026-03-28T11:16:15Z</time></trkpt><trkpt lat="45.513580484379176" lon="11.366499644818104"><ele>86.0</ele><time>2026-03-28T11:16:16Z</time></trkpt><trkpt lat="45.513576451453446" lon="11.366312973031015"><ele>86.0</ele><time>2026-03-28T11:16:17Z</time></trkpt><trkpt lat="45.51357307167667" lon="11.366146476720813"><ele>86.33333333333334</ele><time>2026-03-28T11:16:18Z</time></trkpt><trkpt lat="45.51357083775538" lon="11.366013797503562"><ele>86.66666666666667</ele><time>2026-03-28T11:16:19Z</time></trkpt><trkpt lat="45.51356882798642" lon="11.365894431877665"><ele>87.0</ele><time>2026-03-28T11:16:20Z</time></trkpt><trkpt lat="45.51356698092071" lon="11.36578303254562"><ele>87.33333333333333</ele><time>2026-03-28T11:16:21Z</time></trkpt><trkpt lat="45.513565265757826" lon="11.365678853989179"><ele>87.66666666666666</ele><time>2026-03-28T11:16:22Z</time></trkpt><trkpt lat="45.51356342681332" lon="11.36556715680197"><ele>88.0</ele><time>2026-03-28T11:16:23Z</time></trkpt><trkpt lat="45.513561843261435" lon="11.365470972048282"><ele>88.16666666666666</ele><time>2026-03-28T11:16:23.999Z</time></trkpt><trkpt lat="45.513558820407646" lon="11.365287364530188"><ele>88.33333333333333</ele><time>2026-03-28T11:16:25.999Z</time></trkpt><trkpt lat="45.513557291765295" lon="11.365194515187671"><ele>88.5</ele><time>2026-03-28T11:16:26.999Z</time></trkpt><trkpt lat="45.51355572125577" lon="11.365094560667881"><ele>88.66666666666667</ele><time>2026-03-28T11:16:27.999Z</time></trkpt><trkpt lat="45.513554147770215" lon="11.364966434006828"><ele>88.83333333333334</ele><time>2026-03-28T11:16:28.999Z</time></trkpt><trkpt lat="45.51355252601856" lon="11.364834377108448"><ele>89.0</ele><time>2026-03-28T11:16:29.999Z</time></trkpt><trkpt lat="45.513550956960735" lon="11.364706611035043"><ele>89.2</ele><time>2026-03-28T11:16:30.999Z</time></trkpt><trkpt lat="45.51354960287577" lon="11.364596349798232"><ele>89.4</ele><time>2026-03-28T11:16:31.999Z</time></trkpt><trkpt lat="45.5135484309867" lon="11.364500924584169"><ele>89.6</ele><time>2026-03-28T11:16:32.999Z</time></trkpt><trkpt lat="45.513546738288476" lon="11.364349627637186"><ele>89.8</ele><time>2026-03-28T11:16:34.999Z</time></trkpt><trkpt lat="45.513546086364386" lon="11.36418743534614"><ele>90.0</ele><time>2026-03-28T11:16:36.999Z</time></trkpt><trkpt lat="45.51356776179478" lon="11.364047669894214"><ele>90.0</ele><time>2026-03-28T11:16:38.999Z</time></trkpt><trkpt lat="45.5136430695827" lon="11.364003285582308"><ele>90.0</ele><time>2026-03-28T11:16:39.999Z</time></trkpt><trkpt lat="45.51368195060513" lon="11.36390504750794"><ele>90.0</ele><time>2026-03-28T11:16:40.999Z</time></trkpt><trkpt lat="45.51373104271365" lon="11.363813392096207"><ele>90.0</ele><time>2026-03-28T11:16:41.999Z</time></trkpt><trkpt lat="45.513746467006975" lon="11.363705936841638"><ele>90.0</ele><time>2026-03-28T11:16:42.999Z</time></trkpt><trkpt lat="45.51367169843876" lon="11.363596036837073"><ele>90.0</ele><time>2026-03-28T11:16:43.999Z</time></trkpt><trkpt lat="45.51362979712544" lon="11.363503111540952"><ele>90.33333333333333</ele><time>2026-03-28T11:16:44.999Z</time></trkpt><trkpt lat="45.51359107831432" lon="11.363412980441245"><ele>90.66666666666667</ele><time>2026-03-28T11:16:45.999Z</time></trkpt><trkpt lat="45.51355273952955" lon="11.363312945920002"><ele>91.0</ele><time>2026-03-28T11:16:46.999Z</time></trkpt><trkpt lat="45.51354460515095" lon="11.363184766890809"><ele>91.33333333333334</ele><time>2026-03-28T11:16:48Z</time></trkpt><trkpt lat="45.513529398996845" lon="11.363058083384011"><ele>91.66666666666667</ele><time>2026-03-28T11:16:49Z</time></trkpt><trkpt lat="45.5135193052944" lon="11.362931196998955"><ele>92.0</ele><time>2026-03-28T11:16:50Z</time></trkpt><trkpt lat="45.51351895484144" lon="11.362784821456794"><ele>92.0</ele><time>2026-03-28T11:16:51Z</time></trkpt><trkpt lat="45.513515901104284" lon="11.362638885606454"><ele>92.0</ele><time>2026-03-28T11:16:52Z</time></trkpt><trkpt lat="45.51351161873647" lon="11.36248074024807"><ele>92.0</ele><time>2026-03-28T11:16:53Z</time></trkpt><trkpt lat="45.51350717145852" lon="11.36231324196395"><ele>92.0</ele><time>2026-03-28T11:16:54Z</time></trkpt><trkpt lat="45.51350319094714" lon="11.362139944931538"><ele>92.39999999999999</ele><time>2026-03-28T11:16:55Z</time></trkpt><trkpt lat="45.51349980513651" lon="11.361992539422134"><ele>92.8</ele><time>2026-03-28T11:16:56Z</time></trkpt><trkpt lat="45.51349658337623" lon="11.361852275804104"><ele>93.2</ele><time>2026-03-28T11:16:57Z</time></trkpt><trkpt lat="45.51349330467815" lon="11.361709533497079"><ele>93.6</ele><time>2026-03-28T11:16:58Z</time></trkpt><trkpt lat="45.51348999775217" lon="11.361565561994963"><ele>94.0</ele><time>2026-03-28T11:16:59Z</time></trkpt><trkpt lat="45.513486384986194" lon="11.361424840503904"><ele>93.83333333333333</ele><time>2026-03-28T11:17:00Z</time></trkpt><trkpt lat="45.51348320420971" lon="11.361301950493246"><ele>93.66666666666666</ele><time>2026-03-28T11:17:01Z</time></trkpt><trkpt lat="45.51348031793847" lon="11.361190438722717"><ele>93.5</ele><time>2026-03-28T11:17:02Z</time></trkpt><trkpt lat="45.5134775640367" lon="11.36108404129802"><ele>93.33333333333333</ele><time>2026-03-28T11:17:03Z</time></trkpt><trkpt lat="45.513474942530195" lon="11.360982758739468"><ele>93.16666666666667</ele><time>2026-03-28T11:17:04Z</time></trkpt><trkpt lat="45.51346794214178" lon="11.360802986886714"><ele>93.0</ele><time>2026-03-28T11:17:06Z</time></trkpt><trkpt lat="45.51349673312663" lon="11.360701439492143"><ele>93.0</ele><time>2026-03-28T11:17:07Z</time></trkpt><trkpt lat="45.51355062655471" lon="11.360613054034308"><ele>93.0</ele><time>2026-03-28T11:17:08Z</time></trkpt><trkpt lat="45.513572438616684" lon="11.360524268378231"><ele>93.0</ele><time>2026-03-28T11:17:09Z</time></trkpt><trkpt lat="45.51356117956352" lon="11.360404046079836"><ele>93.0</ele><time>2026-03-28T11:17:10Z</time></trkpt><trkpt lat="45.51350437741553" lon="11.360296994210406"><ele>93.0</ele><time>2026-03-28T11:17:11Z</time></trkpt><trkpt lat="45.51340119394527" lon="11.360250977771337"><ele>93.0</ele><time>2026-03-28T11:17:12Z</time></trkpt><trkpt lat="45.51329739644099" lon="11.360240073235797"><ele>93.4</ele><time>2026-03-28T11:17:13Z</time></trkpt><trkpt lat="45.51321879665421" lon="11.360165541141388"><ele>93.80000000000001</ele><time>2026-03-28T11:17:14Z</time></trkpt><trkpt lat="45.51319212519591" lon="11.360031080559422"><ele>94.2</ele><time>2026-03-28T11:17:15Z</time></trkpt><trkpt lat="45.51314389449353" lon="11.359909132016389"><ele>94.6</ele><time>2026-03-28T11:17:16Z</time></trkpt><trkpt lat="45.51310095045098" lon="11.359775552223859"><ele>95.0</ele><time>2026-03-28T11:17:17Z</time></trkpt><trkpt lat="45.51305940509603" lon="11.359634299124698"><ele>95.0</ele><time>2026-03-28T11:17:18Z</time></trkpt><trkpt lat="45.51301167614985" lon="11.359468544560931"><ele>95.0</ele><time>2026-03-28T11:17:19Z</time></trkpt><trkpt lat="45.51296250763614" lon="11.359298783789066"><ele>95.0</ele><time>2026-03-28T11:17:20Z</time></trkpt><trkpt lat="45.51291050573641" lon="11.359119528580853"><ele>95.0</ele><time>2026-03-28T11:17:21Z</time></trkpt><trkpt lat="45.51285844695244" lon="11.35894007715256"><ele>94.75</ele><time>2026-03-28T11:17:22Z</time></trkpt><trkpt lat="45.512810675475464" lon="11.358775621190183"><ele>94.5</ele><time>2026-03-28T11:17:23Z</time></trkpt><trkpt lat="45.51276353219968" lon="11.358613670343843"><ele>94.25</ele><time>2026-03-28T11:17:24Z</time></trkpt><trkpt lat="45.51271529637166" lon="11.35844796591786"><ele>94.0</ele><time>2026-03-28T11:17:25Z</time></trkpt><trkpt lat="45.51266694975166" lon="11.358281880851166"><ele>94.0</ele><time>2026-03-28T11:17:26Z</time></trkpt><trkpt lat="45.512621518454694" lon="11.3581258070908"><ele>94.0</ele><time>2026-03-28T11:17:27Z</time></trkpt><trkpt lat="45.51257830076961" lon="11.3579766296871"><ele>94.0</ele><time>2026-03-28T11:17:28Z</time></trkpt><trkpt lat="45.51253480266253" lon="11.35782671279801"><ele>94.0</ele><time>2026-03-28T11:17:29Z</time></trkpt><trkpt lat="45.512490555315544" lon="11.357674213481221"><ele>94.75</ele><time>2026-03-28T11:17:30Z</time></trkpt><trkpt lat="45.512446092593855" lon="11.357520967311213"><ele>95.5</ele><time>2026-03-28T11:17:31Z</time></trkpt><trkpt lat="45.512381041328446" lon="11.357376730257963"><ele>96.25</ele><time>2026-03-28T11:17:32Z</time></trkpt><trkpt lat="45.51233392667686" lon="11.35721552992788"><ele>97.0</ele><time>2026-03-28T11:17:33Z</time></trkpt><trkpt lat="45.51228425096167" lon="11.357035160212927"><ele>97.0</ele><time>2026-03-28T11:17:34Z</time></trkpt><trkpt lat="45.51223590992454" lon="11.356851730348925"><ele>97.0</ele><time>2026-03-28T11:17:35Z</time></trkpt><trkpt lat="45.512189303659405" lon="11.356668640848028"><ele>97.0</ele><time>2026-03-28T11:17:36Z</time></trkpt><trkpt lat="45.51214557050667" lon="11.356487866689276"><ele>97.0</ele><time>2026-03-28T11:17:37Z</time></trkpt><trkpt lat="45.51210926813135" lon="11.356312367480207"><ele>97.25</ele><time>2026-03-28T11:17:38Z</time></trkpt><trkpt lat="45.51207653114844" lon="11.356128744322389"><ele>97.5</ele><time>2026-03-28T11:17:39Z</time></trkpt><trkpt lat="45.5120479700147" lon="11.35594325485652"><ele>97.75</ele><time>2026-03-28T11:17:40Z</time></trkpt><trkpt lat="45.51202108110646" lon="11.355757005135663"><ele>98.0</ele><time>2026-03-28T11:17:41Z</time></trkpt><trkpt lat="45.511996311768904" lon="11.355571707530729"><ele>97.75</ele><time>2026-03-28T11:17:42Z</time></trkpt><trkpt lat="45.51197219584553" lon="11.355384011424295"><ele>97.5</ele><time>2026-03-28T11:17:43Z</time></trkpt><trkpt lat="45.511965357591436" lon="11.355175721064725"><ele>97.25</ele><time>2026-03-28T11:17:44Z</time></trkpt><trkpt lat="45.51193212425868" lon="11.354961749609528"><ele>97.0</ele><time>2026-03-28T11:17:45Z</time></trkpt><trkpt lat="45.51192219644002" lon="11.354754479791431"><ele>97.25</ele><time>2026-03-28T11:17:46Z</time></trkpt><trkpt lat="45.51190936173902" lon="11.354546029890512"><ele>97.5</ele><time>2026-03-28T11:17:47Z</time></trkpt><trkpt lat="45.511896200997" lon="11.354335492687637"><ele>97.75</ele><time>2026-03-28T11:17:48Z</time></trkpt><trkpt lat="45.511879663297925" lon="11.354121004412026"><ele>98.0</ele><time>2026-03-28T11:17:49Z</time></trkpt><trkpt lat="45.5118636616471" lon="11.353905432216557"><ele>98.0</ele><time>2026-03-28T11:17:50Z</time></trkpt><trkpt lat="45.51184980593089" lon="11.353691452067052"><ele>98.0</ele><time>2026-03-28T11:17:51Z</time></trkpt><trkpt lat="45.511835372404754" lon="11.35347334951563"><ele>98.0</ele><time>2026-03-28T11:17:52Z</time></trkpt><trkpt lat="45.511819080616846" lon="11.353263822044308"><ele>98.0</ele><time>2026-03-28T11:17:53Z</time></trkpt><trkpt lat="45.511806368779816" lon="11.353073106826127"><ele>98.0</ele><time>2026-03-28T11:17:54Z</time></trkpt><trkpt lat="45.511794790613905" lon="11.352876903328887"><ele>98.0</ele><time>2026-03-28T11:17:55Z</time></trkpt><trkpt lat="45.511782413163864" lon="11.352674802257038"><ele>98.0</ele><time>2026-03-28T11:17:56Z</time></trkpt><trkpt lat="45.51176821257649" lon="11.352474262635388"><ele>98.0</ele><time>2026-03-28T11:17:57Z</time></trkpt><trkpt lat="45.511755924900584" lon="11.352269763855316"><ele>98.0</ele><time>2026-03-28T11:17:58Z</time></trkpt><trkpt lat="45.5117434882253" lon="11.352062638717017"><ele>98.0</ele><time>2026-03-28T11:17:59Z</time></trkpt><trkpt lat="45.511728124573025" lon="11.351856951854252"><ele>98.0</ele><time>2026-03-28T11:18:00Z</time></trkpt><trkpt lat="45.51171035096372" lon="11.351654943626254"><ele>98.25</ele><time>2026-03-28T11:18:01Z</time></trkpt><trkpt lat="45.51169473297115" lon="11.3514447285941"><ele>98.5</ele><time>2026-03-28T11:18:02Z</time></trkpt><trkpt lat="45.511681736101345" lon="11.351243047620589"><ele>98.75</ele><time>2026-03-28T11:18:03Z</time></trkpt><trkpt lat="45.51166792578585" lon="11.351035752258761"><ele>99.0</ele><time>2026-03-28T11:18:04Z</time></trkpt><trkpt lat="45.511654588546286" lon="11.350831634834115"><ele>99.0</ele><time>2026-03-28T11:18:05Z</time></trkpt><trkpt lat="45.511641290860126" lon="11.350628874351232"><ele>99.0</ele><time>2026-03-28T11:18:06Z</time></trkpt><trkpt lat="45.51163031378166" lon="11.35044403242076"><ele>99.0</ele><time>2026-03-28T11:18:07Z</time></trkpt><trkpt lat="45.511620488451854" lon="11.350270739683562"><ele>99.0</ele><time>2026-03-28T11:18:08Z</time></trkpt><trkpt lat="45.511607778503006" lon="11.350109022691944"><ele>99.0</ele><time>2026-03-28T11:18:09Z</time></trkpt><trkpt lat="45.51159874274746" lon="11.349947555241055"><ele>99.0</ele><time>2026-03-28T11:18:10Z</time></trkpt><trkpt lat="45.51158857984969" lon="11.349791507899843"><ele>99.0</ele><time>2026-03-28T11:18:11Z</time></trkpt><trkpt lat="45.51157863769714" lon="11.349641362443219"><ele>99.0</ele><time>2026-03-28T11:18:12Z</time></trkpt><trkpt lat="45.51157056202437" lon="11.349505063817345"><ele>99.0</ele><time>2026-03-28T11:18:13Z</time></trkpt><trkpt lat="45.511569481984665" lon="11.349383564576156"><ele>99.0</ele><time>2026-03-28T11:18:14Z</time></trkpt><trkpt lat="45.511569472662266" lon="11.349278475008095"><ele>99.0</ele><time>2026-03-28T11:18:15Z</time></trkpt><trkpt lat="45.51156743475174" lon="11.349110720481512"><ele>99.0</ele><time>2026-03-28T11:18:16.999Z</time></trkpt><trkpt lat="45.51157508903866" lon="11.34892450633237"><ele>99.0</ele><time>2026-03-28T11:18:18.999Z</time></trkpt><trkpt lat="45.511591187701086" lon="11.34863638653807"><ele>99.4</ele><time>2026-03-28T11:18:21.999Z</time></trkpt><trkpt lat="45.511601590743545" lon="11.34852721682784"><ele>99.80000000000001</ele><time>2026-03-28T11:18:22.999Z</time></trkpt><trkpt lat="45.51161150726242" lon="11.348408926922435"><ele>100.19999999999999</ele><time>2026-03-28T11:18:23.999Z</time></trkpt><trkpt lat="45.51162359277831" lon="11.348279384692662"><ele>100.6</ele><time>2026-03-28T11:18:24.999Z</time></trkpt><trkpt lat="45.51164188594453" lon="11.348143885247532"><ele>101.0</ele><time>2026-03-28T11:18:25.999Z</time></trkpt><trkpt lat="45.51166238121654" lon="11.347993845878767"><ele>101.19999999999999</ele><time>2026-03-28T11:18:26.999Z</time></trkpt><trkpt lat="45.511681510263344" lon="11.347843515130894"><ele>101.39999999999999</ele><time>2026-03-28T11:18:27.999Z</time></trkpt><trkpt lat="45.51170727172849" lon="11.347686909422562"><ele>101.6</ele><time>2026-03-28T11:18:28.999Z</time></trkpt><trkpt lat="45.51173240313114" lon="11.347541285128543"><ele>101.8</ele><time>2026-03-28T11:18:29.999Z</time></trkpt><trkpt lat="45.511768588213215" lon="11.347392290716964"><ele>102.0</ele><time>2026-03-28T11:18:30.999Z</time></trkpt><trkpt lat="45.511805417281415" lon="11.34725298050009"><ele>101.8</ele><time>2026-03-28T11:18:31.999Z</time></trkpt><trkpt lat="45.51184319021855" lon="11.347119690800419"><ele>101.6</ele><time>2026-03-28T11:18:32.999Z</time></trkpt><trkpt lat="45.511881055654285" lon="11.346990701568707"><ele>101.39999999999999</ele><time>2026-03-28T11:18:33.999Z</time></trkpt><trkpt lat="45.5119202802734" lon="11.346865008019083"><ele>101.19999999999999</ele><time>2026-03-28T11:18:34.999Z</time></trkpt><trkpt lat="45.51196254804243" lon="11.346745482016003"><ele>101.0</ele><time>2026-03-28T11:18:35.999Z</time></trkpt><trkpt lat="45.51200677592035" lon="11.346629838944708"><ele>101.0</ele><time>2026-03-28T11:18:36.999Z</time></trkpt><trkpt lat="45.51205253211972" lon="11.34651122191217"><ele>101.0</ele><time>2026-03-28T11:18:37.999Z</time></trkpt><trkpt lat="45.51210072345784" lon="11.346394080816143"><ele>101.0</ele><time>2026-03-28T11:18:38.999Z</time></trkpt><trkpt lat="45.512148263159766" lon="11.346286985692531"><ele>101.0</ele><time>2026-03-28T11:18:39.999Z</time></trkpt><trkpt lat="45.5121950883295" lon="11.346178187605348"><ele>101.0</ele><time>2026-03-28T11:18:40.999Z</time></trkpt><trkpt lat="45.51225840843006" lon="11.34604177089979"><ele>101.0</ele><time>2026-03-28T11:18:41.999Z</time></trkpt><trkpt lat="45.51231591622066" lon="11.345930612342272"><ele>101.0</ele><time>2026-03-28T11:18:42.999Z</time></trkpt><trkpt lat="45.512366921930095" lon="11.345824474740562"><ele>101.0</ele><time>2026-03-28T11:18:43.999Z</time></trkpt><trkpt lat="45.51241653849724" lon="11.345710702010527"><ele>101.0</ele><time>2026-03-28T11:18:44.999Z</time></trkpt><trkpt lat="45.512468467754175" lon="11.345589596873252"><ele>101.0</ele><time>2026-03-28T11:18:45.999Z</time></trkpt><trkpt lat="45.512526813615615" lon="11.345463995952285"><ele>101.19999999999999</ele><time>2026-03-28T11:18:46.999Z</time></trkpt><trkpt lat="45.51258284853476" lon="11.345337771508332"><ele>101.39999999999999</ele><time>2026-03-28T11:18:47.999Z</time></trkpt><trkpt lat="45.512639732262826" lon="11.345208200625665"><ele>101.6</ele><time>2026-03-28T11:18:48.999Z</time></trkpt><trkpt lat="45.51269112899999" lon="11.345089722970064"><ele>101.8</ele><time>2026-03-28T11:18:49.999Z</time></trkpt><trkpt lat="45.512735712311375" lon="11.344979906318676"><ele>102.0</ele><time>2026-03-28T11:18:50.999Z</time></trkpt><trkpt lat="45.51277363613574" lon="11.344871535913338"><ele>102.0</ele><time>2026-03-28T11:18:51.999Z</time></trkpt><trkpt lat="45.512809385987005" lon="11.344765308091391"><ele>102.0</ele><time>2026-03-28T11:18:52.999Z</time></trkpt><trkpt lat="45.512850250671256" lon="11.344668045202248"><ele>102.0</ele><time>2026-03-28T11:18:54Z</time></trkpt><trkpt lat="45.512891020959664" lon="11.344573539288039"><ele>102.0</ele><time>2026-03-28T11:18:55Z</time></trkpt><trkpt lat="45.51294027574947" lon="11.344457725200478"><ele>102.0</ele><time>2026-03-28T11:18:56Z</time></trkpt><trkpt lat="45.513013170404115" lon="11.344328933781487"><ele>102.75</ele><time>2026-03-28T11:18:57Z</time></trkpt><trkpt lat="45.513078841204816" lon="11.344182192780844"><ele>103.5</ele><time>2026-03-28T11:18:58Z</time></trkpt><trkpt lat="45.51312932891875" lon="11.34402693689237"><ele>104.25</ele><time>2026-03-28T11:18:59Z</time></trkpt><trkpt lat="45.5131905203148" lon="11.34389066246394"><ele>105.0</ele><time>2026-03-28T11:19:00Z</time></trkpt><trkpt lat="45.51326380304331" lon="11.343770474878347"><ele>105.0</ele><time>2026-03-28T11:19:01Z</time></trkpt><trkpt lat="45.513328547168975" lon="11.343625459225722"><ele>105.0</ele><time>2026-03-28T11:19:02Z</time></trkpt><trkpt lat="45.51339727612759" lon="11.343471611202222"><ele>105.0</ele><time>2026-03-28T11:19:03Z</time></trkpt><trkpt lat="45.51346982521457" lon="11.3433094429941"><ele>105.0</ele><time>2026-03-28T11:19:04Z</time></trkpt><trkpt lat="45.51354236173541" lon="11.343144991853757"><ele>105.0</ele><time>2026-03-28T11:19:05Z</time></trkpt><trkpt lat="45.51361056614025" lon="11.342992553971099"><ele>105.0</ele><time>2026-03-28T11:19:06Z</time></trkpt><trkpt lat="45.51367865918485" lon="11.342840190198697"><ele>105.0</ele><time>2026-03-28T11:19:07Z</time></trkpt><trkpt lat="45.513753067460044" lon="11.342673694859814"><ele>105.0</ele><time>2026-03-28T11:19:08Z</time></trkpt><trkpt lat="45.513811470412776" lon="11.342487423906856"><ele>105.0</ele><time>2026-03-28T11:19:09Z</time></trkpt><trkpt lat="45.51389021400665" lon="11.342313006090658"><ele>105.0</ele><time>2026-03-28T11:19:10Z</time></trkpt><trkpt lat="45.51396430192361" lon="11.342147337508713"><ele>105.0</ele><time>2026-03-28T11:19:11Z</time></trkpt><trkpt lat="45.51403956401507" lon="11.341974400866347"><ele>105.0</ele><time>2026-03-28T11:19:12Z</time></trkpt><trkpt lat="45.51411662798479" lon="11.341800970019134"><ele>105.25</ele><time>2026-03-28T11:19:13Z</time></trkpt><trkpt lat="45.51418759827274" lon="11.341643207555848"><ele>105.5</ele><time>2026-03-28T11:19:14Z</time></trkpt><trkpt lat="45.51425576536093" lon="11.341485403316247"><ele>105.75</ele><time>2026-03-28T11:19:15Z</time></trkpt><trkpt lat="45.51434422210441" lon="11.341343003571989"><ele>106.0</ele><time>2026-03-28T11:19:16Z</time></trkpt><trkpt lat="45.51441384587831" lon="11.341186158979639"><ele>106.75</ele><time>2026-03-28T11:19:17Z</time></trkpt><trkpt lat="45.51448347862458" lon="11.341028580702032"><ele>107.5</ele><time>2026-03-28T11:19:18Z</time></trkpt><trkpt lat="45.5145494369519" lon="11.340878993095558"><ele>108.25</ele><time>2026-03-28T11:19:19Z</time></trkpt><trkpt lat="45.514615774726146" lon="11.340728963516158"><ele>109.0</ele><time>2026-03-28T11:19:20Z</time></trkpt><trkpt lat="45.51468329535093" lon="11.340576022166829"><ele>109.25</ele><time>2026-03-28T11:19:21Z</time></trkpt><trkpt lat="45.51472948213969" lon="11.340411256993036"><ele>109.5</ele><time>2026-03-28T11:19:22Z</time></trkpt><trkpt lat="45.51480161702993" lon="11.34025426657645"><ele>109.75</ele><time>2026-03-28T11:19:23Z</time></trkpt><trkpt lat="45.514876874106015" lon="11.340087692563896"><ele>110.0</ele><time>2026-03-28T11:19:24Z</time></trkpt><trkpt lat="45.51494981642293" lon="11.33992012846979"><ele>110.0</ele><time>2026-03-28T11:19:25Z</time></trkpt><trkpt lat="45.51503899536857" lon="11.339768942919607"><ele>110.0</ele><time>2026-03-28T11:19:26Z</time></trkpt><trkpt lat="45.51509054676393" lon="11.339581890943176"><ele>110.0</ele><time>2026-03-28T11:19:27Z</time></trkpt><trkpt lat="45.51516370097298" lon="11.339416005943153"><ele>110.0</ele><time>2026-03-28T11:19:28Z</time></trkpt><trkpt lat="45.5152399366618" lon="11.339248026899622"><ele>109.75</ele><time>2026-03-28T11:19:29Z</time></trkpt><trkpt lat="45.51531684890296" lon="11.339077926186274"><ele>109.5</ele><time>2026-03-28T11:19:30Z</time></trkpt><trkpt lat="45.515412918793956" lon="11.338920580926615"><ele>109.25</ele><time>2026-03-28T11:19:31Z</time></trkpt><trkpt lat="45.51549015860735" lon="11.338739641836314"><ele>109.0</ele><time>2026-03-28T11:19:32Z</time></trkpt><trkpt lat="45.51556032379768" lon="11.338574481517833"><ele>109.00000000000001</ele><time>2026-03-28T11:19:33Z</time></trkpt><trkpt lat="45.51562082496852" lon="11.338431850022273"><ele>109.0</ele><time>2026-03-28T11:19:34Z</time></trkpt><trkpt lat="45.515669811376526" lon="11.338316364510291"><ele>109.0</ele><time>2026-03-28T11:19:35Z</time></trkpt><trkpt lat="45.51571782212159" lon="11.338203179023932"><ele>109.0</ele><time>2026-03-28T11:19:36Z</time></trkpt><trkpt lat="45.515754304952154" lon="11.338117170784088"><ele>109.00000000000001</ele><time>2026-03-28T11:19:37Z</time></trkpt><trkpt lat="45.51578904030027" lon="11.338035282085132"><ele>109.0</ele><time>2026-03-28T11:19:39Z</time></trkpt><trkpt lat="45.51582672525084" lon="11.337946439779248"><ele>109.33333333333334</ele><time>2026-03-28T11:19:42Z</time></trkpt><trkpt lat="45.51586531378841" lon="11.337854322711737"><ele>109.66666666666667</ele><time>2026-03-28T11:19:44Z</time></trkpt><trkpt lat="45.51591398598208" lon="11.33773836964461"><ele>110.0</ele><time>2026-03-28T11:19:46Z</time></trkpt><trkpt lat="45.51598020219212" lon="11.337580621055467"><ele>110.33333333333334</ele><time>2026-03-28T11:19:48Z</time></trkpt><trkpt lat="45.51601817148744" lon="11.337490165814039"><ele>110.66666666666667</ele><time>2026-03-28T11:19:49Z</time></trkpt><trkpt lat="45.516055129317046" lon="11.337402120222043"><ele>111.0</ele><time>2026-03-28T11:19:50Z</time></trkpt><trkpt lat="45.51609298396456" lon="11.337312467453875"><ele>111.0</ele><time>2026-03-28T11:19:51Z</time></trkpt><trkpt lat="45.51612644732618" lon="11.337233422814087"><ele>111.0</ele><time>2026-03-28T11:19:52Z</time></trkpt><trkpt lat="45.51616621001735" lon="11.337138999994398"><ele>111.0</ele><time>2026-03-28T11:19:53Z</time></trkpt><trkpt lat="45.516207134440194" lon="11.337040223676901"><ele>111.0</ele><time>2026-03-28T11:19:54Z</time></trkpt><trkpt lat="45.516243590158076" lon="11.336946130964392"><ele>111.0</ele><time>2026-03-28T11:19:55Z</time></trkpt><trkpt lat="45.51627869460044" lon="11.33685552612817"><ele>111.0</ele><time>2026-03-28T11:19:56Z</time></trkpt><trkpt lat="45.516313421311956" lon="11.336754604091022"><ele>111.0</ele><time>2026-03-28T11:19:57Z</time></trkpt><trkpt lat="45.51636942201531" lon="11.336587725411384"><ele>111.0</ele><time>2026-03-28T11:19:59Z</time></trkpt><trkpt lat="45.5164040059006" lon="11.336477855527491"><ele>111.0</ele><time>2026-03-28T11:20:00Z</time></trkpt><trkpt lat="45.51644135136443" lon="11.336356197764447"><ele>111.0</ele><time>2026-03-28T11:20:01Z</time></trkpt><trkpt lat="45.51647505655723" lon="11.336244090210439"><ele>111.0</ele><time>2026-03-28T11:20:02Z</time></trkpt><trkpt lat="45.51650993102864" lon="11.336125556583273"><ele>111.0</ele><time>2026-03-28T11:20:03Z</time></trkpt><trkpt lat="45.51654541750666" lon="11.336003473230553"><ele>111.0</ele><time>2026-03-28T11:20:04Z</time></trkpt><trkpt lat="45.51658084383205" lon="11.335875681334727"><ele>111.0</ele><time>2026-03-28T11:20:05Z</time></trkpt><trkpt lat="45.51661499795618" lon="11.335752478447478"><ele>111.0</ele><time>2026-03-28T11:20:06Z</time></trkpt><trkpt lat="45.51663535010459" lon="11.335634541692068"><ele>111.0</ele><time>2026-03-28T11:20:07Z</time></trkpt><trkpt lat="45.51666627078111" lon="11.33554269531305"><ele>111.0</ele><time>2026-03-28T11:20:08Z</time></trkpt><trkpt lat="45.51668880992569" lon="11.335453119493469"><ele>111.0</ele><time>2026-03-28T11:20:09Z</time></trkpt><trkpt lat="45.51672925100734" lon="11.335299932741655"><ele>111.0</ele><time>2026-03-28T11:20:11Z</time></trkpt><trkpt lat="45.51676683641756" lon="11.335218595068667"><ele>111.0</ele><time>2026-03-28T11:20:12Z</time></trkpt><trkpt lat="45.516779953569376" lon="11.335120335951885"><ele>111.0</ele><time>2026-03-28T11:20:13Z</time></trkpt><trkpt lat="45.516808664625266" lon="11.335031983870968"><ele>111.0</ele><time>2026-03-28T11:20:14Z</time></trkpt><trkpt lat="45.516833265019876" lon="11.334926790061669"><ele>111.0</ele><time>2026-03-28T11:20:15Z</time></trkpt><trkpt lat="45.516861738507075" lon="11.334825415009773"><ele>111.0</ele><time>2026-03-28T11:20:16Z</time></trkpt><trkpt lat="45.516886591025084" lon="11.334728339299641"><ele>111.0</ele><time>2026-03-28T11:20:17Z</time></trkpt><trkpt lat="45.51690512004501" lon="11.334641475644652"><ele>111.0</ele><time>2026-03-28T11:20:18Z</time></trkpt><trkpt lat="45.516951580798555" lon="11.334492601189025"><ele>111.0</ele><time>2026-03-28T11:20:19.999Z</time></trkpt><trkpt lat="45.51698685632372" lon="11.33440719111966"><ele>111.0</ele><time>2026-03-28T11:20:21.999Z</time></trkpt><trkpt lat="45.51704331549541" lon="11.334314434932923"><ele>111.0</ele><time>2026-03-28T11:20:25.999Z</time></trkpt><trkpt lat="45.51708216384699" lon="11.33423676364327"><ele>111.0</ele><time>2026-03-28T11:20:26.999Z</time></trkpt><trkpt lat="45.517132880683185" lon="11.334180012236844"><ele>111.0</ele><time>2026-03-28T11:20:27.999Z</time></trkpt><trkpt lat="45.51717672711972" lon="11.334000920885273"><ele>111.0</ele><time>2026-03-28T11:20:29.999Z</time></trkpt><trkpt lat="45.5171353670273" lon="11.333907174814739"><ele>111.5</ele><time>2026-03-28T11:20:30.999Z</time></trkpt><trkpt lat="45.51714252900439" lon="11.333767433433735"><ele>112.0</ele><time>2026-03-28T11:20:32.999Z</time></trkpt><trkpt lat="45.5171667399806" lon="11.333657546769867"><ele>112.5</ele><time>2026-03-28T11:20:34.999Z</time></trkpt><trkpt lat="45.51720851979521" lon="11.333538219750837"><ele>113.0</ele><time>2026-03-28T11:20:36.999Z</time></trkpt><trkpt lat="45.517233480808514" lon="11.333452023379794"><ele>113.5</ele><time>2026-03-28T11:20:37.999Z</time></trkpt><trkpt lat="45.51726412770368" lon="11.333351295398396"><ele>114.0</ele><time>2026-03-28T11:20:38.999Z</time></trkpt><trkpt lat="45.51729346892227" lon="11.333239062311415"><ele>114.0</ele><time>2026-03-28T11:20:39.999Z</time></trkpt><trkpt lat="45.517320125884716" lon="11.333138975213766"><ele>114.0</ele><time>2026-03-28T11:20:40.999Z</time></trkpt><trkpt lat="45.517348508819" lon="11.333035119648553"><ele>114.0</ele><time>2026-03-28T11:20:41.999Z</time></trkpt><trkpt lat="45.51738311099575" lon="11.332919168881265"><ele>114.0</ele><time>2026-03-28T11:20:42.999Z</time></trkpt><trkpt lat="45.51741444209378" lon="11.332805842339075"><ele>114.0</ele><time>2026-03-28T11:20:43.999Z</time></trkpt><trkpt lat="45.51744793681667" lon="11.332684699240568"><ele>114.0</ele><time>2026-03-28T11:20:44.999Z</time></trkpt><trkpt lat="45.51749321637091" lon="11.332566933790435"><ele>114.4</ele><time>2026-03-28T11:20:45.999Z</time></trkpt><trkpt lat="45.5175306033587" lon="11.33244548938371"><ele>114.80000000000001</ele><time>2026-03-28T11:20:46.999Z</time></trkpt><trkpt lat="45.51756827882571" lon="11.332323688474542"><ele>115.19999999999999</ele><time>2026-03-28T11:20:47.999Z</time></trkpt><trkpt lat="45.51759434235055" lon="11.33218500694599"><ele>115.6</ele><time>2026-03-28T11:20:48.999Z</time></trkpt><trkpt lat="45.51764038793144" lon="11.332046367569037"><ele>116.0</ele><time>2026-03-28T11:20:49.999Z</time></trkpt><trkpt lat="45.51768441262655" lon="11.331904538744814"><ele>116.5</ele><time>2026-03-28T11:20:50.999Z</time></trkpt><trkpt lat="45.517727558916505" lon="11.331766791534015"><ele>117.0</ele><time>2026-03-28T11:20:51.999Z</time></trkpt><trkpt lat="45.51778116761632" lon="11.331609467735714"><ele>117.5</ele><time>2026-03-28T11:20:52.999Z</time></trkpt><trkpt lat="45.517837872286" lon="11.331435012791754"><ele>118.0</ele><time>2026-03-28T11:20:53.999Z</time></trkpt><trkpt lat="45.51789730534454" lon="11.331271426508307"><ele>117.75</ele><time>2026-03-28T11:20:54.999Z</time></trkpt><trkpt lat="45.51796382044799" lon="11.331094972863227"><ele>117.5</ele><time>2026-03-28T11:20:55.999Z</time></trkpt><trkpt lat="45.51803493315807" lon="11.330909393790641"><ele>117.25</ele><time>2026-03-28T11:20:56.999Z</time></trkpt><trkpt lat="45.518108547726534" lon="11.330708707235992"><ele>117.0</ele><time>2026-03-28T11:20:57.999Z</time></trkpt><trkpt lat="45.51818220546613" lon="11.330498795778585"><ele>116.33333333333334</ele><time>2026-03-28T11:20:58.999Z</time></trkpt><trkpt lat="45.51825884644871" lon="11.330294734923857"><ele>115.66666666666667</ele><time>2026-03-28T11:21:00Z</time></trkpt><trkpt lat="45.51834173898975" lon="11.330074854170878"><ele>115.0</ele><time>2026-03-28T11:21:01Z</time></trkpt><trkpt lat="45.51842155062589" lon="11.329854452886202"><ele>115.0</ele><time>2026-03-28T11:21:02Z</time></trkpt><trkpt lat="45.51850233382146" lon="11.329648628858148"><ele>115.0</ele><time>2026-03-28T11:21:03Z</time></trkpt><trkpt lat="45.51858686053765" lon="11.329432008746505"><ele>115.0</ele><time>2026-03-28T11:21:04Z</time></trkpt><trkpt lat="45.51866495310494" lon="11.329219574547489"><ele>115.66666666666667</ele><time>2026-03-28T11:21:05Z</time></trkpt><trkpt lat="45.51874832494123" lon="11.329010025791316"><ele>116.33333333333334</ele><time>2026-03-28T11:21:06Z</time></trkpt><trkpt lat="45.51882833610385" lon="11.32880553437713"><ele>117.0</ele><time>2026-03-28T11:21:07Z</time></trkpt><trkpt lat="45.51891110351871" lon="11.328600741489945"><ele>117.0</ele><time>2026-03-28T11:21:08Z</time></trkpt><trkpt lat="45.51898420481337" lon="11.328412173124779"><ele>117.0</ele><time>2026-03-28T11:21:09Z</time></trkpt><trkpt lat="45.51905333597225" lon="11.328229919350361"><ele>117.0</ele><time>2026-03-28T11:21:10Z</time></trkpt><trkpt lat="45.5191193904033" lon="11.328061738429826"><ele>117.0</ele><time>2026-03-28T11:21:11Z</time></trkpt><trkpt lat="45.51917779076208" lon="11.32790619489739"><ele>117.0</ele><time>2026-03-28T11:21:12Z</time></trkpt><trkpt lat="45.519233859137024" lon="11.327751678428488"><ele>117.0</ele><time>2026-03-28T11:21:13Z</time></trkpt><trkpt lat="45.519292668989586" lon="11.327588558547577"><ele>117.0</ele><time>2026-03-28T11:21:14Z</time></trkpt><trkpt lat="45.519353336867184" lon="11.32742679309952"><ele>117.0</ele><time>2026-03-28T11:21:15Z</time></trkpt><trkpt lat="45.51942293452218" lon="11.327260397202926"><ele>117.25</ele><time>2026-03-28T11:21:16Z</time></trkpt><trkpt lat="45.51949697132185" lon="11.32709326419435"><ele>117.5</ele><time>2026-03-28T11:21:17Z</time></trkpt><trkpt lat="45.51957243400958" lon="11.326926423913063"><ele>117.75</ele><time>2026-03-28T11:21:18Z</time></trkpt><trkpt lat="45.51964916474789" lon="11.326756511557052"><ele>118.0</ele><time>2026-03-28T11:21:19Z</time></trkpt><trkpt lat="45.51972710585086" lon="11.326577708519904"><ele>118.25</ele><time>2026-03-28T11:21:20Z</time></trkpt><trkpt lat="45.5198188134293" lon="11.32641605767668"><ele>118.5</ele><time>2026-03-28T11:21:21Z</time></trkpt><trkpt lat="45.519901510378745" lon="11.32627148267324"><ele>118.75</ele><time>2026-03-28T11:21:22Z</time></trkpt><trkpt lat="45.51997458903362" lon="11.326135196866279"><ele>119.0</ele><time>2026-03-28T11:21:23Z</time></trkpt><trkpt lat="45.52004488799132" lon="11.326008530739118"><ele>119.0</ele><time>2026-03-28T11:21:24Z</time></trkpt><trkpt lat="45.52011486903332" lon="11.325881802674372"><ele>119.0</ele><time>2026-03-28T11:21:25Z</time></trkpt><trkpt lat="45.520185895968325" lon="11.32574813755505"><ele>119.0</ele><time>2026-03-28T11:21:26Z</time></trkpt><trkpt lat="45.520257571381606" lon="11.325611649268122"><ele>119.0</ele><time>2026-03-28T11:21:27Z</time></trkpt><trkpt lat="45.5203296182732" lon="11.325475343557954"><ele>119.25</ele><time>2026-03-28T11:21:28Z</time></trkpt><trkpt lat="45.5204059051022" lon="11.325335231979267"><ele>119.5</ele><time>2026-03-28T11:21:29Z</time></trkpt><trkpt lat="45.52047902071886" lon="11.32519159286345"><ele>119.75</ele><time>2026-03-28T11:21:30Z</time></trkpt><trkpt lat="45.52055827213606" lon="11.32504912101727"><ele>120.0</ele><time>2026-03-28T11:21:31Z</time></trkpt><trkpt lat="45.5206379431345" lon="11.324899720788084"><ele>120.0</ele><time>2026-03-28T11:21:32Z</time></trkpt><trkpt lat="45.520720840743905" lon="11.32475143019331"><ele>120.0</ele><time>2026-03-28T11:21:33Z</time></trkpt><trkpt lat="45.52080159714789" lon="11.324597688928097"><ele>120.0</ele><time>2026-03-28T11:21:34Z</time></trkpt><trkpt lat="45.520894886556576" lon="11.324418840595555"><ele>120.0</ele><time>2026-03-28T11:21:35Z</time></trkpt><trkpt lat="45.52098767559933" lon="11.324254757891353"><ele>120.0</ele><time>2026-03-28T11:21:36Z</time></trkpt><trkpt lat="45.521069511755414" lon="11.324104614562494"><ele>120.0</ele><time>2026-03-28T11:21:37Z</time></trkpt><trkpt lat="45.52114578229801" lon="11.323972914437144"><ele>120.0</ele><time>2026-03-28T11:21:38Z</time></trkpt><trkpt lat="45.52120903362716" lon="11.323856891218348"><ele>120.0</ele><time>2026-03-28T11:21:39Z</time></trkpt><trkpt lat="45.521269555305224" lon="11.323756543197977"><ele>120.0</ele><time>2026-03-28T11:21:40Z</time></trkpt><trkpt lat="45.52132426630682" lon="11.323661807890414"><ele>120.5</ele><time>2026-03-28T11:21:41Z</time></trkpt><trkpt lat="45.52137929433005" lon="11.32357148362452"><ele>121.0</ele><time>2026-03-28T11:21:42Z</time></trkpt><trkpt lat="45.521426817486706" lon="11.323490647539035"><ele>121.5</ele><time>2026-03-28T11:21:43Z</time></trkpt><trkpt lat="45.52148188008804" lon="11.323400430905043"><ele>122.0</ele><time>2026-03-28T11:21:44Z</time></trkpt><trkpt lat="45.521534557572494" lon="11.323306092855876"><ele>122.5</ele><time>2026-03-28T11:21:45Z</time></trkpt><trkpt lat="45.52158882124794" lon="11.323215145288733"><ele>123.0</ele><time>2026-03-28T11:21:46Z</time></trkpt><trkpt lat="45.52163628848794" lon="11.323125552611211"><ele>122.83333333333333</ele><time>2026-03-28T11:21:47Z</time></trkpt><trkpt lat="45.52168101282622" lon="11.323041614996544"><ele>122.66666666666666</ele><time>2026-03-28T11:21:48Z</time></trkpt><trkpt lat="45.5217300942764" lon="11.322954431973805"><ele>122.5</ele><time>2026-03-28T11:21:49Z</time></trkpt><trkpt lat="45.52177534458855" lon="11.322888211675881"><ele>122.33333333333333</ele><time>2026-03-28T11:21:50Z</time></trkpt><trkpt lat="45.52184651932718" lon="11.322776121955139"><ele>122.16666666666666</ele><time>2026-03-28T11:21:52Z</time></trkpt><trkpt lat="45.52190955448696" lon="11.322669346171745"><ele>122.0</ele><time>2026-03-28T11:21:54Z</time></trkpt><trkpt lat="45.52198145664475" lon="11.32255146387135"><ele>121.99999999999999</ele><time>2026-03-28T11:21:56Z</time></trkpt><trkpt lat="45.52201965577682" lon="11.32247989184239"><ele>122.0</ele><time>2026-03-28T11:21:57Z</time></trkpt><trkpt lat="45.52206213875637" lon="11.322409163391962"><ele>122.0</ele><time>2026-03-28T11:21:58Z</time></trkpt><trkpt lat="45.52215042850445" lon="11.32228394640747"><ele>122.0</ele><time>2026-03-28T11:22:00Z</time></trkpt><trkpt lat="45.52221005597778" lon="11.322227577621167"><ele>121.99999999999999</ele><time>2026-03-28T11:22:01Z</time></trkpt><trkpt lat="45.522274403316175" lon="11.322205665075378"><ele>122.0</ele><time>2026-03-28T11:22:02Z</time></trkpt><trkpt lat="45.52236516398159" lon="11.32220106711324"><ele>122.19999999999999</ele><time>2026-03-28T11:22:03Z</time></trkpt><trkpt lat="45.52245914852619" lon="11.32218837223667"><ele>122.39999999999999</ele><time>2026-03-28T11:22:04Z</time></trkpt><trkpt lat="45.52253889286219" lon="11.322146522181491"><ele>122.60000000000001</ele><time>2026-03-28T11:22:05Z</time></trkpt><trkpt lat="45.522673648898476" lon="11.32205925811493"><ele>122.80000000000001</ele><time>2026-03-28T11:22:07Z</time></trkpt><trkpt lat="45.52274097072106" lon="11.322036644777649"><ele>123.0</ele><time>2026-03-28T11:22:08Z</time></trkpt><trkpt lat="45.52281590876542" lon="11.322026596938422"><ele>123.0</ele><time>2026-03-28T11:22:09Z</time></trkpt><trkpt lat="45.52289949624055" lon="11.322040092693207"><ele>123.00000000000001</ele><time>2026-03-28T11:22:10Z</time></trkpt><trkpt lat="45.52298952419793" lon="11.322091578296478"><ele>123.00000000000001</ele><time>2026-03-28T11:22:11Z</time></trkpt><trkpt lat="45.52308749557234" lon="11.322164492051042"><ele>123.0</ele><time>2026-03-28T11:22:12Z</time></trkpt><trkpt lat="45.52317869374879" lon="11.322246829109439"><ele>123.0</ele><time>2026-03-28T11:22:13Z</time></trkpt><trkpt lat="45.52326234621884" lon="11.322326440431297"><ele>123.0</ele><time>2026-03-28T11:22:14Z</time></trkpt><trkpt lat="45.523343798290284" lon="11.322399247205492"><ele>123.00000000000001</ele><time>2026-03-28T11:22:15Z</time></trkpt><trkpt lat="45.52342590514633" lon="11.322477093456246"><ele>123.00000000000001</ele><time>2026-03-28T11:22:16Z</time></trkpt><trkpt lat="45.523511468522955" lon="11.322560126846978"><ele>123.0</ele><time>2026-03-28T11:22:17Z</time></trkpt><trkpt lat="45.52360202551815" lon="11.322652991044313"><ele>123.0</ele><time>2026-03-28T11:22:18Z</time></trkpt><trkpt lat="45.52368759368517" lon="11.322736223761995"><ele>123.0</ele><time>2026-03-28T11:22:19Z</time></trkpt><trkpt lat="45.52376663882706" lon="11.322815460441989"><ele>123.0</ele><time>2026-03-28T11:22:20Z</time></trkpt><trkpt lat="45.52384554333019" lon="11.322894438859146"><ele>123.0</ele><time>2026-03-28T11:22:21Z</time></trkpt><trkpt lat="45.523919843706246" lon="11.322972623657167"><ele>123.0</ele><time>2026-03-28T11:22:22Z</time></trkpt><trkpt lat="45.52398877569358" lon="11.323033915497115"><ele>123.0</ele><time>2026-03-28T11:22:23Z</time></trkpt><trkpt lat="45.524059904741584" lon="11.323075141625786"><ele>123.0</ele><time>2026-03-28T11:22:24Z</time></trkpt><trkpt lat="45.52413372540298" lon="11.32309994323273"><ele>123.33333333333333</ele><time>2026-03-28T11:22:25Z</time></trkpt><trkpt lat="45.52421277721298" lon="11.323139471418138"><ele>123.66666666666666</ele><time>2026-03-28T11:22:26Z</time></trkpt><trkpt lat="45.524284686569864" lon="11.323193745873159"><ele>124.0</ele><time>2026-03-28T11:22:27Z</time></trkpt><trkpt lat="45.52436012073033" lon="11.323221914086997"><ele>124.33333333333333</ele><time>2026-03-28T11:22:28Z</time></trkpt><trkpt lat="45.52444628574706" lon="11.323239701150142"><ele>124.66666666666666</ele><time>2026-03-28T11:22:29Z</time></trkpt><trkpt lat="45.52453421974288" lon="11.32315969701894"><ele>125.0</ele><time>2026-03-28T11:22:30Z</time></trkpt><trkpt lat="45.524625943868244" lon="11.323102134379083"><ele>125.0</ele><time>2026-03-28T11:22:31Z</time></trkpt><trkpt lat="45.52471712599576" lon="11.32305731080964"><ele>125.0</ele><time>2026-03-28T11:22:32Z</time></trkpt><trkpt lat="45.52479970757333" lon="11.323008748090361"><ele>125.0</ele><time>2026-03-28T11:22:32.999Z</time></trkpt><trkpt lat="45.524882607610465" lon="11.322939376226762"><ele>125.0</ele><time>2026-03-28T11:22:33.999Z</time></trkpt><trkpt lat="45.524966046754216" lon="11.32286201791627"><ele>125.0</ele><time>2026-03-28T11:22:34.999Z</time></trkpt><trkpt lat="45.52504251880816" lon="11.322776567140274"><ele>125.0</ele><time>2026-03-28T11:22:35.999Z</time></trkpt><trkpt lat="45.52512764956567" lon="11.322712143531485"><ele>125.0</ele><time>2026-03-28T11:22:36.999Z</time></trkpt><trkpt lat="45.52518859252756" lon="11.322606089915578"><ele>125.0</ele><time>2026-03-28T11:22:37.999Z</time></trkpt><trkpt lat="45.525270933118364" lon="11.322519692826917"><ele>125.0</ele><time>2026-03-28T11:22:38.999Z</time></trkpt><trkpt lat="45.52534588317528" lon="11.322398192077488"><ele>125.0</ele><time>2026-03-28T11:22:39.999Z</time></trkpt><trkpt lat="45.52542733130526" lon="11.322259146391142"><ele>125.5</ele><time>2026-03-28T11:22:40.999Z</time></trkpt><trkpt lat="45.5255100511656" lon="11.322113177107392"><ele>126.0</ele><time>2026-03-28T11:22:41.999Z</time></trkpt><trkpt lat="45.525572212880036" lon="11.321962033532504"><ele>126.5</ele><time>2026-03-28T11:22:42.999Z</time></trkpt><trkpt lat="45.52565195745664" lon="11.321853608490873"><ele>127.0</ele><time>2026-03-28T11:22:43.999Z</time></trkpt><trkpt lat="45.52570937088551" lon="11.321715948630679"><ele>127.0</ele><time>2026-03-28T11:22:44.999Z</time></trkpt><trkpt lat="45.525777872689055" lon="11.32159078665811"><ele>126.99999999999999</ele><time>2026-03-28T11:22:45.999Z</time></trkpt><trkpt lat="45.525842538867096" lon="11.3214665836906"><ele>126.99999999999999</ele><time>2026-03-28T11:22:46.999Z</time></trkpt><trkpt lat="45.52590561831849" lon="11.321344892924097"><ele>127.0</ele><time>2026-03-28T11:22:47.999Z</time></trkpt><trkpt lat="45.525961680127" lon="11.321238286132258"><ele>127.0</ele><time>2026-03-28T11:22:48.999Z</time></trkpt><trkpt lat="45.5260112644056" lon="11.32113756323159"><ele>126.8</ele><time>2026-03-28T11:22:49.999Z</time></trkpt><trkpt lat="45.52606358744811" lon="11.32102560538623"><ele>126.6</ele><time>2026-03-28T11:22:50.999Z</time></trkpt><trkpt lat="45.526119191571595" lon="11.32090437312419"><ele>126.39999999999999</ele><time>2026-03-28T11:22:51.999Z</time></trkpt><trkpt lat="45.526176631403935" lon="11.320765034140555"><ele>126.19999999999999</ele><time>2026-03-28T11:22:52.999Z</time></trkpt><trkpt lat="45.52623187310315" lon="11.320615265716862"><ele>126.0</ele><time>2026-03-28T11:22:53.999Z</time></trkpt><trkpt lat="45.52629068866286" lon="11.320439270643329"><ele>126.66666666666666</ele><time>2026-03-28T11:22:54.999Z</time></trkpt><trkpt lat="45.52634935586138" lon="11.320250094923427"><ele>127.33333333333333</ele><time>2026-03-28T11:22:55.999Z</time></trkpt><trkpt lat="45.52640677010393" lon="11.320058465085806"><ele>128.0</ele><time>2026-03-28T11:22:56.999Z</time></trkpt><trkpt lat="45.52646727337631" lon="11.319833949158037"><ele>127.66666666666666</ele><time>2026-03-28T11:22:57.999Z</time></trkpt><trkpt lat="45.52654297586198" lon="11.319569563408084"><ele>127.33333333333334</ele><time>2026-03-28T11:22:58.999Z</time></trkpt><trkpt lat="45.52665017526567" lon="11.319284595138313"><ele>127.0</ele><time>2026-03-28T11:22:59.999Z</time></trkpt><trkpt lat="45.526731206391176" lon="11.319015761773676"><ele>127.0</ele><time>2026-03-28T11:23:00.999Z</time></trkpt><trkpt lat="45.52680879381392" lon="11.318762718358574"><ele>127.0</ele><time>2026-03-28T11:23:01.999Z</time></trkpt><trkpt lat="45.526888848490444" lon="11.318514826516624"><ele>127.0</ele><time>2026-03-28T11:23:02.999Z</time></trkpt><trkpt lat="45.52695873313816" lon="11.318277888467241"><ele>127.0</ele><time>2026-03-28T11:23:03.999Z</time></trkpt><trkpt lat="45.52703914598429" lon="11.318074593607868"><ele>127.0</ele><time>2026-03-28T11:23:04.999Z</time></trkpt><trkpt lat="45.52711607722374" lon="11.317886865651683"><ele>127.0</ele><time>2026-03-28T11:23:06Z</time></trkpt><trkpt lat="45.52718600626825" lon="11.317712543648922"><ele>127.25</ele><time>2026-03-28T11:23:07Z</time></trkpt><trkpt lat="45.52725982362907" lon="11.317536248900025"><ele>127.5</ele><time>2026-03-28T11:23:08Z</time></trkpt><trkpt lat="45.52732814069582" lon="11.317368621625372"><ele>127.75</ele><time>2026-03-28T11:23:09Z</time></trkpt><trkpt lat="45.52739786712543" lon="11.317203299412235"><ele>128.0</ele><time>2026-03-28T11:23:10Z</time></trkpt><trkpt lat="45.527472102809455" lon="11.317043941004599"><ele>128.0</ele><time>2026-03-28T11:23:11Z</time></trkpt><trkpt lat="45.527543891137654" lon="11.316883182378497"><ele>128.0</ele><time>2026-03-28T11:23:12Z</time></trkpt><trkpt lat="45.52760764699078" lon="11.316727344473746"><ele>128.0</ele><time>2026-03-28T11:23:13Z</time></trkpt><trkpt lat="45.527673309077045" lon="11.316576340976662"><ele>128.0</ele><time>2026-03-28T11:23:14Z</time></trkpt><trkpt lat="45.5277399647683" lon="11.316423886416073"><ele>127.75</ele><time>2026-03-28T11:23:15Z</time></trkpt><trkpt lat="45.52780458029668" lon="11.316269415107802"><ele>127.5</ele><time>2026-03-28T11:23:16Z</time></trkpt><trkpt lat="45.52786938590335" lon="11.31610422256317"><ele>127.25</ele><time>2026-03-28T11:23:17Z</time></trkpt><trkpt lat="45.527935493559646" lon="11.315936630472715"><ele>127.0</ele><time>2026-03-28T11:23:18Z</time></trkpt><trkpt lat="45.52800460976108" lon="11.315770762863355"><ele>129.25</ele><time>2026-03-28T11:23:19Z</time></trkpt><trkpt lat="45.52807898252936" lon="11.315603095481181"><ele>131.5</ele><time>2026-03-28T11:23:20Z</time></trkpt><trkpt lat="45.52815371015543" lon="11.315424483758672"><ele>133.75</ele><time>2026-03-28T11:23:21Z</time></trkpt><trkpt lat="45.52822976292909" lon="11.31524466313379"><ele>136.0</ele><time>2026-03-28T11:23:22Z</time></trkpt><trkpt lat="45.52830571281254" lon="11.315059281114225"><ele>136.0</ele><time>2026-03-28T11:23:23Z</time></trkpt><trkpt lat="45.5283850436537" lon="11.314881945688446"><ele>136.0</ele><time>2026-03-28T11:23:24Z</time></trkpt><trkpt lat="45.528457663124804" lon="11.314702249490225"><ele>136.0</ele><time>2026-03-28T11:23:25Z</time></trkpt><trkpt lat="45.52853034829962" lon="11.31453344674729"><ele>136.0</ele><time>2026-03-28T11:23:26Z</time></trkpt><trkpt lat="45.52860186887379" lon="11.314356826364829"><ele>135.66666666666669</ele><time>2026-03-28T11:23:27Z</time></trkpt><trkpt lat="45.528675706579214" lon="11.314175730187412"><ele>135.33333333333334</ele><time>2026-03-28T11:23:28Z</time></trkpt><trkpt lat="45.52875345009413" lon="11.313984810803197"><ele>135.0</ele><time>2026-03-28T11:23:29Z</time></trkpt><trkpt lat="45.52883440585889" lon="11.313793482377351"><ele>136.66666666666666</ele><time>2026-03-28T11:23:30Z</time></trkpt><trkpt lat="45.52891617488494" lon="11.313588717246366"><ele>138.33333333333331</ele><time>2026-03-28T11:23:31Z</time></trkpt><trkpt lat="45.52899283841443" lon="11.31339915891081"><ele>140.0</ele><time>2026-03-28T11:23:32Z</time></trkpt><trkpt lat="45.52906663744688" lon="11.313203521597096"><ele>138.33333333333331</ele><time>2026-03-28T11:23:33Z</time></trkpt><trkpt lat="45.52913960826724" lon="11.313002023207957"><ele>136.66666666666666</ele><time>2026-03-28T11:23:34Z</time></trkpt><trkpt lat="45.529211063052095" lon="11.312800961675665"><ele>135.0</ele><time>2026-03-28T11:23:35Z</time></trkpt><trkpt lat="45.52928454921589" lon="11.312608164192678"><ele>135.0</ele><time>2026-03-28T11:23:36Z</time></trkpt><trkpt lat="45.52935530279606" lon="11.312427136877929"><ele>135.0</ele><time>2026-03-28T11:23:37Z</time></trkpt><trkpt lat="45.52942011987943" lon="11.312258809863266"><ele>135.0</ele><time>2026-03-28T11:23:38Z</time></trkpt><trkpt lat="45.529478693633806" lon="11.31210128998977"><ele>135.0</ele><time>2026-03-28T11:23:39Z</time></trkpt><trkpt lat="45.52953338605842" lon="11.311956340490475"><ele>135.75</ele><time>2026-03-28T11:23:40Z</time></trkpt><trkpt lat="45.52958526732794" lon="11.311811541086199"><ele>136.5</ele><time>2026-03-28T11:23:41Z</time></trkpt><trkpt lat="45.52964040774635" lon="11.311663832559105"><ele>137.25</ele><time>2026-03-28T11:23:42Z</time></trkpt><trkpt lat="45.529695300968854" lon="11.311513643412551"><ele>138.0</ele><time>2026-03-28T11:23:43Z</time></trkpt><trkpt lat="45.52974799993823" lon="11.311374130347726"><ele>138.0</ele><time>2026-03-28T11:23:44Z</time></trkpt><trkpt lat="45.529797517252156" lon="11.311238532730458"><ele>138.0</ele><time>2026-03-28T11:23:45Z</time></trkpt><trkpt lat="45.52984766081551" lon="11.311103103540473"><ele>138.0</ele><time>2026-03-28T11:23:46Z</time></trkpt><trkpt lat="45.52989939932298" lon="11.310959801803795"><ele>138.0</ele><time>2026-03-28T11:23:47Z</time></trkpt><trkpt lat="45.52995379168052" lon="11.310813933548157"><ele>138.0</ele><time>2026-03-28T11:23:48Z</time></trkpt><trkpt lat="45.5300120818434" lon="11.31065990387704"><ele>137.75</ele><time>2026-03-28T11:23:49Z</time></trkpt><trkpt lat="45.53006913569373" lon="11.31050244334048"><ele>137.5</ele><time>2026-03-28T11:23:50Z</time></trkpt><trkpt lat="45.53012839690287" lon="11.310338693499741"><ele>137.25</ele><time>2026-03-28T11:23:51Z</time></trkpt><trkpt lat="45.53018575643006" lon="11.310182596201852"><ele>137.0</ele><time>2026-03-28T11:23:52Z</time></trkpt><trkpt lat="45.530243472440404" lon="11.310035158354403"><ele>137.0</ele><time>2026-03-28T11:23:53Z</time></trkpt><trkpt lat="45.530301057787135" lon="11.309889919294628"><ele>137.0</ele><time>2026-03-28T11:23:54Z</time></trkpt><trkpt lat="45.530358546148285" lon="11.309740669853268"><ele>137.0</ele><time>2026-03-28T11:23:55Z</time></trkpt><trkpt lat="45.53041652280931" lon="11.30958994316458"><ele>137.0</ele><time>2026-03-28T11:23:56Z</time></trkpt><trkpt lat="45.53047393886863" lon="11.309453724193805"><ele>137.2</ele><time>2026-03-28T11:23:57Z</time></trkpt><trkpt lat="45.530527863483194" lon="11.309321288667835"><ele>137.39999999999998</ele><time>2026-03-28T11:23:58Z</time></trkpt><trkpt lat="45.53057716891737" lon="11.30920311098992"><ele>137.60000000000002</ele><time>2026-03-28T11:23:59Z</time></trkpt><trkpt lat="45.53062291376278" lon="11.309096047858723"><ele>137.8</ele><time>2026-03-28T11:24:00Z</time></trkpt><trkpt lat="45.53066354863184" lon="11.308993080881"><ele>138.0</ele><time>2026-03-28T11:24:01Z</time></trkpt><trkpt lat="45.53070028221974" lon="11.308892602641894"><ele>137.66666666666666</ele><time>2026-03-28T11:24:02Z</time></trkpt><trkpt lat="45.530757239295085" lon="11.308810501531761"><ele>137.33333333333334</ele><time>2026-03-28T11:24:03Z</time></trkpt><trkpt lat="45.53078892753129" lon="11.308714411877755"><ele>137.0</ele><time>2026-03-28T11:24:04Z</time></trkpt><trkpt lat="45.5308293162813" lon="11.308636883747537"><ele>136.66666666666669</ele><time>2026-03-28T11:24:05Z</time></trkpt><trkpt lat="45.53086864080937" lon="11.308565183094265"><ele>136.33333333333334</ele><time>2026-03-28T11:24:06Z</time></trkpt><trkpt lat="45.53094323864035" lon="11.308453735352268"><ele>136.0</ele><time>2026-03-28T11:24:08Z</time></trkpt><trkpt lat="45.530993480550116" lon="11.30839481471868"><ele>136.0</ele><time>2026-03-28T11:24:10Z</time></trkpt><trkpt lat="45.53113528970607" lon="11.308373315725834"><ele>136.0</ele><time>2026-03-28T11:24:12Z</time></trkpt><trkpt lat="45.53124821176711" lon="11.308257330155067"><ele>136.0</ele><time>2026-03-28T11:24:14Z</time></trkpt><trkpt lat="45.5312823253383" lon="11.30815266659386"><ele>136.0</ele><time>2026-03-28T11:24:15Z</time></trkpt><trkpt lat="45.531291837187545" lon="11.308015005268153"><ele>136.4</ele><time>2026-03-28T11:24:16Z</time></trkpt><trkpt lat="45.53128188294166" lon="11.307891077824042"><ele>136.8</ele><time>2026-03-28T11:24:16.999Z</time></trkpt><trkpt lat="45.531278257665576" lon="11.307765025754708"><ele>137.20000000000002</ele><time>2026-03-28T11:24:17.999Z</time></trkpt><trkpt lat="45.531240091254574" lon="11.307653602634074"><ele>137.6</ele><time>2026-03-28T11:24:18.999Z</time></trkpt><trkpt lat="45.5313475578414" lon="11.307490674152547"><ele>138.0</ele><time>2026-03-28T11:24:19.999Z</time></trkpt><trkpt lat="45.53144915410907" lon="11.307366039070248"><ele>138.0</ele><time>2026-03-28T11:24:20.999Z</time></trkpt><trkpt lat="45.53153525619831" lon="11.307186144546021"><ele>138.0</ele><time>2026-03-28T11:24:21.999Z</time></trkpt><trkpt lat="45.531641888002085" lon="11.30701636558542"><ele>138.0</ele><time>2026-03-28T11:24:22.999Z</time></trkpt><trkpt lat="45.53175849228063" lon="11.306817575768665"><ele>138.0</ele><time>2026-03-28T11:24:23.999Z</time></trkpt><trkpt lat="45.531873029786475" lon="11.306620446476492"><ele>138.0</ele><time>2026-03-28T11:24:24.999Z</time></trkpt><trkpt lat="45.531995248508025" lon="11.306411934426698"><ele>138.0</ele><time>2026-03-28T11:24:25.999Z</time></trkpt><trkpt lat="45.53212603032792" lon="11.306234281093541"><ele>138.33333333333334</ele><time>2026-03-28T11:24:26.999Z</time></trkpt><trkpt lat="45.532229030649745" lon="11.306056004242514"><ele>138.66666666666669</ele><time>2026-03-28T11:24:27.999Z</time></trkpt><trkpt lat="45.53230471295892" lon="11.305879649541055"><ele>139.0</ele><time>2026-03-28T11:24:28.999Z</time></trkpt><trkpt lat="45.53239560617459" lon="11.305699770972868"><ele>139.66666666666669</ele><time>2026-03-28T11:24:29.999Z</time></trkpt><trkpt lat="45.53248898908628" lon="11.305507220061148"><ele>140.33333333333334</ele><time>2026-03-28T11:24:30.999Z</time></trkpt><trkpt lat="45.53258201476497" lon="11.305313191317456"><ele>141.0</ele><time>2026-03-28T11:24:31.999Z</time></trkpt><trkpt lat="45.53267263094165" lon="11.305113419547077"><ele>141.0</ele><time>2026-03-28T11:24:32.999Z</time></trkpt><trkpt lat="45.532755551178376" lon="11.304932121072019"><ele>141.0</ele><time>2026-03-28T11:24:33.999Z</time></trkpt><trkpt lat="45.5328569237887" lon="11.304773765198318"><ele>141.0</ele><time>2026-03-28T11:24:34.999Z</time></trkpt><trkpt lat="45.532935865869426" lon="11.304603616293104"><ele>141.0</ele><time>2026-03-28T11:24:35.999Z</time></trkpt><trkpt lat="45.53299616491734" lon="11.304435621869926"><ele>142.0</ele><time>2026-03-28T11:24:36.999Z</time></trkpt><trkpt lat="45.53306677568637" lon="11.304287658294864"><ele>143.0</ele><time>2026-03-28T11:24:37.999Z</time></trkpt><trkpt lat="45.53313524433646" lon="11.304146795434578"><ele>144.0</ele><time>2026-03-28T11:24:38.999Z</time></trkpt><trkpt lat="45.53320423858982" lon="11.304002294422764"><ele>145.0</ele><time>2026-03-28T11:24:39.999Z</time></trkpt><trkpt lat="45.53327242313586" lon="11.303843794622114"><ele>145.0</ele><time>2026-03-28T11:24:40.999Z</time></trkpt><trkpt lat="45.53334597140877" lon="11.3036742322636"><ele>145.0</ele><time>2026-03-28T11:24:41.999Z</time></trkpt><trkpt lat="45.53342951640702" lon="11.303532193421104"><ele>145.0</ele><time>2026-03-28T11:24:42.999Z</time></trkpt><trkpt lat="45.533490445574806" lon="11.303398437536261"><ele>145.0</ele><time>2026-03-28T11:24:43.999Z</time></trkpt><trkpt lat="45.53353793556131" lon="11.303260529314034"><ele>145.0</ele><time>2026-03-28T11:24:44.999Z</time></trkpt><trkpt lat="45.53360094034503" lon="11.303129414809238"><ele>145.0</ele><time>2026-03-28T11:24:45.999Z</time></trkpt><trkpt lat="45.53366249314125" lon="11.30300797125308"><ele>145.0</ele><time>2026-03-28T11:24:46.999Z</time></trkpt><trkpt lat="45.53372731819652" lon="11.302878586217894"><ele>145.0</ele><time>2026-03-28T11:24:47.999Z</time></trkpt><trkpt lat="45.533787194382334" lon="11.302735636019143"><ele>145.0</ele><time>2026-03-28T11:24:48.999Z</time></trkpt><trkpt lat="45.53384595621089" lon="11.302596748274562"><ele>145.0</ele><time>2026-03-28T11:24:49.999Z</time></trkpt><trkpt lat="45.53391079787921" lon="11.30246580309302"><ele>145.0</ele><time>2026-03-28T11:24:50.999Z</time></trkpt><trkpt lat="45.53397224986964" lon="11.302335951475335"><ele>145.0</ele><time>2026-03-28T11:24:51.999Z</time></trkpt><trkpt lat="45.53404323758907" lon="11.302174831984441"><ele>145.0</ele><time>2026-03-28T11:24:52.999Z</time></trkpt><trkpt lat="45.53412575576557" lon="11.301973285570893"><ele>145.0</ele><time>2026-03-28T11:24:53.999Z</time></trkpt><trkpt lat="45.534228840279816" lon="11.301732581708949"><ele>145.0</ele><time>2026-03-28T11:24:54.999Z</time></trkpt><trkpt lat="45.53435415186533" lon="11.30149813415415"><ele>145.0</ele><time>2026-03-28T11:24:55.999Z</time></trkpt><trkpt lat="45.53445578400527" lon="11.301273545770885"><ele>146.0</ele><time>2026-03-28T11:24:56.999Z</time></trkpt><trkpt lat="45.534555828006944" lon="11.301052449032268"><ele>147.0</ele><time>2026-03-28T11:24:57.999Z</time></trkpt><trkpt lat="45.53465553348903" lon="11.300832762899374"><ele>148.0</ele><time>2026-03-28T11:24:58.999Z</time></trkpt><trkpt lat="45.534755842043005" lon="11.300612003809412"><ele>148.0</ele><time>2026-03-28T11:24:59.999Z</time></trkpt><trkpt lat="45.53482286774742" lon="11.300398868946163"><ele>148.0</ele><time>2026-03-28T11:25:00.999Z</time></trkpt><trkpt lat="45.53491034192413" lon="11.300220299486398"><ele>148.0</ele><time>2026-03-28T11:25:01.999Z</time></trkpt><trkpt lat="45.53498858034191" lon="11.300050549003522"><ele>148.0</ele><time>2026-03-28T11:25:02.999Z</time></trkpt><trkpt lat="45.535084050028196" lon="11.299830634371446"><ele>148.0</ele><time>2026-03-28T11:25:03.999Z</time></trkpt><trkpt lat="45.53519968788328" lon="11.299570174417008"><ele>148.0</ele><time>2026-03-28T11:25:04.999Z</time></trkpt><trkpt lat="45.5353282385747" lon="11.29930595573804"><ele>148.33333333333334</ele><time>2026-03-28T11:25:05.999Z</time></trkpt><trkpt lat="45.53544060989376" lon="11.299064056415405"><ele>148.66666666666666</ele><time>2026-03-28T11:25:06.999Z</time></trkpt><trkpt lat="45.53554483043548" lon="11.298838012473032"><ele>149.0</ele><time>2026-03-28T11:25:07.999Z</time></trkpt><trkpt lat="45.53565298665138" lon="11.298604800833187"><ele>149.0</ele><time>2026-03-28T11:25:08.999Z</time></trkpt><trkpt lat="45.53575549538952" lon="11.298383142928476"><ele>149.0</ele><time>2026-03-28T11:25:09.999Z</time></trkpt><trkpt lat="45.535856424393636" lon="11.298165388075308"><ele>149.0</ele><time>2026-03-28T11:25:10.999Z</time></trkpt><trkpt lat="45.53595306025063" lon="11.297953502471618"><ele>149.0</ele><time>2026-03-28T11:25:12Z</time></trkpt><trkpt lat="45.53605128094626" lon="11.297741499628433"><ele>149.0</ele><time>2026-03-28T11:25:13Z</time></trkpt><trkpt lat="45.53614458672846" lon="11.297535993411726"><ele>149.0</ele><time>2026-03-28T11:25:14Z</time></trkpt><trkpt lat="45.53624446778829" lon="11.297324037579452"><ele>149.0</ele><time>2026-03-28T11:25:15Z</time></trkpt><trkpt lat="45.536344219088875" lon="11.29711602931087"><ele>149.0</ele><time>2026-03-28T11:25:16Z</time></trkpt><trkpt lat="45.5364419542279" lon="11.296918790064193"><ele>149.0</ele><time>2026-03-28T11:25:17Z</time></trkpt><trkpt lat="45.53653469765516" lon="11.296730631797075"><ele>149.0</ele><time>2026-03-28T11:25:18Z</time></trkpt><trkpt lat="45.536610696788024" lon="11.29658118442651"><ele>149.0</ele><time>2026-03-28T11:25:19Z</time></trkpt><trkpt lat="45.53667441671426" lon="11.296453079632338"><ele>149.0</ele><time>2026-03-28T11:25:20Z</time></trkpt><trkpt lat="45.53673370253252" lon="11.29633679577765"><ele>149.0</ele><time>2026-03-28T11:25:21Z</time></trkpt><trkpt lat="45.536791123344535" lon="11.296228886703231"><ele>149.0</ele><time>2026-03-28T11:25:22Z</time></trkpt><trkpt lat="45.53685274605216" lon="11.29610334885022"><ele>149.6</ele><time>2026-03-28T11:25:23Z</time></trkpt><trkpt lat="45.536935199375556" lon="11.295983564916881"><ele>150.2</ele><time>2026-03-28T11:25:24Z</time></trkpt><trkpt lat="45.53698187371771" lon="11.295855957690685"><ele>150.79999999999998</ele><time>2026-03-28T11:25:25Z</time></trkpt><trkpt lat="45.53703559884387" lon="11.29575530393522"><ele>151.4</ele><time>2026-03-28T11:25:26Z</time></trkpt><trkpt lat="45.53709249888535" lon="11.295647243489146"><ele>152.0</ele><time>2026-03-28T11:25:27Z</time></trkpt><trkpt lat="45.53718513953878" lon="11.295506188154706"><ele>152.5</ele><time>2026-03-28T11:25:28Z</time></trkpt><trkpt lat="45.53727850115074" lon="11.295326522873628"><ele>153.0</ele><time>2026-03-28T11:25:29Z</time></trkpt><trkpt lat="45.53735618321707" lon="11.295143419499249"><ele>153.5</ele><time>2026-03-28T11:25:30Z</time></trkpt><trkpt lat="45.53742794346756" lon="11.294997602023866"><ele>154.0</ele><time>2026-03-28T11:25:31Z</time></trkpt><trkpt lat="45.53749474736017" lon="11.294861362974359"><ele>154.5</ele><time>2026-03-28T11:25:32Z</time></trkpt><trkpt lat="45.53755108049181" lon="11.294727697061044"><ele>155.0</ele><time>2026-03-28T11:25:33Z</time></trkpt><trkpt lat="45.53760804335" lon="11.294569009369843"><ele>155.5</ele><time>2026-03-28T11:25:34Z</time></trkpt><trkpt lat="45.537660787472056" lon="11.294409435455812"><ele>156.0</ele><time>2026-03-28T11:25:35Z</time></trkpt><trkpt lat="45.53771318387349" lon="11.294255351423134"><ele>156.0</ele><time>2026-03-28T11:25:36Z</time></trkpt><trkpt lat="45.5377600156559" lon="11.29411474499073"><ele>156.0</ele><time>2026-03-28T11:25:37Z</time></trkpt><trkpt lat="45.53780234813689" lon="11.293986711598972"><ele>156.0</ele><time>2026-03-28T11:25:38Z</time></trkpt><trkpt lat="45.53784327162399" lon="11.293862357388877"><ele>156.0</ele><time>2026-03-28T11:25:39Z</time></trkpt><trkpt lat="45.537886324165676" lon="11.293735272533675"><ele>156.0</ele><time>2026-03-28T11:25:40Z</time></trkpt><trkpt lat="45.53793541137181" lon="11.293609168890207"><ele>156.25</ele><time>2026-03-28T11:25:41Z</time></trkpt><trkpt lat="45.537984809939786" lon="11.293473741782186"><ele>156.5</ele><time>2026-03-28T11:25:42Z</time></trkpt><trkpt lat="45.538033698995164" lon="11.293327174623268"><ele>156.75</ele><time>2026-03-28T11:25:43Z</time></trkpt><trkpt lat="45.53808777834709" lon="11.293173632982553"><ele>157.0</ele><time>2026-03-28T11:25:44Z</time></trkpt><trkpt lat="45.53814519073304" lon="11.293035369952362"><ele>157.0</ele><time>2026-03-28T11:25:45Z</time></trkpt><trkpt lat="45.538210395245976" lon="11.292895210283822"><ele>157.0</ele><time>2026-03-28T11:25:46Z</time></trkpt><trkpt lat="45.53828353697085" lon="11.292738281541405"><ele>157.0</ele><time>2026-03-28T11:25:47Z</time></trkpt><trkpt lat="45.538371962731716" lon="11.292576289066638"><ele>157.0</ele><time>2026-03-28T11:25:48Z</time></trkpt><trkpt lat="45.538465120561774" lon="11.292383697924656"><ele>157.33333333333334</ele><time>2026-03-28T11:25:49Z</time></trkpt><trkpt lat="45.53857299033345" lon="11.292176623860028"><ele>157.66666666666666</ele><time>2026-03-28T11:25:50Z</time></trkpt><trkpt lat="45.538675273289876" lon="11.291987832001075"><ele>158.0</ele><time>2026-03-28T11:25:51Z</time></trkpt><trkpt lat="45.53876139836324" lon="11.291829467259591"><ele>158.0</ele><time>2026-03-28T11:25:52Z</time></trkpt><trkpt lat="45.53884355582457" lon="11.291678398477801"><ele>158.0</ele><time>2026-03-28T11:25:53Z</time></trkpt><trkpt lat="45.53890755624868" lon="11.291526165343285"><ele>158.0</ele><time>2026-03-28T11:25:54Z</time></trkpt><trkpt lat="45.538979026081385" lon="11.291417093580757"><ele>158.0</ele><time>2026-03-28T11:25:55Z</time></trkpt><trkpt lat="45.53902501384969" lon="11.291326136261583"><ele>158.0</ele><time>2026-03-28T11:25:56Z</time></trkpt><trkpt lat="45.53910353962857" lon="11.291195619999835"><ele>158.20000000000002</ele><time>2026-03-28T11:25:58Z</time></trkpt><trkpt lat="45.539147557458094" lon="11.291101536922492"><ele>158.4</ele><time>2026-03-28T11:25:59Z</time></trkpt><trkpt lat="45.53920828952693" lon="11.290967022435547"><ele>158.60000000000002</ele><time>2026-03-28T11:26:00Z</time></trkpt><trkpt lat="45.5392964999189" lon="11.290845816469503"><ele>158.8</ele><time>2026-03-28T11:26:01Z</time></trkpt><trkpt lat="45.539358851812054" lon="11.290731368096804"><ele>159.0</ele><time>2026-03-28T11:26:02Z</time></trkpt><trkpt lat="45.53940745124877" lon="11.29064216085629"><ele>159.28571428571428</ele><time>2026-03-28T11:26:03Z</time></trkpt><trkpt lat="45.539447095445794" lon="11.290571115217903"><ele>159.57142857142858</ele><time>2026-03-28T11:26:04Z</time></trkpt><trkpt lat="45.53948687327819" lon="11.290454279881176"><ele>159.85714285714286</ele><time>2026-03-28T11:26:06Z</time></trkpt><trkpt lat="45.53954313790607" lon="11.290357610163568"><ele>160.14285714285714</ele><time>2026-03-28T11:26:08Z</time></trkpt><trkpt lat="45.53958783126743" lon="11.290281382102336"><ele>160.42857142857144</ele><time>2026-03-28T11:26:09Z</time></trkpt><trkpt lat="45.53962946134449" lon="11.290197220301005"><ele>160.71428571428572</ele><time>2026-03-28T11:26:10Z</time></trkpt><trkpt lat="45.53966889008425" lon="11.290125008640198"><ele>161.0</ele><time>2026-03-28T11:26:11Z</time></trkpt><trkpt lat="45.53971718611068" lon="11.290021816131521"><ele>161.0</ele><time>2026-03-28T11:26:12Z</time></trkpt><trkpt lat="45.539776119849584" lon="11.289901210252856"><ele>161.0</ele><time>2026-03-28T11:26:13Z</time></trkpt><trkpt lat="45.53986673361069" lon="11.289805283173708"><ele>161.0</ele><time>2026-03-28T11:26:14Z</time></trkpt><trkpt lat="45.53993394473745" lon="11.289681519194152"><ele>161.0</ele><time>2026-03-28T11:26:15Z</time></trkpt><trkpt lat="45.53998286344454" lon="11.289552923203216"><ele>161.0</ele><time>2026-03-28T11:26:16Z</time></trkpt><trkpt lat="45.54004485176106" lon="11.289442243191681"><ele>161.0</ele><time>2026-03-28T11:26:17Z</time></trkpt><trkpt lat="45.54010911459601" lon="11.289336117483247"><ele>161.0</ele><time>2026-03-28T11:26:18Z</time></trkpt><trkpt lat="45.5401660178688" lon="11.289228273522543"><ele>161.0</ele><time>2026-03-28T11:26:19Z</time></trkpt><trkpt lat="45.54021965411376" lon="11.289121805076416"><ele>161.0</ele><time>2026-03-28T11:26:20Z</time></trkpt><trkpt lat="45.540278086132076" lon="11.289019699580999"><ele>161.0</ele><time>2026-03-28T11:26:21Z</time></trkpt><trkpt lat="45.540339113147986" lon="11.288908212221946"><ele>161.20000000000002</ele><time>2026-03-28T11:26:22Z</time></trkpt><trkpt lat="45.540392160108816" lon="11.28880729699115"><ele>161.4</ele><time>2026-03-28T11:26:23Z</time></trkpt><trkpt lat="45.54043877271738" lon="11.28871558340423"><ele>161.6</ele><time>2026-03-28T11:26:24Z</time></trkpt><trkpt lat="45.54049119169477" lon="11.28862456070732"><ele>161.8</ele><time>2026-03-28T11:26:25Z</time></trkpt><trkpt lat="45.540551484841366" lon="11.288505788267297"><ele>162.0</ele><time>2026-03-28T11:26:26Z</time></trkpt><trkpt lat="45.540631077184834" lon="11.288382679135639"><ele>162.0</ele><time>2026-03-28T11:26:27Z</time></trkpt><trkpt lat="45.540721865016394" lon="11.28823069770367"><ele>162.0</ele><time>2026-03-28T11:26:28Z</time></trkpt><trkpt lat="45.54080077769152" lon="11.288069264686655"><ele>162.0</ele><time>2026-03-28T11:26:29Z</time></trkpt><trkpt lat="45.540881910888814" lon="11.287902497990542"><ele>162.0</ele><time>2026-03-28T11:26:30Z</time></trkpt><trkpt lat="45.54096845202959" lon="11.287736657798453"><ele>162.0</ele><time>2026-03-28T11:26:31Z</time></trkpt><trkpt lat="45.54105424211878" lon="11.287584722434831"><ele>162.0</ele><time>2026-03-28T11:26:32Z</time></trkpt><trkpt lat="45.54113785886979" lon="11.287450160386099"><ele>162.0</ele><time>2026-03-28T11:26:33Z</time></trkpt><trkpt lat="45.54121265340368" lon="11.287336412510541"><ele>162.0</ele><time>2026-03-28T11:26:34Z</time></trkpt><trkpt lat="45.54128667722283" lon="11.28724201713726"><ele>162.5</ele><time>2026-03-28T11:26:35Z</time></trkpt><trkpt lat="45.541372743597385" lon="11.287114385026777"><ele>163.0</ele><time>2026-03-28T11:26:36Z</time></trkpt><trkpt lat="45.54144987015539" lon="11.286919543831035"><ele>163.5</ele><time>2026-03-28T11:26:37Z</time></trkpt><trkpt lat="45.54152148044503" lon="11.286781191653505"><ele>164.0</ele><time>2026-03-28T11:26:38Z</time></trkpt><trkpt lat="45.54160661622794" lon="11.286659565085934"><ele>164.0</ele><time>2026-03-28T11:26:39Z</time></trkpt><trkpt lat="45.54170413610568" lon="11.286525345458806"><ele>164.0</ele><time>2026-03-28T11:26:40Z</time></trkpt><trkpt lat="45.541795671555484" lon="11.28640617223377"><ele>164.0</ele><time>2026-03-28T11:26:40.999Z</time></trkpt><trkpt lat="45.541880316222226" lon="11.286297753647888"><ele>164.0</ele><time>2026-03-28T11:26:41.999Z</time></trkpt><trkpt lat="45.54195846116432" lon="11.286199307893664"><ele>164.0</ele><time>2026-03-28T11:26:42.999Z</time></trkpt><trkpt lat="45.542019725989384" lon="11.28610533490906"><ele>164.0</ele><time>2026-03-28T11:26:43.999Z</time></trkpt><trkpt lat="45.542091036649275" lon="11.286013436621394"><ele>164.0</ele><time>2026-03-28T11:26:44.999Z</time></trkpt><trkpt lat="45.54216447895523" lon="11.28590767870452"><ele>164.0</ele><time>2026-03-28T11:26:45.999Z</time></trkpt><trkpt lat="45.54224569275499" lon="11.285807151851886"><ele>164.0</ele><time>2026-03-28T11:26:46.999Z</time></trkpt><trkpt lat="45.54232363013433" lon="11.285702721336358"><ele>164.0</ele><time>2026-03-28T11:26:47.999Z</time></trkpt><trkpt lat="45.54240115961114" lon="11.28560636818989"><ele>164.0</ele><time>2026-03-28T11:26:48.999Z</time></trkpt><trkpt lat="45.54246931274466" lon="11.285513422400891"><ele>164.0</ele><time>2026-03-28T11:26:49.999Z</time></trkpt><trkpt lat="45.54253568098257" lon="11.285431424627067"><ele>164.0</ele><time>2026-03-28T11:26:50.999Z</time></trkpt><trkpt lat="45.54259076057507" lon="11.285360467328793"><ele>164.0</ele><time>2026-03-28T11:26:51.999Z</time></trkpt><trkpt lat="45.542669862590714" lon="11.285260258595581"><ele>164.2</ele><time>2026-03-28T11:26:53.999Z</time></trkpt><trkpt lat="45.54273255160063" lon="11.28517784387561"><ele>164.39999999999998</ele><time>2026-03-28T11:26:56.999Z</time></trkpt><trkpt lat="45.542813043972465" lon="11.285082560756676"><ele>164.6</ele><time>2026-03-28T11:26:59.999Z</time></trkpt><trkpt lat="45.54288484614607" lon="11.284981525880633"><ele>164.8</ele><time>2026-03-28T11:27:00.999Z</time></trkpt><trkpt lat="45.54296158747613" lon="11.284884692760947"><ele>165.0</ele><time>2026-03-28T11:27:01.999Z</time></trkpt><trkpt lat="45.54305712250897" lon="11.284759652330012"><ele>165.0</ele><time>2026-03-28T11:27:02.999Z</time></trkpt><trkpt lat="45.543156089787175" lon="11.284630677038336"><ele>165.0</ele><time>2026-03-28T11:27:03.999Z</time></trkpt><trkpt lat="45.54325605837699" lon="11.284494741350532"><ele>165.0</ele><time>2026-03-28T11:27:04.999Z</time></trkpt><trkpt lat="45.543359297443665" lon="11.284349824549773"><ele>165.0</ele><time>2026-03-28T11:27:05.999Z</time></trkpt><trkpt lat="45.54345781110146" lon="11.284219429649019"><ele>165.0</ele><time>2026-03-28T11:27:06.999Z</time></trkpt><trkpt lat="45.54354540292605" lon="11.284090729022363"><ele>165.0</ele><time>2026-03-28T11:27:07.999Z</time></trkpt><trkpt lat="45.54362753072436" lon="11.283976336900366"><ele>165.0</ele><time>2026-03-28T11:27:08.999Z</time></trkpt><trkpt lat="45.54370440792722" lon="11.283866697201443"><ele>165.0</ele><time>2026-03-28T11:27:09.999Z</time></trkpt><trkpt lat="45.54377195822908" lon="11.283759041580792"><ele>165.16666666666666</ele><time>2026-03-28T11:27:10.999Z</time></trkpt><trkpt lat="45.54383950265239" lon="11.28367305091431"><ele>165.33333333333334</ele><time>2026-03-28T11:27:11.999Z</time></trkpt><trkpt lat="45.543902657345306" lon="11.283585527422018"><ele>165.5</ele><time>2026-03-28T11:27:12.999Z</time></trkpt><trkpt lat="45.543964768512595" lon="11.283505948457046"><ele>165.66666666666669</ele><time>2026-03-28T11:27:13.999Z</time></trkpt><trkpt lat="45.54401925462933" lon="11.283441862187168"><ele>165.83333333333334</ele><time>2026-03-28T11:27:14.999Z</time></trkpt><trkpt lat="45.54407052658029" lon="11.28336925714682"><ele>166.0</ele><time>2026-03-28T11:27:15.999Z</time></trkpt><trkpt lat="45.54411703072682" lon="11.283305849541087"><ele>166.0</ele><time>2026-03-28T11:27:16.999Z</time></trkpt><trkpt lat="45.54416987217875" lon="11.283246893299768"><ele>166.0</ele><time>2026-03-28T11:27:18Z</time></trkpt><trkpt lat="45.544218467062294" lon="11.283184161734287"><ele>166.0</ele><time>2026-03-28T11:27:19Z</time></trkpt><trkpt lat="45.544301551681706" lon="11.28307566768419"><ele>166.0</ele><time>2026-03-28T11:27:21Z</time></trkpt><trkpt lat="45.544387051001465" lon="11.282970577505504"><ele>166.0</ele><time>2026-03-28T11:27:23Z</time></trkpt><trkpt lat="45.54443529540027" lon="11.28291193375666"><ele>166.0</ele><time>2026-03-28T11:27:24Z</time></trkpt><trkpt lat="45.54452692641911" lon="11.282796170440978"><ele>166.5</ele><time>2026-03-28T11:27:26Z</time></trkpt><trkpt lat="45.54457617219794" lon="11.282731869347352"><ele>167.0</ele><time>2026-03-28T11:27:27Z</time></trkpt><trkpt lat="45.54462558186109" lon="11.282659808272781"><ele>167.5</ele><time>2026-03-28T11:27:28Z</time></trkpt><trkpt lat="45.54468064945837" lon="11.282583494376665"><ele>168.0</ele><time>2026-03-28T11:27:29Z</time></trkpt><trkpt lat="45.54474254415378" lon="11.282502243479739"><ele>168.5</ele><time>2026-03-28T11:27:30Z</time></trkpt><trkpt lat="45.54480940713583" lon="11.2824136796974"><ele>169.0</ele><time>2026-03-28T11:27:31Z</time></trkpt><trkpt lat="45.54487736005914" lon="11.282322899595986"><ele>169.39999999999998</ele><time>2026-03-28T11:27:32Z</time></trkpt><trkpt lat="45.54494799465655" lon="11.282230449060064"><ele>169.8</ele><time>2026-03-28T11:27:33Z</time></trkpt><trkpt lat="45.54502542632764" lon="11.282128840379478"><ele>170.2</ele><time>2026-03-28T11:27:34Z</time></trkpt><trkpt lat="45.54510367418025" lon="11.282019921896726"><ele>170.60000000000002</ele><time>2026-03-28T11:27:35Z</time></trkpt><trkpt lat="45.5451854780756" lon="11.28191176359083"><ele>171.0</ele><time>2026-03-28T11:27:36Z</time></trkpt><trkpt lat="45.54527467504061" lon="11.281793618887168"><ele>171.0</ele><time>2026-03-28T11:27:37Z</time></trkpt><trkpt lat="45.5453710038566" lon="11.281665833624093"><ele>171.0</ele><time>2026-03-28T11:27:38Z</time></trkpt><trkpt lat="45.54546446942301" lon="11.281543519449446"><ele>171.0</ele><time>2026-03-28T11:27:39Z</time></trkpt><trkpt lat="45.54556369523431" lon="11.281412328440332"><ele>171.0</ele><time>2026-03-28T11:27:40Z</time></trkpt><trkpt lat="45.545662705499694" lon="11.281275022146174"><ele>171.0</ele><time>2026-03-28T11:27:41Z</time></trkpt><trkpt lat="45.54575650001974" lon="11.281146622850823"><ele>171.0</ele><time>2026-03-28T11:27:42Z</time></trkpt><trkpt lat="45.54585796331579" lon="11.281004542683801"><ele>171.0</ele><time>2026-03-28T11:27:43Z</time></trkpt><trkpt lat="45.54593854892791" lon="11.280885863313824"><ele>171.0</ele><time>2026-03-28T11:27:44Z</time></trkpt><trkpt lat="45.546018102797156" lon="11.280777556315076"><ele>171.0</ele><time>2026-03-28T11:27:45Z</time></trkpt><trkpt lat="45.5461019851831" lon="11.280663605513942"><ele>171.0</ele><time>2026-03-28T11:27:46Z</time></trkpt><trkpt lat="45.54618496846646" lon="11.280549451482415"><ele>171.0</ele><time>2026-03-28T11:27:47Z</time></trkpt><trkpt lat="45.546267446523316" lon="11.28042188486445"><ele>171.0</ele><time>2026-03-28T11:27:48Z</time></trkpt><trkpt lat="45.546349545591575" lon="11.280301883388798"><ele>171.5</ele><time>2026-03-28T11:27:49Z</time></trkpt><trkpt lat="45.54644336498411" lon="11.2801729076238"><ele>172.0</ele><time>2026-03-28T11:27:50Z</time></trkpt><trkpt lat="45.546549883445856" lon="11.280042968277677"><ele>172.5</ele><time>2026-03-28T11:27:51Z</time></trkpt><trkpt lat="45.54666640894454" lon="11.279929183780638"><ele>173.0</ele><time>2026-03-28T11:27:52Z</time></trkpt><trkpt lat="45.54677614357735" lon="11.279813344041246"><ele>173.5</ele><time>2026-03-28T11:27:53Z</time></trkpt><trkpt lat="45.54688137109088" lon="11.279700786481422"><ele>174.0</ele><time>2026-03-28T11:27:54Z</time></trkpt><trkpt lat="45.546987910784765" lon="11.279587267509461"><ele>174.5</ele><time>2026-03-28T11:27:55Z</time></trkpt><trkpt lat="45.54709264187332" lon="11.279470620272754"><ele>175.0</ele><time>2026-03-28T11:27:56Z</time></trkpt><trkpt lat="45.547197199453905" lon="11.279344430229138"><ele>175.0</ele><time>2026-03-28T11:27:57Z</time></trkpt><trkpt lat="45.54729596447372" lon="11.279221313077592"><ele>175.0</ele><time>2026-03-28T11:27:58Z</time></trkpt><trkpt lat="45.54740005084734" lon="11.27910696729883"><ele>175.0</ele><time>2026-03-28T11:27:59Z</time></trkpt><trkpt lat="45.54750042944211" lon="11.278996421338688"><ele>175.0</ele><time>2026-03-28T11:28:00Z</time></trkpt><trkpt lat="45.547604019002925" lon="11.278888898830767"><ele>175.0</ele><time>2026-03-28T11:28:01Z</time></trkpt><trkpt lat="45.54769947746563" lon="11.278786378544913"><ele>175.0</ele><time>2026-03-28T11:28:02Z</time></trkpt><trkpt lat="45.54779396098891" lon="11.278685454557689"><ele>175.0</ele><time>2026-03-28T11:28:03Z</time></trkpt><trkpt lat="45.547888852505615" lon="11.278582103956701"><ele>175.0</ele><time>2026-03-28T11:28:04Z</time></trkpt><trkpt lat="45.54798838518351" lon="11.278484499272507"><ele>175.0</ele><time>2026-03-28T11:28:05Z</time></trkpt><trkpt lat="45.548087598115714" lon="11.278375588410116"><ele>175.0</ele><time>2026-03-28T11:28:06Z</time></trkpt><trkpt lat="45.548187999432535" lon="11.27825988494564"><ele>175.0</ele><time>2026-03-28T11:28:07Z</time></trkpt><trkpt lat="45.54829136721484" lon="11.278147783514891"><ele>175.0</ele><time>2026-03-28T11:28:08Z</time></trkpt><trkpt lat="45.54839251803417" lon="11.278042225002126"><ele>175.0</ele><time>2026-03-28T11:28:09Z</time></trkpt><trkpt lat="45.54849301004963" lon="11.277927744795386"><ele>175.0</ele><time>2026-03-28T11:28:10Z</time></trkpt><trkpt lat="45.54859544786827" lon="11.277821392666889"><ele>175.0</ele><time>2026-03-28T11:28:11Z</time></trkpt><trkpt lat="45.548699031919824" lon="11.27771662919104"><ele>175.0</ele><time>2026-03-28T11:28:12Z</time></trkpt><trkpt lat="45.5488044441992" lon="11.277614658238061"><ele>175.0</ele><time>2026-03-28T11:28:13Z</time></trkpt><trkpt lat="45.548925135397944" lon="11.277521023705262"><ele>175.0</ele><time>2026-03-28T11:28:14Z</time></trkpt><trkpt lat="45.54904157083127" lon="11.27741845956369"><ele>175.0</ele><time>2026-03-28T11:28:15Z</time></trkpt><trkpt lat="45.54916014146908" lon="11.277317181786106"><ele>175.0</ele><time>2026-03-28T11:28:16Z</time></trkpt><trkpt lat="45.5492831862706" lon="11.277214723033545"><ele>175.75</ele><time>2026-03-28T11:28:17Z</time></trkpt><trkpt lat="45.54939647731676" lon="11.277116612548514"><ele>176.5</ele><time>2026-03-28T11:28:18Z</time></trkpt><trkpt lat="45.549523165916966" lon="11.277004867019986"><ele>177.25</ele><time>2026-03-28T11:28:19Z</time></trkpt><trkpt lat="45.54964572593805" lon="11.276898650924851"><ele>178.0</ele><time>2026-03-28T11:28:20Z</time></trkpt><trkpt lat="45.54976505941729" lon="11.276794179281557"><ele>178.0</ele><time>2026-03-28T11:28:21Z</time></trkpt><trkpt lat="45.549888422674464" lon="11.276690232365798"><ele>178.0</ele><time>2026-03-28T11:28:22Z</time></trkpt><trkpt lat="45.54999622466169" lon="11.276591003379313"><ele>178.0</ele><time>2026-03-28T11:28:23Z</time></trkpt><trkpt lat="45.55009455921715" lon="11.276504558172824"><ele>178.0</ele><time>2026-03-28T11:28:24Z</time></trkpt><trkpt lat="45.55017985114579" lon="11.27642672082766"><ele>178.16666666666669</ele><time>2026-03-28T11:28:25Z</time></trkpt><trkpt lat="45.550263318356734" lon="11.276356471498788"><ele>178.33333333333334</ele><time>2026-03-28T11:28:26Z</time></trkpt><trkpt lat="45.55034257020027" lon="11.276285599165364"><ele>178.5</ele><time>2026-03-28T11:28:27Z</time></trkpt><trkpt lat="45.55041424217023" lon="11.27622313518659"><ele>178.66666666666666</ele><time>2026-03-28T11:28:28Z</time></trkpt><trkpt lat="45.55047545858772" lon="11.276171308769772"><ele>178.83333333333331</ele><time>2026-03-28T11:28:29Z</time></trkpt><trkpt lat="45.55052981169664" lon="11.276123672719363"><ele>179.0</ele><time>2026-03-28T11:28:31Z</time></trkpt><trkpt lat="45.55059348121464" lon="11.276061974714127"><ele>179.39999999999998</ele><time>2026-03-28T11:28:34Z</time></trkpt><trkpt lat="45.55051815324408" lon="11.275883110799526"><ele>179.8</ele><time>2026-03-28T11:28:35Z</time></trkpt><trkpt lat="45.55047424687007" lon="11.275798931635084"><ele>180.2</ele><time>2026-03-28T11:28:36Z</time></trkpt><trkpt lat="45.550434333317824" lon="11.275720648281604"><ele>180.60000000000002</ele><time>2026-03-28T11:28:37Z</time></trkpt><trkpt lat="45.5503852248962" lon="11.275602368540413"><ele>181.0</ele><time>2026-03-28T11:28:39Z</time></trkpt><trkpt lat="45.55030511969484" lon="11.275522241663134"><ele>181.0</ele><time>2026-03-28T11:29:51Z</time></trkpt><trkpt lat="45.55025755876794" lon="11.275455727262367"><ele>181.0</ele><time>2026-03-28T11:29:52Z</time></trkpt><trkpt lat="45.55023423270457" lon="11.27536157294621"><ele>181.0</ele><time>2026-03-28T11:29:53Z</time></trkpt><trkpt lat="45.55023255530146" lon="11.275237726290833"><ele>181.0</ele><time>2026-03-28T11:29:54Z</time></trkpt><trkpt lat="45.550239644993944" lon="11.275121148063397"><ele>181.0</ele><time>2026-03-28T11:29:55Z</time></trkpt><trkpt lat="45.55027752511244" lon="11.2749876166807"><ele>181.0</ele><time>2026-03-28T11:29:56Z</time></trkpt><trkpt lat="45.55035020854796" lon="11.2748570855384"><ele>181.5</ele><time>2026-03-28T11:29:57Z</time></trkpt><trkpt lat="45.550420249538334" lon="11.274711617671516"><ele>182.0</ele><time>2026-03-28T11:29:58Z</time></trkpt><trkpt lat="45.5504814314467" lon="11.274543997522608"><ele>182.5</ele><time>2026-03-28T11:29:59Z</time></trkpt><trkpt lat="45.550553037220126" lon="11.274405040470906"><ele>183.0</ele><time>2026-03-28T11:30:00Z</time></trkpt><trkpt lat="45.55062842115399" lon="11.274274189807027"><ele>183.0</ele><time>2026-03-28T11:30:01Z</time></trkpt><trkpt lat="45.550704538767455" lon="11.274135239327448"><ele>183.0</ele><time>2026-03-28T11:30:02Z</time></trkpt><trkpt lat="45.55077243453869" lon="11.273960598498407"><ele>183.0</ele><time>2026-03-28T11:30:03Z</time></trkpt><trkpt lat="45.5508436624791" lon="11.273770433808686"><ele>183.0</ele><time>2026-03-28T11:30:04Z</time></trkpt><trkpt lat="45.55092667656239" lon="11.273571265006122"><ele>183.0</ele><time>2026-03-28T11:30:05Z</time></trkpt><trkpt lat="45.55099229025368" lon="11.273382219184175"><ele>183.0</ele><time>2026-03-28T11:30:06Z</time></trkpt><trkpt lat="45.5510584629692" lon="11.27321408020909"><ele>183.0</ele><time>2026-03-28T11:30:07Z</time></trkpt><trkpt lat="45.55111832016635" lon="11.273063848574738"><ele>183.0</ele><time>2026-03-28T11:30:08Z</time></trkpt><trkpt lat="45.55118327368193" lon="11.272936709093479"><ele>183.0</ele><time>2026-03-28T11:30:09Z</time></trkpt><trkpt lat="45.55124884679999" lon="11.272820776926933"><ele>183.0</ele><time>2026-03-28T11:30:10Z</time></trkpt><trkpt lat="45.55131793997618" lon="11.272712911549464"><ele>183.0</ele><time>2026-03-28T11:30:11Z</time></trkpt><trkpt lat="45.55139128610063" lon="11.272606331215462"><ele>183.0</ele><time>2026-03-28T11:30:12Z</time></trkpt><trkpt lat="45.55146445651739" lon="11.272504219013175"><ele>183.0</ele><time>2026-03-28T11:30:13Z</time></trkpt><trkpt lat="45.55153666757031" lon="11.272403611433912"><ele>183.0</ele><time>2026-03-28T11:30:14Z</time></trkpt><trkpt lat="45.551609666956764" lon="11.272309469207858"><ele>183.0</ele><time>2026-03-28T11:30:15Z</time></trkpt><trkpt lat="45.551683796153974" lon="11.272213922987921"><ele>183.0</ele><time>2026-03-28T11:30:16Z</time></trkpt><trkpt lat="45.55175769992839" lon="11.272121918117607"><ele>183.0</ele><time>2026-03-28T11:30:17Z</time></trkpt><trkpt lat="45.55184155710481" lon="11.272030159486112"><ele>183.0</ele><time>2026-03-28T11:30:18Z</time></trkpt><trkpt lat="45.55192559475566" lon="11.27194390452379"><ele>183.5</ele><time>2026-03-28T11:30:19Z</time></trkpt><trkpt lat="45.55201128806728" lon="11.271837880527608"><ele>184.0</ele><time>2026-03-28T11:30:20Z</time></trkpt><trkpt lat="45.552098223501254" lon="11.271717985793462"><ele>184.5</ele><time>2026-03-28T11:30:21Z</time></trkpt><trkpt lat="45.55218725546237" lon="11.271600089089006"><ele>185.0</ele><time>2026-03-28T11:30:22Z</time></trkpt><trkpt lat="45.55228287433007" lon="11.271479353233255"><ele>184.75</ele><time>2026-03-28T11:30:23Z</time></trkpt><trkpt lat="45.55238213254239" lon="11.27136934598785"><ele>184.5</ele><time>2026-03-28T11:30:24Z</time></trkpt><trkpt lat="45.55247996807184" lon="11.271270869211113"><ele>184.25</ele><time>2026-03-28T11:30:25Z</time></trkpt><trkpt lat="45.552568454067696" lon="11.271175607702656"><ele>184.0</ele><time>2026-03-28T11:30:26Z</time></trkpt><trkpt lat="45.552656947177844" lon="11.271104287278952"><ele>184.0</ele><time>2026-03-28T11:30:27Z</time></trkpt><trkpt lat="45.55274397204454" lon="11.271043239492721"><ele>184.0</ele><time>2026-03-28T11:30:28Z</time></trkpt><trkpt lat="45.55282514000527" lon="11.270999938040637"><ele>184.0</ele><time>2026-03-28T11:30:29Z</time></trkpt><trkpt lat="45.55290230243041" lon="11.270981358356103"><ele>184.0</ele><time>2026-03-28T11:30:30Z</time></trkpt><trkpt lat="45.552966911927804" lon="11.27095358918294"><ele>184.0</ele><time>2026-03-28T11:30:31Z</time></trkpt><trkpt lat="45.55302755843316" lon="11.270904618461588"><ele>184.0</ele><time>2026-03-28T11:30:32Z</time></trkpt><trkpt lat="45.55309485307677" lon="11.270810352638197"><ele>184.39999999999998</ele><time>2026-03-28T11:30:33Z</time></trkpt><trkpt lat="45.553160192331816" lon="11.270716583274313"><ele>184.8</ele><time>2026-03-28T11:30:34Z</time></trkpt><trkpt lat="45.55324456011985" lon="11.27063420670931"><ele>185.2</ele><time>2026-03-28T11:30:35Z</time></trkpt><trkpt lat="45.55335288581198" lon="11.270574636187238"><ele>185.60000000000002</ele><time>2026-03-28T11:30:36Z</time></trkpt><trkpt lat="45.55347102626432" lon="11.270536603538735"><ele>186.0</ele><time>2026-03-28T11:30:37Z</time></trkpt><trkpt lat="45.55358861760175" lon="11.270496911397911"><ele>187.25</ele><time>2026-03-28T11:30:38Z</time></trkpt><trkpt lat="45.55371039685534" lon="11.270443844506"><ele>188.5</ele><time>2026-03-28T11:30:39Z</time></trkpt><trkpt lat="45.55382409431981" lon="11.270386277274952"><ele>189.75</ele><time>2026-03-28T11:30:40Z</time></trkpt><trkpt lat="45.55393459649454" lon="11.270329109119155"><ele>191.0</ele><time>2026-03-28T11:30:41Z</time></trkpt><trkpt lat="45.55403407015499" lon="11.270269707082225"><ele>191.0</ele><time>2026-03-28T11:30:42Z</time></trkpt><trkpt lat="45.554141800152834" lon="11.270218176909166"><ele>191.0</ele><time>2026-03-28T11:30:43Z</time></trkpt><trkpt lat="45.5542382002681" lon="11.27016028606271"><ele>191.0</ele><time>2026-03-28T11:30:44Z</time></trkpt><trkpt lat="45.55430818611296" lon="11.27009651734842"><ele>191.0</ele><time>2026-03-28T11:30:45Z</time></trkpt><trkpt lat="45.55434983873185" lon="11.270016339623309"><ele>191.0</ele><time>2026-03-28T11:30:45.999Z</time></trkpt><trkpt lat="45.55435740517249" lon="11.269917477138312"><ele>191.0</ele><time>2026-03-28T11:30:46.999Z</time></trkpt><trkpt lat="45.554339591489715" lon="11.269796943760099"><ele>191.4</ele><time>2026-03-28T11:30:47.999Z</time></trkpt><trkpt lat="45.55430202444434" lon="11.26966437156568"><ele>191.8</ele><time>2026-03-28T11:30:48.999Z</time></trkpt><trkpt lat="45.55428628449716" lon="11.269522081663952"><ele>192.20000000000002</ele><time>2026-03-28T11:30:49.999Z</time></trkpt><trkpt lat="45.55425975558335" lon="11.269388607983945"><ele>192.60000000000002</ele><time>2026-03-28T11:30:50.999Z</time></trkpt><trkpt lat="45.55423591938666" lon="11.269277308851015"><ele>193.0</ele><time>2026-03-28T11:30:51.999Z</time></trkpt><trkpt lat="45.55421421942749" lon="11.269162866260334"><ele>193.0</ele><time>2026-03-28T11:30:52.999Z</time></trkpt><trkpt lat="45.55419701554339" lon="11.269049323443024"><ele>193.0</ele><time>2026-03-28T11:30:53.999Z</time></trkpt><trkpt lat="45.554239095604466" lon="11.268941741832714"><ele>193.0</ele><time>2026-03-28T11:30:54.999Z</time></trkpt><trkpt lat="45.55432016326639" lon="11.268871082666259"><ele>193.0</ele><time>2026-03-28T11:30:55.999Z</time></trkpt><trkpt lat="45.55443440936586" lon="11.268866653794436"><ele>193.0</ele><time>2026-03-28T11:30:56.999Z</time></trkpt><trkpt lat="45.554546972441635" lon="11.268810853784624"><ele>195.25</ele><time>2026-03-28T11:30:57.999Z</time></trkpt><trkpt lat="45.55465368793793" lon="11.268732014733656"><ele>197.5</ele><time>2026-03-28T11:30:58.999Z</time></trkpt><trkpt lat="45.55473379682257" lon="11.268612942188424"><ele>199.75</ele><time>2026-03-28T11:30:59.999Z</time></trkpt><trkpt lat="45.55479319563383" lon="11.2684707401577"><ele>202.0</ele><time>2026-03-28T11:31:00.999Z</time></trkpt><trkpt lat="45.55485334361797" lon="11.26833068403213"><ele>202.0</ele><time>2026-03-28T11:31:01.999Z</time></trkpt><trkpt lat="45.55493191032105" lon="11.268188363585987"><ele>202.0</ele><time>2026-03-28T11:31:02.999Z</time></trkpt><trkpt lat="45.55500600391449" lon="11.268064105815721"><ele>202.0</ele><time>2026-03-28T11:31:03.999Z</time></trkpt><trkpt lat="45.55503460502641" lon="11.267940481183741"><ele>202.0</ele><time>2026-03-28T11:31:04.999Z</time></trkpt><trkpt lat="45.55503001758144" lon="11.267804509574093"><ele>202.0</ele><time>2026-03-28T11:31:05.999Z</time></trkpt><trkpt lat="45.555029197554674" lon="11.267639550220172"><ele>203.39999999999998</ele><time>2026-03-28T11:31:06.999Z</time></trkpt><trkpt lat="45.55503113595594" lon="11.267456703947389"><ele>204.79999999999998</ele><time>2026-03-28T11:31:07.999Z</time></trkpt><trkpt lat="45.555074634527024" lon="11.267284125900662"><ele>206.2</ele><time>2026-03-28T11:31:08.999Z</time></trkpt><trkpt lat="45.555130700911384" lon="11.267151803612604"><ele>207.6</ele><time>2026-03-28T11:31:09.999Z</time></trkpt><trkpt lat="45.55515667872275" lon="11.267042117664152"><ele>209.0</ele><time>2026-03-28T11:31:10.999Z</time></trkpt><trkpt lat="45.555189354125616" lon="11.26696195662309"><ele>211.0</ele><time>2026-03-28T11:31:11.999Z</time></trkpt><trkpt lat="45.55517556430257" lon="11.266796241083789"><ele>213.0</ele><time>2026-03-28T11:31:13.999Z</time></trkpt><trkpt lat="45.55507571326683" lon="11.266762230076976"><ele>214.99999999999997</ele><time>2026-03-28T11:31:14.999Z</time></trkpt><trkpt lat="45.55502497073675" lon="11.266693454758169"><ele>217.0</ele><time>2026-03-28T11:31:15.999Z</time></trkpt><trkpt lat="45.55497257310792" lon="11.26658824310517"><ele>219.0</ele><time>2026-03-28T11:31:18.999Z</time></trkpt><trkpt lat="45.555060032738474" lon="11.266436473684529"><ele>223.33333333333334</ele><time>2026-03-28T11:31:20.999Z</time></trkpt><trkpt lat="45.555100026155564" lon="11.26633894313607"><ele>227.66666666666669</ele><time>2026-03-28T11:31:21.999Z</time></trkpt><trkpt lat="45.55515596932281" lon="11.266255523758355"><ele>232.0</ele><time>2026-03-28T11:31:22.999Z</time></trkpt><trkpt lat="45.55521389004086" lon="11.266159021344425"><ele>236.33333333333334</ele><time>2026-03-28T11:31:23.999Z</time></trkpt><trkpt lat="45.55525673070882" lon="11.266075352354733"><ele>240.66666666666669</ele><time>2026-03-28T11:31:24.999Z</time></trkpt><trkpt lat="45.55530738367599" lon="11.265974378362015"><ele>245.0</ele><time>2026-03-28T11:31:25.999Z</time></trkpt><trkpt lat="45.55535244000609" lon="11.265869903013112"><ele>244.75</ele><time>2026-03-28T11:31:26.999Z</time></trkpt><trkpt lat="45.55538910265224" lon="11.265758759801194"><ele>244.5</ele><time>2026-03-28T11:31:27.999Z</time></trkpt><trkpt lat="45.55542786127397" lon="11.265630159175478"><ele>244.25</ele><time>2026-03-28T11:31:28.999Z</time></trkpt><trkpt lat="45.555495194370856" lon="11.265470513646218"><ele>244.0</ele><time>2026-03-28T11:31:30Z</time></trkpt><trkpt lat="45.5555582599949" lon="11.265270791711997"><ele>244.0</ele><time>2026-03-28T11:31:31Z</time></trkpt><trkpt lat="45.5556166632861" lon="11.265073013993264"><ele>244.0</ele><time>2026-03-28T11:31:32Z</time></trkpt><trkpt lat="45.55569262352141" lon="11.264921518689265"><ele>244.0</ele><time>2026-03-28T11:31:33Z</time></trkpt><trkpt lat="45.555792525741964" lon="11.264799829262898"><ele>244.0</ele><time>2026-03-28T11:31:34Z</time></trkpt><trkpt lat="45.5559077523308" lon="11.264725339417792"><ele>249.0</ele><time>2026-03-28T11:31:35Z</time></trkpt><trkpt lat="45.55602490472196" lon="11.26468983195512"><ele>254.0</ele><time>2026-03-28T11:31:36Z</time></trkpt><trkpt lat="45.55614312992877" lon="11.264700336975366"><ele>259.0</ele><time>2026-03-28T11:31:37Z</time></trkpt><trkpt lat="45.5562691890517" lon="11.264726054689469"><ele>264.0</ele><time>2026-03-28T11:31:38Z</time></trkpt><trkpt lat="45.556398249713446" lon="11.264732042112398"><ele>264.75</ele><time>2026-03-28T11:31:39Z</time></trkpt><trkpt lat="45.556519802136044" lon="11.26469615172228"><ele>265.5</ele><time>2026-03-28T11:31:40Z</time></trkpt><trkpt lat="45.55662382112095" lon="11.264611163277529"><ele>266.25</ele><time>2026-03-28T11:31:41Z</time></trkpt><trkpt lat="45.556725415021084" lon="11.26448918639467"><ele>267.0</ele><time>2026-03-28T11:31:42Z</time></trkpt><trkpt lat="45.556829811614044" lon="11.264331467546493"><ele>267.0</ele><time>2026-03-28T11:31:43Z</time></trkpt><trkpt lat="45.55693066065367" lon="11.264173340386616"><ele>267.0</ele><time>2026-03-28T11:31:44Z</time></trkpt><trkpt lat="45.55704125454625" lon="11.264017496133551"><ele>267.0</ele><time>2026-03-28T11:31:45Z</time></trkpt><trkpt lat="45.55715188229325" lon="11.263858275474066"><ele>268.5</ele><time>2026-03-28T11:31:46Z</time></trkpt><trkpt lat="45.557249340907745" lon="11.263721085039716"><ele>270.0</ele><time>2026-03-28T11:31:47Z</time></trkpt><trkpt lat="45.55732773383244" lon="11.263599409043447"><ele>271.5</ele><time>2026-03-28T11:31:48Z</time></trkpt><trkpt lat="45.55739664428639" lon="11.263480325621082"><ele>273.0</ele><time>2026-03-28T11:31:49Z</time></trkpt><trkpt lat="45.55742705927582" lon="11.263302632816751"><ele>277.0</ele><time>2026-03-28T11:31:50Z</time></trkpt><trkpt lat="45.55742530724727" lon="11.263095655823228"><ele>281.0</ele><time>2026-03-28T11:31:51Z</time></trkpt><trkpt lat="45.55745846482776" lon="11.26288368989436"><ele>285.0</ele><time>2026-03-28T11:31:52Z</time></trkpt><trkpt lat="45.55747032965785" lon="11.262710320389893"><ele>289.0</ele><time>2026-03-28T11:31:53Z</time></trkpt><trkpt lat="45.55746188183137" lon="11.262563725512777"><ele>289.0</ele><time>2026-03-28T11:31:54Z</time></trkpt><trkpt lat="45.557433654971646" lon="11.262422181828578"><ele>289.0</ele><time>2026-03-28T11:31:55Z</time></trkpt><trkpt lat="45.557349536559485" lon="11.262310861498213"><ele>289.0</ele><time>2026-03-28T11:31:56Z</time></trkpt><trkpt lat="45.55731279100614" lon="11.2622164583906"><ele>289.0</ele><time>2026-03-28T11:31:57Z</time></trkpt><trkpt lat="45.557285070923" lon="11.26212914068856"><ele>289.0</ele><time>2026-03-28T11:31:58Z</time></trkpt><trkpt lat="45.557324679045195" lon="11.26200981984027"><ele>292.4</ele><time>2026-03-28T11:31:59Z</time></trkpt><trkpt lat="45.55741934812683" lon="11.261924920150804"><ele>295.79999999999995</ele><time>2026-03-28T11:32:00Z</time></trkpt><trkpt lat="45.55747501878017" lon="11.261782968554916"><ele>299.20000000000005</ele><time>2026-03-28T11:32:01Z</time></trkpt><trkpt lat="45.5575146094206" lon="11.261632263895972"><ele>302.6</ele><time>2026-03-28T11:32:02Z</time></trkpt><trkpt lat="45.557530655627694" lon="11.261489589667267"><ele>306.0</ele><time>2026-03-28T11:32:03Z</time></trkpt><trkpt lat="45.557557201952434" lon="11.261373160202151"><ele>308.40000000000003</ele><time>2026-03-28T11:32:04Z</time></trkpt><trkpt lat="45.557574155665456" lon="11.261252746018343"><ele>310.8</ele><time>2026-03-28T11:32:05Z</time></trkpt><trkpt lat="45.557583561650816" lon="11.261122625516123"><ele>313.20000000000005</ele><time>2026-03-28T11:32:06Z</time></trkpt><trkpt lat="45.55759021255521" lon="11.260984603781761"><ele>315.6</ele><time>2026-03-28T11:32:07Z</time></trkpt><trkpt lat="45.55757276100095" lon="11.260834718404324"><ele>318.0</ele><time>2026-03-28T11:32:08Z</time></trkpt><trkpt lat="45.557552547448445" lon="11.260676249941131"><ele>320.0</ele><time>2026-03-28T11:32:09Z</time></trkpt><trkpt lat="45.55748931423359" lon="11.260499051458927"><ele>322.0</ele><time>2026-03-28T11:32:10Z</time></trkpt><trkpt lat="45.55742138537283" lon="11.260327784768823"><ele>324.0</ele><time>2026-03-28T11:32:11Z</time></trkpt><trkpt lat="45.55738914237017" lon="11.260145251614711"><ele>326.0</ele><time>2026-03-28T11:32:12Z</time></trkpt><trkpt lat="45.557357820671164" lon="11.25996767581819"><ele>326.0</ele><time>2026-03-28T11:32:13Z</time></trkpt><trkpt lat="45.5573331980432" lon="11.259821993127627"><ele>326.0</ele><time>2026-03-28T11:32:14Z</time></trkpt><trkpt lat="45.55730804181816" lon="11.259671284880623"><ele>326.0</ele><time>2026-03-28T11:32:15Z</time></trkpt><trkpt lat="45.55727881244214" lon="11.259525017618651"><ele>326.0</ele><time>2026-03-28T11:32:16Z</time></trkpt><trkpt lat="45.557260210865905" lon="11.259389852175353"><ele>326.0</ele><time>2026-03-28T11:32:17Z</time></trkpt><trkpt lat="45.55726815000531" lon="11.259256105010294"><ele>329.4</ele><time>2026-03-28T11:32:18Z</time></trkpt><trkpt lat="45.557321095254004" lon="11.259155455455295"><ele>332.8</ele><time>2026-03-28T11:32:19Z</time></trkpt><trkpt lat="45.557395178111285" lon="11.25906992387446"><ele>336.2</ele><time>2026-03-28T11:32:20Z</time></trkpt><trkpt lat="45.557478085110546" lon="11.258998811485636"><ele>339.59999999999997</ele><time>2026-03-28T11:32:21Z</time></trkpt><trkpt lat="45.55753688298282" lon="11.258907600190428"><ele>343.0</ele><time>2026-03-28T11:32:22Z</time></trkpt><trkpt lat="45.55756199872396" lon="11.2587936078772"><ele>345.4</ele><time>2026-03-28T11:32:23Z</time></trkpt><trkpt lat="45.55756106302099" lon="11.258668454372568"><ele>347.79999999999995</ele><time>2026-03-28T11:32:24Z</time></trkpt><trkpt lat="45.557537096660845" lon="11.258539572419823"><ele>350.2</ele><time>2026-03-28T11:32:25Z</time></trkpt><trkpt lat="45.55750155626744" lon="11.258417059056743"><ele>352.6</ele><time>2026-03-28T11:32:26Z</time></trkpt><trkpt lat="45.55747062832571" lon="11.25830964514308"><ele>355.0</ele><time>2026-03-28T11:32:27Z</time></trkpt><trkpt lat="45.55741091975296" lon="11.258139223296107"><ele>356.0</ele><time>2026-03-28T11:32:29Z</time></trkpt><trkpt lat="45.557435252944416" lon="11.258033315670088"><ele>357.0</ele><time>2026-03-28T11:32:30Z</time></trkpt><trkpt lat="45.557494562976565" lon="11.257946747193037"><ele>358.0</ele><time>2026-03-28T11:32:31Z</time></trkpt><trkpt lat="45.55757128139692" lon="11.25787416798663"><ele>359.0</ele><time>2026-03-28T11:32:32Z</time></trkpt><trkpt lat="45.55762953099038" lon="11.257772145731742"><ele>360.0</ele><time>2026-03-28T11:32:33Z</time></trkpt><trkpt lat="45.55767360715074" lon="11.257636337245437"><ele>360.0</ele><time>2026-03-28T11:32:34Z</time></trkpt><trkpt lat="45.55769917048192" lon="11.257486151439217"><ele>360.0</ele><time>2026-03-28T11:32:35Z</time></trkpt><trkpt lat="45.55772932008779" lon="11.257356324752589"><ele>360.0</ele><time>2026-03-28T11:32:36Z</time></trkpt><trkpt lat="45.5577789191174" lon="11.257231110148844"><ele>360.0</ele><time>2026-03-28T11:32:37Z</time></trkpt><trkpt lat="45.55783364177629" lon="11.257103322169879"><ele>360.0</ele><time>2026-03-28T11:32:38Z</time></trkpt><trkpt lat="45.557898540103054" lon="11.256978860439924"><ele>362.6</ele><time>2026-03-28T11:32:39Z</time></trkpt><trkpt lat="45.55797288139389" lon="11.256865248231916"><ele>365.2</ele><time>2026-03-28T11:32:40Z</time></trkpt><trkpt lat="45.5580482788047" lon="11.256748177188499"><ele>367.79999999999995</ele><time>2026-03-28T11:32:41Z</time></trkpt><trkpt lat="45.558120863408796" lon="11.256628406220974"><ele>370.4</ele><time>2026-03-28T11:32:42Z</time></trkpt><trkpt lat="45.55817902056822" lon="11.256489547197148"><ele>373.0</ele><time>2026-03-28T11:32:43Z</time></trkpt><trkpt lat="45.55821565453974" lon="11.25634728841694"><ele>374.0</ele><time>2026-03-28T11:32:44Z</time></trkpt><trkpt lat="45.55823639923914" lon="11.256213386425811"><ele>375.0</ele><time>2026-03-28T11:32:45Z</time></trkpt><trkpt lat="45.558250938303786" lon="11.256081298571655"><ele>376.0</ele><time>2026-03-28T11:32:46Z</time></trkpt><trkpt lat="45.55829130933215" lon="11.25593860902369"><ele>377.0</ele><time>2026-03-28T11:32:47Z</time></trkpt><trkpt lat="45.55833805150142" lon="11.255793599437949"><ele>378.0</ele><time>2026-03-28T11:32:48Z</time></trkpt><trkpt lat="45.55840359027942" lon="11.255644401883718"><ele>380.0</ele><time>2026-03-28T11:32:49Z</time></trkpt><trkpt lat="45.55853151485053" lon="11.255578211088551"><ele>382.0</ele><time>2026-03-28T11:32:49.999Z</time></trkpt><trkpt lat="45.558678860980386" lon="11.255487285626124"><ele>384.0</ele><time>2026-03-28T11:32:50.999Z</time></trkpt><trkpt lat="45.558847856020776" lon="11.255384494290494"><ele>384.0</ele><time>2026-03-28T11:32:51.999Z</time></trkpt><trkpt lat="45.55904034935843" lon="11.255267141203177"><ele>384.0</ele><time>2026-03-28T11:32:52.999Z</time></trkpt><trkpt lat="45.55922011346399" lon="11.255157548607729"><ele>384.0</ele><time>2026-03-28T11:32:53.999Z</time></trkpt><trkpt lat="45.55936700319768" lon="11.255049244066363"><ele>384.0</ele><time>2026-03-28T11:32:54.999Z</time></trkpt><trkpt lat="45.55951008668448" lon="11.25495949788902"><ele>384.0</ele><time>2026-03-28T11:32:55.999Z</time></trkpt><trkpt lat="45.55964318121652" lon="11.25490399188322"><ele>384.0</ele><time>2026-03-28T11:32:56.999Z</time></trkpt><trkpt lat="45.559763239824576" lon="11.254829862963653"><ele>384.0</ele><time>2026-03-28T11:32:57.999Z</time></trkpt><trkpt lat="45.55987919016343" lon="11.254724722397285"><ele>385.0</ele><time>2026-03-28T11:32:58.999Z</time></trkpt><trkpt lat="45.55998707889881" lon="11.254639737887802"><ele>386.0</ele><time>2026-03-28T11:32:59.999Z</time></trkpt><trkpt lat="45.560099505146894" lon="11.254555510371029"><ele>387.0</ele><time>2026-03-28T11:33:00.999Z</time></trkpt><trkpt lat="45.56021272276401" lon="11.254489982930853"><ele>388.0</ele><time>2026-03-28T11:33:01.999Z</time></trkpt><trkpt lat="45.56032585264052" lon="11.254446185953274"><ele>388.4</ele><time>2026-03-28T11:33:02.999Z</time></trkpt><trkpt lat="45.56045335087936" lon="11.254432521084272"><ele>388.79999999999995</ele><time>2026-03-28T11:33:03.999Z</time></trkpt><trkpt lat="45.56056093110743" lon="11.254390137955602"><ele>389.2</ele><time>2026-03-28T11:33:04.999Z</time></trkpt><trkpt lat="45.560659520689285" lon="11.254332694511543"><ele>389.6</ele><time>2026-03-28T11:33:05.999Z</time></trkpt><trkpt lat="45.56074935002933" lon="11.254285335235908"><ele>390.0</ele><time>2026-03-28T11:33:06.999Z</time></trkpt><trkpt lat="45.56083239886836" lon="11.25424352503039"><ele>390.0</ele><time>2026-03-28T11:33:07.999Z</time></trkpt><trkpt lat="45.56089385877118" lon="11.25417452686204"><ele>390.0</ele><time>2026-03-28T11:33:08.999Z</time></trkpt><trkpt lat="45.56092963243413" lon="11.254065964966468"><ele>390.0</ele><time>2026-03-28T11:33:09.999Z</time></trkpt><trkpt lat="45.56094273494915" lon="11.253909766142174"><ele>390.0</ele><time>2026-03-28T11:33:10.999Z</time></trkpt><trkpt lat="45.56093425886899" lon="11.253776212545176"><ele>390.0</ele><time>2026-03-28T11:33:11.999Z</time></trkpt><trkpt lat="45.560960246549044" lon="11.253613077604577"><ele>389.75</ele><time>2026-03-28T11:33:12.999Z</time></trkpt><trkpt lat="45.56097407984506" lon="11.253453288777111"><ele>389.5</ele><time>2026-03-28T11:33:13.999Z</time></trkpt><trkpt lat="45.5610346498081" lon="11.253292644632882"><ele>389.25</ele><time>2026-03-28T11:33:14.999Z</time></trkpt><trkpt lat="45.5611349808598" lon="11.253155074953474"><ele>389.0</ele><time>2026-03-28T11:33:15.999Z</time></trkpt><trkpt lat="45.561221253791366" lon="11.253012605061615"><ele>390.25</ele><time>2026-03-28T11:33:16.999Z</time></trkpt><trkpt lat="45.56130451568419" lon="11.252854108207451"><ele>391.5</ele><time>2026-03-28T11:33:17.999Z</time></trkpt><trkpt lat="45.56141790000089" lon="11.252726306932686"><ele>392.75</ele><time>2026-03-28T11:33:18.999Z</time></trkpt><trkpt lat="45.56153829935553" lon="11.252657578999624"><ele>394.0</ele><time>2026-03-28T11:33:19.999Z</time></trkpt><trkpt lat="45.56166397708356" lon="11.252579406948952"><ele>394.0</ele><time>2026-03-28T11:33:20.999Z</time></trkpt><trkpt lat="45.561809018207036" lon="11.252542817051687"><ele>394.0</ele><time>2026-03-28T11:33:21.999Z</time></trkpt><trkpt lat="45.56194964906908" lon="11.252476558891448"><ele>394.0</ele><time>2026-03-28T11:33:22.999Z</time></trkpt><trkpt lat="45.562093384991535" lon="11.25236820969934"><ele>396.6666666666667</ele><time>2026-03-28T11:33:23.999Z</time></trkpt><trkpt lat="45.562234303391925" lon="11.25222727086043"><ele>399.33333333333337</ele><time>2026-03-28T11:33:24.999Z</time></trkpt><trkpt lat="45.56238489225801" lon="11.25206055909637"><ele>402.0</ele><time>2026-03-28T11:33:25.999Z</time></trkpt><trkpt lat="45.56252432563278" lon="11.251882759370856"><ele>402.0</ele><time>2026-03-28T11:33:26.999Z</time></trkpt><trkpt lat="45.562656454303095" lon="11.251694535404232"><ele>402.0</ele><time>2026-03-28T11:33:27.999Z</time></trkpt><trkpt lat="45.56280612621296" lon="11.251467002656664"><ele>402.0</ele><time>2026-03-28T11:33:28.999Z</time></trkpt><trkpt lat="45.56296789305874" lon="11.251285779975289"><ele>405.0</ele><time>2026-03-28T11:33:29.999Z</time></trkpt><trkpt lat="45.563099381170645" lon="11.251164350366144"><ele>408.0</ele><time>2026-03-28T11:33:30.999Z</time></trkpt><trkpt lat="45.563232039531925" lon="11.251060172123907"><ele>411.0</ele><time>2026-03-28T11:33:31.999Z</time></trkpt><trkpt lat="45.563385370702875" lon="11.250965574415108"><ele>411.0</ele><time>2026-03-28T11:33:32.999Z</time></trkpt><trkpt lat="45.56353859815361" lon="11.250847054006917"><ele>411.0</ele><time>2026-03-28T11:33:33.999Z</time></trkpt><trkpt lat="45.563700132606655" lon="11.250735185148491"><ele>411.0</ele><time>2026-03-28T11:33:34.999Z</time></trkpt><trkpt lat="45.56383121196397" lon="11.250602014582851"><ele>414.66666666666663</ele><time>2026-03-28T11:33:36Z</time></trkpt><trkpt lat="45.563973144187244" lon="11.250469640203615"><ele>418.3333333333333</ele><time>2026-03-28T11:33:37Z</time></trkpt><trkpt lat="45.564123481980296" lon="11.250353402171465"><ele>422.0</ele><time>2026-03-28T11:33:38Z</time></trkpt><trkpt lat="45.564297217090775" lon="11.25026003276109"><ele>422.0</ele><time>2026-03-28T11:33:39Z</time></trkpt><trkpt lat="45.564478851829854" lon="11.250209467053514"><ele>422.0</ele><time>2026-03-28T11:33:40Z</time></trkpt><trkpt lat="45.564660603015646" lon="11.250107984755791"><ele>422.0</ele><time>2026-03-28T11:33:41Z</time></trkpt><trkpt lat="45.56484988341789" lon="11.25002487979253"><ele>420.3333333333333</ele><time>2026-03-28T11:33:42Z</time></trkpt><trkpt lat="45.56502533921528" lon="11.24995065411403"><ele>418.66666666666663</ele><time>2026-03-28T11:33:43Z</time></trkpt><trkpt lat="45.56516902507874" lon="11.249893633141562"><ele>417.0</ele><time>2026-03-28T11:33:44Z</time></trkpt><trkpt lat="45.56530228656656" lon="11.249835403988667"><ele>419.66666666666663</ele><time>2026-03-28T11:33:45Z</time></trkpt><trkpt lat="45.56545223717122" lon="11.249772764269231"><ele>422.3333333333333</ele><time>2026-03-28T11:33:46Z</time></trkpt><trkpt lat="45.56561048082529" lon="11.249720392295767"><ele>425.0</ele><time>2026-03-28T11:33:47Z</time></trkpt><trkpt lat="45.5657814813549" lon="11.24968802458239"><ele>425.0</ele><time>2026-03-28T11:33:48Z</time></trkpt><trkpt lat="45.56595107259081" lon="11.249665731936433"><ele>425.0</ele><time>2026-03-28T11:33:49Z</time></trkpt><trkpt lat="45.566092947997106" lon="11.249652176873372"><ele>425.0</ele><time>2026-03-28T11:33:50Z</time></trkpt><trkpt lat="45.56622528243021" lon="11.249632015428688"><ele>425.0</ele><time>2026-03-28T11:33:51Z</time></trkpt><trkpt lat="45.5663430883791" lon="11.249600865743297"><ele>425.0</ele><time>2026-03-28T11:33:52Z</time></trkpt><trkpt lat="45.56644959774881" lon="11.24954920163663"><ele>425.0</ele><time>2026-03-28T11:33:53Z</time></trkpt><trkpt lat="45.566547834272164" lon="11.249473264700514"><ele>425.0</ele><time>2026-03-28T11:33:54Z</time></trkpt><trkpt lat="45.56663225992605" lon="11.249377159337111"><ele>425.0</ele><time>2026-03-28T11:33:55Z</time></trkpt><trkpt lat="45.56670832592629" lon="11.249310628711205"><ele>425.0</ele><time>2026-03-28T11:33:56Z</time></trkpt><trkpt lat="45.566796120172334" lon="11.249284321372418"><ele>425.0</ele><time>2026-03-28T11:33:57Z</time></trkpt><trkpt lat="45.56689621708255" lon="11.249313652366137"><ele>425.0</ele><time>2026-03-28T11:33:58Z</time></trkpt><trkpt lat="45.56699923116174" lon="11.249428600831482"><ele>425.0</ele><time>2026-03-28T11:33:59Z</time></trkpt><trkpt lat="45.56711310201401" lon="11.249523164248622"><ele>425.0</ele><time>2026-03-28T11:34:00Z</time></trkpt><trkpt lat="45.56720454895455" lon="11.249630844108154"><ele>425.0</ele><time>2026-03-28T11:34:01Z</time></trkpt><trkpt lat="45.56731517591845" lon="11.249697308751067"><ele>425.0</ele><time>2026-03-28T11:34:02Z</time></trkpt><trkpt lat="45.56745965341658" lon="11.249747200442645"><ele>425.0</ele><time>2026-03-28T11:34:03Z</time></trkpt><trkpt lat="45.567645196768645" lon="11.249793867514644"><ele>425.5</ele><time>2026-03-28T11:34:04Z</time></trkpt><trkpt lat="45.56781918884785" lon="11.249851337707609"><ele>426.0</ele><time>2026-03-28T11:34:05Z</time></trkpt><trkpt lat="45.5679595286502" lon="11.249919881287202"><ele>426.5</ele><time>2026-03-28T11:34:06Z</time></trkpt><trkpt lat="45.56806654569934" lon="11.249987968821694"><ele>427.0</ele><time>2026-03-28T11:34:07Z</time></trkpt><trkpt lat="45.56815492328927" lon="11.25005353721639"><ele>427.0</ele><time>2026-03-28T11:34:08Z</time></trkpt><trkpt lat="45.568227133037226" lon="11.250136757585592"><ele>427.00000000000006</ele><time>2026-03-28T11:34:09Z</time></trkpt><trkpt lat="45.56828746508354" lon="11.250252770875065"><ele>427.00000000000006</ele><time>2026-03-28T11:34:10Z</time></trkpt><trkpt lat="45.56831918404996" lon="11.250388971546018"><ele>427.0</ele><time>2026-03-28T11:34:11Z</time></trkpt><trkpt lat="45.56832304546463" lon="11.250540621297537"><ele>427.0</ele><time>2026-03-28T11:34:12Z</time></trkpt><trkpt lat="45.568263142068524" lon="11.250688526294716"><ele>427.20000000000005</ele><time>2026-03-28T11:34:14Z</time></trkpt><trkpt lat="45.56823537521191" lon="11.250817073736004"><ele>427.40000000000003</ele><time>2026-03-28T11:34:16Z</time></trkpt><trkpt lat="45.56821122116438" lon="11.250928896476717"><ele>427.59999999999997</ele><time>2026-03-28T11:34:17Z</time></trkpt><trkpt lat="45.56820024090758" lon="11.251038727811736"><ele>427.79999999999995</ele><time>2026-03-28T11:34:18Z</time></trkpt><trkpt lat="45.56821656776248" lon="11.251215713167248"><ele>428.0</ele><time>2026-03-28T11:34:20Z</time></trkpt><trkpt lat="45.56826915018985" lon="11.2512874503724"><ele>427.99999999999994</ele><time>2026-03-28T11:34:21Z</time></trkpt><trkpt lat="45.56834127342753" lon="11.25136068243479"><ele>428.0</ele><time>2026-03-28T11:34:22Z</time></trkpt><trkpt lat="45.56841360532983" lon="11.251431859444953"><ele>428.0</ele><time>2026-03-28T11:34:23Z</time></trkpt><trkpt lat="45.568489274554295" lon="11.251504681297314"><ele>428.0</ele><time>2026-03-28T11:34:24Z</time></trkpt><trkpt lat="45.568570130838644" lon="11.25155960587743"><ele>427.99999999999994</ele><time>2026-03-28T11:34:25Z</time></trkpt><trkpt lat="45.56864250527807" lon="11.251618772555691"><ele>428.0</ele><time>2026-03-28T11:34:26Z</time></trkpt><trkpt lat="45.5687632584107" lon="11.251624384365826"><ele>429.79999999999995</ele><time>2026-03-28T11:34:28Z</time></trkpt><trkpt lat="45.56883162306956" lon="11.251583902144413"><ele>431.59999999999997</ele><time>2026-03-28T11:34:29Z</time></trkpt><trkpt lat="45.5688982335192" lon="11.251512286858308"><ele>433.40000000000003</ele><time>2026-03-28T11:34:30Z</time></trkpt><trkpt lat="45.56899026949627" lon="11.251410364130951"><ele>435.20000000000005</ele><time>2026-03-28T11:34:31Z</time></trkpt><trkpt lat="45.56910341665588" lon="11.251304608843293"><ele>437.0</ele><time>2026-03-28T11:34:32Z</time></trkpt><trkpt lat="45.56922889401775" lon="11.251192807259338"><ele>437.20000000000005</ele><time>2026-03-28T11:34:33Z</time></trkpt><trkpt lat="45.56932650778344" lon="11.251089676452827"><ele>437.40000000000003</ele><time>2026-03-28T11:34:34Z</time></trkpt><trkpt lat="45.56940544443483" lon="11.250997658582971"><ele>437.59999999999997</ele><time>2026-03-28T11:34:35Z</time></trkpt><trkpt lat="45.569501484908955" lon="11.250943148810569"><ele>437.79999999999995</ele><time>2026-03-28T11:34:36Z</time></trkpt><trkpt lat="45.56959538662633" lon="11.250870359694478"><ele>438.0</ele><time>2026-03-28T11:34:37Z</time></trkpt><trkpt lat="45.56970540802367" lon="11.25084091308129"><ele>439.2</ele><time>2026-03-28T11:34:38Z</time></trkpt><trkpt lat="45.569806957858795" lon="11.250821195453408"><ele>440.4</ele><time>2026-03-28T11:34:39Z</time></trkpt><trkpt lat="45.56990994967406" lon="11.25079076176586"><ele>441.59999999999997</ele><time>2026-03-28T11:34:40Z</time></trkpt><trkpt lat="45.56999574546002" lon="11.250774142317313"><ele>442.79999999999995</ele><time>2026-03-28T11:34:41Z</time></trkpt><trkpt lat="45.570091750641524" lon="11.250738414602022"><ele>444.0</ele><time>2026-03-28T11:34:42Z</time></trkpt><trkpt lat="45.57019295717818" lon="11.250699089524067"><ele>444.0</ele><time>2026-03-28T11:34:43Z</time></trkpt><trkpt lat="45.57029276803997" lon="11.250657848382698"><ele>444.0</ele><time>2026-03-28T11:34:44Z</time></trkpt><trkpt lat="45.57038820009734" lon="11.25059666302333"><ele>444.0</ele><time>2026-03-28T11:34:45Z</time></trkpt><trkpt lat="45.570478907176565" lon="11.250532562427223"><ele>444.0</ele><time>2026-03-28T11:34:46Z</time></trkpt><trkpt lat="45.570568184697535" lon="11.250397653428589"><ele>444.0</ele><time>2026-03-28T11:34:47Z</time></trkpt><trkpt lat="45.57068339015292" lon="11.25024724943324"><ele>447.0</ele><time>2026-03-28T11:34:48Z</time></trkpt><trkpt lat="45.57081014658108" lon="11.250086413814843"><ele>450.0</ele><time>2026-03-28T11:34:49Z</time></trkpt><trkpt lat="45.57096178377537" lon="11.249895666484647"><ele>453.0</ele><time>2026-03-28T11:34:50Z</time></trkpt><trkpt lat="45.571132389939265" lon="11.249669793613029"><ele>455.66666666666663</ele><time>2026-03-28T11:34:51Z</time></trkpt><trkpt lat="45.57125371223411" lon="11.249484221799701"><ele>458.3333333333333</ele><time>2026-03-28T11:34:52Z</time></trkpt><trkpt lat="45.57136981373934" lon="11.249340018220582"><ele>461.0</ele><time>2026-03-28T11:34:53Z</time></trkpt><trkpt lat="45.57148287789623" lon="11.249228612337884"><ele>461.0</ele><time>2026-03-28T11:34:54Z</time></trkpt><trkpt lat="45.57158941396465" lon="11.24915820421404"><ele>461.0</ele><time>2026-03-28T11:34:55Z</time></trkpt><trkpt lat="45.571698601493985" lon="11.249098822321729"><ele>461.0</ele><time>2026-03-28T11:34:55.999Z</time></trkpt><trkpt lat="45.57180257482298" lon="11.249059305942527"><ele>461.0</ele><time>2026-03-28T11:34:56.999Z</time></trkpt><trkpt lat="45.57188788337375" lon="11.249026382310033"><ele>461.0</ele><time>2026-03-28T11:34:57.999Z</time></trkpt><trkpt lat="45.57194256908465" lon="11.248973596234993"><ele>462.5</ele><time>2026-03-28T11:34:58.999Z</time></trkpt><trkpt lat="45.57198736639048" lon="11.248753764238185"><ele>464.0</ele><time>2026-03-28T11:35:00.999Z</time></trkpt><trkpt lat="45.571944831235875" lon="11.248619320470294"><ele>465.5</ele><time>2026-03-28T11:35:01.999Z</time></trkpt><trkpt lat="45.57184588514817" lon="11.248498240957938"><ele>467.0</ele><time>2026-03-28T11:35:02.999Z</time></trkpt><trkpt lat="45.57175199219002" lon="11.248351259506004"><ele>467.0</ele><time>2026-03-28T11:35:03.999Z</time></trkpt><trkpt lat="45.57167806360587" lon="11.248225329012762"><ele>467.00000000000006</ele><time>2026-03-28T11:35:04.999Z</time></trkpt><trkpt lat="45.571637775937816" lon="11.248110765640822"><ele>467.00000000000006</ele><time>2026-03-28T11:35:05.999Z</time></trkpt><trkpt lat="45.57161705361981" lon="11.247991626221221"><ele>467.0</ele><time>2026-03-28T11:35:06.999Z</time></trkpt><trkpt lat="45.57162175031834" lon="11.24784650661497"><ele>467.0</ele><time>2026-03-28T11:35:07.999Z</time></trkpt><trkpt lat="45.571679554362994" lon="11.247711893753408"><ele>468.75</ele><time>2026-03-28T11:35:08.999Z</time></trkpt><trkpt lat="45.57177634364127" lon="11.247598140118265"><ele>470.5</ele><time>2026-03-28T11:35:09.999Z</time></trkpt><trkpt lat="45.5718906080335" lon="11.247487001439458"><ele>472.25</ele><time>2026-03-28T11:35:10.999Z</time></trkpt><trkpt lat="45.57202245921224" lon="11.24734629639306"><ele>474.0</ele><time>2026-03-28T11:35:11.999Z</time></trkpt><trkpt lat="45.5721738945653" lon="11.247239013697031"><ele>477.33333333333337</ele><time>2026-03-28T11:35:12.999Z</time></trkpt><trkpt lat="45.572325803775186" lon="11.247105102726078"><ele>480.6666666666667</ele><time>2026-03-28T11:35:13.999Z</time></trkpt><trkpt lat="45.57248281896378" lon="11.246937548700108"><ele>484.0</ele><time>2026-03-28T11:35:14.999Z</time></trkpt><trkpt lat="45.57263327699042" lon="11.246750208433058"><ele>484.0</ele><time>2026-03-28T11:35:15.999Z</time></trkpt><trkpt lat="45.57276993519239" lon="11.246578165394558"><ele>484.0</ele><time>2026-03-28T11:35:16.999Z</time></trkpt><trkpt lat="45.57289025648446" lon="11.246437125019899"><ele>484.0</ele><time>2026-03-28T11:35:17.999Z</time></trkpt><trkpt lat="45.57298507952783" lon="11.246317250137048"><ele>487.0</ele><time>2026-03-28T11:35:18.999Z</time></trkpt><trkpt lat="45.57305929012079" lon="11.2461986067456"><ele>490.0</ele><time>2026-03-28T11:35:19.999Z</time></trkpt><trkpt lat="45.573125041155784" lon="11.246085810353078"><ele>493.0</ele><time>2026-03-28T11:35:20.999Z</time></trkpt><trkpt lat="45.57318853730623" lon="11.245944625587997"><ele>496.0</ele><time>2026-03-28T11:35:21.999Z</time></trkpt><trkpt lat="45.57325327549672" lon="11.245797811550553"><ele>496.0</ele><time>2026-03-28T11:35:22.999Z</time></trkpt><trkpt lat="45.57331283095463" lon="11.245664173368706"><ele>496.0</ele><time>2026-03-28T11:35:23.999Z</time></trkpt><trkpt lat="45.57336311148512" lon="11.245558854021995"><ele>496.0</ele><time>2026-03-28T11:35:24.999Z</time></trkpt><trkpt lat="45.57346881162657" lon="11.245475753751947"><ele>496.0</ele><time>2026-03-28T11:35:26.999Z</time></trkpt><trkpt lat="45.573544876713314" lon="11.245520845665553"><ele>496.0</ele><time>2026-03-28T11:35:27.999Z</time></trkpt><trkpt lat="45.57361461781037" lon="11.245611669468447"><ele>496.0</ele><time>2026-03-28T11:35:28.999Z</time></trkpt><trkpt lat="45.57365702394456" lon="11.24573846542904"><ele>496.0</ele><time>2026-03-28T11:35:29.999Z</time></trkpt><trkpt lat="45.57367911434231" lon="11.245904803973206"><ele>496.0</ele><time>2026-03-28T11:35:30.999Z</time></trkpt><trkpt lat="45.57369670925388" lon="11.246039453862089"><ele>496.0</ele><time>2026-03-28T11:35:31.999Z</time></trkpt><trkpt lat="45.573741495653856" lon="11.24612730766347"><ele>496.0</ele><time>2026-03-28T11:35:32.999Z</time></trkpt><trkpt lat="45.573822522318736" lon="11.246197275627171"><ele>498.4</ele><time>2026-03-28T11:35:33.999Z</time></trkpt><trkpt lat="45.57392060069419" lon="11.246242998721195"><ele>500.8</ele><time>2026-03-28T11:35:34.999Z</time></trkpt><trkpt lat="45.574008573406296" lon="11.246250730292255"><ele>503.19999999999993</ele><time>2026-03-28T11:35:35.999Z</time></trkpt><trkpt lat="45.57408193397409" lon="11.246238396134583"><ele>505.59999999999997</ele><time>2026-03-28T11:35:36.999Z</time></trkpt><trkpt lat="45.574169923458314" lon="11.24613686952821"><ele>508.0</ele><time>2026-03-28T11:35:38.999Z</time></trkpt><trkpt lat="45.57417581837982" lon="11.246013611637862"><ele>508.0</ele><time>2026-03-28T11:35:39.999Z</time></trkpt><trkpt lat="45.57409041440294" lon="11.245881334539062"><ele>508.0</ele><time>2026-03-28T11:35:40.999Z</time></trkpt><trkpt lat="45.57406263903442" lon="11.24574665773526"><ele>508.0</ele><time>2026-03-28T11:35:42Z</time></trkpt><trkpt lat="45.57401734897671" lon="11.245608197333818"><ele>508.0</ele><time>2026-03-28T11:35:43Z</time></trkpt><trkpt lat="45.57396353162672" lon="11.24543447129251"><ele>510.0</ele><time>2026-03-28T11:35:44Z</time></trkpt><trkpt lat="45.57390120585328" lon="11.245238840163449"><ele>512.0</ele><time>2026-03-28T11:35:45Z</time></trkpt><trkpt lat="45.573841298605224" lon="11.245010871354394"><ele>514.0</ele><time>2026-03-28T11:35:46Z</time></trkpt><trkpt lat="45.57378600257071" lon="11.244790233499076"><ele>516.0</ele><time>2026-03-28T11:35:47Z</time></trkpt><trkpt lat="45.57374833347024" lon="11.244617131402991"><ele>518.0</ele><time>2026-03-28T11:35:48Z</time></trkpt><trkpt lat="45.57372323735291" lon="11.244466585633477"><ele>520.0</ele><time>2026-03-28T11:35:49Z</time></trkpt><trkpt lat="45.5737031446356" lon="11.24433002130141"><ele>522.0</ele><time>2026-03-28T11:35:50Z</time></trkpt><trkpt lat="45.57365920436198" lon="11.244202790759259"><ele>524.0</ele><time>2026-03-28T11:35:51Z</time></trkpt><trkpt lat="45.57361598400623" lon="11.244100078521809"><ele>524.0</ele><time>2026-03-28T11:35:52Z</time></trkpt><trkpt lat="45.573586403785576" lon="11.243990201978978"><ele>524.0</ele><time>2026-03-28T11:35:53Z</time></trkpt><trkpt lat="45.57354657967705" lon="11.243894920075865"><ele>524.0</ele><time>2026-03-28T11:35:54Z</time></trkpt><trkpt lat="45.57349937915496" lon="11.243816762550583"><ele>524.0</ele><time>2026-03-28T11:35:55Z</time></trkpt><trkpt lat="45.57343633991623" lon="11.243694042270553"><ele>524.0</ele><time>2026-03-28T11:35:57Z</time></trkpt><trkpt lat="45.57333116660663" lon="11.243746569669"><ele>524.0</ele><time>2026-03-28T11:35:59Z</time></trkpt><trkpt lat="45.57329571697767" lon="11.243842308489983"><ele>524.0</ele><time>2026-03-28T11:36:00Z</time></trkpt><trkpt lat="45.57327668299514" lon="11.243967845261546"><ele>524.0</ele><time>2026-03-28T11:36:01Z</time></trkpt><trkpt lat="45.573262184088904" lon="11.244081242972555"><ele>524.0</ele><time>2026-03-28T11:36:02Z</time></trkpt><trkpt lat="45.57322041935668" lon="11.244152561895575"><ele>524.0</ele><time>2026-03-28T11:36:03Z</time></trkpt><trkpt lat="45.57316064836555" lon="11.244182976027865"><ele>524.0</ele><time>2026-03-28T11:36:04Z</time></trkpt><trkpt lat="45.573091629036824" lon="11.244160858875677"><ele>524.0</ele><time>2026-03-28T11:36:05Z</time></trkpt><trkpt lat="45.57303363314092" lon="11.244075349046867"><ele>524.0</ele><time>2026-03-28T11:36:06Z</time></trkpt><trkpt lat="45.572955510281815" lon="11.244001562262723"><ele>524.0</ele><time>2026-03-28T11:36:07Z</time></trkpt><trkpt lat="45.572840892125306" lon="11.243902590764504"><ele>524.0</ele><time>2026-03-28T11:36:08Z</time></trkpt><trkpt lat="45.57269728944194" lon="11.243849657109784"><ele>524.0</ele><time>2026-03-28T11:36:09Z</time></trkpt><trkpt lat="45.572580349433075" lon="11.243877343450382"><ele>530.8</ele><time>2026-03-28T11:36:10Z</time></trkpt><trkpt lat="45.57250502629064" lon="11.24388384004805"><ele>537.5999999999999</ele><time>2026-03-28T11:36:11Z</time></trkpt><trkpt lat="45.572466520980825" lon="11.2437883319862"><ele>544.4</ele><time>2026-03-28T11:36:13Z</time></trkpt><trkpt lat="45.57257580400299" lon="11.24373597797956"><ele>551.1999999999999</ele><time>2026-03-28T11:36:15Z</time></trkpt><trkpt lat="45.57266113507038" lon="11.243745246597426"><ele>558.0</ele><time>2026-03-28T11:36:16Z</time></trkpt><trkpt lat="45.57277443686358" lon="11.243767139898788"><ele>557.1666666666666</ele><time>2026-03-28T11:36:17Z</time></trkpt><trkpt lat="45.5728767585011" lon="11.243770292137409"><ele>556.3333333333334</ele><time>2026-03-28T11:36:18Z</time></trkpt><trkpt lat="45.572957740577685" lon="11.243770375662423"><ele>555.5</ele><time>2026-03-28T11:36:19Z</time></trkpt><trkpt lat="45.57302073262907" lon="11.24376246649665"><ele>554.6666666666667</ele><time>2026-03-28T11:36:20Z</time></trkpt><trkpt lat="45.57307703026972" lon="11.243651276830557"><ele>553.8333333333334</ele><time>2026-03-28T11:36:22Z</time></trkpt><trkpt lat="45.57304400399149" lon="11.243533398650763"><ele>553.0</ele><time>2026-03-28T11:36:23Z</time></trkpt><trkpt lat="45.57294232482366" lon="11.243480335406343"><ele>554.25</ele><time>2026-03-28T11:36:24Z</time></trkpt><trkpt lat="45.57281712844374" lon="11.243530934134686"><ele>555.5</ele><time>2026-03-28T11:36:25Z</time></trkpt><trkpt lat="45.57267226297371" lon="11.243507367026039"><ele>556.75</ele><time>2026-03-28T11:36:26Z</time></trkpt><trkpt lat="45.572501057231634" lon="11.243505130841179"><ele>558.0</ele><time>2026-03-28T11:36:27Z</time></trkpt><trkpt lat="45.572303819085114" lon="11.243511368119558"><ele>558.0</ele><time>2026-03-28T11:36:28Z</time></trkpt><trkpt lat="45.572100594763846" lon="11.24352701001589"><ele>558.0</ele><time>2026-03-28T11:36:29Z</time></trkpt><trkpt lat="45.57193746587935" lon="11.243547609525537"><ele>558.0</ele><time>2026-03-28T11:36:30Z</time></trkpt><trkpt lat="45.571806784983295" lon="11.243560061508772"><ele>557.75</ele><time>2026-03-28T11:36:31Z</time></trkpt><trkpt lat="45.57167617897101" lon="11.24355800548186"><ele>557.5</ele><time>2026-03-28T11:36:32Z</time></trkpt><trkpt lat="45.571543315224574" lon="11.243527822001111"><ele>557.25</ele><time>2026-03-28T11:36:33Z</time></trkpt><trkpt lat="45.571403317398925" lon="11.243468456902567"><ele>557.0</ele><time>2026-03-28T11:36:34Z</time></trkpt><trkpt lat="45.571270749529276" lon="11.243404502511103"><ele>556.25</ele><time>2026-03-28T11:36:35Z</time></trkpt><trkpt lat="45.57114066776419" lon="11.243324293560638"><ele>555.5</ele><time>2026-03-28T11:36:36Z</time></trkpt><trkpt lat="45.57100920878991" lon="11.243227623468961"><ele>554.75</ele><time>2026-03-28T11:36:37Z</time></trkpt><trkpt lat="45.57088402043038" lon="11.243095431993098"><ele>554.0</ele><time>2026-03-28T11:36:38Z</time></trkpt><trkpt lat="45.57076825989333" lon="11.242946810986421"><ele>556.5</ele><time>2026-03-28T11:36:39Z</time></trkpt><trkpt lat="45.570637921910304" lon="11.242792392564148"><ele>559.0</ele><time>2026-03-28T11:36:40Z</time></trkpt><trkpt lat="45.57051940749511" lon="11.242669192398697"><ele>561.5</ele><time>2026-03-28T11:36:41Z</time></trkpt><trkpt lat="45.57040434417007" lon="11.242581621649997"><ele>564.0</ele><time>2026-03-28T11:36:42Z</time></trkpt><trkpt lat="45.57027341150558" lon="11.242567351053141"><ele>564.0</ele><time>2026-03-28T11:36:43Z</time></trkpt><trkpt lat="45.57016886770269" lon="11.242517502207779"><ele>564.0</ele><time>2026-03-28T11:36:44Z</time></trkpt><trkpt lat="45.570087042177455" lon="11.24247428300946"><ele>564.0</ele><time>2026-03-28T11:36:45Z</time></trkpt><trkpt lat="45.57003549794016" lon="11.242370919526381"><ele>564.0</ele><time>2026-03-28T11:36:46Z</time></trkpt><trkpt lat="45.56997537512032" lon="11.242225796209873"><ele>564.0</ele><time>2026-03-28T11:36:47Z</time></trkpt><trkpt lat="45.56993100451169" lon="11.24203069279422"><ele>566.25</ele><time>2026-03-28T11:36:48Z</time></trkpt><trkpt lat="45.56989631261671" lon="11.24181898406932"><ele>568.5</ele><time>2026-03-28T11:36:49Z</time></trkpt><trkpt lat="45.569879150298256" lon="11.24161492417197"><ele>570.75</ele><time>2026-03-28T11:36:50Z</time></trkpt><trkpt lat="45.56986705427259" lon="11.241423845129118"><ele>573.0</ele><time>2026-03-28T11:36:51Z</time></trkpt><trkpt lat="45.569858071246465" lon="11.24125234679635"><ele>573.6</ele><time>2026-03-28T11:36:52Z</time></trkpt><trkpt lat="45.56985285623255" lon="11.241101363154103"><ele>574.1999999999999</ele><time>2026-03-28T11:36:53Z</time></trkpt><trkpt lat="45.569854224856705" lon="11.240955333028328"><ele>574.8</ele><time>2026-03-28T11:36:54Z</time></trkpt><trkpt lat="45.56986112901761" lon="11.240812381568857"><ele>575.4</ele><time>2026-03-28T11:36:55Z</time></trkpt><trkpt lat="45.569877597339456" lon="11.240630101847325"><ele>576.0</ele><time>2026-03-28T11:36:56Z</time></trkpt><trkpt lat="45.569894561947024" lon="11.240409651557147"><ele>576.5</ele><time>2026-03-28T11:36:57Z</time></trkpt><trkpt lat="45.56989376849427" lon="11.240196352994127"><ele>577.0</ele><time>2026-03-28T11:36:58Z</time></trkpt><trkpt lat="45.56990754363691" lon="11.239990008584714"><ele>577.5</ele><time>2026-03-28T11:36:59Z</time></trkpt><trkpt lat="45.56993908276125" lon="11.239785079406262"><ele>578.0</ele><time>2026-03-28T11:37:00Z</time></trkpt><trkpt lat="45.56995973683463" lon="11.239588621963746"><ele>576.75</ele><time>2026-03-28T11:37:01Z</time></trkpt><trkpt lat="45.56999464413749" lon="11.239400634717038"><ele>575.5</ele><time>2026-03-28T11:37:02Z</time></trkpt><trkpt lat="45.57005512783711" lon="11.239211730299171"><ele>574.25</ele><time>2026-03-28T11:37:03Z</time></trkpt><trkpt lat="45.570121772194376" lon="11.23900435551635"><ele>573.0</ele><time>2026-03-28T11:37:04Z</time></trkpt><trkpt lat="45.57018605215499" lon="11.238795324098238"><ele>575.6666666666666</ele><time>2026-03-28T11:37:05Z</time></trkpt><trkpt lat="45.57028897571514" lon="11.23861142587"><ele>578.3333333333333</ele><time>2026-03-28T11:37:06Z</time></trkpt><trkpt lat="45.570398924248096" lon="11.238413420391057"><ele>581.0</ele><time>2026-03-28T11:37:07Z</time></trkpt><trkpt lat="45.57050105459218" lon="11.238205794745461"><ele>576.75</ele><time>2026-03-28T11:37:08Z</time></trkpt><trkpt lat="45.570615568852006" lon="11.238033977085522"><ele>572.5</ele><time>2026-03-28T11:37:09Z</time></trkpt><trkpt lat="45.57071232699247" lon="11.23789702829902"><ele>568.25</ele><time>2026-03-28T11:37:10Z</time></trkpt><trkpt lat="45.57082707294377" lon="11.237791662433969"><ele>564.0</ele><time>2026-03-28T11:37:11Z</time></trkpt><trkpt lat="45.570932431170206" lon="11.237676736292633"><ele>564.0</ele><time>2026-03-28T11:37:12Z</time></trkpt><trkpt lat="45.571038946160584" lon="11.237603552855163"><ele>564.0</ele><time>2026-03-28T11:37:13Z</time></trkpt><trkpt lat="45.5711282610687" lon="11.237532225420603"><ele>564.0</ele><time>2026-03-28T11:37:14Z</time></trkpt><trkpt lat="45.57119571409132" lon="11.237435603098373"><ele>564.0</ele><time>2026-03-28T11:37:15Z</time></trkpt><trkpt lat="45.57124533018299" lon="11.237302544604232"><ele>564.0</ele><time>2026-03-28T11:37:16Z</time></trkpt><trkpt lat="45.57127621162089" lon="11.237143456965505"><ele>564.6</ele><time>2026-03-28T11:37:16.999Z</time></trkpt><trkpt lat="45.571303588776544" lon="11.237006483984137"><ele>565.2</ele><time>2026-03-28T11:37:17.999Z</time></trkpt><trkpt lat="45.5713549126243" lon="11.236899376762963"><ele>565.8000000000001</ele><time>2026-03-28T11:37:18.999Z</time></trkpt><trkpt lat="45.571424650359006" lon="11.2368226102519"><ele>566.4</ele><time>2026-03-28T11:37:19.999Z</time></trkpt><trkpt lat="45.571517983417706" lon="11.23676094258534"><ele>567.0</ele><time>2026-03-28T11:37:20.999Z</time></trkpt><trkpt lat="45.57162801196954" lon="11.236689221913464"><ele>567.0</ele><time>2026-03-28T11:37:21.999Z</time></trkpt><trkpt lat="45.57173606794974" lon="11.236595678792128"><ele>567.0</ele><time>2026-03-28T11:37:22.999Z</time></trkpt><trkpt lat="45.57185111408723" lon="11.236494259322738"><ele>567.0</ele><time>2026-03-28T11:37:23.999Z</time></trkpt><trkpt lat="45.5719678513964" lon="11.236398145611965"><ele>567.0</ele><time>2026-03-28T11:37:24.999Z</time></trkpt><trkpt lat="45.572087981992986" lon="11.236321803451556"><ele>566.5</ele><time>2026-03-28T11:37:25.999Z</time></trkpt><trkpt lat="45.57218834163631" lon="11.236277525271841"><ele>566.0</ele><time>2026-03-28T11:37:26.999Z</time></trkpt><trkpt lat="45.572276009171965" lon="11.236250784987545"><ele>565.5</ele><time>2026-03-28T11:37:27.999Z</time></trkpt><trkpt lat="45.572354851982986" lon="11.236262875614209"><ele>565.0</ele><time>2026-03-28T11:37:28.999Z</time></trkpt><trkpt lat="45.572430759827945" lon="11.236306746845255"><ele>564.5</ele><time>2026-03-28T11:37:29.999Z</time></trkpt><trkpt lat="45.5724859134665" lon="11.236401390682397"><ele>564.0</ele><time>2026-03-28T11:37:30.999Z</time></trkpt><trkpt lat="45.57253552921645" lon="11.236476618184678"><ele>561.8333333333334</ele><time>2026-03-28T11:37:31.999Z</time></trkpt><trkpt lat="45.57266303704205" lon="11.236444022733776"><ele>559.6666666666666</ele><time>2026-03-28T11:37:33.999Z</time></trkpt><trkpt lat="45.572718400652626" lon="11.236372211793947"><ele>557.5</ele><time>2026-03-28T11:37:34.999Z</time></trkpt><trkpt lat="45.572765212793406" lon="11.236295395050558"><ele>555.3333333333333</ele><time>2026-03-28T11:37:35.999Z</time></trkpt><trkpt lat="45.57282059599739" lon="11.236214637955769"><ele>553.1666666666666</ele><time>2026-03-28T11:37:36.999Z</time></trkpt><trkpt lat="45.57288251890725" lon="11.236134420403799"><ele>551.0</ele><time>2026-03-28T11:37:37.999Z</time></trkpt><trkpt lat="45.57295240846517" lon="11.236060045955506"><ele>550.8</ele><time>2026-03-28T11:37:38.999Z</time></trkpt><trkpt lat="45.5730247034088" lon="11.235981367687387"><ele>550.6</ele><time>2026-03-28T11:37:39.999Z</time></trkpt><trkpt lat="45.57309387542945" lon="11.235891785319403"><ele>550.4</ele><time>2026-03-28T11:37:40.999Z</time></trkpt><trkpt lat="45.57316242231632" lon="11.235799954640049"><ele>550.2</ele><time>2026-03-28T11:37:41.999Z</time></trkpt><trkpt lat="45.573234681478326" lon="11.235727177746536"><ele>550.0</ele><time>2026-03-28T11:37:42.999Z</time></trkpt><trkpt lat="45.57331055236582" lon="11.23567905829837"><ele>550.0</ele><time>2026-03-28T11:37:43.999Z</time></trkpt><trkpt lat="45.573397275379264" lon="11.235668976146085"><ele>550.0</ele><time>2026-03-28T11:37:44.999Z</time></trkpt><trkpt lat="45.57348135390527" lon="11.235674682290432"><ele>550.0</ele><time>2026-03-28T11:37:45.999Z</time></trkpt><trkpt lat="45.57356012298801" lon="11.23565037408764"><ele>550.0</ele><time>2026-03-28T11:37:46.999Z</time></trkpt><trkpt lat="45.573633027019284" lon="11.235593865771957"><ele>550.0</ele><time>2026-03-28T11:37:48Z</time></trkpt><trkpt lat="45.57369779033266" lon="11.235525175104188"><ele>550.0</ele><time>2026-03-28T11:37:49Z</time></trkpt><trkpt lat="45.57375748826821" lon="11.235449286138735"><ele>548.2857142857143</ele><time>2026-03-28T11:37:50Z</time></trkpt><trkpt lat="45.57381254487738" lon="11.235371146305868"><ele>546.5714285714286</ele><time>2026-03-28T11:37:51Z</time></trkpt><trkpt lat="45.57386041127763" lon="11.235286463013109"><ele>544.8571428571429</ele><time>2026-03-28T11:37:52Z</time></trkpt><trkpt lat="45.57389686043698" lon="11.235196283069698"><ele>543.1428571428571</ele><time>2026-03-28T11:37:53Z</time></trkpt><trkpt lat="45.573931534758366" lon="11.235106676782939"><ele>541.4285714285714</ele><time>2026-03-28T11:37:54Z</time></trkpt><trkpt lat="45.57395966074792" lon="11.235018280638434"><ele>539.7142857142858</ele><time>2026-03-28T11:37:55Z</time></trkpt><trkpt lat="45.57398677628137" lon="11.23492905679995"><ele>538.0</ele><time>2026-03-28T11:37:56Z</time></trkpt><trkpt lat="45.57400988962208" lon="11.234759932802225"><ele>536.6666666666667</ele><time>2026-03-28T11:37:58Z</time></trkpt><trkpt lat="45.57403280429818" lon="11.234584555742028"><ele>535.3333333333334</ele><time>2026-03-28T11:38:00Z</time></trkpt><trkpt lat="45.57402615760932" lon="11.234480009883592"><ele>534.0</ele><time>2026-03-28T11:38:01Z</time></trkpt><trkpt lat="45.57404131501016" lon="11.234367449604708"><ele>532.6666666666666</ele><time>2026-03-28T11:38:02Z</time></trkpt><trkpt lat="45.57405905731586" lon="11.234258425626138"><ele>531.3333333333333</ele><time>2026-03-28T11:38:03Z</time></trkpt><trkpt lat="45.57408162248742" lon="11.234170287977175"><ele>530.0</ele><time>2026-03-28T11:38:04Z</time></trkpt><trkpt lat="45.574071753559615" lon="11.23402792875593"><ele>530.0</ele><time>2026-03-28T11:38:06Z</time></trkpt><trkpt lat="45.573954708830776" lon="11.23398763420461"><ele>530.0</ele><time>2026-03-28T11:38:08Z</time></trkpt><trkpt lat="45.57388584149598" lon="11.234002301082755"><ele>530.0</ele><time>2026-03-28T11:38:09Z</time></trkpt><trkpt lat="45.573815354485006" lon="11.234026057891079"><ele>530.0</ele><time>2026-03-28T11:38:10Z</time></trkpt><trkpt lat="45.573738456885" lon="11.234058806489442"><ele>530.0</ele><time>2026-03-28T11:38:11Z</time></trkpt><trkpt lat="45.5736580870337" lon="11.234069571469389"><ele>530.0</ele><time>2026-03-28T11:38:12Z</time></trkpt><trkpt lat="45.57356290326423" lon="11.234075600774279"><ele>527.6</ele><time>2026-03-28T11:38:14Z</time></trkpt><trkpt lat="45.57354935454913" lon="11.233972092410571"><ele>525.2</ele><time>2026-03-28T11:38:16Z</time></trkpt><trkpt lat="45.573654320790034" lon="11.233876866241232"><ele>522.8</ele><time>2026-03-28T11:38:18Z</time></trkpt><trkpt lat="45.57373842445394" lon="11.233856574418743"><ele>520.4</ele><time>2026-03-28T11:38:19Z</time></trkpt><trkpt lat="45.5738324009017" lon="11.233810684584999"><ele>518.0</ele><time>2026-03-28T11:38:20Z</time></trkpt><trkpt lat="45.57395312216637" lon="11.233729992468078"><ele>516.75</ele><time>2026-03-28T11:38:21Z</time></trkpt><trkpt lat="45.57408685085595" lon="11.233642821852627"><ele>515.5</ele><time>2026-03-28T11:38:22Z</time></trkpt><trkpt lat="45.57422838668032" lon="11.233559317832071"><ele>514.25</ele><time>2026-03-28T11:38:23Z</time></trkpt><trkpt lat="45.57436275007774" lon="11.233470465434033"><ele>513.0</ele><time>2026-03-28T11:38:24Z</time></trkpt><trkpt lat="45.57448444938606" lon="11.233387323178286"><ele>512.5</ele><time>2026-03-28T11:38:25Z</time></trkpt><trkpt lat="45.574593582965676" lon="11.233304414463698"><ele>512.0</ele><time>2026-03-28T11:38:26Z</time></trkpt><trkpt lat="45.57469618420544" lon="11.233210221707393"><ele>511.5</ele><time>2026-03-28T11:38:27Z</time></trkpt><trkpt lat="45.574788201280185" lon="11.233095498243044"><ele>511.0</ele><time>2026-03-28T11:38:28Z</time></trkpt><trkpt lat="45.57486978302115" lon="11.232969605058937"><ele>511.00000000000006</ele><time>2026-03-28T11:38:29Z</time></trkpt><trkpt lat="45.57494349773392" lon="11.232866406317216"><ele>511.0</ele><time>2026-03-28T11:38:30Z</time></trkpt><trkpt lat="45.57499940342257" lon="11.232788325469194"><ele>511.0</ele><time>2026-03-28T11:38:31Z</time></trkpt><trkpt lat="45.57502600876451" lon="11.232696145879768"><ele>511.0</ele><time>2026-03-28T11:38:32Z</time></trkpt><trkpt lat="45.57501997074859" lon="11.232603900872439"><ele>511.00000000000006</ele><time>2026-03-28T11:38:33Z</time></trkpt><trkpt lat="45.575003044707564" lon="11.23251128118966"><ele>511.0</ele><time>2026-03-28T11:38:34Z</time></trkpt><trkpt lat="45.57492887918118" lon="11.23244680554323"><ele>511.00000000000006</ele><time>2026-03-28T11:38:35Z</time></trkpt><trkpt lat="45.574855700051494" lon="11.23241707872129"><ele>511.0</ele><time>2026-03-28T11:38:36Z</time></trkpt><trkpt lat="45.574774412407955" lon="11.232410036255764"><ele>511.0</ele><time>2026-03-28T11:38:37Z</time></trkpt><trkpt lat="45.57471052289" lon="11.232386286976528"><ele>511.0</ele><time>2026-03-28T11:38:38Z</time></trkpt><trkpt lat="45.57464975699311" lon="11.23231082356595"><ele>511.00000000000006</ele><time>2026-03-28T11:38:40Z</time></trkpt><trkpt lat="45.574637772436404" lon="11.232105381467553"><ele>511.0</ele><time>2026-03-28T11:38:42Z</time></trkpt><trkpt lat="45.574675737595946" lon="11.231981412057593"><ele>511.25</ele><time>2026-03-28T11:38:43Z</time></trkpt><trkpt lat="45.57471259164477" lon="11.231807376438946"><ele>511.5</ele><time>2026-03-28T11:38:44Z</time></trkpt><trkpt lat="45.57475099954925" lon="11.231587225235966"><ele>511.75</ele><time>2026-03-28T11:38:45Z</time></trkpt><trkpt lat="45.57478997073712" lon="11.231375178209985"><ele>512.0</ele><time>2026-03-28T11:38:46Z</time></trkpt><trkpt lat="45.57482198721458" lon="11.23121738153541"><ele>512.1666666666666</ele><time>2026-03-28T11:38:47Z</time></trkpt><trkpt lat="45.57484974533836" lon="11.2310832418289"><ele>512.3333333333333</ele><time>2026-03-28T11:38:48Z</time></trkpt><trkpt lat="45.57487536486894" lon="11.230968305770029"><ele>512.5</ele><time>2026-03-28T11:38:49Z</time></trkpt><trkpt lat="45.57490388465855" lon="11.230886021009162"><ele>512.6666666666666</ele><time>2026-03-28T11:38:50Z</time></trkpt><trkpt lat="45.574978087720126" lon="11.230811770640123"><ele>512.8333333333334</ele><time>2026-03-28T11:38:52Z</time></trkpt><trkpt lat="45.57501691082132" lon="11.230721400276575"><ele>513.0</ele><time>2026-03-28T11:38:55Z</time></trkpt><trkpt lat="45.574955431865625" lon="11.23067717539324"><ele>513.0</ele><time>2026-03-28T11:39:02Z</time></trkpt><trkpt lat="45.57489166827378" lon="11.23071426153251"><ele>513.0</ele><time>2026-03-28T11:39:04Z</time></trkpt><trkpt lat="45.57511813851125" lon="11.230895922782432"><ele>513.0</ele><time>2026-03-28T11:39:05Z</time></trkpt><trkpt lat="45.575126097406304" lon="11.231007725670182"><ele>513.0</ele><time>2026-03-28T11:39:06Z</time></trkpt><trkpt lat="45.575182294727846" lon="11.231194605226202"><ele>513.0</ele><time>2026-03-28T11:39:08Z</time></trkpt><trkpt lat="45.57475700168093" lon="11.231397974000998"><ele>513.0</ele><time>2026-03-28T11:39:09Z</time></trkpt><trkpt lat="45.574724488887654" lon="11.231544092679723"><ele>512.8333333333334</ele><time>2026-03-28T11:39:10Z</time></trkpt><trkpt lat="45.57470149781747" lon="11.231688858552452"><ele>512.6666666666666</ele><time>2026-03-28T11:39:10.999Z</time></trkpt><trkpt lat="45.5746815312948" lon="11.231830135097905"><ele>512.5</ele><time>2026-03-28T11:39:11.999Z</time></trkpt><trkpt lat="45.574659049180866" lon="11.231960683918489"><ele>512.3333333333333</ele><time>2026-03-28T11:39:12.999Z</time></trkpt><trkpt lat="45.57463556784578" lon="11.232066210445307"><ele>512.1666666666666</ele><time>2026-03-28T11:39:13.999Z</time></trkpt><trkpt lat="45.574599643984115" lon="11.23215060953354"><ele>512.0</ele><time>2026-03-28T11:39:14.999Z</time></trkpt><trkpt lat="45.574548863604186" lon="11.232208241830799"><ele>508.25</ele><time>2026-03-28T11:39:15.999Z</time></trkpt><trkpt lat="45.57434721423908" lon="11.232135653896965"><ele>504.5</ele><time>2026-03-28T11:39:18.999Z</time></trkpt><trkpt lat="45.57431699219297" lon="11.23200438023783"><ele>500.75</ele><time>2026-03-28T11:39:19.999Z</time></trkpt><trkpt lat="45.5742907766171" lon="11.231847015360778"><ele>497.0</ele><time>2026-03-28T11:39:20.999Z</time></trkpt><trkpt lat="45.57424768784271" lon="11.231673476388377"><ele>497.0</ele><time>2026-03-28T11:39:21.999Z</time></trkpt><trkpt lat="45.574211054311206" lon="11.23148539453049"><ele>497.0</ele><time>2026-03-28T11:39:22.999Z</time></trkpt><trkpt lat="45.57417656021608" lon="11.231323264497583"><ele>497.0</ele><time>2026-03-28T11:39:23.999Z</time></trkpt><trkpt lat="45.57414283936303" lon="11.2311698607784"><ele>497.0</ele><time>2026-03-28T11:39:24.999Z</time></trkpt><trkpt lat="45.57410640425522" lon="11.2310093589716"><ele>496.8</ele><time>2026-03-28T11:39:25.999Z</time></trkpt><trkpt lat="45.574072826665" lon="11.23085931625832"><ele>496.6</ele><time>2026-03-28T11:39:26.999Z</time></trkpt><trkpt lat="45.57404097690039" lon="11.230715120371013"><ele>496.40000000000003</ele><time>2026-03-28T11:39:27.999Z</time></trkpt><trkpt lat="45.57400741761019" lon="11.230571193477854"><ele>496.20000000000005</ele><time>2026-03-28T11:39:28.999Z</time></trkpt><trkpt lat="45.573976031894205" lon="11.230434687506145"><ele>496.0</ele><time>2026-03-28T11:39:29.999Z</time></trkpt><trkpt lat="45.57396221644102" lon="11.230293018891349"><ele>495.4</ele><time>2026-03-28T11:39:30.999Z</time></trkpt><trkpt lat="45.573933882322095" lon="11.23015897739149"><ele>494.8</ele><time>2026-03-28T11:39:31.999Z</time></trkpt><trkpt lat="45.573906767620635" lon="11.230034039307858"><ele>494.19999999999993</ele><time>2026-03-28T11:39:32.999Z</time></trkpt><trkpt lat="45.573863995636614" lon="11.22991640310955"><ele>493.59999999999997</ele><time>2026-03-28T11:39:33.999Z</time></trkpt><trkpt lat="45.57384833668325" lon="11.229788676205715"><ele>493.0</ele><time>2026-03-28T11:39:34.999Z</time></trkpt><trkpt lat="45.57381809594305" lon="11.229673750103494"><ele>492.83333333333337</ele><time>2026-03-28T11:39:35.999Z</time></trkpt><trkpt lat="45.57379092220782" lon="11.22954892141663"><ele>492.6666666666667</ele><time>2026-03-28T11:39:36.999Z</time></trkpt><trkpt lat="45.57376710095819" lon="11.229427447719662"><ele>492.5</ele><time>2026-03-28T11:39:37.999Z</time></trkpt><trkpt lat="45.57374272450699" lon="11.229310534214806"><ele>492.33333333333337</ele><time>2026-03-28T11:39:38.999Z</time></trkpt><trkpt lat="45.57371721740724" lon="11.229199453227102"><ele>492.1666666666667</ele><time>2026-03-28T11:39:39.999Z</time></trkpt><trkpt lat="45.57369592485954" lon="11.229089491111521"><ele>492.0</ele><time>2026-03-28T11:39:40.999Z</time></trkpt><trkpt lat="45.57367521138249" lon="11.228974501117644"><ele>490.1666666666667</ele><time>2026-03-28T11:39:41.999Z</time></trkpt><trkpt lat="45.57365637469652" lon="11.228874850483441"><ele>488.33333333333337</ele><time>2026-03-28T11:39:42.999Z</time></trkpt><trkpt lat="45.573636623389774" lon="11.228763067620928"><ele>486.5</ele><time>2026-03-28T11:39:43.999Z</time></trkpt><trkpt lat="45.57361731285532" lon="11.228647090014174"><ele>484.6666666666667</ele><time>2026-03-28T11:39:44.999Z</time></trkpt><trkpt lat="45.573594773884146" lon="11.228526455769568"><ele>482.83333333333337</ele><time>2026-03-28T11:39:45.999Z</time></trkpt><trkpt lat="45.57357195533849" lon="11.228397584426228"><ele>481.0</ele><time>2026-03-28T11:39:46.999Z</time></trkpt><trkpt lat="45.573567293134836" lon="11.228261000453077"><ele>481.1666666666667</ele><time>2026-03-28T11:39:47.999Z</time></trkpt><trkpt lat="45.5735397575442" lon="11.22813437729545"><ele>481.33333333333337</ele><time>2026-03-28T11:39:48.999Z</time></trkpt><trkpt lat="45.57352751474887" lon="11.2280158940644"><ele>481.5</ele><time>2026-03-28T11:39:49.999Z</time></trkpt><trkpt lat="45.573516149186176" lon="11.227924252970833"><ele>481.66666666666663</ele><time>2026-03-28T11:39:50.999Z</time></trkpt><trkpt lat="45.573503131362465" lon="11.227835499488101"><ele>481.8333333333333</ele><time>2026-03-28T11:39:52.999Z</time></trkpt><trkpt lat="45.57349252626345" lon="11.227731884519446"><ele>482.0</ele><time>2026-03-28T11:40:03Z</time></trkpt><trkpt lat="45.57345713082703" lon="11.227620891271647"><ele>482.0</ele><time>2026-03-28T11:40:06Z</time></trkpt><trkpt lat="45.57333328026194" lon="11.227688787106253"><ele>482.00000000000006</ele><time>2026-03-28T11:40:09Z</time></trkpt><trkpt lat="45.57324923413874" lon="11.227777056136743"><ele>482.00000000000006</ele><time>2026-03-28T11:40:11Z</time></trkpt><trkpt lat="45.57316659449427" lon="11.227857885881766"><ele>482.0</ele><time>2026-03-28T11:40:13Z</time></trkpt><trkpt lat="45.57307727061671" lon="11.22793173749233"><ele>482.0</ele><time>2026-03-28T11:40:15Z</time></trkpt><trkpt lat="45.57299756778909" lon="11.22797826676587"><ele>481.99999999999994</ele><time>2026-03-28T11:40:17Z</time></trkpt><trkpt lat="45.572928552269936" lon="11.228017018406645"><ele>482.0</ele><time>2026-03-28T11:40:19Z</time></trkpt><trkpt lat="45.57286598254103" lon="11.228111131125385"><ele>482.0</ele><time>2026-03-28T11:40:38Z</time></trkpt><trkpt lat="45.5728017636301" lon="11.228182195084447"><ele>482.0</ele><time>2026-03-28T11:40:41Z</time></trkpt><trkpt lat="45.5728591935979" lon="11.228119454578932"><ele>481.99999999999994</ele><time>2026-03-28T11:40:54Z</time></trkpt><trkpt lat="45.57293636354867" lon="11.228032137908185"><ele>482.0</ele><time>2026-03-28T11:40:56Z</time></trkpt><trkpt lat="45.573019569973376" lon="11.227937991057008"><ele>482.0</ele><time>2026-03-28T11:40:58Z</time></trkpt><trkpt lat="45.57311131794693" lon="11.227834179569335"><ele>482.0</ele><time>2026-03-28T11:41:00Z</time></trkpt><trkpt lat="45.573183017833585" lon="11.227753052197894"><ele>482.0</ele><time>2026-03-28T11:41:02Z</time></trkpt><trkpt lat="45.57309143071106" lon="11.227787852132401"><ele>482.0</ele><time>2026-03-28T11:41:08Z</time></trkpt><trkpt lat="45.572693733099946" lon="11.22774917580258"><ele>480.25</ele><time>2026-03-28T11:41:12Z</time></trkpt><trkpt lat="45.57261528838339" lon="11.227777792930558"><ele>478.5</ele><time>2026-03-28T11:41:13Z</time></trkpt><trkpt lat="45.57253999196008" lon="11.227809477754715"><ele>476.75</ele><time>2026-03-28T11:41:14Z</time></trkpt><trkpt lat="45.57246895844678" lon="11.227845759878047"><ele>475.0</ele><time>2026-03-28T11:41:14.999Z</time></trkpt><trkpt lat="45.57250963221008" lon="11.228190822905313"><ele>475.0</ele><time>2026-03-28T11:41:15.999Z</time></trkpt><trkpt lat="45.572408693246174" lon="11.22825539768049"><ele>475.0</ele><time>2026-03-28T11:41:17.999Z</time></trkpt><trkpt lat="45.572356780248654" lon="11.228201457655944"><ele>475.0</ele><time>2026-03-28T11:41:19.999Z</time></trkpt><trkpt lat="45.5721642628984" lon="11.227575924175897"><ele>475.0</ele><time>2026-03-28T11:41:20.999Z</time></trkpt><trkpt lat="45.5721227573411" lon="11.227462860363815"><ele>475.0</ele><time>2026-03-28T11:41:21.999Z</time></trkpt><trkpt lat="45.57206853164338" lon="11.22734483808447"><ele>475.0</ele><time>2026-03-28T11:41:22.999Z</time></trkpt><trkpt lat="45.57200131892921" lon="11.22720985787968"><ele>475.0</ele><time>2026-03-28T11:41:23.999Z</time></trkpt><trkpt lat="45.57193091855765" lon="11.22705667982911"><ele>475.0</ele><time>2026-03-28T11:41:24.999Z</time></trkpt><trkpt lat="45.57187099019292" lon="11.226878845428994"><ele>469.5</ele><time>2026-03-28T11:41:25.999Z</time></trkpt><trkpt lat="45.57182740364818" lon="11.226696345839953"><ele>464.0</ele><time>2026-03-28T11:41:26.999Z</time></trkpt><trkpt lat="45.57178947422714" lon="11.226528676949071"><ele>458.5</ele><time>2026-03-28T11:41:27.999Z</time></trkpt><trkpt lat="45.57175137862869" lon="11.226374309963525"><ele>453.0</ele><time>2026-03-28T11:41:28.999Z</time></trkpt><trkpt lat="45.571728600989786" lon="11.226234385446503"><ele>452.25</ele><time>2026-03-28T11:41:29.999Z</time></trkpt><trkpt lat="45.57173074537084" lon="11.22608336463417"><ele>451.5</ele><time>2026-03-28T11:41:30.999Z</time></trkpt><trkpt lat="45.57175617507318" lon="11.225917165392637"><ele>450.75</ele><time>2026-03-28T11:41:31.999Z</time></trkpt><trkpt lat="45.57178811996221" lon="11.225737162944254"><ele>450.0</ele><time>2026-03-28T11:41:32.999Z</time></trkpt><trkpt lat="45.57181207184337" lon="11.225559517382397"><ele>449.4</ele><time>2026-03-28T11:41:33.999Z</time></trkpt><trkpt lat="45.57183471425201" lon="11.225398755390097"><ele>448.8</ele><time>2026-03-28T11:41:34.999Z</time></trkpt><trkpt lat="45.5718629887098" lon="11.225258865127158"><ele>448.20000000000005</ele><time>2026-03-28T11:41:35.999Z</time></trkpt><trkpt lat="45.57187206595134" lon="11.22512620687307"><ele>447.6</ele><time>2026-03-28T11:41:36.999Z</time></trkpt><trkpt lat="45.57186383295781" lon="11.224988711968967"><ele>447.0</ele><time>2026-03-28T11:41:37.999Z</time></trkpt><trkpt lat="45.57180295195569" lon="11.224852159128972"><ele>446.0</ele><time>2026-03-28T11:41:38.999Z</time></trkpt><trkpt lat="45.57168511086115" lon="11.224763617584152"><ele>445.0</ele><time>2026-03-28T11:41:39.999Z</time></trkpt><trkpt lat="45.571582826404615" lon="11.224685034812993"><ele>444.0</ele><time>2026-03-28T11:41:40.999Z</time></trkpt><trkpt lat="45.571478524923776" lon="11.22456189266143"><ele>443.0</ele><time>2026-03-28T11:41:41.999Z</time></trkpt><trkpt lat="45.571348455812306" lon="11.224439419112338"><ele>443.0</ele><time>2026-03-28T11:41:42.999Z</time></trkpt><trkpt lat="45.57122388184126" lon="11.224321289970526"><ele>443.0</ele><time>2026-03-28T11:41:43.999Z</time></trkpt><trkpt lat="45.57111683618683" lon="11.224219172562847"><ele>443.0</ele><time>2026-03-28T11:41:44.999Z</time></trkpt><trkpt lat="45.57102014353978" lon="11.224126433273836"><ele>443.0</ele><time>2026-03-28T11:41:45.999Z</time></trkpt><trkpt lat="45.57094601973759" lon="11.224039883290137"><ele>439.66666666666663</ele><time>2026-03-28T11:41:46.999Z</time></trkpt><trkpt lat="45.57090212156299" lon="11.2239588971452"><ele>436.3333333333333</ele><time>2026-03-28T11:41:47.999Z</time></trkpt><trkpt lat="45.570867974833476" lon="11.223876589595388"><ele>433.0</ele><time>2026-03-28T11:41:48.999Z</time></trkpt><trkpt lat="45.57091916400576" lon="11.223775418191222"><ele>429.66666666666663</ele><time>2026-03-28T11:41:49.999Z</time></trkpt><trkpt lat="45.57096776320151" lon="11.223668008258239"><ele>426.3333333333333</ele><time>2026-03-28T11:41:50.999Z</time></trkpt><trkpt lat="45.5710676510256" lon="11.223555510336691"><ele>423.0</ele><time>2026-03-28T11:41:51.999Z</time></trkpt><trkpt lat="45.57116875502849" lon="11.22346451662974"><ele>423.8333333333333</ele><time>2026-03-28T11:41:52.999Z</time></trkpt><trkpt lat="45.571269084651995" lon="11.223405307392584"><ele>424.66666666666663</ele><time>2026-03-28T11:41:53.999Z</time></trkpt><trkpt lat="45.571360911275804" lon="11.223387122528688"><ele>425.5</ele><time>2026-03-28T11:41:54.999Z</time></trkpt><trkpt lat="45.571441951038835" lon="11.223382574210651"><ele>426.3333333333333</ele><time>2026-03-28T11:41:55.999Z</time></trkpt><trkpt lat="45.571503228976496" lon="11.223341931319718"><ele>427.16666666666663</ele><time>2026-03-28T11:41:56.999Z</time></trkpt><trkpt lat="45.5715599593672" lon="11.22327809060916"><ele>428.0</ele><time>2026-03-28T11:41:57.999Z</time></trkpt><trkpt lat="45.57156589494743" lon="11.223115269228353"><ele>428.0</ele><time>2026-03-28T11:41:58.999Z</time></trkpt><trkpt lat="45.57150578487706" lon="11.222979981644267"><ele>427.99999999999994</ele><time>2026-03-28T11:42:00Z</time></trkpt><trkpt lat="45.57149849439121" lon="11.222870205345698"><ele>427.99999999999994</ele><time>2026-03-28T11:42:01Z</time></trkpt><trkpt lat="45.57152689508929" lon="11.222762137507758"><ele>428.0</ele><time>2026-03-28T11:42:02Z</time></trkpt><trkpt lat="45.57160327424927" lon="11.222666608808282"><ele>428.0</ele><time>2026-03-28T11:42:03Z</time></trkpt><trkpt lat="45.57170326412586" lon="11.222585875683214"><ele>428.0</ele><time>2026-03-28T11:42:04Z</time></trkpt><trkpt lat="45.571793553390584" lon="11.222498572332993"><ele>427.99999999999994</ele><time>2026-03-28T11:42:05Z</time></trkpt><trkpt lat="45.571850696737435" lon="11.222389314055519"><ele>427.99999999999994</ele><time>2026-03-28T11:42:06Z</time></trkpt><trkpt lat="45.57186142093226" lon="11.22225395778321"><ele>428.0</ele><time>2026-03-28T11:42:07Z</time></trkpt><trkpt lat="45.571839512305345" lon="11.222136611688581"><ele>428.0</ele><time>2026-03-28T11:42:08Z</time></trkpt><trkpt lat="45.57180600917814" lon="11.222001439583533"><ele>430.5</ele><time>2026-03-28T11:42:09Z</time></trkpt><trkpt lat="45.57168187379043" lon="11.221899980177648"><ele>433.0</ele><time>2026-03-28T11:42:10Z</time></trkpt><trkpt lat="45.57157032604592" lon="11.221776008433586"><ele>435.5</ele><time>2026-03-28T11:42:11Z</time></trkpt><trkpt lat="45.57149270141128" lon="11.22161176582383"><ele>438.0</ele><time>2026-03-28T11:42:12Z</time></trkpt><trkpt lat="45.571407764457575" lon="11.221536725171774"><ele>438.0</ele><time>2026-03-28T11:42:13Z</time></trkpt><trkpt lat="45.571321625009034" lon="11.221522024904125"><ele>437.99999999999994</ele><time>2026-03-28T11:42:14Z</time></trkpt><trkpt lat="45.57121674360139" lon="11.221550774374993"><ele>437.99999999999994</ele><time>2026-03-28T11:42:15Z</time></trkpt><trkpt lat="45.571102055189314" lon="11.22158536421209"><ele>438.0</ele><time>2026-03-28T11:42:16Z</time></trkpt><trkpt lat="45.57103771783706" lon="11.22172516782053"><ele>438.0</ele><time>2026-03-28T11:42:17Z</time></trkpt><trkpt lat="45.570980326555166" lon="11.221827527698021"><ele>437.59999999999997</ele><time>2026-03-28T11:42:18Z</time></trkpt><trkpt lat="45.57093668228043" lon="11.221907980732515"><ele>437.19999999999993</ele><time>2026-03-28T11:42:19Z</time></trkpt><trkpt lat="45.57083480811579" lon="11.221884272935995"><ele>436.8</ele><time>2026-03-28T11:42:21Z</time></trkpt><trkpt lat="45.570800348428904" lon="11.221772358093776"><ele>436.4</ele><time>2026-03-28T11:42:22Z</time></trkpt><trkpt lat="45.57081336704841" lon="11.221631034730567"><ele>436.0</ele><time>2026-03-28T11:42:23Z</time></trkpt><trkpt lat="45.570796391445725" lon="11.221476769173549"><ele>436.0</ele><time>2026-03-28T11:42:24Z</time></trkpt><trkpt lat="45.570791681822996" lon="11.221351464128487"><ele>436.0</ele><time>2026-03-28T11:42:25Z</time></trkpt><trkpt lat="45.57067490165627" lon="11.221248543617278"><ele>436.0</ele><time>2026-03-28T11:42:27Z</time></trkpt><trkpt lat="45.57058460403633" lon="11.221288810259658"><ele>436.0</ele><time>2026-03-28T11:42:28Z</time></trkpt><trkpt lat="45.570496647293574" lon="11.221378001149823"><ele>436.0</ele><time>2026-03-28T11:42:29Z</time></trkpt><trkpt lat="45.570407340269504" lon="11.221508182995008"><ele>444.25</ele><time>2026-03-28T11:42:30Z</time></trkpt><trkpt lat="45.57032512518378" lon="11.221662221630245"><ele>452.5</ele><time>2026-03-28T11:42:31Z</time></trkpt><trkpt lat="45.57026304024874" lon="11.221871029960154"><ele>460.75</ele><time>2026-03-28T11:42:32Z</time></trkpt><trkpt lat="45.570201813832405" lon="11.222041012746164"><ele>469.0</ele><time>2026-03-28T11:42:33Z</time></trkpt><trkpt lat="45.570126231537905" lon="11.222128522301924"><ele>469.0</ele><time>2026-03-28T11:42:34Z</time></trkpt><trkpt lat="45.57004600226112" lon="11.222218498542253"><ele>469.0</ele><time>2026-03-28T11:42:35Z</time></trkpt><trkpt lat="45.56995924713275" lon="11.222312728078254"><ele>469.0</ele><time>2026-03-28T11:42:36Z</time></trkpt><trkpt lat="45.56982966147798" lon="11.2223403978096"><ele>469.0</ele><time>2026-03-28T11:42:37Z</time></trkpt><trkpt lat="45.56969894995924" lon="11.222385875920182"><ele>465.5</ele><time>2026-03-28T11:42:38Z</time></trkpt><trkpt lat="45.56958308806818" lon="11.222463025506219"><ele>462.0</ele><time>2026-03-28T11:42:39Z</time></trkpt><trkpt lat="45.5694459026628" lon="11.222497474914594"><ele>458.5</ele><time>2026-03-28T11:42:40Z</time></trkpt><trkpt lat="45.569296375019604" lon="11.222507782337667"><ele>455.0</ele><time>2026-03-28T11:42:41Z</time></trkpt><trkpt lat="45.56914721941006" lon="11.222485010618692"><ele>455.0</ele><time>2026-03-28T11:42:42Z</time></trkpt><trkpt lat="45.56900366827179" lon="11.222442702496592"><ele>455.0</ele><time>2026-03-28T11:42:43Z</time></trkpt><trkpt lat="45.56886405763003" lon="11.222377443399422"><ele>455.0</ele><time>2026-03-28T11:42:44Z</time></trkpt><trkpt lat="45.568756725378655" lon="11.222281146672191"><ele>455.0</ele><time>2026-03-28T11:42:45Z</time></trkpt><trkpt lat="45.5686683501987" lon="11.222185966568798"><ele>452.0</ele><time>2026-03-28T11:42:46Z</time></trkpt><trkpt lat="45.56860504417231" lon="11.222102629951547"><ele>449.0</ele><time>2026-03-28T11:42:47Z</time></trkpt><trkpt lat="45.56858499656951" lon="11.221981715310733"><ele>446.0</ele><time>2026-03-28T11:42:48Z</time></trkpt><trkpt lat="45.5686258984623" lon="11.22184946698045"><ele>443.0</ele><time>2026-03-28T11:42:49Z</time></trkpt><trkpt lat="45.56864767273755" lon="11.221708891226324"><ele>440.0</ele><time>2026-03-28T11:42:50Z</time></trkpt><trkpt lat="45.56868058919233" lon="11.22156818162158"><ele>446.5</ele><time>2026-03-28T11:42:51Z</time></trkpt><trkpt lat="45.56875144439043" lon="11.221446881071689"><ele>453.0</ele><time>2026-03-28T11:42:52Z</time></trkpt><trkpt lat="45.568855121674815" lon="11.221319443978633"><ele>459.5</ele><time>2026-03-28T11:42:53Z</time></trkpt><trkpt lat="45.56897627160464" lon="11.221163501434297"><ele>466.0</ele><time>2026-03-28T11:42:54Z</time></trkpt><trkpt lat="45.56911053079616" lon="11.220967240285596"><ele>466.0</ele><time>2026-03-28T11:42:55Z</time></trkpt><trkpt lat="45.569238772594524" lon="11.220739206593533"><ele>466.0</ele><time>2026-03-28T11:42:56Z</time></trkpt><trkpt lat="45.56932974471286" lon="11.220510981991358"><ele>466.0</ele><time>2026-03-28T11:42:57Z</time></trkpt><trkpt lat="45.569399165230614" lon="11.220290075501124"><ele>464.0</ele><time>2026-03-28T11:42:58Z</time></trkpt><trkpt lat="45.56945346160985" lon="11.220050858815535"><ele>462.0</ele><time>2026-03-28T11:42:59Z</time></trkpt><trkpt lat="45.5695082724077" lon="11.219813165211598"><ele>460.0</ele><time>2026-03-28T11:43:00Z</time></trkpt><trkpt lat="45.56952125066073" lon="11.219567323149443"><ele>466.0</ele><time>2026-03-28T11:43:01Z</time></trkpt><trkpt lat="45.569555120512106" lon="11.219348095280827"><ele>472.0</ele><time>2026-03-28T11:43:02Z</time></trkpt><trkpt lat="45.56961268894852" lon="11.219151949253558"><ele>478.0</ele><time>2026-03-28T11:43:03Z</time></trkpt><trkpt lat="45.56967824844098" lon="11.218944435808373"><ele>479.0</ele><time>2026-03-28T11:43:04Z</time></trkpt><trkpt lat="45.56972346300263" lon="11.218737859561958"><ele>480.0</ele><time>2026-03-28T11:43:05Z</time></trkpt><trkpt lat="45.56976567719853" lon="11.218552073504082"><ele>481.0</ele><time>2026-03-28T11:43:06Z</time></trkpt><trkpt lat="45.56977763505432" lon="11.218363178103136"><ele>482.0</ele><time>2026-03-28T11:43:07Z</time></trkpt><trkpt lat="45.569757451740855" lon="11.21817369612424"><ele>484.25</ele><time>2026-03-28T11:43:08Z</time></trkpt><trkpt lat="45.56971108492815" lon="11.217988570252551"><ele>486.5</ele><time>2026-03-28T11:43:09Z</time></trkpt><trkpt lat="45.569642967601546" lon="11.217818275856098"><ele>488.75</ele><time>2026-03-28T11:43:10Z</time></trkpt><trkpt lat="45.569573221514524" lon="11.217651000952337"><ele>491.0</ele><time>2026-03-28T11:43:11Z</time></trkpt><trkpt lat="45.569488970228896" lon="11.217487160886527"><ele>487.5</ele><time>2026-03-28T11:43:12Z</time></trkpt><trkpt lat="45.5693994104117" lon="11.217321252838119"><ele>484.0</ele><time>2026-03-28T11:43:13Z</time></trkpt><trkpt lat="45.56932576928046" lon="11.217133906638422"><ele>480.5</ele><time>2026-03-28T11:43:14Z</time></trkpt><trkpt lat="45.569266959635456" lon="11.216945824799124"><ele>477.0</ele><time>2026-03-28T11:43:15Z</time></trkpt><trkpt lat="45.56918716223299" lon="11.216785924381504"><ele>477.0</ele><time>2026-03-28T11:43:15.999Z</time></trkpt><trkpt lat="45.56907160639264" lon="11.216628767481977"><ele>477.0</ele><time>2026-03-28T11:43:16.999Z</time></trkpt><trkpt lat="45.56891822578286" lon="11.21650477917466"><ele>477.0</ele><time>2026-03-28T11:43:17.999Z</time></trkpt><trkpt lat="45.56877184050853" lon="11.216387301335331"><ele>477.5</ele><time>2026-03-28T11:43:18.999Z</time></trkpt><trkpt lat="45.568650432229" lon="11.216261808720953"><ele>478.0</ele><time>2026-03-28T11:43:19.999Z</time></trkpt><trkpt lat="45.5685194377653" lon="11.216169251748854"><ele>478.5</ele><time>2026-03-28T11:43:20.999Z</time></trkpt><trkpt lat="45.56837031962635" lon="11.21612632238289"><ele>479.0</ele><time>2026-03-28T11:43:21.999Z</time></trkpt><trkpt lat="45.5682085004409" lon="11.216198013446169"><ele>479.0</ele><time>2026-03-28T11:43:22.999Z</time></trkpt><trkpt lat="45.56804981404417" lon="11.21625281222581"><ele>479.0</ele><time>2026-03-28T11:43:23.999Z</time></trkpt><trkpt lat="45.56789860502658" lon="11.216319365809996"><ele>479.0</ele><time>2026-03-28T11:43:24.999Z</time></trkpt><trkpt lat="45.567764979019984" lon="11.216332304340014"><ele>477.4</ele><time>2026-03-28T11:43:25.999Z</time></trkpt><trkpt lat="45.567651979688776" lon="11.216384326896588"><ele>475.79999999999995</ele><time>2026-03-28T11:43:26.999Z</time></trkpt><trkpt lat="45.567543729812" lon="11.216380322139255"><ele>474.20000000000005</ele><time>2026-03-28T11:43:27.999Z</time></trkpt><trkpt lat="45.56744548356448" lon="11.216375587684668"><ele>472.6</ele><time>2026-03-28T11:43:28.999Z</time></trkpt><trkpt lat="45.567362129909945" lon="11.216349489140573"><ele>471.0</ele><time>2026-03-28T11:43:29.999Z</time></trkpt><trkpt lat="45.56732163115158" lon="11.21622236334617"><ele>471.0</ele><time>2026-03-28T11:43:30.999Z</time></trkpt><trkpt lat="45.567292640655225" lon="11.216112488042222"><ele>471.0</ele><time>2026-03-28T11:43:31.999Z</time></trkpt><trkpt lat="45.56727424972684" lon="11.215984834496016"><ele>471.0</ele><time>2026-03-28T11:43:32.999Z</time></trkpt><trkpt lat="45.56728280478048" lon="11.21585429317901"><ele>471.0</ele><time>2026-03-28T11:43:33.999Z</time></trkpt><trkpt lat="45.56733921800145" lon="11.215742248217369"><ele>471.0</ele><time>2026-03-28T11:43:34.999Z</time></trkpt><trkpt lat="45.5673838945099" lon="11.215600130015043"><ele>468.5</ele><time>2026-03-28T11:43:35.999Z</time></trkpt><trkpt lat="45.56743407932795" lon="11.215452932974953"><ele>466.0</ele><time>2026-03-28T11:43:36.999Z</time></trkpt><trkpt lat="45.56748696048633" lon="11.215303569664806"><ele>463.5</ele><time>2026-03-28T11:43:37.999Z</time></trkpt><trkpt lat="45.56754261942798" lon="11.215146360475012"><ele>461.0</ele><time>2026-03-28T11:43:38.999Z</time></trkpt><trkpt lat="45.56758172079102" lon="11.214983718724929"><ele>461.0</ele><time>2026-03-28T11:43:39.999Z</time></trkpt><trkpt lat="45.56762639304382" lon="11.214841377320075"><ele>461.0</ele><time>2026-03-28T11:43:40.999Z</time></trkpt><trkpt lat="45.56765675690018" lon="11.214695793022905"><ele>461.0</ele><time>2026-03-28T11:43:41.999Z</time></trkpt><trkpt lat="45.567677481676434" lon="11.214544579132935"><ele>461.0</ele><time>2026-03-28T11:43:42.999Z</time></trkpt><trkpt lat="45.567700466790804" lon="11.214400726800754"><ele>461.0</ele><time>2026-03-28T11:43:43.999Z</time></trkpt><trkpt lat="45.56772865975657" lon="11.214256518753567"><ele>459.8</ele><time>2026-03-28T11:43:44.999Z</time></trkpt><trkpt lat="45.56775642876083" lon="11.214083876592007"><ele>458.6</ele><time>2026-03-28T11:43:45.999Z</time></trkpt><trkpt lat="45.567776051312464" lon="11.213907481505808"><ele>457.4</ele><time>2026-03-28T11:43:46.999Z</time></trkpt><trkpt lat="45.567814989570934" lon="11.213780049091353"><ele>456.2</ele><time>2026-03-28T11:43:47.999Z</time></trkpt><trkpt lat="45.56785233820794" lon="11.213675113317453"><ele>455.0</ele><time>2026-03-28T11:43:48.999Z</time></trkpt><trkpt lat="45.56787775236117" lon="11.213592630117866"><ele>453.8</ele><time>2026-03-28T11:43:49.999Z</time></trkpt><trkpt lat="45.56788684403594" lon="11.213439468386515"><ele>452.6</ele><time>2026-03-28T11:43:51.999Z</time></trkpt><trkpt lat="45.56780822434913" lon="11.213359250976808"><ele>451.4</ele><time>2026-03-28T11:43:52.999Z</time></trkpt><trkpt lat="45.56771401645312" lon="11.213336510580655"><ele>450.2</ele><time>2026-03-28T11:43:53.999Z</time></trkpt><trkpt lat="45.56761663748085" lon="11.213397312128848"><ele>449.0</ele><time>2026-03-28T11:43:54.999Z</time></trkpt><trkpt lat="45.567537642313376" lon="11.21345183934935"><ele>449.0</ele><time>2026-03-28T11:43:55.999Z</time></trkpt><trkpt lat="45.567475853833876" lon="11.213516056166952"><ele>449.0</ele><time>2026-03-28T11:43:56.999Z</time></trkpt><trkpt lat="45.5674316434622" lon="11.213598506062276"><ele>449.0</ele><time>2026-03-28T11:43:57.999Z</time></trkpt><trkpt lat="45.567399794879634" lon="11.213717163402066"><ele>449.0</ele><time>2026-03-28T11:43:58.999Z</time></trkpt><trkpt lat="45.5673747547326" lon="11.213867462564405"><ele>449.0</ele><time>2026-03-28T11:43:59.999Z</time></trkpt><trkpt lat="45.56736403294986" lon="11.214038234647546"><ele>450.2</ele><time>2026-03-28T11:44:00.999Z</time></trkpt><trkpt lat="45.567372003060804" lon="11.21420429555777"><ele>451.4</ele><time>2026-03-28T11:44:01.999Z</time></trkpt><trkpt lat="45.56738158952394" lon="11.214337092671682"><ele>452.6</ele><time>2026-03-28T11:44:02.999Z</time></trkpt><trkpt lat="45.56736626576915" lon="11.214445675896645"><ele>453.8</ele><time>2026-03-28T11:44:03.999Z</time></trkpt><trkpt lat="45.56732799266853" lon="11.214548419595841"><ele>455.0</ele><time>2026-03-28T11:44:06Z</time></trkpt><trkpt lat="45.56724725417639" lon="11.21448965970133"><ele>454.99999999999994</ele><time>2026-03-28T11:44:08Z</time></trkpt><trkpt lat="45.567238656419924" lon="11.214388823640268"><ele>455.0</ele><time>2026-03-28T11:44:09Z</time></trkpt><trkpt lat="45.56728505762746" lon="11.214278632540035"><ele>455.0</ele><time>2026-03-28T11:44:10Z</time></trkpt><trkpt lat="45.56729116901512" lon="11.21414338958713"><ele>455.0</ele><time>2026-03-28T11:44:11Z</time></trkpt><trkpt lat="45.56730635612255" lon="11.214020193520115"><ele>454.99999999999994</ele><time>2026-03-28T11:44:12Z</time></trkpt><trkpt lat="45.56730537408081" lon="11.213912937056072"><ele>455.0</ele><time>2026-03-28T11:44:13Z</time></trkpt><trkpt lat="45.56732277186444" lon="11.213810890136008"><ele>453.8</ele><time>2026-03-28T11:44:14Z</time></trkpt><trkpt lat="45.567332843718006" lon="11.213711849619228"><ele>452.6</ele><time>2026-03-28T11:44:15Z</time></trkpt><trkpt lat="45.56735071395719" lon="11.213592519958738"><ele>451.4</ele><time>2026-03-28T11:44:16Z</time></trkpt><trkpt lat="45.56738306755058" lon="11.21346822153841"><ele>450.2</ele><time>2026-03-28T11:44:17Z</time></trkpt><trkpt lat="45.567425772432664" lon="11.213343256994344"><ele>449.0</ele><time>2026-03-28T11:44:18Z</time></trkpt><trkpt lat="45.56748038352695" lon="11.21318623851751"><ele>447.4</ele><time>2026-03-28T11:44:19Z</time></trkpt><trkpt lat="45.56754206844917" lon="11.213020141338138"><ele>445.79999999999995</ele><time>2026-03-28T11:44:20Z</time></trkpt><trkpt lat="45.567590136008484" lon="11.212874338762623"><ele>444.20000000000005</ele><time>2026-03-28T11:44:21Z</time></trkpt><trkpt lat="45.567633311785066" lon="11.212745703631688"><ele>442.6</ele><time>2026-03-28T11:44:22Z</time></trkpt><trkpt lat="45.56764994107837" lon="11.212617272761758"><ele>441.0</ele><time>2026-03-28T11:44:23Z</time></trkpt><trkpt lat="45.56762955976843" lon="11.212489046559904"><ele>441.0</ele><time>2026-03-28T11:44:24Z</time></trkpt><trkpt lat="45.56759910167024" lon="11.212352091918305"><ele>441.0</ele><time>2026-03-28T11:44:25Z</time></trkpt><trkpt lat="45.567560486247615" lon="11.21222014428266"><ele>441.0</ele><time>2026-03-28T11:44:26Z</time></trkpt><trkpt lat="45.567529584729854" lon="11.212089285292715"><ele>441.0</ele><time>2026-03-28T11:44:27Z</time></trkpt><trkpt lat="45.56752814408105" lon="11.211951675667374"><ele>441.0</ele><time>2026-03-28T11:44:28Z</time></trkpt><trkpt lat="45.56755468564346" lon="11.211832053848607"><ele>440.20000000000005</ele><time>2026-03-28T11:44:29Z</time></trkpt><trkpt lat="45.56757209592545" lon="11.21170926585362"><ele>439.40000000000003</ele><time>2026-03-28T11:44:30Z</time></trkpt><trkpt lat="45.56756111652329" lon="11.211561776078169"><ele>438.6</ele><time>2026-03-28T11:44:31Z</time></trkpt><trkpt lat="45.56750723902414" lon="11.211397173275955"><ele>437.8</ele><time>2026-03-28T11:44:32Z</time></trkpt><trkpt lat="45.56742786271369" lon="11.211263708338802"><ele>437.0</ele><time>2026-03-28T11:44:33Z</time></trkpt><trkpt lat="45.56738081214695" lon="11.211146369788528"><ele>436.16666666666663</ele><time>2026-03-28T11:44:34Z</time></trkpt><trkpt lat="45.56735867250612" lon="11.211047499229924"><ele>435.3333333333333</ele><time>2026-03-28T11:44:35Z</time></trkpt><trkpt lat="45.567375259515615" lon="11.210940232179583"><ele>434.5</ele><time>2026-03-28T11:44:36Z</time></trkpt><trkpt lat="45.56739702243306" lon="11.210840485548129"><ele>433.66666666666663</ele><time>2026-03-28T11:44:37Z</time></trkpt><trkpt lat="45.56747512705134" lon="11.210765100512043"><ele>432.8333333333333</ele><time>2026-03-28T11:44:38Z</time></trkpt><trkpt lat="45.56756172023643" lon="11.210703993079044"><ele>432.0</ele><time>2026-03-28T11:44:39Z</time></trkpt><trkpt lat="45.56762287086715" lon="11.210623050950186"><ele>429.5</ele><time>2026-03-28T11:44:40Z</time></trkpt><trkpt lat="45.567667452150815" lon="11.210510938176068"><ele>427.0</ele><time>2026-03-28T11:44:41Z</time></trkpt><trkpt lat="45.567706227305116" lon="11.210346902074932"><ele>424.5</ele><time>2026-03-28T11:44:42Z</time></trkpt><trkpt lat="45.5677818673679" lon="11.210147308525409"><ele>422.0</ele><time>2026-03-28T11:44:43Z</time></trkpt><trkpt lat="45.5678386997202" lon="11.209948386092504"><ele>428.0</ele><time>2026-03-28T11:44:44Z</time></trkpt><trkpt lat="45.56786142485119" lon="11.209745943936124"><ele>434.0</ele><time>2026-03-28T11:44:45Z</time></trkpt><trkpt lat="45.567911787257245" lon="11.209578489923915"><ele>440.0</ele><time>2026-03-28T11:44:46Z</time></trkpt><trkpt lat="45.56797614401501" lon="11.209394960481383"><ele>446.0</ele><time>2026-03-28T11:44:47Z</time></trkpt><trkpt lat="45.56804957715764" lon="11.209211431857408"><ele>446.0</ele><time>2026-03-28T11:44:48Z</time></trkpt><trkpt lat="45.56811208443874" lon="11.209043546359391"><ele>446.0</ele><time>2026-03-28T11:44:49Z</time></trkpt><trkpt lat="45.568138233297745" lon="11.208869522383612"><ele>446.0</ele><time>2026-03-28T11:44:50Z</time></trkpt><trkpt lat="45.56818230274604" lon="11.208706270218979"><ele>446.0</ele><time>2026-03-28T11:44:51Z</time></trkpt><trkpt lat="45.56822935714954" lon="11.208563206481346"><ele>443.6</ele><time>2026-03-28T11:44:52Z</time></trkpt><trkpt lat="45.56828968897869" lon="11.208438577231359"><ele>441.20000000000005</ele><time>2026-03-28T11:44:53Z</time></trkpt><trkpt lat="45.56835374461697" lon="11.208314512914338"><ele>438.79999999999995</ele><time>2026-03-28T11:44:54Z</time></trkpt><trkpt lat="45.56838465302753" lon="11.20819904259166"><ele>436.4</ele><time>2026-03-28T11:44:55Z</time></trkpt><trkpt lat="45.56842455549588" lon="11.208111151964358"><ele>434.0</ele><time>2026-03-28T11:44:56Z</time></trkpt><trkpt lat="45.56838028037374" lon="11.207985977074456"><ele>433.3333333333333</ele><time>2026-03-28T11:44:57Z</time></trkpt><trkpt lat="45.5683872441308" lon="11.207870488588867"><ele>432.66666666666663</ele><time>2026-03-28T11:44:58Z</time></trkpt><trkpt lat="45.568422753919855" lon="11.207782466159388"><ele>432.0</ele><time>2026-03-28T11:44:59Z</time></trkpt><trkpt lat="45.56850202846793" lon="11.207717968945694"><ele>431.33333333333337</ele><time>2026-03-28T11:45:00Z</time></trkpt><trkpt lat="45.56859084277767" lon="11.20761927756602"><ele>430.6666666666667</ele><time>2026-03-28T11:45:01Z</time></trkpt><trkpt lat="45.568637423147116" lon="11.20751496662382"><ele>430.0</ele><time>2026-03-28T11:45:02Z</time></trkpt><trkpt lat="45.56866075152621" lon="11.20740949429306"><ele>432.6</ele><time>2026-03-28T11:45:03Z</time></trkpt><trkpt lat="45.56868899031257" lon="11.207268915082325"><ele>435.2</ele><time>2026-03-28T11:45:04Z</time></trkpt><trkpt lat="45.56872986457406" lon="11.2071116821689"><ele>437.79999999999995</ele><time>2026-03-28T11:45:05Z</time></trkpt><trkpt lat="45.5687862998173" lon="11.206968844719265"><ele>440.4</ele><time>2026-03-28T11:45:06Z</time></trkpt><trkpt lat="45.56881826498523" lon="11.206863530830837"><ele>443.0</ele><time>2026-03-28T11:45:07Z</time></trkpt><trkpt lat="45.56883018860268" lon="11.206717485130259"><ele>443.0</ele><time>2026-03-28T11:45:09Z</time></trkpt><trkpt lat="45.56873677855635" lon="11.20666123979662"><ele>442.99999999999994</ele><time>2026-03-28T11:45:10Z</time></trkpt><trkpt lat="45.568649018922784" lon="11.20674844051413"><ele>442.99999999999994</ele><time>2026-03-28T11:45:11Z</time></trkpt><trkpt lat="45.56860584179474" lon="11.20688185001815"><ele>443.0</ele><time>2026-03-28T11:45:12Z</time></trkpt><trkpt lat="45.568532587334296" lon="11.207021724714686"><ele>443.0</ele><time>2026-03-28T11:45:13Z</time></trkpt><trkpt lat="45.56841411072534" lon="11.207083550774103"><ele>443.0</ele><time>2026-03-28T11:45:14Z</time></trkpt><trkpt lat="45.56827893554969" lon="11.207116659401827"><ele>443.0</ele><time>2026-03-28T11:45:15Z</time></trkpt><trkpt lat="45.568139071760186" lon="11.207116050406455"><ele>443.0</ele><time>2026-03-28T11:45:16Z</time></trkpt><trkpt lat="45.56801849679317" lon="11.207079617263256"><ele>443.0</ele><time>2026-03-28T11:45:17Z</time></trkpt><trkpt lat="45.56790993218915" lon="11.207041716016203"><ele>445.0</ele><time>2026-03-28T11:45:18Z</time></trkpt><trkpt lat="45.567823089434945" lon="11.207035392978321"><ele>446.99999999999994</ele><time>2026-03-28T11:45:19Z</time></trkpt><trkpt lat="45.56775572717139" lon="11.207012047746545"><ele>448.99999999999994</ele><time>2026-03-28T11:45:20Z</time></trkpt><trkpt lat="45.56766944202149" lon="11.206999517492308"><ele>451.0</ele><time>2026-03-28T11:45:22Z</time></trkpt><trkpt lat="45.567603697804294" lon="11.207052719420453"><ele>453.0</ele><time>2026-03-28T11:45:24Z</time></trkpt><trkpt lat="45.567549390178456" lon="11.207228459450484"><ele>450.79999999999995</ele><time>2026-03-28T11:45:25.999Z</time></trkpt><trkpt lat="45.56752292080116" lon="11.20733125173384"><ele>448.59999999999997</ele><time>2026-03-28T11:45:26.999Z</time></trkpt><trkpt lat="45.567483040642465" lon="11.207455855427039"><ele>446.40000000000003</ele><time>2026-03-28T11:45:27.999Z</time></trkpt><trkpt lat="45.56738767463919" lon="11.207569809704308"><ele>444.20000000000005</ele><time>2026-03-28T11:45:28.999Z</time></trkpt><trkpt lat="45.56730949811692" lon="11.207666268932604"><ele>442.0</ele><time>2026-03-28T11:45:29.999Z</time></trkpt><trkpt lat="45.5672503485519" lon="11.207740450132489"><ele>442.0</ele><time>2026-03-28T11:45:30.999Z</time></trkpt><trkpt lat="45.56716443939869" lon="11.207728088404496"><ele>442.00000000000006</ele><time>2026-03-28T11:45:31.999Z</time></trkpt><trkpt lat="45.56708116139476" lon="11.207717251034024"><ele>442.00000000000006</ele><time>2026-03-28T11:45:32.999Z</time></trkpt><trkpt lat="45.56698966002394" lon="11.207681236642"><ele>442.0</ele><time>2026-03-28T11:45:33.999Z</time></trkpt><trkpt lat="45.56687374897124" lon="11.207645830639546"><ele>442.0</ele><time>2026-03-28T11:45:34.999Z</time></trkpt><trkpt lat="45.56677707761685" lon="11.207594237687971"><ele>444.6666666666667</ele><time>2026-03-28T11:45:35.999Z</time></trkpt><trkpt lat="45.56668867084254" lon="11.207581158119988"><ele>447.33333333333337</ele><time>2026-03-28T11:45:36.999Z</time></trkpt><trkpt lat="45.56659848657129" lon="11.207650129029913"><ele>450.0</ele><time>2026-03-28T11:45:37.999Z</time></trkpt><trkpt lat="45.566530834660796" lon="11.207736684411815"><ele>452.66666666666663</ele><time>2026-03-28T11:45:38.999Z</time></trkpt><trkpt lat="45.56643847607706" lon="11.207777519553343"><ele>455.3333333333333</ele><time>2026-03-28T11:45:40.999Z</time></trkpt><trkpt lat="45.56639747734352" lon="11.207708490502993"><ele>458.0</ele><time>2026-03-28T11:45:41.999Z</time></trkpt><trkpt lat="45.56643366633838" lon="11.207516301577975"><ele>458.0</ele><time>2026-03-28T11:45:43.999Z</time></trkpt><trkpt lat="45.56645164063892" lon="11.207380483391484"><ele>457.99999999999994</ele><time>2026-03-28T11:45:44.999Z</time></trkpt><trkpt lat="45.56650100323094" lon="11.207269899376763"><ele>457.99999999999994</ele><time>2026-03-28T11:45:45.999Z</time></trkpt><trkpt lat="45.566578606367194" lon="11.207196348870202"><ele>458.0</ele><time>2026-03-28T11:45:46.999Z</time></trkpt><trkpt lat="45.56667138417654" lon="11.207177898929322"><ele>458.0</ele><time>2026-03-28T11:45:47.999Z</time></trkpt><trkpt lat="45.566760541963454" lon="11.207209569250782"><ele>458.99999999999994</ele><time>2026-03-28T11:45:48.999Z</time></trkpt><trkpt lat="45.56684844217028" lon="11.207233804587416"><ele>460.0</ele><time>2026-03-28T11:45:49.999Z</time></trkpt><trkpt lat="45.566924764154486" lon="11.207211462928532"><ele>461.0</ele><time>2026-03-28T11:45:50.999Z</time></trkpt><trkpt lat="45.5669827149895" lon="11.20715302365379"><ele>462.0</ele><time>2026-03-28T11:45:51.999Z</time></trkpt><trkpt lat="45.5669965755453" lon="11.20705531054961"><ele>462.99999999999994</ele><time>2026-03-28T11:45:52.999Z</time></trkpt><trkpt lat="45.566987709055304" lon="11.20694934984716"><ele>464.0</ele><time>2026-03-28T11:45:53.999Z</time></trkpt><trkpt lat="45.56689974312672" lon="11.206850596869831"><ele>464.0</ele><time>2026-03-28T11:45:54.999Z</time></trkpt><trkpt lat="45.56679489818988" lon="11.20676381348782"><ele>464.0</ele><time>2026-03-28T11:45:55.999Z</time></trkpt><trkpt lat="45.566673936505" lon="11.206669940111524"><ele>464.0</ele><time>2026-03-28T11:45:56.999Z</time></trkpt><trkpt lat="45.56654301695363" lon="11.206552562418496"><ele>464.0</ele><time>2026-03-28T11:45:57.999Z</time></trkpt><trkpt lat="45.56644050185729" lon="11.206454507980132"><ele>466.6</ele><time>2026-03-28T11:45:58.999Z</time></trkpt><trkpt lat="45.56635539521878" lon="11.206394842931003"><ele>469.2</ele><time>2026-03-28T11:45:59.999Z</time></trkpt><trkpt lat="45.56626548149626" lon="11.206371378829001"><ele>471.80000000000007</ele><time>2026-03-28T11:46:00.999Z</time></trkpt><trkpt lat="45.56614952140185" lon="11.206443264185467"><ele>474.40000000000003</ele><time>2026-03-28T11:46:01.999Z</time></trkpt><trkpt lat="45.566039505156475" lon="11.20651449337617"><ele>477.0</ele><time>2026-03-28T11:46:02.999Z</time></trkpt><trkpt lat="45.565964808793524" lon="11.206623726168637"><ele>477.6666666666667</ele><time>2026-03-28T11:46:03.999Z</time></trkpt><trkpt lat="45.56592813244083" lon="11.206770139207947"><ele>478.33333333333337</ele><time>2026-03-28T11:46:04.999Z</time></trkpt><trkpt lat="45.565930813671976" lon="11.206906994190666"><ele>479.0</ele><time>2026-03-28T11:46:05.999Z</time></trkpt><trkpt lat="45.56591056040624" lon="11.207003506802323"><ele>479.6666666666667</ele><time>2026-03-28T11:46:06.999Z</time></trkpt><trkpt lat="45.565837099240724" lon="11.20708732267177"><ele>480.33333333333337</ele><time>2026-03-28T11:46:08.999Z</time></trkpt><trkpt lat="45.56577236592388" lon="11.207042005130532"><ele>481.0</ele><time>2026-03-28T11:46:09.999Z</time></trkpt><trkpt lat="45.56575186512651" lon="11.206930950317226"><ele>481.00000000000006</ele><time>2026-03-28T11:46:10.999Z</time></trkpt><trkpt lat="45.56573033811491" lon="11.20682258822919"><ele>481.0</ele><time>2026-03-28T11:46:12Z</time></trkpt><trkpt lat="45.56567128311355" lon="11.206714854185089"><ele>481.0</ele><time>2026-03-28T11:46:13Z</time></trkpt><trkpt lat="45.5655887063206" lon="11.206634324169125"><ele>481.0</ele><time>2026-03-28T11:46:14Z</time></trkpt><trkpt lat="45.56550834582439" lon="11.206558099324436"><ele>481.00000000000006</ele><time>2026-03-28T11:46:15Z</time></trkpt><trkpt lat="45.56545509884978" lon="11.206492402081704"><ele>481.0</ele><time>2026-03-28T11:46:16Z</time></trkpt><trkpt lat="45.56542853481913" lon="11.206408922894363"><ele>482.0</ele><time>2026-03-28T11:46:17Z</time></trkpt><trkpt lat="45.56543256947073" lon="11.206316532847145"><ele>483.0</ele><time>2026-03-28T11:46:18Z</time></trkpt><trkpt lat="45.56549431146907" lon="11.20622047046135"><ele>484.0</ele><time>2026-03-28T11:46:19Z</time></trkpt><trkpt lat="45.56560260356898" lon="11.206176396889958"><ele>485.0</ele><time>2026-03-28T11:46:20Z</time></trkpt><trkpt lat="45.56569824714223" lon="11.206071438247356"><ele>486.0</ele><time>2026-03-28T11:46:21Z</time></trkpt><trkpt lat="45.56581247776885" lon="11.205986067191041"><ele>486.0</ele><time>2026-03-28T11:46:22Z</time></trkpt><trkpt lat="45.565904760174824" lon="11.205910082515055"><ele>486.0</ele><time>2026-03-28T11:46:23Z</time></trkpt><trkpt lat="45.565954470577175" lon="11.20584941294372"><ele>486.0</ele><time>2026-03-28T11:46:24Z</time></trkpt><trkpt lat="45.56594981574316" lon="11.205697222885238"><ele>486.0</ele><time>2026-03-28T11:46:26Z</time></trkpt><trkpt lat="45.56590445621537" lon="11.205625447951741"><ele>486.0</ele><time>2026-03-28T11:46:27Z</time></trkpt><trkpt lat="45.56580366493235" lon="11.205657256021036"><ele>486.0</ele><time>2026-03-28T11:46:28Z</time></trkpt><trkpt lat="45.56568459748095" lon="11.205699764316398"><ele>486.0</ele><time>2026-03-28T11:46:29Z</time></trkpt><trkpt lat="45.56553258165985" lon="11.205711559845053"><ele>486.0</ele><time>2026-03-28T11:46:30Z</time></trkpt><trkpt lat="45.56536374156548" lon="11.205744234444268"><ele>486.0</ele><time>2026-03-28T11:46:31Z</time></trkpt><trkpt lat="45.565192820577444" lon="11.20577731174583"><ele>489.25</ele><time>2026-03-28T11:46:32Z</time></trkpt><trkpt lat="45.56503992331791" lon="11.20581091871965"><ele>492.5</ele><time>2026-03-28T11:46:33Z</time></trkpt><trkpt lat="45.56491071714189" lon="11.205834611956513"><ele>495.75</ele><time>2026-03-28T11:46:34Z</time></trkpt><trkpt lat="45.56479832279232" lon="11.20584188322707"><ele>499.0</ele><time>2026-03-28T11:46:35Z</time></trkpt><trkpt lat="45.56470295351506" lon="11.205831697561447"><ele>499.0</ele><time>2026-03-28T11:46:36Z</time></trkpt><trkpt lat="45.564631073968116" lon="11.205713556489654"><ele>499.0</ele><time>2026-03-28T11:46:37Z</time></trkpt><trkpt lat="45.5645415051031" lon="11.205583533920464"><ele>499.0</ele><time>2026-03-28T11:46:38Z</time></trkpt><trkpt lat="45.56443099587826" lon="11.20543354507462"><ele>499.0</ele><time>2026-03-28T11:46:39Z</time></trkpt><trkpt lat="45.56431328717003" lon="11.20526132244328"><ele>501.25</ele><time>2026-03-28T11:46:40Z</time></trkpt><trkpt lat="45.564205861878726" lon="11.205111462406327"><ele>503.5</ele><time>2026-03-28T11:46:41Z</time></trkpt><trkpt lat="45.56411472840085" lon="11.204978268635404"><ele>505.75</ele><time>2026-03-28T11:46:42Z</time></trkpt><trkpt lat="45.56404289496869" lon="11.204855988780164"><ele>508.0</ele><time>2026-03-28T11:46:43Z</time></trkpt><trkpt lat="45.56397030904724" lon="11.204745384394196"><ele>511.0</ele><time>2026-03-28T11:46:44Z</time></trkpt><trkpt lat="45.563867012486796" lon="11.204648111714755"><ele>514.0</ele><time>2026-03-28T11:46:45Z</time></trkpt><trkpt lat="45.56378833460433" lon="11.204529046260438"><ele>517.0</ele><time>2026-03-28T11:46:46Z</time></trkpt><trkpt lat="45.56370299347728" lon="11.20444866143529"><ele>520.0</ele><time>2026-03-28T11:46:47Z</time></trkpt><trkpt lat="45.56359937512233" lon="11.204416442940525"><ele>523.0</ele><time>2026-03-28T11:46:48Z</time></trkpt><trkpt lat="45.56348845918592" lon="11.20439491185062"><ele>523.0</ele><time>2026-03-28T11:46:49Z</time></trkpt><trkpt lat="45.563382207155556" lon="11.204392107673462"><ele>523.0</ele><time>2026-03-28T11:46:50Z</time></trkpt><trkpt lat="45.56329748061867" lon="11.204418350053603"><ele>523.0</ele><time>2026-03-28T11:46:51Z</time></trkpt><trkpt lat="45.56322182284576" lon="11.204500337655064"><ele>523.0</ele><time>2026-03-28T11:46:52Z</time></trkpt><trkpt lat="45.563155686166226" lon="11.204634395405499"><ele>523.0</ele><time>2026-03-28T11:46:53Z</time></trkpt><trkpt lat="45.56309904439727" lon="11.204800495105536"><ele>520.0</ele><time>2026-03-28T11:46:54Z</time></trkpt><trkpt lat="45.563073032648425" lon="11.20496828187668"><ele>517.0</ele><time>2026-03-28T11:46:55Z</time></trkpt><trkpt lat="45.56308464340064" lon="11.205131654040265"><ele>514.0</ele><time>2026-03-28T11:46:56Z</time></trkpt><trkpt lat="45.563127971850726" lon="11.205301123436454"><ele>511.0</ele><time>2026-03-28T11:46:57Z</time></trkpt><trkpt lat="45.56316389655519" lon="11.205456636153004"><ele>511.0</ele><time>2026-03-28T11:46:58Z</time></trkpt><trkpt lat="45.563145008295194" lon="11.205621843025378"><ele>511.0</ele><time>2026-03-28T11:46:59Z</time></trkpt><trkpt lat="45.56311098228019" lon="11.205806207681695"><ele>511.0</ele><time>2026-03-28T11:47:00Z</time></trkpt><trkpt lat="45.56306045685824" lon="11.206024411053958"><ele>511.0</ele><time>2026-03-28T11:47:01Z</time></trkpt><trkpt lat="45.563016204918675" lon="11.206198663002215"><ele>509.8</ele><time>2026-03-28T11:47:02Z</time></trkpt><trkpt lat="45.56297579302358" lon="11.206322518814618"><ele>508.6</ele><time>2026-03-28T11:47:03Z</time></trkpt><trkpt lat="45.56292809604269" lon="11.206418430462861"><ele>507.4</ele><time>2026-03-28T11:47:04Z</time></trkpt><trkpt lat="45.562862131217635" lon="11.206495087337467"><ele>506.2</ele><time>2026-03-28T11:47:05Z</time></trkpt><trkpt lat="45.56277379135254" lon="11.20655834282417"><ele>505.0</ele><time>2026-03-28T11:47:06Z</time></trkpt><trkpt lat="45.56267390129635" lon="11.2066479851069"><ele>508.8</ele><time>2026-03-28T11:47:07Z</time></trkpt><trkpt lat="45.562582724476364" lon="11.206704157038596"><ele>512.6</ele><time>2026-03-28T11:47:08Z</time></trkpt><trkpt lat="45.56252330722083" lon="11.206804684442593"><ele>516.4</ele><time>2026-03-28T11:47:09Z</time></trkpt><trkpt lat="45.56248919397122" lon="11.206958443108517"><ele>520.2</ele><time>2026-03-28T11:47:10Z</time></trkpt><trkpt lat="45.56248892618136" lon="11.207145062972058"><ele>524.0</ele><time>2026-03-28T11:47:11Z</time></trkpt><trkpt lat="45.56252503570789" lon="11.207323938496986"><ele>524.0</ele><time>2026-03-28T11:47:12Z</time></trkpt><trkpt lat="45.56254716278159" lon="11.207442579190147"><ele>524.0</ele><time>2026-03-28T11:47:13Z</time></trkpt><trkpt lat="45.56252017575368" lon="11.20754092023325"><ele>524.0</ele><time>2026-03-28T11:47:15Z</time></trkpt><trkpt lat="45.56245276055878" lon="11.207524536954082"><ele>524.0</ele><time>2026-03-28T11:47:17Z</time></trkpt><trkpt lat="45.56238928463814" lon="11.207367715342059"><ele>524.0</ele><time>2026-03-28T11:47:19Z</time></trkpt><trkpt lat="45.56237994194834" lon="11.20727254160332"><ele>524.0</ele><time>2026-03-28T11:47:20Z</time></trkpt><trkpt lat="45.56234688869549" lon="11.207178344747033"><ele>524.0</ele><time>2026-03-28T11:47:21Z</time></trkpt><trkpt lat="45.56230800990964" lon="11.207102852690646"><ele>524.0</ele><time>2026-03-28T11:47:22Z</time></trkpt><trkpt lat="45.56223229596702" lon="11.206958013009972"><ele>524.0</ele><time>2026-03-28T11:47:24Z</time></trkpt><trkpt lat="45.562150018613515" lon="11.20679986325404"><ele>524.0</ele><time>2026-03-28T11:47:26Z</time></trkpt><trkpt lat="45.562103718688995" lon="11.206680957726956"><ele>524.0</ele><time>2026-03-28T11:47:27Z</time></trkpt><trkpt lat="45.56205454955305" lon="11.206553930630324"><ele>527.0</ele><time>2026-03-28T11:47:28Z</time></trkpt><trkpt lat="45.5619957083892" lon="11.20640028993588"><ele>530.0</ele><time>2026-03-28T11:47:29Z</time></trkpt><trkpt lat="45.5619531922193" lon="11.20623242386045"><ele>533.0</ele><time>2026-03-28T11:47:30Z</time></trkpt><trkpt lat="45.56194417893921" lon="11.206069288141258"><ele>536.0</ele><time>2026-03-28T11:47:31Z</time></trkpt><trkpt lat="45.561990319598706" lon="11.20591157307398"><ele>536.0</ele><time>2026-03-28T11:47:32Z</time></trkpt><trkpt lat="45.56200668203496" lon="11.205755399170755"><ele>536.0</ele><time>2026-03-28T11:47:33Z</time></trkpt><trkpt lat="45.56202517277439" lon="11.205613675411572"><ele>536.0</ele><time>2026-03-28T11:47:34Z</time></trkpt><trkpt lat="45.561997012581294" lon="11.205452294593028"><ele>536.0</ele><time>2026-03-28T11:47:35Z</time></trkpt><trkpt lat="45.56193541672208" lon="11.205264150424131"><ele>539.6666666666666</ele><time>2026-03-28T11:47:35.999Z</time></trkpt><trkpt lat="45.5618553478919" lon="11.205062690541446"><ele>543.3333333333334</ele><time>2026-03-28T11:47:36.999Z</time></trkpt><trkpt lat="45.56177954516759" lon="11.204861058416096"><ele>547.0</ele><time>2026-03-28T11:47:37.999Z</time></trkpt><trkpt lat="45.56172349827666" lon="11.204675217991802"><ele>549.0</ele><time>2026-03-28T11:47:38.999Z</time></trkpt><trkpt lat="45.56168014009953" lon="11.204498262059154"><ele>551.0</ele><time>2026-03-28T11:47:39.999Z</time></trkpt><trkpt lat="45.56165140590271" lon="11.204325121876611"><ele>553.0</ele><time>2026-03-28T11:47:40.999Z</time></trkpt><trkpt lat="45.56160345786133" lon="11.204162529196335"><ele>555.0</ele><time>2026-03-28T11:47:41.999Z</time></trkpt><trkpt lat="45.561534774222004" lon="11.204023691549233"><ele>556.6</ele><time>2026-03-28T11:47:42.999Z</time></trkpt><trkpt lat="45.56146444175235" lon="11.203915912167094"><ele>558.2</ele><time>2026-03-28T11:47:43.999Z</time></trkpt><trkpt lat="45.561396757712124" lon="11.203820824178184"><ele>559.8</ele><time>2026-03-28T11:47:44.999Z</time></trkpt><trkpt lat="45.561322658524524" lon="11.20375388689909"><ele>561.4</ele><time>2026-03-28T11:47:45.999Z</time></trkpt><trkpt lat="45.56122817882669" lon="11.203724469029142"><ele>563.0</ele><time>2026-03-28T11:47:46.999Z</time></trkpt><trkpt lat="45.561113377209274" lon="11.203734981867001"><ele>563.6</ele><time>2026-03-28T11:47:47.999Z</time></trkpt><trkpt lat="45.561000322659396" lon="11.203791681314632"><ele>564.1999999999999</ele><time>2026-03-28T11:47:48.999Z</time></trkpt><trkpt lat="45.56092902036295" lon="11.203869763640203"><ele>564.8</ele><time>2026-03-28T11:47:49.999Z</time></trkpt><trkpt lat="45.56084283408192" lon="11.203884094706513"><ele>565.4</ele><time>2026-03-28T11:47:51.999Z</time></trkpt><trkpt lat="45.56086492016489" lon="11.20373583226315"><ele>566.0</ele><time>2026-03-28T11:47:53.999Z</time></trkpt><trkpt lat="45.56093174753186" lon="11.203695838703918"><ele>566.0</ele><time>2026-03-28T11:47:54.999Z</time></trkpt><trkpt lat="45.561018258286076" lon="11.203646217802726"><ele>566.0</ele><time>2026-03-28T11:47:55.999Z</time></trkpt><trkpt lat="45.56110127063977" lon="11.20353366083265"><ele>566.0</ele><time>2026-03-28T11:47:56.999Z</time></trkpt><trkpt lat="45.56118475735553" lon="11.203378346742296"><ele>566.0</ele><time>2026-03-28T11:47:57.999Z</time></trkpt><trkpt lat="45.56127381832239" lon="11.203202308142437"><ele>566.8</ele><time>2026-03-28T11:47:58.999Z</time></trkpt><trkpt lat="45.56136673703108" lon="11.203077607960088"><ele>567.6</ele><time>2026-03-28T11:47:59.999Z</time></trkpt><trkpt lat="45.56144252436762" lon="11.202986229668111"><ele>568.4</ele><time>2026-03-28T11:48:00.999Z</time></trkpt><trkpt lat="45.56149622557505" lon="11.202877725001649"><ele>569.2</ele><time>2026-03-28T11:48:01.999Z</time></trkpt><trkpt lat="45.56153970875362" lon="11.20278437415672"><ele>570.0</ele><time>2026-03-28T11:48:02.999Z</time></trkpt><trkpt lat="45.56155928196957" lon="11.202697994422692"><ele>570.0</ele><time>2026-03-28T11:48:03.999Z</time></trkpt><trkpt lat="45.56150504785871" lon="11.202611311766425"><ele>570.0</ele><time>2026-03-28T11:48:04.999Z</time></trkpt><trkpt lat="45.56142977805772" lon="11.202569690470382"><ele>570.0</ele><time>2026-03-28T11:48:05.999Z</time></trkpt><trkpt lat="45.56133920831905" lon="11.202577051649104"><ele>570.0</ele><time>2026-03-28T11:48:06.999Z</time></trkpt><trkpt lat="45.561253269365565" lon="11.202633296091303"><ele>570.0</ele><time>2026-03-28T11:48:07.999Z</time></trkpt><trkpt lat="45.56120023053405" lon="11.202733510441298"><ele>570.0</ele><time>2026-03-28T11:48:08.999Z</time></trkpt><trkpt lat="45.56116619252743" lon="11.202840861463443"><ele>570.6666666666666</ele><time>2026-03-28T11:48:09.999Z</time></trkpt><trkpt lat="45.561104476494314" lon="11.20292017326546"><ele>571.3333333333334</ele><time>2026-03-28T11:48:11.999Z</time></trkpt><trkpt lat="45.56105046663242" lon="11.203012256318633"><ele>572.0</ele><time>2026-03-28T11:48:15.999Z</time></trkpt><trkpt lat="45.56106492014031" lon="11.203101414533162"><ele>572.6666666666667</ele><time>2026-03-28T11:48:34Z</time></trkpt><trkpt lat="45.56102043181812" lon="11.203206508025222"><ele>573.3333333333334</ele><time>2026-03-28T11:48:37Z</time></trkpt><trkpt lat="45.5609904063081" lon="11.203113728973566"><ele>574.0</ele><time>2026-03-28T11:48:40Z</time></trkpt><trkpt lat="45.56106345141653" lon="11.203055792824477"><ele>574.0</ele><time>2026-03-28T11:48:42Z</time></trkpt><trkpt lat="45.561145189453754" lon="11.202962696404702"><ele>574.0</ele><time>2026-03-28T11:48:44Z</time></trkpt><trkpt lat="45.56119090233063" lon="11.20282668204558"><ele>574.0</ele><time>2026-03-28T11:48:46Z</time></trkpt><trkpt lat="45.56122891575145" lon="11.202692702288767"><ele>574.0</ele><time>2026-03-28T11:48:48Z</time></trkpt><trkpt lat="45.56128195192755" lon="11.202629640873406"><ele>574.0</ele><time>2026-03-28T11:48:50Z</time></trkpt><trkpt lat="45.56120756469636" lon="11.202569456459758"><ele>574.0</ele><time>2026-03-28T11:48:54Z</time></trkpt><trkpt lat="45.5611498681799" lon="11.20262405088558"><ele>574.0</ele><time>2026-03-28T11:48:56Z</time></trkpt><trkpt lat="45.56105812596415" lon="11.202615054900964"><ele>574.0</ele><time>2026-03-28T11:48:57Z</time></trkpt><trkpt lat="45.560818101406504" lon="11.202860066785"><ele>584.0</ele><time>2026-03-28T11:48:58Z</time></trkpt><trkpt lat="45.5609325339114" lon="11.20232851619461"><ele>594.0</ele><time>2026-03-28T11:48:59Z</time></trkpt><trkpt lat="45.56084372727035" lon="11.202301254211092"><ele>594.0</ele><time>2026-03-28T11:49:01Z</time></trkpt><trkpt lat="45.560785594547596" lon="11.202249557985049"><ele>594.0</ele><time>2026-03-28T11:49:04Z</time></trkpt><trkpt lat="45.56076770980403" lon="11.20214936177267"><ele>594.0</ele><time>2026-03-28T11:49:20Z</time></trkpt><trkpt lat="45.56068027471778" lon="11.201983852245984"><ele>594.0</ele><time>2026-03-28T11:49:22Z</time></trkpt><trkpt lat="45.56060752403271" lon="11.201898438045873"><ele>594.0</ele><time>2026-03-28T11:49:23Z</time></trkpt><trkpt lat="45.560538985413096" lon="11.201828533905921"><ele>594.0</ele><time>2026-03-28T11:49:24Z</time></trkpt><trkpt lat="45.560471296462914" lon="11.201761646029324"><ele>594.0</ele><time>2026-03-28T11:49:25Z</time></trkpt><trkpt lat="45.56039540435046" lon="11.201686652008487"><ele>594.0</ele><time>2026-03-28T11:49:26Z</time></trkpt><trkpt lat="45.56032104741764" lon="11.201614863231464"><ele>594.0</ele><time>2026-03-28T11:49:27Z</time></trkpt><trkpt lat="45.56025158104599" lon="11.201547793662874"><ele>594.0</ele><time>2026-03-28T11:49:28Z</time></trkpt><trkpt lat="45.56017328257626" lon="11.201473543285179"><ele>594.0</ele><time>2026-03-28T11:49:29Z</time></trkpt><trkpt lat="45.560072232222716" lon="11.201381432866532"><ele>596.5</ele><time>2026-03-28T11:49:30Z</time></trkpt><trkpt lat="45.55995107680378" lon="11.201275939326363"><ele>599.0</ele><time>2026-03-28T11:49:31Z</time></trkpt><trkpt lat="45.55984942847188" lon="11.201162454223757"><ele>601.5</ele><time>2026-03-28T11:49:32Z</time></trkpt><trkpt lat="45.559825208034695" lon="11.20100727661425"><ele>604.0</ele><time>2026-03-28T11:49:35Z</time></trkpt><trkpt lat="45.55975005866605" lon="11.20086993487291"><ele>604.0</ele><time>2026-03-28T11:49:36Z</time></trkpt><trkpt lat="45.5596168605048" lon="11.200773485504751"><ele>604.0</ele><time>2026-03-28T11:49:36.999Z</time></trkpt><trkpt lat="45.559552574617875" lon="11.200643284599924"><ele>604.0</ele><time>2026-03-28T11:49:37.999Z</time></trkpt><trkpt lat="45.559516702832205" lon="11.200546939121855"><ele>604.0</ele><time>2026-03-28T11:49:38.999Z</time></trkpt><trkpt lat="45.55950421660005" lon="11.200442782310766"><ele>604.0</ele><time>2026-03-28T11:49:39.999Z</time></trkpt><trkpt lat="45.559551860020505" lon="11.200366736483552"><ele>606.75</ele><time>2026-03-28T11:49:40.999Z</time></trkpt><trkpt lat="45.559602782844095" lon="11.200200634962767"><ele>609.5</ele><time>2026-03-28T11:49:41.999Z</time></trkpt><trkpt lat="45.55964385637202" lon="11.199992182305671"><ele>612.25</ele><time>2026-03-28T11:49:42.999Z</time></trkpt><trkpt lat="45.559665779037026" lon="11.199766416098536"><ele>615.0</ele><time>2026-03-28T11:49:43.999Z</time></trkpt><trkpt lat="45.559635444212404" lon="11.199539531046279"><ele>617.3333333333334</ele><time>2026-03-28T11:49:44.999Z</time></trkpt><trkpt lat="45.55964014366531" lon="11.199289734580656"><ele>619.6666666666667</ele><time>2026-03-28T11:49:45.999Z</time></trkpt><trkpt lat="45.55964842389752" lon="11.199043934390403"><ele>622.0</ele><time>2026-03-28T11:49:46.999Z</time></trkpt><trkpt lat="45.55965983158476" lon="11.198835904230195"><ele>622.8000000000001</ele><time>2026-03-28T11:49:47.999Z</time></trkpt><trkpt lat="45.559674532977894" lon="11.198663151295703"><ele>623.6</ele><time>2026-03-28T11:49:48.999Z</time></trkpt><trkpt lat="45.55970164730323" lon="11.198521542306672"><ele>624.4000000000001</ele><time>2026-03-28T11:49:49.999Z</time></trkpt><trkpt lat="45.55976251126101" lon="11.198393748788359"><ele>625.2</ele><time>2026-03-28T11:49:50.999Z</time></trkpt><trkpt lat="45.559786753835596" lon="11.198283357783488"><ele>626.0</ele><time>2026-03-28T11:49:51.999Z</time></trkpt><trkpt lat="45.55977441140635" lon="11.198182119604047"><ele>627.8</ele><time>2026-03-28T11:49:52.999Z</time></trkpt><trkpt lat="45.55973888905164" lon="11.19808627344517"><ele>629.6</ele><time>2026-03-28T11:49:53.999Z</time></trkpt><trkpt lat="45.55965678733698" lon="11.197998041894465"><ele>631.4</ele><time>2026-03-28T11:49:54.999Z</time></trkpt><trkpt lat="45.559575858694686" lon="11.197884162851619"><ele>633.2</ele><time>2026-03-28T11:49:55.999Z</time></trkpt><trkpt lat="45.55953315321859" lon="11.197796044352025"><ele>635.0</ele><time>2026-03-28T11:49:56.999Z</time></trkpt><trkpt lat="45.55953794375753" lon="11.197653775142703"><ele>635.0</ele><time>2026-03-28T11:49:57.999Z</time></trkpt><trkpt lat="45.55957962380058" lon="11.19747016823253"><ele>635.0</ele><time>2026-03-28T11:49:58.999Z</time></trkpt><trkpt lat="45.55954653328658" lon="11.197276800163246"><ele>635.0</ele><time>2026-03-28T11:49:59.999Z</time></trkpt><trkpt lat="45.55956239514177" lon="11.197077381093576"><ele>635.0</ele><time>2026-03-28T11:50:00.999Z</time></trkpt><trkpt lat="45.5595715601281" lon="11.19691783535892"><ele>632.5</ele><time>2026-03-28T11:50:01.999Z</time></trkpt><trkpt lat="45.55957720230416" lon="11.19681362645707"><ele>630.0</ele><time>2026-03-28T11:50:02.999Z</time></trkpt><trkpt lat="45.559626101371876" lon="11.196744193875888"><ele>627.5</ele><time>2026-03-28T11:50:03.999Z</time></trkpt><trkpt lat="45.559686217992194" lon="11.196712160151204"><ele>625.0</ele><time>2026-03-28T11:50:04.999Z</time></trkpt><trkpt lat="45.55975942146511" lon="11.19672145917517"><ele>622.5</ele><time>2026-03-28T11:50:05.999Z</time></trkpt><trkpt lat="45.55986558880598" lon="11.19677639110618"><ele>620.0</ele><time>2026-03-28T11:50:06.999Z</time></trkpt><trkpt lat="45.560021944686056" lon="11.196824193157173"><ele>620.0</ele><time>2026-03-28T11:50:07.999Z</time></trkpt><trkpt lat="45.56017725905003" lon="11.19685962937845"><ele>620.0</ele><time>2026-03-28T11:50:08.999Z</time></trkpt><trkpt lat="45.56035845853998" lon="11.19689216623743"><ele>620.0</ele><time>2026-03-28T11:50:09.999Z</time></trkpt><trkpt lat="45.560528869273796" lon="11.196952564732083"><ele>620.5</ele><time>2026-03-28T11:50:10.999Z</time></trkpt><trkpt lat="45.56066268448526" lon="11.197017056695303"><ele>621.0</ele><time>2026-03-28T11:50:11.999Z</time></trkpt><trkpt lat="45.560789404787315" lon="11.197068510323566"><ele>621.5</ele><time>2026-03-28T11:50:12.999Z</time></trkpt><trkpt lat="45.560862125688494" lon="11.197180157428438"><ele>622.0</ele><time>2026-03-28T11:50:13.999Z</time></trkpt><trkpt lat="45.5609279010237" lon="11.1972139496263"><ele>622.0</ele><time>2026-03-28T11:50:14.999Z</time></trkpt><trkpt lat="45.561057956380075" lon="11.197148299892753"><ele>622.0</ele><time>2026-03-28T11:50:16.999Z</time></trkpt><trkpt lat="45.56113154821025" lon="11.197043355662238"><ele>622.0</ele><time>2026-03-28T11:50:17.999Z</time></trkpt><trkpt lat="45.56121949715606" lon="11.196978091102668"><ele>622.0</ele><time>2026-03-28T11:50:18.999Z</time></trkpt><trkpt lat="45.56134197907673" lon="11.196988738898876"><ele>622.75</ele><time>2026-03-28T11:50:19.999Z</time></trkpt><trkpt lat="45.56148497549644" lon="11.19699376827792"><ele>623.5</ele><time>2026-03-28T11:50:20.999Z</time></trkpt><trkpt lat="45.56163730500112" lon="11.19700836867583"><ele>624.25</ele><time>2026-03-28T11:50:21.999Z</time></trkpt><trkpt lat="45.56177556593705" lon="11.197055492617544"><ele>625.0</ele><time>2026-03-28T11:50:22.999Z</time></trkpt><trkpt lat="45.56190127597228" lon="11.197123539406139"><ele>625.0</ele><time>2026-03-28T11:50:24Z</time></trkpt><trkpt lat="45.56201699761869" lon="11.19716273120303"><ele>625.0</ele><time>2026-03-28T11:50:25Z</time></trkpt><trkpt lat="45.56212902437426" lon="11.197200118982495"><ele>625.0</ele><time>2026-03-28T11:50:26Z</time></trkpt><trkpt lat="45.56225174730361" lon="11.197192907677124"><ele>625.0</ele><time>2026-03-28T11:50:27Z</time></trkpt><trkpt lat="45.56238231683369" lon="11.197145446259768"><ele>627.0</ele><time>2026-03-28T11:50:28Z</time></trkpt><trkpt lat="45.562509964931934" lon="11.197074360080068"><ele>629.0</ele><time>2026-03-28T11:50:29Z</time></trkpt><trkpt lat="45.56261803705963" lon="11.19698791867316"><ele>631.0</ele><time>2026-03-28T11:50:30Z</time></trkpt><trkpt lat="45.56271409218887" lon="11.19693458941382"><ele>633.0</ele><time>2026-03-28T11:50:31Z</time></trkpt><trkpt lat="45.562812507741064" lon="11.196940127950334"><ele>636.5999999999999</ele><time>2026-03-28T11:50:32Z</time></trkpt><trkpt lat="45.56290778798639" lon="11.19702344313996"><ele>640.1999999999999</ele><time>2026-03-28T11:50:33Z</time></trkpt><trkpt lat="45.562995542419316" lon="11.197070055853231"><ele>643.8</ele><time>2026-03-28T11:50:34Z</time></trkpt><trkpt lat="45.56308009551627" lon="11.197119652991942"><ele>647.4</ele><time>2026-03-28T11:50:35Z</time></trkpt><trkpt lat="45.56312878303254" lon="11.197251177053692"><ele>651.0</ele><time>2026-03-28T11:50:36Z</time></trkpt><trkpt lat="45.56319530127165" lon="11.19735071260298"><ele>651.0</ele><time>2026-03-28T11:50:37Z</time></trkpt><trkpt lat="45.56325249248041" lon="11.197422002814168"><ele>651.0</ele><time>2026-03-28T11:50:38Z</time></trkpt><trkpt lat="45.56333512388789" lon="11.19744926251806"><ele>651.0</ele><time>2026-03-28T11:50:39Z</time></trkpt><trkpt lat="45.56341756694796" lon="11.19741627731584"><ele>651.0</ele><time>2026-03-28T11:50:40Z</time></trkpt><trkpt lat="45.56349471292089" lon="11.197335043010364"><ele>651.0</ele><time>2026-03-28T11:50:41Z</time></trkpt><trkpt lat="45.56354021441034" lon="11.197205068872755"><ele>651.0</ele><time>2026-03-28T11:50:42Z</time></trkpt><trkpt lat="45.563548812725216" lon="11.19705896682019"><ele>651.0</ele><time>2026-03-28T11:50:43Z</time></trkpt><trkpt lat="45.563529271015206" lon="11.196905661840987"><ele>651.0</ele><time>2026-03-28T11:50:44Z</time></trkpt><trkpt lat="45.5635350592441" lon="11.196776090295323"><ele>651.0</ele><time>2026-03-28T11:50:45Z</time></trkpt><trkpt lat="45.56360959405023" lon="11.196663256494967"><ele>651.0</ele><time>2026-03-28T11:50:46Z</time></trkpt><trkpt lat="45.56369810491507" lon="11.196567008461075"><ele>651.0</ele><time>2026-03-28T11:50:47Z</time></trkpt><trkpt lat="45.56375302788119" lon="11.196473377284187"><ele>653.5999999999999</ele><time>2026-03-28T11:50:48Z</time></trkpt><trkpt lat="45.56376520185961" lon="11.196374753652748"><ele>656.2</ele><time>2026-03-28T11:50:49Z</time></trkpt><trkpt lat="45.563758055884115" lon="11.196250058459194"><ele>658.8</ele><time>2026-03-28T11:50:50Z</time></trkpt><trkpt lat="45.56365229745795" lon="11.19614115128696"><ele>661.4000000000001</ele><time>2026-03-28T11:50:51Z</time></trkpt><trkpt lat="45.56352951432924" lon="11.196052608550803"><ele>664.0</ele><time>2026-03-28T11:50:52Z</time></trkpt><trkpt lat="45.563402213019955" lon="11.195959229440556"><ele>664.0</ele><time>2026-03-28T11:50:53Z</time></trkpt><trkpt lat="45.5632704386482" lon="11.195864302771556"><ele>664.0</ele><time>2026-03-28T11:50:54Z</time></trkpt><trkpt lat="45.56317538513792" lon="11.195761555555563"><ele>664.0</ele><time>2026-03-28T11:50:55Z</time></trkpt><trkpt lat="45.563097299105664" lon="11.195656912139814"><ele>664.0</ele><time>2026-03-28T11:50:56Z</time></trkpt><trkpt lat="45.56304747695343" lon="11.19557190276563"><ele>667.25</ele><time>2026-03-28T11:50:57Z</time></trkpt><trkpt lat="45.563041726982014" lon="11.195438971817303"><ele>670.5</ele><time>2026-03-28T11:50:58Z</time></trkpt><trkpt lat="45.563058775743684" lon="11.195253072867013"><ele>673.75</ele><time>2026-03-28T11:50:59Z</time></trkpt><trkpt lat="45.56307358814202" lon="11.195031820051764"><ele>677.0</ele><time>2026-03-28T11:51:00Z</time></trkpt><trkpt lat="45.56307846873037" lon="11.194802773181522"><ele>677.4000000000001</ele><time>2026-03-28T11:51:01Z</time></trkpt><trkpt lat="45.563109931921474" lon="11.194624457273823"><ele>677.8000000000001</ele><time>2026-03-28T11:51:02Z</time></trkpt><trkpt lat="45.56313664014118" lon="11.194487760105696"><ele>678.2</ele><time>2026-03-28T11:51:03Z</time></trkpt><trkpt lat="45.563147395648144" lon="11.194388284683786"><ele>678.6</ele><time>2026-03-28T11:51:04Z</time></trkpt><trkpt lat="45.56309786386296" lon="11.194249994569228"><ele>679.0</ele><time>2026-03-28T11:51:06Z</time></trkpt><trkpt lat="45.56301858706039" lon="11.194217641867429"><ele>679.0</ele><time>2026-03-28T11:51:07Z</time></trkpt><trkpt lat="45.562918705779005" lon="11.194203099295843"><ele>679.0</ele><time>2026-03-28T11:51:08Z</time></trkpt><trkpt lat="45.562830357148925" lon="11.194302517388321"><ele>679.0</ele><time>2026-03-28T11:51:09Z</time></trkpt><trkpt lat="45.56271840815783" lon="11.19440434435752"><ele>679.0</ele><time>2026-03-28T11:51:10Z</time></trkpt><trkpt lat="45.562622476178646" lon="11.194521949257174"><ele>679.8000000000001</ele><time>2026-03-28T11:51:11Z</time></trkpt><trkpt lat="45.56253641080339" lon="11.194596846551605"><ele>680.6</ele><time>2026-03-28T11:51:12Z</time></trkpt><trkpt lat="45.56244511535169" lon="11.194633507369549"><ele>681.4</ele><time>2026-03-28T11:51:13Z</time></trkpt><trkpt lat="45.56234186728509" lon="11.194668029049172"><ele>682.2</ele><time>2026-03-28T11:51:14Z</time></trkpt><trkpt lat="45.56223329254246" lon="11.194681234401008"><ele>683.0</ele><time>2026-03-28T11:51:15Z</time></trkpt><trkpt lat="45.5621238734608" lon="11.194657216718436"><ele>681.25</ele><time>2026-03-28T11:51:16Z</time></trkpt><trkpt lat="45.56202770143146" lon="11.194581749609089"><ele>679.5</ele><time>2026-03-28T11:51:17Z</time></trkpt><trkpt lat="45.5619004631963" lon="11.194487710816244"><ele>677.75</ele><time>2026-03-28T11:51:18Z</time></trkpt><trkpt lat="45.56176262057752" lon="11.19439320945687"><ele>676.0</ele><time>2026-03-28T11:51:19Z</time></trkpt><trkpt lat="45.56162860366066" lon="11.194323492464811"><ele>676.0</ele><time>2026-03-28T11:51:20Z</time></trkpt><trkpt lat="45.56150539065158" lon="11.194292896508559"><ele>676.0</ele><time>2026-03-28T11:51:21Z</time></trkpt><trkpt lat="45.56136843434367" lon="11.194370695389775"><ele>676.0</ele><time>2026-03-28T11:51:22Z</time></trkpt><trkpt lat="45.56121813613444" lon="11.194376706912156"><ele>676.0</ele><time>2026-03-28T11:51:23Z</time></trkpt><trkpt lat="45.561080761391956" lon="11.194361100074353"><ele>675.0</ele><time>2026-03-28T11:51:24Z</time></trkpt><trkpt lat="45.56096921466213" lon="11.194347865351023"><ele>674.0</ele><time>2026-03-28T11:51:25Z</time></trkpt><trkpt lat="45.56089369464026" lon="11.194330410535018"><ele>673.0</ele><time>2026-03-28T11:51:26Z</time></trkpt><trkpt lat="45.56079864962752" lon="11.194281161010988"><ele>672.0</ele><time>2026-03-28T11:51:28Z</time></trkpt><trkpt lat="45.56077519102399" lon="11.194100427309651"><ele>671.0</ele><time>2026-03-28T11:51:30Z</time></trkpt><trkpt lat="45.5607540300804" lon="11.193988382619976"><ele>671.0</ele><time>2026-03-28T11:51:31Z</time></trkpt><trkpt lat="45.560726856107195" lon="11.19385349370179"><ele>671.0</ele><time>2026-03-28T11:51:32Z</time></trkpt><trkpt lat="45.56070106460228" lon="11.19370156693759"><ele>671.0</ele><time>2026-03-28T11:51:33Z</time></trkpt><trkpt lat="45.560681162840446" lon="11.19354950629912"><ele>671.0</ele><time>2026-03-28T11:51:34Z</time></trkpt><trkpt lat="45.56067120362977" lon="11.19343107498285"><ele>671.0</ele><time>2026-03-28T11:51:34.999Z</time></trkpt><trkpt lat="45.56071378376728" lon="11.1933019291249"><ele>671.0</ele><time>2026-03-28T11:51:36.999Z</time></trkpt><trkpt lat="45.56087084461985" lon="11.193273972315192"><ele>671.0</ele><time>2026-03-28T11:51:38.999Z</time></trkpt><trkpt lat="45.56098765851227" lon="11.193288753774937"><ele>671.0</ele><time>2026-03-28T11:51:39.999Z</time></trkpt><trkpt lat="45.56112584046277" lon="11.193285159974392"><ele>671.0</ele><time>2026-03-28T11:51:40.999Z</time></trkpt><trkpt lat="45.561278610597185" lon="11.193248658074808"><ele>670.75</ele><time>2026-03-28T11:51:41.999Z</time></trkpt><trkpt lat="45.561426282727936" lon="11.193153665844186"><ele>670.5</ele><time>2026-03-28T11:51:42.999Z</time></trkpt><trkpt lat="45.561557687536656" lon="11.193060504667818"><ele>670.25</ele><time>2026-03-28T11:51:43.999Z</time></trkpt><trkpt lat="45.56167208264811" lon="11.192975836052634"><ele>670.0</ele><time>2026-03-28T11:51:44.999Z</time></trkpt><trkpt lat="45.5617772090123" lon="11.192885535910555"><ele>670.0</ele><time>2026-03-28T11:51:45.999Z</time></trkpt><trkpt lat="45.56187196778186" lon="11.192800938250272"><ele>670.0</ele><time>2026-03-28T11:51:46.999Z</time></trkpt><trkpt lat="45.561946508148225" lon="11.19270839752101"><ele>670.0</ele><time>2026-03-28T11:51:47.999Z</time></trkpt><trkpt lat="45.5619922314832" lon="11.192572500630131"><ele>670.0</ele><time>2026-03-28T11:51:48.999Z</time></trkpt><trkpt lat="45.562006382491376" lon="11.192416179428573"><ele>670.0</ele><time>2026-03-28T11:51:49.999Z</time></trkpt><trkpt lat="45.56198880850806" lon="11.192274823456755"><ele>671.8</ele><time>2026-03-28T11:51:50.999Z</time></trkpt><trkpt lat="45.56200224132442" lon="11.192153751052793"><ele>673.6</ele><time>2026-03-28T11:51:51.999Z</time></trkpt><trkpt lat="45.56201804764229" lon="11.192056067835185"><ele>675.4000000000001</ele><time>2026-03-28T11:51:52.999Z</time></trkpt><trkpt lat="45.56209502333507" lon="11.191976159387886"><ele>677.2</ele><time>2026-03-28T11:51:53.999Z</time></trkpt><trkpt lat="45.56219561208201" lon="11.191937442630099"><ele>679.0</ele><time>2026-03-28T11:51:54.999Z</time></trkpt><trkpt lat="45.5623058341575" lon="11.191964326407756"><ele>679.0</ele><time>2026-03-28T11:51:55.999Z</time></trkpt><trkpt lat="45.56242279559296" lon="11.191963593961761"><ele>679.0</ele><time>2026-03-28T11:51:56.999Z</time></trkpt><trkpt lat="45.562540671816" lon="11.19198877281523"><ele>679.0</ele><time>2026-03-28T11:51:57.999Z</time></trkpt><trkpt lat="45.56265837102073" lon="11.192006233622275"><ele>679.0</ele><time>2026-03-28T11:51:58.999Z</time></trkpt><trkpt lat="45.5627704581873" lon="11.19199721922916"><ele>683.75</ele><time>2026-03-28T11:51:59.999Z</time></trkpt><trkpt lat="45.5628748372936" lon="11.191945467982988"><ele>688.5</ele><time>2026-03-28T11:52:00.999Z</time></trkpt><trkpt lat="45.5629671419835" lon="11.191833667422701"><ele>693.25</ele><time>2026-03-28T11:52:01.999Z</time></trkpt><trkpt lat="45.563034966293095" lon="11.191651219024552"><ele>698.0</ele><time>2026-03-28T11:52:02.999Z</time></trkpt><trkpt lat="45.56312375460674" lon="11.191485230175068"><ele>698.0</ele><time>2026-03-28T11:52:03.999Z</time></trkpt><trkpt lat="45.5631863058981" lon="11.191320316516773"><ele>698.0</ele><time>2026-03-28T11:52:04.999Z</time></trkpt><trkpt lat="45.563235163383936" lon="11.1911861099274"><ele>698.0</ele><time>2026-03-28T11:52:05.999Z</time></trkpt><trkpt lat="45.5632934136738" lon="11.1910840389761"><ele>698.0</ele><time>2026-03-28T11:52:06.999Z</time></trkpt><trkpt lat="45.563364062618184" lon="11.191010107456522"><ele>698.0</ele><time>2026-03-28T11:52:07.999Z</time></trkpt><trkpt lat="45.56344451138527" lon="11.190958528387686"><ele>698.0</ele><time>2026-03-28T11:52:08.999Z</time></trkpt><trkpt lat="45.56351258674692" lon="11.190902395928322"><ele>698.0</ele><time>2026-03-28T11:52:09.999Z</time></trkpt><trkpt lat="45.56357468488597" lon="11.19079192692564"><ele>698.0</ele><time>2026-03-28T11:52:11.999Z</time></trkpt><trkpt lat="45.56352412776421" lon="11.190693960482712"><ele>698.0</ele><time>2026-03-28T11:52:12.999Z</time></trkpt><trkpt lat="45.56343877679639" lon="11.190612997154545"><ele>698.0</ele><time>2026-03-28T11:52:13.999Z</time></trkpt><trkpt lat="45.56328611578774" lon="11.190646345800966"><ele>696.75</ele><time>2026-03-28T11:52:14.999Z</time></trkpt><trkpt lat="45.56314559527211" lon="11.190605292653883"><ele>695.5</ele><time>2026-03-28T11:52:15.999Z</time></trkpt><trkpt lat="45.5630003673607" lon="11.19056080570615"><ele>694.25</ele><time>2026-03-28T11:52:16.999Z</time></trkpt><trkpt lat="45.562856839836755" lon="11.19050870935819"><ele>693.0</ele><time>2026-03-28T11:52:17.999Z</time></trkpt><trkpt lat="45.562736047558445" lon="11.19046576494673"><ele>693.0</ele><time>2026-03-28T11:52:18.999Z</time></trkpt><trkpt lat="45.56264643616932" lon="11.190435943820212"><ele>693.0</ele><time>2026-03-28T11:52:19.999Z</time></trkpt><trkpt lat="45.56254857111133" lon="11.190382832780262"><ele>693.0</ele><time>2026-03-28T11:52:21.999Z</time></trkpt><trkpt lat="45.562517790897424" lon="11.190239804970835"><ele>693.0</ele><time>2026-03-28T11:52:23.999Z</time></trkpt><trkpt lat="45.56255182809386" lon="11.190091418172171"><ele>693.0</ele><time>2026-03-28T11:52:24.999Z</time></trkpt><trkpt lat="45.56258990135544" lon="11.189961096957086"><ele>693.0</ele><time>2026-03-28T11:52:25.999Z</time></trkpt><trkpt lat="45.562654224972405" lon="11.18988164591113"><ele>693.0</ele><time>2026-03-28T11:52:26.999Z</time></trkpt><trkpt lat="45.562675558011854" lon="11.189783303161509"><ele>693.0</ele><time>2026-03-28T11:52:27.999Z</time></trkpt><trkpt lat="45.56269690032789" lon="11.18967323162407"><ele>693.0</ele><time>2026-03-28T11:52:28.999Z</time></trkpt><trkpt lat="45.562631415170515" lon="11.189540703254591"><ele>693.0</ele><time>2026-03-28T11:52:30Z</time></trkpt><trkpt lat="45.56249938805141" lon="11.189499631666688"><ele>696.2</ele><time>2026-03-28T11:52:31Z</time></trkpt><trkpt lat="45.562390437394484" lon="11.189450573729944"><ele>699.4</ele><time>2026-03-28T11:52:32Z</time></trkpt><trkpt lat="45.56231051711326" lon="11.189399894434699"><ele>702.6</ele><time>2026-03-28T11:52:33Z</time></trkpt><trkpt lat="45.562247238794875" lon="11.189334234904885"><ele>705.8000000000001</ele><time>2026-03-28T11:52:34Z</time></trkpt><trkpt lat="45.56221751248599" lon="11.189224828153195"><ele>709.0</ele><time>2026-03-28T11:52:35Z</time></trkpt><trkpt lat="45.56222418650422" lon="11.189068586921604"><ele>711.5</ele><time>2026-03-28T11:52:36Z</time></trkpt><trkpt lat="45.56220720132999" lon="11.188891590709286"><ele>714.0</ele><time>2026-03-28T11:52:37Z</time></trkpt><trkpt lat="45.562195724247225" lon="11.18873657871708"><ele>716.5</ele><time>2026-03-28T11:52:38Z</time></trkpt><trkpt lat="45.56217564453565" lon="11.188631902662495"><ele>719.0</ele><time>2026-03-28T11:52:39Z</time></trkpt><trkpt lat="45.56214939299157" lon="11.188547875263469"><ele>721.5</ele><time>2026-03-28T11:52:40Z</time></trkpt><trkpt lat="45.56211650994599" lon="11.188469719902727"><ele>724.0</ele><time>2026-03-28T11:52:41Z</time></trkpt><trkpt lat="45.56201639161989" lon="11.188426003906565"><ele>724.0</ele><time>2026-03-28T11:52:42Z</time></trkpt><trkpt lat="45.56190948486154" lon="11.18853366900914"><ele>724.0</ele><time>2026-03-28T11:52:43Z</time></trkpt><trkpt lat="45.561844645234004" lon="11.188679342472271"><ele>724.0</ele><time>2026-03-28T11:52:44Z</time></trkpt><trkpt lat="45.56177628038751" lon="11.188808642051335"><ele>724.0</ele><time>2026-03-28T11:52:45Z</time></trkpt><trkpt lat="45.56167886301105" lon="11.18898705419833"><ele>719.0</ele><time>2026-03-28T11:52:46Z</time></trkpt><trkpt lat="45.56159172128246" lon="11.189169543410975"><ele>714.0</ele><time>2026-03-28T11:52:47Z</time></trkpt><trkpt lat="45.5615068233136" lon="11.189324156209933"><ele>709.0</ele><time>2026-03-28T11:52:48Z</time></trkpt><trkpt lat="45.561434427866374" lon="11.189415220142719"><ele>704.0</ele><time>2026-03-28T11:52:49Z</time></trkpt><trkpt lat="45.56135032616847" lon="11.1894574634839"><ele>704.0</ele><time>2026-03-28T11:52:50Z</time></trkpt><trkpt lat="45.56124857339436" lon="11.189475954389877"><ele>704.0</ele><time>2026-03-28T11:52:51Z</time></trkpt><trkpt lat="45.56116176131807" lon="11.189477107028546"><ele>704.0</ele><time>2026-03-28T11:52:52Z</time></trkpt><trkpt lat="45.56110189784629" lon="11.189441288158418"><ele>704.0</ele><time>2026-03-28T11:52:53Z</time></trkpt><trkpt lat="45.56104728536024" lon="11.18925305544478"><ele>704.0</ele><time>2026-03-28T11:52:55Z</time></trkpt><trkpt lat="45.5610482856315" lon="11.18910619741681"><ele>703.0</ele><time>2026-03-28T11:52:56Z</time></trkpt><trkpt lat="45.56107059490396" lon="11.188946377177558"><ele>702.0</ele><time>2026-03-28T11:52:57Z</time></trkpt><trkpt lat="45.56110085617782" lon="11.188756765692585"><ele>701.0</ele><time>2026-03-28T11:52:58Z</time></trkpt><trkpt lat="45.56112050845055" lon="11.188566819571328"><ele>700.0</ele><time>2026-03-28T11:52:59Z</time></trkpt><trkpt lat="45.561090757427934" lon="11.188374365691084"><ele>700.0</ele><time>2026-03-28T11:53:00Z</time></trkpt><trkpt lat="45.56103923512735" lon="11.188212625327997"><ele>700.0</ele><time>2026-03-28T11:53:01Z</time></trkpt><trkpt lat="45.56095320457823" lon="11.188080539275598"><ele>700.0</ele><time>2026-03-28T11:53:02Z</time></trkpt><trkpt lat="45.56087932605254" lon="11.187942392704446"><ele>700.0</ele><time>2026-03-28T11:53:03Z</time></trkpt><trkpt lat="45.560840941694295" lon="11.187828266192197"><ele>701.5</ele><time>2026-03-28T11:53:04Z</time></trkpt><trkpt lat="45.56083661891752" lon="11.18770533516666"><ele>703.0</ele><time>2026-03-28T11:53:05Z</time></trkpt><trkpt lat="45.56084955877786" lon="11.187588278255504"><ele>704.5</ele><time>2026-03-28T11:53:06Z</time></trkpt><trkpt lat="45.560911015368795" lon="11.187518623283772"><ele>706.0</ele><time>2026-03-28T11:53:07Z</time></trkpt><trkpt lat="45.56099295666348" lon="11.187476066393764"><ele>707.5</ele><time>2026-03-28T11:53:08Z</time></trkpt><trkpt lat="45.561052187045085" lon="11.18738667573405"><ele>709.0</ele><time>2026-03-28T11:53:09Z</time></trkpt><trkpt lat="45.56106490288015" lon="11.187239400750716"><ele>708.75</ele><time>2026-03-28T11:53:10Z</time></trkpt><trkpt lat="45.56102945619029" lon="11.18705714429261"><ele>708.5</ele><time>2026-03-28T11:53:11Z</time></trkpt><trkpt lat="45.56096849595684" lon="11.186862046261393"><ele>708.25</ele><time>2026-03-28T11:53:12Z</time></trkpt><trkpt lat="45.56094108418612" lon="11.186651751558479"><ele>708.0</ele><time>2026-03-28T11:53:13Z</time></trkpt><trkpt lat="45.56092039309532" lon="11.18647006208996"><ele>708.0</ele><time>2026-03-28T11:53:14Z</time></trkpt><trkpt lat="45.56092733647682" lon="11.186284313016854"><ele>708.0</ele><time>2026-03-28T11:53:15Z</time></trkpt><trkpt lat="45.560964780707074" lon="11.186096218818333"><ele>708.0</ele><time>2026-03-28T11:53:16Z</time></trkpt><trkpt lat="45.56103458603978" lon="11.185915124575132"><ele>708.0</ele><time>2026-03-28T11:53:17Z</time></trkpt><trkpt lat="45.56110845238991" lon="11.185746429629122"><ele>707.4</ele><time>2026-03-28T11:53:18Z</time></trkpt><trkpt lat="45.56117643562156" lon="11.185619480640238"><ele>706.8</ele><time>2026-03-28T11:53:19Z</time></trkpt><trkpt lat="45.561257740726056" lon="11.18553474882645"><ele>706.2</ele><time>2026-03-28T11:53:20Z</time></trkpt><trkpt lat="45.56133414793442" lon="11.185467615526235"><ele>705.6</ele><time>2026-03-28T11:53:21Z</time></trkpt><trkpt lat="45.56139793660134" lon="11.185413971560665"><ele>705.0</ele><time>2026-03-28T11:53:22Z</time></trkpt><trkpt lat="45.56145536017237" lon="11.185326371123823"><ele>709.75</ele><time>2026-03-28T11:53:23Z</time></trkpt><trkpt lat="45.56144134336805" lon="11.18514431356715"><ele>714.5</ele><time>2026-03-28T11:53:24Z</time></trkpt><trkpt lat="45.56139262944225" lon="11.185002199342003"><ele>719.25</ele><time>2026-03-28T11:53:25Z</time></trkpt><trkpt lat="45.56139500986222" lon="11.184869081614288"><ele>724.0</ele><time>2026-03-28T11:53:26Z</time></trkpt><trkpt lat="45.56143450017329" lon="11.18470897224995"><ele>724.0</ele><time>2026-03-28T11:53:27Z</time></trkpt><trkpt lat="45.56150363258477" lon="11.184540480224166"><ele>724.0</ele><time>2026-03-28T11:53:28Z</time></trkpt><trkpt lat="45.56158342634" lon="11.184409730864543"><ele>724.0</ele><time>2026-03-28T11:53:29Z</time></trkpt><trkpt lat="45.56167618185036" lon="11.184307132638878"><ele>724.0</ele><time>2026-03-28T11:53:30Z</time></trkpt><trkpt lat="45.56178121943088" lon="11.184203815223142"><ele>724.0</ele><time>2026-03-28T11:53:31Z</time></trkpt><trkpt lat="45.561888895191" lon="11.184136923307221"><ele>724.0</ele><time>2026-03-28T11:53:32Z</time></trkpt><trkpt lat="45.56198355460215" lon="11.184069988053533"><ele>724.0</ele><time>2026-03-28T11:53:33Z</time></trkpt><trkpt lat="45.56207213999871" lon="11.1840459787622"><ele>724.0</ele><time>2026-03-28T11:53:34Z</time></trkpt><trkpt lat="45.56213368405915" lon="11.184001615726338"><ele>724.0</ele><time>2026-03-28T11:53:35Z</time></trkpt><trkpt lat="45.56194342195976" lon="11.183660241409498"><ele>728.6666666666667</ele><time>2026-03-28T11:53:39Z</time></trkpt><trkpt lat="45.56180975332388" lon="11.183580529030728"><ele>733.3333333333334</ele><time>2026-03-28T11:53:40Z</time></trkpt><trkpt lat="45.561655897128624" lon="11.1834950791157"><ele>738.0</ele><time>2026-03-28T11:53:40.999Z</time></trkpt><trkpt lat="45.561489093328525" lon="11.183422239576144"><ele>738.0</ele><time>2026-03-28T11:53:41.999Z</time></trkpt><trkpt lat="45.56133358906574" lon="11.183372498616095"><ele>738.0</ele><time>2026-03-28T11:53:42.999Z</time></trkpt><trkpt lat="45.561200349120035" lon="11.183335782583162"><ele>738.0</ele><time>2026-03-28T11:53:43.999Z</time></trkpt><trkpt lat="45.56108124479815" lon="11.183307291134144"><ele>738.0</ele><time>2026-03-28T11:53:44.999Z</time></trkpt><trkpt lat="45.56097368219799" lon="11.183281851832458"><ele>737.0</ele><time>2026-03-28T11:53:45.999Z</time></trkpt><trkpt lat="45.56088912325231" lon="11.18325245846614"><ele>736.0</ele><time>2026-03-28T11:53:46.999Z</time></trkpt><trkpt lat="45.560822155879265" lon="11.183234439994123"><ele>735.0</ele><time>2026-03-28T11:53:47.999Z</time></trkpt><trkpt lat="45.560710193140196" lon="11.183202700888952"><ele>734.0</ele><time>2026-03-28T11:53:49.999Z</time></trkpt><trkpt lat="45.560601324380556" lon="11.183218484069334"><ele>733.0</ele><time>2026-03-28T11:53:51.999Z</time></trkpt><trkpt lat="45.56049818911277" lon="11.183243487532856"><ele>733.0</ele><time>2026-03-28T11:53:53.999Z</time></trkpt><trkpt lat="45.560428999087335" lon="11.183190494800707"><ele>733.0</ele><time>2026-03-28T11:54:32.999Z</time></trkpt><trkpt lat="45.56036948309603" lon="11.183155753587334"><ele>733.0</ele><time>2026-03-28T11:54:34.999Z</time></trkpt><trkpt lat="45.56036378520731" lon="11.18328207271137"><ele>733.0</ele><time>2026-03-28T11:56:32.999Z</time></trkpt><trkpt lat="45.560328208242154" lon="11.183357939972595"><ele>733.0</ele><time>2026-03-28T11:56:34.999Z</time></trkpt><trkpt lat="45.56027750110327" lon="11.183460252566665"><ele>733.0</ele><time>2026-03-28T11:56:36.999Z</time></trkpt><trkpt lat="45.56023652056942" lon="11.183541887360684"><ele>732.3333333333334</ele><time>2026-03-28T11:56:37.999Z</time></trkpt><trkpt lat="45.560185342824745" lon="11.183634837033564"><ele>731.6666666666667</ele><time>2026-03-28T11:56:38.999Z</time></trkpt><trkpt lat="45.560138385390104" lon="11.183724334047175"><ele>731.0</ele><time>2026-03-28T11:56:39.999Z</time></trkpt><trkpt lat="45.56008968027817" lon="11.183814319328885"><ele>730.3333333333334</ele><time>2026-03-28T11:56:40.999Z</time></trkpt><trkpt lat="45.56003739166583" lon="11.183904879272536"><ele>729.6666666666666</ele><time>2026-03-28T11:56:42Z</time></trkpt><trkpt lat="45.559985473394704" lon="11.183996505959891"><ele>729.0</ele><time>2026-03-28T11:56:43Z</time></trkpt><trkpt lat="45.559929884962465" lon="11.184081179363787"><ele>729.0</ele><time>2026-03-28T11:56:44Z</time></trkpt><trkpt lat="45.559867022874876" lon="11.184161570996153"><ele>729.0</ele><time>2026-03-28T11:56:45Z</time></trkpt><trkpt lat="45.55978654985219" lon="11.184255650554665"><ele>729.0</ele><time>2026-03-28T11:56:46Z</time></trkpt><trkpt lat="45.55970653691343" lon="11.18433397212947"><ele>729.0</ele><time>2026-03-28T11:56:47Z</time></trkpt><trkpt lat="45.55963597378307" lon="11.184395465391747"><ele>729.0</ele><time>2026-03-28T11:56:48Z</time></trkpt><trkpt lat="45.559566576052966" lon="11.184454422160263"><ele>729.0</ele><time>2026-03-28T11:56:49Z</time></trkpt><trkpt lat="45.55949867950222" lon="11.18451384229802"><ele>728.0</ele><time>2026-03-28T11:56:50Z</time></trkpt><trkpt lat="45.55941840930845" lon="11.18458628411893"><ele>727.0</ele><time>2026-03-28T11:56:51Z</time></trkpt><trkpt lat="45.55932855666573" lon="11.184669747771016"><ele>726.0</ele><time>2026-03-28T11:56:52Z</time></trkpt><trkpt lat="45.55921906029296" lon="11.184760863755043"><ele>725.0</ele><time>2026-03-28T11:56:53Z</time></trkpt><trkpt lat="45.5591004826842" lon="11.184882249759118"><ele>725.0</ele><time>2026-03-28T11:56:54Z</time></trkpt><trkpt lat="45.55898182908478" lon="11.185019599908314"><ele>725.0</ele><time>2026-03-28T11:56:55Z</time></trkpt><trkpt lat="45.558886590405336" lon="11.185154860488668"><ele>725.0</ele><time>2026-03-28T11:56:56Z</time></trkpt><trkpt lat="45.55880397036233" lon="11.185279623822092"><ele>725.0</ele><time>2026-03-28T11:56:57Z</time></trkpt><trkpt lat="45.55872634729428" lon="11.185397406482457"><ele>725.2</ele><time>2026-03-28T11:56:58Z</time></trkpt><trkpt lat="45.558655258167576" lon="11.185510825492768"><ele>725.4</ele><time>2026-03-28T11:56:59Z</time></trkpt><trkpt lat="45.55856872459279" lon="11.185581338201109"><ele>725.5999999999999</ele><time>2026-03-28T11:57:00Z</time></trkpt><trkpt lat="45.558484253998046" lon="11.185651170545984"><ele>725.8</ele><time>2026-03-28T11:57:01Z</time></trkpt><trkpt lat="45.55838533016448" lon="11.185712283741688"><ele>726.0</ele><time>2026-03-28T11:57:02Z</time></trkpt><trkpt lat="45.55828041590731" lon="11.185789903047795"><ele>726.0</ele><time>2026-03-28T11:57:03Z</time></trkpt><trkpt lat="45.55817675561375" lon="11.185847123672744"><ele>726.0</ele><time>2026-03-28T11:57:04Z</time></trkpt><trkpt lat="45.558078225907515" lon="11.185917867063996"><ele>726.0</ele><time>2026-03-28T11:57:05Z</time></trkpt><trkpt lat="45.55799914564769" lon="11.186013502712873"><ele>726.0</ele><time>2026-03-28T11:57:06Z</time></trkpt><trkpt lat="45.55793185799577" lon="11.186138953594641"><ele>726.0</ele><time>2026-03-28T11:57:07Z</time></trkpt><trkpt lat="45.55789572559487" lon="11.18625892002961"><ele>726.0</ele><time>2026-03-28T11:57:08Z</time></trkpt><trkpt lat="45.55788365981501" lon="11.186378566399975"><ele>726.0</ele><time>2026-03-28T11:57:09Z</time></trkpt><trkpt lat="45.55784029292246" lon="11.186480647250074"><ele>726.0</ele><time>2026-03-28T11:57:10Z</time></trkpt><trkpt lat="45.55779237092754" lon="11.186564878837205"><ele>726.0</ele><time>2026-03-28T11:57:11Z</time></trkpt><trkpt lat="45.557731206777554" lon="11.18663210864774"><ele>726.0</ele><time>2026-03-28T11:57:12Z</time></trkpt><trkpt lat="45.55765526278613" lon="11.186682891263487"><ele>726.0</ele><time>2026-03-28T11:57:13Z</time></trkpt><trkpt lat="45.55757193183076" lon="11.1867285577105"><ele>727.5</ele><time>2026-03-28T11:57:14Z</time></trkpt><trkpt lat="45.55749642868048" lon="11.186787079527287"><ele>729.0</ele><time>2026-03-28T11:57:15Z</time></trkpt><trkpt lat="45.55743579564275" lon="11.186825196373762"><ele>730.5</ele><time>2026-03-28T11:57:16Z</time></trkpt><trkpt lat="45.55738597149692" lon="11.186882388814018"><ele>732.0</ele><time>2026-03-28T11:57:17Z</time></trkpt><trkpt lat="45.55733712205519" lon="11.187029209703239"><ele>733.5</ele><time>2026-03-28T11:57:19Z</time></trkpt><trkpt lat="45.55733437792573" lon="11.187148432332533"><ele>735.0</ele><time>2026-03-28T11:57:20Z</time></trkpt><trkpt lat="45.55734390275314" lon="11.187285387313178"><ele>731.75</ele><time>2026-03-28T11:57:21Z</time></trkpt><trkpt lat="45.55736000531217" lon="11.187460189909707"><ele>728.5</ele><time>2026-03-28T11:57:22Z</time></trkpt><trkpt lat="45.557378252708325" lon="11.187642627119663"><ele>725.25</ele><time>2026-03-28T11:57:23Z</time></trkpt><trkpt lat="45.557411317478596" lon="11.187800327367654"><ele>722.0</ele><time>2026-03-28T11:57:24Z</time></trkpt><trkpt lat="45.5574529764269" lon="11.187953073564058"><ele>722.0</ele><time>2026-03-28T11:57:25Z</time></trkpt><trkpt lat="45.557508227463664" lon="11.188081879841535"><ele>722.0</ele><time>2026-03-28T11:57:26Z</time></trkpt><trkpt lat="45.55755897764917" lon="11.188209592639296"><ele>722.0</ele><time>2026-03-28T11:57:27Z</time></trkpt><trkpt lat="45.5575935235337" lon="11.18831687886609"><ele>722.0</ele><time>2026-03-28T11:57:28Z</time></trkpt><trkpt lat="45.55761314003751" lon="11.188414042421327"><ele>722.0</ele><time>2026-03-28T11:57:29Z</time></trkpt><trkpt lat="45.55763168849164" lon="11.188544972642173"><ele>722.25</ele><time>2026-03-28T11:57:30Z</time></trkpt><trkpt lat="45.55759643624209" lon="11.188729068599226"><ele>722.5</ele><time>2026-03-28T11:57:31Z</time></trkpt><trkpt lat="45.55758084875063" lon="11.18895364455984"><ele>722.75</ele><time>2026-03-28T11:57:32Z</time></trkpt><trkpt lat="45.55756696456036" lon="11.189151410699322"><ele>723.0</ele><time>2026-03-28T11:57:33Z</time></trkpt><trkpt lat="45.557560032901684" lon="11.189318046019151"><ele>723.2</ele><time>2026-03-28T11:57:34Z</time></trkpt><trkpt lat="45.55753381613518" lon="11.189491083636245"><ele>723.4</ele><time>2026-03-28T11:57:35Z</time></trkpt><trkpt lat="45.55750229297652" lon="11.18965587194231"><ele>723.6</ele><time>2026-03-28T11:57:36Z</time></trkpt><trkpt lat="45.55745672075107" lon="11.189779997128602"><ele>723.8000000000001</ele><time>2026-03-28T11:57:37Z</time></trkpt><trkpt lat="45.557421083810844" lon="11.18990902912075"><ele>724.0</ele><time>2026-03-28T11:57:38Z</time></trkpt><trkpt lat="45.557388389545096" lon="11.190009540236817"><ele>722.2</ele><time>2026-03-28T11:57:39Z</time></trkpt><trkpt lat="45.55735374911426" lon="11.190100638561963"><ele>720.4000000000001</ele><time>2026-03-28T11:57:40Z</time></trkpt><trkpt lat="45.557300751631566" lon="11.190198712719477"><ele>718.6</ele><time>2026-03-28T11:57:41Z</time></trkpt><trkpt lat="45.557215593336146" lon="11.190280497228713"><ele>716.8</ele><time>2026-03-28T11:57:42Z</time></trkpt><trkpt lat="45.557105317208375" lon="11.190362697859241"><ele>715.0</ele><time>2026-03-28T11:57:43Z</time></trkpt><trkpt lat="45.55695705272203" lon="11.1904546147578"><ele>715.0</ele><time>2026-03-28T11:57:44Z</time></trkpt><trkpt lat="45.55680707932971" lon="11.190584212851933"><ele>715.0</ele><time>2026-03-28T11:57:45Z</time></trkpt><trkpt lat="45.556651333704245" lon="11.190718743286812"><ele>715.0</ele><time>2026-03-28T11:57:46Z</time></trkpt><trkpt lat="45.55653086802193" lon="11.190853936889743"><ele>715.0</ele><time>2026-03-28T11:57:47Z</time></trkpt><trkpt lat="45.556431594164366" lon="11.19100958615282"><ele>715.0</ele><time>2026-03-28T11:57:48Z</time></trkpt><trkpt lat="45.55636401015529" lon="11.191172312498523"><ele>715.0</ele><time>2026-03-28T11:57:49Z</time></trkpt><trkpt lat="45.55631199652741" lon="11.19134414990222"><ele>715.0</ele><time>2026-03-28T11:57:49.999Z</time></trkpt><trkpt lat="45.55628276394608" lon="11.191504304742836"><ele>717.75</ele><time>2026-03-28T11:57:50.999Z</time></trkpt><trkpt lat="45.55624854736989" lon="11.191667598475965"><ele>720.5</ele><time>2026-03-28T11:57:51.999Z</time></trkpt><trkpt lat="45.556215016578484" lon="11.191830846557988"><ele>723.25</ele><time>2026-03-28T11:57:52.999Z</time></trkpt><trkpt lat="45.55617322447427" lon="11.191991097849602"><ele>726.0</ele><time>2026-03-28T11:57:53.999Z</time></trkpt><trkpt lat="45.55611503507212" lon="11.192124335667103"><ele>726.0</ele><time>2026-03-28T11:57:54.999Z</time></trkpt><trkpt lat="45.556069803221575" lon="11.192255215433873"><ele>726.0</ele><time>2026-03-28T11:57:55.999Z</time></trkpt><trkpt lat="45.556023031600546" lon="11.19236134299284"><ele>726.0</ele><time>2026-03-28T11:57:56.999Z</time></trkpt><trkpt lat="45.55597281595019" lon="11.192446029694588"><ele>726.0</ele><time>2026-03-28T11:57:57.999Z</time></trkpt><trkpt lat="45.55591241822233" lon="11.192497831515304"><ele>726.0</ele><time>2026-03-28T11:57:58.999Z</time></trkpt><trkpt lat="45.555830061158446" lon="11.192568148213967"><ele>726.0</ele><time>2026-03-28T11:57:59.999Z</time></trkpt><trkpt lat="45.55574378320491" lon="11.192668189482301"><ele>724.1999999999999</ele><time>2026-03-28T11:58:00.999Z</time></trkpt><trkpt lat="45.555663098287305" lon="11.192748565842141"><ele>722.4</ele><time>2026-03-28T11:58:01.999Z</time></trkpt><trkpt lat="45.555599194703376" lon="11.192879937880651"><ele>720.6</ele><time>2026-03-28T11:58:02.999Z</time></trkpt><trkpt lat="45.55555184011185" lon="11.193010133017491"><ele>718.8</ele><time>2026-03-28T11:58:03.999Z</time></trkpt><trkpt lat="45.555517117986334" lon="11.193149859058243"><ele>717.0</ele><time>2026-03-28T11:58:04.999Z</time></trkpt><trkpt lat="45.555501117603" lon="11.193296070107808"><ele>712.75</ele><time>2026-03-28T11:58:05.999Z</time></trkpt><trkpt lat="45.555491881531424" lon="11.193477331234241"><ele>708.5</ele><time>2026-03-28T11:58:06.999Z</time></trkpt><trkpt lat="45.555488262414194" lon="11.193679483628374"><ele>704.25</ele><time>2026-03-28T11:58:07.999Z</time></trkpt><trkpt lat="45.55547908694758" lon="11.193884428487172"><ele>700.0</ele><time>2026-03-28T11:58:08.999Z</time></trkpt><trkpt lat="45.55549870867739" lon="11.194066600348787"><ele>698.5</ele><time>2026-03-28T11:58:09.999Z</time></trkpt><trkpt lat="45.55549815132949" lon="11.194219274497675"><ele>697.0</ele><time>2026-03-28T11:58:10.999Z</time></trkpt><trkpt lat="45.55547174975673" lon="11.194370636085935"><ele>695.5</ele><time>2026-03-28T11:58:11.999Z</time></trkpt><trkpt lat="45.555437268815886" lon="11.194527794305026"><ele>694.0</ele><time>2026-03-28T11:58:12.999Z</time></trkpt><trkpt lat="45.555375347535936" lon="11.194712487913026"><ele>698.25</ele><time>2026-03-28T11:58:13.999Z</time></trkpt><trkpt lat="45.55533609905475" lon="11.194915527577146"><ele>702.5</ele><time>2026-03-28T11:58:14.999Z</time></trkpt><trkpt lat="45.555302378036956" lon="11.195083526173757"><ele>706.75</ele><time>2026-03-28T11:58:15.999Z</time></trkpt><trkpt lat="45.55527210488775" lon="11.195230094826211"><ele>711.0</ele><time>2026-03-28T11:58:16.999Z</time></trkpt><trkpt lat="45.55524358281221" lon="11.195342795441654"><ele>711.0</ele><time>2026-03-28T11:58:17.999Z</time></trkpt><trkpt lat="45.55520977888617" lon="11.19543749885569"><ele>711.0</ele><time>2026-03-28T11:58:18.999Z</time></trkpt><trkpt lat="45.555084446431096" lon="11.195480564622287"><ele>711.0</ele><time>2026-03-28T11:58:20.999Z</time></trkpt><trkpt lat="45.55500671303256" lon="11.195452901402605"><ele>711.0</ele><time>2026-03-28T11:58:21.999Z</time></trkpt><trkpt lat="45.554942326105554" lon="11.195365821747789"><ele>711.0</ele><time>2026-03-28T11:58:22.999Z</time></trkpt><trkpt lat="45.55487463012103" lon="11.195325276878659"><ele>711.0</ele><time>2026-03-28T11:58:23.999Z</time></trkpt><trkpt lat="45.55480860287269" lon="11.195285791281341"><ele>711.0</ele><time>2026-03-28T11:58:24.999Z</time></trkpt><trkpt lat="45.55473735182423" lon="11.195243194419952"><ele>711.0</ele><time>2026-03-28T11:58:25.999Z</time></trkpt><trkpt lat="45.55465352864231" lon="11.19520428181924"><ele>711.0</ele><time>2026-03-28T11:58:26.999Z</time></trkpt><trkpt lat="45.55454047405224" lon="11.195174667468548"><ele>711.0</ele><time>2026-03-28T11:58:27.999Z</time></trkpt><trkpt lat="45.5543999870651" lon="11.195161430307172"><ele>711.0</ele><time>2026-03-28T11:58:28.999Z</time></trkpt><trkpt lat="45.55427048601918" lon="11.195153700438768"><ele>709.8</ele><time>2026-03-28T11:58:29.999Z</time></trkpt><trkpt lat="45.55415342291707" lon="11.19512020187171"><ele>708.5999999999999</ele><time>2026-03-28T11:58:30.999Z</time></trkpt><trkpt lat="45.554033703928866" lon="11.195068870938796"><ele>707.4</ele><time>2026-03-28T11:58:31.999Z</time></trkpt><trkpt lat="45.55393267721544" lon="11.195009079368539"><ele>706.2</ele><time>2026-03-28T11:58:32.999Z</time></trkpt><trkpt lat="45.553853744270135" lon="11.194945536376046"><ele>705.0</ele><time>2026-03-28T11:58:33.999Z</time></trkpt><trkpt lat="45.55379903198837" lon="11.194886725749498"><ele>705.5</ele><time>2026-03-28T11:58:34.999Z</time></trkpt><trkpt lat="45.55374458913444" lon="11.194757122875192"><ele>706.0</ele><time>2026-03-28T11:58:36.999Z</time></trkpt><trkpt lat="45.55375553280472" lon="11.194667123861217"><ele>706.5</ele><time>2026-03-28T11:58:37.999Z</time></trkpt><trkpt lat="45.55379263690598" lon="11.19457806011244"><ele>707.0</ele><time>2026-03-28T11:58:38.999Z</time></trkpt><trkpt lat="45.553861064823394" lon="11.194509269073968"><ele>707.5</ele><time>2026-03-28T11:58:39.999Z</time></trkpt><trkpt lat="45.55391321294498" lon="11.194407607498347"><ele>708.0</ele><time>2026-03-28T11:58:40.999Z</time></trkpt><trkpt lat="45.5539654406353" lon="11.194320854996189"><ele>708.0</ele><time>2026-03-28T11:58:41.999Z</time></trkpt><trkpt lat="45.55400829088378" lon="11.194205540784871"><ele>708.0</ele><time>2026-03-28T11:58:42.999Z</time></trkpt><trkpt lat="45.554027953408706" lon="11.194080111438412"><ele>708.0</ele><time>2026-03-28T11:58:43.999Z</time></trkpt><trkpt lat="45.55402241978474" lon="11.193939288882262"><ele>708.0</ele><time>2026-03-28T11:58:44.999Z</time></trkpt><trkpt lat="45.55400030581689" lon="11.193806977457086"><ele>708.0</ele><time>2026-03-28T11:58:45.999Z</time></trkpt><trkpt lat="45.55397506436611" lon="11.193671131406123"><ele>707.0</ele><time>2026-03-28T11:58:46.999Z</time></trkpt><trkpt lat="45.55390896676245" lon="11.193563015714949"><ele>706.0</ele><time>2026-03-28T11:58:48Z</time></trkpt><trkpt lat="45.553868096193455" lon="11.19343461813796"><ele>705.0</ele><time>2026-03-28T11:58:49Z</time></trkpt><trkpt lat="45.55385311023754" lon="11.193306693778151"><ele>704.0</ele><time>2026-03-28T11:58:50Z</time></trkpt><trkpt lat="45.55386543536176" lon="11.193173724400252"><ele>703.0</ele><time>2026-03-28T11:58:51Z</time></trkpt><trkpt lat="45.55388762030218" lon="11.193040808896525"><ele>701.5999999999999</ele><time>2026-03-28T11:58:52Z</time></trkpt><trkpt lat="45.553910592010624" lon="11.19290615381179"><ele>700.1999999999999</ele><time>2026-03-28T11:58:53Z</time></trkpt><trkpt lat="45.553933012873934" lon="11.192769776166699"><ele>698.8</ele><time>2026-03-28T11:58:54Z</time></trkpt><trkpt lat="45.55397516028892" lon="11.192645570970017"><ele>697.4</ele><time>2026-03-28T11:58:55Z</time></trkpt><trkpt lat="45.554022717243356" lon="11.192520467133866"><ele>696.0</ele><time>2026-03-28T11:58:56Z</time></trkpt><trkpt lat="45.554071454675366" lon="11.192395463838414"><ele>694.8333333333334</ele><time>2026-03-28T11:58:57Z</time></trkpt><trkpt lat="45.5541266183093" lon="11.192290347311102"><ele>693.6666666666666</ele><time>2026-03-28T11:58:58Z</time></trkpt><trkpt lat="45.55416262576388" lon="11.192176534679367"><ele>692.5</ele><time>2026-03-28T11:58:59Z</time></trkpt><trkpt lat="45.55419343573534" lon="11.192064331113901"><ele>691.3333333333333</ele><time>2026-03-28T11:59:00Z</time></trkpt><trkpt lat="45.55416741241404" lon="11.191946081283138"><ele>690.1666666666666</ele><time>2026-03-28T11:59:01Z</time></trkpt><trkpt lat="45.55418044315908" lon="11.19181345236077"><ele>689.0</ele><time>2026-03-28T11:59:02Z</time></trkpt><trkpt lat="45.55417749556246" lon="11.191672196517858"><ele>689.0</ele><time>2026-03-28T11:59:03Z</time></trkpt><trkpt lat="45.554159867258335" lon="11.191531703013261"><ele>689.0</ele><time>2026-03-28T11:59:04Z</time></trkpt><trkpt lat="45.554168703010916" lon="11.191405932151067"><ele>689.0</ele><time>2026-03-28T11:59:05Z</time></trkpt><trkpt lat="45.554167113347994" lon="11.191260314532308"><ele>689.0</ele><time>2026-03-28T11:59:06Z</time></trkpt><trkpt lat="45.55416427339926" lon="11.191081480549682"><ele>689.0</ele><time>2026-03-28T11:59:07Z</time></trkpt><trkpt lat="45.55415311650609" lon="11.190899716846404"><ele>690.0</ele><time>2026-03-28T11:59:08Z</time></trkpt><trkpt lat="45.55413769138651" lon="11.19071728016244"><ele>691.0</ele><time>2026-03-28T11:59:09Z</time></trkpt><trkpt lat="45.554072686939854" lon="11.190544462248996"><ele>692.0</ele><time>2026-03-28T11:59:10Z</time></trkpt><trkpt lat="45.553965205178194" lon="11.190393390271273"><ele>693.0</ele><time>2026-03-28T11:59:11Z</time></trkpt><trkpt lat="45.553895292197176" lon="11.190216742356773"><ele>695.75</ele><time>2026-03-28T11:59:12Z</time></trkpt><trkpt lat="45.553845553894185" lon="11.190064477171967"><ele>698.5</ele><time>2026-03-28T11:59:13Z</time></trkpt><trkpt lat="45.553824159729594" lon="11.1899058805399"><ele>701.25</ele><time>2026-03-28T11:59:14Z</time></trkpt><trkpt lat="45.55381050202149" lon="11.189701704280989"><ele>704.0</ele><time>2026-03-28T11:59:15Z</time></trkpt><trkpt lat="45.55380287024822" lon="11.189506539234516"><ele>706.0</ele><time>2026-03-28T11:59:16Z</time></trkpt><trkpt lat="45.55380957735398" lon="11.189343921429803"><ele>708.0</ele><time>2026-03-28T11:59:17Z</time></trkpt><trkpt lat="45.55381410363178" lon="11.189185943062059"><ele>710.0</ele><time>2026-03-28T11:59:18Z</time></trkpt><trkpt lat="45.55383776524016" lon="11.189050681129029"><ele>712.0</ele><time>2026-03-28T11:59:19Z</time></trkpt><trkpt lat="45.55378488366875" lon="11.18890182145549"><ele>714.0</ele><time>2026-03-28T11:59:20Z</time></trkpt><trkpt lat="45.55374324690092" lon="11.188757404511371"><ele>714.6</ele><time>2026-03-28T11:59:21Z</time></trkpt><trkpt lat="45.55370315082954" lon="11.188614655588779"><ele>715.2</ele><time>2026-03-28T11:59:22Z</time></trkpt><trkpt lat="45.55365822593821" lon="11.188466723480401"><ele>715.8000000000001</ele><time>2026-03-28T11:59:23Z</time></trkpt><trkpt lat="45.553614139710675" lon="11.18831552108255"><ele>716.4000000000001</ele><time>2026-03-28T11:59:24Z</time></trkpt><trkpt lat="45.553583383785" lon="11.188159040755416"><ele>717.0</ele><time>2026-03-28T11:59:25Z</time></trkpt><trkpt lat="45.55350016601955" lon="11.188030653139974"><ele>717.0</ele><time>2026-03-28T11:59:26Z</time></trkpt><trkpt lat="45.553416014923194" lon="11.18789826873365"><ele>717.0</ele><time>2026-03-28T11:59:27Z</time></trkpt><trkpt lat="45.55333641867443" lon="11.187751121282464"><ele>717.0</ele><time>2026-03-28T11:59:28Z</time></trkpt><trkpt lat="45.553278642757135" lon="11.187607923047317"><ele>717.0</ele><time>2026-03-28T11:59:29Z</time></trkpt><trkpt lat="45.553236049715814" lon="11.187480715769063"><ele>717.0</ele><time>2026-03-28T11:59:30Z</time></trkpt><trkpt lat="45.5531901711362" lon="11.187379318577008"><ele>717.0</ele><time>2026-03-28T11:59:31Z</time></trkpt><trkpt lat="45.55313583493354" lon="11.187303072930636"><ele>717.0</ele><time>2026-03-28T11:59:32Z</time></trkpt><trkpt lat="45.55306450313852" lon="11.18725065219707"><ele>717.0</ele><time>2026-03-28T11:59:33Z</time></trkpt><trkpt lat="45.55295496520651" lon="11.18724165031682"><ele>717.0</ele><time>2026-03-28T11:59:34Z</time></trkpt><trkpt lat="45.55282052500077" lon="11.18725887044198"><ele>713.0</ele><time>2026-03-28T11:59:35Z</time></trkpt><trkpt lat="45.552656582359994" lon="11.1872909541565"><ele>709.0</ele><time>2026-03-28T11:59:36Z</time></trkpt><trkpt lat="45.55247490235255" lon="11.18734395285345"><ele>705.0</ele><time>2026-03-28T11:59:37Z</time></trkpt><trkpt lat="45.55228918517862" lon="11.187383893006315"><ele>705.0</ele><time>2026-03-28T11:59:38Z</time></trkpt><trkpt lat="45.55212184117608" lon="11.187438616168857"><ele>705.0</ele><time>2026-03-28T11:59:39Z</time></trkpt><trkpt lat="45.551972398326185" lon="11.18749360213927"><ele>705.0</ele><time>2026-03-28T11:59:40Z</time></trkpt><trkpt lat="45.551844880450844" lon="11.1875325668422"><ele>704.6</ele><time>2026-03-28T11:59:41Z</time></trkpt><trkpt lat="45.551732961013464" lon="11.18753882192066"><ele>704.2</ele><time>2026-03-28T11:59:42Z</time></trkpt><trkpt lat="45.551637532720335" lon="11.187539341507026"><ele>703.8</ele><time>2026-03-28T11:59:43Z</time></trkpt><trkpt lat="45.551556142628215" lon="11.18753148446215"><ele>703.4</ele><time>2026-03-28T11:59:44Z</time></trkpt><trkpt lat="45.551485569332804" lon="11.18754095480151"><ele>703.0</ele><time>2026-03-28T11:59:45Z</time></trkpt><trkpt lat="45.55143074303303" lon="11.187394255730377"><ele>705.25</ele><time>2026-03-28T11:59:47Z</time></trkpt><trkpt lat="45.55143465220894" lon="11.187265253036921"><ele>707.5</ele><time>2026-03-28T11:59:48Z</time></trkpt><trkpt lat="45.5514346035017" lon="11.187092307527296"><ele>709.75</ele><time>2026-03-28T11:59:49Z</time></trkpt><trkpt lat="45.55142107340864" lon="11.186909840709866"><ele>712.0</ele><time>2026-03-28T11:59:50Z</time></trkpt><trkpt lat="45.55139298856512" lon="11.186734580848832"><ele>712.0</ele><time>2026-03-28T11:59:51Z</time></trkpt><trkpt lat="45.551347579086965" lon="11.186571607850947"><ele>712.0</ele><time>2026-03-28T11:59:52Z</time></trkpt><trkpt lat="45.551305535502706" lon="11.186414407020001"><ele>712.0</ele><time>2026-03-28T11:59:52.999Z</time></trkpt><trkpt lat="45.55125554122646" lon="11.18625452278712"><ele>712.0</ele><time>2026-03-28T11:59:53.999Z</time></trkpt><trkpt lat="45.551207124003895" lon="11.186100117407644"><ele>703.5</ele><time>2026-03-28T11:59:54.999Z</time></trkpt><trkpt lat="45.551166536784" lon="11.185936724616722"><ele>695.0</ele><time>2026-03-28T11:59:55.999Z</time></trkpt><trkpt lat="45.551119102856156" lon="11.185778316522155"><ele>686.5</ele><time>2026-03-28T11:59:56.999Z</time></trkpt><trkpt lat="45.55107523390177" lon="11.185618644258586"><ele>678.0</ele><time>2026-03-28T11:59:57.999Z</time></trkpt><trkpt lat="45.55103283506534" lon="11.185461206205957"><ele>676.2</ele><time>2026-03-28T11:59:58.999Z</time></trkpt><trkpt lat="45.55100338474988" lon="11.18530500689857"><ele>674.4</ele><time>2026-03-28T11:59:59.999Z</time></trkpt><trkpt lat="45.55099157010893" lon="11.185159689898677"><ele>672.6</ele><time>2026-03-28T12:00:00.999Z</time></trkpt><trkpt lat="45.55100258491296" lon="11.18500946951402"><ele>670.8000000000001</ele><time>2026-03-28T12:00:01.999Z</time></trkpt><trkpt lat="45.5510275802487" lon="11.18486155808857"><ele>669.0</ele><time>2026-03-28T12:00:02.999Z</time></trkpt><trkpt lat="45.55108731839408" lon="11.184737888588055"><ele>671.6</ele><time>2026-03-28T12:00:03.999Z</time></trkpt><trkpt lat="45.55113249889029" lon="11.184607252571944"><ele>674.2</ele><time>2026-03-28T12:00:04.999Z</time></trkpt><trkpt lat="45.55121795146503" lon="11.18453066365384"><ele>676.8000000000001</ele><time>2026-03-28T12:00:05.999Z</time></trkpt><trkpt lat="45.55130152709088" lon="11.184443850012041"><ele>679.4000000000001</ele><time>2026-03-28T12:00:06.999Z</time></trkpt><trkpt lat="45.551401092028804" lon="11.184341242233483"><ele>682.0</ele><time>2026-03-28T12:00:07.999Z</time></trkpt><trkpt lat="45.55149859534282" lon="11.184238476637733"><ele>682.0</ele><time>2026-03-28T12:00:08.999Z</time></trkpt><trkpt lat="45.55158115469099" lon="11.184131783387484"><ele>682.0</ele><time>2026-03-28T12:00:09.999Z</time></trkpt><trkpt lat="45.55165905125441" lon="11.184015920897618"><ele>682.0</ele><time>2026-03-28T12:00:10.999Z</time></trkpt><trkpt lat="45.55172023073089" lon="11.183892648155542"><ele>682.0</ele><time>2026-03-28T12:00:11.999Z</time></trkpt><trkpt lat="45.551774834010736" lon="11.183754993321873"><ele>682.0</ele><time>2026-03-28T12:00:12.999Z</time></trkpt><trkpt lat="45.551827726385994" lon="11.183626415690801"><ele>679.3333333333334</ele><time>2026-03-28T12:00:13.999Z</time></trkpt><trkpt lat="45.551876461855464" lon="11.183503264598434"><ele>676.6666666666667</ele><time>2026-03-28T12:00:14.999Z</time></trkpt><trkpt lat="45.55190562521548" lon="11.18338452450627"><ele>674.0</ele><time>2026-03-28T12:00:15.999Z</time></trkpt><trkpt lat="45.55193835191714" lon="11.183301950477924"><ele>671.3333333333334</ele><time>2026-03-28T12:00:16.999Z</time></trkpt><trkpt lat="45.55194883282858" lon="11.183156597585562"><ele>668.6666666666666</ele><time>2026-03-28T12:00:18.999Z</time></trkpt><trkpt lat="45.55191971415358" lon="11.183070510612005"><ele>666.0</ele><time>2026-03-28T12:00:19.999Z</time></trkpt><trkpt lat="45.55186127639142" lon="11.182984492401165"><ele>666.0</ele><time>2026-03-28T12:00:20.999Z</time></trkpt><trkpt lat="45.551812026175945" lon="11.182907349315295"><ele>666.0</ele><time>2026-03-28T12:00:21.999Z</time></trkpt><trkpt lat="45.551762996045895" lon="11.182820048622512"><ele>666.0</ele><time>2026-03-28T12:00:22.999Z</time></trkpt><trkpt lat="45.55169625104787" lon="11.182732058777614"><ele>666.0</ele><time>2026-03-28T12:00:23.999Z</time></trkpt><trkpt lat="45.551658250922024" lon="11.182627559550722"><ele>666.0</ele><time>2026-03-28T12:00:24.999Z</time></trkpt><trkpt lat="45.551621791229834" lon="11.182526513327211"><ele>666.0</ele><time>2026-03-28T12:00:25.999Z</time></trkpt><trkpt lat="45.551623393949065" lon="11.182368935702424"><ele>671.8</ele><time>2026-03-28T12:00:26.999Z</time></trkpt><trkpt lat="45.551596802111625" lon="11.182205261924295"><ele>677.5999999999999</ele><time>2026-03-28T12:00:27.999Z</time></trkpt><trkpt lat="45.551522478003584" lon="11.182077345682526"><ele>683.4</ele><time>2026-03-28T12:00:28.999Z</time></trkpt><trkpt lat="45.55147685608524" lon="11.181950838504195"><ele>689.2</ele><time>2026-03-28T12:00:29.999Z</time></trkpt><trkpt lat="45.551418825218754" lon="11.181847440850765"><ele>695.0</ele><time>2026-03-28T12:00:30.999Z</time></trkpt><trkpt lat="45.55134890494401" lon="11.181766886789626"><ele>695.0</ele><time>2026-03-28T12:00:31.999Z</time></trkpt><trkpt lat="45.55125768989477" lon="11.181729671072052"><ele>695.0</ele><time>2026-03-28T12:00:32.999Z</time></trkpt><trkpt lat="45.55115321068276" lon="11.181752329067738"><ele>695.0</ele><time>2026-03-28T12:00:33.999Z</time></trkpt><trkpt lat="45.55104203868975" lon="11.181736504284341"><ele>695.0</ele><time>2026-03-28T12:00:34.999Z</time></trkpt><trkpt lat="45.5509231945487" lon="11.181760252533476"><ele>695.0</ele><time>2026-03-28T12:00:35.999Z</time></trkpt><trkpt lat="45.55080113298001" lon="11.18181546970006"><ele>689.0</ele><time>2026-03-28T12:00:36.999Z</time></trkpt><trkpt lat="45.55066452530139" lon="11.18189278236942"><ele>683.0</ele><time>2026-03-28T12:00:37.999Z</time></trkpt><trkpt lat="45.55050872997662" lon="11.181998058942716"><ele>677.0</ele><time>2026-03-28T12:00:38.999Z</time></trkpt><trkpt lat="45.55037473958177" lon="11.182136327371094"><ele>678.25</ele><time>2026-03-28T12:00:39.999Z</time></trkpt><trkpt lat="45.550243242639" lon="11.182242461697346"><ele>679.5</ele><time>2026-03-28T12:00:40.999Z</time></trkpt><trkpt lat="45.55011699755552" lon="11.182300588542388"><ele>680.75</ele><time>2026-03-28T12:00:41.999Z</time></trkpt><trkpt lat="45.549993779280975" lon="11.18235405258493"><ele>682.0</ele><time>2026-03-28T12:00:42.999Z</time></trkpt><trkpt lat="45.5498761362337" lon="11.18236844392502"><ele>677.25</ele><time>2026-03-28T12:00:43.999Z</time></trkpt><trkpt lat="45.54975180121151" lon="11.182380350862283"><ele>672.5</ele><time>2026-03-28T12:00:44.999Z</time></trkpt><trkpt lat="45.54961149955549" lon="11.182397731642219"><ele>667.75</ele><time>2026-03-28T12:00:45.999Z</time></trkpt><trkpt lat="45.54947142388323" lon="11.182447861338606"><ele>663.0</ele><time>2026-03-28T12:00:46.999Z</time></trkpt><trkpt lat="45.549345208308864" lon="11.182489349534894"><ele>663.0</ele><time>2026-03-28T12:00:47.999Z</time></trkpt><trkpt lat="45.54923272987845" lon="11.18256657134027"><ele>663.0</ele><time>2026-03-28T12:00:48.999Z</time></trkpt><trkpt lat="45.54913908768474" lon="11.18266726111739"><ele>663.0</ele><time>2026-03-28T12:00:49.999Z</time></trkpt><trkpt lat="45.549059313397976" lon="11.1827715753881"><ele>663.0</ele><time>2026-03-28T12:00:50.999Z</time></trkpt><trkpt lat="45.54899861961298" lon="11.182885989698425"><ele>663.0</ele><time>2026-03-28T12:00:51.999Z</time></trkpt><trkpt lat="45.54892690812032" lon="11.182986378767565"><ele>663.0</ele><time>2026-03-28T12:00:52.999Z</time></trkpt><trkpt lat="45.54881305214339" lon="11.183071926888383"><ele>663.0</ele><time>2026-03-28T12:00:54Z</time></trkpt><trkpt lat="45.54869612346296" lon="11.183178631011193"><ele>663.0</ele><time>2026-03-28T12:00:55Z</time></trkpt><trkpt lat="45.54858724957937" lon="11.183288518337825"><ele>660.5</ele><time>2026-03-28T12:00:56Z</time></trkpt><trkpt lat="45.54848419216885" lon="11.183399883515602"><ele>658.0</ele><time>2026-03-28T12:00:57Z</time></trkpt><trkpt lat="45.54838219239255" lon="11.18347392855018"><ele>655.5</ele><time>2026-03-28T12:00:58Z</time></trkpt><trkpt lat="45.54827469583019" lon="11.18353762615162"><ele>653.0</ele><time>2026-03-28T12:00:59Z</time></trkpt><trkpt lat="45.54816427327917" lon="11.183600942011667"><ele>653.0</ele><time>2026-03-28T12:01:00Z</time></trkpt><trkpt lat="45.54805499467912" lon="11.18367654151558"><ele>653.0</ele><time>2026-03-28T12:01:01Z</time></trkpt><trkpt lat="45.54796846017672" lon="11.183789952345471"><ele>653.0</ele><time>2026-03-28T12:01:02Z</time></trkpt><trkpt lat="45.547888683505676" lon="11.183911945836703"><ele>653.0</ele><time>2026-03-28T12:01:03Z</time></trkpt><trkpt lat="45.54782800831594" lon="11.184032309295818"><ele>650.25</ele><time>2026-03-28T12:01:04Z</time></trkpt><trkpt lat="45.54773137285346" lon="11.184139071225234"><ele>647.5</ele><time>2026-03-28T12:01:05Z</time></trkpt><trkpt lat="45.54764033263799" lon="11.184260917753175"><ele>644.75</ele><time>2026-03-28T12:01:06Z</time></trkpt><trkpt lat="45.54754555202217" lon="11.184354724759357"><ele>642.0</ele><time>2026-03-28T12:01:07Z</time></trkpt><trkpt lat="45.547442036796284" lon="11.184406478312129"><ele>642.0</ele><time>2026-03-28T12:01:08Z</time></trkpt><trkpt lat="45.54730963202162" lon="11.184451441135412"><ele>642.0</ele><time>2026-03-28T12:01:09Z</time></trkpt><trkpt lat="45.54715012212272" lon="11.184515635491586"><ele>642.0</ele><time>2026-03-28T12:01:10Z</time></trkpt><trkpt lat="45.54702085784481" lon="11.18460032667728"><ele>642.0</ele><time>2026-03-28T12:01:11Z</time></trkpt><trkpt lat="45.54689863418709" lon="11.184643669170493"><ele>643.6</ele><time>2026-03-28T12:01:12Z</time></trkpt><trkpt lat="45.54679176603496" lon="11.184693282960247"><ele>645.2</ele><time>2026-03-28T12:01:13Z</time></trkpt><trkpt lat="45.54669156332193" lon="11.184722418987816"><ele>646.8</ele><time>2026-03-28T12:01:14Z</time></trkpt><trkpt lat="45.54658198797313" lon="11.18472761289452"><ele>648.4</ele><time>2026-03-28T12:01:15Z</time></trkpt><trkpt lat="45.546461017559835" lon="11.184717247825498"><ele>650.0</ele><time>2026-03-28T12:01:16Z</time></trkpt><trkpt lat="45.54632773777118" lon="11.184723711503665"><ele>653.3333333333333</ele><time>2026-03-28T12:01:17Z</time></trkpt><trkpt lat="45.54617996265143" lon="11.184775609265381"><ele>656.6666666666666</ele><time>2026-03-28T12:01:18Z</time></trkpt><trkpt lat="45.546034266525524" lon="11.18483930957978"><ele>660.0</ele><time>2026-03-28T12:01:19Z</time></trkpt><trkpt lat="45.545880895407684" lon="11.184906420479273"><ele>648.6666666666666</ele><time>2026-03-28T12:01:20Z</time></trkpt><trkpt lat="45.545719836870276" lon="11.184972476316972"><ele>637.3333333333333</ele><time>2026-03-28T12:01:21Z</time></trkpt><trkpt lat="45.54556694339288" lon="11.185018735323716"><ele>626.0</ele><time>2026-03-28T12:01:22Z</time></trkpt><trkpt lat="45.545432358655304" lon="11.185052103410795"><ele>626.0</ele><time>2026-03-28T12:01:23Z</time></trkpt><trkpt lat="45.5453175469866" lon="11.185066440499435"><ele>626.0</ele><time>2026-03-28T12:01:24Z</time></trkpt><trkpt lat="45.54521239646542" lon="11.185058119952014"><ele>626.0</ele><time>2026-03-28T12:01:25Z</time></trkpt><trkpt lat="45.545103238203374" lon="11.185021417287139"><ele>626.0</ele><time>2026-03-28T12:01:26Z</time></trkpt><trkpt lat="45.544978374390176" lon="11.184971308910798"><ele>626.0</ele><time>2026-03-28T12:01:27Z</time></trkpt><trkpt lat="45.54484184642306" lon="11.184903096909798"><ele>626.0</ele><time>2026-03-28T12:01:28Z</time></trkpt><trkpt lat="45.54469894680524" lon="11.184838960165669"><ele>626.0</ele><time>2026-03-28T12:01:29Z</time></trkpt><trkpt lat="45.544559384940236" lon="11.184799918843126"><ele>626.0</ele><time>2026-03-28T12:01:30Z</time></trkpt><trkpt lat="45.544425964598794" lon="11.184773509215022"><ele>627.75</ele><time>2026-03-28T12:01:31Z</time></trkpt><trkpt lat="45.5443106800046" lon="11.184720840323164"><ele>629.5</ele><time>2026-03-28T12:01:32Z</time></trkpt><trkpt lat="45.54419664091917" lon="11.184629818214551"><ele>631.25</ele><time>2026-03-28T12:01:33Z</time></trkpt><trkpt lat="45.54407541941112" lon="11.184523170732197"><ele>633.0</ele><time>2026-03-28T12:01:34Z</time></trkpt><trkpt lat="45.54395460767031" lon="11.18440848603344"><ele>633.0</ele><time>2026-03-28T12:01:35Z</time></trkpt><trkpt lat="45.54383520296224" lon="11.184298084471274"><ele>633.0</ele><time>2026-03-28T12:01:36Z</time></trkpt><trkpt lat="45.54371359602873" lon="11.184209518410405"><ele>633.0</ele><time>2026-03-28T12:01:37Z</time></trkpt><trkpt lat="45.54358929183461" lon="11.184158633272634"><ele>633.0</ele><time>2026-03-28T12:01:38Z</time></trkpt><trkpt lat="45.54346916951784" lon="11.18412085779794"><ele>628.25</ele><time>2026-03-28T12:01:39Z</time></trkpt><trkpt lat="45.54333779251787" lon="11.184104139327992"><ele>623.5</ele><time>2026-03-28T12:01:40Z</time></trkpt><trkpt lat="45.54320523896005" lon="11.184096155701528"><ele>618.75</ele><time>2026-03-28T12:01:41Z</time></trkpt><trkpt lat="45.54308572822488" lon="11.184088224172623"><ele>614.0</ele><time>2026-03-28T12:01:42Z</time></trkpt><trkpt lat="45.54295512465859" lon="11.18407403109745"><ele>612.5</ele><time>2026-03-28T12:01:43Z</time></trkpt><trkpt lat="45.54281833337464" lon="11.184081581735402"><ele>611.0</ele><time>2026-03-28T12:01:44Z</time></trkpt><trkpt lat="45.542674315905344" lon="11.18411134958031"><ele>609.5</ele><time>2026-03-28T12:01:45Z</time></trkpt><trkpt lat="45.542520252856235" lon="11.184126456655866"><ele>608.0</ele><time>2026-03-28T12:01:46Z</time></trkpt><trkpt lat="45.542353607997114" lon="11.184144815342794"><ele>608.0</ele><time>2026-03-28T12:01:47Z</time></trkpt><trkpt lat="45.542176986139694" lon="11.1841559906654"><ele>608.0</ele><time>2026-03-28T12:01:48Z</time></trkpt><trkpt lat="45.54199755392535" lon="11.18412317728368"><ele>608.0</ele><time>2026-03-28T12:01:49Z</time></trkpt><trkpt lat="45.54183208445781" lon="11.184099652310053"><ele>606.0</ele><time>2026-03-28T12:01:50Z</time></trkpt><trkpt lat="45.54167888606572" lon="11.184090715545533"><ele>604.0</ele><time>2026-03-28T12:01:51Z</time></trkpt><trkpt lat="45.541523839958806" lon="11.184050637499213"><ele>602.0</ele><time>2026-03-28T12:01:52Z</time></trkpt><trkpt lat="45.54137618513495" lon="11.183941757748249"><ele>608.0</ele><time>2026-03-28T12:01:53Z</time></trkpt><trkpt lat="45.54121216930159" lon="11.183844895311221"><ele>614.0</ele><time>2026-03-28T12:01:54Z</time></trkpt><trkpt lat="45.54105103186122" lon="11.183772661127355"><ele>620.0</ele><time>2026-03-28T12:01:55Z</time></trkpt><trkpt lat="45.54088268949326" lon="11.183693418661807"><ele>620.0</ele><time>2026-03-28T12:01:56Z</time></trkpt><trkpt lat="45.540713730561954" lon="11.183638091364369"><ele>620.0</ele><time>2026-03-28T12:01:57Z</time></trkpt><trkpt lat="45.54056202306914" lon="11.18360468247964"><ele>620.0</ele><time>2026-03-28T12:01:58Z</time></trkpt><trkpt lat="45.54042165278343" lon="11.183584146269956"><ele>617.5</ele><time>2026-03-28T12:01:59Z</time></trkpt><trkpt lat="45.54029161827663" lon="11.183535884972734"><ele>615.0</ele><time>2026-03-28T12:02:00Z</time></trkpt><trkpt lat="45.54015944658163" lon="11.183475428043664"><ele>612.5</ele><time>2026-03-28T12:02:01Z</time></trkpt><trkpt lat="45.54001264890769" lon="11.18342619841812"><ele>610.0</ele><time>2026-03-28T12:02:01.999Z</time></trkpt><trkpt lat="45.539880465684355" lon="11.18336326104129"><ele>610.0</ele><time>2026-03-28T12:02:02.999Z</time></trkpt><trkpt lat="45.53976425938033" lon="11.18332488719585"><ele>610.0</ele><time>2026-03-28T12:02:03.999Z</time></trkpt><trkpt lat="45.539665757251704" lon="11.183252781229527"><ele>610.0</ele><time>2026-03-28T12:02:04.999Z</time></trkpt><trkpt lat="45.5395745860045" lon="11.18318811594735"><ele>610.0</ele><time>2026-03-28T12:02:05.999Z</time></trkpt><trkpt lat="45.53949462538575" lon="11.183110300406694"><ele>610.0</ele><time>2026-03-28T12:02:06.999Z</time></trkpt><trkpt lat="45.539429864667405" lon="11.183010836340038"><ele>610.25</ele><time>2026-03-28T12:02:07.999Z</time></trkpt><trkpt lat="45.53938472266294" lon="11.182881504923321"><ele>610.5</ele><time>2026-03-28T12:02:08.999Z</time></trkpt><trkpt lat="45.53931037698831" lon="11.182704011363427"><ele>610.75</ele><time>2026-03-28T12:02:09.999Z</time></trkpt><trkpt lat="45.53925915942836" lon="11.182472676653974"><ele>611.0</ele><time>2026-03-28T12:02:10.999Z</time></trkpt><trkpt lat="45.539179513790536" lon="11.182255694245736"><ele>611.0</ele><time>2026-03-28T12:02:11.999Z</time></trkpt><trkpt lat="45.539118090682166" lon="11.182043220132819"><ele>611.0</ele><time>2026-03-28T12:02:12.999Z</time></trkpt><trkpt lat="45.53905541114341" lon="11.181876094205595"><ele>611.0</ele><time>2026-03-28T12:02:13.999Z</time></trkpt><trkpt lat="45.538993696131314" lon="11.181737250234528"><ele>611.0</ele><time>2026-03-28T12:02:14.999Z</time></trkpt><trkpt lat="45.53892163845343" lon="11.181610770727067"><ele>611.75</ele><time>2026-03-28T12:02:15.999Z</time></trkpt><trkpt lat="45.53883961502037" lon="11.18149777242143"><ele>612.5</ele><time>2026-03-28T12:02:16.999Z</time></trkpt><trkpt lat="45.538741276273285" lon="11.181401620013359"><ele>613.25</ele><time>2026-03-28T12:02:17.999Z</time></trkpt><trkpt lat="45.53863651348999" lon="11.181302940377774"><ele>614.0</ele><time>2026-03-28T12:02:18.999Z</time></trkpt><trkpt lat="45.53853767394514" lon="11.181203215982697"><ele>609.4</ele><time>2026-03-28T12:02:19.999Z</time></trkpt><trkpt lat="45.53844123509264" lon="11.181111813223476"><ele>604.8</ele><time>2026-03-28T12:02:20.999Z</time></trkpt><trkpt lat="45.538344265447655" lon="11.181030245480716"><ele>600.2</ele><time>2026-03-28T12:02:21.999Z</time></trkpt><trkpt lat="45.53824570432723" lon="11.180953927369028"><ele>595.6</ele><time>2026-03-28T12:02:22.999Z</time></trkpt><trkpt lat="45.53815475562903" lon="11.180883765385667"><ele>591.0</ele><time>2026-03-28T12:02:23.999Z</time></trkpt><trkpt lat="45.53806897890994" lon="11.18082043596263"><ele>591.0</ele><time>2026-03-28T12:02:24.999Z</time></trkpt><trkpt lat="45.537983366709625" lon="11.180744159185057"><ele>591.0</ele><time>2026-03-28T12:02:25.999Z</time></trkpt><trkpt lat="45.53788718275259" lon="11.180707191771468"><ele>591.0</ele><time>2026-03-28T12:02:26.999Z</time></trkpt><trkpt lat="45.53778382638283" lon="11.180695593947034"><ele>591.0</ele><time>2026-03-28T12:02:27.999Z</time></trkpt><trkpt lat="45.537673153960185" lon="11.180709004232687"><ele>591.0</ele><time>2026-03-28T12:02:28.999Z</time></trkpt><trkpt lat="45.53757116694367" lon="11.180730939112054"><ele>588.8</ele><time>2026-03-28T12:02:29.999Z</time></trkpt><trkpt lat="45.53747853457736" lon="11.180746196437765"><ele>586.6</ele><time>2026-03-28T12:02:30.999Z</time></trkpt><trkpt lat="45.53736969765698" lon="11.180762826036295"><ele>584.4</ele><time>2026-03-28T12:02:31.999Z</time></trkpt><trkpt lat="45.537267634873125" lon="11.180778420587647"><ele>582.2</ele><time>2026-03-28T12:02:32.999Z</time></trkpt><trkpt lat="45.537167618145645" lon="11.180799211117138"><ele>580.0</ele><time>2026-03-28T12:02:33.999Z</time></trkpt><trkpt lat="45.53705895087231" lon="11.18082352198576"><ele>578.6</ele><time>2026-03-28T12:02:34.999Z</time></trkpt><trkpt lat="45.53695254570775" lon="11.180840272060582"><ele>577.2</ele><time>2026-03-28T12:02:35.999Z</time></trkpt><trkpt lat="45.53685049262771" lon="11.180850790256214"><ele>575.8</ele><time>2026-03-28T12:02:36.999Z</time></trkpt><trkpt lat="45.53674479304815" lon="11.180873004889898"><ele>574.4</ele><time>2026-03-28T12:02:37.999Z</time></trkpt><trkpt lat="45.536632513036906" lon="11.180840741992903"><ele>573.0</ele><time>2026-03-28T12:02:38.999Z</time></trkpt><trkpt lat="45.53652523709862" lon="11.180840022012841"><ele>573.0</ele><time>2026-03-28T12:02:39.999Z</time></trkpt><trkpt lat="45.5364240362615" lon="11.180813659317975"><ele>573.0</ele><time>2026-03-28T12:02:40.999Z</time></trkpt><trkpt lat="45.53630632914235" lon="11.180793940884152"><ele>573.0</ele><time>2026-03-28T12:02:41.999Z</time></trkpt><trkpt lat="45.53618408357387" lon="11.180797579200721"><ele>573.0</ele><time>2026-03-28T12:02:42.999Z</time></trkpt><trkpt lat="45.53606355080729" lon="11.180815075992355"><ele>572.5</ele><time>2026-03-28T12:02:43.999Z</time></trkpt><trkpt lat="45.53593520344241" lon="11.180828349802052"><ele>572.0</ele><time>2026-03-28T12:02:44.999Z</time></trkpt><trkpt lat="45.53579866140992" lon="11.180865789371396"><ele>571.5</ele><time>2026-03-28T12:02:45.999Z</time></trkpt><trkpt lat="45.53565327227196" lon="11.180918753101889"><ele>571.0</ele><time>2026-03-28T12:02:46.999Z</time></trkpt><trkpt lat="45.535506082380856" lon="11.18098241273838"><ele>567.75</ele><time>2026-03-28T12:02:47.999Z</time></trkpt><trkpt lat="45.53535818622957" lon="11.181053989949136"><ele>564.5</ele><time>2026-03-28T12:02:48.999Z</time></trkpt><trkpt lat="45.53522152313349" lon="11.181124598140888"><ele>561.25</ele><time>2026-03-28T12:02:49.999Z</time></trkpt><trkpt lat="45.535080390570286" lon="11.181183111370371"><ele>558.0</ele><time>2026-03-28T12:02:50.999Z</time></trkpt><trkpt lat="45.53494799190696" lon="11.181225445343049"><ele>558.0</ele><time>2026-03-28T12:02:51.999Z</time></trkpt><trkpt lat="45.534822713517784" lon="11.18125156222159"><ele>558.0</ele><time>2026-03-28T12:02:52.999Z</time></trkpt><trkpt lat="45.53470200108144" lon="11.18123544859379"><ele>558.0</ele><time>2026-03-28T12:02:53.999Z</time></trkpt><trkpt lat="45.53458487212268" lon="11.18122228843953"><ele>558.0</ele><time>2026-03-28T12:02:54.999Z</time></trkpt><trkpt lat="45.534464873777814" lon="11.181227269351856"><ele>557.6</ele><time>2026-03-28T12:02:55.999Z</time></trkpt><trkpt lat="45.534358503879155" lon="11.18120257041424"><ele>557.1999999999999</ele><time>2026-03-28T12:02:56.999Z</time></trkpt><trkpt lat="45.534253844205985" lon="11.18119135727259"><ele>556.8</ele><time>2026-03-28T12:02:57.999Z</time></trkpt><trkpt lat="45.53416180126062" lon="11.181178969379543"><ele>556.4</ele><time>2026-03-28T12:02:58.999Z</time></trkpt><trkpt lat="45.53406691934275" lon="11.181188379676843"><ele>556.0</ele><time>2026-03-28T12:03:00Z</time></trkpt><trkpt lat="45.53397079348409" lon="11.181212717589748"><ele>556.0</ele><time>2026-03-28T12:03:01Z</time></trkpt><trkpt lat="45.53387769124063" lon="11.18124762229221"><ele>556.0</ele><time>2026-03-28T12:03:02Z</time></trkpt><trkpt lat="45.53377078821828" lon="11.18130809804977"><ele>556.0</ele><time>2026-03-28T12:03:03Z</time></trkpt><trkpt lat="45.53364931418875" lon="11.181400607820345"><ele>556.0</ele><time>2026-03-28T12:03:04Z</time></trkpt><trkpt lat="45.53350963001355" lon="11.181525682671321"><ele>556.6666666666667</ele><time>2026-03-28T12:03:05Z</time></trkpt><trkpt lat="45.53334948368691" lon="11.181628403467231"><ele>557.3333333333334</ele><time>2026-03-28T12:03:06Z</time></trkpt><trkpt lat="45.53318771450221" lon="11.18177402111899"><ele>558.0</ele><time>2026-03-28T12:03:07Z</time></trkpt><trkpt lat="45.533042085688386" lon="11.181872798862095"><ele>558.0</ele><time>2026-03-28T12:03:08Z</time></trkpt><trkpt lat="45.53289838607269" lon="11.181955227149269"><ele>558.0</ele><time>2026-03-28T12:03:09Z</time></trkpt><trkpt lat="45.532758848777185" lon="11.182022350207745"><ele>558.0</ele><time>2026-03-28T12:03:10Z</time></trkpt><trkpt lat="45.532626745443" lon="11.182108421112746"><ele>558.0</ele><time>2026-03-28T12:03:11Z</time></trkpt><trkpt lat="45.53250041481924" lon="11.18221902192863"><ele>554.75</ele><time>2026-03-28T12:03:12Z</time></trkpt><trkpt lat="45.53237927314873" lon="11.182356939150548"><ele>551.5</ele><time>2026-03-28T12:03:13Z</time></trkpt><trkpt lat="45.53226146171403" lon="11.182476394972165"><ele>548.25</ele><time>2026-03-28T12:03:14Z</time></trkpt><trkpt lat="45.53214871017232" lon="11.18256228930453"><ele>545.0</ele><time>2026-03-28T12:03:15Z</time></trkpt><trkpt lat="45.532039736757476" lon="11.182635673617384"><ele>544.8</ele><time>2026-03-28T12:03:16Z</time></trkpt><trkpt lat="45.53193465132296" lon="11.18265984763041"><ele>544.6</ele><time>2026-03-28T12:03:17Z</time></trkpt><trkpt lat="45.53184449022908" lon="11.182690696420822"><ele>544.4</ele><time>2026-03-28T12:03:18Z</time></trkpt><trkpt lat="45.53175699097177" lon="11.182736140837115"><ele>544.2</ele><time>2026-03-28T12:03:19Z</time></trkpt><trkpt lat="45.53166834321439" lon="11.182745978080215"><ele>544.0</ele><time>2026-03-28T12:03:20Z</time></trkpt><trkpt lat="45.531566067787715" lon="11.182726859320601"><ele>544.0</ele><time>2026-03-28T12:03:21Z</time></trkpt><trkpt lat="45.5314498937388" lon="11.182716015832481"><ele>544.0</ele><time>2026-03-28T12:03:22Z</time></trkpt><trkpt lat="45.531319883774316" lon="11.182685708523081"><ele>544.0</ele><time>2026-03-28T12:03:23Z</time></trkpt><trkpt lat="45.53119595717224" lon="11.182616723064031"><ele>544.0</ele><time>2026-03-28T12:03:24Z</time></trkpt><trkpt lat="45.53107553779259" lon="11.182549431113118"><ele>544.25</ele><time>2026-03-28T12:03:25Z</time></trkpt><trkpt lat="45.53096427370348" lon="11.182450014590003"><ele>544.5</ele><time>2026-03-28T12:03:26Z</time></trkpt><trkpt lat="45.53083712041206" lon="11.182336248999663"><ele>544.75</ele><time>2026-03-28T12:03:27Z</time></trkpt><trkpt lat="45.53069046578459" lon="11.182226332186113"><ele>545.0</ele><time>2026-03-28T12:03:28Z</time></trkpt><trkpt lat="45.530536658277896" lon="11.18207393429198"><ele>544.6666666666666</ele><time>2026-03-28T12:03:29Z</time></trkpt><trkpt lat="45.53038351556071" lon="11.181914308877664"><ele>544.3333333333334</ele><time>2026-03-28T12:03:30Z</time></trkpt><trkpt lat="45.530232847357325" lon="11.181733577521175"><ele>544.0</ele><time>2026-03-28T12:03:31Z</time></trkpt><trkpt lat="45.53008741608282" lon="11.181555796391539"><ele>537.0</ele><time>2026-03-28T12:03:32Z</time></trkpt><trkpt lat="45.52994008897676" lon="11.18139965648855"><ele>530.0</ele><time>2026-03-28T12:03:33Z</time></trkpt><trkpt lat="45.52981508662648" lon="11.181233465513332"><ele>523.0</ele><time>2026-03-28T12:03:34Z</time></trkpt><trkpt lat="45.52970069322022" lon="11.181100084361857"><ele>523.0</ele><time>2026-03-28T12:03:35Z</time></trkpt><trkpt lat="45.529588223121536" lon="11.180997568409147"><ele>523.0</ele><time>2026-03-28T12:03:36Z</time></trkpt><trkpt lat="45.52946617721846" lon="11.18092050766354"><ele>523.0</ele><time>2026-03-28T12:03:37Z</time></trkpt><trkpt lat="45.52933465718093" lon="11.180886048568595"><ele>523.0</ele><time>2026-03-28T12:03:38Z</time></trkpt><trkpt lat="45.529204148524336" lon="11.180866247737969"><ele>521.25</ele><time>2026-03-28T12:03:39Z</time></trkpt><trkpt lat="45.529077505946134" lon="11.18083266323626"><ele>519.5</ele><time>2026-03-28T12:03:40Z</time></trkpt><trkpt lat="45.528951406671744" lon="11.180757531358918"><ele>517.75</ele><time>2026-03-28T12:03:41Z</time></trkpt><trkpt lat="45.52886544609786" lon="11.180594708346788"><ele>516.0</ele><time>2026-03-28T12:03:42Z</time></trkpt><trkpt lat="45.528774780601005" lon="11.180433739011642"><ele>518.75</ele><time>2026-03-28T12:03:43Z</time></trkpt><trkpt lat="45.52869070789435" lon="11.180251437533153"><ele>521.5</ele><time>2026-03-28T12:03:44Z</time></trkpt><trkpt lat="45.5286016561084" lon="11.180088565428623"><ele>524.25</ele><time>2026-03-28T12:03:45Z</time></trkpt><trkpt lat="45.52852321737255" lon="11.179958328604942"><ele>527.0</ele><time>2026-03-28T12:03:46Z</time></trkpt><trkpt lat="45.52843344725023" lon="11.17987552349081"><ele>521.5</ele><time>2026-03-28T12:03:47Z</time></trkpt><trkpt lat="45.528334990970194" lon="11.17979960121254"><ele>516.0</ele><time>2026-03-28T12:03:48Z</time></trkpt><trkpt lat="45.52820870367487" lon="11.179800796465173"><ele>510.5</ele><time>2026-03-28T12:03:49Z</time></trkpt><trkpt lat="45.52806798833241" lon="11.179805151922091"><ele>505.0</ele><time>2026-03-28T12:03:50Z</time></trkpt><trkpt lat="45.527914158608745" lon="11.179820245156211"><ele>507.25</ele><time>2026-03-28T12:03:51Z</time></trkpt><trkpt lat="45.52777444059215" lon="11.179824162090547"><ele>509.5</ele><time>2026-03-28T12:03:52Z</time></trkpt><trkpt lat="45.52765974355053" lon="11.17982898132828"><ele>511.75</ele><time>2026-03-28T12:03:53Z</time></trkpt><trkpt lat="45.52755313650333" lon="11.17981650991007"><ele>514.0</ele><time>2026-03-28T12:03:54Z</time></trkpt><trkpt lat="45.527456599236984" lon="11.179770780829164"><ele>514.0</ele><time>2026-03-28T12:03:55Z</time></trkpt><trkpt lat="45.52738534868336" lon="11.179659987904301"><ele>514.0</ele><time>2026-03-28T12:03:56Z</time></trkpt><trkpt lat="45.527293893333145" lon="11.179540016953329"><ele>514.0</ele><time>2026-03-28T12:03:57Z</time></trkpt><trkpt lat="45.52727513546775" lon="11.179359102850135"><ele>514.0</ele><time>2026-03-28T12:03:58Z</time></trkpt><trkpt lat="45.52725997443804" lon="11.179185131891948"><ele>510.0</ele><time>2026-03-28T12:03:59Z</time></trkpt><trkpt lat="45.52723727354612" lon="11.1789783981917"><ele>506.0</ele><time>2026-03-28T12:04:00Z</time></trkpt><trkpt lat="45.527231044543974" lon="11.178759729054237"><ele>502.0</ele><time>2026-03-28T12:04:01Z</time></trkpt><trkpt lat="45.52720870679806" lon="11.178526184024104"><ele>502.0</ele><time>2026-03-28T12:04:02Z</time></trkpt><trkpt lat="45.527166856591016" lon="11.17829466205546"><ele>502.0</ele><time>2026-03-28T12:04:03Z</time></trkpt><trkpt lat="45.527121504423995" lon="11.178047781374127"><ele>502.0</ele><time>2026-03-28T12:04:04Z</time></trkpt><trkpt lat="45.527103313191304" lon="11.17778203043572"><ele>499.0</ele><time>2026-03-28T12:04:05Z</time></trkpt><trkpt lat="45.52709230090188" lon="11.177493992379137"><ele>496.0</ele><time>2026-03-28T12:04:06Z</time></trkpt><trkpt lat="45.527072084625075" lon="11.177216146969656"><ele>493.0</ele><time>2026-03-28T12:04:07Z</time></trkpt><trkpt lat="45.52707015787021" lon="11.176963810814861"><ele>492.0</ele><time>2026-03-28T12:04:08Z</time></trkpt><trkpt lat="45.52706715984844" lon="11.176745156710957"><ele>491.0</ele><time>2026-03-28T12:04:09Z</time></trkpt><trkpt lat="45.52705495441424" lon="11.17653579495395"><ele>490.0</ele><time>2026-03-28T12:04:10Z</time></trkpt><trkpt lat="45.52702259395627" lon="11.176363032948462"><ele>489.0</ele><time>2026-03-28T12:04:11Z</time></trkpt><trkpt lat="45.52695798659445" lon="11.17619565485971"><ele>490.5</ele><time>2026-03-28T12:04:12Z</time></trkpt><trkpt lat="45.526870325720935" lon="11.17604263967122"><ele>492.0</ele><time>2026-03-28T12:04:13Z</time></trkpt><trkpt lat="45.5267690679116" lon="11.175906289960942"><ele>493.5</ele><time>2026-03-28T12:04:14Z</time></trkpt><trkpt lat="45.52668614040559" lon="11.175759192008341"><ele>495.0</ele><time>2026-03-28T12:04:15Z</time></trkpt><trkpt lat="45.52660003044783" lon="11.175620775566806"><ele>495.0</ele><time>2026-03-28T12:04:16Z</time></trkpt><trkpt lat="45.52655072376812" lon="11.175459188717817"><ele>495.0</ele><time>2026-03-28T12:04:16.999Z</time></trkpt><trkpt lat="45.52652083600376" lon="11.175268837329224"><ele>495.0</ele><time>2026-03-28T12:04:17.999Z</time></trkpt><trkpt lat="45.526525368103016" lon="11.175071923703804"><ele>495.0</ele><time>2026-03-28T12:04:18.999Z</time></trkpt><trkpt lat="45.52653951230314" lon="11.174871482513051"><ele>492.75</ele><time>2026-03-28T12:04:19.999Z</time></trkpt><trkpt lat="45.52654132049102" lon="11.17468424630656"><ele>490.5</ele><time>2026-03-28T12:04:20.999Z</time></trkpt><trkpt lat="45.526536072221525" lon="11.17450896666835"><ele>488.25</ele><time>2026-03-28T12:04:21.999Z</time></trkpt><trkpt lat="45.526505800238894" lon="11.174342966837518"><ele>486.0</ele><time>2026-03-28T12:04:22.999Z</time></trkpt><trkpt lat="45.52645793618951" lon="11.174187111510603"><ele>486.0</ele><time>2026-03-28T12:04:23.999Z</time></trkpt><trkpt lat="45.5263769019366" lon="11.174057685719655"><ele>486.0</ele><time>2026-03-28T12:04:24.999Z</time></trkpt><trkpt lat="45.5262645180751" lon="11.173939857481418"><ele>486.0</ele><time>2026-03-28T12:04:25.999Z</time></trkpt><trkpt lat="45.52610707326712" lon="11.173801171768105"><ele>486.0</ele><time>2026-03-28T12:04:26.999Z</time></trkpt><trkpt lat="45.52594566402586" lon="11.173649475795532"><ele>484.66666666666663</ele><time>2026-03-28T12:04:27.999Z</time></trkpt><trkpt lat="45.52582388271935" lon="11.173509479952484"><ele>483.3333333333333</ele><time>2026-03-28T12:04:28.999Z</time></trkpt><trkpt lat="45.52572926778796" lon="11.17335634157156"><ele>482.0</ele><time>2026-03-28T12:04:29.999Z</time></trkpt><trkpt lat="45.52566424754359" lon="11.173161445311397"><ele>476.0</ele><time>2026-03-28T12:04:30.999Z</time></trkpt><trkpt lat="45.52560819140542" lon="11.172965182797663"><ele>470.0</ele><time>2026-03-28T12:04:31.999Z</time></trkpt><trkpt lat="45.52555210592658" lon="11.172758528162253"><ele>464.0</ele><time>2026-03-28T12:04:32.999Z</time></trkpt><trkpt lat="45.52550516453419" lon="11.172553089949428"><ele>461.75</ele><time>2026-03-28T12:04:33.999Z</time></trkpt><trkpt lat="45.52545632460747" lon="11.172352694368211"><ele>459.5</ele><time>2026-03-28T12:04:34.999Z</time></trkpt><trkpt lat="45.525409045337526" lon="11.17215866570613"><ele>457.25</ele><time>2026-03-28T12:04:35.999Z</time></trkpt><trkpt lat="45.52538626082483" lon="11.17197197108403"><ele>455.0</ele><time>2026-03-28T12:04:36.999Z</time></trkpt><trkpt lat="45.525359753984006" lon="11.171785194148146"><ele>455.2</ele><time>2026-03-28T12:04:37.999Z</time></trkpt><trkpt lat="45.52532862667064" lon="11.171606143667995"><ele>455.4</ele><time>2026-03-28T12:04:38.999Z</time></trkpt><trkpt lat="45.5253120523251" lon="11.171441645358803"><ele>455.6</ele><time>2026-03-28T12:04:39.999Z</time></trkpt><trkpt lat="45.5253056715173" lon="11.171295914839146"><ele>455.8</ele><time>2026-03-28T12:04:40.999Z</time></trkpt><trkpt lat="45.525321458019015" lon="11.171160320593934"><ele>456.0</ele><time>2026-03-28T12:04:41.999Z</time></trkpt><trkpt lat="45.52539572993378" lon="11.171032910692569"><ele>455.66666666666663</ele><time>2026-03-28T12:04:42.999Z</time></trkpt><trkpt lat="45.52548597626823" lon="11.170871370608454"><ele>455.3333333333333</ele><time>2026-03-28T12:04:43.999Z</time></trkpt><trkpt lat="45.5255772599474" lon="11.170691282648411"><ele>455.0</ele><time>2026-03-28T12:04:44.999Z</time></trkpt><trkpt lat="45.52567048596849" lon="11.170508244962136"><ele>455.0</ele><time>2026-03-28T12:04:45.999Z</time></trkpt><trkpt lat="45.52576342729335" lon="11.170342349616616"><ele>455.0</ele><time>2026-03-28T12:04:46.999Z</time></trkpt><trkpt lat="45.52585092948713" lon="11.170176507747248"><ele>455.0</ele><time>2026-03-28T12:04:47.999Z</time></trkpt><trkpt lat="45.525931915106675" lon="11.170011301624273"><ele>455.0</ele><time>2026-03-28T12:04:48.999Z</time></trkpt><trkpt lat="45.526002245687984" lon="11.169825056424026"><ele>454.66666666666663</ele><time>2026-03-28T12:04:49.999Z</time></trkpt><trkpt lat="45.52606904105424" lon="11.169599603748864"><ele>454.33333333333337</ele><time>2026-03-28T12:04:50.999Z</time></trkpt><trkpt lat="45.52613641590764" lon="11.169335250495147"><ele>454.0</ele><time>2026-03-28T12:04:51.999Z</time></trkpt><trkpt lat="45.52620438342142" lon="11.169100235830722"><ele>449.33333333333337</ele><time>2026-03-28T12:04:52.999Z</time></trkpt><trkpt lat="45.52627131997512" lon="11.168891958305952"><ele>444.66666666666663</ele><time>2026-03-28T12:04:53.999Z</time></trkpt><trkpt lat="45.52633720180868" lon="11.168677947141827"><ele>440.0</ele><time>2026-03-28T12:04:54.999Z</time></trkpt><trkpt lat="45.52639891539963" lon="11.16848564322682"><ele>440.0</ele><time>2026-03-28T12:04:55.999Z</time></trkpt><trkpt lat="45.52645466354763" lon="11.168294274872482"><ele>440.0</ele><time>2026-03-28T12:04:56.999Z</time></trkpt><trkpt lat="45.52650861969136" lon="11.168120413574655"><ele>440.0</ele><time>2026-03-28T12:04:57.999Z</time></trkpt><trkpt lat="45.52654076591672" lon="11.16795936242485"><ele>440.0</ele><time>2026-03-28T12:04:58.999Z</time></trkpt><trkpt lat="45.52654960562723" lon="11.1677899437718"><ele>438.5</ele><time>2026-03-28T12:04:59.999Z</time></trkpt><trkpt lat="45.526535961298016" lon="11.16760307844135"><ele>437.0</ele><time>2026-03-28T12:05:00.999Z</time></trkpt><trkpt lat="45.526522600818716" lon="11.167382023523889"><ele>435.5</ele><time>2026-03-28T12:05:01.999Z</time></trkpt><trkpt lat="45.52649904441291" lon="11.167158762354967"><ele>434.0</ele><time>2026-03-28T12:05:02.999Z</time></trkpt><trkpt lat="45.52648453267464" lon="11.16695111210848"><ele>431.0</ele><time>2026-03-28T12:05:03.999Z</time></trkpt><trkpt lat="45.526467626760436" lon="11.166761920520182"><ele>428.0</ele><time>2026-03-28T12:05:04.999Z</time></trkpt><trkpt lat="45.52645641119108" lon="11.166602048743274"><ele>425.0</ele><time>2026-03-28T12:05:06Z</time></trkpt><trkpt lat="45.52643034590699" lon="11.166482085419782"><ele>422.0</ele><time>2026-03-28T12:05:07Z</time></trkpt><trkpt lat="45.526374406404756" lon="11.166365199185648"><ele>419.0</ele><time>2026-03-28T12:05:08Z</time></trkpt><trkpt lat="45.52628832421059" lon="11.166283006521146"><ele>418.0</ele><time>2026-03-28T12:05:09Z</time></trkpt><trkpt lat="45.52617671683515" lon="11.166198396569017"><ele>417.0</ele><time>2026-03-28T12:05:10Z</time></trkpt><trkpt lat="45.526059525840026" lon="11.166139145012751"><ele>416.0</ele><time>2026-03-28T12:05:11Z</time></trkpt><trkpt lat="45.52595368474946" lon="11.166086707141519"><ele>415.0</ele><time>2026-03-28T12:05:12Z</time></trkpt><trkpt lat="45.52585484333166" lon="11.166083565141983"><ele>415.0</ele><time>2026-03-28T12:05:13Z</time></trkpt><trkpt lat="45.52575521871593" lon="11.166114427698624"><ele>415.0</ele><time>2026-03-28T12:05:14Z</time></trkpt><trkpt lat="45.525660864878446" lon="11.166177166595293"><ele>415.0</ele><time>2026-03-28T12:05:15Z</time></trkpt><trkpt lat="45.525564313520725" lon="11.166276455584688"><ele>415.0</ele><time>2026-03-28T12:05:16Z</time></trkpt><trkpt lat="45.52545805880972" lon="11.166406688420176"><ele>412.6666666666667</ele><time>2026-03-28T12:05:17Z</time></trkpt><trkpt lat="45.52534118716624" lon="11.166559916748287"><ele>410.33333333333337</ele><time>2026-03-28T12:05:18Z</time></trkpt><trkpt lat="45.52522110563671" lon="11.166724896660039"><ele>408.0</ele><time>2026-03-28T12:05:19Z</time></trkpt><trkpt lat="45.52511831661" lon="11.166897777055215"><ele>408.0</ele><time>2026-03-28T12:05:20Z</time></trkpt><trkpt lat="45.5250279176812" lon="11.167078608547898"><ele>408.0</ele><time>2026-03-28T12:05:21Z</time></trkpt><trkpt lat="45.524934933486776" lon="11.167243429941685"><ele>408.0</ele><time>2026-03-28T12:05:22Z</time></trkpt><trkpt lat="45.524834840031055" lon="11.167393694419061"><ele>408.0</ele><time>2026-03-28T12:05:23Z</time></trkpt><trkpt lat="45.52474255867774" lon="11.167543574463869"><ele>410.5</ele><time>2026-03-28T12:05:24Z</time></trkpt><trkpt lat="45.52466866297279" lon="11.167687964706436"><ele>413.0</ele><time>2026-03-28T12:05:25Z</time></trkpt><trkpt lat="45.524622828768806" lon="11.167839967009606"><ele>415.5</ele><time>2026-03-28T12:05:26Z</time></trkpt><trkpt lat="45.524589914155214" lon="11.168007347088066"><ele>418.0</ele><time>2026-03-28T12:05:27Z</time></trkpt><trkpt lat="45.524550406922245" lon="11.168182386713744"><ele>414.4</ele><time>2026-03-28T12:05:28Z</time></trkpt><trkpt lat="45.52450308089177" lon="11.168331237507022"><ele>410.79999999999995</ele><time>2026-03-28T12:05:29Z</time></trkpt><trkpt lat="45.52444565565431" lon="11.168474092587998"><ele>407.2</ele><time>2026-03-28T12:05:30Z</time></trkpt><trkpt lat="45.52437579615421" lon="11.168598646336696"><ele>403.6</ele><time>2026-03-28T12:05:31Z</time></trkpt><trkpt lat="45.52431303714269" lon="11.168697127077525"><ele>400.0</ele><time>2026-03-28T12:05:32Z</time></trkpt><trkpt lat="45.524257038446756" lon="11.168776216641449"><ele>400.0</ele><time>2026-03-28T12:05:33Z</time></trkpt><trkpt lat="45.52420799726742" lon="11.168837787658413"><ele>400.0</ele><time>2026-03-28T12:05:34Z</time></trkpt><trkpt lat="45.52411453943949" lon="11.168905906576025"><ele>400.0</ele><time>2026-03-28T12:05:36Z</time></trkpt><trkpt lat="45.524035413226414" lon="11.168768174006049"><ele>400.0</ele><time>2026-03-28T12:05:38Z</time></trkpt><trkpt lat="45.524030558363805" lon="11.168596191492169"><ele>400.0</ele><time>2026-03-28T12:05:39Z</time></trkpt><trkpt lat="45.52405566480446" lon="11.168388166666496"><ele>397.0</ele><time>2026-03-28T12:05:40Z</time></trkpt><trkpt lat="45.524088024376695" lon="11.168163609389298"><ele>394.0</ele><time>2026-03-28T12:05:41Z</time></trkpt><trkpt lat="45.52413072394731" lon="11.167905428099022"><ele>391.0</ele><time>2026-03-28T12:05:42Z</time></trkpt><trkpt lat="45.52416916814387" lon="11.167640882848433"><ele>391.0</ele><time>2026-03-28T12:05:43Z</time></trkpt><trkpt lat="45.52423321560975" lon="11.167414016421036"><ele>391.0</ele><time>2026-03-28T12:05:44Z</time></trkpt><trkpt lat="45.52426936603795" lon="11.167171271338463"><ele>391.0</ele><time>2026-03-28T12:05:45Z</time></trkpt><trkpt lat="45.52430412582444" lon="11.166931955211583"><ele>387.6666666666667</ele><time>2026-03-28T12:05:46Z</time></trkpt><trkpt lat="45.52431478856013" lon="11.166700013944288"><ele>384.33333333333337</ele><time>2026-03-28T12:05:47Z</time></trkpt><trkpt lat="45.52431216463045" lon="11.166471032164317"><ele>381.0</ele><time>2026-03-28T12:05:48Z</time></trkpt><trkpt lat="45.524311099164144" lon="11.16624758218306"><ele>378.25</ele><time>2026-03-28T12:05:49Z</time></trkpt><trkpt lat="45.52431550351609" lon="11.166025591292186"><ele>375.5</ele><time>2026-03-28T12:05:50Z</time></trkpt><trkpt lat="45.524329421387115" lon="11.165823301252018"><ele>372.75</ele><time>2026-03-28T12:05:51Z</time></trkpt><trkpt lat="45.52436519397186" lon="11.165627899348452"><ele>370.0</ele><time>2026-03-28T12:05:52Z</time></trkpt><trkpt lat="45.52442123002376" lon="11.165445081739708"><ele>367.25</ele><time>2026-03-28T12:05:53Z</time></trkpt><trkpt lat="45.524451356292474" lon="11.165260082746972"><ele>364.5</ele><time>2026-03-28T12:05:54Z</time></trkpt><trkpt lat="45.5244929064425" lon="11.165066598650272"><ele>361.75</ele><time>2026-03-28T12:05:55Z</time></trkpt><trkpt lat="45.52454985277004" lon="11.164875149511303"><ele>359.0</ele><time>2026-03-28T12:05:56Z</time></trkpt><trkpt lat="45.52457271575614" lon="11.164665781531475"><ele>358.25</ele><time>2026-03-28T12:05:57Z</time></trkpt><trkpt lat="45.52460575820654" lon="11.164485297737055"><ele>357.5</ele><time>2026-03-28T12:05:58Z</time></trkpt><trkpt lat="45.52466718483484" lon="11.16433353586106"><ele>356.75</ele><time>2026-03-28T12:05:59Z</time></trkpt><trkpt lat="45.52470402691079" lon="11.164176146618749"><ele>356.0</ele><time>2026-03-28T12:06:00Z</time></trkpt><trkpt lat="45.52476257304954" lon="11.16403533820786"><ele>352.75</ele><time>2026-03-28T12:06:01Z</time></trkpt><trkpt lat="45.5247876519482" lon="11.163867908928337"><ele>349.5</ele><time>2026-03-28T12:06:02Z</time></trkpt><trkpt lat="45.524750850762125" lon="11.163681102183498"><ele>346.25</ele><time>2026-03-28T12:06:03Z</time></trkpt><trkpt lat="45.52470356870582" lon="11.163497799990637"><ele>343.0</ele><time>2026-03-28T12:06:04Z</time></trkpt><trkpt lat="45.524619542594486" lon="11.1633219737652"><ele>342.5</ele><time>2026-03-28T12:06:05Z</time></trkpt><trkpt lat="45.524534908923826" lon="11.163176524372657"><ele>342.0</ele><time>2026-03-28T12:06:06Z</time></trkpt><trkpt lat="45.52445391742982" lon="11.163036865814359"><ele>341.5</ele><time>2026-03-28T12:06:07Z</time></trkpt><trkpt lat="45.52437686616507" lon="11.162912162040222"><ele>341.0</ele><time>2026-03-28T12:06:08Z</time></trkpt><trkpt lat="45.52429951598381" lon="11.16281928043956"><ele>341.0</ele><time>2026-03-28T12:06:08.999Z</time></trkpt><trkpt lat="45.52423312344253" lon="11.16274609076164"><ele>341.0</ele><time>2026-03-28T12:06:09.999Z</time></trkpt><trkpt lat="45.524184204283564" lon="11.162682773296774"><ele>341.0</ele><time>2026-03-28T12:06:10.999Z</time></trkpt><trkpt lat="45.52413187246103" lon="11.16258192109784"><ele>341.0</ele><time>2026-03-28T12:06:12.999Z</time></trkpt><trkpt lat="45.52408744086178" lon="11.162491651250468"><ele>341.0</ele><time>2026-03-28T12:06:14.999Z</time></trkpt><trkpt lat="45.52398334287481" lon="11.162525254501872"><ele>341.0</ele><time>2026-03-28T12:06:15.999Z</time></trkpt><trkpt lat="45.523874078853304" lon="11.162561383231019"><ele>341.0</ele><time>2026-03-28T12:06:16.999Z</time></trkpt><trkpt lat="45.52374270211591" lon="11.162608215828788"><ele>341.0</ele><time>2026-03-28T12:06:17.999Z</time></trkpt><trkpt lat="45.523584955348525" lon="11.16266639790225"><ele>341.0</ele><time>2026-03-28T12:06:18.999Z</time></trkpt><trkpt lat="45.5234253931448" lon="11.162720418023698"><ele>340.0</ele><time>2026-03-28T12:06:19.999Z</time></trkpt><trkpt lat="45.523271683784614" lon="11.162775757160992"><ele>339.0</ele><time>2026-03-28T12:06:20.999Z</time></trkpt><trkpt lat="45.523133119700184" lon="11.162825278790391"><ele>338.0</ele><time>2026-03-28T12:06:21.999Z</time></trkpt><trkpt lat="45.52300320072563" lon="11.162858574344709"><ele>337.0</ele><time>2026-03-28T12:06:22.999Z</time></trkpt><trkpt lat="45.52288161595891" lon="11.162884596134752"><ele>337.0</ele><time>2026-03-28T12:06:23.999Z</time></trkpt><trkpt lat="45.52276731536756" lon="11.16289801470382"><ele>337.0</ele><time>2026-03-28T12:06:24.999Z</time></trkpt><trkpt lat="45.52266519084322" lon="11.162856354670655"><ele>337.0</ele><time>2026-03-28T12:06:25.999Z</time></trkpt><trkpt lat="45.52256857012673" lon="11.162822524147861"><ele>337.0</ele><time>2026-03-28T12:06:26.999Z</time></trkpt><trkpt lat="45.52248287560911" lon="11.16277948434885"><ele>337.0</ele><time>2026-03-28T12:06:27.999Z</time></trkpt><trkpt lat="45.52239687812262" lon="11.162721971317321"><ele>337.0</ele><time>2026-03-28T12:06:28.999Z</time></trkpt><trkpt lat="45.52229548302927" lon="11.162648226921515"><ele>337.0</ele><time>2026-03-28T12:06:29.999Z</time></trkpt><trkpt lat="45.522227111955836" lon="11.162553420586285"><ele>337.0</ele><time>2026-03-28T12:06:30.999Z</time></trkpt><trkpt lat="45.5221559634086" lon="11.162459772377662"><ele>337.0</ele><time>2026-03-28T12:06:31.999Z</time></trkpt><trkpt lat="45.52208729098663" lon="11.162337003223895"><ele>337.0</ele><time>2026-03-28T12:06:32.999Z</time></trkpt><trkpt lat="45.52202261930621" lon="11.162195428051426"><ele>336.0</ele><time>2026-03-28T12:06:33.999Z</time></trkpt><trkpt lat="45.52196830845106" lon="11.16204315356727"><ele>335.0</ele><time>2026-03-28T12:06:34.999Z</time></trkpt><trkpt lat="45.52191721105212" lon="11.161868555185043"><ele>334.0</ele><time>2026-03-28T12:06:35.999Z</time></trkpt><trkpt lat="45.52188382925227" lon="11.16166628313124"><ele>333.0</ele><time>2026-03-28T12:06:36.999Z</time></trkpt><trkpt lat="45.52184389127446" lon="11.161461778576742"><ele>333.0</ele><time>2026-03-28T12:06:37.999Z</time></trkpt><trkpt lat="45.52180506346792" lon="11.16125602315395"><ele>333.0</ele><time>2026-03-28T12:06:38.999Z</time></trkpt><trkpt lat="45.52177062351812" lon="11.161041095646137"><ele>333.0</ele><time>2026-03-28T12:06:39.999Z</time></trkpt><trkpt lat="45.52172930761946" lon="11.160801895776407"><ele>333.3333333333333</ele><time>2026-03-28T12:06:40.999Z</time></trkpt><trkpt lat="45.52167953390779" lon="11.160526605927112"><ele>333.66666666666663</ele><time>2026-03-28T12:06:41.999Z</time></trkpt><trkpt lat="45.52161789153855" lon="11.160186633622242"><ele>334.0</ele><time>2026-03-28T12:06:42.999Z</time></trkpt><trkpt lat="45.52155795070643" lon="11.159876736185074"><ele>333.3333333333333</ele><time>2026-03-28T12:06:43.999Z</time></trkpt><trkpt lat="45.52149626470997" lon="11.15961781717209"><ele>332.6666666666667</ele><time>2026-03-28T12:06:44.999Z</time></trkpt><trkpt lat="45.521428820686026" lon="11.159416344578304"><ele>332.0</ele><time>2026-03-28T12:06:45.999Z</time></trkpt><trkpt lat="45.52135550135976" lon="11.159246391588134"><ele>332.0</ele><time>2026-03-28T12:06:46.999Z</time></trkpt><trkpt lat="45.5212696153836" lon="11.159101294476624"><ele>332.0</ele><time>2026-03-28T12:06:47.999Z</time></trkpt><trkpt lat="45.52116698037904" lon="11.158995797986432"><ele>332.0</ele><time>2026-03-28T12:06:48.999Z</time></trkpt><trkpt lat="45.521082722722376" lon="11.158924558988007"><ele>332.0</ele><time>2026-03-28T12:06:49.999Z</time></trkpt><trkpt lat="45.52102541659556" lon="11.158803053311834"><ele>331.8</ele><time>2026-03-28T12:06:51.999Z</time></trkpt><trkpt lat="45.52105921866749" lon="11.15865275368997"><ele>331.6</ele><time>2026-03-28T12:06:53.999Z</time></trkpt><trkpt lat="45.521067109374776" lon="11.15851236988155"><ele>331.40000000000003</ele><time>2026-03-28T12:06:55.999Z</time></trkpt><trkpt lat="45.52104149209959" lon="11.158393027581853"><ele>331.20000000000005</ele><time>2026-03-28T12:06:56.999Z</time></trkpt><trkpt lat="45.52103543077904" lon="11.158246007038302"><ele>331.0</ele><time>2026-03-28T12:06:57.999Z</time></trkpt><trkpt lat="45.52101389586937" lon="11.158076245382627"><ele>331.0</ele><time>2026-03-28T12:06:58.999Z</time></trkpt><trkpt lat="45.52099605973648" lon="11.157885401003181"><ele>331.0</ele><time>2026-03-28T12:06:59.999Z</time></trkpt><trkpt lat="45.52099915793468" lon="11.157681049099219"><ele>331.0</ele><time>2026-03-28T12:07:00.999Z</time></trkpt><trkpt lat="45.52099837479275" lon="11.15745816157099"><ele>331.0</ele><time>2026-03-28T12:07:01.999Z</time></trkpt><trkpt lat="45.521016111523025" lon="11.157242582405848"><ele>332.0</ele><time>2026-03-28T12:07:02.999Z</time></trkpt><trkpt lat="45.521024174866895" lon="11.157057376368572"><ele>333.0</ele><time>2026-03-28T12:07:03.999Z</time></trkpt><trkpt lat="45.521034738304856" lon="11.156906550790387"><ele>334.0</ele><time>2026-03-28T12:07:04.999Z</time></trkpt><trkpt lat="45.52104815053044" lon="11.15673426746101"><ele>335.0</ele><time>2026-03-28T12:07:05.999Z</time></trkpt><trkpt lat="45.52106331842696" lon="11.15654751674463"><ele>335.2</ele><time>2026-03-28T12:07:06.999Z</time></trkpt><trkpt lat="45.521075742308184" lon="11.15638044833796"><ele>335.4</ele><time>2026-03-28T12:07:07.999Z</time></trkpt><trkpt lat="45.52108216259403" lon="11.156224987044615"><ele>335.6</ele><time>2026-03-28T12:07:08.999Z</time></trkpt><trkpt lat="45.52110091674498" lon="11.156075831561235"><ele>335.8</ele><time>2026-03-28T12:07:09.999Z</time></trkpt><trkpt lat="45.52112093322598" lon="11.155953377980234"><ele>336.0</ele><time>2026-03-28T12:07:10.999Z</time></trkpt><trkpt lat="45.521147812364475" lon="11.155853414746703"><ele>336.0</ele><time>2026-03-28T12:07:12Z</time></trkpt><trkpt lat="45.52118255156562" lon="11.155759420115237"><ele>336.0</ele><time>2026-03-28T12:07:13Z</time></trkpt><trkpt lat="45.521254134529784" lon="11.155711628745264"><ele>336.0</ele><time>2026-03-28T12:07:14Z</time></trkpt><trkpt lat="45.52132299953541" lon="11.155682047946389"><ele>336.0</ele><time>2026-03-28T12:07:15Z</time></trkpt><trkpt lat="45.52141673020746" lon="11.155592561710442"><ele>336.0</ele><time>2026-03-28T12:07:16Z</time></trkpt><trkpt lat="45.521538060465666" lon="11.155510138204667"><ele>337.3333333333333</ele><time>2026-03-28T12:07:17Z</time></trkpt><trkpt lat="45.52167583420375" lon="11.155399774795391"><ele>338.66666666666663</ele><time>2026-03-28T12:07:18Z</time></trkpt><trkpt lat="45.52180280861246" lon="11.155290147018661"><ele>340.0</ele><time>2026-03-28T12:07:19Z</time></trkpt><trkpt lat="45.52193989758595" lon="11.155186122828802"><ele>340.25</ele><time>2026-03-28T12:07:20Z</time></trkpt><trkpt lat="45.52206650688336" lon="11.155074102168607"><ele>340.5</ele><time>2026-03-28T12:07:21Z</time></trkpt><trkpt lat="45.52218651485408" lon="11.154971839530697"><ele>340.75</ele><time>2026-03-28T12:07:22Z</time></trkpt><trkpt lat="45.522302552917736" lon="11.154879369643785"><ele>341.0</ele><time>2026-03-28T12:07:23Z</time></trkpt><trkpt lat="45.522426027937065" lon="11.154779909863834"><ele>341.4</ele><time>2026-03-28T12:07:24Z</time></trkpt><trkpt lat="45.52253982507751" lon="11.154687140101148"><ele>341.8</ele><time>2026-03-28T12:07:25Z</time></trkpt><trkpt lat="45.522636423559256" lon="11.15459628832098"><ele>342.2</ele><time>2026-03-28T12:07:26Z</time></trkpt><trkpt lat="45.52272378511511" lon="11.154519564841467"><ele>342.59999999999997</ele><time>2026-03-28T12:07:27Z</time></trkpt><trkpt lat="45.52281155412089" lon="11.154453632578962"><ele>343.0</ele><time>2026-03-28T12:07:28Z</time></trkpt><trkpt lat="45.5229010470353" lon="11.15439463566021"><ele>343.0</ele><time>2026-03-28T12:07:29Z</time></trkpt><trkpt lat="45.52296678286231" lon="11.154322265426345"><ele>343.0</ele><time>2026-03-28T12:07:30Z</time></trkpt><trkpt lat="45.52300543195497" lon="11.154203626217162"><ele>343.0</ele><time>2026-03-28T12:07:31Z</time></trkpt><trkpt lat="45.523024808666236" lon="11.154062976263686"><ele>343.0</ele><time>2026-03-28T12:07:32Z</time></trkpt><trkpt lat="45.52301258820347" lon="11.153909292837596"><ele>343.0</ele><time>2026-03-28T12:07:33Z</time></trkpt><trkpt lat="45.522982132580616" lon="11.153741742388801"><ele>343.75</ele><time>2026-03-28T12:07:34Z</time></trkpt><trkpt lat="45.52294601884677" lon="11.15356313708417"><ele>344.5</ele><time>2026-03-28T12:07:35Z</time></trkpt><trkpt lat="45.52290386273284" lon="11.153374161116998"><ele>345.25</ele><time>2026-03-28T12:07:36Z</time></trkpt><trkpt lat="45.5228633452569" lon="11.153168340349813"><ele>346.0</ele><time>2026-03-28T12:07:37Z</time></trkpt><trkpt lat="45.52284717516766" lon="11.15299220280243"><ele>351.66666666666663</ele><time>2026-03-28T12:07:38Z</time></trkpt><trkpt lat="45.52281972042836" lon="11.152873790216763"><ele>357.3333333333333</ele><time>2026-03-28T12:07:39Z</time></trkpt><trkpt lat="45.5228251026938" lon="11.152764337626463"><ele>363.0</ele><time>2026-03-28T12:07:40Z</time></trkpt><trkpt lat="45.522813840770496" lon="11.152654636741081"><ele>368.6666666666667</ele><time>2026-03-28T12:07:41Z</time></trkpt><trkpt lat="45.522845803673825" lon="11.152515273007529"><ele>374.33333333333337</ele><time>2026-03-28T12:07:43Z</time></trkpt><trkpt lat="45.522813021949545" lon="11.152411216852109"><ele>380.0</ele><time>2026-03-28T12:07:45Z</time></trkpt><trkpt lat="45.52270081429521" lon="11.15244838372608"><ele>380.0</ele><time>2026-03-28T12:07:47Z</time></trkpt><trkpt lat="45.52268837725401" lon="11.152550467130135"><ele>380.0</ele><time>2026-03-28T12:07:48Z</time></trkpt><trkpt lat="45.5226981433793" lon="11.152678392036886"><ele>380.0</ele><time>2026-03-28T12:07:49Z</time></trkpt><trkpt lat="45.52270620562285" lon="11.152822672518157"><ele>380.0</ele><time>2026-03-28T12:07:50Z</time></trkpt><trkpt lat="45.522716855586786" lon="11.152978477618268"><ele>380.0</ele><time>2026-03-28T12:07:51Z</time></trkpt><trkpt lat="45.52272573504397" lon="11.153119392985436"><ele>377.2</ele><time>2026-03-28T12:07:52Z</time></trkpt><trkpt lat="45.52272582712811" lon="11.153249742493125"><ele>374.4</ele><time>2026-03-28T12:07:53Z</time></trkpt><trkpt lat="45.5226870480357" lon="11.15342005750621"><ele>371.6</ele><time>2026-03-28T12:07:55Z</time></trkpt><trkpt lat="45.52262585621711" lon="11.153523861304924"><ele>368.8</ele><time>2026-03-28T12:07:56Z</time></trkpt><trkpt lat="45.522560873613074" lon="11.153631010712349"><ele>366.0</ele><time>2026-03-28T12:07:57Z</time></trkpt><trkpt lat="45.52250267811776" lon="11.153713615353482"><ele>366.0</ele><time>2026-03-28T12:07:58Z</time></trkpt><trkpt lat="45.52242615581076" lon="11.15377302098962"><ele>366.0</ele><time>2026-03-28T12:07:59Z</time></trkpt><trkpt lat="45.52235117126572" lon="11.153805572349459"><ele>366.0</ele><time>2026-03-28T12:08:00Z</time></trkpt><trkpt lat="45.5222420361003" lon="11.153821947246843"><ele>366.0</ele><time>2026-03-28T12:08:02Z</time></trkpt><trkpt lat="45.522177169255016" lon="11.153773670842217"><ele>366.0</ele><time>2026-03-28T12:08:03Z</time></trkpt><trkpt lat="45.522123118725034" lon="11.153638236503115"><ele>366.0</ele><time>2026-03-28T12:08:04Z</time></trkpt><trkpt lat="45.52207337396319" lon="11.153518433201043"><ele>366.0</ele><time>2026-03-28T12:08:05Z</time></trkpt><trkpt lat="45.52205063290718" lon="11.153394833659311"><ele>366.0</ele><time>2026-03-28T12:08:06Z</time></trkpt><trkpt lat="45.52201577618906" lon="11.153272858633642"><ele>366.0</ele><time>2026-03-28T12:08:07Z</time></trkpt><trkpt lat="45.52201135502278" lon="11.15312879411255"><ele>366.0</ele><time>2026-03-28T12:08:08Z</time></trkpt><trkpt lat="45.52198371335727" lon="11.152996875270164"><ele>366.1666666666667</ele><time>2026-03-28T12:08:09Z</time></trkpt><trkpt lat="45.52197201670062" lon="11.152870206456086"><ele>366.3333333333333</ele><time>2026-03-28T12:08:10Z</time></trkpt><trkpt lat="45.52197079412442" lon="11.152755855777661"><ele>366.5</ele><time>2026-03-28T12:08:11Z</time></trkpt><trkpt lat="45.52196823028997" lon="11.152641401207097"><ele>366.66666666666663</ele><time>2026-03-28T12:08:12Z</time></trkpt><trkpt lat="45.52195908391286" lon="11.152513565105867"><ele>366.8333333333333</ele><time>2026-03-28T12:08:13Z</time></trkpt><trkpt lat="45.521960422597594" lon="11.152364717449064"><ele>367.0</ele><time>2026-03-28T12:08:14Z</time></trkpt><trkpt lat="45.52193084958161" lon="11.152195826828745"><ele>369.5</ele><time>2026-03-28T12:08:15Z</time></trkpt><trkpt lat="45.52188419219564" lon="11.152010316344938"><ele>372.0</ele><time>2026-03-28T12:08:16Z</time></trkpt><trkpt lat="45.52185375366825" lon="11.151839669718955"><ele>374.5</ele><time>2026-03-28T12:08:17Z</time></trkpt><trkpt lat="45.52185280616529" lon="11.151708583318579"><ele>377.0</ele><time>2026-03-28T12:08:18Z</time></trkpt><trkpt lat="45.521829700982224" lon="11.151575109250592"><ele>377.0</ele><time>2026-03-28T12:08:20Z</time></trkpt><trkpt lat="45.52190920253391" lon="11.151565882375767"><ele>377.0</ele><time>2026-03-28T12:08:22Z</time></trkpt><trkpt lat="45.52195616140939" lon="11.151733463297958"><ele>377.0</ele><time>2026-03-28T12:08:24Z</time></trkpt><trkpt lat="45.52199255112225" lon="11.151842619484444"><ele>377.0</ele><time>2026-03-28T12:08:25Z</time></trkpt><trkpt lat="45.52206716037249" lon="11.151914030195172"><ele>377.0</ele><time>2026-03-28T12:08:26Z</time></trkpt><trkpt lat="45.52216678517403" lon="11.15195305825513"><ele>379.6</ele><time>2026-03-28T12:08:27Z</time></trkpt><trkpt lat="45.522257635721715" lon="11.151982958296687"><ele>382.20000000000005</ele><time>2026-03-28T12:08:28Z</time></trkpt><trkpt lat="45.522358401089704" lon="11.151991302143252"><ele>384.8</ele><time>2026-03-28T12:08:29.999Z</time></trkpt><trkpt lat="45.522384308104336" lon="11.151828946169"><ele>387.4</ele><time>2026-03-28T12:08:31.999Z</time></trkpt><trkpt lat="45.522308304545675" lon="11.151756029155958"><ele>390.0</ele><time>2026-03-28T12:08:32.999Z</time></trkpt><trkpt lat="45.52222829157988" lon="11.151649427641987"><ele>390.0</ele><time>2026-03-28T12:08:34.999Z</time></trkpt><trkpt lat="45.522244959796375" lon="11.151561428434762"><ele>390.0</ele><time>2026-03-28T12:08:35.999Z</time></trkpt><trkpt lat="45.52232781141761" lon="11.15148373041564"><ele>390.0</ele><time>2026-03-28T12:08:36.999Z</time></trkpt><trkpt lat="45.52235097803735" lon="11.151359076681377"><ele>390.0</ele><time>2026-03-28T12:08:37.999Z</time></trkpt><trkpt lat="45.522341022329655" lon="11.151186390527883"><ele>390.0</ele><time>2026-03-28T12:08:38.999Z</time></trkpt><trkpt lat="45.52234255688275" lon="11.150998945450587"><ele>392.4</ele><time>2026-03-28T12:08:39.999Z</time></trkpt><trkpt lat="45.5223870298821" lon="11.15086218106656"><ele>394.8</ele><time>2026-03-28T12:08:40.999Z</time></trkpt><trkpt lat="45.522441610088705" lon="11.150752995110604"><ele>397.20000000000005</ele><time>2026-03-28T12:08:41.999Z</time></trkpt><trkpt lat="45.52249942930589" lon="11.150664618122162"><ele>399.6</ele><time>2026-03-28T12:08:42.999Z</time></trkpt><trkpt lat="45.5225608587481" lon="11.150577673119608"><ele>402.0</ele><time>2026-03-28T12:08:43.999Z</time></trkpt><trkpt lat="45.52263147713034" lon="11.150465854994556"><ele>399.6</ele><time>2026-03-28T12:08:44.999Z</time></trkpt><trkpt lat="45.522726761930365" lon="11.150385310993398"><ele>397.20000000000005</ele><time>2026-03-28T12:08:45.999Z</time></trkpt><trkpt lat="45.52280552682339" lon="11.150317261957628"><ele>394.8</ele><time>2026-03-28T12:08:46.999Z</time></trkpt><trkpt lat="45.52288516502106" lon="11.150253313240446"><ele>392.4</ele><time>2026-03-28T12:08:47.999Z</time></trkpt><trkpt lat="45.522939148300075" lon="11.150192906686256"><ele>390.0</ele><time>2026-03-28T12:08:48.999Z</time></trkpt><trkpt lat="45.523024084989295" lon="11.150143613383037"><ele>390.0</ele><time>2026-03-28T12:08:50.999Z</time></trkpt><trkpt lat="45.52298922749521" lon="11.149979860904317"><ele>390.0</ele><time>2026-03-28T12:08:52.999Z</time></trkpt><trkpt lat="45.522899278859406" lon="11.150010646306368"><ele>390.0</ele><time>2026-03-28T12:08:53.999Z</time></trkpt><trkpt lat="45.522826975179186" lon="11.1500724021623"><ele>390.0</ele><time>2026-03-28T12:08:54.999Z</time></trkpt><trkpt lat="45.52274882412313" lon="11.150160269061347"><ele>390.0</ele><time>2026-03-28T12:08:55.999Z</time></trkpt><trkpt lat="45.52261427003836" lon="11.150200897523241"><ele>396.0</ele><time>2026-03-28T12:08:56.999Z</time></trkpt><trkpt lat="45.52250484392481" lon="11.15024623927379"><ele>402.0</ele><time>2026-03-28T12:08:57.999Z</time></trkpt><trkpt lat="45.52242908342665" lon="11.150274685566796"><ele>408.0</ele><time>2026-03-28T12:08:58.999Z</time></trkpt><trkpt lat="45.522358382974566" lon="11.150298495305165"><ele>414.0</ele><time>2026-03-28T12:08:59.999Z</time></trkpt><trkpt lat="45.52224376448842" lon="11.150221914208547"><ele>420.0</ele><time>2026-03-28T12:09:01.999Z</time></trkpt><trkpt lat="45.52221528280671" lon="11.150119141964248"><ele>420.0</ele><time>2026-03-28T12:09:02.999Z</time></trkpt><trkpt lat="45.52224229689321" lon="11.14997933531238"><ele>420.0</ele><time>2026-03-28T12:09:03.999Z</time></trkpt><trkpt lat="45.522233300059696" lon="11.149818116955078"><ele>420.0</ele><time>2026-03-28T12:09:04.999Z</time></trkpt><trkpt lat="45.52223856210874" lon="11.149638099175778"><ele>420.0</ele><time>2026-03-28T12:09:05.999Z</time></trkpt><trkpt lat="45.52223638428579" lon="11.149438072582688"><ele>421.0</ele><time>2026-03-28T12:09:06.999Z</time></trkpt><trkpt lat="45.522211824060285" lon="11.149255866725344"><ele>422.0</ele><time>2026-03-28T12:09:07.999Z</time></trkpt><trkpt lat="45.522158664800685" lon="11.149082937342929"><ele>423.0</ele><time>2026-03-28T12:09:08.999Z</time></trkpt><trkpt lat="45.52212472069932" lon="11.148896415516415"><ele>424.0</ele><time>2026-03-28T12:09:09.999Z</time></trkpt><trkpt lat="45.52207908707625" lon="11.148736131803"><ele>424.4</ele><time>2026-03-28T12:09:10.999Z</time></trkpt><trkpt lat="45.52202018524548" lon="11.148598467992104"><ele>424.79999999999995</ele><time>2026-03-28T12:09:11.999Z</time></trkpt><trkpt lat="45.52196826693723" lon="11.148469425865677"><ele>425.20000000000005</ele><time>2026-03-28T12:09:12.999Z</time></trkpt><trkpt lat="45.52192341333927" lon="11.148327720686089"><ele>425.6</ele><time>2026-03-28T12:09:13.999Z</time></trkpt><trkpt lat="45.521871738515586" lon="11.14820610843715"><ele>426.0</ele><time>2026-03-28T12:09:14.999Z</time></trkpt><trkpt lat="45.52182855236398" lon="11.148108178833935"><ele>428.3333333333333</ele><time>2026-03-28T12:09:15.999Z</time></trkpt><trkpt lat="45.52179224564198" lon="11.148028381414655"><ele>430.66666666666663</ele><time>2026-03-28T12:09:16.999Z</time></trkpt><trkpt lat="45.52174104303353" lon="11.147915847008942"><ele>433.0</ele><time>2026-03-28T12:09:19Z</time></trkpt><trkpt lat="45.521745045447254" lon="11.147798783727637"><ele>435.3333333333333</ele><time>2026-03-28T12:09:22Z</time></trkpt><trkpt lat="45.52181844926063" lon="11.147807068911764"><ele>437.66666666666663</ele><time>2026-03-28T12:09:23Z</time></trkpt><trkpt lat="45.52186383464129" lon="11.147923139775674"><ele>440.0</ele><time>2026-03-28T12:09:24Z</time></trkpt><trkpt lat="45.521940589678955" lon="11.14797739187466"><ele>440.0</ele><time>2026-03-28T12:09:25Z</time></trkpt><trkpt lat="45.52200611915888" lon="11.14806438696067"><ele>440.0</ele><time>2026-03-28T12:09:26Z</time></trkpt><trkpt lat="45.52207344382333" lon="11.14810142117315"><ele>440.0</ele><time>2026-03-28T12:09:27Z</time></trkpt><trkpt lat="45.52219112806083" lon="11.148083370320476"><ele>440.0</ele><time>2026-03-28T12:09:29Z</time></trkpt><trkpt lat="45.52223944839259" lon="11.147923624683582"><ele>440.0</ele><time>2026-03-28T12:09:31Z</time></trkpt><trkpt lat="45.522201282260326" lon="11.147809632157793"><ele>439.99999999999994</ele><time>2026-03-28T12:09:32Z</time></trkpt><trkpt lat="45.52211584192993" lon="11.147743909252771"><ele>440.0</ele><time>2026-03-28T12:09:33Z</time></trkpt><trkpt lat="45.52205482691562" lon="11.1476619785091"><ele>440.0</ele><time>2026-03-28T12:09:34Z</time></trkpt><trkpt lat="45.52200246703921" lon="11.147580578461541"><ele>440.0</ele><time>2026-03-28T12:09:35Z</time></trkpt><trkpt lat="45.521943622627404" lon="11.147485425730048"><ele>439.99999999999994</ele><time>2026-03-28T12:09:36Z</time></trkpt><trkpt lat="45.52187644173582" lon="11.147410761826437"><ele>440.0</ele><time>2026-03-28T12:09:37Z</time></trkpt><trkpt lat="45.52182374560627" lon="11.14732014466954"><ele>442.66666666666663</ele><time>2026-03-28T12:09:38Z</time></trkpt><trkpt lat="45.52178643257975" lon="11.147214729737694"><ele>445.3333333333333</ele><time>2026-03-28T12:09:39Z</time></trkpt><trkpt lat="45.52174137743609" lon="11.147102909679719"><ele>448.0</ele><time>2026-03-28T12:09:40Z</time></trkpt><trkpt lat="45.52170410278768" lon="11.1469909553788"><ele>450.66666666666663</ele><time>2026-03-28T12:09:41Z</time></trkpt><trkpt lat="45.521671646289235" lon="11.14687721172859"><ele>453.3333333333333</ele><time>2026-03-28T12:09:42Z</time></trkpt><trkpt lat="45.521624193835635" lon="11.146764515230089"><ele>456.0</ele><time>2026-03-28T12:09:43Z</time></trkpt><trkpt lat="45.52159202742105" lon="11.146639330198854"><ele>458.8333333333333</ele><time>2026-03-28T12:09:44Z</time></trkpt><trkpt lat="45.52156351066101" lon="11.146514844277092"><ele>461.66666666666663</ele><time>2026-03-28T12:09:45Z</time></trkpt><trkpt lat="45.52152810968578" lon="11.146400448887697"><ele>464.5</ele><time>2026-03-28T12:09:46Z</time></trkpt><trkpt lat="45.52149780805944" lon="11.146320093240917"><ele>467.3333333333333</ele><time>2026-03-28T12:09:47Z</time></trkpt><trkpt lat="45.5214701717635" lon="11.146232388673772"><ele>470.16666666666663</ele><time>2026-03-28T12:09:48Z</time></trkpt><trkpt lat="45.52143558777355" lon="11.146082125418086"><ele>473.0</ele><time>2026-03-28T12:09:50Z</time></trkpt><trkpt lat="45.52147991641973" lon="11.145990169286414"><ele>473.0</ele><time>2026-03-28T12:09:53Z</time></trkpt><trkpt lat="45.521556946088936" lon="11.146048176002829"><ele>472.99999999999994</ele><time>2026-03-28T12:09:54Z</time></trkpt><trkpt lat="45.52163699531178" lon="11.146225661977418"><ele>472.99999999999994</ele><time>2026-03-28T12:09:56Z</time></trkpt><trkpt lat="45.52169556948717" lon="11.146329799756067"><ele>473.0</ele><time>2026-03-28T12:09:57Z</time></trkpt><trkpt lat="45.52175105924722" lon="11.146389214731245"><ele>473.0</ele><time>2026-03-28T12:09:58Z</time></trkpt><trkpt lat="45.52183219942001" lon="11.146454536419883"><ele>473.0</ele><time>2026-03-28T12:10:00Z</time></trkpt><trkpt lat="45.52192995905065" lon="11.14651833169082"><ele>472.99999999999994</ele><time>2026-03-28T12:10:02Z</time></trkpt><trkpt lat="45.52203992214148" lon="11.146501531674037"><ele>472.99999999999994</ele><time>2026-03-28T12:10:04Z</time></trkpt><trkpt lat="45.52207032275007" lon="11.146421834779462"><ele>473.0</ele><time>2026-03-28T12:10:05Z</time></trkpt><trkpt lat="45.52203445551343" lon="11.146242716506196"><ele>473.0</ele><time>2026-03-28T12:10:07Z</time></trkpt><trkpt lat="45.52194609145793" lon="11.146196592884309"><ele>472.99999999999994</ele><time>2026-03-28T12:10:08Z</time></trkpt><trkpt lat="45.52191226809245" lon="11.14610579401853"><ele>473.0</ele><time>2026-03-28T12:10:09Z</time></trkpt><trkpt lat="45.521875493636536" lon="11.14601166061233"><ele>473.0</ele><time>2026-03-28T12:10:10Z</time></trkpt><trkpt lat="45.52182790095111" lon="11.145933333732177"><ele>473.0</ele><time>2026-03-28T12:10:11Z</time></trkpt><trkpt lat="45.521758809767455" lon="11.145814786847986"><ele>472.99999999999994</ele><time>2026-03-28T12:10:13Z</time></trkpt><trkpt lat="45.52166998727361" lon="11.145706548742698"><ele>473.0</ele><time>2026-03-28T12:10:15Z</time></trkpt><trkpt lat="45.521609342238726" lon="11.145657489715903"><ele>475.66666666666663</ele><time>2026-03-28T12:10:17Z</time></trkpt><trkpt lat="45.5215522908745" lon="11.14557692459775"><ele>478.3333333333333</ele><time>2026-03-28T12:10:20Z</time></trkpt><trkpt lat="45.52166105057407" lon="11.145553759148099"><ele>481.0</ele><time>2026-03-28T12:10:24Z</time></trkpt><trkpt lat="45.5217300532138" lon="11.145582536218411"><ele>483.66666666666663</ele><time>2026-03-28T12:10:24.999Z</time></trkpt><trkpt lat="45.521804932153294" lon="11.145623596504961"><ele>486.3333333333333</ele><time>2026-03-28T12:10:25.999Z</time></trkpt><trkpt lat="45.521876474712634" lon="11.145640401557353"><ele>489.0</ele><time>2026-03-28T12:10:26.999Z</time></trkpt><trkpt lat="45.52194625340336" lon="11.145641009902112"><ele>489.0</ele><time>2026-03-28T12:10:27.999Z</time></trkpt><trkpt lat="45.522037393844045" lon="11.145597268354349"><ele>489.0</ele><time>2026-03-28T12:10:29.999Z</time></trkpt><trkpt lat="45.52210612848687" lon="11.145515868901729"><ele>489.0</ele><time>2026-03-28T12:10:31.999Z</time></trkpt><trkpt lat="45.52212315018994" lon="11.145407936803077"><ele>489.0</ele><time>2026-03-28T12:10:33.999Z</time></trkpt><trkpt lat="45.52201255799908" lon="11.145328335020984"><ele>489.0</ele><time>2026-03-28T12:10:34.999Z</time></trkpt><trkpt lat="45.52191240312635" lon="11.145363395946267"><ele>489.0</ele><time>2026-03-28T12:10:35.999Z</time></trkpt><trkpt lat="45.521822697514324" lon="11.145343817538828"><ele>489.0</ele><time>2026-03-28T12:10:36.999Z</time></trkpt><trkpt lat="45.52174863419974" lon="11.145294360236703"><ele>489.0</ele><time>2026-03-28T12:10:37.999Z</time></trkpt><trkpt lat="45.52168863633214" lon="11.14522717011977"><ele>489.0</ele><time>2026-03-28T12:10:38.999Z</time></trkpt><trkpt lat="45.521636782317714" lon="11.145136773258619"><ele>489.0</ele><time>2026-03-28T12:10:39.999Z</time></trkpt><trkpt lat="45.521619668862826" lon="11.14502776200802"><ele>489.0</ele><time>2026-03-28T12:10:40.999Z</time></trkpt><trkpt lat="45.52161630364855" lon="11.14492337317323"><ele>492.4</ele><time>2026-03-28T12:10:41.999Z</time></trkpt><trkpt lat="45.52162092097503" lon="11.144826712044885"><ele>495.79999999999995</ele><time>2026-03-28T12:10:42.999Z</time></trkpt><trkpt lat="45.52163501426286" lon="11.144732138194671"><ele>499.20000000000005</ele><time>2026-03-28T12:10:43.999Z</time></trkpt><trkpt lat="45.52170570815661" lon="11.14460426746436"><ele>502.6</ele><time>2026-03-28T12:10:45.999Z</time></trkpt><trkpt lat="45.52165312222404" lon="11.144451784725247"><ele>506.0</ele><time>2026-03-28T12:10:47.999Z</time></trkpt><trkpt lat="45.52153860618737" lon="11.144458297867011"><ele>505.99999999999994</ele><time>2026-03-28T12:10:48.999Z</time></trkpt><trkpt lat="45.52143910349216" lon="11.144473113031717"><ele>506.0</ele><time>2026-03-28T12:10:49.999Z</time></trkpt><trkpt lat="45.52135099757607" lon="11.14448846775012"><ele>506.0</ele><time>2026-03-28T12:10:50.999Z</time></trkpt><trkpt lat="45.52126495845598" lon="11.144496470232832"><ele>506.0</ele><time>2026-03-28T12:10:51.999Z</time></trkpt><trkpt lat="45.52118687158278" lon="11.144507486438718"><ele>505.99999999999994</ele><time>2026-03-28T12:10:52.999Z</time></trkpt><trkpt lat="45.52111965294628" lon="11.144516515207997"><ele>506.0</ele><time>2026-03-28T12:10:53.999Z</time></trkpt><trkpt lat="45.52104708579497" lon="11.144508202144692"><ele>505.20000000000005</ele><time>2026-03-28T12:10:54.999Z</time></trkpt><trkpt lat="45.52097103736393" lon="11.14446349634924"><ele>504.40000000000003</ele><time>2026-03-28T12:10:55.999Z</time></trkpt><trkpt lat="45.52090378159579" lon="11.144368858091394"><ele>503.6</ele><time>2026-03-28T12:10:56.999Z</time></trkpt><trkpt lat="45.5208294261971" lon="11.144286652266874"><ele>502.8</ele><time>2026-03-28T12:10:57.999Z</time></trkpt><trkpt lat="45.52074882162251" lon="11.144193037343477"><ele>502.0</ele><time>2026-03-28T12:10:58.999Z</time></trkpt><trkpt lat="45.52064911786812" lon="11.144104714463422"><ele>505.25</ele><time>2026-03-28T12:10:59.999Z</time></trkpt><trkpt lat="45.52055695543272" lon="11.143997488120982"><ele>508.5</ele><time>2026-03-28T12:11:00.999Z</time></trkpt><trkpt lat="45.520460049743384" lon="11.143901948474612"><ele>511.75</ele><time>2026-03-28T12:11:01.999Z</time></trkpt><trkpt lat="45.52036162806628" lon="11.143828267366908"><ele>515.0</ele><time>2026-03-28T12:11:02.999Z</time></trkpt><trkpt lat="45.520259732273544" lon="11.143760390057693"><ele>515.0</ele><time>2026-03-28T12:11:03.999Z</time></trkpt><trkpt lat="45.52016287687111" lon="11.14371214049961"><ele>515.0</ele><time>2026-03-28T12:11:04.999Z</time></trkpt><trkpt lat="45.52006232082274" lon="11.14367417734819"><ele>515.0</ele><time>2026-03-28T12:11:05.999Z</time></trkpt><trkpt lat="45.51994736718876" lon="11.143637624516726"><ele>515.0</ele><time>2026-03-28T12:11:06.999Z</time></trkpt><trkpt lat="45.5198319781962" lon="11.143594302900492"><ele>515.0</ele><time>2026-03-28T12:11:07.999Z</time></trkpt><trkpt lat="45.51971346748489" lon="11.143569660867822"><ele>515.0</ele><time>2026-03-28T12:11:08.999Z</time></trkpt><trkpt lat="45.519587276474226" lon="11.143580597939213"><ele>515.0</ele><time>2026-03-28T12:11:09.999Z</time></trkpt><trkpt lat="45.519475292520106" lon="11.143647129135166"><ele>515.0</ele><time>2026-03-28T12:11:10.999Z</time></trkpt><trkpt lat="45.519352967975934" lon="11.143668103406366"><ele>515.0</ele><time>2026-03-28T12:11:11.999Z</time></trkpt><trkpt lat="45.5192434833952" lon="11.143702354225061"><ele>514.6</ele><time>2026-03-28T12:11:12.999Z</time></trkpt><trkpt lat="45.51914209026413" lon="11.143733321474716"><ele>514.2</ele><time>2026-03-28T12:11:13.999Z</time></trkpt><trkpt lat="45.51904598242769" lon="11.143774650771592"><ele>513.8</ele><time>2026-03-28T12:11:14.999Z</time></trkpt><trkpt lat="45.518954564217914" lon="11.143801340994699"><ele>513.4</ele><time>2026-03-28T12:11:15.999Z</time></trkpt><trkpt lat="45.51886420415284" lon="11.143798117031707"><ele>513.0</ele><time>2026-03-28T12:11:16.999Z</time></trkpt><trkpt lat="45.51878473747993" lon="11.143804309250035"><ele>513.0</ele><time>2026-03-28T12:11:17.999Z</time></trkpt><trkpt lat="45.51870647718953" lon="11.143784086343786"><ele>513.0</ele><time>2026-03-28T12:11:18.999Z</time></trkpt><trkpt lat="45.518657177552015" lon="11.143670038716166"><ele>513.0</ele><time>2026-03-28T12:11:19.999Z</time></trkpt><trkpt lat="45.51867225885541" lon="11.143533762084152"><ele>513.0</ele><time>2026-03-28T12:11:20.999Z</time></trkpt><trkpt lat="45.518721086339475" lon="11.143415301256056"><ele>513.0</ele><time>2026-03-28T12:11:21.999Z</time></trkpt><trkpt lat="45.51876600252608" lon="11.143266340830037"><ele>513.3333333333334</ele><time>2026-03-28T12:11:22.999Z</time></trkpt><trkpt lat="45.51881356184292" lon="11.14312617125149"><ele>513.6666666666666</ele><time>2026-03-28T12:11:24Z</time></trkpt><trkpt lat="45.51885504699194" lon="11.143010704509622"><ele>514.0</ele><time>2026-03-28T12:11:25Z</time></trkpt><trkpt lat="45.51889164805552" lon="11.14290874030001"><ele>514.3333333333333</ele><time>2026-03-28T12:11:26Z</time></trkpt><trkpt lat="45.518915637885584" lon="11.142815607715624"><ele>514.6666666666666</ele><time>2026-03-28T12:11:27Z</time></trkpt><trkpt lat="45.51894018188855" lon="11.142726124747531"><ele>515.0</ele><time>2026-03-28T12:11:28Z</time></trkpt><trkpt lat="45.51900414274662" lon="11.142609425263299"><ele>515.0</ele><time>2026-03-28T12:11:30Z</time></trkpt><trkpt lat="45.51907753791271" lon="11.142595666780217"><ele>515.0</ele><time>2026-03-28T12:11:31Z</time></trkpt><trkpt lat="45.51916412761148" lon="11.142563592879805"><ele>515.0</ele><time>2026-03-28T12:11:32Z</time></trkpt><trkpt lat="45.51927363703227" lon="11.142507369129472"><ele>515.0</ele><time>2026-03-28T12:11:33Z</time></trkpt><trkpt lat="45.51940820999729" lon="11.142459595836588"><ele>515.0</ele><time>2026-03-28T12:11:34Z</time></trkpt><trkpt lat="45.51956107495233" lon="11.142402321128278"><ele>515.3333333333333</ele><time>2026-03-28T12:11:35Z</time></trkpt><trkpt lat="45.51973728832885" lon="11.142339870326964"><ele>515.6666666666666</ele><time>2026-03-28T12:11:36Z</time></trkpt><trkpt lat="45.51994142766845" lon="11.142263921457257"><ele>516.0</ele><time>2026-03-28T12:11:37Z</time></trkpt><trkpt lat="45.52016761114882" lon="11.142176833803264"><ele>522.0</ele><time>2026-03-28T12:11:38Z</time></trkpt><trkpt lat="45.52043089981109" lon="11.14207859190841"><ele>528.0</ele><time>2026-03-28T12:11:39Z</time></trkpt><trkpt lat="45.52069754867032" lon="11.141981451904991"><ele>528.0</ele><time>2026-03-28T12:11:40Z</time></trkpt><trkpt lat="45.52097071778026" lon="11.141878674650327"><ele>528.0</ele><time>2026-03-28T12:11:41Z</time></trkpt><trkpt lat="45.52126474467047" lon="11.141764685614309"><ele>533.0</ele><time>2026-03-28T12:11:42Z</time></trkpt><trkpt lat="45.52153589412672" lon="11.14166174101101"><ele>538.0</ele><time>2026-03-28T12:11:43Z</time></trkpt><trkpt lat="45.52175990901491" lon="11.14158194860322"><ele>535.3333333333334</ele><time>2026-03-28T12:11:44Z</time></trkpt><trkpt lat="45.52194719546892" lon="11.14149787326487"><ele>532.6666666666666</ele><time>2026-03-28T12:11:45Z</time></trkpt><trkpt lat="45.52211709369204" lon="11.141401459288705"><ele>530.0</ele><time>2026-03-28T12:11:46Z</time></trkpt><trkpt lat="45.52227187952515" lon="11.141284584341385"><ele>536.0</ele><time>2026-03-28T12:11:47Z</time></trkpt><trkpt lat="45.522425304734874" lon="11.141158909405236"><ele>542.0</ele><time>2026-03-28T12:11:48Z</time></trkpt><trkpt lat="45.52256300067206" lon="11.1410377200155"><ele>548.0</ele><time>2026-03-28T12:11:49Z</time></trkpt><trkpt lat="45.52270997235751" lon="11.140902028275692"><ele>548.0</ele><time>2026-03-28T12:11:50Z</time></trkpt><trkpt lat="45.522856053323835" lon="11.140748667001752"><ele>548.0</ele><time>2026-03-28T12:11:51Z</time></trkpt><trkpt lat="45.52300999175569" lon="11.140593228054668"><ele>548.0</ele><time>2026-03-28T12:11:52Z</time></trkpt><trkpt lat="45.52316098166441" lon="11.140445760323168"><ele>550.3333333333333</ele><time>2026-03-28T12:11:53Z</time></trkpt><trkpt lat="45.52331898606963" lon="11.140297215236997"><ele>552.6666666666666</ele><time>2026-03-28T12:11:54Z</time></trkpt><trkpt lat="45.52347895718545" lon="11.14015087167036"><ele>555.0</ele><time>2026-03-28T12:11:55Z</time></trkpt><trkpt lat="45.52363143498247" lon="11.140021099956083"><ele>553.3333333333334</ele><time>2026-03-28T12:11:56Z</time></trkpt><trkpt lat="45.523788922750136" lon="11.139938814552249"><ele>551.6666666666667</ele><time>2026-03-28T12:11:57Z</time></trkpt><trkpt lat="45.52395636232551" lon="11.139878614265141"><ele>550.0</ele><time>2026-03-28T12:11:58Z</time></trkpt><trkpt lat="45.52416170312303" lon="11.139851954098996"><ele>550.0</ele><time>2026-03-28T12:11:59Z</time></trkpt><trkpt lat="45.5243572824842" lon="11.13983939285708"><ele>550.0</ele><time>2026-03-28T12:12:00Z</time></trkpt><trkpt lat="45.524531088705295" lon="11.13982284926511"><ele>550.0</ele><time>2026-03-28T12:12:01Z</time></trkpt><trkpt lat="45.52471130342519" lon="11.139762725322798"><ele>554.3333333333334</ele><time>2026-03-28T12:12:02Z</time></trkpt><trkpt lat="45.52486986229409" lon="11.139650598651876"><ele>558.6666666666666</ele><time>2026-03-28T12:12:03Z</time></trkpt><trkpt lat="45.52501897212656" lon="11.139491147672132"><ele>563.0</ele><time>2026-03-28T12:12:04Z</time></trkpt><trkpt lat="45.525174993467694" lon="11.139287148119184"><ele>563.0</ele><time>2026-03-28T12:12:05Z</time></trkpt><trkpt lat="45.525351482184256" lon="11.139073895208716"><ele>563.0</ele><time>2026-03-28T12:12:06Z</time></trkpt><trkpt lat="45.525550080446564" lon="11.138852796275714"><ele>566.0</ele><time>2026-03-28T12:12:07Z</time></trkpt><trkpt lat="45.52572867144294" lon="11.1386568203623"><ele>569.0</ele><time>2026-03-28T12:12:08Z</time></trkpt><trkpt lat="45.5258777390311" lon="11.138489631135808"><ele>572.0</ele><time>2026-03-28T12:12:09Z</time></trkpt><trkpt lat="45.52603434890442" lon="11.138349389437684"><ele>572.0</ele><time>2026-03-28T12:12:10Z</time></trkpt><trkpt lat="45.52621597576894" lon="11.138223036547787"><ele>572.0</ele><time>2026-03-28T12:12:11Z</time></trkpt><trkpt lat="45.52639554121714" lon="11.138134334524588"><ele>572.0</ele><time>2026-03-28T12:12:12Z</time></trkpt><trkpt lat="45.52659024270035" lon="11.138102077988247"><ele>570.0</ele><time>2026-03-28T12:12:13Z</time></trkpt><trkpt lat="45.52679174916906" lon="11.138063671699841"><ele>568.0</ele><time>2026-03-28T12:12:14Z</time></trkpt><trkpt lat="45.52700404060182" lon="11.138018808251175"><ele>566.0</ele><time>2026-03-28T12:12:15Z</time></trkpt><trkpt lat="45.52722000955989" lon="11.137992722478991"><ele>572.0</ele><time>2026-03-28T12:12:16Z</time></trkpt><trkpt lat="45.52744440420573" lon="11.13795153075438"><ele>578.0</ele><time>2026-03-28T12:12:17Z</time></trkpt><trkpt lat="45.52767757424877" lon="11.137909013943046"><ele>581.5</ele><time>2026-03-28T12:12:18Z</time></trkpt><trkpt lat="45.52791257868381" lon="11.137873003694985"><ele>585.0</ele><time>2026-03-28T12:12:19Z</time></trkpt><trkpt lat="45.52814391391347" lon="11.137871415690741"><ele>585.0</ele><time>2026-03-28T12:12:20Z</time></trkpt><trkpt lat="45.528367004344666" lon="11.137918454319415"><ele>585.0</ele><time>2026-03-28T12:12:21Z</time></trkpt><trkpt lat="45.52858034683643" lon="11.138015569857037"><ele>585.0</ele><time>2026-03-28T12:12:22Z</time></trkpt><trkpt lat="45.52880708897163" lon="11.13809695221933"><ele>585.5</ele><time>2026-03-28T12:12:23Z</time></trkpt><trkpt lat="45.529043947699904" lon="11.138188435575392"><ele>586.0</ele><time>2026-03-28T12:12:24Z</time></trkpt><trkpt lat="45.529266614583406" lon="11.138260659550934"><ele>586.0</ele><time>2026-03-28T12:12:25Z</time></trkpt><trkpt lat="45.52946159604655" lon="11.138306952063017"><ele>586.0</ele><time>2026-03-28T12:12:26Z</time></trkpt><trkpt lat="45.529647843382044" lon="11.13831294590621"><ele>586.0</ele><time>2026-03-28T12:12:27Z</time></trkpt><trkpt lat="45.529843385692516" lon="11.138286518318525"><ele>586.6666666666667</ele><time>2026-03-28T12:12:28Z</time></trkpt><trkpt lat="45.53005276736929" lon="11.138232414932553"><ele>587.3333333333334</ele><time>2026-03-28T12:12:29Z</time></trkpt><trkpt lat="45.53026732052772" lon="11.138182754194489"><ele>588.0</ele><time>2026-03-28T12:12:30Z</time></trkpt><trkpt lat="45.530485144839446" lon="11.138143855477782"><ele>596.0</ele><time>2026-03-28T12:12:31Z</time></trkpt><trkpt lat="45.53069774418508" lon="11.138115510991131"><ele>604.0</ele><time>2026-03-28T12:12:32Z</time></trkpt><trkpt lat="45.53090072330986" lon="11.138156484492846"><ele>612.0</ele><time>2026-03-28T12:12:33Z</time></trkpt><trkpt lat="45.5311127623938" lon="11.138208785061266"><ele>604.0</ele><time>2026-03-28T12:12:34Z</time></trkpt><trkpt lat="45.53134125394482" lon="11.138273905999135"><ele>596.0</ele><time>2026-03-28T12:12:34.999Z</time></trkpt><trkpt lat="45.53158001728591" lon="11.138379053224572"><ele>596.0</ele><time>2026-03-28T12:12:35.999Z</time></trkpt><trkpt lat="45.531835495817546" lon="11.138475746505307"><ele>596.0</ele><time>2026-03-28T12:12:36.999Z</time></trkpt><trkpt lat="45.53207962246617" lon="11.138537023991203"><ele>598.0</ele><time>2026-03-28T12:12:37.999Z</time></trkpt><trkpt lat="45.53228895442629" lon="11.138569691722447"><ele>600.0</ele><time>2026-03-28T12:12:38.999Z</time></trkpt><trkpt lat="45.53247446379365" lon="11.138602318506155"><ele>602.0</ele><time>2026-03-28T12:12:39.999Z</time></trkpt><trkpt lat="45.5326340900416" lon="11.138625462788353"><ele>602.0</ele><time>2026-03-28T12:12:40.999Z</time></trkpt><trkpt lat="45.53278531519687" lon="11.13861107497795"><ele>602.0</ele><time>2026-03-28T12:12:41.999Z</time></trkpt><trkpt lat="45.532919298097255" lon="11.13854786750675"><ele>602.0</ele><time>2026-03-28T12:12:42.999Z</time></trkpt><trkpt lat="45.53305883334747" lon="11.138440853215691"><ele>601.3333333333333</ele><time>2026-03-28T12:12:43.999Z</time></trkpt><trkpt lat="45.53318989034637" lon="11.13828441490421"><ele>600.6666666666666</ele><time>2026-03-28T12:12:44.999Z</time></trkpt><trkpt lat="45.53332888126022" lon="11.138103377643706"><ele>600.0</ele><time>2026-03-28T12:12:45.999Z</time></trkpt><trkpt lat="45.533475077159736" lon="11.13792143452096"><ele>599.0</ele><time>2026-03-28T12:12:46.999Z</time></trkpt><trkpt lat="45.53363231926107" lon="11.13774394656416"><ele>598.0</ele><time>2026-03-28T12:12:47.999Z</time></trkpt><trkpt lat="45.53378790467009" lon="11.137570387654824"><ele>597.0</ele><time>2026-03-28T12:12:48.999Z</time></trkpt><trkpt lat="45.5339384918764" lon="11.137394416010729"><ele>601.6666666666666</ele><time>2026-03-28T12:12:49.999Z</time></trkpt><trkpt lat="45.53408400441484" lon="11.137219569799312"><ele>606.3333333333333</ele><time>2026-03-28T12:12:50.999Z</time></trkpt><trkpt lat="45.53423624474674" lon="11.13703560023018"><ele>611.0</ele><time>2026-03-28T12:12:51.999Z</time></trkpt><trkpt lat="45.53439227046771" lon="11.136847895794862"><ele>610.0</ele><time>2026-03-28T12:12:52.999Z</time></trkpt><trkpt lat="45.53456284247013" lon="11.136640139114526"><ele>609.0</ele><time>2026-03-28T12:12:53.999Z</time></trkpt><trkpt lat="45.53476769534289" lon="11.136396474782044"><ele>609.0</ele><time>2026-03-28T12:12:54.999Z</time></trkpt><trkpt lat="45.53499539867208" lon="11.136128440131221"><ele>609.0</ele><time>2026-03-28T12:12:55.999Z</time></trkpt><trkpt lat="45.53524575826906" lon="11.135836111526158"><ele>605.5</ele><time>2026-03-28T12:12:56.999Z</time></trkpt><trkpt lat="45.53547527525068" lon="11.135561043309957"><ele>602.0</ele><time>2026-03-28T12:12:57.999Z</time></trkpt><trkpt lat="45.535675129739026" lon="11.135322784051384"><ele>602.0</ele><time>2026-03-28T12:12:58.999Z</time></trkpt><trkpt lat="45.53585768849047" lon="11.135106616115287"><ele>602.0</ele><time>2026-03-28T12:12:59.999Z</time></trkpt><trkpt lat="45.53603676405555" lon="11.13490053281182"><ele>601.3333333333333</ele><time>2026-03-28T12:13:00.999Z</time></trkpt><trkpt lat="45.53620535859748" lon="11.134720555654368"><ele>600.6666666666666</ele><time>2026-03-28T12:13:01.999Z</time></trkpt><trkpt lat="45.53637197169873" lon="11.134584363679696"><ele>600.0</ele><time>2026-03-28T12:13:02.999Z</time></trkpt><trkpt lat="45.53655593413055" lon="11.134470262352501"><ele>600.0</ele><time>2026-03-28T12:13:03.999Z</time></trkpt><trkpt lat="45.536755849866715" lon="11.134376396863892"><ele>600.0</ele><time>2026-03-28T12:13:04.999Z</time></trkpt><trkpt lat="45.53697348808964" lon="11.134302528855738"><ele>600.0</ele><time>2026-03-28T12:13:05.999Z</time></trkpt><trkpt lat="45.53719083377272" lon="11.134225795153036"><ele>600.0</ele><time>2026-03-28T12:13:06.999Z</time></trkpt><trkpt lat="45.53740423761091" lon="11.134142127792245"><ele>600.0</ele><time>2026-03-28T12:13:07.999Z</time></trkpt><trkpt lat="45.53759723747254" lon="11.134064294849301"><ele>600.0</ele><time>2026-03-28T12:13:08.999Z</time></trkpt><trkpt lat="45.53778927959228" lon="11.133979036189423"><ele>598.6666666666666</ele><time>2026-03-28T12:13:09.999Z</time></trkpt><trkpt lat="45.537979332531094" lon="11.133867790590209"><ele>597.3333333333333</ele><time>2026-03-28T12:13:10.999Z</time></trkpt><trkpt lat="45.53817117156546" lon="11.13372111558737"><ele>596.0</ele><time>2026-03-28T12:13:11.999Z</time></trkpt><trkpt lat="45.53836245146655" lon="11.133541520167384"><ele>596.0</ele><time>2026-03-28T12:13:12.999Z</time></trkpt><trkpt lat="45.53854850236188" lon="11.133344275188694"><ele>596.0</ele><time>2026-03-28T12:13:13.999Z</time></trkpt><trkpt lat="45.538734654699155" lon="11.133126234679054"><ele>598.5</ele><time>2026-03-28T12:13:14.999Z</time></trkpt><trkpt lat="45.53892279583166" lon="11.132899228429595"><ele>601.0</ele><time>2026-03-28T12:13:15.999Z</time></trkpt><trkpt lat="45.53909390231465" lon="11.132705522334845"><ele>601.0</ele><time>2026-03-28T12:13:16.999Z</time></trkpt><trkpt lat="45.539246251958346" lon="11.132547130641514"><ele>601.0</ele><time>2026-03-28T12:13:17.999Z</time></trkpt><trkpt lat="45.53938263056737" lon="11.13240022818453"><ele>601.0</ele><time>2026-03-28T12:13:18.999Z</time></trkpt><trkpt lat="45.53950113223962" lon="11.132260551267393"><ele>607.75</ele><time>2026-03-28T12:13:19.999Z</time></trkpt><trkpt lat="45.53960776383571" lon="11.132133667773955"><ele>614.5</ele><time>2026-03-28T12:13:20.999Z</time></trkpt><trkpt lat="45.53968724722723" lon="11.131999287022683"><ele>621.25</ele><time>2026-03-28T12:13:21.999Z</time></trkpt><trkpt lat="45.53973506707502" lon="11.131842781158152"><ele>628.0</ele><time>2026-03-28T12:13:22.999Z</time></trkpt><trkpt lat="45.53973910141735" lon="11.131653442194404"><ele>631.0</ele><time>2026-03-28T12:13:23.999Z</time></trkpt><trkpt lat="45.53969907131029" lon="11.131445223664345"><ele>634.0</ele><time>2026-03-28T12:13:24.999Z</time></trkpt><trkpt lat="45.53962949190218" lon="11.131226496656868"><ele>637.0</ele><time>2026-03-28T12:13:25.999Z</time></trkpt><trkpt lat="45.53953475927525" lon="11.130965300714667"><ele>632.3333333333334</ele><time>2026-03-28T12:13:26.999Z</time></trkpt><trkpt lat="45.53942578385646" lon="11.130700962663633"><ele>627.6666666666666</ele><time>2026-03-28T12:13:27.999Z</time></trkpt><trkpt lat="45.53931572887745" lon="11.13046829879576"><ele>623.0</ele><time>2026-03-28T12:13:28.999Z</time></trkpt><trkpt lat="45.53921865633832" lon="11.13028023672465"><ele>623.0</ele><time>2026-03-28T12:13:30Z</time></trkpt><trkpt lat="45.539143651503984" lon="11.130110314510926"><ele>623.0</ele><time>2026-03-28T12:13:31Z</time></trkpt><trkpt lat="45.539091491156064" lon="11.129936906824772"><ele>623.0</ele><time>2026-03-28T12:13:32Z</time></trkpt><trkpt lat="45.53907805405633" lon="11.129772309877833"><ele>623.0</ele><time>2026-03-28T12:13:33Z</time></trkpt><trkpt lat="45.53911170990457" lon="11.129615505054959"><ele>621.0</ele><time>2026-03-28T12:13:34Z</time></trkpt><trkpt lat="45.539189615524464" lon="11.129460889535185"><ele>619.0</ele><time>2026-03-28T12:13:35Z</time></trkpt><trkpt lat="45.53930700155437" lon="11.129322821483587"><ele>617.0</ele><time>2026-03-28T12:13:36Z</time></trkpt><trkpt lat="45.53945510295877" lon="11.12917624351908"><ele>621.3333333333333</ele><time>2026-03-28T12:13:37Z</time></trkpt><trkpt lat="45.53961350134731" lon="11.12900879976804"><ele>625.6666666666666</ele><time>2026-03-28T12:13:38Z</time></trkpt><trkpt lat="45.539761499076526" lon="11.128852850632056"><ele>630.0</ele><time>2026-03-28T12:13:39Z</time></trkpt><trkpt lat="45.539895790693265" lon="11.128743874302153"><ele>630.0</ele><time>2026-03-28T12:13:40Z</time></trkpt><trkpt lat="45.5400460380715" lon="11.128674962571061"><ele>630.0</ele><time>2026-03-28T12:13:41Z</time></trkpt><trkpt lat="45.54020923978739" lon="11.128649019066222"><ele>630.0</ele><time>2026-03-28T12:13:42Z</time></trkpt><trkpt lat="45.540363347796465" lon="11.128676117220673"><ele>627.0</ele><time>2026-03-28T12:13:43Z</time></trkpt><trkpt lat="45.540518520739475" lon="11.128746315568975"><ele>624.0</ele><time>2026-03-28T12:13:44Z</time></trkpt><trkpt lat="45.540671481261455" lon="11.128856584361905"><ele>621.0</ele><time>2026-03-28T12:13:45Z</time></trkpt><trkpt lat="45.540821008999295" lon="11.128987413950124"><ele>627.0</ele><time>2026-03-28T12:13:46Z</time></trkpt><trkpt lat="45.54096023485999" lon="11.129088670945"><ele>633.0</ele><time>2026-03-28T12:13:47Z</time></trkpt><trkpt lat="45.541120653815184" lon="11.12915580683818"><ele>639.0</ele><time>2026-03-28T12:13:48Z</time></trkpt><trkpt lat="45.54128677328468" lon="11.129157858540976"><ele>639.0</ele><time>2026-03-28T12:13:49Z</time></trkpt><trkpt lat="45.54147593217954" lon="11.129124860018505"><ele>639.0</ele><time>2026-03-28T12:13:50Z</time></trkpt><trkpt lat="45.54169456745607" lon="11.129052220206328"><ele>639.0</ele><time>2026-03-28T12:13:51Z</time></trkpt><trkpt lat="45.541921028421314" lon="11.12896771419905"><ele>637.3333333333334</ele><time>2026-03-28T12:13:52Z</time></trkpt><trkpt lat="45.542125047316475" lon="11.128914315185902"><ele>635.6666666666667</ele><time>2026-03-28T12:13:53Z</time></trkpt><trkpt lat="45.54230439142211" lon="11.128874660679536"><ele>634.0</ele><time>2026-03-28T12:13:54Z</time></trkpt><trkpt lat="45.542465928229646" lon="11.128832984949161"><ele>634.0</ele><time>2026-03-28T12:13:55Z</time></trkpt><trkpt lat="45.54260753026545" lon="11.128766164666098"><ele>634.0</ele><time>2026-03-28T12:13:56Z</time></trkpt><trkpt lat="45.542713546812365" lon="11.128660995181646"><ele>634.0</ele><time>2026-03-28T12:13:57Z</time></trkpt><trkpt lat="45.54279004673108" lon="11.12852281175289"><ele>634.0</ele><time>2026-03-28T12:13:58Z</time></trkpt><trkpt lat="45.5428350305987" lon="11.128351120060726"><ele>631.0</ele><time>2026-03-28T12:13:59Z</time></trkpt><trkpt lat="45.542872374009335" lon="11.128154033043156"><ele>628.0</ele><time>2026-03-28T12:14:00Z</time></trkpt><trkpt lat="45.54290724764814" lon="11.127935816873597"><ele>625.0</ele><time>2026-03-28T12:14:01Z</time></trkpt><trkpt lat="45.54295802178497" lon="11.12773172052461"><ele>627.5</ele><time>2026-03-28T12:14:02Z</time></trkpt><trkpt lat="45.54302074210148" lon="11.127537267577223"><ele>630.0</ele><time>2026-03-28T12:14:03Z</time></trkpt><trkpt lat="45.54308914076475" lon="11.127379932707099"><ele>632.5</ele><time>2026-03-28T12:14:04Z</time></trkpt><trkpt lat="45.54318178307297" lon="11.127264931121102"><ele>635.0</ele><time>2026-03-28T12:14:05Z</time></trkpt><trkpt lat="45.54331644903669" lon="11.127161506058977"><ele>635.0</ele><time>2026-03-28T12:14:06Z</time></trkpt><trkpt lat="45.54348516104851" lon="11.127085966574947"><ele>635.0</ele><time>2026-03-28T12:14:07Z</time></trkpt><trkpt lat="45.543677131303156" lon="11.127021521680703"><ele>635.0</ele><time>2026-03-28T12:14:08Z</time></trkpt><trkpt lat="45.543892748812965" lon="11.126936374584806"><ele>638.6666666666666</ele><time>2026-03-28T12:14:09Z</time></trkpt><trkpt lat="45.54411291029233" lon="11.126839582488078"><ele>642.3333333333334</ele><time>2026-03-28T12:14:10Z</time></trkpt><trkpt lat="45.544295374148646" lon="11.12675788638712"><ele>646.0</ele><time>2026-03-28T12:14:11Z</time></trkpt><trkpt lat="45.54444878863586" lon="11.126695693261176"><ele>646.5</ele><time>2026-03-28T12:14:12Z</time></trkpt><trkpt lat="45.544589765978245" lon="11.126638586411245"><ele>647.0</ele><time>2026-03-28T12:14:13Z</time></trkpt><trkpt lat="45.54471928672961" lon="11.12655031191087"><ele>647.5</ele><time>2026-03-28T12:14:14Z</time></trkpt><trkpt lat="45.54483549250811" lon="11.126423790759914"><ele>648.0</ele><time>2026-03-28T12:14:15Z</time></trkpt><trkpt lat="45.54493548523259" lon="11.126275373429879"><ele>648.0</ele><time>2026-03-28T12:14:16Z</time></trkpt><trkpt lat="45.54501647169362" lon="11.126099350369794"><ele>648.0</ele><time>2026-03-28T12:14:17Z</time></trkpt><trkpt lat="45.5450694996819" lon="11.125911463971688"><ele>648.0</ele><time>2026-03-28T12:14:18Z</time></trkpt><trkpt lat="45.54509718508828" lon="11.125697215804625"><ele>648.0</ele><time>2026-03-28T12:14:19Z</time></trkpt><trkpt lat="45.54510143969687" lon="11.125490063759601"><ele>649.0</ele><time>2026-03-28T12:14:20Z</time></trkpt><trkpt lat="45.54507917875159" lon="11.125292116811623"><ele>650.0</ele><time>2026-03-28T12:14:21Z</time></trkpt><trkpt lat="45.545030851013166" lon="11.125083317084174"><ele>651.0</ele><time>2026-03-28T12:14:22Z</time></trkpt><trkpt lat="45.544944256362236" lon="11.124887761351113"><ele>652.3333333333334</ele><time>2026-03-28T12:14:23Z</time></trkpt><trkpt lat="45.544856396949" lon="11.124688444793762"><ele>653.6666666666667</ele><time>2026-03-28T12:14:24Z</time></trkpt><trkpt lat="45.544769128511426" lon="11.124503786892607"><ele>655.0</ele><time>2026-03-28T12:14:25Z</time></trkpt><trkpt lat="45.54469710444532" lon="11.124339087092814"><ele>655.0</ele><time>2026-03-28T12:14:26Z</time></trkpt><trkpt lat="45.54464449116205" lon="11.124182219522046"><ele>655.0</ele><time>2026-03-28T12:14:27Z</time></trkpt><trkpt lat="45.54460933798231" lon="11.12401012221318"><ele>655.0</ele><time>2026-03-28T12:14:28Z</time></trkpt><trkpt lat="45.54460147613877" lon="11.123866521499945"><ele>655.0</ele><time>2026-03-28T12:14:29Z</time></trkpt><trkpt lat="45.54462110491528" lon="11.123731999552742"><ele>655.0</ele><time>2026-03-28T12:14:30Z</time></trkpt><trkpt lat="45.54466318395062" lon="11.123585773337268"><ele>655.25</ele><time>2026-03-28T12:14:31Z</time></trkpt><trkpt lat="45.544752954300364" lon="11.123442769816604"><ele>655.5</ele><time>2026-03-28T12:14:32Z</time></trkpt><trkpt lat="45.544865610891065" lon="11.123298260757986"><ele>655.75</ele><time>2026-03-28T12:14:33Z</time></trkpt><trkpt lat="45.544981936554386" lon="11.123148851986675"><ele>656.0</ele><time>2026-03-28T12:14:33.999Z</time></trkpt><trkpt lat="45.545106058575044" lon="11.123001520442916"><ele>654.3333333333333</ele><time>2026-03-28T12:14:34.999Z</time></trkpt><trkpt lat="45.54524205116388" lon="11.122855244023539"><ele>652.6666666666666</ele><time>2026-03-28T12:14:35.999Z</time></trkpt><trkpt lat="45.545383833024616" lon="11.122677499398302"><ele>651.0</ele><time>2026-03-28T12:14:36.999Z</time></trkpt><trkpt lat="45.54551300710811" lon="11.122512122991507"><ele>652.5</ele><time>2026-03-28T12:14:37.999Z</time></trkpt><trkpt lat="45.54564305642966" lon="11.122413377801076"><ele>654.0</ele><time>2026-03-28T12:14:38.999Z</time></trkpt><trkpt lat="45.54577375123963" lon="11.122328461190307"><ele>655.5</ele><time>2026-03-28T12:14:39.999Z</time></trkpt><trkpt lat="45.545916039269905" lon="11.122248361288374"><ele>657.0</ele><time>2026-03-28T12:14:40.999Z</time></trkpt><trkpt lat="45.546066914859196" lon="11.122206116833643"><ele>661.3333333333334</ele><time>2026-03-28T12:14:41.999Z</time></trkpt><trkpt lat="45.546214884567476" lon="11.122156881231168"><ele>665.6666666666667</ele><time>2026-03-28T12:14:42.999Z</time></trkpt><trkpt lat="45.5463723850588" lon="11.122093264432726"><ele>670.0</ele><time>2026-03-28T12:14:43.999Z</time></trkpt><trkpt lat="45.54652730032507" lon="11.122030528190207"><ele>670.0</ele><time>2026-03-28T12:14:44.999Z</time></trkpt><trkpt lat="45.54668931351847" lon="11.121966560795492"><ele>670.0</ele><time>2026-03-28T12:14:45.999Z</time></trkpt><trkpt lat="45.54685343389544" lon="11.121910463723745"><ele>670.0</ele><time>2026-03-28T12:14:46.999Z</time></trkpt><trkpt lat="45.547023195805664" lon="11.121849251288282"><ele>672.0</ele><time>2026-03-28T12:14:47.999Z</time></trkpt><trkpt lat="45.54719007261294" lon="11.121783788265603"><ele>674.0</ele><time>2026-03-28T12:14:48.999Z</time></trkpt><trkpt lat="45.54735585501511" lon="11.121717553890345"><ele>676.0</ele><time>2026-03-28T12:14:49.999Z</time></trkpt><trkpt lat="45.54752253107314" lon="11.121651944011402"><ele>676.0</ele><time>2026-03-28T12:14:50.999Z</time></trkpt><trkpt lat="45.547682339290176" lon="11.121587017826313"><ele>676.0</ele><time>2026-03-28T12:14:51.999Z</time></trkpt><trkpt lat="45.547841290107066" lon="11.121525316204918"><ele>676.0</ele><time>2026-03-28T12:14:52.999Z</time></trkpt><trkpt lat="45.54800062469734" lon="11.121455589702299"><ele>677.6666666666667</ele><time>2026-03-28T12:14:53.999Z</time></trkpt><trkpt lat="45.54816638932831" lon="11.121391782530713"><ele>679.3333333333334</ele><time>2026-03-28T12:14:54.999Z</time></trkpt><trkpt lat="45.54833427166436" lon="11.121334644612125"><ele>681.0</ele><time>2026-03-28T12:14:55.999Z</time></trkpt><trkpt lat="45.54849424229466" lon="11.121277610341643"><ele>681.0</ele><time>2026-03-28T12:14:56.999Z</time></trkpt><trkpt lat="45.54865334149418" lon="11.121215109259744"><ele>681.0</ele><time>2026-03-28T12:14:57.999Z</time></trkpt><trkpt lat="45.54881053522247" lon="11.12114782316831"><ele>681.0</ele><time>2026-03-28T12:14:58.999Z</time></trkpt><trkpt lat="45.54897475800629" lon="11.121085578143099"><ele>681.6666666666666</ele><time>2026-03-28T12:14:59.999Z</time></trkpt><trkpt lat="45.549133854892524" lon="11.12102232584219"><ele>682.3333333333333</ele><time>2026-03-28T12:15:00.999Z</time></trkpt><trkpt lat="45.549295451565015" lon="11.120959387046646"><ele>683.0</ele><time>2026-03-28T12:15:01.999Z</time></trkpt><trkpt lat="45.54946155281867" lon="11.120899634423791"><ele>683.0</ele><time>2026-03-28T12:15:02.999Z</time></trkpt><trkpt lat="45.54962720185738" lon="11.120839523643253"><ele>683.0</ele><time>2026-03-28T12:15:03.999Z</time></trkpt><trkpt lat="45.54979298388714" lon="11.120777146123034"><ele>683.0</ele><time>2026-03-28T12:15:04.999Z</time></trkpt><trkpt lat="45.54996066933776" lon="11.120713063407331"><ele>683.0</ele><time>2026-03-28T12:15:05.999Z</time></trkpt><trkpt lat="45.550125933096304" lon="11.120649312830373"><ele>683.0</ele><time>2026-03-28T12:15:06.999Z</time></trkpt><trkpt lat="45.55029120061637" lon="11.120589587080588"><ele>683.0</ele><time>2026-03-28T12:15:07.999Z</time></trkpt><trkpt lat="45.55045396360051" lon="11.120527782669633"><ele>687.0</ele><time>2026-03-28T12:15:08.999Z</time></trkpt><trkpt lat="45.55062231845595" lon="11.120471539831904"><ele>691.0</ele><time>2026-03-28T12:15:09.999Z</time></trkpt><trkpt lat="45.550781906150085" lon="11.120408993369233"><ele>695.0</ele><time>2026-03-28T12:15:10.999Z</time></trkpt><trkpt lat="45.550942455476566" lon="11.12034324739803"><ele>695.0</ele><time>2026-03-28T12:15:11.999Z</time></trkpt><trkpt lat="45.55108994575151" lon="11.120277103284383"><ele>695.0</ele><time>2026-03-28T12:15:12.999Z</time></trkpt><trkpt lat="45.55121928390785" lon="11.120182285781947"><ele>695.0</ele><time>2026-03-28T12:15:13.999Z</time></trkpt><trkpt lat="45.551338562444535" lon="11.12003633161209"><ele>698.3333333333333</ele><time>2026-03-28T12:15:14.999Z</time></trkpt><trkpt lat="45.551447440338485" lon="11.11986395050466"><ele>701.6666666666666</ele><time>2026-03-28T12:15:15.999Z</time></trkpt><trkpt lat="45.551541468080245" lon="11.119653063698186"><ele>705.0</ele><time>2026-03-28T12:15:16.999Z</time></trkpt><trkpt lat="45.55163732191291" lon="11.119431870802215"><ele>705.0</ele><time>2026-03-28T12:15:17.999Z</time></trkpt><trkpt lat="45.55172407363555" lon="11.119254444189078"><ele>705.0</ele><time>2026-03-28T12:15:18.999Z</time></trkpt><trkpt lat="45.55180244441669" lon="11.119085283046685"><ele>705.0</ele><time>2026-03-28T12:15:19.999Z</time></trkpt><trkpt lat="45.551857105613024" lon="11.118898066246667"><ele>705.0</ele><time>2026-03-28T12:15:20.999Z</time></trkpt><trkpt lat="45.551879912639016" lon="11.118676948076397"><ele>704.6666666666666</ele><time>2026-03-28T12:15:21.999Z</time></trkpt><trkpt lat="45.55187333722089" lon="11.118433970182064"><ele>704.3333333333333</ele><time>2026-03-28T12:15:22.999Z</time></trkpt><trkpt lat="45.551858793638225" lon="11.118158081333084"><ele>704.0</ele><time>2026-03-28T12:15:23.999Z</time></trkpt><trkpt lat="45.551875491905044" lon="11.117918158881135"><ele>704.75</ele><time>2026-03-28T12:15:24.999Z</time></trkpt><trkpt lat="45.55187586890176" lon="11.11771139555185"><ele>705.5</ele><time>2026-03-28T12:15:25.999Z</time></trkpt><trkpt lat="45.551865516498616" lon="11.117525467748154"><ele>706.25</ele><time>2026-03-28T12:15:26.999Z</time></trkpt><trkpt lat="45.55187964296557" lon="11.117355031894611"><ele>707.0</ele><time>2026-03-28T12:15:27.999Z</time></trkpt><trkpt lat="45.55191214076804" lon="11.117177330305513"><ele>707.6666666666666</ele><time>2026-03-28T12:15:28.999Z</time></trkpt><trkpt lat="45.551973741842055" lon="11.11699619372412"><ele>708.3333333333334</ele><time>2026-03-28T12:15:29.999Z</time></trkpt><trkpt lat="45.55207650966847" lon="11.116819350842208"><ele>709.0</ele><time>2026-03-28T12:15:30.999Z</time></trkpt><trkpt lat="45.552191498214476" lon="11.11666993748582"><ele>708.4000000000001</ele><time>2026-03-28T12:15:31.999Z</time></trkpt><trkpt lat="45.552293470469394" lon="11.116583182577935"><ele>707.8</ele><time>2026-03-28T12:15:32.999Z</time></trkpt><trkpt lat="45.552396255685004" lon="11.116561835782615"><ele>707.2</ele><time>2026-03-28T12:15:33.999Z</time></trkpt><trkpt lat="45.55248965299061" lon="11.116630990763944"><ele>706.5999999999999</ele><time>2026-03-28T12:15:34.999Z</time></trkpt><trkpt lat="45.55257740349981" lon="11.116742840333325"><ele>706.0</ele><time>2026-03-28T12:15:36Z</time></trkpt><trkpt lat="45.552652170216234" lon="11.116914360261312"><ele>710.6666666666667</ele><time>2026-03-28T12:15:37Z</time></trkpt><trkpt lat="45.5527463499007" lon="11.117112359884262"><ele>715.3333333333334</ele><time>2026-03-28T12:15:38Z</time></trkpt><trkpt lat="45.55286726538364" lon="11.117315069147216"><ele>720.0</ele><time>2026-03-28T12:15:39Z</time></trkpt><trkpt lat="45.552978868734144" lon="11.117456852758622"><ele>723.3333333333334</ele><time>2026-03-28T12:15:40Z</time></trkpt><trkpt lat="45.5531081466268" lon="11.117548069597506"><ele>726.6666666666667</ele><time>2026-03-28T12:15:41Z</time></trkpt><trkpt lat="45.553262362887885" lon="11.117610045199859"><ele>730.0</ele><time>2026-03-28T12:15:42Z</time></trkpt><trkpt lat="45.55346252905766" lon="11.117656711941073"><ele>730.0</ele><time>2026-03-28T12:15:43Z</time></trkpt><trkpt lat="45.55368946005124" lon="11.117720741429684"><ele>730.0</ele><time>2026-03-28T12:15:44Z</time></trkpt><trkpt lat="45.553950809801236" lon="11.117818402850839"><ele>730.5</ele><time>2026-03-28T12:15:45Z</time></trkpt><trkpt lat="45.55419145452727" lon="11.11787795873393"><ele>731.0</ele><time>2026-03-28T12:15:46Z</time></trkpt><trkpt lat="45.55441023734491" lon="11.1178957945236"><ele>732.6666666666666</ele><time>2026-03-28T12:15:47Z</time></trkpt><trkpt lat="45.554624368745344" lon="11.117886557135572"><ele>734.3333333333334</ele><time>2026-03-28T12:15:48Z</time></trkpt><trkpt lat="45.55481108434442" lon="11.117877275458113"><ele>736.0</ele><time>2026-03-28T12:15:49Z</time></trkpt><trkpt lat="45.554988411978464" lon="11.117885899099248"><ele>736.0</ele><time>2026-03-28T12:15:50Z</time></trkpt><trkpt lat="45.55517007191831" lon="11.117900862826897"><ele>736.0</ele><time>2026-03-28T12:15:51Z</time></trkpt><trkpt lat="45.55536858983602" lon="11.117892419593021"><ele>736.0</ele><time>2026-03-28T12:15:52Z</time></trkpt><trkpt lat="45.55557548748023" lon="11.117833658417286"><ele>740.3333333333334</ele><time>2026-03-28T12:15:53Z</time></trkpt><trkpt lat="45.55578634994277" lon="11.117729581114178"><ele>744.6666666666666</ele><time>2026-03-28T12:15:54Z</time></trkpt><trkpt lat="45.555988005683474" lon="11.11760353183389"><ele>749.0</ele><time>2026-03-28T12:15:55Z</time></trkpt><trkpt lat="45.55616454375846" lon="11.11750535539489"><ele>751.0</ele><time>2026-03-28T12:15:56Z</time></trkpt><trkpt lat="45.55632124867072" lon="11.117415495117223"><ele>753.0</ele><time>2026-03-28T12:15:57Z</time></trkpt><trkpt lat="45.55644713737654" lon="11.117283043123887"><ele>755.0</ele><time>2026-03-28T12:15:58Z</time></trkpt><trkpt lat="45.55654099207556" lon="11.117102842184693"><ele>755.0</ele><time>2026-03-28T12:15:59Z</time></trkpt><trkpt lat="45.55661090281778" lon="11.116895469249727"><ele>755.0</ele><time>2026-03-28T12:16:00Z</time></trkpt><trkpt lat="45.5566968681143" lon="11.116727043608751"><ele>755.0</ele><time>2026-03-28T12:16:01Z</time></trkpt><trkpt lat="45.55678209127899" lon="11.116573481442819"><ele>755.0</ele><time>2026-03-28T12:16:02Z</time></trkpt><trkpt lat="45.55688978982356" lon="11.116437079951135"><ele>757.3333333333333</ele><time>2026-03-28T12:16:03Z</time></trkpt><trkpt lat="45.55701853865114" lon="11.116232954106918"><ele>759.6666666666666</ele><time>2026-03-28T12:16:04Z</time></trkpt><trkpt lat="45.5572110773698" lon="11.116264241982345"><ele>762.0</ele><time>2026-03-28T12:16:05Z</time></trkpt><trkpt lat="45.55735072006347" lon="11.116196735200841"><ele>762.0</ele><time>2026-03-28T12:16:06Z</time></trkpt><trkpt lat="45.557442105764515" lon="11.116084041057986"><ele>762.0</ele><time>2026-03-28T12:16:07Z</time></trkpt><trkpt lat="45.55748902942377" lon="11.115932919019926"><ele>762.0</ele><time>2026-03-28T12:16:08Z</time></trkpt><trkpt lat="45.557510896448754" lon="11.11574053542801"><ele>762.0</ele><time>2026-03-28T12:16:09Z</time></trkpt><trkpt lat="45.55754541014698" lon="11.115586110521434"><ele>762.75</ele><time>2026-03-28T12:16:10Z</time></trkpt><trkpt lat="45.55761718588648" lon="11.115470347742905"><ele>763.5</ele><time>2026-03-28T12:16:11Z</time></trkpt><trkpt lat="45.55772538767249" lon="11.11538650803358"><ele>764.25</ele><time>2026-03-28T12:16:12Z</time></trkpt><trkpt lat="45.55787705568978" lon="11.11532482836067"><ele>765.0</ele><time>2026-03-28T12:16:13Z</time></trkpt><trkpt lat="45.558070148490216" lon="11.115269234738854"><ele>765.0</ele><time>2026-03-28T12:16:14Z</time></trkpt><trkpt lat="45.5582877257223" lon="11.115194699773355"><ele>765.0</ele><time>2026-03-28T12:16:15Z</time></trkpt><trkpt lat="45.55846381502831" lon="11.115126331505968"><ele>765.0</ele><time>2026-03-28T12:16:16Z</time></trkpt><trkpt lat="45.558618212099816" lon="11.115080647127684"><ele>765.25</ele><time>2026-03-28T12:16:17Z</time></trkpt><trkpt lat="45.55874540431152" lon="11.11508136482363"><ele>765.5</ele><time>2026-03-28T12:16:18Z</time></trkpt><trkpt lat="45.558862069103384" lon="11.11514247588483"><ele>765.75</ele><time>2026-03-28T12:16:19Z</time></trkpt><trkpt lat="45.55897406218231" lon="11.115256631686357"><ele>766.0</ele><time>2026-03-28T12:16:20Z</time></trkpt><trkpt lat="45.559043711683195" lon="11.115401371832212"><ele>766.0</ele><time>2026-03-28T12:16:21Z</time></trkpt><trkpt lat="45.5590972853516" lon="11.115606477705438"><ele>766.0</ele><time>2026-03-28T12:16:22Z</time></trkpt><trkpt lat="45.559147414227034" lon="11.115824498665463"><ele>766.0</ele><time>2026-03-28T12:16:23Z</time></trkpt><trkpt lat="45.55919777751839" lon="11.115988165192885"><ele>766.0</ele><time>2026-03-28T12:16:24Z</time></trkpt><trkpt lat="45.559252961280606" lon="11.116104079236393"><ele>765.25</ele><time>2026-03-28T12:16:25Z</time></trkpt><trkpt lat="45.55933697577076" lon="11.116189444005746"><ele>764.5</ele><time>2026-03-28T12:16:26Z</time></trkpt><trkpt lat="45.55944781868176" lon="11.116225709808116"><ele>763.75</ele><time>2026-03-28T12:16:27Z</time></trkpt><trkpt lat="45.55957759852912" lon="11.116219814040464"><ele>763.0</ele><time>2026-03-28T12:16:28Z</time></trkpt><trkpt lat="45.55970771947357" lon="11.116183072517119"><ele>763.0</ele><time>2026-03-28T12:16:29Z</time></trkpt><trkpt lat="45.55981426322924" lon="11.116173452768802"><ele>763.0</ele><time>2026-03-28T12:16:30Z</time></trkpt><trkpt lat="45.55993095155907" lon="11.116224127958938"><ele>763.0</ele><time>2026-03-28T12:16:31Z</time></trkpt><trkpt lat="45.56006831532385" lon="11.11635638143354"><ele>763.0</ele><time>2026-03-28T12:16:32Z</time></trkpt><trkpt lat="45.56021893917238" lon="11.116527612660542"><ele>766.3333333333334</ele><time>2026-03-28T12:16:33Z</time></trkpt><trkpt lat="45.56037170428648" lon="11.116712204052941"><ele>769.6666666666667</ele><time>2026-03-28T12:16:34Z</time></trkpt><trkpt lat="45.56049707310902" lon="11.11685410699267"><ele>773.0</ele><time>2026-03-28T12:16:35Z</time></trkpt><trkpt lat="45.56061194012645" lon="11.11698747960732"><ele>773.0</ele><time>2026-03-28T12:16:36Z</time></trkpt><trkpt lat="45.560733230712174" lon="11.11707774109528"><ele>773.0</ele><time>2026-03-28T12:16:37Z</time></trkpt><trkpt lat="45.560883831519526" lon="11.117149231733077"><ele>773.0</ele><time>2026-03-28T12:16:38Z</time></trkpt><trkpt lat="45.56106400073051" lon="11.11717377873811"><ele>775.3333333333334</ele><time>2026-03-28T12:16:39Z</time></trkpt><trkpt lat="45.56126438829552" lon="11.117196812627116"><ele>777.6666666666667</ele><time>2026-03-28T12:16:40Z</time></trkpt><trkpt lat="45.5614369852162" lon="11.11722200754775"><ele>780.0</ele><time>2026-03-28T12:16:41Z</time></trkpt><trkpt lat="45.561581732494645" lon="11.11724945785967"><ele>780.0</ele><time>2026-03-28T12:16:42Z</time></trkpt><trkpt lat="45.56169540669656" lon="11.117244516721659"><ele>780.0</ele><time>2026-03-28T12:16:42.999Z</time></trkpt><trkpt lat="45.56178250685702" lon="11.11717116315563"><ele>780.0</ele><time>2026-03-28T12:16:43.999Z</time></trkpt><trkpt lat="45.56185790867009" lon="11.117052727614645"><ele>780.0</ele><time>2026-03-28T12:16:44.999Z</time></trkpt><trkpt lat="45.5619068100958" lon="11.116890729814344"><ele>780.0</ele><time>2026-03-28T12:16:45.999Z</time></trkpt><trkpt lat="45.5619151811451" lon="11.116711739443902"><ele>780.0</ele><time>2026-03-28T12:16:46.999Z</time></trkpt><trkpt lat="45.561878348914135" lon="11.11652732890641"><ele>780.0</ele><time>2026-03-28T12:16:47.999Z</time></trkpt><trkpt lat="45.56182067010724" lon="11.116324929294045"><ele>780.0</ele><time>2026-03-28T12:16:48.999Z</time></trkpt><trkpt lat="45.561771627864736" lon="11.116106932166367"><ele>781.0</ele><time>2026-03-28T12:16:49.999Z</time></trkpt><trkpt lat="45.561736716263766" lon="11.115900705263634"><ele>782.0</ele><time>2026-03-28T12:16:50.999Z</time></trkpt><trkpt lat="45.56172026755218" lon="11.115717485249474"><ele>783.0</ele><time>2026-03-28T12:16:51.999Z</time></trkpt><trkpt lat="45.561708109852425" lon="11.115542673849408"><ele>784.0</ele><time>2026-03-28T12:16:52.999Z</time></trkpt><trkpt lat="45.561706011834744" lon="11.115359504996233"><ele>784.0</ele><time>2026-03-28T12:16:53.999Z</time></trkpt><trkpt lat="45.56171396480147" lon="11.115168809348349"><ele>784.0</ele><time>2026-03-28T12:16:54.999Z</time></trkpt><trkpt lat="45.561721645527186" lon="11.114968231576935"><ele>784.0</ele><time>2026-03-28T12:16:55.999Z</time></trkpt><trkpt lat="45.56175572958717" lon="11.114772127623802"><ele>784.0</ele><time>2026-03-28T12:16:56.999Z</time></trkpt><trkpt lat="45.56179716232775" lon="11.11458195057635"><ele>783.25</ele><time>2026-03-28T12:16:57.999Z</time></trkpt><trkpt lat="45.5618712254858" lon="11.114411129665559"><ele>782.5</ele><time>2026-03-28T12:16:58.999Z</time></trkpt><trkpt lat="45.561922827968985" lon="11.11423582798231"><ele>781.75</ele><time>2026-03-28T12:16:59.999Z</time></trkpt><trkpt lat="45.5620010856313" lon="11.114089604828077"><ele>781.0</ele><time>2026-03-28T12:17:00.999Z</time></trkpt><trkpt lat="45.56208325471018" lon="11.113980822741036"><ele>779.75</ele><time>2026-03-28T12:17:01.999Z</time></trkpt><trkpt lat="45.56218447891472" lon="11.113904694610191"><ele>778.5</ele><time>2026-03-28T12:17:02.999Z</time></trkpt><trkpt lat="45.562304412914784" lon="11.113866606000034"><ele>777.25</ele><time>2026-03-28T12:17:03.999Z</time></trkpt><trkpt lat="45.5624289659401" lon="11.113853683844694"><ele>776.0</ele><time>2026-03-28T12:17:04.999Z</time></trkpt><trkpt lat="45.56254132131225" lon="11.113878220334692"><ele>776.0</ele><time>2026-03-28T12:17:05.999Z</time></trkpt><trkpt lat="45.56263234455256" lon="11.113926026793445"><ele>776.0</ele><time>2026-03-28T12:17:06.999Z</time></trkpt><trkpt lat="45.56270787626845" lon="11.113985641502826"><ele>776.0</ele><time>2026-03-28T12:17:07.999Z</time></trkpt><trkpt lat="45.56278608291947" lon="11.114049341823476"><ele>776.0</ele><time>2026-03-28T12:17:08.999Z</time></trkpt><trkpt lat="45.56287012781137" lon="11.114124038755548"><ele>776.0</ele><time>2026-03-28T12:17:09.999Z</time></trkpt><trkpt lat="45.5629547353331" lon="11.114217074792496"><ele>777.0</ele><time>2026-03-28T12:17:10.999Z</time></trkpt><trkpt lat="45.563033607461776" lon="11.114324664723762"><ele>778.0</ele><time>2026-03-28T12:17:11.999Z</time></trkpt><trkpt lat="45.56310298550115" lon="11.114444572763913"><ele>779.0</ele><time>2026-03-28T12:17:12.999Z</time></trkpt><trkpt lat="45.56317719417093" lon="11.114577664366768"><ele>780.0</ele><time>2026-03-28T12:17:13.999Z</time></trkpt><trkpt lat="45.56325337193053" lon="11.114721688750597"><ele>780.0</ele><time>2026-03-28T12:17:14.999Z</time></trkpt><trkpt lat="45.56332172975308" lon="11.11488074078853"><ele>780.0</ele><time>2026-03-28T12:17:15.999Z</time></trkpt><trkpt lat="45.56337536900396" lon="11.115053702551986"><ele>780.0</ele><time>2026-03-28T12:17:16.999Z</time></trkpt><trkpt lat="45.5634102616763" lon="11.11522748961711"><ele>780.0</ele><time>2026-03-28T12:17:17.999Z</time></trkpt><trkpt lat="45.563437612032715" lon="11.115383477069178"><ele>782.5</ele><time>2026-03-28T12:17:18.999Z</time></trkpt><trkpt lat="45.56345402495225" lon="11.11552151641038"><ele>785.0</ele><time>2026-03-28T12:17:19.999Z</time></trkpt><trkpt lat="45.563469440649506" lon="11.115645186640286"><ele>787.5</ele><time>2026-03-28T12:17:20.999Z</time></trkpt><trkpt lat="45.563495639328245" lon="11.115751973864487"><ele>790.0</ele><time>2026-03-28T12:17:21.999Z</time></trkpt><trkpt lat="45.56354471422728" lon="11.115838016544805"><ele>792.5</ele><time>2026-03-28T12:17:22.999Z</time></trkpt><trkpt lat="45.563614118262564" lon="11.115886318075777"><ele>795.0</ele><time>2026-03-28T12:17:23.999Z</time></trkpt><trkpt lat="45.56369309663909" lon="11.115891238799888"><ele>792.5</ele><time>2026-03-28T12:17:24.999Z</time></trkpt><trkpt lat="45.56376884227055" lon="11.115849477001083"><ele>790.0</ele><time>2026-03-28T12:17:25.999Z</time></trkpt><trkpt lat="45.5638392949187" lon="11.115768411163602"><ele>787.5</ele><time>2026-03-28T12:17:26.999Z</time></trkpt><trkpt lat="45.56393292750177" lon="11.115629462271711"><ele>785.0</ele><time>2026-03-28T12:17:27.999Z</time></trkpt><trkpt lat="45.56405860209599" lon="11.11551825253366"><ele>785.0</ele><time>2026-03-28T12:17:28.999Z</time></trkpt><trkpt lat="45.56415312940591" lon="11.11540797202886"><ele>785.0</ele><time>2026-03-28T12:17:29.999Z</time></trkpt><trkpt lat="45.564253128584156" lon="11.115349254694307"><ele>785.0</ele><time>2026-03-28T12:17:30.999Z</time></trkpt><trkpt lat="45.56435873007772" lon="11.115344907581651"><ele>785.0</ele><time>2026-03-28T12:17:31.999Z</time></trkpt><trkpt lat="45.56446829874428" lon="11.115398236868966"><ele>787.4</ele><time>2026-03-28T12:17:32.999Z</time></trkpt><trkpt lat="45.56455782884339" lon="11.115525975860358"><ele>789.8</ele><time>2026-03-28T12:17:33.999Z</time></trkpt><trkpt lat="45.56464668347058" lon="11.115628189824289"><ele>792.2</ele><time>2026-03-28T12:17:34.999Z</time></trkpt><trkpt lat="45.56470786186902" lon="11.115724792208345"><ele>794.6</ele><time>2026-03-28T12:17:35.999Z</time></trkpt><trkpt lat="45.56477115603884" lon="11.115789386757692"><ele>797.0</ele><time>2026-03-28T12:17:36.999Z</time></trkpt><trkpt lat="45.56484111459003" lon="11.115816020938846"><ele>797.0</ele><time>2026-03-28T12:17:37.999Z</time></trkpt><trkpt lat="45.5649220319725" lon="11.115811483821055"><ele>797.0</ele><time>2026-03-28T12:17:38.999Z</time></trkpt><trkpt lat="45.565008012755264" lon="11.115760091123098"><ele>797.0</ele><time>2026-03-28T12:17:39.999Z</time></trkpt><trkpt lat="45.565080792423934" lon="11.115675625034898"><ele>797.0</ele><time>2026-03-28T12:17:40.999Z</time></trkpt><trkpt lat="45.565129502003074" lon="11.11556094846197"><ele>797.0</ele><time>2026-03-28T12:17:42Z</time></trkpt><trkpt lat="45.56517994152382" lon="11.115454662268133"><ele>797.0000000000001</ele><time>2026-03-28T12:17:43Z</time></trkpt><trkpt lat="45.56522653620424" lon="11.115350888891095"><ele>797.0</ele><time>2026-03-28T12:17:44Z</time></trkpt><trkpt lat="45.56527804483363" lon="11.11524066368459"><ele>797.0</ele><time>2026-03-28T12:17:45Z</time></trkpt><trkpt lat="45.56531963305569" lon="11.11513012488074"><ele>797.0</ele><time>2026-03-28T12:17:46Z</time></trkpt><trkpt lat="45.565361545448596" lon="11.115052107016327"><ele>797.0000000000001</ele><time>2026-03-28T12:17:47Z</time></trkpt><trkpt lat="45.565404484451406" lon="11.114985294745818"><ele>797.0</ele><time>2026-03-28T12:17:48Z</time></trkpt><trkpt lat="45.56545004387859" lon="11.114921748132822"><ele>799.1666666666667</ele><time>2026-03-28T12:17:49Z</time></trkpt><trkpt lat="45.56548719691479" lon="11.114836592281982"><ele>801.3333333333334</ele><time>2026-03-28T12:17:50Z</time></trkpt><trkpt lat="45.56550973022529" lon="11.114728300227439"><ele>803.5</ele><time>2026-03-28T12:17:51Z</time></trkpt><trkpt lat="45.565519960147775" lon="11.11460430936737"><ele>805.6666666666667</ele><time>2026-03-28T12:17:52Z</time></trkpt><trkpt lat="45.565518927277914" lon="11.114470813503212"><ele>807.8333333333334</ele><time>2026-03-28T12:17:53Z</time></trkpt><trkpt lat="45.56549671461179" lon="11.114337998434422"><ele>810.0</ele><time>2026-03-28T12:17:54Z</time></trkpt><trkpt lat="45.565459356291434" lon="11.114219359781215"><ele>810.0</ele><time>2026-03-28T12:17:55Z</time></trkpt><trkpt lat="45.56542747359993" lon="11.114119897761837"><ele>810.0</ele><time>2026-03-28T12:17:56Z</time></trkpt><trkpt lat="45.56543059084297" lon="11.114007013538858"><ele>810.0</ele><time>2026-03-28T12:17:57Z</time></trkpt><trkpt lat="45.56542025413596" lon="11.113887833382678"><ele>810.0</ele><time>2026-03-28T12:17:58Z</time></trkpt><trkpt lat="45.565432539913644" lon="11.11376879770036"><ele>810.0</ele><time>2026-03-28T12:17:59Z</time></trkpt><trkpt lat="45.56545011673487" lon="11.113672654685805"><ele>810.0</ele><time>2026-03-28T12:18:00Z</time></trkpt><trkpt lat="45.565474078298664" lon="11.113578140729393"><ele>809.2857142857142</ele><time>2026-03-28T12:18:01Z</time></trkpt><trkpt lat="45.56549729351491" lon="11.113491125328727"><ele>808.5714285714286</ele><time>2026-03-28T12:18:02Z</time></trkpt><trkpt lat="45.565523037651126" lon="11.11340416281385"><ele>807.8571428571429</ele><time>2026-03-28T12:18:03Z</time></trkpt><trkpt lat="45.56555855064132" lon="11.11332127125164"><ele>807.1428571428571</ele><time>2026-03-28T12:18:04Z</time></trkpt><trkpt lat="45.5656202967292" lon="11.113265320355163"><ele>806.4285714285714</ele><time>2026-03-28T12:18:05Z</time></trkpt><trkpt lat="45.565690304233215" lon="11.113248393822273"><ele>805.7142857142857</ele><time>2026-03-28T12:18:06Z</time></trkpt><trkpt lat="45.56575796269121" lon="11.113249309498272"><ele>805.0</ele><time>2026-03-28T12:18:07Z</time></trkpt><trkpt lat="45.56587441918798" lon="11.113258746905492"><ele>804.9999999999999</ele><time>2026-03-28T12:18:09Z</time></trkpt><trkpt lat="45.56596104542922" lon="11.113283472432043"><ele>805.0</ele><time>2026-03-28T12:18:11Z</time></trkpt><trkpt lat="45.56604400148825" lon="11.113323014041582"><ele>805.0</ele><time>2026-03-28T12:18:13Z</time></trkpt><trkpt lat="45.56610895520743" lon="11.113354270943649"><ele>805.0</ele><time>2026-03-28T12:18:14Z</time></trkpt><trkpt lat="45.566193763839074" lon="11.113385466002827"><ele>804.9999999999999</ele><time>2026-03-28T12:18:15Z</time></trkpt><trkpt lat="45.56629193008269" lon="11.113421304747105"><ele>805.0</ele><time>2026-03-28T12:18:16Z</time></trkpt><trkpt lat="45.56636514999064" lon="11.113468908342146"><ele>805.1666666666666</ele><time>2026-03-28T12:18:17Z</time></trkpt><trkpt lat="45.56642825086432" lon="11.113520908753417"><ele>805.3333333333333</ele><time>2026-03-28T12:18:18Z</time></trkpt><trkpt lat="45.56648603283717" lon="11.113590054806785"><ele>805.5</ele><time>2026-03-28T12:18:19Z</time></trkpt><trkpt lat="45.566541385532986" lon="11.113696638533902"><ele>805.6666666666667</ele><time>2026-03-28T12:18:20Z</time></trkpt><trkpt lat="45.56658369804221" lon="11.113820856290614"><ele>805.8333333333334</ele><time>2026-03-28T12:18:21Z</time></trkpt><trkpt lat="45.566600546343636" lon="11.113947999082697"><ele>806.0</ele><time>2026-03-28T12:18:22Z</time></trkpt><trkpt lat="45.56659451202928" lon="11.11406098802736"><ele>807.1999999999999</ele><time>2026-03-28T12:18:23Z</time></trkpt><trkpt lat="45.56656563964976" lon="11.114175485984813"><ele>808.4</ele><time>2026-03-28T12:18:24Z</time></trkpt><trkpt lat="45.56650576213882" lon="11.11427274300724"><ele>809.6</ele><time>2026-03-28T12:18:25Z</time></trkpt><trkpt lat="45.56642773637615" lon="11.114383957052867"><ele>810.8</ele><time>2026-03-28T12:18:26Z</time></trkpt><trkpt lat="45.56632312864792" lon="11.114516233914054"><ele>812.0</ele><time>2026-03-28T12:18:27Z</time></trkpt><trkpt lat="45.566206088107855" lon="11.114689122626544"><ele>812.3333333333334</ele><time>2026-03-28T12:18:28Z</time></trkpt><trkpt lat="45.56607984620409" lon="11.114883774563083"><ele>812.6666666666667</ele><time>2026-03-28T12:18:29Z</time></trkpt><trkpt lat="45.56596297800306" lon="11.115115741153353"><ele>813.0</ele><time>2026-03-28T12:18:30Z</time></trkpt><trkpt lat="45.56583365825449" lon="11.115361734017759"><ele>813.0</ele><time>2026-03-28T12:18:31Z</time></trkpt><trkpt lat="45.56571131032734" lon="11.115623587123128"><ele>813.0</ele><time>2026-03-28T12:18:32Z</time></trkpt><trkpt lat="45.565612067498726" lon="11.11585203488129"><ele>813.0</ele><time>2026-03-28T12:18:33Z</time></trkpt><trkpt lat="45.565525588636326" lon="11.116041610925526"><ele>813.75</ele><time>2026-03-28T12:18:34Z</time></trkpt><trkpt lat="45.56544976512249" lon="11.116209818251376"><ele>814.5</ele><time>2026-03-28T12:18:35Z</time></trkpt><trkpt lat="45.56538245913733" lon="11.116366618991162"><ele>815.25</ele><time>2026-03-28T12:18:36Z</time></trkpt><trkpt lat="45.56532458271126" lon="11.116511539829283"><ele>816.0</ele><time>2026-03-28T12:18:37Z</time></trkpt><trkpt lat="45.56526686782007" lon="11.116627596557663"><ele>820.1999999999999</ele><time>2026-03-28T12:18:38Z</time></trkpt><trkpt lat="45.565196484121984" lon="11.116720052709816"><ele>824.4</ele><time>2026-03-28T12:18:39Z</time></trkpt><trkpt lat="45.565103609254024" lon="11.116792171675622"><ele>828.6</ele><time>2026-03-28T12:18:40Z</time></trkpt><trkpt lat="45.56499626591806" lon="11.11678771613993"><ele>832.8</ele><time>2026-03-28T12:18:41Z</time></trkpt><trkpt lat="45.56488295009405" lon="11.116790180856675"><ele>837.0</ele><time>2026-03-28T12:18:42Z</time></trkpt><trkpt lat="45.56476633642643" lon="11.116685802227453"><ele>837.0</ele><time>2026-03-28T12:18:43Z</time></trkpt><trkpt lat="45.564630760789164" lon="11.116606173512043"><ele>837.0</ele><time>2026-03-28T12:18:44Z</time></trkpt><trkpt lat="45.564527481231046" lon="11.116520742104765"><ele>837.0</ele><time>2026-03-28T12:18:45Z</time></trkpt><trkpt lat="45.56443227163317" lon="11.116475179761148"><ele>837.0</ele><time>2026-03-28T12:18:46Z</time></trkpt><trkpt lat="45.56434516886714" lon="11.116477444204934"><ele>836.0</ele><time>2026-03-28T12:18:47Z</time></trkpt><trkpt lat="45.56427763712343" lon="11.116531802283449"><ele>835.0</ele><time>2026-03-28T12:18:48Z</time></trkpt><trkpt lat="45.564228065758705" lon="11.1165954839421"><ele>834.0</ele><time>2026-03-28T12:18:49Z</time></trkpt><trkpt lat="45.56422858961736" lon="11.116723567885005"><ele>833.0</ele><time>2026-03-28T12:18:50Z</time></trkpt><trkpt lat="45.56424133260399" lon="11.116828441583955"><ele>832.0</ele><time>2026-03-28T12:18:51Z</time></trkpt><trkpt lat="45.56436173695443" lon="11.116885332426936"><ele>831.0</ele><time>2026-03-28T12:18:52Z</time></trkpt><trkpt lat="45.564473029834886" lon="11.116914869362603"><ele>833.0</ele><time>2026-03-28T12:18:53Z</time></trkpt><trkpt lat="45.56461664220352" lon="11.116931243812658"><ele>835.0</ele><time>2026-03-28T12:18:53.999Z</time></trkpt><trkpt lat="45.564773907227035" lon="11.116971577887966"><ele>837.0</ele><time>2026-03-28T12:18:54.999Z</time></trkpt><trkpt lat="45.56494336457416" lon="11.117049331221457"><ele>837.0</ele><time>2026-03-28T12:18:55.999Z</time></trkpt><trkpt lat="45.565094172419116" lon="11.117139571455441"><ele>837.0</ele><time>2026-03-28T12:18:56.999Z</time></trkpt><trkpt lat="45.565216636469856" lon="11.117200909034969"><ele>837.0</ele><time>2026-03-28T12:18:57.999Z</time></trkpt><trkpt lat="45.56532819971658" lon="11.117205571344694"><ele>837.0</ele><time>2026-03-28T12:18:58.999Z</time></trkpt><trkpt lat="45.56542513941055" lon="11.117125905156325"><ele>840.5</ele><time>2026-03-28T12:18:59.999Z</time></trkpt><trkpt lat="45.56551810710123" lon="11.117010008275354"><ele>844.0</ele><time>2026-03-28T12:19:00.999Z</time></trkpt><trkpt lat="45.56562141043869" lon="11.11689472597222"><ele>847.5</ele><time>2026-03-28T12:19:01.999Z</time></trkpt><trkpt lat="45.56573198871953" lon="11.11680748263765"><ele>851.0</ele><time>2026-03-28T12:19:02.999Z</time></trkpt><trkpt lat="45.565859741178556" lon="11.116818020659528"><ele>851.0</ele><time>2026-03-28T12:19:03.999Z</time></trkpt><trkpt lat="45.56600566164496" lon="11.116818836360617"><ele>851.0</ele><time>2026-03-28T12:19:04.999Z</time></trkpt><trkpt lat="45.5661698812088" lon="11.116824538720017"><ele>851.0</ele><time>2026-03-28T12:19:05.999Z</time></trkpt><trkpt lat="45.56633899082604" lon="11.116813160004181"><ele>852.0</ele><time>2026-03-28T12:19:06.999Z</time></trkpt><trkpt lat="45.56650620288879" lon="11.116812789230172"><ele>853.0</ele><time>2026-03-28T12:19:07.999Z</time></trkpt><trkpt lat="45.56665453840651" lon="11.116823282399755"><ele>854.0</ele><time>2026-03-28T12:19:08.999Z</time></trkpt><trkpt lat="45.56677529350422" lon="11.116891267947093"><ele>855.0</ele><time>2026-03-28T12:19:09.999Z</time></trkpt><trkpt lat="45.56687912975163" lon="11.116976830522168"><ele>855.0</ele><time>2026-03-28T12:19:10.999Z</time></trkpt><trkpt lat="45.56698807849704" lon="11.117115298526667"><ele>855.0</ele><time>2026-03-28T12:19:11.999Z</time></trkpt><trkpt lat="45.56712158191653" lon="11.1172711846488"><ele>855.0</ele><time>2026-03-28T12:19:12.999Z</time></trkpt><trkpt lat="45.567225952662206" lon="11.11741287064146"><ele>853.25</ele><time>2026-03-28T12:19:13.999Z</time></trkpt><trkpt lat="45.567315347158" lon="11.11748160794034"><ele>851.5</ele><time>2026-03-28T12:19:14.999Z</time></trkpt><trkpt lat="45.56741593610062" lon="11.11748875942084"><ele>849.75</ele><time>2026-03-28T12:19:15.999Z</time></trkpt><trkpt lat="45.56752590720326" lon="11.117450730789853"><ele>848.0</ele><time>2026-03-28T12:19:16.999Z</time></trkpt><trkpt lat="45.567648688331104" lon="11.117347812131303"><ele>848.0</ele><time>2026-03-28T12:19:17.999Z</time></trkpt><trkpt lat="45.56780434123227" lon="11.11726207213494"><ele>848.0</ele><time>2026-03-28T12:19:18.999Z</time></trkpt><trkpt lat="45.56795139868288" lon="11.117166403485271"><ele>848.0</ele><time>2026-03-28T12:19:19.999Z</time></trkpt><trkpt lat="45.56808214591629" lon="11.11709987606478"><ele>851.0</ele><time>2026-03-28T12:19:20.999Z</time></trkpt><trkpt lat="45.568210626285804" lon="11.11707085817899"><ele>854.0</ele><time>2026-03-28T12:19:21.999Z</time></trkpt><trkpt lat="45.56835702153099" lon="11.117082845098786"><ele>857.0</ele><time>2026-03-28T12:19:22.999Z</time></trkpt><trkpt lat="45.568502270411884" lon="11.117122898172715"><ele>860.0</ele><time>2026-03-28T12:19:23.999Z</time></trkpt><trkpt lat="45.568645733486235" lon="11.117196249572698"><ele>859.3333333333334</ele><time>2026-03-28T12:19:24.999Z</time></trkpt><trkpt lat="45.56879987437385" lon="11.117301414896547"><ele>858.6666666666667</ele><time>2026-03-28T12:19:25.999Z</time></trkpt><trkpt lat="45.568966935280564" lon="11.117435998369567"><ele>858.0</ele><time>2026-03-28T12:19:26.999Z</time></trkpt><trkpt lat="45.56914549583536" lon="11.117598706264351"><ele>857.5</ele><time>2026-03-28T12:19:27.999Z</time></trkpt><trkpt lat="45.56931848121034" lon="11.117761655774315"><ele>857.0</ele><time>2026-03-28T12:19:28.999Z</time></trkpt><trkpt lat="45.56952770038627" lon="11.117955581876684"><ele>857.0</ele><time>2026-03-28T12:19:29.999Z</time></trkpt><trkpt lat="45.56973042537901" lon="11.118144109966464"><ele>857.0</ele><time>2026-03-28T12:19:30.999Z</time></trkpt><trkpt lat="45.56991675727866" lon="11.118291550266978"><ele>865.0</ele><time>2026-03-28T12:19:31.999Z</time></trkpt><trkpt lat="45.57007500129132" lon="11.118443655638227"><ele>873.0</ele><time>2026-03-28T12:19:32.999Z</time></trkpt><trkpt lat="45.570231224718405" lon="11.11857089876125"><ele>881.0</ele><time>2026-03-28T12:19:33.999Z</time></trkpt><trkpt lat="45.570411365257804" lon="11.11866034851803"><ele>881.0</ele><time>2026-03-28T12:19:34.999Z</time></trkpt><trkpt lat="45.57060930715346" lon="11.118717573063364"><ele>881.0</ele><time>2026-03-28T12:19:35.999Z</time></trkpt><trkpt lat="45.570819911348856" lon="11.118754367626618"><ele>881.0</ele><time>2026-03-28T12:19:36.999Z</time></trkpt><trkpt lat="45.571011954946954" lon="11.11880104860176"><ele>881.0</ele><time>2026-03-28T12:19:37.999Z</time></trkpt><trkpt lat="45.57118247669792" lon="11.118827794501767"><ele>881.0</ele><time>2026-03-28T12:19:38.999Z</time></trkpt><trkpt lat="45.57134216457758" lon="11.118862066409399"><ele>881.0</ele><time>2026-03-28T12:19:39.999Z</time></trkpt><trkpt lat="45.571479803710496" lon="11.118915004845427"><ele>879.3333333333334</ele><time>2026-03-28T12:19:40.999Z</time></trkpt><trkpt lat="45.57162576305539" lon="11.119016142566975"><ele>877.6666666666667</ele><time>2026-03-28T12:19:41.999Z</time></trkpt><trkpt lat="45.57176148055876" lon="11.119153786559977"><ele>876.0</ele><time>2026-03-28T12:19:42.999Z</time></trkpt><trkpt lat="45.57191973983401" lon="11.119351396949959"><ele>877.3333333333333</ele><time>2026-03-28T12:19:43.999Z</time></trkpt><trkpt lat="45.57206170330627" lon="11.119535027700085"><ele>878.6666666666666</ele><time>2026-03-28T12:19:44.999Z</time></trkpt><trkpt lat="45.57219830805908" lon="11.119684324563726"><ele>880.0</ele><time>2026-03-28T12:19:45.999Z</time></trkpt><trkpt lat="45.57232482163454" lon="11.119852356846838"><ele>884.6666666666666</ele><time>2026-03-28T12:19:46.999Z</time></trkpt><trkpt lat="45.57246840742807" lon="11.120006499189461"><ele>889.3333333333333</ele><time>2026-03-28T12:19:48Z</time></trkpt><trkpt lat="45.572621379378745" lon="11.120153499847715"><ele>894.0</ele><time>2026-03-28T12:19:49Z</time></trkpt><trkpt lat="45.572810352067684" lon="11.120216621511625"><ele>894.0</ele><time>2026-03-28T12:19:50Z</time></trkpt><trkpt lat="45.57300352345927" lon="11.120261120548701"><ele>894.0</ele><time>2026-03-28T12:19:51Z</time></trkpt><trkpt lat="45.57319549928889" lon="11.120336092642107"><ele>894.0</ele><time>2026-03-28T12:19:52Z</time></trkpt><trkpt lat="45.57339597149061" lon="11.12046885683084"><ele>894.0</ele><time>2026-03-28T12:19:53Z</time></trkpt><trkpt lat="45.57361735506845" lon="11.120634142764724"><ele>894.0</ele><time>2026-03-28T12:19:54Z</time></trkpt><trkpt lat="45.57383544849879" lon="11.120794738446103"><ele>898.6666666666667</ele><time>2026-03-28T12:19:55Z</time></trkpt><trkpt lat="45.574028239272266" lon="11.120933735370494"><ele>903.3333333333334</ele><time>2026-03-28T12:19:56Z</time></trkpt><trkpt lat="45.57420393533648" lon="11.12103867176422"><ele>908.0</ele><time>2026-03-28T12:19:57Z</time></trkpt><trkpt lat="45.57436614529408" lon="11.121116679026706"><ele>908.0</ele><time>2026-03-28T12:19:58Z</time></trkpt><trkpt lat="45.574514809503555" lon="11.121161247288596"><ele>908.0</ele><time>2026-03-28T12:19:59Z</time></trkpt><trkpt lat="45.574668098910514" lon="11.12115957688069"><ele>908.0</ele><time>2026-03-28T12:20:00Z</time></trkpt><trkpt lat="45.574822526609914" lon="11.121102896189162"><ele>910.0</ele><time>2026-03-28T12:20:01Z</time></trkpt><trkpt lat="45.574979413653885" lon="11.121017349636428"><ele>912.0</ele><time>2026-03-28T12:20:02Z</time></trkpt><trkpt lat="45.57512537847358" lon="11.120896479373053"><ele>914.0</ele><time>2026-03-28T12:20:03Z</time></trkpt><trkpt lat="45.57526721994644" lon="11.120745497445412"><ele>916.0</ele><time>2026-03-28T12:20:04Z</time></trkpt><trkpt lat="45.575384281166656" lon="11.120559138107298"><ele>918.0</ele><time>2026-03-28T12:20:05Z</time></trkpt><trkpt lat="45.57550574215327" lon="11.120333968322713"><ele>920.0</ele><time>2026-03-28T12:20:06Z</time></trkpt><trkpt lat="45.575634773335786" lon="11.120073518344201"><ele>925.0</ele><time>2026-03-28T12:20:07Z</time></trkpt><trkpt lat="45.57576392846813" lon="11.119799789651138"><ele>930.0</ele><time>2026-03-28T12:20:08Z</time></trkpt><trkpt lat="45.57588849895445" lon="11.119529364803435"><ele>930.0</ele><time>2026-03-28T12:20:09Z</time></trkpt><trkpt lat="45.57601588897703" lon="11.119284026054386"><ele>930.0</ele><time>2026-03-28T12:20:10Z</time></trkpt><trkpt lat="45.576166789975005" lon="11.119115515095976"><ele>930.0</ele><time>2026-03-28T12:20:11Z</time></trkpt><trkpt lat="45.576322794386115" lon="11.118955689912163"><ele>932.5</ele><time>2026-03-28T12:20:12Z</time></trkpt><trkpt lat="45.576505324069366" lon="11.118793698650727"><ele>935.0</ele><time>2026-03-28T12:20:13Z</time></trkpt><trkpt lat="45.576700066847536" lon="11.118593239507224"><ele>935.0</ele><time>2026-03-28T12:20:14Z</time></trkpt><trkpt lat="45.576921327308895" lon="11.118424937041455"><ele>935.0</ele><time>2026-03-28T12:20:15Z</time></trkpt><trkpt lat="45.57715279196942" lon="11.118243220863238"><ele>936.0</ele><time>2026-03-28T12:20:16Z</time></trkpt><trkpt lat="45.57738249842048" lon="11.118052852788226"><ele>937.0</ele><time>2026-03-28T12:20:17Z</time></trkpt><trkpt lat="45.57759312208071" lon="11.117862639170742"><ele>937.0</ele><time>2026-03-28T12:20:18Z</time></trkpt><trkpt lat="45.57779293642452" lon="11.11765749311389"><ele>937.0</ele><time>2026-03-28T12:20:19Z</time></trkpt><trkpt lat="45.57797931485533" lon="11.117458139194172"><ele>937.0</ele><time>2026-03-28T12:20:20Z</time></trkpt><trkpt lat="45.57815340602878" lon="11.117273637337203"><ele>937.0</ele><time>2026-03-28T12:20:21Z</time></trkpt><trkpt lat="45.578317234215845" lon="11.117095288136456"><ele>937.0</ele><time>2026-03-28T12:20:22Z</time></trkpt><trkpt lat="45.57848083704558" lon="11.116909462256347"><ele>937.0</ele><time>2026-03-28T12:20:23Z</time></trkpt><trkpt lat="45.5786632465366" lon="11.116735541813041"><ele>937.0</ele><time>2026-03-28T12:20:24Z</time></trkpt><trkpt lat="45.57884028462062" lon="11.116558145027701"><ele>937.0</ele><time>2026-03-28T12:20:25Z</time></trkpt><trkpt lat="45.579028552145715" lon="11.116385096922807"><ele>935.5</ele><time>2026-03-28T12:20:26Z</time></trkpt><trkpt lat="45.57921730490816" lon="11.116188222621611"><ele>934.0</ele><time>2026-03-28T12:20:27Z</time></trkpt><trkpt lat="45.579425306747446" lon="11.116027629620628"><ele>933.6666666666666</ele><time>2026-03-28T12:20:28Z</time></trkpt><trkpt lat="45.57962411011102" lon="11.115862085934257"><ele>933.3333333333333</ele><time>2026-03-28T12:20:29Z</time></trkpt><trkpt lat="45.57981088971724" lon="11.115705306546461"><ele>933.0</ele><time>2026-03-28T12:20:30Z</time></trkpt><trkpt lat="45.57998112796321" lon="11.115558444779237"><ele>933.0</ele><time>2026-03-28T12:20:31Z</time></trkpt><trkpt lat="45.58014458957859" lon="11.115424295996743"><ele>933.0</ele><time>2026-03-28T12:20:32Z</time></trkpt><trkpt lat="45.58029719476379" lon="11.115295392774183"><ele>933.0</ele><time>2026-03-28T12:20:33Z</time></trkpt><trkpt lat="45.58045244104443" lon="11.11517098752421"><ele>932.6666666666667</ele><time>2026-03-28T12:20:34Z</time></trkpt><trkpt lat="45.58061656602579" lon="11.115056664900463"><ele>932.3333333333334</ele><time>2026-03-28T12:20:35Z</time></trkpt><trkpt lat="45.58080754496201" lon="11.114986021055504"><ele>932.0</ele><time>2026-03-28T12:20:36Z</time></trkpt><trkpt lat="45.58099826497817" lon="11.114928343016263"><ele>935.0</ele><time>2026-03-28T12:20:37Z</time></trkpt><trkpt lat="45.58118231989541" lon="11.114866288695216"><ele>938.0</ele><time>2026-03-28T12:20:38Z</time></trkpt><trkpt lat="45.58137537195936" lon="11.11483810467267"><ele>941.0</ele><time>2026-03-28T12:20:39Z</time></trkpt><trkpt lat="45.58157120929523" lon="11.114824033014942"><ele>941.6666666666667</ele><time>2026-03-28T12:20:40Z</time></trkpt><trkpt lat="45.58176896980785" lon="11.114833826393095"><ele>942.3333333333333</ele><time>2026-03-28T12:20:41Z</time></trkpt><trkpt lat="45.58198079957587" lon="11.114862730769033"><ele>943.0</ele><time>2026-03-28T12:20:42Z</time></trkpt><trkpt lat="45.5822163515888" lon="11.114890586355719"><ele>937.5</ele><time>2026-03-28T12:20:43Z</time></trkpt><trkpt lat="45.58246028182124" lon="11.114903306947602"><ele>932.0</ele><time>2026-03-28T12:20:44Z</time></trkpt><trkpt lat="45.58271648294003" lon="11.114904456045165"><ele>927.5</ele><time>2026-03-28T12:20:45Z</time></trkpt><trkpt lat="45.582987195535466" lon="11.114902378675163"><ele>923.0</ele><time>2026-03-28T12:20:46Z</time></trkpt><trkpt lat="45.58328236503558" lon="11.114886494001404"><ele>923.0</ele><time>2026-03-28T12:20:47Z</time></trkpt><trkpt lat="45.583577871270116" lon="11.114848800725717"><ele>923.0</ele><time>2026-03-28T12:20:48Z</time></trkpt><trkpt lat="45.583888679413725" lon="11.114829228332207"><ele>923.5</ele><time>2026-03-28T12:20:49Z</time></trkpt><trkpt lat="45.58421085296741" lon="11.114750444873847"><ele>924.0</ele><time>2026-03-28T12:20:50Z</time></trkpt><trkpt lat="45.584535666779274" lon="11.114704859071821"><ele>923.0</ele><time>2026-03-28T12:20:51Z</time></trkpt><trkpt lat="45.58486906254325" lon="11.114655446133293"><ele>922.0</ele><time>2026-03-28T12:20:52Z</time></trkpt><trkpt lat="45.58519781082944" lon="11.114601811454728"><ele>927.5</ele><time>2026-03-28T12:20:53Z</time></trkpt><trkpt lat="45.58551958651637" lon="11.114540466383875"><ele>933.0</ele><time>2026-03-28T12:20:54Z</time></trkpt><trkpt lat="45.58583213404611" lon="11.114458876731304"><ele>933.0</ele><time>2026-03-28T12:20:55Z</time></trkpt><trkpt lat="45.586132447208925" lon="11.114369783654638"><ele>933.0</ele><time>2026-03-28T12:20:56Z</time></trkpt><trkpt lat="45.586419660081106" lon="11.114283206962495"><ele>941.0</ele><time>2026-03-28T12:20:57Z</time></trkpt><trkpt lat="45.586681450540624" lon="11.11420527057562"><ele>949.0</ele><time>2026-03-28T12:20:57.999Z</time></trkpt><trkpt lat="45.58693211430808" lon="11.114150510235554"><ele>952.5</ele><time>2026-03-28T12:20:58.999Z</time></trkpt><trkpt lat="45.58717430385255" lon="11.114118940959244"><ele>956.0</ele><time>2026-03-28T12:20:59.999Z</time></trkpt><trkpt lat="45.58740754319285" lon="11.11407902107807"><ele>951.5</ele><time>2026-03-28T12:21:00.999Z</time></trkpt><trkpt lat="45.58763696160395" lon="11.114018387546016"><ele>947.0</ele><time>2026-03-28T12:21:01.999Z</time></trkpt><trkpt lat="45.587851949502706" lon="11.113936561865511"><ele>953.0</ele><time>2026-03-28T12:21:02.999Z</time></trkpt><trkpt lat="45.588045271605964" lon="11.113849897768185"><ele>959.0</ele><time>2026-03-28T12:21:03.999Z</time></trkpt><trkpt lat="45.58821874044685" lon="11.113772452592476"><ele>965.0</ele><time>2026-03-28T12:21:04.999Z</time></trkpt><trkpt lat="45.588394270236286" lon="11.113704461806979"><ele>965.0</ele><time>2026-03-28T12:21:05.999Z</time></trkpt><trkpt lat="45.588578363277655" lon="11.113634168136"><ele>965.0</ele><time>2026-03-28T12:21:06.999Z</time></trkpt><trkpt lat="45.58876614546722" lon="11.113573415873617"><ele>965.0</ele><time>2026-03-28T12:21:07.999Z</time></trkpt><trkpt lat="45.58893036567615" lon="11.113539329138119"><ele>966.0</ele><time>2026-03-28T12:21:08.999Z</time></trkpt><trkpt lat="45.58908903687622" lon="11.11353908751939"><ele>967.0</ele><time>2026-03-28T12:21:09.999Z</time></trkpt><trkpt lat="45.58923840986351" lon="11.113554570490559"><ele>968.0</ele><time>2026-03-28T12:21:10.999Z</time></trkpt><trkpt lat="45.589365449175006" lon="11.113591515847183"><ele>969.0</ele><time>2026-03-28T12:21:11.999Z</time></trkpt><trkpt lat="45.589486396326244" lon="11.11361028214175"><ele>970.0</ele><time>2026-03-28T12:21:12.999Z</time></trkpt><trkpt lat="45.5896069185399" lon="11.113568789092199"><ele>971.0</ele><time>2026-03-28T12:21:13.999Z</time></trkpt><trkpt lat="45.589717333729155" lon="11.11346414926195"><ele>972.0</ele><time>2026-03-28T12:21:14.999Z</time></trkpt><trkpt lat="45.589796111562045" lon="11.113308510957374"><ele>973.0</ele><time>2026-03-28T12:21:15.999Z</time></trkpt><trkpt lat="45.58985090325369" lon="11.11312964681658"><ele>973.0</ele><time>2026-03-28T12:21:16.999Z</time></trkpt><trkpt lat="45.58993091293681" lon="11.112986712188347"><ele>973.0</ele><time>2026-03-28T12:21:17.999Z</time></trkpt><trkpt lat="45.59004827202318" lon="11.112890452725743"><ele>973.0</ele><time>2026-03-28T12:21:18.999Z</time></trkpt><trkpt lat="45.59019034659929" lon="11.112823254127212"><ele>973.0</ele><time>2026-03-28T12:21:19.999Z</time></trkpt><trkpt lat="45.59033937825602" lon="11.112797171021837"><ele>973.0</ele><time>2026-03-28T12:21:20.999Z</time></trkpt><trkpt lat="45.59052406351978" lon="11.112804902799947"><ele>973.0</ele><time>2026-03-28T12:21:21.999Z</time></trkpt><trkpt lat="45.5907395158188" lon="11.11280502115246"><ele>973.0</ele><time>2026-03-28T12:21:22.999Z</time></trkpt><trkpt lat="45.59096261676858" lon="11.112791707337701"><ele>973.0</ele><time>2026-03-28T12:21:23.999Z</time></trkpt><trkpt lat="45.5911508571422" lon="11.112793329533089"><ele>973.0</ele><time>2026-03-28T12:21:24.999Z</time></trkpt><trkpt lat="45.59131908647855" lon="11.11281494245633"><ele>973.0</ele><time>2026-03-28T12:21:25.999Z</time></trkpt><trkpt lat="45.591466085116394" lon="11.112852508740016"><ele>974.5</ele><time>2026-03-28T12:21:26.999Z</time></trkpt><trkpt lat="45.591594314515255" lon="11.112883352626605"><ele>976.0</ele><time>2026-03-28T12:21:27.999Z</time></trkpt><trkpt lat="45.591706150723255" lon="11.11289265763909"><ele>977.5</ele><time>2026-03-28T12:21:28.999Z</time></trkpt><trkpt lat="45.59181155538292" lon="11.112854923067676"><ele>979.0</ele><time>2026-03-28T12:21:29.999Z</time></trkpt><trkpt lat="45.591908540016746" lon="11.112759259586337"><ele>979.0</ele><time>2026-03-28T12:21:30.999Z</time></trkpt><trkpt lat="45.59199147240574" lon="11.112599680411227"><ele>979.0</ele><time>2026-03-28T12:21:31.999Z</time></trkpt><trkpt lat="45.59205390261596" lon="11.112426371841595"><ele>979.0</ele><time>2026-03-28T12:21:32.999Z</time></trkpt><trkpt lat="45.592106305549315" lon="11.112273716148678"><ele>979.0</ele><time>2026-03-28T12:21:33.999Z</time></trkpt><trkpt lat="45.592173598466466" lon="11.112161011832166"><ele>977.75</ele><time>2026-03-28T12:21:34.999Z</time></trkpt><trkpt lat="45.592253212683" lon="11.112112115889383"><ele>976.5</ele><time>2026-03-28T12:21:35.999Z</time></trkpt><trkpt lat="45.59235811552806" lon="11.11210208380578"><ele>975.25</ele><time>2026-03-28T12:21:36.999Z</time></trkpt><trkpt lat="45.59250238302502" lon="11.112116531350551"><ele>974.0</ele><time>2026-03-28T12:21:37.999Z</time></trkpt><trkpt lat="45.592675611353215" lon="11.1121545305281"><ele>974.6666666666667</ele><time>2026-03-28T12:21:38.999Z</time></trkpt><trkpt lat="45.59285673923995" lon="11.112216519917052"><ele>975.3333333333333</ele><time>2026-03-28T12:21:39.999Z</time></trkpt><trkpt lat="45.593014333019426" lon="11.1122955081555"><ele>976.0</ele><time>2026-03-28T12:21:40.999Z</time></trkpt><trkpt lat="45.593144888796736" lon="11.112343208240576"><ele>976.0</ele><time>2026-03-28T12:21:41.999Z</time></trkpt><trkpt lat="45.59327998485652" lon="11.112323981595804"><ele>976.0</ele><time>2026-03-28T12:21:42.999Z</time></trkpt><trkpt lat="45.593427930205145" lon="11.112257579558944"><ele>976.0</ele><time>2026-03-28T12:21:43.999Z</time></trkpt><trkpt lat="45.59357826725929" lon="11.112174591044937"><ele>978.5</ele><time>2026-03-28T12:21:44.999Z</time></trkpt><trkpt lat="45.59369322699379" lon="11.112094812170234"><ele>981.0</ele><time>2026-03-28T12:21:45.999Z</time></trkpt><trkpt lat="45.59381058435053" lon="11.111995567778486"><ele>983.5</ele><time>2026-03-28T12:21:46.999Z</time></trkpt><trkpt lat="45.59389795578608" lon="11.111888012715733"><ele>986.0</ele><time>2026-03-28T12:21:47.999Z</time></trkpt><trkpt lat="45.59396759011923" lon="11.111752168398587"><ele>986.0</ele><time>2026-03-28T12:21:48.999Z</time></trkpt><trkpt lat="45.594012996976744" lon="11.111603937781544"><ele>986.0</ele><time>2026-03-28T12:21:49.999Z</time></trkpt><trkpt lat="45.594032351829746" lon="11.111445083651557"><ele>986.0</ele><time>2026-03-28T12:21:50.999Z</time></trkpt><trkpt lat="45.59402152429487" lon="11.111273015896687"><ele>986.0</ele><time>2026-03-28T12:21:51.999Z</time></trkpt><trkpt lat="45.593981425221756" lon="11.11109079185713"><ele>981.6666666666667</ele><time>2026-03-28T12:21:52.999Z</time></trkpt><trkpt lat="45.59393254744618" lon="11.110884417363922"><ele>977.3333333333333</ele><time>2026-03-28T12:21:54Z</time></trkpt><trkpt lat="45.59389572945168" lon="11.110650859530976"><ele>973.0</ele><time>2026-03-28T12:21:55Z</time></trkpt><trkpt lat="45.593907140902346" lon="11.110398347040828"><ele>973.0</ele><time>2026-03-28T12:21:56Z</time></trkpt><trkpt lat="45.59391920070894" lon="11.110106507807581"><ele>973.0</ele><time>2026-03-28T12:21:57Z</time></trkpt><trkpt lat="45.59395698389685" lon="11.109788117923411"><ele>973.0</ele><time>2026-03-28T12:21:58Z</time></trkpt><trkpt lat="45.59399882067676" lon="11.109463824073563"><ele>973.0</ele><time>2026-03-28T12:21:59Z</time></trkpt><trkpt lat="45.59408826582042" lon="11.109142973199166"><ele>973.0</ele><time>2026-03-28T12:22:00Z</time></trkpt><trkpt lat="45.59422632241061" lon="11.108857735460754"><ele>974.5</ele><time>2026-03-28T12:22:01Z</time></trkpt><trkpt lat="45.59436278934435" lon="11.10854131389216"><ele>976.0</ele><time>2026-03-28T12:22:02Z</time></trkpt><trkpt lat="45.59449899803633" lon="11.10818864977876"><ele>984.5</ele><time>2026-03-28T12:22:03Z</time></trkpt><trkpt lat="45.59465181923317" lon="11.107824766394186"><ele>993.0</ele><time>2026-03-28T12:22:04Z</time></trkpt><trkpt lat="45.59479869709758" lon="11.107480384531245"><ele>997.3333333333333</ele><time>2026-03-28T12:22:05Z</time></trkpt><trkpt lat="45.59492475497502" lon="11.107190569386788"><ele>1001.6666666666666</ele><time>2026-03-28T12:22:06Z</time></trkpt><trkpt lat="45.59503067451074" lon="11.10693154001294"><ele>1006.0</ele><time>2026-03-28T12:22:07Z</time></trkpt><trkpt lat="45.595134587872586" lon="11.106700073391352"><ele>1010.0</ele><time>2026-03-28T12:22:08Z</time></trkpt><trkpt lat="45.59525095632352" lon="11.1064967580502"><ele>1014.0</ele><time>2026-03-28T12:22:09Z</time></trkpt><trkpt lat="45.595387053511814" lon="11.10630964877587"><ele>1018.0</ele><time>2026-03-28T12:22:10Z</time></trkpt><trkpt lat="45.59554444927643" lon="11.106199856420412"><ele>1018.0</ele><time>2026-03-28T12:22:11Z</time></trkpt><trkpt lat="45.59568728532109" lon="11.106110653091957"><ele>1018.0</ele><time>2026-03-28T12:22:12Z</time></trkpt><trkpt lat="45.59582314365069" lon="11.106022323060198"><ele>1018.0</ele><time>2026-03-28T12:22:13Z</time></trkpt><trkpt lat="45.595956943445664" lon="11.105987261733322"><ele>1018.0</ele><time>2026-03-28T12:22:14Z</time></trkpt><trkpt lat="45.59608628358807" lon="11.105924210132546"><ele>1016.6666666666666</ele><time>2026-03-28T12:22:15Z</time></trkpt><trkpt lat="45.596217413138525" lon="11.10582716482161"><ele>1015.3333333333333</ele><time>2026-03-28T12:22:16Z</time></trkpt><trkpt lat="45.59633855706862" lon="11.105698992819159"><ele>1014.0</ele><time>2026-03-28T12:22:17Z</time></trkpt><trkpt lat="45.59643960809754" lon="11.105528289856373"><ele>1014.0</ele><time>2026-03-28T12:22:18Z</time></trkpt><trkpt lat="45.59653005933258" lon="11.105330181183994"><ele>1014.0</ele><time>2026-03-28T12:22:19Z</time></trkpt><trkpt lat="45.59659983188973" lon="11.105131205821456"><ele>1014.0</ele><time>2026-03-28T12:22:20Z</time></trkpt><trkpt lat="45.596637991714985" lon="11.104927264938532"><ele>1017.6666666666667</ele><time>2026-03-28T12:22:21Z</time></trkpt><trkpt lat="45.59664479190346" lon="11.104719876874544"><ele>1021.3333333333334</ele><time>2026-03-28T12:22:22Z</time></trkpt><trkpt lat="45.59663748250983" lon="11.104482220066567"><ele>1025.0</ele><time>2026-03-28T12:22:23Z</time></trkpt><trkpt lat="45.59663103574446" lon="11.104203518462477"><ele>1025.3333333333335</ele><time>2026-03-28T12:22:24Z</time></trkpt><trkpt lat="45.59666358537901" lon="11.103900335486845"><ele>1025.6666666666667</ele><time>2026-03-28T12:22:25Z</time></trkpt><trkpt lat="45.59669282583344" lon="11.103611389618264"><ele>1026.0</ele><time>2026-03-28T12:22:26Z</time></trkpt><trkpt lat="45.596733521393425" lon="11.103164179871834"><ele>1026.0</ele><time>2026-03-28T12:22:28Z</time></trkpt><trkpt lat="45.596770394389786" lon="11.10299653167892"><ele>1026.0</ele><time>2026-03-28T12:22:29Z</time></trkpt><trkpt lat="45.59683198906831" lon="11.102878599042647"><ele>1026.0</ele><time>2026-03-28T12:22:30Z</time></trkpt><trkpt lat="45.59692684202802" lon="11.102803068100597"><ele>1026.0</ele><time>2026-03-28T12:22:31Z</time></trkpt><trkpt lat="45.597052171958566" lon="11.102756822452937"><ele>1027.0</ele><time>2026-03-28T12:22:32Z</time></trkpt><trkpt lat="45.59719478527985" lon="11.102690807478888"><ele>1028.0</ele><time>2026-03-28T12:22:33Z</time></trkpt><trkpt lat="45.59734494966774" lon="11.102627649552884"><ele>1029.0</ele><time>2026-03-28T12:22:34Z</time></trkpt><trkpt lat="45.597465508203996" lon="11.10252479145052"><ele>1030.0</ele><time>2026-03-28T12:22:35Z</time></trkpt><trkpt lat="45.59756722535455" lon="11.102380972542745"><ele>1034.0</ele><time>2026-03-28T12:22:36Z</time></trkpt><trkpt lat="45.59767257566147" lon="11.102209900003459"><ele>1038.0</ele><time>2026-03-28T12:22:37Z</time></trkpt><trkpt lat="45.597764609361725" lon="11.10202715711814"><ele>1042.0</ele><time>2026-03-28T12:22:38Z</time></trkpt><trkpt lat="45.59783470344595" lon="11.101797018992546"><ele>1039.5</ele><time>2026-03-28T12:22:39Z</time></trkpt><trkpt lat="45.59789809376365" lon="11.101581076733885"><ele>1037.0</ele><time>2026-03-28T12:22:40Z</time></trkpt><trkpt lat="45.597959361448424" lon="11.101396901447186"><ele>1034.5</ele><time>2026-03-28T12:22:41Z</time></trkpt><trkpt lat="45.59800788974852" lon="11.101240511983189"><ele>1032.0</ele><time>2026-03-28T12:22:42Z</time></trkpt><trkpt lat="45.59803634201034" lon="11.101109242203176"><ele>1032.0</ele><time>2026-03-28T12:22:43Z</time></trkpt><trkpt lat="45.598042664616536" lon="11.100980277452203"><ele>1032.0</ele><time>2026-03-28T12:22:44Z</time></trkpt><trkpt lat="45.598032140705044" lon="11.100857684723566"><ele>1032.0</ele><time>2026-03-28T12:22:45Z</time></trkpt><trkpt lat="45.59801372911589" lon="11.100744594962292"><ele>1032.0</ele><time>2026-03-28T12:22:46Z</time></trkpt><trkpt lat="45.59800045615972" lon="11.10063473209865"><ele>1032.0</ele><time>2026-03-28T12:22:47Z</time></trkpt><trkpt lat="45.59800117566904" lon="11.100525062960616"><ele>1032.0</ele><time>2026-03-28T12:22:48Z</time></trkpt><trkpt lat="45.59801362599045" lon="11.100421988379905"><ele>1033.6666666666667</ele><time>2026-03-28T12:22:49Z</time></trkpt><trkpt lat="45.598025756436826" lon="11.100332183410258"><ele>1035.3333333333333</ele><time>2026-03-28T12:22:50Z</time></trkpt><trkpt lat="45.5980465161151" lon="11.100209134651076"><ele>1037.0</ele><time>2026-03-28T12:22:52Z</time></trkpt><trkpt lat="45.59810951919808" lon="11.100183861034228"><ele>1038.6666666666665</ele><time>2026-03-28T12:22:59Z</time></trkpt><trkpt lat="45.59821623504972" lon="11.100259633997508"><ele>1040.3333333333333</ele><time>2026-03-28T12:23:00Z</time></trkpt><trkpt lat="45.59830432825627" lon="11.100316627647052"><ele>1042.0</ele><time>2026-03-28T12:23:01Z</time></trkpt><trkpt lat="45.59841753319679" lon="11.100334782719335"><ele>1042.0</ele><time>2026-03-28T12:23:02Z</time></trkpt><trkpt lat="45.59855429325212" lon="11.10033477829326"><ele>1042.0</ele><time>2026-03-28T12:23:03Z</time></trkpt><trkpt lat="45.598696946910046" lon="11.100303058304258"><ele>1042.0</ele><time>2026-03-28T12:23:04Z</time></trkpt><trkpt lat="45.598832243459476" lon="11.100242381811043"><ele>1042.0</ele><time>2026-03-28T12:23:05Z</time></trkpt><trkpt lat="45.59897305558291" lon="11.100152886985262"><ele>1041.0</ele><time>2026-03-28T12:23:06Z</time></trkpt><trkpt lat="45.59909171318348" lon="11.100025712199647"><ele>1040.0</ele><time>2026-03-28T12:23:07Z</time></trkpt><trkpt lat="45.599194971038806" lon="11.09990854312877"><ele>1039.0</ele><time>2026-03-28T12:23:08Z</time></trkpt><trkpt lat="45.59930928280064" lon="11.09979861182297"><ele>1038.0</ele><time>2026-03-28T12:23:09Z</time></trkpt><trkpt lat="45.5994247506115" lon="11.09968064623036"><ele>1039.75</ele><time>2026-03-28T12:23:10Z</time></trkpt><trkpt lat="45.59954261149521" lon="11.099552536085113"><ele>1041.5</ele><time>2026-03-28T12:23:11Z</time></trkpt><trkpt lat="45.59966344672474" lon="11.099428656013695"><ele>1043.25</ele><time>2026-03-28T12:23:12Z</time></trkpt><trkpt lat="45.59977451706483" lon="11.099315556441598"><ele>1045.0</ele><time>2026-03-28T12:23:12.999Z</time></trkpt><trkpt lat="45.59988990964018" lon="11.099193204706534"><ele>1045.0</ele><time>2026-03-28T12:23:13.999Z</time></trkpt><trkpt lat="45.59997719398358" lon="11.099107897396092"><ele>1045.0</ele><time>2026-03-28T12:23:14.999Z</time></trkpt><trkpt lat="45.60006949764919" lon="11.099014820214677"><ele>1045.0</ele><time>2026-03-28T12:23:15.999Z</time></trkpt><trkpt lat="45.60016695688722" lon="11.098919434493999"><ele>1045.0</ele><time>2026-03-28T12:23:16.999Z</time></trkpt><trkpt lat="45.60027408554628" lon="11.098831846352509"><ele>1049.25</ele><time>2026-03-28T12:23:17.999Z</time></trkpt><trkpt lat="45.60040105283292" lon="11.098780819462442"><ele>1053.5</ele><time>2026-03-28T12:23:18.999Z</time></trkpt><trkpt lat="45.60054204144633" lon="11.098732378791523"><ele>1057.75</ele><time>2026-03-28T12:23:19.999Z</time></trkpt><trkpt lat="45.600709383759046" lon="11.098697643108071"><ele>1062.0</ele><time>2026-03-28T12:23:20.999Z</time></trkpt><trkpt lat="45.60088842858566" lon="11.098701837553444"><ele>1062.0</ele><time>2026-03-28T12:23:21.999Z</time></trkpt><trkpt lat="45.6010802772631" lon="11.09874025646139"><ele>1062.0</ele><time>2026-03-28T12:23:22.999Z</time></trkpt><trkpt lat="45.60127884267771" lon="11.098796899603851"><ele>1062.0</ele><time>2026-03-28T12:23:23.999Z</time></trkpt><trkpt lat="45.601447575491655" lon="11.098858585333359"><ele>1059.75</ele><time>2026-03-28T12:23:24.999Z</time></trkpt><trkpt lat="45.601589412345966" lon="11.098936993917988"><ele>1057.5</ele><time>2026-03-28T12:23:25.999Z</time></trkpt><trkpt lat="45.60171093674087" lon="11.0990371031992"><ele>1055.25</ele><time>2026-03-28T12:23:26.999Z</time></trkpt><trkpt lat="45.60180506448748" lon="11.09917008367581"><ele>1053.0</ele><time>2026-03-28T12:23:27.999Z</time></trkpt><trkpt lat="45.6019000470425" lon="11.09934173097112"><ele>1053.0</ele><time>2026-03-28T12:23:28.999Z</time></trkpt><trkpt lat="45.60198083865258" lon="11.099541135324882"><ele>1053.0</ele><time>2026-03-28T12:23:29.999Z</time></trkpt><trkpt lat="45.60206059902108" lon="11.099746887357151"><ele>1053.0</ele><time>2026-03-28T12:23:30.999Z</time></trkpt><trkpt lat="45.60214421852402" lon="11.0998970659744"><ele>1054.4</ele><time>2026-03-28T12:23:31.999Z</time></trkpt><trkpt lat="45.602213976373896" lon="11.100013102318526"><ele>1055.8</ele><time>2026-03-28T12:23:32.999Z</time></trkpt><trkpt lat="45.60230137393349" lon="11.100093657716174"><ele>1057.2</ele><time>2026-03-28T12:23:33.999Z</time></trkpt><trkpt lat="45.602385850682886" lon="11.100127554641894"><ele>1058.6</ele><time>2026-03-28T12:23:34.999Z</time></trkpt><trkpt lat="45.60248028748782" lon="11.100136782721961"><ele>1060.0</ele><time>2026-03-28T12:23:35.999Z</time></trkpt><trkpt lat="45.602593661615494" lon="11.10010979255068"><ele>1060.0</ele><time>2026-03-28T12:23:36.999Z</time></trkpt><trkpt lat="45.602700807155415" lon="11.100040596385348"><ele>1060.0</ele><time>2026-03-28T12:23:37.999Z</time></trkpt><trkpt lat="45.60278367868311" lon="11.099928118989492"><ele>1060.0</ele><time>2026-03-28T12:23:38.999Z</time></trkpt><trkpt lat="45.60285312180702" lon="11.099776566740033"><ele>1060.0</ele><time>2026-03-28T12:23:39.999Z</time></trkpt><trkpt lat="45.602906276898416" lon="11.099591728978389"><ele>1061.0</ele><time>2026-03-28T12:23:40.999Z</time></trkpt><trkpt lat="45.60294929768675" lon="11.09937419421875"><ele>1062.0</ele><time>2026-03-28T12:23:41.999Z</time></trkpt><trkpt lat="45.602996670553416" lon="11.099129841518252"><ele>1063.0</ele><time>2026-03-28T12:23:42.999Z</time></trkpt><trkpt lat="45.603065966392926" lon="11.098834472163318"><ele>1063.6666666666665</ele><time>2026-03-28T12:23:43.999Z</time></trkpt><trkpt lat="45.603141028439566" lon="11.098536558586261"><ele>1064.3333333333333</ele><time>2026-03-28T12:23:44.999Z</time></trkpt><trkpt lat="45.6032008295698" lon="11.098294568096017"><ele>1065.0</ele><time>2026-03-28T12:23:45.999Z</time></trkpt><trkpt lat="45.603249460683415" lon="11.098071339323944"><ele>1066.3333333333333</ele><time>2026-03-28T12:23:46.999Z</time></trkpt><trkpt lat="45.60327461784532" lon="11.097849020925988"><ele>1067.6666666666665</ele><time>2026-03-28T12:23:47.999Z</time></trkpt><trkpt lat="45.60328399630735" lon="11.097612375698994"><ele>1069.0</ele><time>2026-03-28T12:23:48.999Z</time></trkpt><trkpt lat="45.603291157259854" lon="11.097393710967067"><ele>1069.0</ele><time>2026-03-28T12:23:49.999Z</time></trkpt><trkpt lat="45.60328895965595" lon="11.097194897157229"><ele>1069.0</ele><time>2026-03-28T12:23:50.999Z</time></trkpt><trkpt lat="45.60327008570827" lon="11.097004808236235"><ele>1069.0</ele><time>2026-03-28T12:23:51.999Z</time></trkpt><trkpt lat="45.60323162681791" lon="11.09681568325781"><ele>1069.0</ele><time>2026-03-28T12:23:52.999Z</time></trkpt><trkpt lat="45.60317750405805" lon="11.096633475075839"><ele>1069.75</ele><time>2026-03-28T12:23:53.999Z</time></trkpt><trkpt lat="45.60310118748257" lon="11.096468820509623"><ele>1070.5</ele><time>2026-03-28T12:23:54.999Z</time></trkpt><trkpt lat="45.60300978781413" lon="11.096331981053433"><ele>1071.25</ele><time>2026-03-28T12:23:55.999Z</time></trkpt><trkpt lat="45.602929499700835" lon="11.096214287920139"><ele>1072.0</ele><time>2026-03-28T12:23:56.999Z</time></trkpt><trkpt lat="45.60286188483673" lon="11.096105069903652"><ele>1072.0</ele><time>2026-03-28T12:23:57.999Z</time></trkpt><trkpt lat="45.60281978980995" lon="11.096000516964452"><ele>1072.0</ele><time>2026-03-28T12:23:58.999Z</time></trkpt><trkpt lat="45.60280580263412" lon="11.095884314919992"><ele>1072.0</ele><time>2026-03-28T12:24:00Z</time></trkpt><trkpt lat="45.60284013350834" lon="11.095774067790218"><ele>1072.0</ele><time>2026-03-28T12:24:01Z</time></trkpt><trkpt lat="45.60294364881516" lon="11.095717673510155"><ele>1072.0</ele><time>2026-03-28T12:24:02Z</time></trkpt><trkpt lat="45.60306564469673" lon="11.095643623083443"><ele>1074.8</ele><time>2026-03-28T12:24:03Z</time></trkpt><trkpt lat="45.60317523569975" lon="11.095589692077152"><ele>1077.6</ele><time>2026-03-28T12:24:04Z</time></trkpt><trkpt lat="45.60326834687064" lon="11.095521627673188"><ele>1080.3999999999999</ele><time>2026-03-28T12:24:05Z</time></trkpt><trkpt lat="45.603353355977625" lon="11.095434902264397"><ele>1083.2</ele><time>2026-03-28T12:24:06Z</time></trkpt><trkpt lat="45.603435872220594" lon="11.09533981284195"><ele>1086.0</ele><time>2026-03-28T12:24:07Z</time></trkpt><trkpt lat="45.60351891378567" lon="11.095238228477827"><ele>1086.0</ele><time>2026-03-28T12:24:08Z</time></trkpt><trkpt lat="45.603591817272374" lon="11.095143640632017"><ele>1086.0</ele><time>2026-03-28T12:24:09Z</time></trkpt><trkpt lat="45.603664648161555" lon="11.095070028075424"><ele>1086.0</ele><time>2026-03-28T12:24:10Z</time></trkpt><trkpt lat="45.603739118122505" lon="11.095015886131165"><ele>1086.0</ele><time>2026-03-28T12:24:11Z</time></trkpt><trkpt lat="45.60382531704145" lon="11.09497739251831"><ele>1086.0</ele><time>2026-03-28T12:24:12Z</time></trkpt><trkpt lat="45.603923743186044" lon="11.094983419778"><ele>1084.2</ele><time>2026-03-28T12:24:13Z</time></trkpt><trkpt lat="45.604033073531596" lon="11.09496610431915"><ele>1082.3999999999999</ele><time>2026-03-28T12:24:14Z</time></trkpt><trkpt lat="45.60413348123119" lon="11.094972013509937"><ele>1080.6</ele><time>2026-03-28T12:24:15Z</time></trkpt><trkpt lat="45.60423784598269" lon="11.094977866238166"><ele>1078.8</ele><time>2026-03-28T12:24:16Z</time></trkpt><trkpt lat="45.60434746896223" lon="11.094977365721721"><ele>1077.0</ele><time>2026-03-28T12:24:17Z</time></trkpt><trkpt lat="45.6044642495408" lon="11.09497815366325"><ele>1078.0</ele><time>2026-03-28T12:24:18Z</time></trkpt><trkpt lat="45.60458248203483" lon="11.094975300059643"><ele>1079.0</ele><time>2026-03-28T12:24:19Z</time></trkpt><trkpt lat="45.60470291253658" lon="11.094974632181462"><ele>1080.0</ele><time>2026-03-28T12:24:20Z</time></trkpt><trkpt lat="45.60482728733408" lon="11.094976395814168"><ele>1081.0</ele><time>2026-03-28T12:24:21Z</time></trkpt><trkpt lat="45.60494241262985" lon="11.094986547925615"><ele>1081.0</ele><time>2026-03-28T12:24:22Z</time></trkpt><trkpt lat="45.60504649279156" lon="11.094997120764196"><ele>1081.0</ele><time>2026-03-28T12:24:23Z</time></trkpt><trkpt lat="45.6051587342554" lon="11.095013274074002"><ele>1081.0</ele><time>2026-03-28T12:24:24Z</time></trkpt><trkpt lat="45.605268743124185" lon="11.095048300737258"><ele>1081.0</ele><time>2026-03-28T12:24:25Z</time></trkpt><trkpt lat="45.605384132855306" lon="11.095089504711547"><ele>1081.0</ele><time>2026-03-28T12:24:26Z</time></trkpt><trkpt lat="45.60549269589218" lon="11.095138407321597"><ele>1079.2</ele><time>2026-03-28T12:24:27Z</time></trkpt><trkpt lat="45.605585404314475" lon="11.09521056900667"><ele>1077.3999999999999</ele><time>2026-03-28T12:24:28Z</time></trkpt><trkpt lat="45.605679338442755" lon="11.095277361602154"><ele>1075.6</ele><time>2026-03-28T12:24:29Z</time></trkpt><trkpt lat="45.60576067370275" lon="11.0953487079182"><ele>1073.8</ele><time>2026-03-28T12:24:30Z</time></trkpt><trkpt lat="45.6058383965987" lon="11.0954308665044"><ele>1072.0</ele><time>2026-03-28T12:24:31Z</time></trkpt><trkpt lat="45.60592446965604" lon="11.095508011283819"><ele>1072.0</ele><time>2026-03-28T12:24:32Z</time></trkpt><trkpt lat="45.606014931079244" lon="11.095591534162894"><ele>1072.0</ele><time>2026-03-28T12:24:33Z</time></trkpt><trkpt lat="45.606106285748425" lon="11.095690267846127"><ele>1072.0</ele><time>2026-03-28T12:24:34Z</time></trkpt><trkpt lat="45.60620592327301" lon="11.095791131836906"><ele>1072.0</ele><time>2026-03-28T12:24:35Z</time></trkpt><trkpt lat="45.60629705991841" lon="11.095885079619672"><ele>1073.3333333333333</ele><time>2026-03-28T12:24:36Z</time></trkpt><trkpt lat="45.60637975438987" lon="11.095958249754519"><ele>1074.6666666666665</ele><time>2026-03-28T12:24:37Z</time></trkpt><trkpt lat="45.60645329923056" lon="11.096004350214814"><ele>1076.0</ele><time>2026-03-28T12:24:38Z</time></trkpt><trkpt lat="45.60652810386631" lon="11.096044852967236"><ele>1077.3333333333333</ele><time>2026-03-28T12:24:39Z</time></trkpt><trkpt lat="45.60661620152556" lon="11.096064156718317"><ele>1078.6666666666667</ele><time>2026-03-28T12:24:40Z</time></trkpt><trkpt lat="45.6066999040855" lon="11.096039226992488"><ele>1080.0</ele><time>2026-03-28T12:24:41Z</time></trkpt><trkpt lat="45.606785144326345" lon="11.095972533981762"><ele>1080.0</ele><time>2026-03-28T12:24:42Z</time></trkpt><trkpt lat="45.60687566301906" lon="11.095884971911941"><ele>1080.0</ele><time>2026-03-28T12:24:43Z</time></trkpt><trkpt lat="45.60696767232837" lon="11.095782020196614"><ele>1080.0</ele><time>2026-03-28T12:24:44Z</time></trkpt><trkpt lat="45.60705338065431" lon="11.095675709005164"><ele>1080.0</ele><time>2026-03-28T12:24:45Z</time></trkpt><trkpt lat="45.607135852165975" lon="11.095584789281224"><ele>1080.0</ele><time>2026-03-28T12:24:46Z</time></trkpt><trkpt lat="45.60722418036367" lon="11.095515805093468"><ele>1076.8</ele><time>2026-03-28T12:24:47Z</time></trkpt><trkpt lat="45.607321150753855" lon="11.095485667521105"><ele>1073.6</ele><time>2026-03-28T12:24:48Z</time></trkpt><trkpt lat="45.60742038881309" lon="11.095480951168883"><ele>1070.4</ele><time>2026-03-28T12:24:49Z</time></trkpt><trkpt lat="45.60753374742816" lon="11.095509784381395"><ele>1067.2</ele><time>2026-03-28T12:24:50Z</time></trkpt><trkpt lat="45.60765035031428" lon="11.095567470799267"><ele>1064.0</ele><time>2026-03-28T12:24:51Z</time></trkpt><trkpt lat="45.607782684881535" lon="11.095642784318706"><ele>1064.5</ele><time>2026-03-28T12:24:52Z</time></trkpt><trkpt lat="45.607914998325036" lon="11.095731590912424"><ele>1065.0</ele><time>2026-03-28T12:24:53Z</time></trkpt><trkpt lat="45.608035376410406" lon="11.095800515586626"><ele>1065.5</ele><time>2026-03-28T12:24:54Z</time></trkpt><trkpt lat="45.60815646650156" lon="11.095823348933534"><ele>1066.0</ele><time>2026-03-28T12:24:55Z</time></trkpt><trkpt lat="45.60827475032656" lon="11.095802256317834"><ele>1066.0</ele><time>2026-03-28T12:24:56Z</time></trkpt><trkpt lat="45.608390182552654" lon="11.095730792763352"><ele>1066.0</ele><time>2026-03-28T12:24:57Z</time></trkpt><trkpt lat="45.60849780936288" lon="11.095614974664803"><ele>1066.0</ele><time>2026-03-28T12:24:58Z</time></trkpt><trkpt lat="45.608600493258656" lon="11.095471278633216"><ele>1066.0</ele><time>2026-03-28T12:24:59Z</time></trkpt><trkpt lat="45.608702513838246" lon="11.09530801766462"><ele>1069.25</ele><time>2026-03-28T12:25:00Z</time></trkpt><trkpt lat="45.608822320667564" lon="11.095181525054839"><ele>1072.5</ele><time>2026-03-28T12:25:01Z</time></trkpt><trkpt lat="45.60893005803923" lon="11.095064529914056"><ele>1075.75</ele><time>2026-03-28T12:25:02Z</time></trkpt><trkpt lat="45.60906023217243" lon="11.095015524832922"><ele>1079.0</ele><time>2026-03-28T12:25:03Z</time></trkpt><trkpt lat="45.60919763091466" lon="11.094972199709435"><ele>1080.25</ele><time>2026-03-28T12:25:04Z</time></trkpt><trkpt lat="45.60933698217375" lon="11.09491203025138"><ele>1081.5</ele><time>2026-03-28T12:25:05Z</time></trkpt><trkpt lat="45.60948498158201" lon="11.09488266392079"><ele>1082.75</ele><time>2026-03-28T12:25:06Z</time></trkpt><trkpt lat="45.609630761712104" lon="11.094848208629339"><ele>1084.0</ele><time>2026-03-28T12:25:07Z</time></trkpt><trkpt lat="45.60976973115973" lon="11.094811664246391"><ele>1085.0</ele><time>2026-03-28T12:25:08Z</time></trkpt><trkpt lat="45.60991505082527" lon="11.094778243643571"><ele>1086.0</ele><time>2026-03-28T12:25:09Z</time></trkpt><trkpt lat="45.61005576117294" lon="11.09475377817199"><ele>1087.0</ele><time>2026-03-28T12:25:10Z</time></trkpt><trkpt lat="45.61017849020385" lon="11.094735509853653"><ele>1088.0</ele><time>2026-03-28T12:25:10.999Z</time></trkpt><trkpt lat="45.61029836912201" lon="11.094726498458817"><ele>1089.0</ele><time>2026-03-28T12:25:11.999Z</time></trkpt><trkpt lat="45.6104258572179" lon="11.094743135384762"><ele>1090.0</ele><time>2026-03-28T12:25:12.999Z</time></trkpt><trkpt lat="45.6105595190889" lon="11.094796754812027"><ele>1091.0</ele><time>2026-03-28T12:25:13.999Z</time></trkpt><trkpt lat="45.610690734795035" lon="11.09488022487046"><ele>1092.0</ele><time>2026-03-28T12:25:14.999Z</time></trkpt><trkpt lat="45.610809703171974" lon="11.094951538801888"><ele>1092.0</ele><time>2026-03-28T12:25:15.999Z</time></trkpt><trkpt lat="45.61092664018479" lon="11.094997953017993"><ele>1092.0</ele><time>2026-03-28T12:25:16.999Z</time></trkpt><trkpt lat="45.611034460325605" lon="11.094975993421636"><ele>1092.0</ele><time>2026-03-28T12:25:17.999Z</time></trkpt><trkpt lat="45.6111379380334" lon="11.094904734286295"><ele>1092.0</ele><time>2026-03-28T12:25:18.999Z</time></trkpt><trkpt lat="45.6112342278415" lon="11.094786988047867"><ele>1091.6666666666667</ele><time>2026-03-28T12:25:19.999Z</time></trkpt><trkpt lat="45.611330194873176" lon="11.09460624506516"><ele>1091.3333333333335</ele><time>2026-03-28T12:25:20.999Z</time></trkpt><trkpt lat="45.61142427134245" lon="11.094403315230405"><ele>1091.0</ele><time>2026-03-28T12:25:21.999Z</time></trkpt><trkpt lat="45.61148932092432" lon="11.094240651027272"><ele>1091.0</ele><time>2026-03-28T12:25:22.999Z</time></trkpt><trkpt lat="45.61155134694019" lon="11.094129138446275"><ele>1091.0</ele><time>2026-03-28T12:25:23.999Z</time></trkpt><trkpt lat="45.611636857725344" lon="11.0940576574041"><ele>1091.0</ele><time>2026-03-28T12:25:24.999Z</time></trkpt><trkpt lat="45.611731249881956" lon="11.094027827591512"><ele>1091.0</ele><time>2026-03-28T12:25:25.999Z</time></trkpt><trkpt lat="45.611819253873264" lon="11.094033623444508"><ele>1091.0</ele><time>2026-03-28T12:25:26.999Z</time></trkpt><trkpt lat="45.61190176649633" lon="11.09405990783893"><ele>1091.0</ele><time>2026-03-28T12:25:27.999Z</time></trkpt><trkpt lat="45.611987335766" lon="11.094120880306669"><ele>1091.0</ele><time>2026-03-28T12:25:28.999Z</time></trkpt><trkpt lat="45.61208080474095" lon="11.094213588546294"><ele>1091.0</ele><time>2026-03-28T12:25:29.999Z</time></trkpt><trkpt lat="45.61216306502118" lon="11.094344148062488"><ele>1091.0</ele><time>2026-03-28T12:25:30.999Z</time></trkpt><trkpt lat="45.612243630624" lon="11.094470330039425"><ele>1091.5</ele><time>2026-03-28T12:25:31.999Z</time></trkpt><trkpt lat="45.61233665527148" lon="11.0945284044283"><ele>1092.0</ele><time>2026-03-28T12:25:32.999Z</time></trkpt><trkpt lat="45.61245568034479" lon="11.094541382725774"><ele>1092.5</ele><time>2026-03-28T12:25:33.999Z</time></trkpt><trkpt lat="45.612593276849786" lon="11.094527100090978"><ele>1093.0</ele><time>2026-03-28T12:25:34.999Z</time></trkpt><trkpt lat="45.612722468318424" lon="11.094512358762803"><ele>1094.5</ele><time>2026-03-28T12:25:35.999Z</time></trkpt><trkpt lat="45.612851627514836" lon="11.094493041218074"><ele>1096.0</ele><time>2026-03-28T12:25:36.999Z</time></trkpt><trkpt lat="45.61297084944435" lon="11.094434412566315"><ele>1097.5</ele><time>2026-03-28T12:25:37.999Z</time></trkpt><trkpt lat="45.613084285234585" lon="11.094348961192127"><ele>1099.0</ele><time>2026-03-28T12:25:38.999Z</time></trkpt><trkpt lat="45.61319942301618" lon="11.094293792090605"><ele>1099.0</ele><time>2026-03-28T12:25:39.999Z</time></trkpt><trkpt lat="45.61330398766392" lon="11.094242241971607"><ele>1099.0</ele><time>2026-03-28T12:25:40.999Z</time></trkpt><trkpt lat="45.61341484770041" lon="11.094222514513312"><ele>1099.0</ele><time>2026-03-28T12:25:41.999Z</time></trkpt><trkpt lat="45.61355303538225" lon="11.09424248082333"><ele>1099.0</ele><time>2026-03-28T12:25:42.999Z</time></trkpt><trkpt lat="45.613713635982336" lon="11.094297481013452"><ele>1099.0</ele><time>2026-03-28T12:25:43.999Z</time></trkpt><trkpt lat="45.6138585477376" lon="11.094340515982772"><ele>1099.0</ele><time>2026-03-28T12:25:44.999Z</time></trkpt><trkpt lat="45.613975171013315" lon="11.09439225532013"><ele>1099.0</ele><time>2026-03-28T12:25:45.999Z</time></trkpt><trkpt lat="45.614068690848946" lon="11.09441940884382"><ele>1099.0</ele><time>2026-03-28T12:25:46.999Z</time></trkpt><trkpt lat="45.6141588264912" lon="11.094446205489792"><ele>1099.0</ele><time>2026-03-28T12:25:47.999Z</time></trkpt><trkpt lat="45.61424053946062" lon="11.094460507471242"><ele>1099.0</ele><time>2026-03-28T12:25:48.999Z</time></trkpt><trkpt lat="45.61431912759107" lon="11.094477548857702"><ele>1099.0</ele><time>2026-03-28T12:25:49.999Z</time></trkpt><trkpt lat="45.61440087076169" lon="11.094475574273224"><ele>1099.0</ele><time>2026-03-28T12:25:50.999Z</time></trkpt><trkpt lat="45.614494170334986" lon="11.094479148453251"><ele>1099.0</ele><time>2026-03-28T12:25:51.999Z</time></trkpt><trkpt lat="45.61460375592548" lon="11.094477767036961"><ele>1099.0</ele><time>2026-03-28T12:25:52.999Z</time></trkpt><trkpt lat="45.614747023313946" lon="11.094471103067274"><ele>1099.5</ele><time>2026-03-28T12:25:53.999Z</time></trkpt><trkpt lat="45.61487352549184" lon="11.094469841049595"><ele>1100.0</ele><time>2026-03-28T12:25:54.999Z</time></trkpt><trkpt lat="45.615006117640036" lon="11.094463123803129"><ele>1100.5</ele><time>2026-03-28T12:25:55.999Z</time></trkpt><trkpt lat="45.61513807000159" lon="11.094460454907258"><ele>1101.0</ele><time>2026-03-28T12:25:56.999Z</time></trkpt><trkpt lat="45.6152711397886" lon="11.094460440692322"><ele>1100.0</ele><time>2026-03-28T12:25:57.999Z</time></trkpt><trkpt lat="45.61540948713981" lon="11.094458425056525"><ele>1099.0</ele><time>2026-03-28T12:25:58.999Z</time></trkpt><trkpt lat="45.61555257404045" lon="11.094448128036321"><ele>1098.0</ele><time>2026-03-28T12:25:59.999Z</time></trkpt><trkpt lat="45.61569644376522" lon="11.094427068180746"><ele>1097.0</ele><time>2026-03-28T12:26:00.999Z</time></trkpt><trkpt lat="45.6158493737082" lon="11.094394293945253"><ele>1097.0</ele><time>2026-03-28T12:26:01.999Z</time></trkpt><trkpt lat="45.61602003958161" lon="11.094349648629894"><ele>1097.0</ele><time>2026-03-28T12:26:02.999Z</time></trkpt><trkpt lat="45.61620555253954" lon="11.094298319344137"><ele>1097.0</ele><time>2026-03-28T12:26:03.999Z</time></trkpt><trkpt lat="45.61641238720557" lon="11.09425071725464"><ele>1099.3333333333335</ele><time>2026-03-28T12:26:04.999Z</time></trkpt><trkpt lat="45.61660674397743" lon="11.094205273167004"><ele>1101.6666666666667</ele><time>2026-03-28T12:26:06Z</time></trkpt><trkpt lat="45.61676059561988" lon="11.094159919776116"><ele>1104.0</ele><time>2026-03-28T12:26:07Z</time></trkpt><trkpt lat="45.616889862010886" lon="11.094121218593658"><ele>1107.8</ele><time>2026-03-28T12:26:08Z</time></trkpt><trkpt lat="45.616993221876655" lon="11.094071558923984"><ele>1111.6000000000001</ele><time>2026-03-28T12:26:09Z</time></trkpt><trkpt lat="45.617073434778995" lon="11.09399458715797"><ele>1115.4</ele><time>2026-03-28T12:26:10Z</time></trkpt><trkpt lat="45.6171398877052" lon="11.093886507689858"><ele>1119.2</ele><time>2026-03-28T12:26:11Z</time></trkpt><trkpt lat="45.617191744117896" lon="11.093747717966737"><ele>1123.0</ele><time>2026-03-28T12:26:12Z</time></trkpt><trkpt lat="45.617226245688784" lon="11.093570713718728"><ele>1123.0</ele><time>2026-03-28T12:26:13Z</time></trkpt><trkpt lat="45.61726874913489" lon="11.093369506146892"><ele>1123.0</ele><time>2026-03-28T12:26:14Z</time></trkpt><trkpt lat="45.61731525565163" lon="11.093160140884507"><ele>1123.0</ele><time>2026-03-28T12:26:15Z</time></trkpt><trkpt lat="45.617373884645104" lon="11.092948322526539"><ele>1122.75</ele><time>2026-03-28T12:26:16Z</time></trkpt><trkpt lat="45.61744337245158" lon="11.092771654800268"><ele>1122.5</ele><time>2026-03-28T12:26:17Z</time></trkpt><trkpt lat="45.617541638979866" lon="11.092633459769868"><ele>1122.25</ele><time>2026-03-28T12:26:18Z</time></trkpt><trkpt lat="45.61763645183398" lon="11.092468156528966"><ele>1122.0</ele><time>2026-03-28T12:26:19Z</time></trkpt><trkpt lat="45.61774112025988" lon="11.092327774168481"><ele>1125.75</ele><time>2026-03-28T12:26:20Z</time></trkpt><trkpt lat="45.617841805234136" lon="11.092171380701721"><ele>1129.5</ele><time>2026-03-28T12:26:21Z</time></trkpt><trkpt lat="45.617939981928366" lon="11.092015148024705"><ele>1133.25</ele><time>2026-03-28T12:26:22Z</time></trkpt><trkpt lat="45.618026170039386" lon="11.091847033844983"><ele>1137.0</ele><time>2026-03-28T12:26:23Z</time></trkpt><trkpt lat="45.61810662121432" lon="11.091657303032136"><ele>1132.6666666666667</ele><time>2026-03-28T12:26:24Z</time></trkpt><trkpt lat="45.618203968675346" lon="11.091482297234723"><ele>1128.3333333333335</ele><time>2026-03-28T12:26:25Z</time></trkpt><trkpt lat="45.61828401700436" lon="11.091278159732605"><ele>1124.0</ele><time>2026-03-28T12:26:26Z</time></trkpt><trkpt lat="45.61837828325063" lon="11.09108223317642"><ele>1124.0</ele><time>2026-03-28T12:26:27Z</time></trkpt><trkpt lat="45.618451767439105" lon="11.090918214006225"><ele>1124.0</ele><time>2026-03-28T12:26:28Z</time></trkpt><trkpt lat="45.618538057922414" lon="11.090812693187939"><ele>1124.0</ele><time>2026-03-28T12:26:29Z</time></trkpt><trkpt lat="45.618608131914314" lon="11.09071847086128"><ele>1124.0</ele><time>2026-03-28T12:26:30Z</time></trkpt><trkpt lat="45.61869674999389" lon="11.090657637681353"><ele>1124.0</ele><time>2026-03-28T12:26:31Z</time></trkpt><trkpt lat="45.61879782390679" lon="11.09060570708506"><ele>1128.0</ele><time>2026-03-28T12:26:32Z</time></trkpt><trkpt lat="45.61889793802784" lon="11.0905436580806"><ele>1132.0</ele><time>2026-03-28T12:26:33Z</time></trkpt><trkpt lat="45.6189697445689" lon="11.090464096682034"><ele>1136.0</ele><time>2026-03-28T12:26:34Z</time></trkpt><trkpt lat="45.61902093986428" lon="11.090359647973065"><ele>1140.0</ele><time>2026-03-28T12:26:35Z</time></trkpt><trkpt lat="45.61904797598264" lon="11.090243816909316"><ele>1144.0</ele><time>2026-03-28T12:26:36Z</time></trkpt><trkpt lat="45.61904587896678" lon="11.090106929005193"><ele>1144.0</ele><time>2026-03-28T12:26:37Z</time></trkpt><trkpt lat="45.61901155843048" lon="11.08996913794735"><ele>1144.0</ele><time>2026-03-28T12:26:38Z</time></trkpt><trkpt lat="45.61895248614509" lon="11.089832455554737"><ele>1144.0</ele><time>2026-03-28T12:26:39Z</time></trkpt><trkpt lat="45.61888439187512" lon="11.089708885014891"><ele>1144.0</ele><time>2026-03-28T12:26:40Z</time></trkpt><trkpt lat="45.61883172563817" lon="11.089600643073817"><ele>1144.0</ele><time>2026-03-28T12:26:41Z</time></trkpt><trkpt lat="45.61881623864156" lon="11.089479218568636"><ele>1143.4</ele><time>2026-03-28T12:26:42Z</time></trkpt><trkpt lat="45.61883123770897" lon="11.089365306178703"><ele>1142.8000000000002</ele><time>2026-03-28T12:26:43Z</time></trkpt><trkpt lat="45.61889365602889" lon="11.089258304546615"><ele>1142.1999999999998</ele><time>2026-03-28T12:26:44Z</time></trkpt><trkpt lat="45.618963055060235" lon="11.089147725060153"><ele>1141.6</ele><time>2026-03-28T12:26:45Z</time></trkpt><trkpt lat="45.619063423936666" lon="11.089035560506293"><ele>1141.0</ele><time>2026-03-28T12:26:46Z</time></trkpt><trkpt lat="45.61918849724258" lon="11.08889579359929"><ele>1143.75</ele><time>2026-03-28T12:26:47Z</time></trkpt><trkpt lat="45.61930818792091" lon="11.088739335294482"><ele>1146.5</ele><time>2026-03-28T12:26:48Z</time></trkpt><trkpt lat="45.61943401365897" lon="11.088605443989314"><ele>1149.25</ele><time>2026-03-28T12:26:49Z</time></trkpt><trkpt lat="45.61953535778594" lon="11.088491703207115"><ele>1152.0</ele><time>2026-03-28T12:26:50Z</time></trkpt><trkpt lat="45.61963884513769" lon="11.08840817410723"><ele>1152.0</ele><time>2026-03-28T12:26:51Z</time></trkpt><trkpt lat="45.61975380236307" lon="11.088357378878975"><ele>1152.0</ele><time>2026-03-28T12:26:52Z</time></trkpt><trkpt lat="45.61988004666611" lon="11.088339883842346"><ele>1152.0</ele><time>2026-03-28T12:26:53Z</time></trkpt><trkpt lat="45.62000296581891" lon="11.088359909226169"><ele>1152.0</ele><time>2026-03-28T12:26:54Z</time></trkpt><trkpt lat="45.62013125938279" lon="11.088428302101471"><ele>1152.0</ele><time>2026-03-28T12:26:55Z</time></trkpt><trkpt lat="45.620278002617475" lon="11.08852402635729"><ele>1152.0</ele><time>2026-03-28T12:26:56Z</time></trkpt><trkpt lat="45.620430853375076" lon="11.088632547653239"><ele>1152.0</ele><time>2026-03-28T12:26:57Z</time></trkpt><trkpt lat="45.620582680813456" lon="11.088734957747501"><ele>1158.75</ele><time>2026-03-28T12:26:58Z</time></trkpt><trkpt lat="45.620704735949296" lon="11.088818985249874"><ele>1165.5</ele><time>2026-03-28T12:26:59Z</time></trkpt><trkpt lat="45.620819935575625" lon="11.088902988599221"><ele>1172.25</ele><time>2026-03-28T12:27:00Z</time></trkpt><trkpt lat="45.62094532148007" lon="11.0889973615419"><ele>1179.0</ele><time>2026-03-28T12:27:01Z</time></trkpt><trkpt lat="45.62108548180252" lon="11.089088548213866"><ele>1180.6666666666667</ele><time>2026-03-28T12:27:02Z</time></trkpt><trkpt lat="45.62123325277619" lon="11.089169612824298"><ele>1182.3333333333335</ele><time>2026-03-28T12:27:03Z</time></trkpt><trkpt lat="45.621396044801905" lon="11.089239321144213"><ele>1184.0</ele><time>2026-03-28T12:27:04Z</time></trkpt><trkpt lat="45.62155719323976" lon="11.08928806103124"><ele>1184.0</ele><time>2026-03-28T12:27:05Z</time></trkpt><trkpt lat="45.62170185460788" lon="11.089303002063389"><ele>1184.0</ele><time>2026-03-28T12:27:06Z</time></trkpt><trkpt lat="45.62182567345199" lon="11.089293769750629"><ele>1184.0</ele><time>2026-03-28T12:27:07Z</time></trkpt><trkpt lat="45.62195072633741" lon="11.08930594836857"><ele>1184.0</ele><time>2026-03-28T12:27:08Z</time></trkpt><trkpt lat="45.62209450791772" lon="11.08932181990019"><ele>1183.6666666666667</ele><time>2026-03-28T12:27:09Z</time></trkpt><trkpt lat="45.62225111436068" lon="11.089323188694111"><ele>1183.3333333333333</ele><time>2026-03-28T12:27:10Z</time></trkpt><trkpt lat="45.622400867884764" lon="11.089317149101122"><ele>1183.0</ele><time>2026-03-28T12:27:11Z</time></trkpt><trkpt lat="45.62255463289903" lon="11.089316672234638"><ele>1183.0</ele><time>2026-03-28T12:27:12Z</time></trkpt><trkpt lat="45.62270640125507" lon="11.08931767221799"><ele>1183.0</ele><time>2026-03-28T12:27:13Z</time></trkpt><trkpt lat="45.62285862938935" lon="11.089325449255433"><ele>1183.0</ele><time>2026-03-28T12:27:14Z</time></trkpt><trkpt lat="45.62301919709262" lon="11.089336710096301"><ele>1182.6666666666665</ele><time>2026-03-28T12:27:15Z</time></trkpt><trkpt lat="45.62318362008832" lon="11.08933803789425"><ele>1182.3333333333333</ele><time>2026-03-28T12:27:16Z</time></trkpt><trkpt lat="45.62334201161034" lon="11.0893463900812"><ele>1182.0</ele><time>2026-03-28T12:27:16.999Z</time></trkpt><trkpt lat="45.62348780168018" lon="11.089361215745129"><ele>1182.0</ele><time>2026-03-28T12:27:17.999Z</time></trkpt><trkpt lat="45.623623456070696" lon="11.089392225570782"><ele>1182.0</ele><time>2026-03-28T12:27:18.999Z</time></trkpt><trkpt lat="45.62375568473449" lon="11.08943178326453"><ele>1182.0</ele><time>2026-03-28T12:27:19.999Z</time></trkpt><trkpt lat="45.623880382116155" lon="11.08947226790494"><ele>1182.0</ele><time>2026-03-28T12:27:20.999Z</time></trkpt><trkpt lat="45.623999022748286" lon="11.089506239678318"><ele>1179.5</ele><time>2026-03-28T12:27:21.999Z</time></trkpt><trkpt lat="45.62412031488437" lon="11.089520579341075"><ele>1177.0</ele><time>2026-03-28T12:27:22.999Z</time></trkpt><trkpt lat="45.62424169496019" lon="11.089523514946752"><ele>1174.5</ele><time>2026-03-28T12:27:23.999Z</time></trkpt><trkpt lat="45.62436877290424" lon="11.089506588710059"><ele>1172.0</ele><time>2026-03-28T12:27:24.999Z</time></trkpt><trkpt lat="45.62451840261892" lon="11.089476550338944"><ele>1170.3333333333335</ele><time>2026-03-28T12:27:25.999Z</time></trkpt><trkpt lat="45.624690873789504" lon="11.089418224179019"><ele>1168.6666666666667</ele><time>2026-03-28T12:27:26.999Z</time></trkpt><trkpt lat="45.624881148215444" lon="11.08934056362068"><ele>1167.0</ele><time>2026-03-28T12:27:27.999Z</time></trkpt><trkpt lat="45.62509492271115" lon="11.08927112978475"><ele>1164.5</ele><time>2026-03-28T12:27:28.999Z</time></trkpt><trkpt lat="45.625316076936045" lon="11.089205929366253"><ele>1162.0</ele><time>2026-03-28T12:27:29.999Z</time></trkpt><trkpt lat="45.62553690679661" lon="11.089136511107537"><ele>1163.0</ele><time>2026-03-28T12:27:30.999Z</time></trkpt><trkpt lat="45.625735091590506" lon="11.089071164187898"><ele>1164.0</ele><time>2026-03-28T12:27:31.999Z</time></trkpt><trkpt lat="45.625908386777716" lon="11.089013738645978"><ele>1165.0</ele><time>2026-03-28T12:27:32.999Z</time></trkpt><trkpt lat="45.62607391837182" lon="11.088964185089688"><ele>1165.0</ele><time>2026-03-28T12:27:33.999Z</time></trkpt><trkpt lat="45.626232678002104" lon="11.088922103537747"><ele>1165.0</ele><time>2026-03-28T12:27:34.999Z</time></trkpt><trkpt lat="45.626365096120786" lon="11.088878620590508"><ele>1165.0</ele><time>2026-03-28T12:27:35.999Z</time></trkpt><trkpt lat="45.626481737925026" lon="11.088809635735613"><ele>1165.0</ele><time>2026-03-28T12:27:36.999Z</time></trkpt><trkpt lat="45.626581583654676" lon="11.088724421487713"><ele>1165.0</ele><time>2026-03-28T12:27:37.999Z</time></trkpt><trkpt lat="45.62666028502689" lon="11.088638805140533"><ele>1165.0</ele><time>2026-03-28T12:27:38.999Z</time></trkpt><trkpt lat="45.626710891468555" lon="11.088552130592996"><ele>1165.0</ele><time>2026-03-28T12:27:39.999Z</time></trkpt><trkpt lat="45.626779895675256" lon="11.08845673329253"><ele>1165.0</ele><time>2026-03-28T12:27:41.999Z</time></trkpt><trkpt lat="45.62684423771335" lon="11.088397973695935"><ele>1165.0</ele><time>2026-03-28T12:27:43.999Z</time></trkpt><trkpt lat="45.62693402174954" lon="11.088348966702634"><ele>1165.0</ele><time>2026-03-28T12:27:45.999Z</time></trkpt><trkpt lat="45.62704923161198" lon="11.088333528942012"><ele>1168.0</ele><time>2026-03-28T12:27:47.999Z</time></trkpt><trkpt lat="45.62714030914304" lon="11.088354356780284"><ele>1168.0</ele><time>2026-03-28T12:27:49.999Z</time></trkpt><trkpt lat="45.62721825243927" lon="11.088354331182515"><ele>1168.0</ele><time>2026-03-28T12:27:52.999Z</time></trkpt><trkpt lat="45.62729966058681" lon="11.088383961806812"><ele>1168.0</ele><time>2026-03-28T12:28:01.999Z</time></trkpt></trkseg><trkseg><trkpt lat="45.62770248477603" lon="11.089510697149287"><ele>1171.0</ele><time>2026-03-28T13:59:53.999Z</time></trkpt><trkpt lat="45.627752235091144" lon="11.089573264387532"><ele>1171.0</ele><time>2026-03-28T14:00:09.999Z</time></trkpt><trkpt lat="45.62773919136112" lon="11.089677335179887"><ele>1171.0</ele><time>2026-03-28T14:00:14.999Z</time></trkpt><trkpt lat="45.62767610227218" lon="11.089712028956615"><ele>1171.0</ele><time>2026-03-28T14:03:54.999Z</time></trkpt><trkpt lat="45.627610244604384" lon="11.089728408487362"><ele>1171.0</ele><time>2026-03-28T14:03:56.999Z</time></trkpt><trkpt lat="45.62752754923068" lon="11.089752954460167"><ele>1171.0</ele><time>2026-03-28T14:03:59.999Z</time></trkpt><trkpt lat="45.627440234347944" lon="11.089755405826834"><ele>1171.0</ele><time>2026-03-28T14:04:02.999Z</time></trkpt><trkpt lat="45.62735492794808" lon="11.089728426796288"><ele>1171.0</ele><time>2026-03-28T14:04:05.999Z</time></trkpt><trkpt lat="45.627293169530375" lon="11.089706672367646"><ele>1171.0</ele><time>2026-03-28T14:04:07.999Z</time></trkpt><trkpt lat="45.62724152674746" lon="11.089622471519295"><ele>1171.0</ele><time>2026-03-28T14:04:09.999Z</time></trkpt><trkpt lat="45.627217509882094" lon="11.089496418091423"><ele>1171.0</ele><time>2026-03-28T14:04:11.999Z</time></trkpt><trkpt lat="45.62719972676831" lon="11.089396666323834"><ele>1171.0</ele><time>2026-03-28T14:04:13.999Z</time></trkpt><trkpt lat="45.627178612429255" lon="11.08928938065161"><ele>1171.0</ele><time>2026-03-28T14:04:15.999Z</time></trkpt><trkpt lat="45.62715940805575" lon="11.08918817691764"><ele>1170.5</ele><time>2026-03-28T14:04:17.999Z</time></trkpt><trkpt lat="45.62713178108342" lon="11.089076581908321"><ele>1170.0</ele><time>2026-03-28T14:04:19.999Z</time></trkpt><trkpt lat="45.627101187344536" lon="11.088936078077445"><ele>1169.5</ele><time>2026-03-28T14:04:21.999Z</time></trkpt><trkpt lat="45.62707590586463" lon="11.088803834997519"><ele>1169.0</ele><time>2026-03-28T14:04:23.999Z</time></trkpt><trkpt lat="45.62705874775023" lon="11.088679580360443"><ele>1168.5</ele><time>2026-03-28T14:04:25.999Z</time></trkpt><trkpt lat="45.62703558969351" lon="11.088575065462397"><ele>1168.0</ele><time>2026-03-28T14:04:27.999Z</time></trkpt><trkpt lat="45.626999147721605" lon="11.088473273569749"><ele>1167.5714285714284</ele><time>2026-03-28T14:04:30.999Z</time></trkpt><trkpt lat="45.626934516626285" lon="11.088450734298648"><ele>1167.142857142857</ele><time>2026-03-28T14:04:32.999Z</time></trkpt><trkpt lat="45.626871825254376" lon="11.088475136799598"><ele>1166.7142857142858</ele><time>2026-03-28T14:04:34.999Z</time></trkpt><trkpt lat="45.626801001982585" lon="11.088485727434286"><ele>1166.2857142857142</ele><time>2026-03-28T14:04:38.999Z</time></trkpt><trkpt lat="45.62671837546433" lon="11.08850536071431"><ele>1165.857142857143</ele><time>2026-03-28T14:04:40.999Z</time></trkpt><trkpt lat="45.62665906629638" lon="11.088567963314294"><ele>1165.4285714285713</ele><time>2026-03-28T14:04:41.999Z</time></trkpt><trkpt lat="45.626598222029315" lon="11.088652486962763"><ele>1165.0</ele><time>2026-03-28T14:04:42.999Z</time></trkpt><trkpt lat="45.62652671069276" lon="11.088730154986361"><ele>1165.0</ele><time>2026-03-28T14:04:43.999Z</time></trkpt><trkpt lat="45.62645957541337" lon="11.088786439975882"><ele>1165.0</ele><time>2026-03-28T14:04:44.999Z</time></trkpt><trkpt lat="45.626392957519286" lon="11.088819733354725"><ele>1165.0</ele><time>2026-03-28T14:04:45.999Z</time></trkpt><trkpt lat="45.626330054949506" lon="11.088847351797817"><ele>1165.0</ele><time>2026-03-28T14:04:46.999Z</time></trkpt><trkpt lat="45.62620657191508" lon="11.088893739863234"><ele>1165.0</ele><time>2026-03-28T14:04:48.999Z</time></trkpt><trkpt lat="45.62613215925956" lon="11.088920507813903"><ele>1165.0</ele><time>2026-03-28T14:04:50Z</time></trkpt><trkpt lat="45.626051192990474" lon="11.088944877171604"><ele>1165.0</ele><time>2026-03-28T14:04:51Z</time></trkpt><trkpt lat="45.62596917927182" lon="11.088960989336682"><ele>1165.0</ele><time>2026-03-28T14:04:52Z</time></trkpt><trkpt lat="45.62588733631593" lon="11.088982915065722"><ele>1165.0</ele><time>2026-03-28T14:04:53Z</time></trkpt><trkpt lat="45.625812414225535" lon="11.088997814051966"><ele>1165.0</ele><time>2026-03-28T14:04:54Z</time></trkpt><trkpt lat="45.62573584418494" lon="11.089020781567125"><ele>1165.0</ele><time>2026-03-28T14:04:55Z</time></trkpt><trkpt lat="45.62565231610362" lon="11.089051791410922"><ele>1165.0</ele><time>2026-03-28T14:04:56Z</time></trkpt><trkpt lat="45.625566317580066" lon="11.089082849379732"><ele>1165.4</ele><time>2026-03-28T14:04:57Z</time></trkpt><trkpt lat="45.62548641587498" lon="11.089108322542362"><ele>1165.8</ele><time>2026-03-28T14:04:58Z</time></trkpt><trkpt lat="45.62540085975" lon="11.089142503399083"><ele>1166.2</ele><time>2026-03-28T14:04:59Z</time></trkpt><trkpt lat="45.62531107605076" lon="11.089172055534968"><ele>1166.6</ele><time>2026-03-28T14:05:00Z</time></trkpt><trkpt lat="45.62520925751078" lon="11.089210282526201"><ele>1167.0</ele><time>2026-03-28T14:05:01Z</time></trkpt><trkpt lat="45.625096101283084" lon="11.0892423012742"><ele>1167.0</ele><time>2026-03-28T14:05:02Z</time></trkpt><trkpt lat="45.62497015729231" lon="11.089287070967696"><ele>1167.0</ele><time>2026-03-28T14:05:03Z</time></trkpt><trkpt lat="45.624841216320114" lon="11.089335567588295"><ele>1167.0</ele><time>2026-03-28T14:05:04Z</time></trkpt><trkpt lat="45.62471894592978" lon="11.089379308161034"><ele>1167.0</ele><time>2026-03-28T14:05:05Z</time></trkpt><trkpt lat="45.62459931087666" lon="11.089421599100474"><ele>1168.0</ele><time>2026-03-28T14:05:06Z</time></trkpt><trkpt lat="45.624478798438965" lon="11.089464144820052"><ele>1169.0</ele><time>2026-03-28T14:05:07Z</time></trkpt><trkpt lat="45.62435850091676" lon="11.089492533224547"><ele>1170.0</ele><time>2026-03-28T14:05:08Z</time></trkpt><trkpt lat="45.6242560027121" lon="11.089501964306322"><ele>1171.0</ele><time>2026-03-28T14:05:09Z</time></trkpt><trkpt lat="45.6241694818944" lon="11.089476677573504"><ele>1172.0</ele><time>2026-03-28T14:05:10Z</time></trkpt><trkpt lat="45.62409969156843" lon="11.089464988083071"><ele>1172.0</ele><time>2026-03-28T14:05:11Z</time></trkpt><trkpt lat="45.624019648305435" lon="11.089468858320169"><ele>1172.0</ele><time>2026-03-28T14:05:12Z</time></trkpt><trkpt lat="45.623937396397565" lon="11.089443706028765"><ele>1172.0</ele><time>2026-03-28T14:05:13Z</time></trkpt><trkpt lat="45.62384584339783" lon="11.089418551568436"><ele>1172.0</ele><time>2026-03-28T14:05:14Z</time></trkpt><trkpt lat="45.62373688364655" lon="11.089395965531896"><ele>1172.0</ele><time>2026-03-28T14:05:15Z</time></trkpt><trkpt lat="45.62361433618713" lon="11.089369325685348"><ele>1174.5</ele><time>2026-03-28T14:05:16Z</time></trkpt><trkpt lat="45.62348120364735" lon="11.089337916877454"><ele>1177.0</ele><time>2026-03-28T14:05:17Z</time></trkpt><trkpt lat="45.623340283526275" lon="11.089323776362688"><ele>1179.5</ele><time>2026-03-28T14:05:18Z</time></trkpt><trkpt lat="45.6231994510006" lon="11.089312090893111"><ele>1182.0</ele><time>2026-03-28T14:05:19Z</time></trkpt><trkpt lat="45.623065407849786" lon="11.089298957196238"><ele>1182.0</ele><time>2026-03-28T14:05:20Z</time></trkpt><trkpt lat="45.62293490917304" lon="11.089292468784954"><ele>1182.0</ele><time>2026-03-28T14:05:21Z</time></trkpt><trkpt lat="45.622813930399" lon="11.089286792128345"><ele>1182.0</ele><time>2026-03-28T14:05:22Z</time></trkpt><trkpt lat="45.62270065369888" lon="11.089288788524337"><ele>1182.0</ele><time>2026-03-28T14:05:23Z</time></trkpt><trkpt lat="45.622582543695934" lon="11.089289073346603"><ele>1182.25</ele><time>2026-03-28T14:05:24Z</time></trkpt><trkpt lat="45.622463266087166" lon="11.089279762703939"><ele>1182.5</ele><time>2026-03-28T14:05:25Z</time></trkpt><trkpt lat="45.62234533585397" lon="11.089275723135167"><ele>1182.75</ele><time>2026-03-28T14:05:26Z</time></trkpt><trkpt lat="45.62222586027251" lon="11.089279323950677"><ele>1183.0</ele><time>2026-03-28T14:05:27Z</time></trkpt><trkpt lat="45.622106991855134" lon="11.089282098984063"><ele>1183.0</ele><time>2026-03-28T14:05:28Z</time></trkpt><trkpt lat="45.6219875894692" lon="11.089279007565805"><ele>1183.0</ele><time>2026-03-28T14:05:29Z</time></trkpt><trkpt lat="45.621866054752495" lon="11.089276606372588"><ele>1183.0</ele><time>2026-03-28T14:05:30Z</time></trkpt><trkpt lat="45.621743087658544" lon="11.089264948821443"><ele>1183.0</ele><time>2026-03-28T14:05:31Z</time></trkpt><trkpt lat="45.62162656242279" lon="11.089254677181184"><ele>1183.25</ele><time>2026-03-28T14:05:32Z</time></trkpt><trkpt lat="45.621510519382916" lon="11.089234069857415"><ele>1183.5</ele><time>2026-03-28T14:05:33Z</time></trkpt><trkpt lat="45.621392464708386" lon="11.089208206690284"><ele>1183.75</ele><time>2026-03-28T14:05:34Z</time></trkpt><trkpt lat="45.62126921713252" lon="11.089133335877575"><ele>1184.0</ele><time>2026-03-28T14:05:35Z</time></trkpt><trkpt lat="45.621139677040375" lon="11.089060944424306"><ele>1182.75</ele><time>2026-03-28T14:05:36Z</time></trkpt><trkpt lat="45.62100751569378" lon="11.089002110398352"><ele>1181.5</ele><time>2026-03-28T14:05:37Z</time></trkpt><trkpt lat="45.62089117978631" lon="11.08892279369848"><ele>1180.25</ele><time>2026-03-28T14:05:38Z</time></trkpt><trkpt lat="45.620778321276696" lon="11.088848550136571"><ele>1179.0</ele><time>2026-03-28T14:05:39Z</time></trkpt><trkpt lat="45.62067008436189" lon="11.088775217659226"><ele>1179.0</ele><time>2026-03-28T14:05:40Z</time></trkpt><trkpt lat="45.6205762018795" lon="11.08870821989352"><ele>1179.0</ele><time>2026-03-28T14:05:41Z</time></trkpt><trkpt lat="45.620491485291794" lon="11.088648051102453"><ele>1179.0</ele><time>2026-03-28T14:05:42Z</time></trkpt><trkpt lat="45.62041509437417" lon="11.088589952909336"><ele>1179.0</ele><time>2026-03-28T14:05:43Z</time></trkpt><trkpt lat="45.6203384647941" lon="11.088534542917497"><ele>1179.0</ele><time>2026-03-28T14:05:44Z</time></trkpt><trkpt lat="45.62026442244267" lon="11.088485455608703"><ele>1175.0</ele><time>2026-03-28T14:05:45Z</time></trkpt><trkpt lat="45.62019360374855" lon="11.088440527203822"><ele>1171.0</ele><time>2026-03-28T14:05:46Z</time></trkpt><trkpt lat="45.620125288349925" lon="11.08839983435566"><ele>1167.0</ele><time>2026-03-28T14:05:47Z</time></trkpt><trkpt lat="45.6200631827101" lon="11.088365596622477"><ele>1163.0</ele><time>2026-03-28T14:05:48Z</time></trkpt><trkpt lat="45.6199564140989" lon="11.088322493405359"><ele>1159.0</ele><time>2026-03-28T14:05:50Z</time></trkpt><trkpt lat="45.61988730407676" lon="11.088277990997456"><ele>1155.0</ele><time>2026-03-28T14:05:52Z</time></trkpt><trkpt lat="45.619835279626656" lon="11.088207018526184"><ele>1155.0</ele><time>2026-03-28T14:05:53.999Z</time></trkpt><trkpt lat="45.6197763936091" lon="11.088244713070843"><ele>1155.0</ele><time>2026-03-28T14:05:58.999Z</time></trkpt><trkpt lat="45.619699278238784" lon="11.088341654650877"><ele>1155.0</ele><time>2026-03-28T14:06:52.999Z</time></trkpt><trkpt lat="45.61963374486471" lon="11.088379052385134"><ele>1155.0</ele><time>2026-03-28T14:06:53.999Z</time></trkpt><trkpt lat="45.619559158601575" lon="11.088436720269431"><ele>1155.0</ele><time>2026-03-28T14:06:54.999Z</time></trkpt><trkpt lat="45.61948650563316" lon="11.088505764645861"><ele>1155.0</ele><time>2026-03-28T14:06:56Z</time></trkpt><trkpt lat="45.619425576113" lon="11.088605392243146"><ele>1149.6</ele><time>2026-03-28T14:06:57Z</time></trkpt><trkpt lat="45.61933733303362" lon="11.088674837194386"><ele>1144.2</ele><time>2026-03-28T14:06:58Z</time></trkpt><trkpt lat="45.61925340487065" lon="11.08876539012486"><ele>1138.8</ele><time>2026-03-28T14:06:59Z</time></trkpt><trkpt lat="45.61916461545753" lon="11.088862200563272"><ele>1133.4</ele><time>2026-03-28T14:07:00Z</time></trkpt><trkpt lat="45.61907436821253" lon="11.088962927130197"><ele>1128.0</ele><time>2026-03-28T14:07:01Z</time></trkpt><trkpt lat="45.61898787725908" lon="11.089059911790399"><ele>1130.6</ele><time>2026-03-28T14:07:02Z</time></trkpt><trkpt lat="45.61890936284554" lon="11.089158232449096"><ele>1133.1999999999998</ele><time>2026-03-28T14:07:03Z</time></trkpt><trkpt lat="45.61886281381798" lon="11.089280316673568"><ele>1135.8</ele><time>2026-03-28T14:07:04Z</time></trkpt><trkpt lat="45.61882903320856" lon="11.08938868563427"><ele>1138.3999999999999</ele><time>2026-03-28T14:07:05Z</time></trkpt><trkpt lat="45.61881405448259" lon="11.089493654639522"><ele>1141.0</ele><time>2026-03-28T14:07:06Z</time></trkpt><trkpt lat="45.618818949031564" lon="11.089623600731507"><ele>1141.0</ele><time>2026-03-28T14:07:07Z</time></trkpt><trkpt lat="45.618880971015216" lon="11.089741477312916"><ele>1141.0</ele><time>2026-03-28T14:07:08Z</time></trkpt><trkpt lat="45.618935783904384" lon="11.089860897112247"><ele>1141.0</ele><time>2026-03-28T14:07:09Z</time></trkpt><trkpt lat="45.61898925512373" lon="11.089976163994146"><ele>1141.0</ele><time>2026-03-28T14:07:10Z</time></trkpt><trkpt lat="45.61902226680483" lon="11.090091301099418"><ele>1141.0</ele><time>2026-03-28T14:07:11Z</time></trkpt><trkpt lat="45.61903002897804" lon="11.090204965565"><ele>1141.6</ele><time>2026-03-28T14:07:12Z</time></trkpt><trkpt lat="45.61900890127491" lon="11.090314403806811"><ele>1142.1999999999998</ele><time>2026-03-28T14:07:13Z</time></trkpt><trkpt lat="45.61896476664171" lon="11.090421994017863"><ele>1142.8000000000002</ele><time>2026-03-28T14:07:14Z</time></trkpt><trkpt lat="45.618887194457606" lon="11.090500272985057"><ele>1143.4</ele><time>2026-03-28T14:07:15Z</time></trkpt><trkpt lat="45.618803219600565" lon="11.090568344089242"><ele>1144.0</ele><time>2026-03-28T14:07:16Z</time></trkpt><trkpt lat="45.61871610682404" lon="11.090642452069318"><ele>1139.0</ele><time>2026-03-28T14:07:17Z</time></trkpt><trkpt lat="45.61861976418473" lon="11.09069866402882"><ele>1134.0</ele><time>2026-03-28T14:07:18Z</time></trkpt><trkpt lat="45.61852883694791" lon="11.090781450404647"><ele>1129.0</ele><time>2026-03-28T14:07:19Z</time></trkpt><trkpt lat="45.618445219821695" lon="11.090904848321749"><ele>1124.0</ele><time>2026-03-28T14:07:20Z</time></trkpt><trkpt lat="45.61836706862218" lon="11.091063135209648"><ele>1124.0</ele><time>2026-03-28T14:07:21Z</time></trkpt><trkpt lat="45.618295571466355" lon="11.091233242643773"><ele>1124.0</ele><time>2026-03-28T14:07:22Z</time></trkpt><trkpt lat="45.618226562755424" lon="11.091383756092423"><ele>1124.0</ele><time>2026-03-28T14:07:23Z</time></trkpt><trkpt lat="45.618149050552276" lon="11.09154480049818"><ele>1124.0</ele><time>2026-03-28T14:07:24Z</time></trkpt><trkpt lat="45.61806558115549" lon="11.091708655426142"><ele>1124.0</ele><time>2026-03-28T14:07:25Z</time></trkpt><trkpt lat="45.617982259109986" lon="11.09187849990177"><ele>1124.0</ele><time>2026-03-28T14:07:26Z</time></trkpt><trkpt lat="45.61789942109098" lon="11.09204581006799"><ele>1124.0</ele><time>2026-03-28T14:07:27Z</time></trkpt><trkpt lat="45.617810547781666" lon="11.092198425261017"><ele>1124.0</ele><time>2026-03-28T14:07:28Z</time></trkpt><trkpt lat="45.617713516356396" lon="11.092331171823577"><ele>1123.5</ele><time>2026-03-28T14:07:29Z</time></trkpt><trkpt lat="45.61761470205432" lon="11.0924605957404"><ele>1123.0</ele><time>2026-03-28T14:07:30Z</time></trkpt><trkpt lat="45.61752589741136" lon="11.092582683008867"><ele>1122.5</ele><time>2026-03-28T14:07:31Z</time></trkpt><trkpt lat="45.617451405374844" lon="11.092713592463351"><ele>1122.0</ele><time>2026-03-28T14:07:32Z</time></trkpt><trkpt lat="45.617390609215505" lon="11.09286327721499"><ele>1122.0</ele><time>2026-03-28T14:07:33Z</time></trkpt><trkpt lat="45.617339945530176" lon="11.093018751221255"><ele>1122.0</ele><time>2026-03-28T14:07:34Z</time></trkpt><trkpt lat="45.61730138378351" lon="11.093175578542974"><ele>1122.0</ele><time>2026-03-28T14:07:35Z</time></trkpt><trkpt lat="45.61726052138372" lon="11.093330600199714"><ele>1122.0</ele><time>2026-03-28T14:07:36Z</time></trkpt><trkpt lat="45.61722742697421" lon="11.09348568677682"><ele>1122.25</ele><time>2026-03-28T14:07:37Z</time></trkpt><trkpt lat="45.61719678399036" lon="11.093638222204728"><ele>1122.5</ele><time>2026-03-28T14:07:38Z</time></trkpt><trkpt lat="45.61715609874337" lon="11.09377094620742"><ele>1122.75</ele><time>2026-03-28T14:07:39Z</time></trkpt><trkpt lat="45.61708817430673" lon="11.093901816277961"><ele>1123.0</ele><time>2026-03-28T14:07:40Z</time></trkpt><trkpt lat="45.61699589406617" lon="11.094020157964309"><ele>1118.25</ele><time>2026-03-28T14:07:41Z</time></trkpt><trkpt lat="45.61688258801758" lon="11.094092557387217"><ele>1113.5</ele><time>2026-03-28T14:07:42Z</time></trkpt><trkpt lat="45.61676318517219" lon="11.094133723760336"><ele>1108.75</ele><time>2026-03-28T14:07:43Z</time></trkpt><trkpt lat="45.616640564114185" lon="11.094167061401787"><ele>1104.0</ele><time>2026-03-28T14:07:44Z</time></trkpt><trkpt lat="45.616509640339146" lon="11.094202032736986"><ele>1104.0</ele><time>2026-03-28T14:07:45Z</time></trkpt><trkpt lat="45.61637764024233" lon="11.094237737579109"><ele>1104.0</ele><time>2026-03-28T14:07:46Z</time></trkpt><trkpt lat="45.61624607617811" lon="11.094273899735299"><ele>1104.0</ele><time>2026-03-28T14:07:47Z</time></trkpt><trkpt lat="45.61611392316534" lon="11.094304202083878"><ele>1104.0</ele><time>2026-03-28T14:07:48Z</time></trkpt><trkpt lat="45.615986244184825" lon="11.094336819454083"><ele>1102.25</ele><time>2026-03-28T14:07:49Z</time></trkpt><trkpt lat="45.615854511125576" lon="11.094371372225261"><ele>1100.5</ele><time>2026-03-28T14:07:50Z</time></trkpt><trkpt lat="45.615722516411495" lon="11.094405676486549"><ele>1098.75</ele><time>2026-03-28T14:07:51Z</time></trkpt><trkpt lat="45.61557647471954" lon="11.094426129423683"><ele>1097.0</ele><time>2026-03-28T14:07:52Z</time></trkpt><trkpt lat="45.61539890379109" lon="11.094439978681255"><ele>1098.3333333333335</ele><time>2026-03-28T14:07:53Z</time></trkpt><trkpt lat="45.615199008596186" lon="11.09444895097242"><ele>1099.6666666666667</ele><time>2026-03-28T14:07:54Z</time></trkpt><trkpt lat="45.61498633438733" lon="11.094460653802336"><ele>1101.0</ele><time>2026-03-28T14:07:55Z</time></trkpt><trkpt lat="45.61480191365218" lon="11.094444335939798"><ele>1101.0</ele><time>2026-03-28T14:07:56Z</time></trkpt><trkpt lat="45.61463477985366" lon="11.094467420314526"><ele>1101.0</ele><time>2026-03-28T14:07:57Z</time></trkpt><trkpt lat="45.61448429474439" lon="11.09446468111734"><ele>1101.0</ele><time>2026-03-28T14:07:58Z</time></trkpt><trkpt lat="45.61434563805675" lon="11.094456891464272"><ele>1100.6</ele><time>2026-03-28T14:07:59Z</time></trkpt><trkpt lat="45.61421550910835" lon="11.094437245433397"><ele>1100.1999999999998</ele><time>2026-03-28T14:08:00Z</time></trkpt><trkpt lat="45.614108867692714" lon="11.094414552307656"><ele>1099.8000000000002</ele><time>2026-03-28T14:08:01Z</time></trkpt><trkpt lat="45.61402063591212" lon="11.094362451532431"><ele>1099.4</ele><time>2026-03-28T14:08:02Z</time></trkpt><trkpt lat="45.61393369448207" lon="11.094348401900138"><ele>1099.0</ele><time>2026-03-28T14:08:03Z</time></trkpt><trkpt lat="45.613846519124905" lon="11.094310527525211"><ele>1099.0</ele><time>2026-03-28T14:08:04Z</time></trkpt><trkpt lat="45.6137435755471" lon="11.094264319584186"><ele>1099.0</ele><time>2026-03-28T14:08:05Z</time></trkpt><trkpt lat="45.613633268911975" lon="11.094219276092295"><ele>1099.0</ele><time>2026-03-28T14:08:05.999Z</time></trkpt><trkpt lat="45.613514720464195" lon="11.09418555237537"><ele>1099.0</ele><time>2026-03-28T14:08:06.999Z</time></trkpt><trkpt lat="45.61338594446765" lon="11.09417319224939"><ele>1099.0</ele><time>2026-03-28T14:08:07.999Z</time></trkpt><trkpt lat="45.61325899434996" lon="11.094201109941487"><ele>1099.0</ele><time>2026-03-28T14:08:08.999Z</time></trkpt><trkpt lat="45.61313413629373" lon="11.094274334374605"><ele>1099.0</ele><time>2026-03-28T14:08:09.999Z</time></trkpt><trkpt lat="45.6130211793071" lon="11.094353883137687"><ele>1099.0</ele><time>2026-03-28T14:08:10.999Z</time></trkpt><trkpt lat="45.61292013602536" lon="11.094433959176177"><ele>1097.5</ele><time>2026-03-28T14:08:11.999Z</time></trkpt><trkpt lat="45.612802962042146" lon="11.094483964791204"><ele>1096.0</ele><time>2026-03-28T14:08:12.999Z</time></trkpt><trkpt lat="45.61267578534343" lon="11.094480610613967"><ele>1094.5</ele><time>2026-03-28T14:08:13.999Z</time></trkpt><trkpt lat="45.61255268608735" lon="11.09449361451187"><ele>1093.0</ele><time>2026-03-28T14:08:14.999Z</time></trkpt><trkpt lat="45.61243924261651" lon="11.094492051670962"><ele>1093.0</ele><time>2026-03-28T14:08:15.999Z</time></trkpt><trkpt lat="45.61233973474903" lon="11.094470160390282"><ele>1093.0</ele><time>2026-03-28T14:08:16.999Z</time></trkpt><trkpt lat="45.612238169464966" lon="11.094442885802007"><ele>1093.0</ele><time>2026-03-28T14:08:17.999Z</time></trkpt><trkpt lat="45.61216686611863" lon="11.094323995399272"><ele>1093.0</ele><time>2026-03-28T14:08:18.999Z</time></trkpt><trkpt lat="45.61209536331327" lon="11.094207824979982"><ele>1093.0</ele><time>2026-03-28T14:08:19.999Z</time></trkpt><trkpt lat="45.612015296448874" lon="11.09410887159498"><ele>1090.5</ele><time>2026-03-28T14:08:20.999Z</time></trkpt><trkpt lat="45.61191421987587" lon="11.09404020616205"><ele>1088.0</ele><time>2026-03-28T14:08:21.999Z</time></trkpt><trkpt lat="45.61179179170333" lon="11.094011349203816"><ele>1085.5</ele><time>2026-03-28T14:08:22.999Z</time></trkpt><trkpt lat="45.611677822536535" lon="11.094001620838949"><ele>1083.0</ele><time>2026-03-28T14:08:23.999Z</time></trkpt><trkpt lat="45.61157538096577" lon="11.094053609562888"><ele>1085.0</ele><time>2026-03-28T14:08:24.999Z</time></trkpt><trkpt lat="45.611506144179636" lon="11.09417583234033"><ele>1087.0</ele><time>2026-03-28T14:08:25.999Z</time></trkpt><trkpt lat="45.611439101136575" lon="11.094303558296794"><ele>1089.0</ele><time>2026-03-28T14:08:26.999Z</time></trkpt><trkpt lat="45.6113751735103" lon="11.094460287937114"><ele>1091.0</ele><time>2026-03-28T14:08:27.999Z</time></trkpt><trkpt lat="45.6113023291887" lon="11.094618326462427"><ele>1091.0</ele><time>2026-03-28T14:08:28.999Z</time></trkpt><trkpt lat="45.61121613591509" lon="11.094735753346443"><ele>1091.0</ele><time>2026-03-28T14:08:29.999Z</time></trkpt><trkpt lat="45.61113820437045" lon="11.094839826043911"><ele>1091.0</ele><time>2026-03-28T14:08:30.999Z</time></trkpt><trkpt lat="45.61105506803534" lon="11.094924704415067"><ele>1091.0</ele><time>2026-03-28T14:08:31.999Z</time></trkpt><trkpt lat="45.61094251221254" lon="11.094952497168512"><ele>1091.0</ele><time>2026-03-28T14:08:32.999Z</time></trkpt><trkpt lat="45.61081899486462" lon="11.094919528858822"><ele>1090.25</ele><time>2026-03-28T14:08:33.999Z</time></trkpt><trkpt lat="45.61068856859182" lon="11.094848350667684"><ele>1089.5</ele><time>2026-03-28T14:08:34.999Z</time></trkpt><trkpt lat="45.610560657436146" lon="11.094765644518581"><ele>1088.75</ele><time>2026-03-28T14:08:35.999Z</time></trkpt><trkpt lat="45.61043520225206" lon="11.094717317973046"><ele>1088.0</ele><time>2026-03-28T14:08:36.999Z</time></trkpt><trkpt lat="45.610305288866854" lon="11.094678861943587"><ele>1088.0</ele><time>2026-03-28T14:08:37.999Z</time></trkpt><trkpt lat="45.61017708007788" lon="11.09471842595254"><ele>1088.0</ele><time>2026-03-28T14:08:38.999Z</time></trkpt><trkpt lat="45.610056205638095" lon="11.094727916123055"><ele>1088.0</ele><time>2026-03-28T14:08:39.999Z</time></trkpt><trkpt lat="45.60993384561598" lon="11.094744782295162"><ele>1088.0</ele><time>2026-03-28T14:08:40.999Z</time></trkpt><trkpt lat="45.60980693280636" lon="11.09477367487337"><ele>1088.0</ele><time>2026-03-28T14:08:41.999Z</time></trkpt><trkpt lat="45.60968689883927" lon="11.094805025953374"><ele>1088.0</ele><time>2026-03-28T14:08:42.999Z</time></trkpt><trkpt lat="45.60957062527627" lon="11.094833792494473"><ele>1088.0</ele><time>2026-03-28T14:08:43.999Z</time></trkpt><trkpt lat="45.60946145626541" lon="11.094857979169563"><ele>1088.0</ele><time>2026-03-28T14:08:44.999Z</time></trkpt><trkpt lat="45.60935123379376" lon="11.094875617478177"><ele>1087.2</ele><time>2026-03-28T14:08:45.999Z</time></trkpt><trkpt lat="45.60924936530759" lon="11.094916864225679"><ele>1086.4</ele><time>2026-03-28T14:08:46.999Z</time></trkpt><trkpt lat="45.6091452005381" lon="11.094943550161817"><ele>1085.6000000000001</ele><time>2026-03-28T14:08:47.999Z</time></trkpt><trkpt lat="45.60903738931787" lon="11.094985468091886"><ele>1084.8</ele><time>2026-03-28T14:08:48.999Z</time></trkpt><trkpt lat="45.608929036679186" lon="11.095050826071676"><ele>1084.0</ele><time>2026-03-28T14:08:49.999Z</time></trkpt><trkpt lat="45.608826363377254" lon="11.095137306490141"><ele>1082.75</ele><time>2026-03-28T14:08:50.999Z</time></trkpt><trkpt lat="45.60872924573616" lon="11.095242450315993"><ele>1081.5</ele><time>2026-03-28T14:08:51.999Z</time></trkpt><trkpt lat="45.608640946948725" lon="11.095362661818438"><ele>1080.25</ele><time>2026-03-28T14:08:52.999Z</time></trkpt><trkpt lat="45.60855294903337" lon="11.095473424365856"><ele>1079.0</ele><time>2026-03-28T14:08:53.999Z</time></trkpt><trkpt lat="45.608465692506115" lon="11.09558622062448"><ele>1077.0</ele><time>2026-03-28T14:08:54.999Z</time></trkpt><trkpt lat="45.6083733325735" lon="11.095687969774941"><ele>1075.0</ele><time>2026-03-28T14:08:55.999Z</time></trkpt><trkpt lat="45.608264604369104" lon="11.095762567835433"><ele>1073.0</ele><time>2026-03-28T14:08:56.999Z</time></trkpt><trkpt lat="45.60814036878517" lon="11.09580171496686"><ele>1071.0</ele><time>2026-03-28T14:08:57.999Z</time></trkpt><trkpt lat="45.60801149611801" lon="11.095743512913241"><ele>1069.75</ele><time>2026-03-28T14:08:58.999Z</time></trkpt><trkpt lat="45.60788344175167" lon="11.09567020819231"><ele>1068.5</ele><time>2026-03-28T14:08:59.999Z</time></trkpt><trkpt lat="45.60776430153777" lon="11.095585155889246"><ele>1067.25</ele><time>2026-03-28T14:09:00.999Z</time></trkpt><trkpt lat="45.607643826144" lon="11.095520239358795"><ele>1066.0</ele><time>2026-03-28T14:09:02Z</time></trkpt><trkpt lat="45.607524303416376" lon="11.095461351662342"><ele>1065.6</ele><time>2026-03-28T14:09:03Z</time></trkpt><trkpt lat="45.60740477505047" lon="11.095428681825975"><ele>1065.1999999999998</ele><time>2026-03-28T14:09:04Z</time></trkpt><trkpt lat="45.60729629927801" lon="11.095420955140492"><ele>1064.8000000000002</ele><time>2026-03-28T14:09:05Z</time></trkpt><trkpt lat="45.60719982684777" lon="11.095447670094664"><ele>1064.4</ele><time>2026-03-28T14:09:06Z</time></trkpt><trkpt lat="45.60708902003531" lon="11.095423652547508"><ele>1064.0</ele><time>2026-03-28T14:09:07Z</time></trkpt><trkpt lat="45.60703075296884" lon="11.095619345682334"><ele>1064.0</ele><time>2026-03-28T14:09:08Z</time></trkpt><trkpt lat="45.60696024408435" lon="11.095722076617507"><ele>1064.0</ele><time>2026-03-28T14:09:09Z</time></trkpt><trkpt lat="45.606902454994135" lon="11.095795640317279"><ele>1064.0</ele><time>2026-03-28T14:09:10Z</time></trkpt><trkpt lat="45.60684729116141" lon="11.095866754820191"><ele>1064.0</ele><time>2026-03-28T14:09:11Z</time></trkpt><trkpt lat="45.60678696549916" lon="11.095932885528985"><ele>1064.0</ele><time>2026-03-28T14:09:12Z</time></trkpt><trkpt lat="45.60672705133974" lon="11.095983894568102"><ele>1064.0</ele><time>2026-03-28T14:09:13Z</time></trkpt><trkpt lat="45.60664972314692" lon="11.09598878425976"><ele>1067.2</ele><time>2026-03-28T14:09:14Z</time></trkpt><trkpt lat="45.60657584972339" lon="11.09600678555599"><ele>1070.4</ele><time>2026-03-28T14:09:15Z</time></trkpt><trkpt lat="45.606494131748775" lon="11.095973755033098"><ele>1073.6</ele><time>2026-03-28T14:09:16Z</time></trkpt><trkpt lat="45.606415535633026" lon="11.095930281131624"><ele>1076.8</ele><time>2026-03-28T14:09:17Z</time></trkpt><trkpt lat="45.60633866069951" lon="11.095862796301626"><ele>1080.0</ele><time>2026-03-28T14:09:18Z</time></trkpt><trkpt lat="45.6062420661984" lon="11.09576946836577"><ele>1078.0</ele><time>2026-03-28T14:09:19Z</time></trkpt><trkpt lat="45.60614367830551" lon="11.095671483705397"><ele>1076.0</ele><time>2026-03-28T14:09:20Z</time></trkpt><trkpt lat="45.60603868977232" lon="11.09559570591576"><ele>1074.0</ele><time>2026-03-28T14:09:21Z</time></trkpt><trkpt lat="45.60594502386857" lon="11.09549845384864"><ele>1072.0</ele><time>2026-03-28T14:09:22Z</time></trkpt><trkpt lat="45.60584859868572" lon="11.095397470710926"><ele>1072.0</ele><time>2026-03-28T14:09:23Z</time></trkpt><trkpt lat="45.605745821854605" lon="11.095309410706792"><ele>1072.0</ele><time>2026-03-28T14:09:24Z</time></trkpt><trkpt lat="45.605649321746775" lon="11.095222973565807"><ele>1072.0</ele><time>2026-03-28T14:09:25Z</time></trkpt><trkpt lat="45.60554569445944" lon="11.095148141719235"><ele>1072.0</ele><time>2026-03-28T14:09:26Z</time></trkpt><trkpt lat="45.605426740450504" lon="11.095090011410097"><ele>1074.25</ele><time>2026-03-28T14:09:27Z</time></trkpt><trkpt lat="45.6053047167248" lon="11.095035929462746"><ele>1076.5</ele><time>2026-03-28T14:09:28Z</time></trkpt><trkpt lat="45.605187095951685" lon="11.095002600390124"><ele>1078.75</ele><time>2026-03-28T14:09:29Z</time></trkpt><trkpt lat="45.60506667724965" lon="11.094970421860697"><ele>1081.0</ele><time>2026-03-28T14:09:30Z</time></trkpt><trkpt lat="45.60493926288084" lon="11.094954428629311"><ele>1081.0</ele><time>2026-03-28T14:09:31Z</time></trkpt><trkpt lat="45.604804627862286" lon="11.094947599713244"><ele>1081.0</ele><time>2026-03-28T14:09:32Z</time></trkpt><trkpt lat="45.60466777013445" lon="11.094956466421635"><ele>1081.0</ele><time>2026-03-28T14:09:33Z</time></trkpt><trkpt lat="45.604535805529686" lon="11.0949590666984"><ele>1081.0</ele><time>2026-03-28T14:09:34Z</time></trkpt><trkpt lat="45.60440765920631" lon="11.094951605384122"><ele>1080.0</ele><time>2026-03-28T14:09:35Z</time></trkpt><trkpt lat="45.60428596482222" lon="11.094950393798607"><ele>1079.0</ele><time>2026-03-28T14:09:36Z</time></trkpt><trkpt lat="45.604167697258475" lon="11.094941800452773"><ele>1078.0</ele><time>2026-03-28T14:09:37Z</time></trkpt><trkpt lat="45.604060782164474" lon="11.094935847761928"><ele>1077.0</ele><time>2026-03-28T14:09:38Z</time></trkpt><trkpt lat="45.603955607740765" lon="11.094938826439781"><ele>1077.0</ele><time>2026-03-28T14:09:39Z</time></trkpt><trkpt lat="45.60385155298894" lon="11.094952437852715"><ele>1077.0</ele><time>2026-03-28T14:09:40Z</time></trkpt><trkpt lat="45.60375731608466" lon="11.094981910390308"><ele>1077.0</ele><time>2026-03-28T14:09:41Z</time></trkpt><trkpt lat="45.603661508238204" lon="11.095034710726237"><ele>1077.0</ele><time>2026-03-28T14:09:42Z</time></trkpt><trkpt lat="45.6035600062267" lon="11.095127162620896"><ele>1077.0</ele><time>2026-03-28T14:09:43Z</time></trkpt><trkpt lat="45.603474251834434" lon="11.095241418177183"><ele>1079.25</ele><time>2026-03-28T14:09:44Z</time></trkpt><trkpt lat="45.60338278418731" lon="11.095352998633572"><ele>1081.5</ele><time>2026-03-28T14:09:45Z</time></trkpt><trkpt lat="45.60329410746008" lon="11.095457762138645"><ele>1083.75</ele><time>2026-03-28T14:09:46Z</time></trkpt><trkpt lat="45.6031933488306" lon="11.095543757353939"><ele>1086.0</ele><time>2026-03-28T14:09:47Z</time></trkpt><trkpt lat="45.6030898068511" lon="11.095613579240458"><ele>1086.0</ele><time>2026-03-28T14:09:48Z</time></trkpt><trkpt lat="45.60299876209687" lon="11.09566035304139"><ele>1086.0</ele><time>2026-03-28T14:09:49Z</time></trkpt><trkpt lat="45.60292122874884" lon="11.095701274877795"><ele>1086.0</ele><time>2026-03-28T14:09:50Z</time></trkpt><trkpt lat="45.60286273619068" lon="11.095754278914203"><ele>1086.0</ele><time>2026-03-28T14:09:51Z</time></trkpt><trkpt lat="45.602822181560704" lon="11.09583840814537"><ele>1086.0</ele><time>2026-03-28T14:09:52Z</time></trkpt><trkpt lat="45.60280024494007" lon="11.095946708732244"><ele>1086.0</ele><time>2026-03-28T14:09:53Z</time></trkpt><trkpt lat="45.60280129652482" lon="11.096068957418442"><ele>1082.5</ele><time>2026-03-28T14:09:54Z</time></trkpt><trkpt lat="45.6028419858276" lon="11.096190577523293"><ele>1079.0</ele><time>2026-03-28T14:09:55Z</time></trkpt><trkpt lat="45.602914033311656" lon="11.096304187766131"><ele>1075.5</ele><time>2026-03-28T14:09:56Z</time></trkpt><trkpt lat="45.60299154852312" lon="11.09643602394219"><ele>1072.0</ele><time>2026-03-28T14:09:57Z</time></trkpt><trkpt lat="45.603082155821774" lon="11.096573830705898"><ele>1071.25</ele><time>2026-03-28T14:09:58Z</time></trkpt><trkpt lat="45.60315359201121" lon="11.096726387883457"><ele>1070.5</ele><time>2026-03-28T14:09:59Z</time></trkpt><trkpt lat="45.60320599102733" lon="11.096881362836504"><ele>1069.75</ele><time>2026-03-28T14:10:00Z</time></trkpt><trkpt lat="45.603236591621986" lon="11.097036967350492"><ele>1069.0</ele><time>2026-03-28T14:10:01Z</time></trkpt><trkpt lat="45.60325859626073" lon="11.097200566475697"><ele>1069.0</ele><time>2026-03-28T14:10:02Z</time></trkpt><trkpt lat="45.60326015431763" lon="11.09737321489726"><ele>1069.0</ele><time>2026-03-28T14:10:03Z</time></trkpt><trkpt lat="45.603252855055295" lon="11.097566185103247"><ele>1069.0</ele><time>2026-03-28T14:10:04Z</time></trkpt><trkpt lat="45.603232036990335" lon="11.097789041770355"><ele>1069.0</ele><time>2026-03-28T14:10:05Z</time></trkpt><trkpt lat="45.6032104335738" lon="11.098003127869067"><ele>1069.0</ele><time>2026-03-28T14:10:06Z</time></trkpt><trkpt lat="45.6031831376048" lon="11.098207213168413"><ele>1069.0</ele><time>2026-03-28T14:10:07Z</time></trkpt><trkpt lat="45.60313977717551" lon="11.098428958080623"><ele>1069.0</ele><time>2026-03-28T14:10:08Z</time></trkpt><trkpt lat="45.60307215650336" lon="11.09866731942606"><ele>1067.6666666666665</ele><time>2026-03-28T14:10:09Z</time></trkpt><trkpt lat="45.60299731626248" lon="11.098928305304664"><ele>1066.3333333333333</ele><time>2026-03-28T14:10:10Z</time></trkpt><trkpt lat="45.60292801566413" lon="11.099212139369241"><ele>1065.0</ele><time>2026-03-28T14:10:11Z</time></trkpt><trkpt lat="45.6028733087937" lon="11.099463868075265"><ele>1063.75</ele><time>2026-03-28T14:10:11.999Z</time></trkpt><trkpt lat="45.60282436266474" lon="11.0996607187381"><ele>1062.5</ele><time>2026-03-28T14:10:12.999Z</time></trkpt><trkpt lat="45.602765034126854" lon="11.099816281570583"><ele>1061.25</ele><time>2026-03-28T14:10:13.999Z</time></trkpt><trkpt lat="45.60268060524609" lon="11.099953896299018"><ele>1060.0</ele><time>2026-03-28T14:10:14.999Z</time></trkpt><trkpt lat="45.60257495046245" lon="11.100051506666587"><ele>1060.0</ele><time>2026-03-28T14:10:15.999Z</time></trkpt><trkpt lat="45.60246000217908" lon="11.100064243095257"><ele>1060.0</ele><time>2026-03-28T14:10:16.999Z</time></trkpt><trkpt lat="45.60234557236911" lon="11.10003701256388"><ele>1060.0</ele><time>2026-03-28T14:10:17.999Z</time></trkpt><trkpt lat="45.60223766963467" lon="11.09996743037935"><ele>1060.0</ele><time>2026-03-28T14:10:18.999Z</time></trkpt><trkpt lat="45.60215626105992" lon="11.099866293244016"><ele>1058.25</ele><time>2026-03-28T14:10:19.999Z</time></trkpt><trkpt lat="45.602098298575406" lon="11.099742580415725"><ele>1056.5</ele><time>2026-03-28T14:10:20.999Z</time></trkpt><trkpt lat="45.60203866532951" lon="11.09959656706795"><ele>1054.75</ele><time>2026-03-28T14:10:21.999Z</time></trkpt><trkpt lat="45.6019671598963" lon="11.099447362009302"><ele>1053.0</ele><time>2026-03-28T14:10:22.999Z</time></trkpt><trkpt lat="45.601903318542156" lon="11.0992820844686"><ele>1053.0</ele><time>2026-03-28T14:10:23.999Z</time></trkpt><trkpt lat="45.60181612878007" lon="11.099128367464685"><ele>1053.0</ele><time>2026-03-28T14:10:24.999Z</time></trkpt><trkpt lat="45.60171460049458" lon="11.098998821105198"><ele>1053.0</ele><time>2026-03-28T14:10:25.999Z</time></trkpt><trkpt lat="45.60159486316034" lon="11.09890206689306"><ele>1053.0</ele><time>2026-03-28T14:10:26.999Z</time></trkpt><trkpt lat="45.601457107486475" lon="11.098808339456381"><ele>1056.0</ele><time>2026-03-28T14:10:27.999Z</time></trkpt><trkpt lat="45.60131568897692" lon="11.098757336898396"><ele>1059.0</ele><time>2026-03-28T14:10:28.999Z</time></trkpt><trkpt lat="45.601160156848906" lon="11.098719181390917"><ele>1062.0</ele><time>2026-03-28T14:10:29.999Z</time></trkpt><trkpt lat="45.6010005940395" lon="11.098678810586291"><ele>1062.0</ele><time>2026-03-28T14:10:30.999Z</time></trkpt><trkpt lat="45.60085981939504" lon="11.098646635039644"><ele>1062.0</ele><time>2026-03-28T14:10:31.999Z</time></trkpt><trkpt lat="45.60072243320084" lon="11.098633660205698"><ele>1062.0</ele><time>2026-03-28T14:10:32.999Z</time></trkpt><trkpt lat="45.60058661356696" lon="11.09865163388388"><ele>1062.0</ele><time>2026-03-28T14:10:33.999Z</time></trkpt><trkpt lat="45.60044497334184" lon="11.098707970133992"><ele>1064.0</ele><time>2026-03-28T14:10:34.999Z</time></trkpt><trkpt lat="45.600300205134715" lon="11.098781887467355"><ele>1066.0</ele><time>2026-03-28T14:10:35.999Z</time></trkpt><trkpt lat="45.60015715168419" lon="11.09888144463827"><ele>1068.0</ele><time>2026-03-28T14:10:36.999Z</time></trkpt><trkpt lat="45.60001515861403" lon="11.09902108687554"><ele>1060.3333333333333</ele><time>2026-03-28T14:10:37.999Z</time></trkpt><trkpt lat="45.59987712252686" lon="11.099166726889688"><ele>1052.6666666666665</ele><time>2026-03-28T14:10:38.999Z</time></trkpt><trkpt lat="45.59975006366785" lon="11.099304586970698"><ele>1045.0</ele><time>2026-03-28T14:10:39.999Z</time></trkpt><trkpt lat="45.59963496185056" lon="11.099429613902915"><ele>1045.0</ele><time>2026-03-28T14:10:40.999Z</time></trkpt><trkpt lat="45.59952043383247" lon="11.099547427241541"><ele>1045.0</ele><time>2026-03-28T14:10:41.999Z</time></trkpt><trkpt lat="45.599402924295944" lon="11.099662250717804"><ele>1045.0</ele><time>2026-03-28T14:10:42.999Z</time></trkpt><trkpt lat="45.59929077002495" lon="11.099771168403572"><ele>1045.0</ele><time>2026-03-28T14:10:43.999Z</time></trkpt><trkpt lat="45.59917472182198" lon="11.099888057759642"><ele>1043.25</ele><time>2026-03-28T14:10:44.999Z</time></trkpt><trkpt lat="45.59906090618913" lon="11.100008661807559"><ele>1041.5</ele><time>2026-03-28T14:10:45.999Z</time></trkpt><trkpt lat="45.59895142402716" lon="11.100114980999944"><ele>1039.75</ele><time>2026-03-28T14:10:46.999Z</time></trkpt><trkpt lat="45.598844387265814" lon="11.100204712968823"><ele>1038.0</ele><time>2026-03-28T14:10:47.999Z</time></trkpt><trkpt lat="45.598734003284974" lon="11.100267425583871"><ele>1039.0</ele><time>2026-03-28T14:10:48.999Z</time></trkpt><trkpt lat="45.59861036803352" lon="11.100305462277047"><ele>1040.0</ele><time>2026-03-28T14:10:49.999Z</time></trkpt><trkpt lat="45.59848428784644" lon="11.100322377747094"><ele>1041.0</ele><time>2026-03-28T14:10:50.999Z</time></trkpt><trkpt lat="45.598372150999175" lon="11.100291463338449"><ele>1042.0</ele><time>2026-03-28T14:10:51.999Z</time></trkpt><trkpt lat="45.59828393517503" lon="11.100265112331238"><ele>1042.0</ele><time>2026-03-28T14:10:52.999Z</time></trkpt><trkpt lat="45.598214835265615" lon="11.10023256173911"><ele>1042.0</ele><time>2026-03-28T14:10:53.999Z</time></trkpt><trkpt lat="45.59815055262941" lon="11.100214746168076"><ele>1042.0</ele><time>2026-03-28T14:10:54.999Z</time></trkpt><trkpt lat="45.59808010477265" lon="11.100131207787577"><ele>1042.0</ele><time>2026-03-28T14:10:56.999Z</time></trkpt><trkpt lat="45.59797473340101" lon="11.100401222863958"><ele>1042.0</ele><time>2026-03-28T14:10:59.999Z</time></trkpt><trkpt lat="45.5979790334879" lon="11.100531104587438"><ele>1042.0</ele><time>2026-03-28T14:11:00.999Z</time></trkpt><trkpt lat="45.59798807536352" lon="11.1006912831284"><ele>1042.0</ele><time>2026-03-28T14:11:01.999Z</time></trkpt><trkpt lat="45.59800335904387" lon="11.100834759241105"><ele>1042.0</ele><time>2026-03-28T14:11:02.999Z</time></trkpt><trkpt lat="45.59802500558615" lon="11.100972700164178"><ele>1042.0</ele><time>2026-03-28T14:11:03.999Z</time></trkpt><trkpt lat="45.59802034768633" lon="11.101082597065803"><ele>1042.0</ele><time>2026-03-28T14:11:04.999Z</time></trkpt><trkpt lat="45.59800197907303" lon="11.101201580401007"><ele>1042.0</ele><time>2026-03-28T14:11:05.999Z</time></trkpt><trkpt lat="45.597961766637" lon="11.101328387934482"><ele>1042.0</ele><time>2026-03-28T14:11:06.999Z</time></trkpt><trkpt lat="45.597912905065975" lon="11.101466255469642"><ele>1042.0</ele><time>2026-03-28T14:11:08Z</time></trkpt><trkpt lat="45.59785719593503" lon="11.101622728539608"><ele>1042.0</ele><time>2026-03-28T14:11:09Z</time></trkpt><trkpt lat="45.597812026737884" lon="11.101781976109535"><ele>1042.0</ele><time>2026-03-28T14:11:10Z</time></trkpt><trkpt lat="45.59776710552208" lon="11.101921949182017"><ele>1042.0</ele><time>2026-03-28T14:11:11Z</time></trkpt><trkpt lat="45.59771618192283" lon="11.10206272651826"><ele>1042.0</ele><time>2026-03-28T14:11:12Z</time></trkpt><trkpt lat="45.597652082601016" lon="11.102198994359085"><ele>1042.0</ele><time>2026-03-28T14:11:13Z</time></trkpt><trkpt lat="45.59757614166264" lon="11.10233112781993"><ele>1042.0</ele><time>2026-03-28T14:11:14Z</time></trkpt><trkpt lat="45.59748252137498" lon="11.102452903394765"><ele>1039.0</ele><time>2026-03-28T14:11:15Z</time></trkpt><trkpt lat="45.59738027366466" lon="11.102556019354813"><ele>1036.0</ele><time>2026-03-28T14:11:16Z</time></trkpt><trkpt lat="45.597277927560384" lon="11.102636573102304"><ele>1033.0</ele><time>2026-03-28T14:11:17Z</time></trkpt><trkpt lat="45.59716741333251" lon="11.102686538888562"><ele>1030.0</ele><time>2026-03-28T14:11:18Z</time></trkpt><trkpt lat="45.597053579067314" lon="11.102720645434596"><ele>1029.2</ele><time>2026-03-28T14:11:19Z</time></trkpt><trkpt lat="45.59694740063875" lon="11.102753921265354"><ele>1028.4</ele><time>2026-03-28T14:11:20Z</time></trkpt><trkpt lat="45.59685200953468" lon="11.102810792835262"><ele>1027.6</ele><time>2026-03-28T14:11:21Z</time></trkpt><trkpt lat="45.596763834569416" lon="11.102901272798785"><ele>1026.8</ele><time>2026-03-28T14:11:22Z</time></trkpt><trkpt lat="45.596702122561126" lon="11.103026418062727"><ele>1026.0</ele><time>2026-03-28T14:11:23Z</time></trkpt><trkpt lat="45.596671404679824" lon="11.103180746829173"><ele>1026.5</ele><time>2026-03-28T14:11:24Z</time></trkpt><trkpt lat="45.59666234880381" lon="11.103341793392538"><ele>1027.0</ele><time>2026-03-28T14:11:25Z</time></trkpt><trkpt lat="45.596658223716574" lon="11.103514666820905"><ele>1027.5</ele><time>2026-03-28T14:11:26Z</time></trkpt><trkpt lat="45.59664660170844" lon="11.103710378114961"><ele>1028.0</ele><time>2026-03-28T14:11:27Z</time></trkpt><trkpt lat="45.59661990249504" lon="11.10393561758733"><ele>1027.0</ele><time>2026-03-28T14:11:28Z</time></trkpt><trkpt lat="45.59660027631409" lon="11.104178722719544"><ele>1026.0</ele><time>2026-03-28T14:11:29Z</time></trkpt><trkpt lat="45.596603281125944" lon="11.104410363915202"><ele>1025.0</ele><time>2026-03-28T14:11:30Z</time></trkpt><trkpt lat="45.596615065950076" lon="11.104617784988276"><ele>1025.0</ele><time>2026-03-28T14:11:31Z</time></trkpt><trkpt lat="45.59661238126224" lon="11.104793977197247"><ele>1025.0</ele><time>2026-03-28T14:11:32Z</time></trkpt><trkpt lat="45.596597074110555" lon="11.10496250078147"><ele>1025.0</ele><time>2026-03-28T14:11:33Z</time></trkpt><trkpt lat="45.596563848455894" lon="11.105114757005454"><ele>1025.0</ele><time>2026-03-28T14:11:34Z</time></trkpt><trkpt lat="45.59651353797422" lon="11.105259485802732"><ele>1022.25</ele><time>2026-03-28T14:11:35Z</time></trkpt><trkpt lat="45.59645057972023" lon="11.105401675729201"><ele>1019.5</ele><time>2026-03-28T14:11:36Z</time></trkpt><trkpt lat="45.59637998392097" lon="11.105543881605794"><ele>1016.75</ele><time>2026-03-28T14:11:37Z</time></trkpt><trkpt lat="45.59629773973389" lon="11.105673597117628"><ele>1014.0</ele><time>2026-03-28T14:11:38Z</time></trkpt><trkpt lat="45.5961961989854" lon="11.105790627935034"><ele>1015.0</ele><time>2026-03-28T14:11:39Z</time></trkpt><trkpt lat="45.59608005483656" lon="11.105890346084378"><ele>1016.0</ele><time>2026-03-28T14:11:40Z</time></trkpt><trkpt lat="45.595959738176546" lon="11.105962745027043"><ele>1017.0</ele><time>2026-03-28T14:11:41Z</time></trkpt><trkpt lat="45.595838114348" lon="11.105997420551779"><ele>1018.0</ele><time>2026-03-28T14:11:42Z</time></trkpt><trkpt lat="45.59572565792248" lon="11.106055400475736"><ele>1018.0</ele><time>2026-03-28T14:11:43Z</time></trkpt><trkpt lat="45.59559859931574" lon="11.10610824704352"><ele>1018.0</ele><time>2026-03-28T14:11:44Z</time></trkpt><trkpt lat="45.595464446979705" lon="11.106204859409223"><ele>1018.0</ele><time>2026-03-28T14:11:45Z</time></trkpt><trkpt lat="45.59533537131261" lon="11.106342072091316"><ele>1018.0</ele><time>2026-03-28T14:11:46Z</time></trkpt><trkpt lat="45.5952228489982" lon="11.106485503053786"><ele>1014.0</ele><time>2026-03-28T14:11:47Z</time></trkpt><trkpt lat="45.59512110314286" lon="11.106657964538911"><ele>1010.0</ele><time>2026-03-28T14:11:48Z</time></trkpt><trkpt lat="45.59501944284447" lon="11.1068635375487"><ele>1006.0</ele><time>2026-03-28T14:11:49Z</time></trkpt><trkpt lat="45.59492918042508" lon="11.107097898276447"><ele>1006.0</ele><time>2026-03-28T14:11:50Z</time></trkpt><trkpt lat="45.594835500056135" lon="11.10734220694033"><ele>1006.0</ele><time>2026-03-28T14:11:51Z</time></trkpt><trkpt lat="45.59472852795526" lon="11.107594156315226"><ele>1006.0</ele><time>2026-03-28T14:11:52Z</time></trkpt><trkpt lat="45.594616047932114" lon="11.107850043413672"><ele>1001.6666666666666</ele><time>2026-03-28T14:11:53Z</time></trkpt><trkpt lat="45.594507035431626" lon="11.108107052075248"><ele>997.3333333333333</ele><time>2026-03-28T14:11:54Z</time></trkpt><trkpt lat="45.59440335783175" lon="11.1083350558175"><ele>993.0</ele><time>2026-03-28T14:11:55Z</time></trkpt><trkpt lat="45.59430756332735" lon="11.108563795698029"><ele>987.3333333333333</ele><time>2026-03-28T14:11:56Z</time></trkpt><trkpt lat="45.59422305880495" lon="11.108783044420473"><ele>981.6666666666666</ele><time>2026-03-28T14:11:57Z</time></trkpt><trkpt lat="45.59413379565642" lon="11.108977914637254"><ele>976.0</ele><time>2026-03-28T14:11:58Z</time></trkpt><trkpt lat="45.59405227160674" lon="11.109172435772043"><ele>975.0</ele><time>2026-03-28T14:11:59Z</time></trkpt><trkpt lat="45.59398327710451" lon="11.109384041582224"><ele>974.0</ele><time>2026-03-28T14:12:00Z</time></trkpt><trkpt lat="45.593931892160455" lon="11.109618671739723"><ele>973.0</ele><time>2026-03-28T14:12:01Z</time></trkpt><trkpt lat="45.59389378892989" lon="11.109877833121063"><ele>972.3333333333333</ele><time>2026-03-28T14:12:02Z</time></trkpt><trkpt lat="45.59386734169028" lon="11.110153182417926"><ele>971.6666666666667</ele><time>2026-03-28T14:12:03Z</time></trkpt><trkpt lat="45.59385760451367" lon="11.110430587298323"><ele>971.0</ele><time>2026-03-28T14:12:04Z</time></trkpt><trkpt lat="45.59387055772943" lon="11.110697820456794"><ele>971.5</ele><time>2026-03-28T14:12:05Z</time></trkpt><trkpt lat="45.59390055524756" lon="11.110937647885567"><ele>972.0</ele><time>2026-03-28T14:12:06Z</time></trkpt><trkpt lat="45.59393853768569" lon="11.111134394843223"><ele>972.5</ele><time>2026-03-28T14:12:07Z</time></trkpt><trkpt lat="45.5939724280311" lon="11.111297472945424"><ele>973.0</ele><time>2026-03-28T14:12:08Z</time></trkpt><trkpt lat="45.59398470550633" lon="11.111449669992805"><ele>975.5999999999999</ele><time>2026-03-28T14:12:09Z</time></trkpt><trkpt lat="45.593969888637076" lon="11.111588513649883"><ele>978.1999999999999</ele><time>2026-03-28T14:12:10Z</time></trkpt><trkpt lat="45.593929010737334" lon="11.111720599149125"><ele>980.8</ele><time>2026-03-28T14:12:11Z</time></trkpt><trkpt lat="45.593869810802815" lon="11.111841789900902"><ele>983.4</ele><time>2026-03-28T14:12:12Z</time></trkpt><trkpt lat="45.59379016222443" lon="11.111940643455117"><ele>986.0</ele><time>2026-03-28T14:12:13Z</time></trkpt><trkpt lat="45.593690598732124" lon="11.112039923825911"><ele>983.5</ele><time>2026-03-28T14:12:14Z</time></trkpt><trkpt lat="45.59355938806926" lon="11.112133868232466"><ele>981.0</ele><time>2026-03-28T14:12:15Z</time></trkpt><trkpt lat="45.59341914071134" lon="11.11221912517311"><ele>978.5</ele><time>2026-03-28T14:12:15.999Z</time></trkpt><trkpt lat="45.59328553924964" lon="11.112279246689475"><ele>976.0</ele><time>2026-03-28T14:12:16.999Z</time></trkpt><trkpt lat="45.593158637103315" lon="11.112274141260253"><ele>976.0</ele><time>2026-03-28T14:12:17.999Z</time></trkpt><trkpt lat="45.59303702794712" lon="11.112267241237722"><ele>976.0</ele><time>2026-03-28T14:12:18.999Z</time></trkpt><trkpt lat="45.59290386999196" lon="11.11221882934274"><ele>976.0</ele><time>2026-03-28T14:12:19.999Z</time></trkpt><trkpt lat="45.59274402704173" lon="11.11217058322219"><ele>976.0</ele><time>2026-03-28T14:12:20.999Z</time></trkpt><trkpt lat="45.59258386448612" lon="11.112105397520066"><ele>975.5999999999999</ele><time>2026-03-28T14:12:21.999Z</time></trkpt><trkpt lat="45.59244744137178" lon="11.112070420982315"><ele>975.1999999999999</ele><time>2026-03-28T14:12:22.999Z</time></trkpt><trkpt lat="45.59233424896699" lon="11.112074605696607"><ele>974.8000000000001</ele><time>2026-03-28T14:12:23.999Z</time></trkpt><trkpt lat="45.59223174494179" lon="11.112086643310432"><ele>974.4000000000001</ele><time>2026-03-28T14:12:24.999Z</time></trkpt><trkpt lat="45.59214722689933" lon="11.112127579882257"><ele>974.0</ele><time>2026-03-28T14:12:25.999Z</time></trkpt><trkpt lat="45.59208057447644" lon="11.112224271081569"><ele>974.0</ele><time>2026-03-28T14:12:26.999Z</time></trkpt><trkpt lat="45.59202079115703" lon="11.112378762218462"><ele>974.0</ele><time>2026-03-28T14:12:27.999Z</time></trkpt><trkpt lat="45.59196562576957" lon="11.112559031899103"><ele>974.0</ele><time>2026-03-28T14:12:28.999Z</time></trkpt><trkpt lat="45.591901771532456" lon="11.11271832848769"><ele>974.0</ele><time>2026-03-28T14:12:29.999Z</time></trkpt><trkpt lat="45.59181828816101" lon="11.112825382639505"><ele>975.25</ele><time>2026-03-28T14:12:30.999Z</time></trkpt><trkpt lat="45.59169993694029" lon="11.112854520314157"><ele>976.5</ele><time>2026-03-28T14:12:31.999Z</time></trkpt><trkpt lat="45.59159048710089" lon="11.112834539455559"><ele>977.75</ele><time>2026-03-28T14:12:32.999Z</time></trkpt><trkpt lat="45.59145425931826" lon="11.112808283850327"><ele>979.0</ele><time>2026-03-28T14:12:33.999Z</time></trkpt><trkpt lat="45.59130305434748" lon="11.11278828080667"><ele>977.0</ele><time>2026-03-28T14:12:34.999Z</time></trkpt><trkpt lat="45.591146583502514" lon="11.11276132140074"><ele>975.0</ele><time>2026-03-28T14:12:35.999Z</time></trkpt><trkpt lat="45.59097375103081" lon="11.112769176544866"><ele>973.0</ele><time>2026-03-28T14:12:36.999Z</time></trkpt><trkpt lat="45.5907976307943" lon="11.112787448271114"><ele>973.0</ele><time>2026-03-28T14:12:37.999Z</time></trkpt><trkpt lat="45.590634396522546" lon="11.112799437326698"><ele>973.0</ele><time>2026-03-28T14:12:38.999Z</time></trkpt><trkpt lat="45.59047100024211" lon="11.112805507881184"><ele>973.0</ele><time>2026-03-28T14:12:39.999Z</time></trkpt><trkpt lat="45.59032068838659" lon="11.11279853629103"><ele>973.0</ele><time>2026-03-28T14:12:40.999Z</time></trkpt><trkpt lat="45.59017877895676" lon="11.112805425836049"><ele>973.0</ele><time>2026-03-28T14:12:41.999Z</time></trkpt><trkpt lat="45.590052017425045" lon="11.112852872808551"><ele>973.0</ele><time>2026-03-28T14:12:42.999Z</time></trkpt><trkpt lat="45.589936674680466" lon="11.112946977578481"><ele>973.0</ele><time>2026-03-28T14:12:43.999Z</time></trkpt><trkpt lat="45.58983579689109" lon="11.11308425090939"><ele>972.0</ele><time>2026-03-28T14:12:44.999Z</time></trkpt><trkpt lat="45.589753515275994" lon="11.113254544273863"><ele>971.0</ele><time>2026-03-28T14:12:45.999Z</time></trkpt><trkpt lat="45.589693725845436" lon="11.113423584552832"><ele>970.0</ele><time>2026-03-28T14:12:46.999Z</time></trkpt><trkpt lat="45.58959992508177" lon="11.113529688923023"><ele>969.0</ele><time>2026-03-28T14:12:47.999Z</time></trkpt><trkpt lat="45.589489548178676" lon="11.113573218340914"><ele>969.0</ele><time>2026-03-28T14:12:48.999Z</time></trkpt><trkpt lat="45.58936325653495" lon="11.113551440623858"><ele>969.0</ele><time>2026-03-28T14:12:49.999Z</time></trkpt><trkpt lat="45.58921266475663" lon="11.113527078968303"><ele>969.0</ele><time>2026-03-28T14:12:50.999Z</time></trkpt><trkpt lat="45.58905062459426" lon="11.11351737047327"><ele>969.0</ele><time>2026-03-28T14:12:51.999Z</time></trkpt><trkpt lat="45.58888716837178" lon="11.11351658990662"><ele>969.0</ele><time>2026-03-28T14:12:52.999Z</time></trkpt><trkpt lat="45.58871474263964" lon="11.113555923457797"><ele>969.0</ele><time>2026-03-28T14:12:53.999Z</time></trkpt><trkpt lat="45.58853394109431" lon="11.113624258838152"><ele>969.0</ele><time>2026-03-28T14:12:54.999Z</time></trkpt><trkpt lat="45.58835358698853" lon="11.11369892903533"><ele>967.6666666666667</ele><time>2026-03-28T14:12:55.999Z</time></trkpt><trkpt lat="45.58817380813701" lon="11.113750463992998"><ele>966.3333333333334</ele><time>2026-03-28T14:12:56.999Z</time></trkpt><trkpt lat="45.587994791237634" lon="11.113826250965047"><ele>965.0</ele><time>2026-03-28T14:12:57.999Z</time></trkpt><trkpt lat="45.58780634027974" lon="11.1139024962113"><ele>962.0</ele><time>2026-03-28T14:12:58.999Z</time></trkpt><trkpt lat="45.58760386196218" lon="11.114000165010445"><ele>959.0</ele><time>2026-03-28T14:12:59.999Z</time></trkpt><trkpt lat="45.58738698344899" lon="11.114073771209183"><ele>956.0</ele><time>2026-03-28T14:13:00.999Z</time></trkpt><trkpt lat="45.58715826119492" lon="11.114095833629312"><ele>952.5</ele><time>2026-03-28T14:13:01.999Z</time></trkpt><trkpt lat="45.58692964058714" lon="11.114134822781212"><ele>949.0</ele><time>2026-03-28T14:13:02.999Z</time></trkpt><trkpt lat="45.58669936095646" lon="11.114189926009786"><ele>949.0</ele><time>2026-03-28T14:13:03.999Z</time></trkpt><trkpt lat="45.586465297048285" lon="11.11424729280517"><ele>949.0</ele><time>2026-03-28T14:13:04.999Z</time></trkpt><trkpt lat="45.58621444985639" lon="11.114324718262946"><ele>941.0</ele><time>2026-03-28T14:13:05.999Z</time></trkpt><trkpt lat="45.58594076695845" lon="11.114420601061992"><ele>933.0</ele><time>2026-03-28T14:13:06.999Z</time></trkpt><trkpt lat="45.58564868390353" lon="11.114504390551067"><ele>933.0</ele><time>2026-03-28T14:13:07.999Z</time></trkpt><trkpt lat="45.58535711520808" lon="11.114568043966475"><ele>933.0</ele><time>2026-03-28T14:13:08.999Z</time></trkpt><trkpt lat="45.585055982535096" lon="11.114612547940114"><ele>928.5</ele><time>2026-03-28T14:13:09.999Z</time></trkpt><trkpt lat="45.58473425331296" lon="11.114655648638191"><ele>924.0</ele><time>2026-03-28T14:13:10.999Z</time></trkpt><trkpt lat="45.584402929815994" lon="11.11470335926648"><ele>924.0</ele><time>2026-03-28T14:13:11.999Z</time></trkpt><trkpt lat="45.58406808100909" lon="11.1147510797833"><ele>924.0</ele><time>2026-03-28T14:13:12.999Z</time></trkpt><trkpt lat="45.58375558238068" lon="11.11479752787353"><ele>923.5</ele><time>2026-03-28T14:13:14Z</time></trkpt><trkpt lat="45.58345891438516" lon="11.114837800224693"><ele>923.0</ele><time>2026-03-28T14:13:15Z</time></trkpt><trkpt lat="45.58317491229423" lon="11.114870631177737"><ele>923.0</ele><time>2026-03-28T14:13:16Z</time></trkpt><trkpt lat="45.58292165006393" lon="11.114889928477524"><ele>923.0</ele><time>2026-03-28T14:13:17Z</time></trkpt><trkpt lat="45.58268859973632" lon="11.114866731590887"><ele>926.0</ele><time>2026-03-28T14:13:18Z</time></trkpt><trkpt lat="45.58246780774545" lon="11.114879995863188"><ele>929.0</ele><time>2026-03-28T14:13:19Z</time></trkpt><trkpt lat="45.58225702949533" lon="11.114866331339194"><ele>932.0</ele><time>2026-03-28T14:13:20Z</time></trkpt><trkpt lat="45.582050633782885" lon="11.114850215489422"><ele>935.6666666666667</ele><time>2026-03-28T14:13:21Z</time></trkpt><trkpt lat="45.581853048045346" lon="11.114830314090677"><ele>939.3333333333333</ele><time>2026-03-28T14:13:22Z</time></trkpt><trkpt lat="45.58165950138847" lon="11.114810617412001"><ele>943.0</ele><time>2026-03-28T14:13:23Z</time></trkpt><trkpt lat="45.58146289751986" lon="11.114803183803607"><ele>943.0</ele><time>2026-03-28T14:13:24Z</time></trkpt><trkpt lat="45.58125644924963" lon="11.114816493352675"><ele>943.0</ele><time>2026-03-28T14:13:25Z</time></trkpt><trkpt lat="45.58104977392752" lon="11.114861026816364"><ele>943.0</ele><time>2026-03-28T14:13:26Z</time></trkpt><trkpt lat="45.58085493533741" lon="11.114923504799101"><ele>939.3333333333333</ele><time>2026-03-28T14:13:27Z</time></trkpt><trkpt lat="45.58067876263826" lon="11.11499629330025"><ele>935.6666666666667</ele><time>2026-03-28T14:13:28Z</time></trkpt><trkpt lat="45.58051570056966" lon="11.115083620705033"><ele>932.0</ele><time>2026-03-28T14:13:29Z</time></trkpt><trkpt lat="45.58036669070692" lon="11.11519490672498"><ele>932.3333333333334</ele><time>2026-03-28T14:13:30Z</time></trkpt><trkpt lat="45.580209134665985" lon="11.11534045255233"><ele>932.6666666666667</ele><time>2026-03-28T14:13:31Z</time></trkpt><trkpt lat="45.580037999779194" lon="11.115496761953528"><ele>933.0</ele><time>2026-03-28T14:13:32Z</time></trkpt><trkpt lat="45.57984769498345" lon="11.115656856261568"><ele>933.5</ele><time>2026-03-28T14:13:33Z</time></trkpt><trkpt lat="45.579643530229234" lon="11.1158177243863"><ele>934.0</ele><time>2026-03-28T14:13:34Z</time></trkpt><trkpt lat="45.57943573265278" lon="11.115994439558287"><ele>934.0</ele><time>2026-03-28T14:13:35Z</time></trkpt><trkpt lat="45.57922250578725" lon="11.116172040669596"><ele>934.0</ele><time>2026-03-28T14:13:36Z</time></trkpt><trkpt lat="45.57900280883898" lon="11.116356430165556"><ele>934.0</ele><time>2026-03-28T14:13:37Z</time></trkpt><trkpt lat="45.57878228924736" lon="11.116559900747246"><ele>934.0</ele><time>2026-03-28T14:13:38Z</time></trkpt><trkpt lat="45.578563348030265" lon="11.116789938827086"><ele>935.5</ele><time>2026-03-28T14:13:39Z</time></trkpt><trkpt lat="45.57836720318003" lon="11.117008486595811"><ele>937.0</ele><time>2026-03-28T14:13:40Z</time></trkpt><trkpt lat="45.57819218265002" lon="11.117200852302652"><ele>937.0</ele><time>2026-03-28T14:13:41Z</time></trkpt><trkpt lat="45.57802607322115" lon="11.117372412334415"><ele>937.0</ele><time>2026-03-28T14:13:42Z</time></trkpt><trkpt lat="45.577865960323756" lon="11.117538548989398"><ele>937.0</ele><time>2026-03-28T14:13:43Z</time></trkpt><trkpt lat="45.577701644968315" lon="11.117711893298889"><ele>937.0</ele><time>2026-03-28T14:13:44Z</time></trkpt><trkpt lat="45.57753793474533" lon="11.11788181336429"><ele>937.0</ele><time>2026-03-28T14:13:45Z</time></trkpt><trkpt lat="45.57737245693428" lon="11.11803908014811"><ele>937.0</ele><time>2026-03-28T14:13:46Z</time></trkpt><trkpt lat="45.5771934977583" lon="11.118187017418924"><ele>936.3333333333333</ele><time>2026-03-28T14:13:47Z</time></trkpt><trkpt lat="45.5770150037134" lon="11.11832915069316"><ele>935.6666666666667</ele><time>2026-03-28T14:13:48Z</time></trkpt><trkpt lat="45.57682986481978" lon="11.118466219740089"><ele>935.0</ele><time>2026-03-28T14:13:49Z</time></trkpt><trkpt lat="45.57664581328359" lon="11.118602811204415"><ele>935.0</ele><time>2026-03-28T14:13:50Z</time></trkpt><trkpt lat="45.57647970059323" lon="11.118741550230014"><ele>935.0</ele><time>2026-03-28T14:13:51Z</time></trkpt><trkpt lat="45.5763292822788" lon="11.118882685142347"><ele>935.0</ele><time>2026-03-28T14:13:52Z</time></trkpt><trkpt lat="45.576182342767545" lon="11.119024889671007"><ele>933.3333333333334</ele><time>2026-03-28T14:13:53Z</time></trkpt><trkpt lat="45.57604965747176" lon="11.11917155165066"><ele>931.6666666666667</ele><time>2026-03-28T14:13:54Z</time></trkpt><trkpt lat="45.575933696420456" lon="11.119345423764077"><ele>930.0</ele><time>2026-03-28T14:13:55Z</time></trkpt><trkpt lat="45.57583118908865" lon="11.119550573127041"><ele>930.0</ele><time>2026-03-28T14:13:56Z</time></trkpt><trkpt lat="45.5757326227201" lon="11.119778111959778"><ele>930.0</ele><time>2026-03-28T14:13:57Z</time></trkpt><trkpt lat="45.57562434002567" lon="11.120020441903073"><ele>930.0</ele><time>2026-03-28T14:13:58Z</time></trkpt><trkpt lat="45.57551333313604" lon="11.120248565030481"><ele>928.3333333333333</ele><time>2026-03-28T14:13:59Z</time></trkpt><trkpt lat="45.575403909514414" lon="11.120453229553807"><ele>926.6666666666666</ele><time>2026-03-28T14:14:00Z</time></trkpt><trkpt lat="45.57529759184355" lon="11.120626218097078"><ele>925.0</ele><time>2026-03-28T14:14:01Z</time></trkpt><trkpt lat="45.57518485948841" lon="11.12078154923904"><ele>921.3333333333333</ele><time>2026-03-28T14:14:02Z</time></trkpt><trkpt lat="45.575057090099214" lon="11.120920904317046"><ele>917.6666666666667</ele><time>2026-03-28T14:14:03Z</time></trkpt><trkpt lat="45.574925176907776" lon="11.12100975203273"><ele>914.0</ele><time>2026-03-28T14:14:04Z</time></trkpt><trkpt lat="45.57478686592433" lon="11.121077181426045"><ele>914.0</ele><time>2026-03-28T14:14:05Z</time></trkpt><trkpt lat="45.57464649932897" lon="11.12111964439148"><ele>914.0</ele><time>2026-03-28T14:14:06Z</time></trkpt><trkpt lat="45.574509782820215" lon="11.121105900534976"><ele>914.0</ele><time>2026-03-28T14:14:07Z</time></trkpt><trkpt lat="45.574373746684834" lon="11.121075274422704"><ele>914.0</ele><time>2026-03-28T14:14:08Z</time></trkpt><trkpt lat="45.57423412138481" lon="11.121013995132296"><ele>912.6666666666667</ele><time>2026-03-28T14:14:09Z</time></trkpt><trkpt lat="45.574071846882" lon="11.120924717864774"><ele>911.3333333333333</ele><time>2026-03-28T14:14:10Z</time></trkpt><trkpt lat="45.57391008294961" lon="11.120811271542783"><ele>910.0</ele><time>2026-03-28T14:14:11Z</time></trkpt><trkpt lat="45.57374360023861" lon="11.120677217019402"><ele>904.6666666666666</ele><time>2026-03-28T14:14:12Z</time></trkpt><trkpt lat="45.57356449389822" lon="11.12053971778501"><ele>899.3333333333333</ele><time>2026-03-28T14:14:13Z</time></trkpt><trkpt lat="45.573378366988855" lon="11.120425855034577"><ele>894.0</ele><time>2026-03-28T14:14:14Z</time></trkpt><trkpt lat="45.5732107347026" lon="11.120293633748839"><ele>894.0</ele><time>2026-03-28T14:14:15Z</time></trkpt><trkpt lat="45.57303798970202" lon="11.120242691958467"><ele>894.0</ele><time>2026-03-28T14:14:16Z</time></trkpt><trkpt lat="45.572872004921685" lon="11.120185793789295"><ele>894.0</ele><time>2026-03-28T14:14:17Z</time></trkpt><trkpt lat="45.5727125706252" lon="11.120122377453576"><ele>894.0</ele><time>2026-03-28T14:14:18Z</time></trkpt><trkpt lat="45.57256227795645" lon="11.120051660194864"><ele>894.0</ele><time>2026-03-28T14:14:19Z</time></trkpt><trkpt lat="45.57242807571374" lon="11.119918122610747"><ele>894.0</ele><time>2026-03-28T14:14:20Z</time></trkpt><trkpt lat="45.5722832892177" lon="11.119751004125364"><ele>895.6666666666667</ele><time>2026-03-28T14:14:21Z</time></trkpt><trkpt lat="45.572120954934476" lon="11.119547639699482"><ele>897.3333333333334</ele><time>2026-03-28T14:14:22Z</time></trkpt><trkpt lat="45.571956563012904" lon="11.119334997794185"><ele>899.0</ele><time>2026-03-28T14:14:22.999Z</time></trkpt><trkpt lat="45.57180737071747" lon="11.11917117231437"><ele>891.3333333333334</ele><time>2026-03-28T14:14:23.999Z</time></trkpt><trkpt lat="45.57167980419673" lon="11.119023479010282"><ele>883.6666666666667</ele><time>2026-03-28T14:14:24.999Z</time></trkpt><trkpt lat="45.57153927989709" lon="11.11889671519971"><ele>876.0</ele><time>2026-03-28T14:14:25.999Z</time></trkpt><trkpt lat="45.57139318914931" lon="11.118825150662964"><ele>876.0</ele><time>2026-03-28T14:14:26.999Z</time></trkpt><trkpt lat="45.57122558627756" lon="11.118780318349673"><ele>876.0</ele><time>2026-03-28T14:14:27.999Z</time></trkpt><trkpt lat="45.57102504214179" lon="11.118759347200179"><ele>876.0</ele><time>2026-03-28T14:14:28.999Z</time></trkpt><trkpt lat="45.570805254315225" lon="11.118736202988947"><ele>877.6666666666667</ele><time>2026-03-28T14:14:29.999Z</time></trkpt><trkpt lat="45.57059843681326" lon="11.118701143137557"><ele>879.3333333333334</ele><time>2026-03-28T14:14:30.999Z</time></trkpt><trkpt lat="45.570415135418024" lon="11.118648335395719"><ele>881.0</ele><time>2026-03-28T14:14:31.999Z</time></trkpt><trkpt lat="45.57025565438613" lon="11.118543132217562"><ele>883.0</ele><time>2026-03-28T14:14:32.999Z</time></trkpt><trkpt lat="45.57011051253486" lon="11.118435869464827"><ele>885.0</ele><time>2026-03-28T14:14:33.999Z</time></trkpt><trkpt lat="45.569958628219936" lon="11.11829997020943"><ele>887.0</ele><time>2026-03-28T14:14:34.999Z</time></trkpt><trkpt lat="45.56979712915156" lon="11.118174165978731"><ele>885.6666666666667</ele><time>2026-03-28T14:14:35.999Z</time></trkpt><trkpt lat="45.56963699601925" lon="11.11801160196042"><ele>884.3333333333333</ele><time>2026-03-28T14:14:36.999Z</time></trkpt><trkpt lat="45.56948882240753" lon="11.117873639591487"><ele>883.0</ele><time>2026-03-28T14:14:37.999Z</time></trkpt><trkpt lat="45.569349876527724" lon="11.117758250135486"><ele>883.0</ele><time>2026-03-28T14:14:38.999Z</time></trkpt><trkpt lat="45.56921596779108" lon="11.11762812568779"><ele>883.0</ele><time>2026-03-28T14:14:39.999Z</time></trkpt><trkpt lat="45.569089879560096" lon="11.11750864943177"><ele>883.0</ele><time>2026-03-28T14:14:40.999Z</time></trkpt><trkpt lat="45.568965553357984" lon="11.117384949310406"><ele>875.3333333333333</ele><time>2026-03-28T14:14:41.999Z</time></trkpt><trkpt lat="45.56883532847119" lon="11.11727084806399"><ele>867.6666666666667</ele><time>2026-03-28T14:14:42.999Z</time></trkpt><trkpt lat="45.56869293899336" lon="11.117173394776767"><ele>860.0</ele><time>2026-03-28T14:14:43.999Z</time></trkpt><trkpt lat="45.56853693530988" lon="11.117089695817869"><ele>860.0</ele><time>2026-03-28T14:14:44.999Z</time></trkpt><trkpt lat="45.56838381522637" lon="11.117032391008054"><ele>860.0</ele><time>2026-03-28T14:14:45.999Z</time></trkpt><trkpt lat="45.56823601460018" lon="11.117016721578418"><ele>860.0</ele><time>2026-03-28T14:14:46.999Z</time></trkpt><trkpt lat="45.568104714998825" lon="11.117039033399813"><ele>860.0</ele><time>2026-03-28T14:14:47.999Z</time></trkpt><trkpt lat="45.56797433151944" lon="11.117092754081922"><ele>857.0</ele><time>2026-03-28T14:14:48.999Z</time></trkpt><trkpt lat="45.56783558741914" lon="11.117180226185349"><ele>854.0</ele><time>2026-03-28T14:14:49.999Z</time></trkpt><trkpt lat="45.56769921155824" lon="11.117282443086632"><ele>851.0</ele><time>2026-03-28T14:14:50.999Z</time></trkpt><trkpt lat="45.567587963048304" lon="11.117378478076635"><ele>848.0</ele><time>2026-03-28T14:14:51.999Z</time></trkpt><trkpt lat="45.567482120607515" lon="11.117441961467712"><ele>848.0</ele><time>2026-03-28T14:14:52.999Z</time></trkpt><trkpt lat="45.56738797852208" lon="11.11746669368092"><ele>848.0</ele><time>2026-03-28T14:14:53.999Z</time></trkpt><trkpt lat="45.567295845222084" lon="11.117443374885958"><ele>848.0</ele><time>2026-03-28T14:14:54.999Z</time></trkpt><trkpt lat="45.56720039053219" lon="11.117354092315038"><ele>848.0</ele><time>2026-03-28T14:14:55.999Z</time></trkpt><trkpt lat="45.56711699201814" lon="11.117210281540832"><ele>848.0</ele><time>2026-03-28T14:14:56.999Z</time></trkpt><trkpt lat="45.56701866320002" lon="11.117068323336207"><ele>849.75</ele><time>2026-03-28T14:14:57.999Z</time></trkpt><trkpt lat="45.56692206269124" lon="11.116944108294485"><ele>851.5</ele><time>2026-03-28T14:14:58.999Z</time></trkpt><trkpt lat="45.56682292000841" lon="11.11685414406862"><ele>853.25</ele><time>2026-03-28T14:14:59.999Z</time></trkpt><trkpt lat="45.566715060661046" lon="11.11679875901008"><ele>855.0</ele><time>2026-03-28T14:15:00.999Z</time></trkpt><trkpt lat="45.566582391471584" lon="11.116777541433748"><ele>855.0</ele><time>2026-03-28T14:15:01.999Z</time></trkpt><trkpt lat="45.56642930441255" lon="11.116775406142889"><ele>855.0</ele><time>2026-03-28T14:15:02.999Z</time></trkpt><trkpt lat="45.56627523683366" lon="11.11678537956978"><ele>855.0</ele><time>2026-03-28T14:15:03.999Z</time></trkpt><trkpt lat="45.566111608746986" lon="11.11677324627741"><ele>854.0</ele><time>2026-03-28T14:15:04.999Z</time></trkpt><trkpt lat="45.56595505046316" lon="11.116760819496108"><ele>853.0</ele><time>2026-03-28T14:15:05.999Z</time></trkpt><trkpt lat="45.5658179959702" lon="11.116765054852467"><ele>852.0</ele><time>2026-03-28T14:15:06.999Z</time></trkpt><trkpt lat="45.56570292004401" lon="11.11679326562094"><ele>851.0</ele><time>2026-03-28T14:15:07.999Z</time></trkpt><trkpt lat="45.5655882958462" lon="11.116862417245956"><ele>851.0</ele><time>2026-03-28T14:15:08.999Z</time></trkpt><trkpt lat="45.56548183992983" lon="11.116982264737624"><ele>851.0</ele><time>2026-03-28T14:15:09.999Z</time></trkpt><trkpt lat="45.565383464989395" lon="11.117095200395761"><ele>851.0</ele><time>2026-03-28T14:15:10.999Z</time></trkpt><trkpt lat="45.5652843529747" lon="11.117168703811638"><ele>851.0</ele><time>2026-03-28T14:15:11.999Z</time></trkpt><trkpt lat="45.565176707431405" lon="11.117182933595721"><ele>847.5</ele><time>2026-03-28T14:15:12.999Z</time></trkpt><trkpt lat="45.565070535921755" lon="11.117105386390792"><ele>844.0</ele><time>2026-03-28T14:15:13.999Z</time></trkpt><trkpt lat="45.56494200560394" lon="11.117037592220983"><ele>840.5</ele><time>2026-03-28T14:15:14.999Z</time></trkpt><trkpt lat="45.56480386329863" lon="11.116946236997757"><ele>837.0</ele><time>2026-03-28T14:15:15.999Z</time></trkpt><trkpt lat="45.564678115539444" lon="11.116899656981063"><ele>837.0</ele><time>2026-03-28T14:15:16.999Z</time></trkpt><trkpt lat="45.564569268781774" lon="11.116881484164681"><ele>837.0</ele><time>2026-03-28T14:15:17.999Z</time></trkpt><trkpt lat="45.564481217298656" lon="11.11686644189771"><ele>837.0</ele><time>2026-03-28T14:15:18.999Z</time></trkpt><trkpt lat="45.56440355450921" lon="11.116849807719499"><ele>837.0</ele><time>2026-03-28T14:15:20Z</time></trkpt><trkpt lat="45.56433554599469" lon="11.116827996068066"><ele>837.0</ele><time>2026-03-28T14:15:21Z</time></trkpt><trkpt lat="45.5642820718934" lon="11.116775689624316"><ele>837.0</ele><time>2026-03-28T14:15:22Z</time></trkpt><trkpt lat="45.564257655178494" lon="11.116680964278649"><ele>837.0</ele><time>2026-03-28T14:15:23Z</time></trkpt><trkpt lat="45.564281815010744" lon="11.11657673820346"><ele>837.0</ele><time>2026-03-28T14:15:24Z</time></trkpt><trkpt lat="45.56435549311885" lon="11.116510254722295"><ele>837.0</ele><time>2026-03-28T14:15:25Z</time></trkpt><trkpt lat="45.564449757152516" lon="11.116512451308813"><ele>837.0</ele><time>2026-03-28T14:15:26Z</time></trkpt><trkpt lat="45.56455764549955" lon="11.11656837040988"><ele>837.0</ele><time>2026-03-28T14:15:27Z</time></trkpt><trkpt lat="45.5646778133555" lon="11.116660275383277"><ele>837.0</ele><time>2026-03-28T14:15:28Z</time></trkpt><trkpt lat="45.564805800550445" lon="11.116753073408526"><ele>837.0</ele><time>2026-03-28T14:15:29Z</time></trkpt><trkpt lat="45.5649161539735" lon="11.116817689822584"><ele>837.0</ele><time>2026-03-28T14:15:30Z</time></trkpt><trkpt lat="45.56501294745527" lon="11.116846187349452"><ele>837.0</ele><time>2026-03-28T14:15:31Z</time></trkpt><trkpt lat="45.56510661753643" lon="11.116816964723014"><ele>837.0</ele><time>2026-03-28T14:15:32Z</time></trkpt><trkpt lat="45.56520186447935" lon="11.116730994508805"><ele>837.0</ele><time>2026-03-28T14:15:33Z</time></trkpt><trkpt lat="45.5652933520146" lon="11.116611741417344"><ele>837.0</ele><time>2026-03-28T14:15:34Z</time></trkpt><trkpt lat="45.56537589003432" lon="11.116443139700646"><ele>837.0</ele><time>2026-03-28T14:15:35Z</time></trkpt><trkpt lat="45.5654599177174" lon="11.116242736634868"><ele>834.0</ele><time>2026-03-28T14:15:36Z</time></trkpt><trkpt lat="45.565561373593184" lon="11.116043298903502"><ele>831.0</ele><time>2026-03-28T14:15:37Z</time></trkpt><trkpt lat="45.56566170219354" lon="11.1158265218533"><ele>828.0</ele><time>2026-03-28T14:15:38Z</time></trkpt><trkpt lat="45.56576291522887" lon="11.115566717594064"><ele>823.0</ele><time>2026-03-28T14:15:39Z</time></trkpt><trkpt lat="45.56586950641781" lon="11.115342662563013"><ele>818.0</ele><time>2026-03-28T14:15:40Z</time></trkpt><trkpt lat="45.56596995502278" lon="11.115137407931297"><ele>813.0</ele><time>2026-03-28T14:15:41Z</time></trkpt><trkpt lat="45.56606775520778" lon="11.114945370721209"><ele>812.75</ele><time>2026-03-28T14:15:42Z</time></trkpt><trkpt lat="45.566178472944536" lon="11.114775123904622"><ele>812.5</ele><time>2026-03-28T14:15:43Z</time></trkpt><trkpt lat="45.566279580949576" lon="11.114634327164021"><ele>812.25</ele><time>2026-03-28T14:15:44Z</time></trkpt><trkpt lat="45.56637386735793" lon="11.114502672029767"><ele>812.0</ele><time>2026-03-28T14:15:45Z</time></trkpt><trkpt lat="45.56646359532347" lon="11.114370803008658"><ele>812.0</ele><time>2026-03-28T14:15:46Z</time></trkpt><trkpt lat="45.56654478519152" lon="11.114260105868631"><ele>812.0</ele><time>2026-03-28T14:15:47Z</time></trkpt><trkpt lat="45.5666093119862" lon="11.114161083316711"><ele>812.0</ele><time>2026-03-28T14:15:48Z</time></trkpt><trkpt lat="45.566640798209754" lon="11.114049329910703"><ele>812.0</ele><time>2026-03-28T14:15:49Z</time></trkpt><trkpt lat="45.566637001552685" lon="11.113921968549471"><ele>812.0</ele><time>2026-03-28T14:15:50Z</time></trkpt><trkpt lat="45.566628543121006" lon="11.1137881019761"><ele>810.5</ele><time>2026-03-28T14:15:51Z</time></trkpt><trkpt lat="45.56655958423543" lon="11.113645122575544"><ele>809.0</ele><time>2026-03-28T14:15:52Z</time></trkpt><trkpt lat="45.56648863637394" lon="11.113530852833211"><ele>807.5</ele><time>2026-03-28T14:15:53Z</time></trkpt><trkpt lat="45.566399417672166" lon="11.113436058486435"><ele>806.0</ele><time>2026-03-28T14:15:54Z</time></trkpt><trkpt lat="45.566288151435266" lon="11.113368342019418"><ele>805.8</ele><time>2026-03-28T14:15:55Z</time></trkpt><trkpt lat="45.5661705802499" lon="11.113330018441552"><ele>805.5999999999999</ele><time>2026-03-28T14:15:56Z</time></trkpt><trkpt lat="45.56605920677402" lon="11.113291321278068"><ele>805.4</ele><time>2026-03-28T14:15:57Z</time></trkpt><trkpt lat="45.56595804135127" lon="11.113253138909686"><ele>805.2</ele><time>2026-03-28T14:15:58Z</time></trkpt><trkpt lat="45.56585270528836" lon="11.113216347173884"><ele>805.0</ele><time>2026-03-28T14:15:59Z</time></trkpt><trkpt lat="45.5657540118479" lon="11.113212618557048"><ele>804.9999999999999</ele><time>2026-03-28T14:16:00Z</time></trkpt><trkpt lat="45.565660675340034" lon="11.113224315913195"><ele>805.0</ele><time>2026-03-28T14:16:01Z</time></trkpt><trkpt lat="45.56557386479686" lon="11.11325686457282"><ele>805.0</ele><time>2026-03-28T14:16:02Z</time></trkpt><trkpt lat="45.56551058231132" lon="11.113333595374554"><ele>805.0</ele><time>2026-03-28T14:16:03Z</time></trkpt><trkpt lat="45.5654696742021" lon="11.113424154365212"><ele>804.9999999999999</ele><time>2026-03-28T14:16:04Z</time></trkpt><trkpt lat="45.56543646174598" lon="11.113553757267875"><ele>805.0</ele><time>2026-03-28T14:16:05Z</time></trkpt><trkpt lat="45.56542167133088" lon="11.113695499016652"><ele>805.0</ele><time>2026-03-28T14:16:06Z</time></trkpt><trkpt lat="45.56539921506713" lon="11.113866532080316"><ele>805.0</ele><time>2026-03-28T14:16:07Z</time></trkpt><trkpt lat="45.56539330647786" lon="11.114053330528666"><ele>805.0</ele><time>2026-03-28T14:16:08Z</time></trkpt><trkpt lat="45.56542226035338" lon="11.11421807578953"><ele>805.0</ele><time>2026-03-28T14:16:09Z</time></trkpt><trkpt lat="45.565455887832144" lon="11.114347281533844"><ele>806.25</ele><time>2026-03-28T14:16:10Z</time></trkpt><trkpt lat="45.56548567110822" lon="11.11446686645694"><ele>807.5</ele><time>2026-03-28T14:16:11Z</time></trkpt><trkpt lat="45.56549237702072" lon="11.114622175787304"><ele>808.75</ele><time>2026-03-28T14:16:12Z</time></trkpt><trkpt lat="45.565463594718814" lon="11.114800149171774"><ele>810.0</ele><time>2026-03-28T14:16:13Z</time></trkpt><trkpt lat="45.56538881349443" lon="11.114965201640118"><ele>806.75</ele><time>2026-03-28T14:16:14Z</time></trkpt><trkpt lat="45.56529132991302" lon="11.11513079331271"><ele>803.5</ele><time>2026-03-28T14:16:15Z</time></trkpt><trkpt lat="45.56522845358897" lon="11.115286014373604"><ele>800.25</ele><time>2026-03-28T14:16:16Z</time></trkpt><trkpt lat="45.565163382839955" lon="11.11542187715625"><ele>797.0</ele><time>2026-03-28T14:16:17Z</time></trkpt><trkpt lat="45.56510766521043" lon="11.11554461802544"><ele>797.0000000000001</ele><time>2026-03-28T14:16:18Z</time></trkpt><trkpt lat="45.56505764456956" lon="11.115645113899324"><ele>797.0</ele><time>2026-03-28T14:16:19Z</time></trkpt><trkpt lat="45.56500240857126" lon="11.115723681480564"><ele>797.0</ele><time>2026-03-28T14:16:20Z</time></trkpt><trkpt lat="45.564930799238255" lon="11.115763050633687"><ele>797.0</ele><time>2026-03-28T14:16:21Z</time></trkpt><trkpt lat="45.56483814198963" lon="11.115772108870317"><ele>797.0000000000001</ele><time>2026-03-28T14:16:22Z</time></trkpt><trkpt lat="45.5647385600682" lon="11.115718800514282"><ele>797.0</ele><time>2026-03-28T14:16:23Z</time></trkpt><trkpt lat="45.56464854703062" lon="11.115580224901406"><ele>797.0</ele><time>2026-03-28T14:16:24Z</time></trkpt><trkpt lat="45.56455433323171" lon="11.11546341106696"><ele>797.0</ele><time>2026-03-28T14:16:25Z</time></trkpt><trkpt lat="45.56446738316671" lon="11.115384836593408"><ele>797.0</ele><time>2026-03-28T14:16:26Z</time></trkpt><trkpt lat="45.56437710827703" lon="11.115325733907316"><ele>797.0</ele><time>2026-03-28T14:16:27Z</time></trkpt><trkpt lat="45.56427294394553" lon="11.115308694121717"><ele>797.0</ele><time>2026-03-28T14:16:28Z</time></trkpt><trkpt lat="45.56416876014521" lon="11.11535545808203"><ele>794.0</ele><time>2026-03-28T14:16:29Z</time></trkpt><trkpt lat="45.564060680429876" lon="11.115448186283805"><ele>791.0</ele><time>2026-03-28T14:16:30Z</time></trkpt><trkpt lat="45.56395850734876" lon="11.115574608411814"><ele>788.0</ele><time>2026-03-28T14:16:31Z</time></trkpt><trkpt lat="45.56386078578014" lon="11.115689977164639"><ele>785.0</ele><time>2026-03-28T14:16:32Z</time></trkpt><trkpt lat="45.56377750442975" lon="11.115770012309937"><ele>786.6666666666667</ele><time>2026-03-28T14:16:32.999Z</time></trkpt><trkpt lat="45.563705401347235" lon="11.115822960253478"><ele>788.3333333333334</ele><time>2026-03-28T14:16:34Z</time></trkpt><trkpt lat="45.563629538653416" lon="11.115836543226573"><ele>790.0</ele><time>2026-03-28T14:16:34.999Z</time></trkpt><trkpt lat="45.56356297814468" lon="11.115790299240059"><ele>791.6666666666667</ele><time>2026-03-28T14:16:35.999Z</time></trkpt><trkpt lat="45.563509393494705" lon="11.11568783643273"><ele>793.3333333333334</ele><time>2026-03-28T14:16:36.999Z</time></trkpt><trkpt lat="45.56348921610292" lon="11.115517683300103"><ele>795.0</ele><time>2026-03-28T14:16:37.999Z</time></trkpt><trkpt lat="45.56344843257001" lon="11.115325367922365"><ele>795.0</ele><time>2026-03-28T14:16:38.999Z</time></trkpt><trkpt lat="45.56341947031058" lon="11.115112243794254"><ele>795.0</ele><time>2026-03-28T14:16:39.999Z</time></trkpt><trkpt lat="45.56336310875671" lon="11.114909548211488"><ele>795.0</ele><time>2026-03-28T14:16:40.999Z</time></trkpt><trkpt lat="45.5632904679321" lon="11.114723402834786"><ele>790.0</ele><time>2026-03-28T14:16:41.999Z</time></trkpt><trkpt lat="45.56320690963312" lon="11.114542304164338"><ele>785.0</ele><time>2026-03-28T14:16:42.999Z</time></trkpt><trkpt lat="45.56310325232543" lon="11.114363449195366"><ele>780.0</ele><time>2026-03-28T14:16:43.999Z</time></trkpt><trkpt lat="45.56299141541207" lon="11.114200803222994"><ele>779.0</ele><time>2026-03-28T14:16:44.999Z</time></trkpt><trkpt lat="45.56286638903972" lon="11.114058562657204"><ele>778.0</ele><time>2026-03-28T14:16:45.999Z</time></trkpt><trkpt lat="45.56273617902826" lon="11.113968704006187"><ele>777.0</ele><time>2026-03-28T14:16:46.999Z</time></trkpt><trkpt lat="45.56261403969893" lon="11.113879689979637"><ele>776.0</ele><time>2026-03-28T14:16:47.999Z</time></trkpt><trkpt lat="45.562499181106645" lon="11.113823243338999"><ele>776.0</ele><time>2026-03-28T14:16:48.999Z</time></trkpt><trkpt lat="45.56238277337868" lon="11.11380837386565"><ele>776.0</ele><time>2026-03-28T14:16:49.999Z</time></trkpt><trkpt lat="45.562250125136075" lon="11.113831702607932"><ele>776.0</ele><time>2026-03-28T14:16:50.999Z</time></trkpt><trkpt lat="45.56212340967932" lon="11.113911776191152"><ele>776.0</ele><time>2026-03-28T14:16:51.999Z</time></trkpt><trkpt lat="45.562017422817796" lon="11.114014775031409"><ele>777.25</ele><time>2026-03-28T14:16:52.999Z</time></trkpt><trkpt lat="45.56192608570857" lon="11.114149875542312"><ele>778.5</ele><time>2026-03-28T14:16:53.999Z</time></trkpt><trkpt lat="45.56184808205591" lon="11.114332542408247"><ele>779.75</ele><time>2026-03-28T14:16:54.999Z</time></trkpt><trkpt lat="45.56178423090161" lon="11.114545566701565"><ele>781.0</ele><time>2026-03-28T14:16:55.999Z</time></trkpt><trkpt lat="45.56173017199344" lon="11.11477777004178"><ele>782.0</ele><time>2026-03-28T14:16:56.999Z</time></trkpt><trkpt lat="45.56169087065879" lon="11.115021283654523"><ele>783.0</ele><time>2026-03-28T14:16:57.999Z</time></trkpt><trkpt lat="45.56166804696766" lon="11.115245959919084"><ele>784.0</ele><time>2026-03-28T14:16:58.999Z</time></trkpt><trkpt lat="45.561663143998175" lon="11.115454018273175"><ele>784.0</ele><time>2026-03-28T14:16:59.999Z</time></trkpt><trkpt lat="45.56167704305549" lon="11.115670561377748"><ele>784.0</ele><time>2026-03-28T14:17:00.999Z</time></trkpt><trkpt lat="45.561711202762716" lon="11.11590650404171"><ele>784.0</ele><time>2026-03-28T14:17:01.999Z</time></trkpt><trkpt lat="45.561753936427515" lon="11.116130915018145"><ele>784.0</ele><time>2026-03-28T14:17:02.999Z</time></trkpt><trkpt lat="45.561804697130306" lon="11.116353857696046"><ele>784.0</ele><time>2026-03-28T14:17:03.999Z</time></trkpt><trkpt lat="45.561850471869846" lon="11.11655623807659"><ele>784.0</ele><time>2026-03-28T14:17:04.999Z</time></trkpt><trkpt lat="45.5618683202596" lon="11.116747642449145"><ele>784.0</ele><time>2026-03-28T14:17:05.999Z</time></trkpt><trkpt lat="45.561887737991725" lon="11.116895944286277"><ele>783.2</ele><time>2026-03-28T14:17:06.999Z</time></trkpt><trkpt lat="45.561831725690695" lon="11.117014615883559"><ele>782.4000000000001</ele><time>2026-03-28T14:17:07.999Z</time></trkpt><trkpt lat="45.56177044466386" lon="11.117117621582922"><ele>781.6</ele><time>2026-03-28T14:17:08.999Z</time></trkpt><trkpt lat="45.56170051352172" lon="11.117179947201372"><ele>780.8</ele><time>2026-03-28T14:17:09.999Z</time></trkpt><trkpt lat="45.56158314606003" lon="11.117211477620298"><ele>780.0</ele><time>2026-03-28T14:17:10.999Z</time></trkpt><trkpt lat="45.56143387689355" lon="11.117182053531169"><ele>780.0</ele><time>2026-03-28T14:17:11.999Z</time></trkpt><trkpt lat="45.56124621130964" lon="11.117166801988061"><ele>780.0</ele><time>2026-03-28T14:17:12.999Z</time></trkpt><trkpt lat="45.56105277408777" lon="11.11714273495265"><ele>780.0</ele><time>2026-03-28T14:17:13.999Z</time></trkpt><trkpt lat="45.560895712440846" lon="11.11708524199858"><ele>777.6666666666667</ele><time>2026-03-28T14:17:14.999Z</time></trkpt><trkpt lat="45.560750154879706" lon="11.117023958423923"><ele>775.3333333333334</ele><time>2026-03-28T14:17:15.999Z</time></trkpt><trkpt lat="45.560616378054505" lon="11.116928453186597"><ele>773.0</ele><time>2026-03-28T14:17:16.999Z</time></trkpt><trkpt lat="45.56047486454074" lon="11.116768539361468"><ele>769.6666666666667</ele><time>2026-03-28T14:17:17.999Z</time></trkpt><trkpt lat="45.56031941953102" lon="11.116613792100228"><ele>766.3333333333334</ele><time>2026-03-28T14:17:18.999Z</time></trkpt><trkpt lat="45.56017120792709" lon="11.11644727260104"><ele>763.0</ele><time>2026-03-28T14:17:19.999Z</time></trkpt><trkpt lat="45.560039756791404" lon="11.116307314333927"><ele>763.0</ele><time>2026-03-28T14:17:20.999Z</time></trkpt><trkpt lat="45.559929316204375" lon="11.116202299510928"><ele>763.0</ele><time>2026-03-28T14:17:21.999Z</time></trkpt><trkpt lat="45.55982711127796" lon="11.116135863177009"><ele>763.0</ele><time>2026-03-28T14:17:22.999Z</time></trkpt><trkpt lat="45.55972031394655" lon="11.116118048705708"><ele>763.0</ele><time>2026-03-28T14:17:23.999Z</time></trkpt><trkpt lat="45.559598237613486" lon="11.116139624463885"><ele>766.0</ele><time>2026-03-28T14:17:24.999Z</time></trkpt><trkpt lat="45.559474726560445" lon="11.116172326901015"><ele>769.0</ele><time>2026-03-28T14:17:26Z</time></trkpt><trkpt lat="45.55937110230051" lon="11.116158044653572"><ele>772.0</ele><time>2026-03-28T14:17:27Z</time></trkpt><trkpt lat="45.559287684764314" lon="11.11606651489577"><ele>775.0</ele><time>2026-03-28T14:17:28Z</time></trkpt><trkpt lat="45.55921915921646" lon="11.115938770440579"><ele>778.0</ele><time>2026-03-28T14:17:29Z</time></trkpt><trkpt lat="45.55916980556873" lon="11.115762063568585"><ele>775.0</ele><time>2026-03-28T14:17:30Z</time></trkpt><trkpt lat="45.55911260723373" lon="11.11556079170999"><ele>772.0</ele><time>2026-03-28T14:17:31Z</time></trkpt><trkpt lat="45.55906640561243" lon="11.115386463823574"><ele>769.0</ele><time>2026-03-28T14:17:32Z</time></trkpt><trkpt lat="45.55900582100394" lon="11.115252387613225"><ele>766.0</ele><time>2026-03-28T14:17:33Z</time></trkpt><trkpt lat="45.558924082840726" lon="11.115142303837256"><ele>766.0</ele><time>2026-03-28T14:17:34Z</time></trkpt><trkpt lat="45.558808824838984" lon="11.11506061029443"><ele>766.0</ele><time>2026-03-28T14:17:35Z</time></trkpt><trkpt lat="45.55867639455568" lon="11.115034211854706"><ele>766.0</ele><time>2026-03-28T14:17:36Z</time></trkpt><trkpt lat="45.55853860141938" lon="11.115051783579503"><ele>766.0</ele><time>2026-03-28T14:17:37Z</time></trkpt><trkpt lat="45.55837277023042" lon="11.115121404149766"><ele>765.6666666666667</ele><time>2026-03-28T14:17:38Z</time></trkpt><trkpt lat="45.558188206855" lon="11.115180519534539"><ele>765.3333333333334</ele><time>2026-03-28T14:17:39Z</time></trkpt><trkpt lat="45.5580223791795" lon="11.115260525496268"><ele>765.0</ele><time>2026-03-28T14:17:40Z</time></trkpt><trkpt lat="45.5578678646265" lon="11.115302308126768"><ele>762.0</ele><time>2026-03-28T14:17:41Z</time></trkpt><trkpt lat="45.55773677280649" lon="11.115349772736321"><ele>759.0</ele><time>2026-03-28T14:17:42Z</time></trkpt><trkpt lat="45.55762374405216" lon="11.115415096000332"><ele>756.0</ele><time>2026-03-28T14:17:43Z</time></trkpt><trkpt lat="45.557539135592414" lon="11.11552451533654"><ele>753.0</ele><time>2026-03-28T14:17:44Z</time></trkpt><trkpt lat="45.5574855205914" lon="11.11566964506092"><ele>755.25</ele><time>2026-03-28T14:17:45Z</time></trkpt><trkpt lat="45.55746078874231" lon="11.115834033674487"><ele>757.5</ele><time>2026-03-28T14:17:46Z</time></trkpt><trkpt lat="45.55743113715676" lon="11.115994856036396"><ele>759.75</ele><time>2026-03-28T14:17:47Z</time></trkpt><trkpt lat="45.557361567436416" lon="11.116138289294287"><ele>762.0</ele><time>2026-03-28T14:17:48Z</time></trkpt><trkpt lat="45.557234234491084" lon="11.116207520001934"><ele>762.0</ele><time>2026-03-28T14:17:49Z</time></trkpt><trkpt lat="45.5570932983776" lon="11.116283078166761"><ele>762.0</ele><time>2026-03-28T14:17:50Z</time></trkpt><trkpt lat="45.55695256098376" lon="11.116381528229764"><ele>762.0</ele><time>2026-03-28T14:17:51Z</time></trkpt><trkpt lat="45.55682164196377" lon="11.11647547853391"><ele>759.6666666666666</ele><time>2026-03-28T14:17:52Z</time></trkpt><trkpt lat="45.55670697162138" lon="11.116613911761258"><ele>757.3333333333333</ele><time>2026-03-28T14:17:53Z</time></trkpt><trkpt lat="45.55661767637363" lon="11.116788582449555"><ele>755.0</ele><time>2026-03-28T14:17:54Z</time></trkpt><trkpt lat="45.556541344609755" lon="11.116980084335474"><ele>755.0</ele><time>2026-03-28T14:17:55Z</time></trkpt><trkpt lat="45.556468391306" lon="11.117153724644218"><ele>755.0</ele><time>2026-03-28T14:17:56Z</time></trkpt><trkpt lat="45.55638046406197" lon="11.117310182638972"><ele>755.0</ele><time>2026-03-28T14:17:57Z</time></trkpt><trkpt lat="45.556239937311375" lon="11.117413361864491"><ele>755.0</ele><time>2026-03-28T14:17:58Z</time></trkpt><trkpt lat="45.55607059269207" lon="11.117502626276835"><ele>753.0</ele><time>2026-03-28T14:17:59Z</time></trkpt><trkpt lat="45.55588215917861" lon="11.117603182370653"><ele>751.0</ele><time>2026-03-28T14:18:00Z</time></trkpt><trkpt lat="45.555716828395624" lon="11.117694063694334"><ele>749.0</ele><time>2026-03-28T14:18:01Z</time></trkpt><trkpt lat="45.55556310641779" lon="11.117776378348491"><ele>749.0</ele><time>2026-03-28T14:18:02Z</time></trkpt><trkpt lat="45.55542115207887" lon="11.117834158312098"><ele>749.0</ele><time>2026-03-28T14:18:03Z</time></trkpt><trkpt lat="45.55526934350353" lon="11.117850838236274"><ele>749.0</ele><time>2026-03-28T14:18:04Z</time></trkpt><trkpt lat="45.555094232684866" lon="11.117843266901083"><ele>744.6666666666666</ele><time>2026-03-28T14:18:05Z</time></trkpt><trkpt lat="45.55491618796666" lon="11.117858866452568"><ele>740.3333333333334</ele><time>2026-03-28T14:18:06Z</time></trkpt><trkpt lat="45.55472235472292" lon="11.11784493057382"><ele>736.0</ele><time>2026-03-28T14:18:07Z</time></trkpt><trkpt lat="45.554506509885975" lon="11.117822835470218"><ele>734.3333333333334</ele><time>2026-03-28T14:18:08Z</time></trkpt><trkpt lat="45.55430888051017" lon="11.117818609314217"><ele>732.6666666666666</ele><time>2026-03-28T14:18:09Z</time></trkpt><trkpt lat="45.55413075941503" lon="11.117800816075063"><ele>731.0</ele><time>2026-03-28T14:18:10Z</time></trkpt><trkpt lat="45.553967874724165" lon="11.117760984660334"><ele>731.0</ele><time>2026-03-28T14:18:11Z</time></trkpt><trkpt lat="45.55380042471776" lon="11.117734789600364"><ele>731.0</ele><time>2026-03-28T14:18:12Z</time></trkpt><trkpt lat="45.553631396848495" lon="11.117666399150439"><ele>731.0</ele><time>2026-03-28T14:18:13Z</time></trkpt><trkpt lat="45.55346913370136" lon="11.117614853735553"><ele>730.75</ele><time>2026-03-28T14:18:14Z</time></trkpt><trkpt lat="45.55332327180041" lon="11.11754853382268"><ele>730.5</ele><time>2026-03-28T14:18:15Z</time></trkpt><trkpt lat="45.55317992149262" lon="11.117500607411351"><ele>730.25</ele><time>2026-03-28T14:18:16Z</time></trkpt><trkpt lat="45.55305346463458" lon="11.117460659262829"><ele>730.0</ele><time>2026-03-28T14:18:17Z</time></trkpt><trkpt lat="45.55293808761761" lon="11.117350814020192"><ele>726.6666666666667</ele><time>2026-03-28T14:18:18Z</time></trkpt><trkpt lat="45.552846357440465" lon="11.117175880923167"><ele>723.3333333333334</ele><time>2026-03-28T14:18:19Z</time></trkpt><trkpt lat="45.55274151357291" lon="11.116998638738853"><ele>720.0</ele><time>2026-03-28T14:18:20Z</time></trkpt><trkpt lat="45.55263795021613" lon="11.11684580419457"><ele>720.0</ele><time>2026-03-28T14:18:21Z</time></trkpt><trkpt lat="45.55256228895604" lon="11.116699686832623"><ele>720.0</ele><time>2026-03-28T14:18:22Z</time></trkpt><trkpt lat="45.55248650517381" lon="11.116599247242947"><ele>720.0</ele><time>2026-03-28T14:18:23Z</time></trkpt><trkpt lat="45.552397205249655" lon="11.116545267687664"><ele>720.0</ele><time>2026-03-28T14:18:24Z</time></trkpt><trkpt lat="45.55229547708064" lon="11.116545088310389"><ele>720.0</ele><time>2026-03-28T14:18:25Z</time></trkpt><trkpt lat="45.552200246964894" lon="11.116605111422823"><ele>720.0</ele><time>2026-03-28T14:18:26Z</time></trkpt><trkpt lat="45.55211815700635" lon="11.116695659568535"><ele>720.0</ele><time>2026-03-28T14:18:27Z</time></trkpt><trkpt lat="45.55204804027586" lon="11.11682182852358"><ele>720.0</ele><time>2026-03-28T14:18:28Z</time></trkpt><trkpt lat="45.55198246919684" lon="11.116952477830052"><ele>720.0</ele><time>2026-03-28T14:18:29Z</time></trkpt><trkpt lat="45.551922122935956" lon="11.117090219102103"><ele>720.0</ele><time>2026-03-28T14:18:29.999Z</time></trkpt><trkpt lat="45.55187696386235" lon="11.117249614744948"><ele>715.6666666666666</ele><time>2026-03-28T14:18:30.999Z</time></trkpt><trkpt lat="45.55185365916354" lon="11.117449495698304"><ele>711.3333333333333</ele><time>2026-03-28T14:18:31.999Z</time></trkpt><trkpt lat="45.5518468658087" lon="11.117697069159052"><ele>707.0</ele><time>2026-03-28T14:18:32.999Z</time></trkpt><trkpt lat="45.551849594544734" lon="11.118003826966016"><ele>706.0</ele><time>2026-03-28T14:18:33.999Z</time></trkpt><trkpt lat="45.551855959832494" lon="11.11830293243448"><ele>705.0</ele><time>2026-03-28T14:18:34.999Z</time></trkpt><trkpt lat="45.55185532657887" lon="11.118549416144427"><ele>704.0</ele><time>2026-03-28T14:18:35.999Z</time></trkpt><trkpt lat="45.55185654768067" lon="11.118774587666914"><ele>704.0</ele><time>2026-03-28T14:18:36.999Z</time></trkpt><trkpt lat="45.551814116663415" lon="11.118973109305113"><ele>704.0</ele><time>2026-03-28T14:18:37.999Z</time></trkpt><trkpt lat="45.55173213039526" lon="11.119155164705333"><ele>704.0</ele><time>2026-03-28T14:18:38.999Z</time></trkpt><trkpt lat="45.5516348053163" lon="11.119364220289768"><ele>704.3333333333333</ele><time>2026-03-28T14:18:39.999Z</time></trkpt><trkpt lat="45.55156085656359" lon="11.11956387709083"><ele>704.6666666666666</ele><time>2026-03-28T14:18:40.999Z</time></trkpt><trkpt lat="45.55147542038478" lon="11.119735187580146"><ele>705.0</ele><time>2026-03-28T14:18:41.999Z</time></trkpt><trkpt lat="45.55138949591991" lon="11.119916433273676"><ele>705.6666666666666</ele><time>2026-03-28T14:18:42.999Z</time></trkpt><trkpt lat="45.55127083940601" lon="11.12009442473814"><ele>706.3333333333333</ele><time>2026-03-28T14:18:43.999Z</time></trkpt><trkpt lat="45.55111051537014" lon="11.120238793365335"><ele>707.0</ele><time>2026-03-28T14:18:44.999Z</time></trkpt><trkpt lat="45.55093379979983" lon="11.12034499778372"><ele>701.0</ele><time>2026-03-28T14:18:45.999Z</time></trkpt><trkpt lat="45.55072491178881" lon="11.120436603468898"><ele>695.0</ele><time>2026-03-28T14:18:46.999Z</time></trkpt><trkpt lat="45.55049098513809" lon="11.120513307604561"><ele>689.0</ele><time>2026-03-28T14:18:47.999Z</time></trkpt><trkpt lat="45.550244507086" lon="11.120593655947914"><ele>683.0</ele><time>2026-03-28T14:18:48.999Z</time></trkpt><trkpt lat="45.549974966543665" lon="11.120683724042976"><ele>683.0</ele><time>2026-03-28T14:18:49.999Z</time></trkpt><trkpt lat="45.549683154136964" lon="11.120797275390787"><ele>683.0</ele><time>2026-03-28T14:18:50.999Z</time></trkpt><trkpt lat="45.54938652505683" lon="11.1208892727336"><ele>683.0</ele><time>2026-03-28T14:18:51.999Z</time></trkpt><trkpt lat="45.54909106930221" lon="11.121001542938833"><ele>683.0</ele><time>2026-03-28T14:18:52.999Z</time></trkpt><trkpt lat="45.5487833458554" lon="11.12112019702326"><ele>682.0</ele><time>2026-03-28T14:18:53.999Z</time></trkpt><trkpt lat="45.54848274920109" lon="11.121235865625708"><ele>681.0</ele><time>2026-03-28T14:18:54.999Z</time></trkpt><trkpt lat="45.54821293106387" lon="11.121339649633088"><ele>681.0</ele><time>2026-03-28T14:18:55.999Z</time></trkpt><trkpt lat="45.54796190481156" lon="11.121436205441595"><ele>681.0</ele><time>2026-03-28T14:18:56.999Z</time></trkpt><trkpt lat="45.54772896149403" lon="11.12155107203538"><ele>678.5</ele><time>2026-03-28T14:18:57.999Z</time></trkpt><trkpt lat="45.547507309699874" lon="11.121643656432258"><ele>676.0</ele><time>2026-03-28T14:18:58.999Z</time></trkpt><trkpt lat="45.547292566188794" lon="11.121720751042705"><ele>676.0</ele><time>2026-03-28T14:18:59.999Z</time></trkpt><trkpt lat="45.54708701511432" lon="11.121794502967509"><ele>676.0</ele><time>2026-03-28T14:19:00.999Z</time></trkpt><trkpt lat="45.546892315412606" lon="11.121871166017192"><ele>676.0</ele><time>2026-03-28T14:19:01.999Z</time></trkpt><trkpt lat="45.54671575168241" lon="11.121916885505872"><ele>674.0</ele><time>2026-03-28T14:19:02.999Z</time></trkpt><trkpt lat="45.54653986644041" lon="11.121984110277005"><ele>672.0</ele><time>2026-03-28T14:19:03.999Z</time></trkpt><trkpt lat="45.54637046717033" lon="11.122071364751546"><ele>670.0</ele><time>2026-03-28T14:19:04.999Z</time></trkpt><trkpt lat="45.54619364700765" lon="11.122125869140163"><ele>665.6666666666667</ele><time>2026-03-28T14:19:05.999Z</time></trkpt><trkpt lat="45.546027418783076" lon="11.12218741295175"><ele>661.3333333333334</ele><time>2026-03-28T14:19:06.999Z</time></trkpt><trkpt lat="45.545866576499876" lon="11.122250997913323"><ele>657.0</ele><time>2026-03-28T14:19:07.999Z</time></trkpt><trkpt lat="45.54570213142619" lon="11.122324149502095"><ele>655.0</ele><time>2026-03-28T14:19:08.999Z</time></trkpt><trkpt lat="45.54554447379615" lon="11.1224373652272"><ele>653.0</ele><time>2026-03-28T14:19:09.999Z</time></trkpt><trkpt lat="45.54540262209795" lon="11.122587066295717"><ele>651.0</ele><time>2026-03-28T14:19:10.999Z</time></trkpt><trkpt lat="45.54527660226186" lon="11.122760148519639"><ele>651.0</ele><time>2026-03-28T14:19:11.999Z</time></trkpt><trkpt lat="45.54516286636108" lon="11.122919511416427"><ele>651.0</ele><time>2026-03-28T14:19:12.999Z</time></trkpt><trkpt lat="45.545043681493134" lon="11.123061347775511"><ele>651.0</ele><time>2026-03-28T14:19:13.999Z</time></trkpt><trkpt lat="45.54492481148259" lon="11.123189567019587"><ele>652.25</ele><time>2026-03-28T14:19:14.999Z</time></trkpt><trkpt lat="45.54480956778968" lon="11.123318803261455"><ele>653.5</ele><time>2026-03-28T14:19:15.999Z</time></trkpt><trkpt lat="45.544708388999716" lon="11.123445317332022"><ele>654.75</ele><time>2026-03-28T14:19:16.999Z</time></trkpt><trkpt lat="45.54463215075959" lon="11.123581055716564"><ele>656.0</ele><time>2026-03-28T14:19:17.999Z</time></trkpt><trkpt lat="45.54457736961641" lon="11.123731963079232"><ele>656.0</ele><time>2026-03-28T14:19:18.999Z</time></trkpt><trkpt lat="45.54455968968394" lon="11.123887082778342"><ele>656.0</ele><time>2026-03-28T14:19:19.999Z</time></trkpt><trkpt lat="45.54457026359272" lon="11.124051966249342"><ele>656.0</ele><time>2026-03-28T14:19:20.999Z</time></trkpt><trkpt lat="45.54460572368261" lon="11.124230546570287"><ele>656.0</ele><time>2026-03-28T14:19:21.999Z</time></trkpt><trkpt lat="45.54466551586867" lon="11.124402054089337"><ele>655.75</ele><time>2026-03-28T14:19:22.999Z</time></trkpt><trkpt lat="45.54474665374637" lon="11.124567920447292"><ele>655.5</ele><time>2026-03-28T14:19:23.999Z</time></trkpt><trkpt lat="45.54483287987706" lon="11.124731321940322"><ele>655.25</ele><time>2026-03-28T14:19:24.999Z</time></trkpt><trkpt lat="45.54490519799001" lon="11.124884309174234"><ele>655.0</ele><time>2026-03-28T14:19:25.999Z</time></trkpt><trkpt lat="45.54496843724008" lon="11.125032098602773"><ele>654.0</ele><time>2026-03-28T14:19:26.999Z</time></trkpt><trkpt lat="45.54502227208343" lon="11.125177934133099"><ele>653.0</ele><time>2026-03-28T14:19:27.999Z</time></trkpt><trkpt lat="45.54505496613429" lon="11.125333618559987"><ele>652.0</ele><time>2026-03-28T14:19:28.999Z</time></trkpt><trkpt lat="45.545069422462255" lon="11.125509691952416"><ele>651.0</ele><time>2026-03-28T14:19:29.999Z</time></trkpt><trkpt lat="45.545059211958645" lon="11.12568642124779"><ele>650.25</ele><time>2026-03-28T14:19:30.999Z</time></trkpt><trkpt lat="45.54503511967442" lon="11.125862501567717"><ele>649.5</ele><time>2026-03-28T14:19:32Z</time></trkpt><trkpt lat="45.5449898458011" lon="11.126033013157311"><ele>648.75</ele><time>2026-03-28T14:19:33Z</time></trkpt><trkpt lat="45.544922827673396" lon="11.126204206632634"><ele>648.0</ele><time>2026-03-28T14:19:34Z</time></trkpt><trkpt lat="45.54483283460401" lon="11.126359465397671"><ele>648.0</ele><time>2026-03-28T14:19:35Z</time></trkpt><trkpt lat="45.54471667579173" lon="11.12649446491158"><ele>648.0</ele><time>2026-03-28T14:19:36Z</time></trkpt><trkpt lat="45.54457967523847" lon="11.126575473337345"><ele>648.0</ele><time>2026-03-28T14:19:37Z</time></trkpt><trkpt lat="45.54442917531155" lon="11.126645555580227"><ele>647.3333333333334</ele><time>2026-03-28T14:19:38Z</time></trkpt><trkpt lat="45.54426925337184" lon="11.126733870620942"><ele>646.6666666666667</ele><time>2026-03-28T14:19:39Z</time></trkpt><trkpt lat="45.54407923340493" lon="11.126808588005595"><ele>646.0</ele><time>2026-03-28T14:19:40Z</time></trkpt><trkpt lat="45.54388346396921" lon="11.126894792747564"><ele>642.3333333333334</ele><time>2026-03-28T14:19:41Z</time></trkpt><trkpt lat="45.543706273117735" lon="11.126971938323862"><ele>638.6666666666666</ele><time>2026-03-28T14:19:42Z</time></trkpt><trkpt lat="45.54354868942419" lon="11.127040677562748"><ele>635.0</ele><time>2026-03-28T14:19:43Z</time></trkpt><trkpt lat="45.54339981135935" lon="11.127099505165983"><ele>635.0</ele><time>2026-03-28T14:19:44Z</time></trkpt><trkpt lat="45.5432670725776" lon="11.127148005319858"><ele>635.0</ele><time>2026-03-28T14:19:45Z</time></trkpt><trkpt lat="45.54316630652666" lon="11.127204077100501"><ele>635.0</ele><time>2026-03-28T14:19:46Z</time></trkpt><trkpt lat="45.5430839224674" lon="11.127295983274758"><ele>635.0</ele><time>2026-03-28T14:19:47Z</time></trkpt><trkpt lat="45.543021029893396" lon="11.127420266439854"><ele>632.5</ele><time>2026-03-28T14:19:48Z</time></trkpt><trkpt lat="45.5429744845113" lon="11.12757273306656"><ele>630.0</ele><time>2026-03-28T14:19:49Z</time></trkpt><trkpt lat="45.54292283227352" lon="11.127759956361773"><ele>627.5</ele><time>2026-03-28T14:19:50Z</time></trkpt><trkpt lat="45.54288087393961" lon="11.127957497877818"><ele>625.0</ele><time>2026-03-28T14:19:51Z</time></trkpt><trkpt lat="45.54284480463407" lon="11.128148137219231"><ele>627.25</ele><time>2026-03-28T14:19:52Z</time></trkpt><trkpt lat="45.54280944286598" lon="11.128319090698628"><ele>629.5</ele><time>2026-03-28T14:19:53Z</time></trkpt><trkpt lat="45.54276501321164" lon="11.12847184653181"><ele>631.75</ele><time>2026-03-28T14:19:54Z</time></trkpt><trkpt lat="45.54268911332032" lon="11.128584708462116"><ele>634.0</ele><time>2026-03-28T14:19:55Z</time></trkpt><trkpt lat="45.54261001558014" lon="11.128686868763406"><ele>634.0</ele><time>2026-03-28T14:19:56Z</time></trkpt><trkpt lat="45.54251552117114" lon="11.12879108747647"><ele>634.0</ele><time>2026-03-28T14:19:57Z</time></trkpt><trkpt lat="45.54237418317373" lon="11.128796925008015"><ele>634.0</ele><time>2026-03-28T14:19:58Z</time></trkpt><trkpt lat="45.54222084437882" lon="11.12883934966224"><ele>634.0</ele><time>2026-03-28T14:19:59Z</time></trkpt><trkpt lat="45.54203465348278" lon="11.128902042695579"><ele>630.6666666666667</ele><time>2026-03-28T14:20:00Z</time></trkpt><trkpt lat="45.54182700592949" lon="11.128963237235244"><ele>627.3333333333334</ele><time>2026-03-28T14:20:01Z</time></trkpt><trkpt lat="45.54164125636829" lon="11.128999705220254"><ele>624.0</ele><time>2026-03-28T14:20:02Z</time></trkpt><trkpt lat="45.54148028500008" lon="11.129043097481304"><ele>623.25</ele><time>2026-03-28T14:20:03Z</time></trkpt><trkpt lat="45.54132733358698" lon="11.129078426167647"><ele>622.5</ele><time>2026-03-28T14:20:04Z</time></trkpt><trkpt lat="45.54118392639937" lon="11.129086455351601"><ele>621.75</ele><time>2026-03-28T14:20:05Z</time></trkpt><trkpt lat="45.54105466408189" lon="11.129057647857461"><ele>621.0</ele><time>2026-03-28T14:20:06Z</time></trkpt><trkpt lat="45.54092618356249" lon="11.128992076686279"><ele>621.0</ele><time>2026-03-28T14:20:07Z</time></trkpt><trkpt lat="45.540777726761746" lon="11.128892059464983"><ele>621.0</ele><time>2026-03-28T14:20:08Z</time></trkpt><trkpt lat="45.540618735103656" lon="11.128804706486703"><ele>621.0</ele><time>2026-03-28T14:20:09Z</time></trkpt><trkpt lat="45.54047371429406" lon="11.128700505216166"><ele>623.25</ele><time>2026-03-28T14:20:10Z</time></trkpt><trkpt lat="45.540338306897326" lon="11.128646646655806"><ele>625.5</ele><time>2026-03-28T14:20:11Z</time></trkpt><trkpt lat="45.54019516278093" lon="11.12863487369322"><ele>627.75</ele><time>2026-03-28T14:20:12Z</time></trkpt><trkpt lat="45.54004098194347" lon="11.128663269785115"><ele>630.0</ele><time>2026-03-28T14:20:13Z</time></trkpt><trkpt lat="45.53989983212756" lon="11.128715904258513"><ele>630.0</ele><time>2026-03-28T14:20:14Z</time></trkpt><trkpt lat="45.53975843083599" lon="11.128812663780296"><ele>630.0</ele><time>2026-03-28T14:20:15Z</time></trkpt><trkpt lat="45.53961830873086" lon="11.128948305273934"><ele>630.0</ele><time>2026-03-28T14:20:16Z</time></trkpt><trkpt lat="45.53948171715464" lon="11.129105038222209"><ele>626.75</ele><time>2026-03-28T14:20:17Z</time></trkpt><trkpt lat="45.539361324480524" lon="11.129254865760066"><ele>623.5</ele><time>2026-03-28T14:20:18Z</time></trkpt><trkpt lat="45.53924634410239" lon="11.129385007441988"><ele>620.25</ele><time>2026-03-28T14:20:19Z</time></trkpt><trkpt lat="45.53915135423807" lon="11.12951301701011"><ele>617.0</ele><time>2026-03-28T14:20:20Z</time></trkpt><trkpt lat="45.53908538743261" lon="11.129661120534754"><ele>617.0</ele><time>2026-03-28T14:20:21Z</time></trkpt><trkpt lat="45.539060522736776" lon="11.129828629630369"><ele>617.0</ele><time>2026-03-28T14:20:22Z</time></trkpt><trkpt lat="45.53907765707274" lon="11.129997793284401"><ele>617.0</ele><time>2026-03-28T14:20:23Z</time></trkpt><trkpt lat="45.53913021188073" lon="11.130177628676304"><ele>617.0</ele><time>2026-03-28T14:20:24Z</time></trkpt><trkpt lat="45.539217866370976" lon="11.130353910277792"><ele>619.0</ele><time>2026-03-28T14:20:25Z</time></trkpt><trkpt lat="45.53932754966589" lon="11.130546761500472"><ele>621.0</ele><time>2026-03-28T14:20:26Z</time></trkpt><trkpt lat="45.539438938519595" lon="11.130782506757226"><ele>623.0</ele><time>2026-03-28T14:20:27Z</time></trkpt><trkpt lat="45.53953894274906" lon="11.13103315207515"><ele>624.6666666666666</ele><time>2026-03-28T14:20:28Z</time></trkpt><trkpt lat="45.53962173679391" lon="11.131269793047451"><ele>626.3333333333334</ele><time>2026-03-28T14:20:29Z</time></trkpt><trkpt lat="45.53968048538509" lon="11.131471742742074"><ele>628.0</ele><time>2026-03-28T14:20:30Z</time></trkpt><trkpt lat="45.539714036602675" lon="11.131647779575545"><ele>628.0</ele><time>2026-03-28T14:20:31Z</time></trkpt><trkpt lat="45.53970173061128" lon="11.13182126031313"><ele>628.0</ele><time>2026-03-28T14:20:32Z</time></trkpt><trkpt lat="45.539663050386885" lon="11.131977493318375"><ele>628.0</ele><time>2026-03-28T14:20:33Z</time></trkpt><trkpt lat="45.53958600448991" lon="11.13209903458143"><ele>628.0</ele><time>2026-03-28T14:20:34Z</time></trkpt><trkpt lat="45.53947796504239" lon="11.13222479694436"><ele>619.0</ele><time>2026-03-28T14:20:35Z</time></trkpt><trkpt lat="45.53935369696725" lon="11.132368187152654"><ele>610.0</ele><time>2026-03-28T14:20:36Z</time></trkpt><trkpt lat="45.5392147354016" lon="11.132537860760669"><ele>601.0</ele><time>2026-03-28T14:20:37Z</time></trkpt><trkpt lat="45.539060441461714" lon="11.132714686670328"><ele>601.0</ele><time>2026-03-28T14:20:38Z</time></trkpt><trkpt lat="45.53890887943213" lon="11.132896343930552"><ele>601.0</ele><time>2026-03-28T14:20:39Z</time></trkpt><trkpt lat="45.53875593345514" lon="11.133071504365365"><ele>601.0</ele><time>2026-03-28T14:20:40Z</time></trkpt><trkpt lat="45.53861530512206" lon="11.133242844607963"><ele>599.3333333333334</ele><time>2026-03-28T14:20:41Z</time></trkpt><trkpt lat="45.53845279135981" lon="11.133398907978796"><ele>597.6666666666666</ele><time>2026-03-28T14:20:42Z</time></trkpt><trkpt lat="45.538273143116186" lon="11.133589400542494"><ele>596.0</ele><time>2026-03-28T14:20:43Z</time></trkpt><trkpt lat="45.53806643738355" lon="11.133762299791703"><ele>595.5</ele><time>2026-03-28T14:20:44Z</time></trkpt><trkpt lat="45.53783886922004" lon="11.133907821263046"><ele>595.0</ele><time>2026-03-28T14:20:45Z</time></trkpt><trkpt lat="45.53759149147373" lon="11.134021084088404"><ele>597.5</ele><time>2026-03-28T14:20:45.999Z</time></trkpt><trkpt lat="45.537319323876105" lon="11.134133354995265"><ele>600.0</ele><time>2026-03-28T14:20:46.999Z</time></trkpt><trkpt lat="45.537047031400895" lon="11.134268677893518"><ele>600.0</ele><time>2026-03-28T14:20:47.999Z</time></trkpt><trkpt lat="45.536792308264765" lon="11.134369952485455"><ele>600.0</ele><time>2026-03-28T14:20:48.999Z</time></trkpt><trkpt lat="45.536565636813506" lon="11.13446982959469"><ele>600.0</ele><time>2026-03-28T14:20:49.999Z</time></trkpt><trkpt lat="45.536367856432484" lon="11.134569663077622"><ele>600.0</ele><time>2026-03-28T14:20:50.999Z</time></trkpt><trkpt lat="45.53619227113731" lon="11.134694871846037"><ele>600.0</ele><time>2026-03-28T14:20:51.999Z</time></trkpt><trkpt lat="45.53603199073776" lon="11.13485613144394"><ele>600.6666666666666</ele><time>2026-03-28T14:20:52.999Z</time></trkpt><trkpt lat="45.53587303162787" lon="11.135053457590608"><ele>601.3333333333333</ele><time>2026-03-28T14:20:53.999Z</time></trkpt><trkpt lat="45.53570460084828" lon="11.135264652908434"><ele>602.0</ele><time>2026-03-28T14:20:54.999Z</time></trkpt><trkpt lat="45.53551527347856" lon="11.135494824056195"><ele>605.5</ele><time>2026-03-28T14:20:55.999Z</time></trkpt><trkpt lat="45.535301762221806" lon="11.135744027572539"><ele>609.0</ele><time>2026-03-28T14:20:56.999Z</time></trkpt><trkpt lat="45.53507833940428" lon="11.136005974854159"><ele>609.0</ele><time>2026-03-28T14:20:57.999Z</time></trkpt><trkpt lat="45.53484964999552" lon="11.136275778589678"><ele>609.0</ele><time>2026-03-28T14:20:58.999Z</time></trkpt><trkpt lat="45.53461561603891" lon="11.13655325213199"><ele>610.0</ele><time>2026-03-28T14:20:59.999Z</time></trkpt><trkpt lat="45.53437679995856" lon="11.136835358205008"><ele>611.0</ele><time>2026-03-28T14:21:00.999Z</time></trkpt><trkpt lat="45.53416561177407" lon="11.137082727340445"><ele>611.0</ele><time>2026-03-28T14:21:01.999Z</time></trkpt><trkpt lat="45.53397417875313" lon="11.13730277091798"><ele>611.0</ele><time>2026-03-28T14:21:02.999Z</time></trkpt><trkpt lat="45.533794064159764" lon="11.137516083255338"><ele>611.6666666666666</ele><time>2026-03-28T14:21:03.999Z</time></trkpt><trkpt lat="45.533634897578736" lon="11.137712668337606"><ele>612.3333333333334</ele><time>2026-03-28T14:21:04.999Z</time></trkpt><trkpt lat="45.533484849364896" lon="11.137895519378702"><ele>613.0</ele><time>2026-03-28T14:21:05.999Z</time></trkpt><trkpt lat="45.533335795912464" lon="11.138063164815746"><ele>608.6666666666667</ele><time>2026-03-28T14:21:06.999Z</time></trkpt><trkpt lat="45.533196206832024" lon="11.138223465450581"><ele>604.3333333333334</ele><time>2026-03-28T14:21:07.999Z</time></trkpt><trkpt lat="45.53307461935576" lon="11.138363525403815"><ele>600.0</ele><time>2026-03-28T14:21:08.999Z</time></trkpt><trkpt lat="45.53294567876813" lon="11.138479332708965"><ele>600.6666666666666</ele><time>2026-03-28T14:21:09.999Z</time></trkpt><trkpt lat="45.53281422431757" lon="11.138556311879485"><ele>601.3333333333333</ele><time>2026-03-28T14:21:10.999Z</time></trkpt><trkpt lat="45.5326655979579" lon="11.138602181676623"><ele>602.0</ele><time>2026-03-28T14:21:11.999Z</time></trkpt><trkpt lat="45.532500288435244" lon="11.138598649959158"><ele>602.0</ele><time>2026-03-28T14:21:12.999Z</time></trkpt><trkpt lat="45.5323227543203" lon="11.138555613043728"><ele>602.0</ele><time>2026-03-28T14:21:13.999Z</time></trkpt><trkpt lat="45.532132275010014" lon="11.13850444502835"><ele>602.0</ele><time>2026-03-28T14:21:14.999Z</time></trkpt><trkpt lat="45.53193311906493" lon="11.138468540937058"><ele>600.0</ele><time>2026-03-28T14:21:15.999Z</time></trkpt><trkpt lat="45.53172250111178" lon="11.138391535228775"><ele>598.0</ele><time>2026-03-28T14:21:16.999Z</time></trkpt><trkpt lat="45.53151303155596" lon="11.13831800774799"><ele>596.0</ele><time>2026-03-28T14:21:17.999Z</time></trkpt><trkpt lat="45.53131791024463" lon="11.138238971529514"><ele>601.3333333333333</ele><time>2026-03-28T14:21:18.999Z</time></trkpt><trkpt lat="45.531127814404" lon="11.138186343438246"><ele>606.6666666666666</ele><time>2026-03-28T14:21:19.999Z</time></trkpt><trkpt lat="45.53095522946665" lon="11.138129776277225"><ele>612.0</ele><time>2026-03-28T14:21:20.999Z</time></trkpt><trkpt lat="45.530760315387155" lon="11.138106487472283"><ele>612.0</ele><time>2026-03-28T14:21:21.999Z</time></trkpt><trkpt lat="45.53054409681768" lon="11.138122760513077"><ele>612.0</ele><time>2026-03-28T14:21:22.999Z</time></trkpt><trkpt lat="45.53032594530177" lon="11.138157230609222"><ele>612.0</ele><time>2026-03-28T14:21:23.999Z</time></trkpt><trkpt lat="45.5301080155223" lon="11.138178086540735"><ele>611.3333333333334</ele><time>2026-03-28T14:21:24.999Z</time></trkpt><trkpt lat="45.52991132157516" lon="11.138213413057548"><ele>610.6666666666667</ele><time>2026-03-28T14:21:25.999Z</time></trkpt><trkpt lat="45.5297352928896" lon="11.138241755451505"><ele>610.0</ele><time>2026-03-28T14:21:26.999Z</time></trkpt><trkpt lat="45.52955532590561" lon="11.13825833787134"><ele>606.3333333333334</ele><time>2026-03-28T14:21:27.999Z</time></trkpt><trkpt lat="45.52937149444623" lon="11.138237715575464"><ele>602.6666666666666</ele><time>2026-03-28T14:21:28.999Z</time></trkpt><trkpt lat="45.52917550327031" lon="11.138178534661822"><ele>599.0</ele><time>2026-03-28T14:21:29.999Z</time></trkpt><trkpt lat="45.528962293338466" lon="11.138104257348663"><ele>599.0</ele><time>2026-03-28T14:21:30.999Z</time></trkpt><trkpt lat="45.52874892127561" lon="11.138027420306987"><ele>599.0</ele><time>2026-03-28T14:21:31.999Z</time></trkpt><trkpt lat="45.52855473423542" lon="11.137957491749216"><ele>599.0</ele><time>2026-03-28T14:21:32.999Z</time></trkpt><trkpt lat="45.52837556632191" lon="11.137920162099475"><ele>594.3333333333333</ele><time>2026-03-28T14:21:33.999Z</time></trkpt><trkpt lat="45.528209078071136" lon="11.13786935294353"><ele>589.6666666666666</ele><time>2026-03-28T14:21:34.999Z</time></trkpt><trkpt lat="45.52802458959869" lon="11.137856884698978"><ele>585.0</ele><time>2026-03-28T14:21:35.999Z</time></trkpt><trkpt lat="45.52781955632068" lon="11.137868156116847"><ele>582.6666666666666</ele><time>2026-03-28T14:21:36.999Z</time></trkpt><trkpt lat="45.52760789063092" lon="11.137898992789419"><ele>580.3333333333333</ele><time>2026-03-28T14:21:38Z</time></trkpt><trkpt lat="45.527374642753244" lon="11.137939195387144"><ele>578.0</ele><time>2026-03-28T14:21:39Z</time></trkpt><trkpt lat="45.527132737829376" lon="11.137981259449033"><ele>572.0</ele><time>2026-03-28T14:21:40Z</time></trkpt><trkpt lat="45.52688165677956" lon="11.13802272867033"><ele>566.0</ele><time>2026-03-28T14:21:41Z</time></trkpt><trkpt lat="45.52665970014441" lon="11.138054835550173"><ele>566.0</ele><time>2026-03-28T14:21:42Z</time></trkpt><trkpt lat="45.5264612599787" lon="11.138090572794873"><ele>566.0</ele><time>2026-03-28T14:21:43Z</time></trkpt><trkpt lat="45.52627483276582" lon="11.138149404960682"><ele>566.0</ele><time>2026-03-28T14:21:44Z</time></trkpt><trkpt lat="45.52610545650967" lon="11.138242573420984"><ele>568.0</ele><time>2026-03-28T14:21:45Z</time></trkpt><trkpt lat="45.525938622034495" lon="11.138371167590476"><ele>570.0</ele><time>2026-03-28T14:21:46Z</time></trkpt><trkpt lat="45.5257812989382" lon="11.138539986542806"><ele>572.0</ele><time>2026-03-28T14:21:47Z</time></trkpt><trkpt lat="45.52561548944553" lon="11.138739935677238"><ele>572.0</ele><time>2026-03-28T14:21:48Z</time></trkpt><trkpt lat="45.52544008296045" lon="11.138955963390424"><ele>572.0</ele><time>2026-03-28T14:21:49Z</time></trkpt><trkpt lat="45.52524937140175" lon="11.139174480559895"><ele>569.0</ele><time>2026-03-28T14:21:50Z</time></trkpt><trkpt lat="45.5250649258036" lon="11.13938388414868"><ele>566.0</ele><time>2026-03-28T14:21:51Z</time></trkpt><trkpt lat="45.52489768173456" lon="11.139566409101365"><ele>563.0</ele><time>2026-03-28T14:21:52Z</time></trkpt><trkpt lat="45.530760315387155" lon="11.138106487472283"><ele>578.6666666666666</ele><time>2026-03-28T14:21:21.999Z</time></trkpt><trkpt lat="45.53054409681768" lon="11.138122760513077"><ele>594.3333333333334</ele><time>2026-03-28T14:21:22.999Z</time></trkpt><trkpt lat="45.53032594530177" lon="11.138157230609222"><ele>610.0</ele><time>2026-03-28T14:21:23.999Z</time></trkpt><trkpt lat="45.5301080155223" lon="11.138178086540735"><ele>610.0</ele><time>2026-03-28T14:21:24.999Z</time></trkpt><trkpt lat="45.52991132157516" lon="11.138213413057548"><ele>610.0</ele><time>2026-03-28T14:21:25.999Z</time></trkpt><trkpt lat="45.5297352928896" lon="11.138241755451505"><ele>610.0</ele><time>2026-03-28T14:21:26.999Z</time></trkpt><trkpt lat="45.52955532590561" lon="11.13825833787134"><ele>606.3333333333334</ele><time>2026-03-28T14:21:27.999Z</time></trkpt><trkpt lat="45.52937149444623" lon="11.138237715575464"><ele>602.6666666666666</ele><time>2026-03-28T14:21:28.999Z</time></trkpt><trkpt lat="45.52917550327031" lon="11.138178534661822"><ele>599.0</ele><time>2026-03-28T14:21:29.999Z</time></trkpt><trkpt lat="45.528962293338466" lon="11.138104257348663"><ele>599.0</ele><time>2026-03-28T14:21:30.999Z</time></trkpt><trkpt lat="45.52874892127561" lon="11.138027420306987"><ele>599.0</ele><time>2026-03-28T14:21:31.999Z</time></trkpt><trkpt lat="45.52855473423542" lon="11.137957491749216"><ele>599.0</ele><time>2026-03-28T14:21:32.999Z</time></trkpt><trkpt lat="45.52837556632191" lon="11.137920162099475"><ele>594.3333333333333</ele><time>2026-03-28T14:21:33.999Z</time></trkpt><trkpt lat="45.528209078071136" lon="11.13786935294353"><ele>589.6666666666666</ele><time>2026-03-28T14:21:34.999Z</time></trkpt><trkpt lat="45.52802458959869" lon="11.137856884698978"><ele>585.0</ele><time>2026-03-28T14:21:35.999Z</time></trkpt><trkpt lat="45.52781955632068" lon="11.137868156116847"><ele>582.6666666666666</ele><time>2026-03-28T14:21:36.999Z</time></trkpt><trkpt lat="45.52760789063092" lon="11.137898992789419"><ele>580.3333333333333</ele><time>2026-03-28T14:21:38Z</time></trkpt><trkpt lat="45.527374642753244" lon="11.137939195387144"><ele>578.0</ele><time>2026-03-28T14:21:39Z</time></trkpt><trkpt lat="45.527132737829376" lon="11.137981259449033"><ele>572.0</ele><time>2026-03-28T14:21:40Z</time></trkpt><trkpt lat="45.52688165677956" lon="11.13802272867033"><ele>566.0</ele><time>2026-03-28T14:21:41Z</time></trkpt><trkpt lat="45.52665970014441" lon="11.138054835550173"><ele>566.0</ele><time>2026-03-28T14:21:42Z</time></trkpt><trkpt lat="45.5264612599787" lon="11.138090572794873"><ele>566.0</ele><time>2026-03-28T14:21:43Z</time></trkpt><trkpt lat="45.52627483276582" lon="11.138149404960682"><ele>566.0</ele><time>2026-03-28T14:21:44Z</time></trkpt><trkpt lat="45.52610545650967" lon="11.138242573420984"><ele>568.0</ele><time>2026-03-28T14:21:45Z</time></trkpt><trkpt lat="45.525938622034495" lon="11.138371167590476"><ele>570.0</ele><time>2026-03-28T14:21:46Z</time></trkpt><trkpt lat="45.5257812989382" lon="11.138539986542806"><ele>572.0</ele><time>2026-03-28T14:21:47Z</time></trkpt><trkpt lat="45.52561548944553" lon="11.138739935677238"><ele>572.0</ele><time>2026-03-28T14:21:48Z</time></trkpt><trkpt lat="45.52544008296045" lon="11.138955963390424"><ele>572.0</ele><time>2026-03-28T14:21:49Z</time></trkpt><trkpt lat="45.52524937140175" lon="11.139174480559895"><ele>569.0</ele><time>2026-03-28T14:21:50Z</time></trkpt><trkpt lat="45.5250649258036" lon="11.13938388414868"><ele>566.0</ele><time>2026-03-28T14:21:51Z</time></trkpt><trkpt lat="45.52489768173456" lon="11.139566409101365"><ele>563.0</ele><time>2026-03-28T14:21:52Z</time></trkpt><trkpt lat="45.52473623828894" lon="11.139718508195196"><ele>558.6666666666666</ele><time>2026-03-28T14:21:53Z</time></trkpt><trkpt lat="45.524559026073476" lon="11.139776017157278"><ele>554.3333333333334</ele><time>2026-03-28T14:21:54Z</time></trkpt><trkpt lat="45.5243880334864" lon="11.139809720758468"><ele>550.0</ele><time>2026-03-28T14:21:55Z</time></trkpt><trkpt lat="45.524218347673425" lon="11.13982138205175"><ele>550.0</ele><time>2026-03-28T14:21:56Z</time></trkpt><trkpt lat="45.524054701012176" lon="11.13985142087062"><ele>550.0</ele><time>2026-03-28T14:21:57Z</time></trkpt><trkpt lat="45.523908656838515" lon="11.139872487901334"><ele>550.0</ele><time>2026-03-28T14:21:58Z</time></trkpt><trkpt lat="45.52376153327592" lon="11.1399268320498"><ele>551.6666666666667</ele><time>2026-03-28T14:21:59Z</time></trkpt><trkpt lat="45.52360936089947" lon="11.140019673540841"><ele>553.3333333333334</ele><time>2026-03-28T14:22:00Z</time></trkpt><trkpt lat="45.523451217539495" lon="11.14013974438587"><ele>555.0</ele><time>2026-03-28T14:22:01Z</time></trkpt><trkpt lat="45.52329967016183" lon="11.140279927340242"><ele>555.0</ele><time>2026-03-28T14:22:02Z</time></trkpt><trkpt lat="45.52312370502479" lon="11.14045081975943"><ele>555.0</ele><time>2026-03-28T14:22:03Z</time></trkpt><trkpt lat="45.52294079166402" lon="11.140635740356005"><ele>555.0</ele><time>2026-03-28T14:22:04Z</time></trkpt><trkpt lat="45.52274143900092" lon="11.14082786483784"><ele>551.5</ele><time>2026-03-28T14:22:05Z</time></trkpt><trkpt lat="45.522526701411266" lon="11.141024220939482"><ele>548.0</ele><time>2026-03-28T14:22:06Z</time></trkpt><trkpt lat="45.52231050197281" lon="11.141227574059647"><ele>548.0</ele><time>2026-03-28T14:22:07Z</time></trkpt><trkpt lat="45.52209817570951" lon="11.141389280892927"><ele>548.0</ele><time>2026-03-28T14:22:08Z</time></trkpt><trkpt lat="45.521863302295436" lon="11.141499851882537"><ele>543.0</ele><time>2026-03-28T14:22:09Z</time></trkpt><trkpt lat="45.52160836535781" lon="11.141601136673254"><ele>538.0</ele><time>2026-03-28T14:22:10Z</time></trkpt><trkpt lat="45.521321083565994" lon="11.141709665262074"><ele>533.0</ele><time>2026-03-28T14:22:11Z</time></trkpt><trkpt lat="45.521032877819245" lon="11.141834272859054"><ele>528.0</ele><time>2026-03-28T14:22:12Z</time></trkpt><trkpt lat="45.52076598018619" lon="11.141933350704631"><ele>528.0</ele><time>2026-03-28T14:22:13Z</time></trkpt><trkpt lat="45.520520119837556" lon="11.14202603531359"><ele>528.0</ele><time>2026-03-28T14:22:14Z</time></trkpt><trkpt lat="45.52028950327287" lon="11.14211385625881"><ele>524.0</ele><time>2026-03-28T14:22:15Z</time></trkpt><trkpt lat="45.52007313350747" lon="11.142192014578493"><ele>520.0</ele><time>2026-03-28T14:22:16Z</time></trkpt><trkpt lat="45.519883793948544" lon="11.142263772461607"><ele>516.0</ele><time>2026-03-28T14:22:17Z</time></trkpt><trkpt lat="45.51970783057508" lon="11.142330798712628"><ele>515.6666666666666</ele><time>2026-03-28T14:22:18Z</time></trkpt><trkpt lat="45.51954131388891" lon="11.142389793776713"><ele>515.3333333333333</ele><time>2026-03-28T14:22:19Z</time></trkpt><trkpt lat="45.51939852447036" lon="11.142443644315973"><ele>515.0</ele><time>2026-03-28T14:22:20Z</time></trkpt><trkpt lat="45.51926419314922" lon="11.142490495755933"><ele>515.0</ele><time>2026-03-28T14:22:21Z</time></trkpt><trkpt lat="45.51914765108844" lon="11.142530882091485"><ele>515.0</ele><time>2026-03-28T14:22:22Z</time></trkpt><trkpt lat="45.519045746064066" lon="11.142565560812773"><ele>515.0</ele><time>2026-03-28T14:22:23Z</time></trkpt><trkpt lat="45.518959428498945" lon="11.142612517386324"><ele>515.0</ele><time>2026-03-28T14:22:24Z</time></trkpt><trkpt lat="45.51889070255819" lon="11.142615707861195"><ele>515.0</ele><time>2026-03-28T14:22:25Z</time></trkpt><trkpt lat="45.518863763638095" lon="11.14281719769726"><ele>515.0</ele><time>2026-03-28T14:22:26Z</time></trkpt><trkpt lat="45.51882213003397" lon="11.142955607993951"><ele>515.0</ele><time>2026-03-28T14:22:27Z</time></trkpt><trkpt lat="45.518768314200486" lon="11.143115715945223"><ele>515.0</ele><time>2026-03-28T14:22:28Z</time></trkpt><trkpt lat="45.51871611014571" lon="11.14328061173545"><ele>515.0</ele><time>2026-03-28T14:22:29Z</time></trkpt><trkpt lat="45.51867830739449" lon="11.143428983962085"><ele>515.1666666666666</ele><time>2026-03-28T14:22:30Z</time></trkpt><trkpt lat="45.51865413211334" lon="11.143545237667219"><ele>515.3333333333333</ele><time>2026-03-28T14:22:31Z</time></trkpt><trkpt lat="45.5186386290644" lon="11.143644391829062"><ele>515.5</ele><time>2026-03-28T14:22:32Z</time></trkpt><trkpt lat="45.518679411118455" lon="11.143790673061785"><ele>515.6666666666666</ele><time>2026-03-28T14:22:34Z</time></trkpt><trkpt lat="45.51873544514561" lon="11.143831825056086"><ele>515.8333333333334</ele><time>2026-03-28T14:22:35Z</time></trkpt><trkpt lat="45.51885257207815" lon="11.143843541148334"><ele>516.0</ele><time>2026-03-28T14:22:37Z</time></trkpt><trkpt lat="45.51897253054696" lon="11.143809286260897"><ele>515.25</ele><time>2026-03-28T14:22:39Z</time></trkpt><trkpt lat="45.519066400426745" lon="11.14378932669558"><ele>514.5</ele><time>2026-03-28T14:22:40Z</time></trkpt><trkpt lat="45.519179525736185" lon="11.143770363786146"><ele>513.75</ele><time>2026-03-28T14:22:41Z</time></trkpt><trkpt lat="45.51930355576653" lon="11.143731525581737"><ele>513.0</ele><time>2026-03-28T14:22:42Z</time></trkpt><trkpt lat="45.51944005109761" lon="11.143678059882626"><ele>513.5</ele><time>2026-03-28T14:22:43Z</time></trkpt><trkpt lat="45.51956861699014" lon="11.14362551988504"><ele>514.0</ele><time>2026-03-28T14:22:44Z</time></trkpt><trkpt lat="45.51968254558251" lon="11.143595452355946"><ele>514.5</ele><time>2026-03-28T14:22:45Z</time></trkpt><trkpt lat="45.519788859096856" lon="11.143601750270873"><ele>515.0</ele><time>2026-03-28T14:22:46Z</time></trkpt><trkpt lat="45.519896662763855" lon="11.143634667141535"><ele>515.0</ele><time>2026-03-28T14:22:47Z</time></trkpt><trkpt lat="45.52001649629415" lon="11.14368172761957"><ele>515.0</ele><time>2026-03-28T14:22:48Z</time></trkpt><trkpt lat="45.52013484827846" lon="11.143728322924016"><ele>515.0</ele><time>2026-03-28T14:22:48.999Z</time></trkpt><trkpt lat="45.52024085094721" lon="11.14377700490262"><ele>515.0</ele><time>2026-03-28T14:22:49.999Z</time></trkpt><trkpt lat="45.52033861451916" lon="11.143838287888435"><ele>515.4</ele><time>2026-03-28T14:22:50.999Z</time></trkpt><trkpt lat="45.520427118673176" lon="11.143912410158224"><ele>515.8</ele><time>2026-03-28T14:22:51.999Z</time></trkpt><trkpt lat="45.520512330060726" lon="11.14398881534596"><ele>516.2</ele><time>2026-03-28T14:22:52.999Z</time></trkpt><trkpt lat="45.52059006171163" lon="11.144068392522922"><ele>516.6</ele><time>2026-03-28T14:22:53.999Z</time></trkpt><trkpt lat="45.520667030953234" lon="11.144151482925281"><ele>517.0</ele><time>2026-03-28T14:22:54.999Z</time></trkpt><trkpt lat="45.520746530190905" lon="11.144245173910612"><ele>514.0</ele><time>2026-03-28T14:22:55.999Z</time></trkpt><trkpt lat="45.52082615783205" lon="11.144338701595808"><ele>511.00000000000006</ele><time>2026-03-28T14:22:56.999Z</time></trkpt><trkpt lat="45.520901528470134" lon="11.144421163657428"><ele>508.00000000000006</ele><time>2026-03-28T14:22:57.999Z</time></trkpt><trkpt lat="45.520977790875406" lon="11.144484956001605"><ele>505.0</ele><time>2026-03-28T14:22:58.999Z</time></trkpt><trkpt lat="45.521054972552946" lon="11.144526584101417"><ele>502.0</ele><time>2026-03-28T14:22:59.999Z</time></trkpt><trkpt lat="45.52114266007678" lon="11.144538600853997"><ele>502.6666666666667</ele><time>2026-03-28T14:23:00.999Z</time></trkpt><trkpt lat="45.52123311639516" lon="11.144526158470466"><ele>503.33333333333337</ele><time>2026-03-28T14:23:01.999Z</time></trkpt><trkpt lat="45.52132080508008" lon="11.144506128472665"><ele>504.0</ele><time>2026-03-28T14:23:02.999Z</time></trkpt><trkpt lat="45.521404221895516" lon="11.144518776853806"><ele>504.66666666666663</ele><time>2026-03-28T14:23:03.999Z</time></trkpt><trkpt lat="45.521478361594134" lon="11.144513134096892"><ele>505.3333333333333</ele><time>2026-03-28T14:23:04.999Z</time></trkpt><trkpt lat="45.52154328530776" lon="11.144510355888404"><ele>506.0</ele><time>2026-03-28T14:23:05.999Z</time></trkpt><trkpt lat="45.52164225983197" lon="11.144504449465108"><ele>506.0</ele><time>2026-03-28T14:23:07.999Z</time></trkpt><trkpt lat="45.52169268434254" lon="11.144651025582194"><ele>506.0</ele><time>2026-03-28T14:23:09.999Z</time></trkpt><trkpt lat="45.52162994565862" lon="11.14475999721628"><ele>506.0</ele><time>2026-03-28T14:23:10.999Z</time></trkpt><trkpt lat="45.52159518178957" lon="11.144858573126703"><ele>506.0</ele><time>2026-03-28T14:23:11.999Z</time></trkpt><trkpt lat="45.52158502850289" lon="11.1449856244652"><ele>506.0</ele><time>2026-03-28T14:23:12.999Z</time></trkpt><trkpt lat="45.52160303603285" lon="11.145104805557065"><ele>503.16666666666663</ele><time>2026-03-28T14:23:13.999Z</time></trkpt><trkpt lat="45.5216445258427" lon="11.145213834190358"><ele>500.3333333333333</ele><time>2026-03-28T14:23:14.999Z</time></trkpt><trkpt lat="45.521709556614866" lon="11.145303523997162"><ele>497.5</ele><time>2026-03-28T14:23:15.999Z</time></trkpt><trkpt lat="45.52178703912684" lon="11.14536384233581"><ele>494.66666666666663</ele><time>2026-03-28T14:23:16.999Z</time></trkpt><trkpt lat="45.52186827311485" lon="11.145391952216256"><ele>491.8333333333333</ele><time>2026-03-28T14:23:17.999Z</time></trkpt><trkpt lat="45.521939657238015" lon="11.145390572790703"><ele>489.0</ele><time>2026-03-28T14:23:18.999Z</time></trkpt><trkpt lat="45.52200302643112" lon="11.14540371210918"><ele>489.0</ele><time>2026-03-28T14:23:19.999Z</time></trkpt><trkpt lat="45.522073779966114" lon="11.145468318356198"><ele>489.0</ele><time>2026-03-28T14:23:21.999Z</time></trkpt><trkpt lat="45.52200112370434" lon="11.145609845930784"><ele>489.0</ele><time>2026-03-28T14:23:23.999Z</time></trkpt><trkpt lat="45.521915151285654" lon="11.145644144680881"><ele>489.0</ele><time>2026-03-28T14:23:24.999Z</time></trkpt><trkpt lat="45.52180912489788" lon="11.145585024177194"><ele>489.0</ele><time>2026-03-28T14:23:25.999Z</time></trkpt><trkpt lat="45.52172124350009" lon="11.145538401642487"><ele>489.0</ele><time>2026-03-28T14:23:26.999Z</time></trkpt><trkpt lat="45.52164938160732" lon="11.145525854294727"><ele>489.0</ele><time>2026-03-28T14:23:27.999Z</time></trkpt><trkpt lat="45.52155718081275" lon="11.145481864272838"><ele>489.0</ele><time>2026-03-28T14:23:29.999Z</time></trkpt><trkpt lat="45.52149916680309" lon="11.145576437243125"><ele>489.0</ele><time>2026-03-28T14:23:31.999Z</time></trkpt><trkpt lat="45.521581965707675" lon="11.145714693064628"><ele>489.0</ele><time>2026-03-28T14:23:33.999Z</time></trkpt><trkpt lat="45.521649736993254" lon="11.1457540167492"><ele>486.3333333333333</ele><time>2026-03-28T14:23:34.999Z</time></trkpt><trkpt lat="45.52172091189168" lon="11.145812826818533"><ele>483.66666666666663</ele><time>2026-03-28T14:23:35.999Z</time></trkpt><trkpt lat="45.52178875612247" lon="11.145903475232224"><ele>481.0</ele><time>2026-03-28T14:23:36.999Z</time></trkpt><trkpt lat="45.521842606585025" lon="11.146011787554372"><ele>478.3333333333333</ele><time>2026-03-28T14:23:37.999Z</time></trkpt><trkpt lat="45.52187647461766" lon="11.146103572191404"><ele>475.66666666666663</ele><time>2026-03-28T14:23:38.999Z</time></trkpt><trkpt lat="45.521912211545654" lon="11.146191697326577"><ele>473.0</ele><time>2026-03-28T14:23:39.999Z</time></trkpt><trkpt lat="45.52195980669694" lon="11.146251065846037"><ele>473.0</ele><time>2026-03-28T14:23:40.999Z</time></trkpt><trkpt lat="45.52205398671287" lon="11.146342256572181"><ele>472.99999999999994</ele><time>2026-03-28T14:23:42.999Z</time></trkpt><trkpt lat="45.522022394484836" lon="11.146483010723237"><ele>472.99999999999994</ele><time>2026-03-28T14:23:45Z</time></trkpt><trkpt lat="45.52195021082793" lon="11.146518712257997"><ele>473.0</ele><time>2026-03-28T14:23:46Z</time></trkpt><trkpt lat="45.52187488419765" lon="11.146457787353231"><ele>473.0</ele><time>2026-03-28T14:23:47Z</time></trkpt><trkpt lat="45.52181631937469" lon="11.146392571924698"><ele>472.99999999999994</ele><time>2026-03-28T14:23:48Z</time></trkpt><trkpt lat="45.52175653433974" lon="11.146330632317467"><ele>473.0</ele><time>2026-03-28T14:23:49Z</time></trkpt><trkpt lat="45.52170390205293" lon="11.146265166800113"><ele>473.0</ele><time>2026-03-28T14:23:50Z</time></trkpt><trkpt lat="45.521629388490915" lon="11.146147409521946"><ele>473.0</ele><time>2026-03-28T14:23:52Z</time></trkpt><trkpt lat="45.52156489343232" lon="11.146046575016008"><ele>472.99999999999994</ele><time>2026-03-28T14:23:54Z</time></trkpt><trkpt lat="45.52149115186907" lon="11.14597664044215"><ele>473.0</ele><time>2026-03-28T14:23:56Z</time></trkpt><trkpt lat="45.52140103251316" lon="11.145981342896002"><ele>473.0</ele><time>2026-03-28T14:23:58Z</time></trkpt><trkpt lat="45.521358783394504" lon="11.146055567899156"><ele>472.99999999999994</ele><time>2026-03-28T14:23:59Z</time></trkpt><trkpt lat="45.521406364398175" lon="11.14618810976444"><ele>472.99999999999994</ele><time>2026-03-28T14:24:00Z</time></trkpt><trkpt lat="45.521455640944616" lon="11.14628073384421"><ele>473.0</ele><time>2026-03-28T14:24:01Z</time></trkpt><trkpt lat="45.52150686535441" lon="11.146404502996038"><ele>473.0</ele><time>2026-03-28T14:24:02Z</time></trkpt><trkpt lat="45.52154340457699" lon="11.146542021153587"><ele>469.59999999999997</ele><time>2026-03-28T14:24:03Z</time></trkpt><trkpt lat="45.52157563038066" lon="11.146661316119081"><ele>466.19999999999993</ele><time>2026-03-28T14:24:04Z</time></trkpt><trkpt lat="45.521611697392316" lon="11.146800010663478"><ele>462.8</ele><time>2026-03-28T14:24:05Z</time></trkpt><trkpt lat="45.521648328889675" lon="11.146939228435512"><ele>459.4</ele><time>2026-03-28T14:24:06Z</time></trkpt><trkpt lat="45.52168798152602" lon="11.147059321485386"><ele>456.0</ele><time>2026-03-28T14:24:07Z</time></trkpt><trkpt lat="45.52173027067558" lon="11.14718168916494"><ele>456.0</ele><time>2026-03-28T14:24:08Z</time></trkpt><trkpt lat="45.5217818268518" lon="11.147288444905717"><ele>456.0</ele><time>2026-03-28T14:24:09Z</time></trkpt><trkpt lat="45.52183464439721" lon="11.147386454635145"><ele>456.0</ele><time>2026-03-28T14:24:10Z</time></trkpt><trkpt lat="45.521891703723014" lon="11.147478625056786"><ele>456.0</ele><time>2026-03-28T14:24:11Z</time></trkpt><trkpt lat="45.52194647482732" lon="11.147563242531476"><ele>456.0</ele><time>2026-03-28T14:24:12Z</time></trkpt><trkpt lat="45.52200093583302" lon="11.147652891870191"><ele>456.0</ele><time>2026-03-28T14:24:13Z</time></trkpt><trkpt lat="45.52205749661249" lon="11.147733784125585"><ele>453.6666666666667</ele><time>2026-03-28T14:24:14Z</time></trkpt><trkpt lat="45.52212033039034" lon="11.147803656194421"><ele>451.33333333333337</ele><time>2026-03-28T14:24:15Z</time></trkpt><trkpt lat="45.52217538311318" lon="11.14785912659457"><ele>449.0</ele><time>2026-03-28T14:24:16Z</time></trkpt><trkpt lat="45.52220215288066" lon="11.148016762634363"><ele>446.6666666666667</ele><time>2026-03-28T14:24:18Z</time></trkpt><trkpt lat="45.5221475394516" lon="11.148072195290876"><ele>444.33333333333337</ele><time>2026-03-28T14:24:19Z</time></trkpt><trkpt lat="45.52206331923579" lon="11.14807893075947"><ele>442.0</ele><time>2026-03-28T14:24:20Z</time></trkpt><trkpt lat="45.52200160179095" lon="11.147987759359394"><ele>441.6666666666667</ele><time>2026-03-28T14:24:21Z</time></trkpt><trkpt lat="45.521941712524104" lon="11.147943954444926"><ele>441.33333333333337</ele><time>2026-03-28T14:24:22Z</time></trkpt><trkpt lat="45.52187265471958" lon="11.147874032159729"><ele>441.0</ele><time>2026-03-28T14:24:24Z</time></trkpt><trkpt lat="45.521802373092896" lon="11.147812123525362"><ele>440.66666666666663</ele><time>2026-03-28T14:24:26Z</time></trkpt><trkpt lat="45.52174209453145" lon="11.147731587338127"><ele>440.3333333333333</ele><time>2026-03-28T14:24:28Z</time></trkpt><trkpt lat="45.52169235339852" lon="11.147788254959739"><ele>440.0</ele><time>2026-03-28T14:24:29Z</time></trkpt><trkpt lat="45.521700350867874" lon="11.14792783303731"><ele>440.0</ele><time>2026-03-28T14:24:31Z</time></trkpt><trkpt lat="45.52174084106565" lon="11.148005956692215"><ele>440.0</ele><time>2026-03-28T14:24:32Z</time></trkpt><trkpt lat="45.52179613101342" lon="11.148113219376048"><ele>440.0</ele><time>2026-03-28T14:24:33Z</time></trkpt><trkpt lat="45.52185271427933" lon="11.148239341116621"><ele>440.0</ele><time>2026-03-28T14:24:34Z</time></trkpt><trkpt lat="45.52190660116129" lon="11.14837333035133"><ele>440.0</ele><time>2026-03-28T14:24:35Z</time></trkpt><trkpt lat="45.52195334733374" lon="11.148511723606818"><ele>437.8</ele><time>2026-03-28T14:24:36Z</time></trkpt><trkpt lat="45.522002331393836" lon="11.148639158906557"><ele>435.6</ele><time>2026-03-28T14:24:37Z</time></trkpt><trkpt lat="45.522047400542164" lon="11.148763427873533"><ele>433.4</ele><time>2026-03-28T14:24:38Z</time></trkpt><trkpt lat="45.522085301491025" lon="11.148886361326836"><ele>431.2</ele><time>2026-03-28T14:24:39Z</time></trkpt><trkpt lat="45.52211751671135" lon="11.149007513453611"><ele>429.0</ele><time>2026-03-28T14:24:40Z</time></trkpt><trkpt lat="45.52214689842658" lon="11.149125510360312"><ele>428.0</ele><time>2026-03-28T14:24:41Z</time></trkpt><trkpt lat="45.522174072220196" lon="11.149244296952945"><ele>427.0</ele><time>2026-03-28T14:24:42Z</time></trkpt><trkpt lat="45.522202514545576" lon="11.149348468774855"><ele>426.0</ele><time>2026-03-28T14:24:43Z</time></trkpt><trkpt lat="45.52221811651632" lon="11.149472866874213"><ele>425.0</ele><time>2026-03-28T14:24:44Z</time></trkpt><trkpt lat="45.52222094816768" lon="11.149613342840418"><ele>424.0</ele><time>2026-03-28T14:24:45Z</time></trkpt><trkpt lat="45.52221532621917" lon="11.149754445630812"><ele>423.33333333333337</ele><time>2026-03-28T14:24:46Z</time></trkpt><trkpt lat="45.52220954066443" lon="11.149897000604987"><ele>422.6666666666667</ele><time>2026-03-28T14:24:47Z</time></trkpt><trkpt lat="45.5222005191977" lon="11.150033461442137"><ele>422.0</ele><time>2026-03-28T14:24:48Z</time></trkpt><trkpt lat="45.522198404436445" lon="11.150160630673572"><ele>421.33333333333337</ele><time>2026-03-28T14:24:49Z</time></trkpt><trkpt lat="45.522220396940355" lon="11.150260374541535"><ele>420.6666666666667</ele><time>2026-03-28T14:24:50Z</time></trkpt><trkpt lat="45.52228545100301" lon="11.150332550095529"><ele>420.0</ele><time>2026-03-28T14:24:51Z</time></trkpt><trkpt lat="45.52236012298941" lon="11.150346629876266"><ele>420.0</ele><time>2026-03-28T14:24:51.999Z</time></trkpt><trkpt lat="45.52245642364436" lon="11.150311433191659"><ele>420.0</ele><time>2026-03-28T14:24:52.999Z</time></trkpt><trkpt lat="45.522566503160995" lon="11.150255634874048"><ele>420.0</ele><time>2026-03-28T14:24:53.999Z</time></trkpt><trkpt lat="45.522666649610386" lon="11.150216124178089"><ele>420.0</ele><time>2026-03-28T14:24:54.999Z</time></trkpt><trkpt lat="45.52275138784749" lon="11.150186927092351"><ele>420.0</ele><time>2026-03-28T14:24:55.999Z</time></trkpt><trkpt lat="45.522823732065724" lon="11.150145639563277"><ele>420.0</ele><time>2026-03-28T14:24:56.999Z</time></trkpt><trkpt lat="45.52292506185309" lon="11.150078753104443"><ele>420.0</ele><time>2026-03-28T14:24:58.999Z</time></trkpt><trkpt lat="45.52298859208747" lon="11.150063916591751"><ele>420.0</ele><time>2026-03-28T14:25:01.999Z</time></trkpt><trkpt lat="45.52297735796488" lon="11.150156232307992"><ele>420.0</ele><time>2026-03-28T14:25:03.999Z</time></trkpt><trkpt lat="45.52291518369219" lon="11.150196892811843"><ele>420.0</ele><time>2026-03-28T14:25:04.999Z</time></trkpt><trkpt lat="45.522848753231635" lon="11.150238751417248"><ele>420.0</ele><time>2026-03-28T14:25:05.999Z</time></trkpt><trkpt lat="45.52277322966829" lon="11.150287731825102"><ele>420.0</ele><time>2026-03-28T14:25:06.999Z</time></trkpt><trkpt lat="45.52270312007966" lon="11.150355368858586"><ele>420.0</ele><time>2026-03-28T14:25:07.999Z</time></trkpt><trkpt lat="45.52263257763359" lon="11.150428060193512"><ele>420.0</ele><time>2026-03-28T14:25:08.999Z</time></trkpt><trkpt lat="45.522570305136185" lon="11.150504847467673"><ele>420.0</ele><time>2026-03-28T14:25:09.999Z</time></trkpt><trkpt lat="45.52250797539946" lon="11.150585594521404"><ele>420.0</ele><time>2026-03-28T14:25:10.999Z</time></trkpt><trkpt lat="45.52245807745034" lon="11.150667292166704"><ele>420.0</ele><time>2026-03-28T14:25:11.999Z</time></trkpt><trkpt lat="45.52240846512807" lon="11.150754877545005"><ele>417.0</ele><time>2026-03-28T14:25:12.999Z</time></trkpt><trkpt lat="45.52236381973265" lon="11.150857370365804"><ele>414.0</ele><time>2026-03-28T14:25:13.999Z</time></trkpt><trkpt lat="45.522330489555046" lon="11.150979210410654"><ele>411.0</ele><time>2026-03-28T14:25:14.999Z</time></trkpt><trkpt lat="45.52231387991985" lon="11.15109482419894"><ele>408.0</ele><time>2026-03-28T14:25:15.999Z</time></trkpt><trkpt lat="45.52231412663278" lon="11.151211673737578"><ele>405.0</ele><time>2026-03-28T14:25:16.999Z</time></trkpt><trkpt lat="45.522315404646356" lon="11.15132415785666"><ele>402.0</ele><time>2026-03-28T14:25:17.999Z</time></trkpt><trkpt lat="45.52230250044545" lon="11.15143747192911"><ele>402.0</ele><time>2026-03-28T14:25:18.999Z</time></trkpt><trkpt lat="45.522261511988404" lon="11.151534228250608"><ele>402.0</ele><time>2026-03-28T14:25:19.999Z</time></trkpt><trkpt lat="45.52221579732587" lon="11.151617384063611"><ele>402.0</ele><time>2026-03-28T14:25:20.999Z</time></trkpt><trkpt lat="45.52224874702715" lon="11.151763034339668"><ele>402.0</ele><time>2026-03-28T14:25:22.999Z</time></trkpt><trkpt lat="45.52230933112519" lon="11.151811038442652"><ele>402.0</ele><time>2026-03-28T14:25:23.999Z</time></trkpt><trkpt lat="45.52236270341174" lon="11.15190573525925"><ele>402.0</ele><time>2026-03-28T14:25:25.999Z</time></trkpt><trkpt lat="45.52226677342833" lon="11.151980038042277"><ele>399.6</ele><time>2026-03-28T14:25:27.999Z</time></trkpt><trkpt lat="45.52220859907423" lon="11.151906590629293"><ele>397.20000000000005</ele><time>2026-03-28T14:25:28.999Z</time></trkpt><trkpt lat="45.522092107820164" lon="11.151857932576291"><ele>394.8</ele><time>2026-03-28T14:25:30.999Z</time></trkpt><trkpt lat="45.5220237816825" lon="11.151842171797473"><ele>392.4</ele><time>2026-03-28T14:25:31.999Z</time></trkpt><trkpt lat="45.521944081786486" lon="11.151704198931151"><ele>390.0</ele><time>2026-03-28T14:25:33.999Z</time></trkpt><trkpt lat="45.52194416061466" lon="11.15160010160718"><ele>389.8333333333333</ele><time>2026-03-28T14:25:34.999Z</time></trkpt><trkpt lat="45.521878141511834" lon="11.151504187824012"><ele>389.66666666666663</ele><time>2026-03-28T14:25:36.999Z</time></trkpt><trkpt lat="45.5217865548376" lon="11.151596769476418"><ele>389.5</ele><time>2026-03-28T14:25:38.999Z</time></trkpt><trkpt lat="45.521818312839976" lon="11.151717071239027"><ele>389.3333333333333</ele><time>2026-03-28T14:25:39.999Z</time></trkpt><trkpt lat="45.52183161774437" lon="11.151809957532274"><ele>389.16666666666663</ele><time>2026-03-28T14:25:40.999Z</time></trkpt><trkpt lat="45.52184579433833" lon="11.151904826461926"><ele>389.0</ele><time>2026-03-28T14:25:41.999Z</time></trkpt><trkpt lat="45.52186413477453" lon="11.152013164919392"><ele>386.99999999999994</ele><time>2026-03-28T14:25:42.999Z</time></trkpt><trkpt lat="45.52188579463368" lon="11.152123971346475"><ele>385.0</ele><time>2026-03-28T14:25:43.999Z</time></trkpt><trkpt lat="45.5219077303188" lon="11.15223006427454"><ele>383.0</ele><time>2026-03-28T14:25:44.999Z</time></trkpt><trkpt lat="45.5219265884104" lon="11.152336292223723"><ele>381.0</ele><time>2026-03-28T14:25:45.999Z</time></trkpt><trkpt lat="45.52193109696787" lon="11.152452831570091"><ele>379.0</ele><time>2026-03-28T14:25:46.999Z</time></trkpt><trkpt lat="45.5219379744503" lon="11.1525625840648"><ele>377.0</ele><time>2026-03-28T14:25:47.999Z</time></trkpt><trkpt lat="45.52193871892741" lon="11.15267334416869"><ele>375.57142857142856</ele><time>2026-03-28T14:25:48.999Z</time></trkpt><trkpt lat="45.52194557398638" lon="11.152781225786935"><ele>374.1428571428571</ele><time>2026-03-28T14:25:50Z</time></trkpt><trkpt lat="45.521957353631635" lon="11.152879458502744"><ele>372.71428571428567</ele><time>2026-03-28T14:25:51Z</time></trkpt><trkpt lat="45.52196506988413" lon="11.152991942304636"><ele>371.2857142857143</ele><time>2026-03-28T14:25:52Z</time></trkpt><trkpt lat="45.521965939713" lon="11.15309477129949"><ele>369.8571428571429</ele><time>2026-03-28T14:25:53Z</time></trkpt><trkpt lat="45.52197556030641" lon="11.153206196293443"><ele>368.4285714285714</ele><time>2026-03-28T14:25:54Z</time></trkpt><trkpt lat="45.521991035224495" lon="11.153307572287401"><ele>367.0</ele><time>2026-03-28T14:25:55Z</time></trkpt><trkpt lat="45.52200980630751" lon="11.153408057836442"><ele>366.85714285714283</ele><time>2026-03-28T14:25:56Z</time></trkpt><trkpt lat="45.52203173768939" lon="11.153505241670002"><ele>366.7142857142857</ele><time>2026-03-28T14:25:57Z</time></trkpt><trkpt lat="45.522061873715764" lon="11.153600977334989"><ele>366.57142857142856</ele><time>2026-03-28T14:25:58Z</time></trkpt><trkpt lat="45.52210159289179" lon="11.153686546261552"><ele>366.42857142857144</ele><time>2026-03-28T14:25:59Z</time></trkpt><trkpt lat="45.522148967907334" lon="11.153766032607454"><ele>366.28571428571433</ele><time>2026-03-28T14:26:00Z</time></trkpt><trkpt lat="45.522202797222505" lon="11.153829421670098"><ele>366.14285714285717</ele><time>2026-03-28T14:26:01Z</time></trkpt><trkpt lat="45.522266408453" lon="11.153860221957364"><ele>366.0</ele><time>2026-03-28T14:26:02Z</time></trkpt><trkpt lat="45.52232997264409" lon="11.153852063724441"><ele>366.0</ele><time>2026-03-28T14:26:03Z</time></trkpt><trkpt lat="45.522405783711854" lon="11.15381163872996"><ele>366.0</ele><time>2026-03-28T14:26:04Z</time></trkpt><trkpt lat="45.522471388465355" lon="11.153789354225239"><ele>366.0</ele><time>2026-03-28T14:26:05Z</time></trkpt><trkpt lat="45.522536614543455" lon="11.153739885472888"><ele>366.0</ele><time>2026-03-28T14:26:06Z</time></trkpt><trkpt lat="45.52259128133293" lon="11.153662949520665"><ele>366.0</ele><time>2026-03-28T14:26:07Z</time></trkpt><trkpt lat="45.522633748149204" lon="11.153582515669674"><ele>366.0</ele><time>2026-03-28T14:26:08Z</time></trkpt><trkpt lat="45.52267739300019" lon="11.153506089757451"><ele>366.0</ele><time>2026-03-28T14:26:09Z</time></trkpt><trkpt lat="45.5227158928424" lon="11.15342792817369"><ele>366.0</ele><time>2026-03-28T14:26:10Z</time></trkpt><trkpt lat="45.52274969914873" lon="11.15332556389174"><ele>366.0</ele><time>2026-03-28T14:26:11Z</time></trkpt><trkpt lat="45.52273851030268" lon="11.15320460637969"><ele>366.0</ele><time>2026-03-28T14:26:12Z</time></trkpt><trkpt lat="45.52273304774374" lon="11.153104786110994"><ele>366.0</ele><time>2026-03-28T14:26:13Z</time></trkpt><trkpt lat="45.52273931606724" lon="11.153010012517397"><ele>366.0</ele><time>2026-03-28T14:26:14Z</time></trkpt><trkpt lat="45.522737243880165" lon="11.152920035665463"><ele>366.0</ele><time>2026-03-28T14:26:15Z</time></trkpt><trkpt lat="45.522735815979864" lon="11.152826988525089"><ele>366.0</ele><time>2026-03-28T14:26:16Z</time></trkpt><trkpt lat="45.52273875039389" lon="11.152732814520277"><ele>368.8</ele><time>2026-03-28T14:26:17Z</time></trkpt><trkpt lat="45.52272060838744" lon="11.152573848387688"><ele>371.6</ele><time>2026-03-28T14:26:19Z</time></trkpt><trkpt lat="45.52275927890523" lon="11.152447243558253"><ele>374.4</ele><time>2026-03-28T14:26:21Z</time></trkpt><trkpt lat="45.52282980162551" lon="11.152414496991776"><ele>377.2</ele><time>2026-03-28T14:26:23Z</time></trkpt><trkpt lat="45.52281627738882" lon="11.152576898333567"><ele>380.0</ele><time>2026-03-28T14:26:25Z</time></trkpt><trkpt lat="45.52279267447444" lon="11.152763704325556"><ele>380.0</ele><time>2026-03-28T14:26:27Z</time></trkpt><trkpt lat="45.52279620548021" lon="11.152883436353251"><ele>380.0</ele><time>2026-03-28T14:26:28Z</time></trkpt><trkpt lat="45.52281959126246" lon="11.1530323197329"><ele>380.0</ele><time>2026-03-28T14:26:29Z</time></trkpt><trkpt lat="45.52283939640198" lon="11.153152589246599"><ele>380.0</ele><time>2026-03-28T14:26:30Z</time></trkpt><trkpt lat="45.5228612404041" lon="11.153285240073902"><ele>380.0</ele><time>2026-03-28T14:26:31Z</time></trkpt><trkpt lat="45.522883784484655" lon="11.153418862772373"><ele>374.33333333333337</ele><time>2026-03-28T14:26:32Z</time></trkpt><trkpt lat="45.522908578789036" lon="11.15355862630133"><ele>368.6666666666667</ele><time>2026-03-28T14:26:33Z</time></trkpt><trkpt lat="45.52293117628577" lon="11.15367918101105"><ele>363.0</ele><time>2026-03-28T14:26:34Z</time></trkpt><trkpt lat="45.5229589034496" lon="11.153787064945778"><ele>357.3333333333333</ele><time>2026-03-28T14:26:35Z</time></trkpt><trkpt lat="45.52296737536202" lon="11.153895257893966"><ele>351.66666666666663</ele><time>2026-03-28T14:26:36Z</time></trkpt><trkpt lat="45.52297584711214" lon="11.15399169388806"><ele>346.0</ele><time>2026-03-28T14:26:37Z</time></trkpt><trkpt lat="45.52298284990542" lon="11.154085679813182"><ele>346.3333333333333</ele><time>2026-03-28T14:26:38Z</time></trkpt><trkpt lat="45.52297803522425" lon="11.154181420513108"><ele>346.66666666666663</ele><time>2026-03-28T14:26:39Z</time></trkpt><trkpt lat="45.52294705190906" lon="11.154284365122612"><ele>347.0</ele><time>2026-03-28T14:26:40Z</time></trkpt><trkpt lat="45.522894970306986" lon="11.154383302322417"><ele>347.3333333333333</ele><time>2026-03-28T14:26:41Z</time></trkpt><trkpt lat="45.522800267868654" lon="11.154420022285967"><ele>347.6666666666667</ele><time>2026-03-28T14:26:42Z</time></trkpt><trkpt lat="45.52271674163551" lon="11.154490875677142"><ele>348.0</ele><time>2026-03-28T14:26:43Z</time></trkpt><trkpt lat="45.52263569847715" lon="11.154581887188115"><ele>348.0</ele><time>2026-03-28T14:26:44Z</time></trkpt><trkpt lat="45.52255012170361" lon="11.15465224946587"><ele>348.0</ele><time>2026-03-28T14:26:45Z</time></trkpt><trkpt lat="45.5224592585284" lon="11.1547276841693"><ele>348.0</ele><time>2026-03-28T14:26:46Z</time></trkpt><trkpt lat="45.52236321386405" lon="11.154805423364946"><ele>348.0</ele><time>2026-03-28T14:26:47Z</time></trkpt><trkpt lat="45.52226480759189" lon="11.15488744019998"><ele>348.0</ele><time>2026-03-28T14:26:48Z</time></trkpt><trkpt lat="45.52213956889728" lon="11.154995225716423"><ele>346.4</ele><time>2026-03-28T14:26:49Z</time></trkpt><trkpt lat="45.522022063391226" lon="11.155085355963157"><ele>344.79999999999995</ele><time>2026-03-28T14:26:50Z</time></trkpt><trkpt lat="45.521926541450554" lon="11.155165064714572"><ele>343.2</ele><time>2026-03-28T14:26:51Z</time></trkpt><trkpt lat="45.5218365657826" lon="11.155239068092861"><ele>341.6</ele><time>2026-03-28T14:26:51.999Z</time></trkpt><trkpt lat="45.52175515028815" lon="11.155307795269204"><ele>340.0</ele><time>2026-03-28T14:26:52.999Z</time></trkpt><trkpt lat="45.52167700982705" lon="11.155371228851829"><ele>340.0</ele><time>2026-03-28T14:26:53.999Z</time></trkpt><trkpt lat="45.52159588372949" lon="11.155432955366418"><ele>340.0</ele><time>2026-03-28T14:26:54.999Z</time></trkpt><trkpt lat="45.52152991620907" lon="11.155484751973182"><ele>340.0</ele><time>2026-03-28T14:26:55.999Z</time></trkpt><trkpt lat="45.521462999308895" lon="11.15553150302109"><ele>340.0</ele><time>2026-03-28T14:26:56.999Z</time></trkpt><trkpt lat="45.52139162185889" lon="11.155588766186469"><ele>340.0</ele><time>2026-03-28T14:26:57.999Z</time></trkpt><trkpt lat="45.52131955044549" lon="11.155645787092052"><ele>340.0</ele><time>2026-03-28T14:26:58.999Z</time></trkpt><trkpt lat="45.521245554370346" lon="11.155700416764072"><ele>339.3333333333333</ele><time>2026-03-28T14:26:59.999Z</time></trkpt><trkpt lat="45.52118251979806" lon="11.155748553319881"><ele>338.66666666666663</ele><time>2026-03-28T14:27:00.999Z</time></trkpt><trkpt lat="45.5211010904087" lon="11.155873605968116"><ele>338.0</ele><time>2026-03-28T14:27:02.999Z</time></trkpt><trkpt lat="45.521092754067055" lon="11.155975981567526"><ele>337.3333333333333</ele><time>2026-03-28T14:27:03.999Z</time></trkpt><trkpt lat="45.521084311931794" lon="11.156084559689443"><ele>336.6666666666667</ele><time>2026-03-28T14:27:04.999Z</time></trkpt><trkpt lat="45.521063429171946" lon="11.15620184622651"><ele>336.0</ele><time>2026-03-28T14:27:05.999Z</time></trkpt><trkpt lat="45.521045121693135" lon="11.156349379710448"><ele>335.75</ele><time>2026-03-28T14:27:06.999Z</time></trkpt><trkpt lat="45.52103775204777" lon="11.156540736844745"><ele>335.5</ele><time>2026-03-28T14:27:07.999Z</time></trkpt><trkpt lat="45.521032087433795" lon="11.156722733304594"><ele>335.25</ele><time>2026-03-28T14:27:08.999Z</time></trkpt><trkpt lat="45.52101591232981" lon="11.156882258458241"><ele>335.0</ele><time>2026-03-28T14:27:09.999Z</time></trkpt><trkpt lat="45.52100568493509" lon="11.157015986092661"><ele>335.0</ele><time>2026-03-28T14:27:10.999Z</time></trkpt><trkpt lat="45.52099788995696" lon="11.157143807768282"><ele>335.0</ele><time>2026-03-28T14:27:11.999Z</time></trkpt><trkpt lat="45.52098861949468" lon="11.15727407249769"><ele>335.0</ele><time>2026-03-28T14:27:12.999Z</time></trkpt><trkpt lat="45.52097332952379" lon="11.15742574165575"><ele>335.0</ele><time>2026-03-28T14:27:13.999Z</time></trkpt><trkpt lat="45.520962417078714" lon="11.157594394461652"><ele>335.0</ele><time>2026-03-28T14:27:14.999Z</time></trkpt><trkpt lat="45.52095890399774" lon="11.157756695645032"><ele>334.2</ele><time>2026-03-28T14:27:15.999Z</time></trkpt><trkpt lat="45.52096175660312" lon="11.157910291209497"><ele>333.4</ele><time>2026-03-28T14:27:16.999Z</time></trkpt><trkpt lat="45.52097329084627" lon="11.15804877468806"><ele>332.6</ele><time>2026-03-28T14:27:17.999Z</time></trkpt><trkpt lat="45.52099211995519" lon="11.15816558991096"><ele>331.8</ele><time>2026-03-28T14:27:18.999Z</time></trkpt><trkpt lat="45.52100876864381" lon="11.158273598421015"><ele>331.0</ele><time>2026-03-28T14:27:19.999Z</time></trkpt><trkpt lat="45.52102555540917" lon="11.158435580856441"><ele>330.6</ele><time>2026-03-28T14:27:21.999Z</time></trkpt><trkpt lat="45.52101368523344" lon="11.158561876204582"><ele>330.20000000000005</ele><time>2026-03-28T14:27:23.999Z</time></trkpt><trkpt lat="45.52100249492561" lon="11.15872854785129"><ele>329.79999999999995</ele><time>2026-03-28T14:27:25.999Z</time></trkpt><trkpt lat="45.52091031181669" lon="11.158744604767321"><ele>329.4</ele><time>2026-03-28T14:27:26.999Z</time></trkpt><trkpt lat="45.52079989855734" lon="11.158812584672967"><ele>329.0</ele><time>2026-03-28T14:27:28.999Z</time></trkpt><trkpt lat="45.520712161464125" lon="11.158836096271491"><ele>329.0</ele><time>2026-03-28T14:27:29.999Z</time></trkpt><trkpt lat="45.52059675896097" lon="11.158857776316857"><ele>329.0</ele><time>2026-03-28T14:27:30.999Z</time></trkpt><trkpt lat="45.520461416051376" lon="11.15887956223204"><ele>329.0</ele><time>2026-03-28T14:27:31.999Z</time></trkpt><trkpt lat="45.52031498966597" lon="11.158907515741317"><ele>329.0</ele><time>2026-03-28T14:27:32.999Z</time></trkpt><trkpt lat="45.52017033511119" lon="11.158948033932235"><ele>328.6666666666667</ele><time>2026-03-28T14:27:33.999Z</time></trkpt><trkpt lat="45.52001002324408" lon="11.159004340344286"><ele>328.3333333333333</ele><time>2026-03-28T14:27:34.999Z</time></trkpt><trkpt lat="45.519840670165486" lon="11.159065849982978"><ele>328.0</ele><time>2026-03-28T14:27:35.999Z</time></trkpt><trkpt lat="45.51966229889216" lon="11.159139152550535"><ele>327.0</ele><time>2026-03-28T14:27:36.999Z</time></trkpt><trkpt lat="45.519493640554366" lon="11.159224297740554"><ele>326.0</ele><time>2026-03-28T14:27:37.999Z</time></trkpt><trkpt lat="45.519334726693074" lon="11.159307695159209"><ele>325.0</ele><time>2026-03-28T14:27:38.999Z</time></trkpt><trkpt lat="45.51917650275202" lon="11.159385369069627"><ele>325.0</ele><time>2026-03-28T14:27:39.999Z</time></trkpt><trkpt lat="45.51902418360289" lon="11.15946572051187"><ele>325.0</ele><time>2026-03-28T14:27:40.999Z</time></trkpt><trkpt lat="45.51887572605608" lon="11.159543652036703"><ele>325.0</ele><time>2026-03-28T14:27:41.999Z</time></trkpt><trkpt lat="45.51873867008714" lon="11.159613237119542"><ele>323.3333333333333</ele><time>2026-03-28T14:27:42.999Z</time></trkpt><trkpt lat="45.51860062122652" lon="11.159681044661562"><ele>321.6666666666667</ele><time>2026-03-28T14:27:43.999Z</time></trkpt><trkpt lat="45.51844960990254" lon="11.159754045186387"><ele>320.0</ele><time>2026-03-28T14:27:44.999Z</time></trkpt><trkpt lat="45.51829725870276" lon="11.159833790936869"><ele>319.6666666666667</ele><time>2026-03-28T14:27:45.999Z</time></trkpt><trkpt lat="45.518144866436884" lon="11.1599098019546"><ele>319.3333333333333</ele><time>2026-03-28T14:27:46.999Z</time></trkpt><trkpt lat="45.51799447495809" lon="11.159988016269658"><ele>319.0</ele><time>2026-03-28T14:27:47.999Z</time></trkpt><trkpt lat="45.51784930978743" lon="11.160064644338515"><ele>319.0</ele><time>2026-03-28T14:27:48.999Z</time></trkpt><trkpt lat="45.51769104732341" lon="11.160138389688633"><ele>319.0</ele><time>2026-03-28T14:27:49.999Z</time></trkpt><trkpt lat="45.51754568064807" lon="11.160214342250084"><ele>319.0</ele><time>2026-03-28T14:27:50.999Z</time></trkpt><trkpt lat="45.51739862159903" lon="11.160290710721025"><ele>319.0</ele><time>2026-03-28T14:27:51.999Z</time></trkpt><trkpt lat="45.51725191456208" lon="11.160360616678533"><ele>319.0</ele><time>2026-03-28T14:27:52.999Z</time></trkpt><trkpt lat="45.51710206671178" lon="11.160434045346893"><ele>319.0</ele><time>2026-03-28T14:27:53.999Z</time></trkpt><trkpt lat="45.516949705770095" lon="11.160497979905061"><ele>318.0</ele><time>2026-03-28T14:27:54.999Z</time></trkpt><trkpt lat="45.51679588560666" lon="11.16055635113547"><ele>317.0</ele><time>2026-03-28T14:27:56Z</time></trkpt><trkpt lat="45.516629875995726" lon="11.160604386520447"><ele>316.0</ele><time>2026-03-28T14:27:57Z</time></trkpt><trkpt lat="45.516452520886084" lon="11.16064425171433"><ele>316.0</ele><time>2026-03-28T14:27:58Z</time></trkpt><trkpt lat="45.51628855289944" lon="11.160670597082115"><ele>316.0</ele><time>2026-03-28T14:27:59Z</time></trkpt><trkpt lat="45.51612270260775" lon="11.160704243380748"><ele>316.0</ele><time>2026-03-28T14:28:00Z</time></trkpt><trkpt lat="45.51595291339833" lon="11.16073783854892"><ele>315.3333333333333</ele><time>2026-03-28T14:28:01Z</time></trkpt><trkpt lat="45.51578343794221" lon="11.160768614871358"><ele>314.6666666666667</ele><time>2026-03-28T14:28:02Z</time></trkpt><trkpt lat="45.515614142348106" lon="11.160797069615853"><ele>314.0</ele><time>2026-03-28T14:28:03Z</time></trkpt><trkpt lat="45.51544561311801" lon="11.16083302308873"><ele>314.0</ele><time>2026-03-28T14:28:04Z</time></trkpt><trkpt lat="45.51528304169198" lon="11.16087050476007"><ele>314.0</ele><time>2026-03-28T14:28:05Z</time></trkpt><trkpt lat="45.51511461302697" lon="11.16090482358761"><ele>314.0</ele><time>2026-03-28T14:28:06Z</time></trkpt><trkpt lat="45.51494882396754" lon="11.160941749812876"><ele>314.0</ele><time>2026-03-28T14:28:07Z</time></trkpt><trkpt lat="45.51478434770234" lon="11.160965942736237"><ele>314.0</ele><time>2026-03-28T14:28:08Z</time></trkpt><trkpt lat="45.51461251182804" lon="11.160998110175163"><ele>314.0</ele><time>2026-03-28T14:28:09Z</time></trkpt><trkpt lat="45.51443978187786" lon="11.16102378588671"><ele>313.0</ele><time>2026-03-28T14:28:10Z</time></trkpt><trkpt lat="45.51423774763733" lon="11.161063106356773"><ele>312.0</ele><time>2026-03-28T14:28:11Z</time></trkpt><trkpt lat="45.513998403172245" lon="11.161115041570467"><ele>311.0</ele><time>2026-03-28T14:28:12Z</time></trkpt><trkpt lat="45.51373442696895" lon="11.161186382611044"><ele>309.0</ele><time>2026-03-28T14:28:13Z</time></trkpt><trkpt lat="45.513486935763936" lon="11.161245380985978"><ele>307.0</ele><time>2026-03-28T14:28:14Z</time></trkpt><trkpt lat="45.513276118887674" lon="11.161307236200733"><ele>307.0</ele><time>2026-03-28T14:28:15Z</time></trkpt><trkpt lat="45.513082649718605" lon="11.161369439736044"><ele>307.0</ele><time>2026-03-28T14:28:16Z</time></trkpt><trkpt lat="45.512899519405536" lon="11.161425620682126"><ele>307.0</ele><time>2026-03-28T14:28:17Z</time></trkpt><trkpt lat="45.51271416126697" lon="11.161483048245714"><ele>307.0</ele><time>2026-03-28T14:28:18Z</time></trkpt><trkpt lat="45.512531490489366" lon="11.161544397921412"><ele>307.0</ele><time>2026-03-28T14:28:19Z</time></trkpt><trkpt lat="45.5123398194726" lon="11.161610261280961"><ele>307.0</ele><time>2026-03-28T14:28:20Z</time></trkpt><trkpt lat="45.51214376437189" lon="11.161674282853387"><ele>306.0</ele><time>2026-03-28T14:28:21Z</time></trkpt><trkpt lat="45.511957844907165" lon="11.16173742848151"><ele>305.0</ele><time>2026-03-28T14:28:22Z</time></trkpt><trkpt lat="45.511766832464616" lon="11.161802695120997"><ele>304.0</ele><time>2026-03-28T14:28:23Z</time></trkpt><trkpt lat="45.51157674454374" lon="11.161866199041691"><ele>304.0</ele><time>2026-03-28T14:28:24Z</time></trkpt><trkpt lat="45.5113797934774" lon="11.161927177467957"><ele>304.0</ele><time>2026-03-28T14:28:25Z</time></trkpt><trkpt lat="45.51119140877296" lon="11.161985435733977"><ele>304.0</ele><time>2026-03-28T14:28:26Z</time></trkpt><trkpt lat="45.51100125387227" lon="11.162042574268874"><ele>302.66666666666663</ele><time>2026-03-28T14:28:27Z</time></trkpt><trkpt lat="45.51080404801225" lon="11.162102867093479"><ele>301.3333333333333</ele><time>2026-03-28T14:28:28Z</time></trkpt><trkpt lat="45.51061411249886" lon="11.162167199402191"><ele>300.0</ele><time>2026-03-28T14:28:29Z</time></trkpt><trkpt lat="45.51042782646398" lon="11.162225428425185"><ele>299.6666666666667</ele><time>2026-03-28T14:28:30Z</time></trkpt><trkpt lat="45.510235060991874" lon="11.1622629295504"><ele>299.33333333333337</ele><time>2026-03-28T14:28:31Z</time></trkpt><trkpt lat="45.51004089053196" lon="11.16232200078889"><ele>299.0</ele><time>2026-03-28T14:28:32Z</time></trkpt><trkpt lat="45.50984834085185" lon="11.162404337851678"><ele>299.0</ele><time>2026-03-28T14:28:33Z</time></trkpt><trkpt lat="45.50965720389169" lon="11.162450447309851"><ele>299.0</ele><time>2026-03-28T14:28:34Z</time></trkpt><trkpt lat="45.509469173370114" lon="11.162505831516036"><ele>299.0</ele><time>2026-03-28T14:28:35Z</time></trkpt><trkpt lat="45.50927526361572" lon="11.162566079337942"><ele>298.33333333333337</ele><time>2026-03-28T14:28:36Z</time></trkpt><trkpt lat="45.509082174998525" lon="11.162629724610943"><ele>297.6666666666667</ele><time>2026-03-28T14:28:37Z</time></trkpt><trkpt lat="45.50889436557789" lon="11.162688656976295"><ele>297.0</ele><time>2026-03-28T14:28:38Z</time></trkpt><trkpt lat="45.508694874235" lon="11.162748021824967"><ele>295.6666666666667</ele><time>2026-03-28T14:28:39Z</time></trkpt><trkpt lat="45.508479703169755" lon="11.162809881971414"><ele>294.33333333333337</ele><time>2026-03-28T14:28:40Z</time></trkpt><trkpt lat="45.50826457151551" lon="11.16287468287579"><ele>293.0</ele><time>2026-03-28T14:28:41Z</time></trkpt><trkpt lat="45.50805137059247" lon="11.162941607985319"><ele>292.33333333333337</ele><time>2026-03-28T14:28:42Z</time></trkpt><trkpt lat="45.50786358630105" lon="11.163006129148101"><ele>291.6666666666667</ele><time>2026-03-28T14:28:43Z</time></trkpt><trkpt lat="45.50768134430835" lon="11.163059632610196"><ele>291.0</ele><time>2026-03-28T14:28:44Z</time></trkpt><trkpt lat="45.507498034951766" lon="11.16311698460216"><ele>291.0</ele><time>2026-03-28T14:28:45Z</time></trkpt><trkpt lat="45.50730011866679" lon="11.163170668994749"><ele>291.0</ele><time>2026-03-28T14:28:46Z</time></trkpt><trkpt lat="45.507111484623174" lon="11.163223456078239"><ele>291.0</ele><time>2026-03-28T14:28:47Z</time></trkpt><trkpt lat="45.506913029479875" lon="11.163277990576749"><ele>290.6666666666667</ele><time>2026-03-28T14:28:48Z</time></trkpt><trkpt lat="45.50671958570781" lon="11.163337293081291"><ele>290.33333333333337</ele><time>2026-03-28T14:28:49Z</time></trkpt><trkpt lat="45.50652772977062" lon="11.163393192324545"><ele>290.0</ele><time>2026-03-28T14:28:50Z</time></trkpt><trkpt lat="45.506335103117706" lon="11.16344795522015"><ele>288.33333333333337</ele><time>2026-03-28T14:28:51Z</time></trkpt><trkpt lat="45.506145266799884" lon="11.163504953326147"><ele>286.6666666666667</ele><time>2026-03-28T14:28:52Z</time></trkpt><trkpt lat="45.505951763073156" lon="11.163558796850069"><ele>285.0</ele><time>2026-03-28T14:28:53Z</time></trkpt><trkpt lat="45.50577480180735" lon="11.163610212364796"><ele>285.0</ele><time>2026-03-28T14:28:54Z</time></trkpt><trkpt lat="45.50560976459679" lon="11.163672264648286"><ele>285.0</ele><time>2026-03-28T14:28:55Z</time></trkpt><trkpt lat="45.50545865813359" lon="11.163751090412871"><ele>285.0</ele><time>2026-03-28T14:28:56Z</time></trkpt><trkpt lat="45.50530390123341" lon="11.163859644338592"><ele>285.0</ele><time>2026-03-28T14:28:57Z</time></trkpt><trkpt lat="45.50514761360536" lon="11.163992121829835"><ele>285.0</ele><time>2026-03-28T14:28:58Z</time></trkpt><trkpt lat="45.505001429536605" lon="11.16413643524329"><ele>285.0</ele><time>2026-03-28T14:28:59Z</time></trkpt><trkpt lat="45.50484919869331" lon="11.16428843597547"><ele>285.0</ele><time>2026-03-28T14:29:00Z</time></trkpt><trkpt lat="45.50469636157537" lon="11.164435645403167"><ele>285.0</ele><time>2026-03-28T14:29:01Z</time></trkpt><trkpt lat="45.504548198145514" lon="11.16459362240822"><ele>285.0</ele><time>2026-03-28T14:29:01.999Z</time></trkpt><trkpt lat="45.504412855922226" lon="11.16477263803565"><ele>284.0</ele><time>2026-03-28T14:29:02.999Z</time></trkpt><trkpt lat="45.50427169965548" lon="11.16499084002813"><ele>283.0</ele><time>2026-03-28T14:29:03.999Z</time></trkpt><trkpt lat="45.504145560805306" lon="11.165225378846015"><ele>282.0</ele><time>2026-03-28T14:29:04.999Z</time></trkpt><trkpt lat="45.50401931302698" lon="11.165469968097948"><ele>282.3333333333333</ele><time>2026-03-28T14:29:05.999Z</time></trkpt><trkpt lat="45.503893580828866" lon="11.165711564723594"><ele>282.66666666666663</ele><time>2026-03-28T14:29:06.999Z</time></trkpt><trkpt lat="45.5037648437979" lon="11.165943953392137"><ele>283.0</ele><time>2026-03-28T14:29:07.999Z</time></trkpt><trkpt lat="45.50364057709679" lon="11.166172333224704"><ele>281.3333333333333</ele><time>2026-03-28T14:29:08.999Z</time></trkpt><trkpt lat="45.503520519322024" lon="11.166391237315512"><ele>279.6666666666667</ele><time>2026-03-28T14:29:09.999Z</time></trkpt><trkpt lat="45.50340272172366" lon="11.166610270945569"><ele>278.0</ele><time>2026-03-28T14:29:10.999Z</time></trkpt><trkpt lat="45.50329014364526" lon="11.166814600976462"><ele>278.0</ele><time>2026-03-28T14:29:11.999Z</time></trkpt><trkpt lat="45.5031767282167" lon="11.16702199852011"><ele>278.0</ele><time>2026-03-28T14:29:12.999Z</time></trkpt><trkpt lat="45.50306566460209" lon="11.167229359334781"><ele>278.0</ele><time>2026-03-28T14:29:13.999Z</time></trkpt><trkpt lat="45.50295670165334" lon="11.167443383687361"><ele>277.33333333333337</ele><time>2026-03-28T14:29:14.999Z</time></trkpt><trkpt lat="45.50284909264322" lon="11.167648300137978"><ele>276.6666666666667</ele><time>2026-03-28T14:29:15.999Z</time></trkpt><trkpt lat="45.502735810221054" lon="11.167859443041898"><ele>276.0</ele><time>2026-03-28T14:29:16.999Z</time></trkpt><trkpt lat="45.50261727138927" lon="11.168066051564875"><ele>275.6666666666667</ele><time>2026-03-28T14:29:17.999Z</time></trkpt><trkpt lat="45.502505004713996" lon="11.16826649109914"><ele>275.33333333333337</ele><time>2026-03-28T14:29:18.999Z</time></trkpt><trkpt lat="45.50238264155745" lon="11.168480816850744"><ele>275.0</ele><time>2026-03-28T14:29:19.999Z</time></trkpt><trkpt lat="45.50225071475757" lon="11.168678469190723"><ele>275.0</ele><time>2026-03-28T14:29:20.999Z</time></trkpt><trkpt lat="45.50210408255639" lon="11.16887328891983"><ele>275.0</ele><time>2026-03-28T14:29:21.999Z</time></trkpt><trkpt lat="45.50194949912563" lon="11.169036322511946"><ele>275.0</ele><time>2026-03-28T14:29:22.999Z</time></trkpt><trkpt lat="45.501790337950204" lon="11.169186466793683"><ele>274.0</ele><time>2026-03-28T14:29:23.999Z</time></trkpt><trkpt lat="45.50162537941549" lon="11.169330723023213"><ele>273.0</ele><time>2026-03-28T14:29:24.999Z</time></trkpt><trkpt lat="45.50146392135785" lon="11.169470645809113"><ele>272.0</ele><time>2026-03-28T14:29:25.999Z</time></trkpt><trkpt lat="45.50131057453505" lon="11.169599116855943"><ele>271.0</ele><time>2026-03-28T14:29:26.999Z</time></trkpt><trkpt lat="45.50115840585999" lon="11.169719591518142"><ele>270.0</ele><time>2026-03-28T14:29:27.999Z</time></trkpt><trkpt lat="45.501009986248846" lon="11.169835294763859"><ele>269.0</ele><time>2026-03-28T14:29:28.999Z</time></trkpt><trkpt lat="45.50086512882258" lon="11.169952947840915"><ele>269.0</ele><time>2026-03-28T14:29:29.999Z</time></trkpt><trkpt lat="45.500720071287596" lon="11.170061935831315"><ele>269.0</ele><time>2026-03-28T14:29:30.999Z</time></trkpt><trkpt lat="45.500575629223654" lon="11.170183978830721"><ele>269.0</ele><time>2026-03-28T14:29:31.999Z</time></trkpt><trkpt lat="45.50042012557868" lon="11.170309908891639"><ele>268.33333333333337</ele><time>2026-03-28T14:29:32.999Z</time></trkpt><trkpt lat="45.500263346548365" lon="11.170431889973631"><ele>267.6666666666667</ele><time>2026-03-28T14:29:33.999Z</time></trkpt><trkpt lat="45.500092947756926" lon="11.170567256305853"><ele>267.0</ele><time>2026-03-28T14:29:34.999Z</time></trkpt><trkpt lat="45.49992816401348" lon="11.170693491357534"><ele>266.6666666666667</ele><time>2026-03-28T14:29:35.999Z</time></trkpt><trkpt lat="45.499776712675796" lon="11.17082347256818"><ele>266.33333333333337</ele><time>2026-03-28T14:29:36.999Z</time></trkpt><trkpt lat="45.49961644158145" lon="11.170964031606706"><ele>266.0</ele><time>2026-03-28T14:29:37.999Z</time></trkpt><trkpt lat="45.49945226751503" lon="11.171054234720424"><ele>265.33333333333337</ele><time>2026-03-28T14:29:38.999Z</time></trkpt><trkpt lat="45.49929714439689" lon="11.17117682179605"><ele>264.6666666666667</ele><time>2026-03-28T14:29:39.999Z</time></trkpt><trkpt lat="45.499148343159526" lon="11.171322099504644"><ele>264.0</ele><time>2026-03-28T14:29:40.999Z</time></trkpt><trkpt lat="45.49900133714274" lon="11.17143440669771"><ele>263.6666666666667</ele><time>2026-03-28T14:29:41.999Z</time></trkpt><trkpt lat="45.49884989753438" lon="11.171558839678543"><ele>263.33333333333337</ele><time>2026-03-28T14:29:42.999Z</time></trkpt><trkpt lat="45.49868211976672" lon="11.171667020646797"><ele>263.0</ele><time>2026-03-28T14:29:43.999Z</time></trkpt><trkpt lat="45.498534720664814" lon="11.17181051764497"><ele>262.0</ele><time>2026-03-28T14:29:44.999Z</time></trkpt><trkpt lat="45.49838401408323" lon="11.171925066591399"><ele>261.0</ele><time>2026-03-28T14:29:45.999Z</time></trkpt><trkpt lat="45.498227539494586" lon="11.172048171802327"><ele>260.0</ele><time>2026-03-28T14:29:46.999Z</time></trkpt><trkpt lat="45.498062154077395" lon="11.172184038611507"><ele>259.33333333333337</ele><time>2026-03-28T14:29:47.999Z</time></trkpt><trkpt lat="45.49790496079685" lon="11.172312527998454"><ele>258.6666666666667</ele><time>2026-03-28T14:29:48.999Z</time></trkpt><trkpt lat="45.497746497874644" lon="11.172439492120427"><ele>258.0</ele><time>2026-03-28T14:29:49.999Z</time></trkpt><trkpt lat="45.49758210547038" lon="11.172563119886176"><ele>258.0</ele><time>2026-03-28T14:29:50.999Z</time></trkpt><trkpt lat="45.49742692493879" lon="11.172684510955756"><ele>258.0</ele><time>2026-03-28T14:29:51.999Z</time></trkpt><trkpt lat="45.49726500770013" lon="11.172811966685657"><ele>258.0</ele><time>2026-03-28T14:29:52.999Z</time></trkpt><trkpt lat="45.49710162503968" lon="11.172944596128222"><ele>257.0</ele><time>2026-03-28T14:29:53.999Z</time></trkpt><trkpt lat="45.49694413642869" lon="11.173073193246028"><ele>256.0</ele><time>2026-03-28T14:29:54.999Z</time></trkpt><trkpt lat="45.49678898708711" lon="11.17319828015554"><ele>255.0</ele><time>2026-03-28T14:29:55.999Z</time></trkpt><trkpt lat="45.49662940979945" lon="11.173322658531006"><ele>255.0</ele><time>2026-03-28T14:29:56.999Z</time></trkpt><trkpt lat="45.49647610667718" lon="11.17344484403189"><ele>255.0</ele><time>2026-03-28T14:29:57.999Z</time></trkpt><trkpt lat="45.49631321395359" lon="11.173571670767473"><ele>255.0</ele><time>2026-03-28T14:29:58.999Z</time></trkpt><trkpt lat="45.49615864214725" lon="11.173696991559703"><ele>254.33333333333331</ele><time>2026-03-28T14:29:59.999Z</time></trkpt><trkpt lat="45.4959939403575" lon="11.173824239338312"><ele>253.66666666666666</ele><time>2026-03-28T14:30:00.999Z</time></trkpt><trkpt lat="45.49583783614404" lon="11.173949703196998"><ele>253.0</ele><time>2026-03-28T14:30:02Z</time></trkpt><trkpt lat="45.4956807569396" lon="11.174073832928006"><ele>252.66666666666666</ele><time>2026-03-28T14:30:03Z</time></trkpt><trkpt lat="45.49552441842918" lon="11.174198762232447"><ele>252.33333333333331</ele><time>2026-03-28T14:30:04Z</time></trkpt><trkpt lat="45.49535897236386" lon="11.17432249609087"><ele>252.0</ele><time>2026-03-28T14:30:05Z</time></trkpt><trkpt lat="45.49520271291689" lon="11.174442915383812"><ele>250.66666666666669</ele><time>2026-03-28T14:30:06Z</time></trkpt><trkpt lat="45.49504170353876" lon="11.174559528634118"><ele>249.33333333333334</ele><time>2026-03-28T14:30:07Z</time></trkpt><trkpt lat="45.49488134655502" lon="11.174667813722428"><ele>248.0</ele><time>2026-03-28T14:30:08Z</time></trkpt><trkpt lat="45.49470474383277" lon="11.174759631043928"><ele>248.0</ele><time>2026-03-28T14:30:09Z</time></trkpt><trkpt lat="45.49453304164917" lon="11.1748372646009"><ele>248.0</ele><time>2026-03-28T14:30:10Z</time></trkpt><trkpt lat="45.494355196648286" lon="11.174902094711317"><ele>248.0</ele><time>2026-03-28T14:30:11Z</time></trkpt><trkpt lat="45.494182672346795" lon="11.174955945666737"><ele>247.0</ele><time>2026-03-28T14:30:12Z</time></trkpt><trkpt lat="45.49400797470942" lon="11.175021620682154"><ele>246.0</ele><time>2026-03-28T14:30:13Z</time></trkpt><trkpt lat="45.49384735581503" lon="11.175078370126617"><ele>245.0</ele><time>2026-03-28T14:30:14Z</time></trkpt><trkpt lat="45.493699993985814" lon="11.175126895008884"><ele>244.75</ele><time>2026-03-28T14:30:15Z</time></trkpt><trkpt lat="45.493555720820936" lon="11.175167027612808"><ele>244.5</ele><time>2026-03-28T14:30:16Z</time></trkpt><trkpt lat="45.49342271287968" lon="11.175198631568337"><ele>244.25</ele><time>2026-03-28T14:30:17Z</time></trkpt><trkpt lat="45.49329256906045" lon="11.175230792556505"><ele>244.0</ele><time>2026-03-28T14:30:18Z</time></trkpt><trkpt lat="45.49316375970729" lon="11.175263962267707"><ele>244.0</ele><time>2026-03-28T14:30:19Z</time></trkpt><trkpt lat="45.493028649646405" lon="11.175298318875898"><ele>244.0</ele><time>2026-03-28T14:30:20Z</time></trkpt><trkpt lat="45.49288794658046" lon="11.175337394051782"><ele>244.0</ele><time>2026-03-28T14:30:21Z</time></trkpt><trkpt lat="45.49274515461385" lon="11.175372725860438"><ele>244.0</ele><time>2026-03-28T14:30:22Z</time></trkpt><trkpt lat="45.49260205046533" lon="11.175404899265411"><ele>243.66666666666666</ele><time>2026-03-28T14:30:23Z</time></trkpt><trkpt lat="45.49244892799078" lon="11.175429351412761"><ele>243.33333333333331</ele><time>2026-03-28T14:30:24Z</time></trkpt><trkpt lat="45.49229912328622" lon="11.17544013206106"><ele>243.0</ele><time>2026-03-28T14:30:25Z</time></trkpt><trkpt lat="45.49213410828298" lon="11.175433116512487"><ele>242.0</ele><time>2026-03-28T14:30:26Z</time></trkpt><trkpt lat="45.49196907298938" lon="11.175412621048512"><ele>241.0</ele><time>2026-03-28T14:30:27Z</time></trkpt><trkpt lat="45.49179609076006" lon="11.175380517759946"><ele>240.0</ele><time>2026-03-28T14:30:28Z</time></trkpt><trkpt lat="45.49163410684185" lon="11.175330350265515"><ele>240.0</ele><time>2026-03-28T14:30:29Z</time></trkpt><trkpt lat="45.49147160849865" lon="11.175280685382308"><ele>240.0</ele><time>2026-03-28T14:30:30Z</time></trkpt><trkpt lat="45.491302725450836" lon="11.17522867852922"><ele>240.0</ele><time>2026-03-28T14:30:31Z</time></trkpt><trkpt lat="45.491141412316274" lon="11.175186557152166"><ele>239.0</ele><time>2026-03-28T14:30:32Z</time></trkpt><trkpt lat="45.49098251596823" lon="11.175158445131762"><ele>238.0</ele><time>2026-03-28T14:30:33Z</time></trkpt><trkpt lat="45.49081380447861" lon="11.17514203896133"><ele>237.0</ele><time>2026-03-28T14:30:34Z</time></trkpt><trkpt lat="45.49064634625664" lon="11.175164160834424"><ele>237.0</ele><time>2026-03-28T14:30:35Z</time></trkpt><trkpt lat="45.490484750879105" lon="11.17520887594197"><ele>237.0</ele><time>2026-03-28T14:30:36Z</time></trkpt><trkpt lat="45.49032270430281" lon="11.175265850567355"><ele>237.0</ele><time>2026-03-28T14:30:37Z</time></trkpt><trkpt lat="45.490166699740094" lon="11.175331638504588"><ele>236.33333333333331</ele><time>2026-03-28T14:30:38Z</time></trkpt><trkpt lat="45.49001968919721" lon="11.175397827081824"><ele>235.66666666666666</ele><time>2026-03-28T14:30:39Z</time></trkpt><trkpt lat="45.48986876595455" lon="11.175465577059956"><ele>235.0</ele><time>2026-03-28T14:30:40Z</time></trkpt><trkpt lat="45.489716801141185" lon="11.175529451437427"><ele>234.33333333333331</ele><time>2026-03-28T14:30:41Z</time></trkpt><trkpt lat="45.48955927652886" lon="11.175596085101013"><ele>233.66666666666669</ele><time>2026-03-28T14:30:42Z</time></trkpt><trkpt lat="45.48940765992064" lon="11.17566312528351"><ele>233.0</ele><time>2026-03-28T14:30:43Z</time></trkpt><trkpt lat="45.48925430526657" lon="11.175719368832286"><ele>233.0</ele><time>2026-03-28T14:30:44Z</time></trkpt><trkpt lat="45.488938966624296" lon="11.175851826013986"><ele>233.0</ele><time>2026-03-28T14:30:46Z</time></trkpt><trkpt lat="45.48879658176919" lon="11.175912895882917"><ele>232.0</ele><time>2026-03-28T14:30:47Z</time></trkpt><trkpt lat="45.488651636912074" lon="11.17597548809477"><ele>231.0</ele><time>2026-03-28T14:30:48Z</time></trkpt><trkpt lat="45.488506102236954" lon="11.17603851201806"><ele>230.0</ele><time>2026-03-28T14:30:49Z</time></trkpt><trkpt lat="45.488361899097754" lon="11.176096866163627"><ele>230.0</ele><time>2026-03-28T14:30:50Z</time></trkpt><trkpt lat="45.488218212807766" lon="11.176154196125553"><ele>230.0</ele><time>2026-03-28T14:30:51Z</time></trkpt><trkpt lat="45.488078085687505" lon="11.17620718632572"><ele>230.0</ele><time>2026-03-28T14:30:52Z</time></trkpt><trkpt lat="45.4879389141721" lon="11.176264818462057"><ele>230.0</ele><time>2026-03-28T14:30:53Z</time></trkpt><trkpt lat="45.48780138068348" lon="11.176327400202819"><ele>229.5</ele><time>2026-03-28T14:30:54Z</time></trkpt><trkpt lat="45.48766630680559" lon="11.176392501975922"><ele>229.0</ele><time>2026-03-28T14:30:55Z</time></trkpt><trkpt lat="45.48752917966133" lon="11.17645026992014"><ele>228.5</ele><time>2026-03-28T14:30:56Z</time></trkpt><trkpt lat="45.4873965476691" lon="11.176505952129855"><ele>228.0</ele><time>2026-03-28T14:30:57Z</time></trkpt><trkpt lat="45.48725380894436" lon="11.176556327139659"><ele>227.75</ele><time>2026-03-28T14:30:58Z</time></trkpt><trkpt lat="45.48711383318781" lon="11.17661523205589"><ele>227.5</ele><time>2026-03-28T14:30:59Z</time></trkpt><trkpt lat="45.486973777985924" lon="11.176677454947898"><ele>227.25</ele><time>2026-03-28T14:31:00Z</time></trkpt><trkpt lat="45.48683638918671" lon="11.176730366113105"><ele>227.0</ele><time>2026-03-28T14:31:01Z</time></trkpt><trkpt lat="45.48669452553529" lon="11.176778148315941"><ele>226.25</ele><time>2026-03-28T14:31:02Z</time></trkpt><trkpt lat="45.4865551989523" lon="11.176820452852754"><ele>225.5</ele><time>2026-03-28T14:31:03Z</time></trkpt><trkpt lat="45.48641236998689" lon="11.176855350017995"><ele>224.75</ele><time>2026-03-28T14:31:04Z</time></trkpt><trkpt lat="45.48626956222295" lon="11.176880977797365"><ele>224.0</ele><time>2026-03-28T14:31:05Z</time></trkpt><trkpt lat="45.486123622230835" lon="11.17690778278406"><ele>223.25</ele><time>2026-03-28T14:31:06Z</time></trkpt><trkpt lat="45.48598312313841" lon="11.176944225197992"><ele>222.5</ele><time>2026-03-28T14:31:07Z</time></trkpt><trkpt lat="45.485840401982685" lon="11.176971721405563"><ele>221.75</ele><time>2026-03-28T14:31:07.999Z</time></trkpt><trkpt lat="45.48569673664726" lon="11.177001799690355"><ele>221.0</ele><time>2026-03-28T14:31:08.999Z</time></trkpt><trkpt lat="45.485553132187185" lon="11.177032939452834"><ele>220.75</ele><time>2026-03-28T14:31:09.999Z</time></trkpt><trkpt lat="45.48540930228313" lon="11.177063735000438"><ele>220.5</ele><time>2026-03-28T14:31:10.999Z</time></trkpt><trkpt lat="45.48526430144687" lon="11.177095465962609"><ele>220.25</ele><time>2026-03-28T14:31:11.999Z</time></trkpt><trkpt lat="45.48512056978318" lon="11.177124927282824"><ele>220.0</ele><time>2026-03-28T14:31:12.999Z</time></trkpt><trkpt lat="45.48498158830853" lon="11.177155353259415"><ele>220.0</ele><time>2026-03-28T14:31:13.999Z</time></trkpt><trkpt lat="45.4848317194916" lon="11.177187851828766"><ele>220.0</ele><time>2026-03-28T14:31:14.999Z</time></trkpt><trkpt lat="45.48468923169177" lon="11.177221240303217"><ele>220.0</ele><time>2026-03-28T14:31:15.999Z</time></trkpt><trkpt lat="45.48455442892723" lon="11.177251687764805"><ele>220.0</ele><time>2026-03-28T14:31:16.999Z</time></trkpt><trkpt lat="45.48442906390377" lon="11.177280806713407"><ele>219.25</ele><time>2026-03-28T14:31:17.999Z</time></trkpt><trkpt lat="45.48430560188991" lon="11.177312668263284"><ele>218.5</ele><time>2026-03-28T14:31:18.999Z</time></trkpt><trkpt lat="45.48419427735455" lon="11.17733790030089"><ele>217.75</ele><time>2026-03-28T14:31:19.999Z</time></trkpt><trkpt lat="45.484087035977836" lon="11.177378775812555"><ele>217.0</ele><time>2026-03-28T14:31:20.999Z</time></trkpt><trkpt lat="45.483979947570404" lon="11.177409263268057"><ele>216.99999999999997</ele><time>2026-03-28T14:31:21.999Z</time></trkpt><trkpt lat="45.48388944585247" lon="11.177442469674359"><ele>217.0</ele><time>2026-03-28T14:31:22.999Z</time></trkpt><trkpt lat="45.48381216282386" lon="11.177468930513733"><ele>217.0</ele><time>2026-03-28T14:31:23.999Z</time></trkpt><trkpt lat="45.483741346151746" lon="11.177492539961557"><ele>217.0</ele><time>2026-03-28T14:31:24.999Z</time></trkpt><trkpt lat="45.48366563666825" lon="11.177513619589963"><ele>216.99999999999997</ele><time>2026-03-28T14:31:25.999Z</time></trkpt><trkpt lat="45.48358206263484" lon="11.177535931502305"><ele>217.0</ele><time>2026-03-28T14:31:26.999Z</time></trkpt><trkpt lat="45.48349744992171" lon="11.17754412733567"><ele>216.6</ele><time>2026-03-28T14:31:27.999Z</time></trkpt><trkpt lat="45.48341088684825" lon="11.177563861968384"><ele>216.2</ele><time>2026-03-28T14:31:28.999Z</time></trkpt><trkpt lat="45.483313622164914" lon="11.177590464457419"><ele>215.8</ele><time>2026-03-28T14:31:29.999Z</time></trkpt><trkpt lat="45.483209653759054" lon="11.17762090775292"><ele>215.4</ele><time>2026-03-28T14:31:30.999Z</time></trkpt><trkpt lat="45.48309414897498" lon="11.177646542750216"><ele>215.0</ele><time>2026-03-28T14:31:31.999Z</time></trkpt><trkpt lat="45.482978452145325" lon="11.177667672332781"><ele>214.4</ele><time>2026-03-28T14:31:32.999Z</time></trkpt><trkpt lat="45.48286964669775" lon="11.177683670451454"><ele>213.8</ele><time>2026-03-28T14:31:33.999Z</time></trkpt><trkpt lat="45.48276670976098" lon="11.17770201877822"><ele>213.2</ele><time>2026-03-28T14:31:34.999Z</time></trkpt><trkpt lat="45.48267553335287" lon="11.177718544357123"><ele>212.6</ele><time>2026-03-28T14:31:35.999Z</time></trkpt><trkpt lat="45.482569214532596" lon="11.177743848538697"><ele>212.0</ele><time>2026-03-28T14:31:36.999Z</time></trkpt><trkpt lat="45.48242543646504" lon="11.177768998799532"><ele>212.0</ele><time>2026-03-28T14:31:37.999Z</time></trkpt><trkpt lat="45.482286458802385" lon="11.177789719840657"><ele>212.0</ele><time>2026-03-28T14:31:38.999Z</time></trkpt><trkpt lat="45.482156113198776" lon="11.177806381168121"><ele>212.0</ele><time>2026-03-28T14:31:39.999Z</time></trkpt><trkpt lat="45.48202056602887" lon="11.177827557105914"><ele>212.0</ele><time>2026-03-28T14:31:40.999Z</time></trkpt><trkpt lat="45.48189134182911" lon="11.177841127627504"><ele>211.33333333333334</ele><time>2026-03-28T14:31:41.999Z</time></trkpt><trkpt lat="45.48175616772938" lon="11.177862199118723"><ele>210.66666666666669</ele><time>2026-03-28T14:31:42.999Z</time></trkpt><trkpt lat="45.481594450324216" lon="11.177877090924902"><ele>210.0</ele><time>2026-03-28T14:31:43.999Z</time></trkpt><trkpt lat="45.48142963356352" lon="11.177898749042216"><ele>210.0</ele><time>2026-03-28T14:31:44.999Z</time></trkpt><trkpt lat="45.481282950411064" lon="11.177907296519663"><ele>210.0</ele><time>2026-03-28T14:31:45.999Z</time></trkpt><trkpt lat="45.48113316602967" lon="11.177927647902685"><ele>210.0</ele><time>2026-03-28T14:31:46.999Z</time></trkpt><trkpt lat="45.48098740980782" lon="11.17795781247638"><ele>210.0</ele><time>2026-03-28T14:31:47.999Z</time></trkpt><trkpt lat="45.480838630618685" lon="11.178003812765658"><ele>209.33333333333331</ele><time>2026-03-28T14:31:48.999Z</time></trkpt><trkpt lat="45.480692519423656" lon="11.178058059308361"><ele>208.66666666666666</ele><time>2026-03-28T14:31:49.999Z</time></trkpt><trkpt lat="45.48054055449105" lon="11.178137817479726"><ele>208.0</ele><time>2026-03-28T14:31:50.999Z</time></trkpt><trkpt lat="45.48039861247331" lon="11.178241878250637"><ele>206.0</ele><time>2026-03-28T14:31:51.999Z</time></trkpt><trkpt lat="45.48027390178212" lon="11.178367943952003"><ele>204.0</ele><time>2026-03-28T14:31:52.999Z</time></trkpt><trkpt lat="45.48013722554" lon="11.178509882355609"><ele>202.0</ele><time>2026-03-28T14:31:53.999Z</time></trkpt><trkpt lat="45.47999582167018" lon="11.178640658975665"><ele>202.0</ele><time>2026-03-28T14:31:54.999Z</time></trkpt><trkpt lat="45.479852941911794" lon="11.178772913973708"><ele>202.0</ele><time>2026-03-28T14:31:55.999Z</time></trkpt><trkpt lat="45.4797098847372" lon="11.17890548856039"><ele>202.0</ele><time>2026-03-28T14:31:56.999Z</time></trkpt><trkpt lat="45.47957471105893" lon="11.179027736961984"><ele>201.33333333333331</ele><time>2026-03-28T14:31:57.999Z</time></trkpt><trkpt lat="45.47945161629673" lon="11.179147705575511"><ele>200.66666666666669</ele><time>2026-03-28T14:31:58.999Z</time></trkpt><trkpt lat="45.47931783843141" lon="11.179248617967673"><ele>200.0</ele><time>2026-03-28T14:31:59.999Z</time></trkpt><trkpt lat="45.47915037674196" lon="11.179400328910303"><ele>200.0</ele><time>2026-03-28T14:32:00.999Z</time></trkpt><trkpt lat="45.478950892288225" lon="11.179580725223646"><ele>200.0</ele><time>2026-03-28T14:32:01.999Z</time></trkpt><trkpt lat="45.47873532055094" lon="11.179773540140149"><ele>199.0</ele><time>2026-03-28T14:32:02.999Z</time></trkpt><trkpt lat="45.47854015021906" lon="11.179943382545382"><ele>198.0</ele><time>2026-03-28T14:32:03.999Z</time></trkpt><trkpt lat="45.47837572141146" lon="11.180101564687895"><ele>197.0</ele><time>2026-03-28T14:32:04.999Z</time></trkpt><trkpt lat="45.47820390031521" lon="11.180220914515319"><ele>197.0</ele><time>2026-03-28T14:32:05.999Z</time></trkpt><trkpt lat="45.4780248230374" lon="11.180367756586461"><ele>197.0</ele><time>2026-03-28T14:32:06.999Z</time></trkpt><trkpt lat="45.47783451642476" lon="11.18051720915703"><ele>197.0</ele><time>2026-03-28T14:32:08Z</time></trkpt><trkpt lat="45.47763885761509" lon="11.180647969296768"><ele>196.33333333333334</ele><time>2026-03-28T14:32:09Z</time></trkpt><trkpt lat="45.47744014217927" lon="11.180742722649052"><ele>195.66666666666669</ele><time>2026-03-28T14:32:10Z</time></trkpt><trkpt lat="45.47725324437395" lon="11.180783725471757"><ele>195.0</ele><time>2026-03-28T14:32:11Z</time></trkpt><trkpt lat="45.47708849850297" lon="11.180816003377133"><ele>193.66666666666666</ele><time>2026-03-28T14:32:12Z</time></trkpt><trkpt lat="45.47692440373017" lon="11.180846301403827"><ele>192.33333333333331</ele><time>2026-03-28T14:32:13Z</time></trkpt><trkpt lat="45.476773622377166" lon="11.180874650545038"><ele>191.0</ele><time>2026-03-28T14:32:14Z</time></trkpt><trkpt lat="45.47663561735362" lon="11.180924329264037"><ele>191.0</ele><time>2026-03-28T14:32:15Z</time></trkpt><trkpt lat="45.47649542003916" lon="11.180946959638693"><ele>191.0</ele><time>2026-03-28T14:32:16Z</time></trkpt><trkpt lat="45.47636664509947" lon="11.180965801182143"><ele>191.0</ele><time>2026-03-28T14:32:17Z</time></trkpt><trkpt lat="45.47623062086626" lon="11.180982082806663"><ele>191.0</ele><time>2026-03-28T14:32:18Z</time></trkpt><trkpt lat="45.47609638727423" lon="11.18098726576065"><ele>190.5</ele><time>2026-03-28T14:32:19Z</time></trkpt><trkpt lat="45.4759670433265" lon="11.18098838659154"><ele>190.0</ele><time>2026-03-28T14:32:20Z</time></trkpt><trkpt lat="45.475823026108635" lon="11.180988366487597"><ele>189.5</ele><time>2026-03-28T14:32:21Z</time></trkpt><trkpt lat="45.47568119541764" lon="11.180987830037244"><ele>189.0</ele><time>2026-03-28T14:32:22Z</time></trkpt><trkpt lat="45.47554393224278" lon="11.180983892076346"><ele>188.25</ele><time>2026-03-28T14:32:23Z</time></trkpt><trkpt lat="45.47540465459858" lon="11.180979496394947"><ele>187.5</ele><time>2026-03-28T14:32:24Z</time></trkpt><trkpt lat="45.475269770489035" lon="11.180973430357183"><ele>186.75</ele><time>2026-03-28T14:32:25Z</time></trkpt><trkpt lat="45.475137981941835" lon="11.180968244189804"><ele>186.0</ele><time>2026-03-28T14:32:26Z</time></trkpt><trkpt lat="45.4750088498016" lon="11.180963843303712"><ele>186.0</ele><time>2026-03-28T14:32:27Z</time></trkpt><trkpt lat="45.47488464121001" lon="11.180957138451198"><ele>186.0</ele><time>2026-03-28T14:32:28Z</time></trkpt><trkpt lat="45.474761358376306" lon="11.180953732854434"><ele>186.0</ele><time>2026-03-28T14:32:29Z</time></trkpt><trkpt lat="45.474646258382705" lon="11.180948309349352"><ele>186.0</ele><time>2026-03-28T14:32:30Z</time></trkpt><trkpt lat="45.47453200779585" lon="11.180942182361838"><ele>185.75</ele><time>2026-03-28T14:32:31Z</time></trkpt><trkpt lat="45.47440970112169" lon="11.180939589195185"><ele>185.5</ele><time>2026-03-28T14:32:32Z</time></trkpt><trkpt lat="45.47428485911491" lon="11.180930775369193"><ele>185.25</ele><time>2026-03-28T14:32:33Z</time></trkpt><trkpt lat="45.47415717366197" lon="11.180924522793765"><ele>185.0</ele><time>2026-03-28T14:32:34Z</time></trkpt><trkpt lat="45.47403861220296" lon="11.180921140943585"><ele>185.0</ele><time>2026-03-28T14:32:35Z</time></trkpt><trkpt lat="45.473918926546894" lon="11.180911582738837"><ele>185.0</ele><time>2026-03-28T14:32:36Z</time></trkpt><trkpt lat="45.47380193077742" lon="11.180906743998897"><ele>185.0</ele><time>2026-03-28T14:32:37Z</time></trkpt><trkpt lat="45.47368664102376" lon="11.180901958435863"><ele>185.0</ele><time>2026-03-28T14:32:38Z</time></trkpt><trkpt lat="45.47357798696545" lon="11.1809038776068"><ele>184.6</ele><time>2026-03-28T14:32:39Z</time></trkpt><trkpt lat="45.47347363780874" lon="11.180907170099086"><ele>184.2</ele><time>2026-03-28T14:32:40Z</time></trkpt><trkpt lat="45.47337262211821" lon="11.180916585814318"><ele>183.8</ele><time>2026-03-28T14:32:41Z</time></trkpt><trkpt lat="45.47328966159945" lon="11.180921756466255"><ele>183.4</ele><time>2026-03-28T14:32:42Z</time></trkpt><trkpt lat="45.47318221931577" lon="11.180937897900261"><ele>183.0</ele><time>2026-03-28T14:32:43Z</time></trkpt><trkpt lat="45.47307766470456" lon="11.180943169679479"><ele>183.0</ele><time>2026-03-28T14:32:44Z</time></trkpt><trkpt lat="45.47297189338604" lon="11.180944517888113"><ele>183.0</ele><time>2026-03-28T14:32:45Z</time></trkpt><trkpt lat="45.47287180673373" lon="11.180949413165767"><ele>183.0</ele><time>2026-03-28T14:32:46Z</time></trkpt><trkpt lat="45.47276351447736" lon="11.180947001426304"><ele>183.0</ele><time>2026-03-28T14:32:47Z</time></trkpt><trkpt lat="45.47265654522428" lon="11.180937495634392"><ele>183.0</ele><time>2026-03-28T14:32:48Z</time></trkpt><trkpt lat="45.47254554517646" lon="11.180927636563073"><ele>182.4</ele><time>2026-03-28T14:32:49Z</time></trkpt><trkpt lat="45.47244117891181" lon="11.180899627177899"><ele>181.8</ele><time>2026-03-28T14:32:50Z</time></trkpt><trkpt lat="45.47233987462326" lon="11.180870635500987"><ele>181.2</ele><time>2026-03-28T14:32:51Z</time></trkpt><trkpt lat="45.4722437575222" lon="11.180838666636122"><ele>180.6</ele><time>2026-03-28T14:32:52Z</time></trkpt><trkpt lat="45.47213981808731" lon="11.180808056683427"><ele>180.0</ele><time>2026-03-28T14:32:53Z</time></trkpt><trkpt lat="45.472034578001164" lon="11.18077674586962"><ele>179.6</ele><time>2026-03-28T14:32:54Z</time></trkpt><trkpt lat="45.471929323217864" lon="11.180745135688772"><ele>179.2</ele><time>2026-03-28T14:32:55Z</time></trkpt><trkpt lat="45.4718243864032" lon="11.180714683630011"><ele>178.8</ele><time>2026-03-28T14:32:56Z</time></trkpt><trkpt lat="45.47171794155851" lon="11.180687661078247"><ele>178.4</ele><time>2026-03-28T14:32:57Z</time></trkpt><trkpt lat="45.471614165671895" lon="11.180651595546706"><ele>178.0</ele><time>2026-03-28T14:32:58Z</time></trkpt><trkpt lat="45.47151324484007" lon="11.180616284282976"><ele>178.0</ele><time>2026-03-28T14:32:59Z</time></trkpt><trkpt lat="45.47141300145384" lon="11.180585297427813"><ele>178.0</ele><time>2026-03-28T14:33:00Z</time></trkpt><trkpt lat="45.471306275227086" lon="11.180551867420705"><ele>178.0</ele><time>2026-03-28T14:33:01Z</time></trkpt><trkpt lat="45.47119827616978" lon="11.180519857980332"><ele>178.0</ele><time>2026-03-28T14:33:02Z</time></trkpt><trkpt lat="45.47109264162371" lon="11.180483700414458"><ele>178.0</ele><time>2026-03-28T14:33:03Z</time></trkpt><trkpt lat="45.470987387049426" lon="11.180449917263358"><ele>177.8</ele><time>2026-03-28T14:33:04Z</time></trkpt><trkpt lat="45.4708769741883" lon="11.180418631674224"><ele>177.60000000000002</ele><time>2026-03-28T14:33:05Z</time></trkpt><trkpt lat="45.470773113013266" lon="11.180386782356768"><ele>177.39999999999998</ele><time>2026-03-28T14:33:06Z</time></trkpt><trkpt lat="45.470669395165665" lon="11.180356859422892"><ele>177.2</ele><time>2026-03-28T14:33:07Z</time></trkpt><trkpt lat="45.47056563586948" lon="11.18032516899468"><ele>177.0</ele><time>2026-03-28T14:33:08Z</time></trkpt><trkpt lat="45.470458805668216" lon="11.180285240449612"><ele>176.6</ele><time>2026-03-28T14:33:09Z</time></trkpt><trkpt lat="45.47034838462912" lon="11.18025494022807"><ele>176.2</ele><time>2026-03-28T14:33:10Z</time></trkpt><trkpt lat="45.47024242888557" lon="11.180220377233322"><ele>175.8</ele><time>2026-03-28T14:33:11Z</time></trkpt><trkpt lat="45.47014127296865" lon="11.180191317231998"><ele>175.4</ele><time>2026-03-28T14:33:12Z</time></trkpt><trkpt lat="45.470050604418894" lon="11.180171880099097"><ele>175.0</ele><time>2026-03-28T14:33:13Z</time></trkpt><trkpt lat="45.46996674260402" lon="11.180136137490612"><ele>175.0</ele><time>2026-03-28T14:33:14Z</time></trkpt><trkpt lat="45.46988691773855" lon="11.180120582817707"><ele>175.0</ele><time>2026-03-28T14:33:14.999Z</time></trkpt><trkpt lat="45.469810682267905" lon="11.180094982545699"><ele>175.0</ele><time>2026-03-28T14:33:15.999Z</time></trkpt><trkpt lat="45.46973811203347" lon="11.18006893625597"><ele>175.0</ele><time>2026-03-28T14:33:16.999Z</time></trkpt><trkpt lat="45.469660747547834" lon="11.180052804122052"><ele>175.0</ele><time>2026-03-28T14:33:17.999Z</time></trkpt><trkpt lat="45.46957950722625" lon="11.180036164284838"><ele>175.0</ele><time>2026-03-28T14:33:18.999Z</time></trkpt><trkpt lat="45.46950251315766" lon="11.180020957045365"><ele>174.6</ele><time>2026-03-28T14:33:19.999Z</time></trkpt><trkpt lat="45.46940839039256" lon="11.180008140360924"><ele>174.2</ele><time>2026-03-28T14:33:20.999Z</time></trkpt><trkpt lat="45.469309053216826" lon="11.180000918061149"><ele>173.8</ele><time>2026-03-28T14:33:21.999Z</time></trkpt><trkpt lat="45.46920442723787" lon="11.180003923273398"><ele>173.4</ele><time>2026-03-28T14:33:22.999Z</time></trkpt><trkpt lat="45.469105654560764" lon="11.18000567262854"><ele>173.0</ele><time>2026-03-28T14:33:23.999Z</time></trkpt><trkpt lat="45.469003596722445" lon="11.18001543052807"><ele>173.0</ele><time>2026-03-28T14:33:24.999Z</time></trkpt><trkpt lat="45.46890086967973" lon="11.180031875141594"><ele>173.0</ele><time>2026-03-28T14:33:25.999Z</time></trkpt><trkpt lat="45.46879787085466" lon="11.180048347540927"><ele>173.0</ele><time>2026-03-28T14:33:26.999Z</time></trkpt><trkpt lat="45.468694710761056" lon="11.180062388335553"><ele>173.0</ele><time>2026-03-28T14:33:27.999Z</time></trkpt><trkpt lat="45.46860250976163" lon="11.180078608970298"><ele>173.0</ele><time>2026-03-28T14:33:28.999Z</time></trkpt><trkpt lat="45.46850702991835" lon="11.180091989271364"><ele>172.4</ele><time>2026-03-28T14:33:29.999Z</time></trkpt><trkpt lat="45.468415466253184" lon="11.18010739911442"><ele>171.8</ele><time>2026-03-28T14:33:30.999Z</time></trkpt><trkpt lat="45.468315921496995" lon="11.180114117969339"><ele>171.2</ele><time>2026-03-28T14:33:31.999Z</time></trkpt><trkpt lat="45.46821486033518" lon="11.180125749570461"><ele>170.6</ele><time>2026-03-28T14:33:32.999Z</time></trkpt><trkpt lat="45.46810506482808" lon="11.180141070620316"><ele>170.0</ele><time>2026-03-28T14:33:33.999Z</time></trkpt><trkpt lat="45.46800178608169" lon="11.180163605117436"><ele>169.4</ele><time>2026-03-28T14:33:34.999Z</time></trkpt><trkpt lat="45.46789691957022" lon="11.18016450258596"><ele>168.8</ele><time>2026-03-28T14:33:35.999Z</time></trkpt><trkpt lat="45.46778700030133" lon="11.180160838775349"><ele>168.2</ele><time>2026-03-28T14:33:36.999Z</time></trkpt><trkpt lat="45.46768355004581" lon="11.180129524752818"><ele>167.6</ele><time>2026-03-28T14:33:37.999Z</time></trkpt><trkpt lat="45.46756760538331" lon="11.180107743667415"><ele>167.0</ele><time>2026-03-28T14:33:38.999Z</time></trkpt><trkpt lat="45.467459525817205" lon="11.18007501395069"><ele>167.0</ele><time>2026-03-28T14:33:39.999Z</time></trkpt><trkpt lat="45.467360159854486" lon="11.180052470711304"><ele>167.0</ele><time>2026-03-28T14:33:40.999Z</time></trkpt><trkpt lat="45.46727250643721" lon="11.180028888330646"><ele>167.0</ele><time>2026-03-28T14:33:41.999Z</time></trkpt><trkpt lat="45.46719623481958" lon="11.179997090788298"><ele>167.0</ele><time>2026-03-28T14:33:42.999Z</time></trkpt><trkpt lat="45.4671263745584" lon="11.179967615923106"><ele>167.0</ele><time>2026-03-28T14:33:43.999Z</time></trkpt><trkpt lat="45.46701876778059" lon="11.179924970217469"><ele>166.66666666666666</ele><time>2026-03-28T14:33:45.999Z</time></trkpt><trkpt lat="45.46695449053362" lon="11.17989752524331"><ele>166.33333333333331</ele><time>2026-03-28T14:33:47.999Z</time></trkpt><trkpt lat="45.46689167538567" lon="11.179880072564078"><ele>166.0</ele><time>2026-03-28T14:33:50.999Z</time></trkpt><trkpt lat="45.466801024749465" lon="11.179856289973282"><ele>165.66666666666666</ele><time>2026-03-28T14:33:53.999Z</time></trkpt><trkpt lat="45.46670473082754" lon="11.179811085072519"><ele>165.33333333333334</ele><time>2026-03-28T14:34:19Z</time></trkpt><trkpt lat="45.46664240956597" lon="11.179789393028704"><ele>165.0</ele><time>2026-03-28T14:34:20Z</time></trkpt><trkpt lat="45.466557372772996" lon="11.179763008748296"><ele>164.8</ele><time>2026-03-28T14:34:21Z</time></trkpt><trkpt lat="45.46646332206609" lon="11.179741533997362"><ele>164.6</ele><time>2026-03-28T14:34:22Z</time></trkpt><trkpt lat="45.46635875492955" lon="11.179715487556571"><ele>164.39999999999998</ele><time>2026-03-28T14:34:23Z</time></trkpt><trkpt lat="45.466244156825766" lon="11.179687383834313"><ele>164.2</ele><time>2026-03-28T14:34:24Z</time></trkpt><trkpt lat="45.4661251498011" lon="11.17965416526378"><ele>164.0</ele><time>2026-03-28T14:34:25Z</time></trkpt><trkpt lat="45.46598737366531" lon="11.179615234448752"><ele>163.25</ele><time>2026-03-28T14:34:26Z</time></trkpt><trkpt lat="45.465853284430665" lon="11.179567611649102"><ele>162.5</ele><time>2026-03-28T14:34:27Z</time></trkpt><trkpt lat="45.46570795700628" lon="11.179525359086746"><ele>161.75</ele><time>2026-03-28T14:34:28Z</time></trkpt><trkpt lat="45.465560406524574" lon="11.17947823124721"><ele>161.0</ele><time>2026-03-28T14:34:29Z</time></trkpt><trkpt lat="45.46541284071764" lon="11.179440031131614"><ele>160.25</ele><time>2026-03-28T14:34:30Z</time></trkpt><trkpt lat="45.46526859120021" lon="11.179405790449733"><ele>159.5</ele><time>2026-03-28T14:34:31Z</time></trkpt><trkpt lat="45.46512372523702" lon="11.179369808442763"><ele>158.75</ele><time>2026-03-28T14:34:32Z</time></trkpt><trkpt lat="45.464978531095085" lon="11.17932888568182"><ele>158.0</ele><time>2026-03-28T14:34:33Z</time></trkpt><trkpt lat="45.46482570688959" lon="11.17927343206484"><ele>158.0</ele><time>2026-03-28T14:34:34Z</time></trkpt><trkpt lat="45.46467152211707" lon="11.17920539458425"><ele>158.0</ele><time>2026-03-28T14:34:35Z</time></trkpt><trkpt lat="45.46452154858291" lon="11.179137849026366"><ele>158.0</ele><time>2026-03-28T14:34:36Z</time></trkpt><trkpt lat="45.46437370726026" lon="11.179058597944822"><ele>157.0</ele><time>2026-03-28T14:34:37Z</time></trkpt><trkpt lat="45.464227604833255" lon="11.178969801814763"><ele>156.0</ele><time>2026-03-28T14:34:38Z</time></trkpt><trkpt lat="45.464087699498215" lon="11.17888220232208"><ele>155.0</ele><time>2026-03-28T14:34:39Z</time></trkpt><trkpt lat="45.463949821308155" lon="11.178783554916224"><ele>155.0</ele><time>2026-03-28T14:34:40Z</time></trkpt><trkpt lat="45.4638114580743" lon="11.178687445915479"><ele>155.0</ele><time>2026-03-28T14:34:41Z</time></trkpt><trkpt lat="45.46365945535112" lon="11.178577164904016"><ele>155.0</ele><time>2026-03-28T14:34:42Z</time></trkpt><trkpt lat="45.463510855742165" lon="11.178461554851623"><ele>154.0</ele><time>2026-03-28T14:34:43Z</time></trkpt><trkpt lat="45.46335655128836" lon="11.178347926927293"><ele>153.0</ele><time>2026-03-28T14:34:44Z</time></trkpt><trkpt lat="45.463223623705225" lon="11.178248162180594"><ele>152.0</ele><time>2026-03-28T14:34:45Z</time></trkpt><trkpt lat="45.4630876427184" lon="11.178152118220186"><ele>151.75</ele><time>2026-03-28T14:34:46Z</time></trkpt><trkpt lat="45.4629711929856" lon="11.178063745976035"><ele>151.5</ele><time>2026-03-28T14:34:47Z</time></trkpt><trkpt lat="45.46285388133633" lon="11.177976964408723"><ele>151.25</ele><time>2026-03-28T14:34:48Z</time></trkpt><trkpt lat="45.4627402463636" lon="11.177895736584484"><ele>151.0</ele><time>2026-03-28T14:34:49Z</time></trkpt><trkpt lat="45.462624185722746" lon="11.177804799125617"><ele>150.5</ele><time>2026-03-28T14:34:50Z</time></trkpt><trkpt lat="45.462493075709304" lon="11.177719577281538"><ele>150.0</ele><time>2026-03-28T14:34:51Z</time></trkpt><trkpt lat="45.46237680790431" lon="11.177627728702484"><ele>149.5</ele><time>2026-03-28T14:34:52Z</time></trkpt><trkpt lat="45.46225590936265" lon="11.177533167964535"><ele>149.0</ele><time>2026-03-28T14:34:53Z</time></trkpt><trkpt lat="45.46213188418319" lon="11.177435993687464"><ele>148.0</ele><time>2026-03-28T14:34:54Z</time></trkpt><trkpt lat="45.46199184287206" lon="11.177335166934672"><ele>147.0</ele><time>2026-03-28T14:34:55Z</time></trkpt><trkpt lat="45.461842360332426" lon="11.177244148300515"><ele>146.0</ele><time>2026-03-28T14:34:56Z</time></trkpt><trkpt lat="45.461688462632075" lon="11.177168520416847"><ele>146.0</ele><time>2026-03-28T14:34:57Z</time></trkpt><trkpt lat="45.461534066255474" lon="11.177125290636079"><ele>146.0</ele><time>2026-03-28T14:34:58Z</time></trkpt><trkpt lat="45.46137254658952" lon="11.177106871014098"><ele>146.0</ele><time>2026-03-28T14:34:59Z</time></trkpt><trkpt lat="45.46121297224867" lon="11.17710322267354"><ele>145.33333333333331</ele><time>2026-03-28T14:35:00Z</time></trkpt><trkpt lat="45.46106511787763" lon="11.177112955722304"><ele>144.66666666666666</ele><time>2026-03-28T14:35:01Z</time></trkpt><trkpt lat="45.460902517348565" lon="11.177117911536838"><ele>144.0</ele><time>2026-03-28T14:35:02Z</time></trkpt><trkpt lat="45.460741613699085" lon="11.177121168176678"><ele>144.0</ele><time>2026-03-28T14:35:03Z</time></trkpt><trkpt lat="45.460584538479154" lon="11.177120597145754"><ele>144.0</ele><time>2026-03-28T14:35:04Z</time></trkpt><trkpt lat="45.46042734689879" lon="11.177116268035723"><ele>144.0</ele><time>2026-03-28T14:35:05Z</time></trkpt><trkpt lat="45.46027023227106" lon="11.177113494762411"><ele>143.66666666666666</ele><time>2026-03-28T14:35:06Z</time></trkpt><trkpt lat="45.46011087921607" lon="11.177117392152917"><ele>143.33333333333331</ele><time>2026-03-28T14:35:07Z</time></trkpt><trkpt lat="45.459956138923545" lon="11.17712159500501"><ele>143.0</ele><time>2026-03-28T14:35:08Z</time></trkpt><trkpt lat="45.45978121904264" lon="11.177127689269403"><ele>141.66666666666666</ele><time>2026-03-28T14:35:09Z</time></trkpt><trkpt lat="45.45961053094675" lon="11.177130776589905"><ele>140.33333333333334</ele><time>2026-03-28T14:35:10Z</time></trkpt><trkpt lat="45.45941491976912" lon="11.177131102774542"><ele>139.0</ele><time>2026-03-28T14:35:11Z</time></trkpt><trkpt lat="45.459180799085985" lon="11.177138637595288"><ele>139.0</ele><time>2026-03-28T14:35:12Z</time></trkpt><trkpt lat="45.45892429227508" lon="11.177147227182843"><ele>139.0</ele><time>2026-03-28T14:35:13Z</time></trkpt><trkpt lat="45.45865111715026" lon="11.177151986590909"><ele>137.0</ele><time>2026-03-28T14:35:14Z</time></trkpt><trkpt lat="45.45838060361698" lon="11.177154794683018"><ele>135.0</ele><time>2026-03-28T14:35:15Z</time></trkpt><trkpt lat="45.45808702836207" lon="11.177160758471512"><ele>135.0</ele><time>2026-03-28T14:35:16Z</time></trkpt><trkpt lat="45.4578244403893" lon="11.177165562925781"><ele>135.0</ele><time>2026-03-28T14:35:17Z</time></trkpt><trkpt lat="45.45758374075051" lon="11.177165999394209"><ele>135.0</ele><time>2026-03-28T14:35:18Z</time></trkpt><trkpt lat="45.4573599742138" lon="11.177168317224368"><ele>135.0</ele><time>2026-03-28T14:35:19Z</time></trkpt><trkpt lat="45.45714525315286" lon="11.177168182046671"><ele>135.0</ele><time>2026-03-28T14:35:20Z</time></trkpt><trkpt lat="45.45694617567932" lon="11.177174943532483"><ele>134.33333333333334</ele><time>2026-03-28T14:35:21Z</time></trkpt><trkpt lat="45.45675115071905" lon="11.177170384381997"><ele>133.66666666666669</ele><time>2026-03-28T14:35:22Z</time></trkpt><trkpt lat="45.45656911122921" lon="11.177161502909813"><ele>133.0</ele><time>2026-03-28T14:35:23Z</time></trkpt><trkpt lat="45.45637745754818" lon="11.177145922469315"><ele>132.0</ele><time>2026-03-28T14:35:24Z</time></trkpt><trkpt lat="45.456183030500625" lon="11.177113132162322"><ele>131.0</ele><time>2026-03-28T14:35:25Z</time></trkpt><trkpt lat="45.45599808841543" lon="11.17707821077729"><ele>130.0</ele><time>2026-03-28T14:35:26Z</time></trkpt><trkpt lat="45.45581744192133" lon="11.177043673372182"><ele>130.0</ele><time>2026-03-28T14:35:27Z</time></trkpt><trkpt lat="45.45562719987542" lon="11.177016184377598"><ele>130.0</ele><time>2026-03-28T14:35:27.999Z</time></trkpt><trkpt lat="45.45544202466107" lon="11.176990089815261"><ele>130.0</ele><time>2026-03-28T14:35:28.999Z</time></trkpt><trkpt lat="45.45526728679161" lon="11.176950826696055"><ele>129.0</ele><time>2026-03-28T14:35:29.999Z</time></trkpt><trkpt lat="45.45507900482417" lon="11.176917187204237"><ele>128.0</ele><time>2026-03-28T14:35:30.999Z</time></trkpt><trkpt lat="45.45488723198985" lon="11.17688215636992"><ele>127.0</ele><time>2026-03-28T14:35:31.999Z</time></trkpt><trkpt lat="45.45469235645474" lon="11.176853478006901"><ele>126.33333333333334</ele><time>2026-03-28T14:35:32.999Z</time></trkpt><trkpt lat="45.45449819619638" lon="11.176827199653298"><ele>125.66666666666666</ele><time>2026-03-28T14:35:33.999Z</time></trkpt><trkpt lat="45.45429880068919" lon="11.17681347139384"><ele>125.0</ele><time>2026-03-28T14:35:34.999Z</time></trkpt><trkpt lat="45.454087425996676" lon="11.17681630171941"><ele>125.0</ele><time>2026-03-28T14:35:35.999Z</time></trkpt><trkpt lat="45.4538727553581" lon="11.176827438890708"><ele>125.0</ele><time>2026-03-28T14:35:36.999Z</time></trkpt><trkpt lat="45.45364064481051" lon="11.176847693622543"><ele>125.0</ele><time>2026-03-28T14:35:37.999Z</time></trkpt><trkpt lat="45.45337838041434" lon="11.176866145715698"><ele>124.0</ele><time>2026-03-28T14:35:38.999Z</time></trkpt><trkpt lat="45.45310716011371" lon="11.17688250014503"><ele>123.0</ele><time>2026-03-28T14:35:39.999Z</time></trkpt><trkpt lat="45.4528698617718" lon="11.17690334276761"><ele>122.0</ele><time>2026-03-28T14:35:40.999Z</time></trkpt><trkpt lat="45.45264383392255" lon="11.176938794912711"><ele>121.0</ele><time>2026-03-28T14:35:41.999Z</time></trkpt><trkpt lat="45.4524199673836" lon="11.176994394919973"><ele>121.0</ele><time>2026-03-28T14:35:42.999Z</time></trkpt><trkpt lat="45.452196131646524" lon="11.177058843305648"><ele>121.0</ele><time>2026-03-28T14:35:43.999Z</time></trkpt><trkpt lat="45.451964206909324" lon="11.177129923032025"><ele>120.0</ele><time>2026-03-28T14:35:44.999Z</time></trkpt><trkpt lat="45.45172862208024" lon="11.177200015050996"><ele>119.0</ele><time>2026-03-28T14:35:45.999Z</time></trkpt><trkpt lat="45.45148632661192" lon="11.177267623555181"><ele>118.0</ele><time>2026-03-28T14:35:46.999Z</time></trkpt><trkpt lat="45.451245111725235" lon="11.177338832137272"><ele>117.0</ele><time>2026-03-28T14:35:47.999Z</time></trkpt><trkpt lat="45.45101836736678" lon="11.177408394995942"><ele>117.0</ele><time>2026-03-28T14:35:48.999Z</time></trkpt><trkpt lat="45.45079606023244" lon="11.177476640482823"><ele>117.0</ele><time>2026-03-28T14:35:49.999Z</time></trkpt><trkpt lat="45.45057363881514" lon="11.177540499973052"><ele>115.5</ele><time>2026-03-28T14:35:50.999Z</time></trkpt><trkpt lat="45.45035308761066" lon="11.177610279416278"><ele>114.0</ele><time>2026-03-28T14:35:51.999Z</time></trkpt><trkpt lat="45.45012979667272" lon="11.177672546832353"><ele>114.0</ele><time>2026-03-28T14:35:52.999Z</time></trkpt><trkpt lat="45.44989769588823" lon="11.177731492490464"><ele>114.0</ele><time>2026-03-28T14:35:53.999Z</time></trkpt><trkpt lat="45.449665394207955" lon="11.177779864735312"><ele>113.33333333333334</ele><time>2026-03-28T14:35:54.999Z</time></trkpt><trkpt lat="45.4494489936598" lon="11.177818830723552"><ele>112.66666666666667</ele><time>2026-03-28T14:35:55.999Z</time></trkpt><trkpt lat="45.44922720731353" lon="11.177849595924213"><ele>112.0</ele><time>2026-03-28T14:35:56.999Z</time></trkpt><trkpt lat="45.44900135473213" lon="11.177871785286566"><ele>111.66666666666667</ele><time>2026-03-28T14:35:57.999Z</time></trkpt><trkpt lat="45.44878437850205" lon="11.177898726578436"><ele>111.33333333333334</ele><time>2026-03-28T14:35:58.999Z</time></trkpt><trkpt lat="45.44857258145329" lon="11.177927989403571"><ele>111.0</ele><time>2026-03-28T14:35:59.999Z</time></trkpt><trkpt lat="45.44835794352137" lon="11.177955485955316"><ele>111.0</ele><time>2026-03-28T14:36:00.999Z</time></trkpt><trkpt lat="45.448144412049665" lon="11.177989754917043"><ele>111.0</ele><time>2026-03-28T14:36:01.999Z</time></trkpt><trkpt lat="45.44792274472175" lon="11.178023292206642"><ele>111.0</ele><time>2026-03-28T14:36:02.999Z</time></trkpt><trkpt lat="45.447710997122705" lon="11.178056695822402"><ele>110.33333333333334</ele><time>2026-03-28T14:36:03.999Z</time></trkpt><trkpt lat="45.447490556303826" lon="11.178092224333927"><ele>109.66666666666667</ele><time>2026-03-28T14:36:04.999Z</time></trkpt><trkpt lat="45.447272477771875" lon="11.178121074270315"><ele>109.0</ele><time>2026-03-28T14:36:05.999Z</time></trkpt><trkpt lat="45.44705370280112" lon="11.17815474576878"><ele>108.33333333333334</ele><time>2026-03-28T14:36:06.999Z</time></trkpt><trkpt lat="45.44683972233963" lon="11.17817984623918"><ele>107.66666666666666</ele><time>2026-03-28T14:36:07.999Z</time></trkpt><trkpt lat="45.446631565874256" lon="11.178192489116439"><ele>107.0</ele><time>2026-03-28T14:36:08.999Z</time></trkpt><trkpt lat="45.4464394890258" lon="11.17819008713843"><ele>106.33333333333333</ele><time>2026-03-28T14:36:09.999Z</time></trkpt><trkpt lat="45.44626340839565" lon="11.178172984651972"><ele>105.66666666666666</ele><time>2026-03-28T14:36:10.999Z</time></trkpt><trkpt lat="45.44609616595434" lon="11.178153308590952"><ele>105.0</ele><time>2026-03-28T14:36:11.999Z</time></trkpt><trkpt lat="45.445932652515815" lon="11.17814079688177"><ele>105.0</ele><time>2026-03-28T14:36:12.999Z</time></trkpt><trkpt lat="45.445781661492674" lon="11.178148616932399"><ele>105.0</ele><time>2026-03-28T14:36:13.999Z</time></trkpt><trkpt lat="45.44563128704084" lon="11.17817426198855"><ele>105.0</ele><time>2026-03-28T14:36:14.999Z</time></trkpt><trkpt lat="45.445465041707344" lon="11.17823135706064"><ele>104.66666666666666</ele><time>2026-03-28T14:36:15.999Z</time></trkpt><trkpt lat="45.445273227738795" lon="11.178324591187383"><ele>104.33333333333333</ele><time>2026-03-28T14:36:16.999Z</time></trkpt><trkpt lat="45.44507116203746" lon="11.178430384909976"><ele>104.0</ele><time>2026-03-28T14:36:17.999Z</time></trkpt><trkpt lat="45.44486986723948" lon="11.17851945676037"><ele>104.0</ele><time>2026-03-28T14:36:18.999Z</time></trkpt><trkpt lat="45.44469003502813" lon="11.178605945277557"><ele>104.0</ele><time>2026-03-28T14:36:20Z</time></trkpt><trkpt lat="45.44452897037325" lon="11.178675683876252"><ele>104.0</ele><time>2026-03-28T14:36:21Z</time></trkpt><trkpt lat="45.444374983731656" lon="11.178740446152025"><ele>103.66666666666666</ele><time>2026-03-28T14:36:22Z</time></trkpt><trkpt lat="45.44423393526545" lon="11.178788239907306"><ele>103.33333333333334</ele><time>2026-03-28T14:36:23Z</time></trkpt><trkpt lat="45.444078491984214" lon="11.178819656375422"><ele>103.0</ele><time>2026-03-28T14:36:24Z</time></trkpt><trkpt lat="45.443919853267445" lon="11.178814929212258"><ele>101.66666666666667</ele><time>2026-03-28T14:36:25Z</time></trkpt><trkpt lat="45.44374800943784" lon="11.178788747435533"><ele>100.33333333333334</ele><time>2026-03-28T14:36:26Z</time></trkpt><trkpt lat="45.4435750559483" lon="11.178770249484309"><ele>99.0</ele><time>2026-03-28T14:36:27Z</time></trkpt><trkpt lat="45.44339976574229" lon="11.178761687626906"><ele>99.0</ele><time>2026-03-28T14:36:28Z</time></trkpt><trkpt lat="45.443213874369214" lon="11.178766021041747"><ele>99.0</ele><time>2026-03-28T14:36:29Z</time></trkpt><trkpt lat="45.443003853346376" lon="11.178775410394142"><ele>99.0</ele><time>2026-03-28T14:36:30Z</time></trkpt><trkpt lat="45.442783536115726" lon="11.178791866885401"><ele>98.0</ele><time>2026-03-28T14:36:31Z</time></trkpt><trkpt lat="45.44255722875053" lon="11.178812779578838"><ele>97.0</ele><time>2026-03-28T14:36:32Z</time></trkpt><trkpt lat="45.44235322515777" lon="11.178825884238965"><ele>96.0</ele><time>2026-03-28T14:36:33Z</time></trkpt><trkpt lat="45.44215963169515" lon="11.17884021154107"><ele>95.33333333333333</ele><time>2026-03-28T14:36:34Z</time></trkpt><trkpt lat="45.44197860693952" lon="11.178859842019477"><ele>94.66666666666666</ele><time>2026-03-28T14:36:35Z</time></trkpt><trkpt lat="45.4417971844756" lon="11.178871100299187"><ele>94.0</ele><time>2026-03-28T14:36:36Z</time></trkpt><trkpt lat="45.44163131759916" lon="11.178862880379777"><ele>94.0</ele><time>2026-03-28T14:36:37Z</time></trkpt><trkpt lat="45.441438510795194" lon="11.178834019627386"><ele>94.0</ele><time>2026-03-28T14:36:38Z</time></trkpt><trkpt lat="45.441245477581866" lon="11.178783690235434"><ele>94.0</ele><time>2026-03-28T14:36:39Z</time></trkpt><trkpt lat="45.441067988122356" lon="11.17873820950052"><ele>93.66666666666666</ele><time>2026-03-28T14:36:40Z</time></trkpt><trkpt lat="45.44092203663638" lon="11.178685040235285"><ele>93.33333333333333</ele><time>2026-03-28T14:36:41Z</time></trkpt><trkpt lat="45.44077751066318" lon="11.178640193687349"><ele>93.0</ele><time>2026-03-28T14:36:42Z</time></trkpt><trkpt lat="45.44062426973003" lon="11.178593707966733"><ele>93.0</ele><time>2026-03-28T14:36:43Z</time></trkpt><trkpt lat="45.440478426667134" lon="11.178566856125268"><ele>93.0</ele><time>2026-03-28T14:36:44Z</time></trkpt><trkpt lat="45.440314510937924" lon="11.178529134069597"><ele>93.0</ele><time>2026-03-28T14:36:45Z</time></trkpt><trkpt lat="45.440157535782504" lon="11.178481739136169"><ele>92.66666666666667</ele><time>2026-03-28T14:36:46Z</time></trkpt><trkpt lat="45.43999887710808" lon="11.178422882021058"><ele>92.33333333333334</ele><time>2026-03-28T14:36:47Z</time></trkpt><trkpt lat="45.43983210940361" lon="11.178376799449532"><ele>92.0</ele><time>2026-03-28T14:36:48Z</time></trkpt><trkpt lat="45.43966345057985" lon="11.178338101665277"><ele>90.66666666666667</ele><time>2026-03-28T14:36:49Z</time></trkpt><trkpt lat="45.439502746776824" lon="11.178302949922518"><ele>89.33333333333333</ele><time>2026-03-28T14:36:50Z</time></trkpt><trkpt lat="45.43935952454611" lon="11.17826944052267"><ele>88.0</ele><time>2026-03-28T14:36:51Z</time></trkpt><trkpt lat="45.43921846866407" lon="11.17824337665866"><ele>88.0</ele><time>2026-03-28T14:36:52Z</time></trkpt><trkpt lat="45.4390729806852" lon="11.178228301937715"><ele>88.0</ele><time>2026-03-28T14:36:53Z</time></trkpt><trkpt lat="45.4389245243874" lon="11.178226488109557"><ele>88.0</ele><time>2026-03-28T14:36:54Z</time></trkpt><trkpt lat="45.438778717150335" lon="11.178234636261807"><ele>88.0</ele><time>2026-03-28T14:36:55Z</time></trkpt><trkpt lat="45.43862851405911" lon="11.17823675655675"><ele>87.66666666666666</ele><time>2026-03-28T14:36:56Z</time></trkpt><trkpt lat="45.43848204332226" lon="11.178229431536495"><ele>87.33333333333333</ele><time>2026-03-28T14:36:57Z</time></trkpt><trkpt lat="45.438328409073065" lon="11.178226058610917"><ele>87.0</ele><time>2026-03-28T14:36:58Z</time></trkpt><trkpt lat="45.43817016672166" lon="11.178211551192764"><ele>87.0</ele><time>2026-03-28T14:36:59Z</time></trkpt><trkpt lat="45.438006659365605" lon="11.178197947294958"><ele>87.0</ele><time>2026-03-28T14:37:00Z</time></trkpt><trkpt lat="45.43783070574815" lon="11.17818266749611"><ele>87.0</ele><time>2026-03-28T14:37:01Z</time></trkpt><trkpt lat="45.437658094792575" lon="11.17817775201232"><ele>86.0</ele><time>2026-03-28T14:37:02Z</time></trkpt><trkpt lat="45.437484455576836" lon="11.17817281430937"><ele>85.0</ele><time>2026-03-28T14:37:03Z</time></trkpt><trkpt lat="45.437317714723925" lon="11.1781618021903"><ele>84.0</ele><time>2026-03-28T14:37:04Z</time></trkpt><trkpt lat="45.437160753306316" lon="11.178152771899637"><ele>84.0</ele><time>2026-03-28T14:37:05Z</time></trkpt><trkpt lat="45.437005430708034" lon="11.178140804224329"><ele>84.0</ele><time>2026-03-28T14:37:06Z</time></trkpt><trkpt lat="45.436857679856125" lon="11.178137901669901"><ele>84.0</ele><time>2026-03-28T14:37:07Z</time></trkpt><trkpt lat="45.43670670207149" lon="11.178128020866064"><ele>84.0</ele><time>2026-03-28T14:37:08Z</time></trkpt><trkpt lat="45.43654085364861" lon="11.178127132620512"><ele>84.0</ele><time>2026-03-28T14:37:09Z</time></trkpt><trkpt lat="45.43637285901787" lon="11.178109234490504"><ele>84.0</ele><time>2026-03-28T14:37:10Z</time></trkpt><trkpt lat="45.43619830787422" lon="11.178082253260241"><ele>83.0</ele><time>2026-03-28T14:37:11Z</time></trkpt><trkpt lat="45.43602155941061" lon="11.178047882406853"><ele>82.0</ele><time>2026-03-28T14:37:12Z</time></trkpt><trkpt lat="45.43585260572407" lon="11.178022659443235"><ele>81.0</ele><time>2026-03-28T14:37:13Z</time></trkpt><trkpt lat="45.43568507747775" lon="11.177997574010009"><ele>81.0</ele><time>2026-03-28T14:37:14Z</time></trkpt><trkpt lat="45.435540030109756" lon="11.177979136262678"><ele>81.0</ele><time>2026-03-28T14:37:15Z</time></trkpt><trkpt lat="45.43539054662051" lon="11.177959543040382"><ele>81.0</ele><time>2026-03-28T14:37:16Z</time></trkpt><trkpt lat="45.43523447646912" lon="11.177935156516085"><ele>80.33333333333333</ele><time>2026-03-28T14:37:17Z</time></trkpt><trkpt lat="45.43507232863432" lon="11.17790862261354"><ele>79.66666666666666</ele><time>2026-03-28T14:37:18Z</time></trkpt><trkpt lat="45.434917021971515" lon="11.177889020284342"><ele>79.0</ele><time>2026-03-28T14:37:19Z</time></trkpt><trkpt lat="45.434764922284515" lon="11.177873928974133"><ele>78.0</ele><time>2026-03-28T14:37:20Z</time></trkpt><trkpt lat="45.43461543382345" lon="11.177852173174855"><ele>77.0</ele><time>2026-03-28T14:37:21Z</time></trkpt><trkpt lat="45.43446471817011" lon="11.177825150835725"><ele>76.0</ele><time>2026-03-28T14:37:22Z</time></trkpt><trkpt lat="45.434314532021155" lon="11.177796649370757"><ele>76.0</ele><time>2026-03-28T14:37:23Z</time></trkpt><trkpt lat="45.43416406652122" lon="11.177771574942614"><ele>76.0</ele><time>2026-03-28T14:37:24Z</time></trkpt><trkpt lat="45.434014193390354" lon="11.177751446652353"><ele>76.0</ele><time>2026-03-28T14:37:25Z</time></trkpt><trkpt lat="45.433869335136464" lon="11.177734666684009"><ele>76.0</ele><time>2026-03-28T14:37:26Z</time></trkpt><trkpt lat="45.43374168794713" lon="11.177717572753737"><ele>75.5</ele><time>2026-03-28T14:37:27Z</time></trkpt><trkpt lat="45.43360614494774" lon="11.177697487390864"><ele>75.0</ele><time>2026-03-28T14:37:28Z</time></trkpt><trkpt lat="45.43346231043363" lon="11.177673115457962"><ele>74.5</ele><time>2026-03-28T14:37:29Z</time></trkpt><trkpt lat="45.433309767646314" lon="11.177637344958871"><ele>74.0</ele><time>2026-03-28T14:37:29.999Z</time></trkpt><trkpt lat="45.433165060487944" lon="11.177635225091052"><ele>74.0</ele><time>2026-03-28T14:37:30.999Z</time></trkpt><trkpt lat="45.4330259254555" lon="11.177601353610836"><ele>74.0</ele><time>2026-03-28T14:37:31.999Z</time></trkpt><trkpt lat="45.43288958900515" lon="11.17757818684677"><ele>74.0</ele><time>2026-03-28T14:37:32.999Z</time></trkpt><trkpt lat="45.432750525212256" lon="11.177562456161988"><ele>74.0</ele><time>2026-03-28T14:37:33.999Z</time></trkpt><trkpt lat="45.432612945731655" lon="11.177551712413683"><ele>73.75</ele><time>2026-03-28T14:37:34.999Z</time></trkpt><trkpt lat="45.43247047753699" lon="11.177539292913263"><ele>73.5</ele><time>2026-03-28T14:37:35.999Z</time></trkpt><trkpt lat="45.43233200322645" lon="11.177530348942417"><ele>73.25</ele><time>2026-03-28T14:37:36.999Z</time></trkpt><trkpt lat="45.432191447526485" lon="11.177520241924956"><ele>73.0</ele><time>2026-03-28T14:37:37.999Z</time></trkpt><trkpt lat="45.432050137448336" lon="11.177519285001216"><ele>72.75</ele><time>2026-03-28T14:37:38.999Z</time></trkpt><trkpt lat="45.43190894950203" lon="11.177519355853951"><ele>72.5</ele><time>2026-03-28T14:37:39.999Z</time></trkpt><trkpt lat="45.43176740792818" lon="11.177510831050153"><ele>72.25</ele><time>2026-03-28T14:37:40.999Z</time></trkpt><trkpt lat="45.43162384359453" lon="11.177501717972461"><ele>72.0</ele><time>2026-03-28T14:37:41.999Z</time></trkpt><trkpt lat="45.431482148952135" lon="11.177495443327974"><ele>72.0</ele><time>2026-03-28T14:37:42.999Z</time></trkpt><trkpt lat="45.43135325003141" lon="11.177483740246721"><ele>72.0</ele><time>2026-03-28T14:37:43.999Z</time></trkpt><trkpt lat="45.431243972479535" lon="11.177466395648041"><ele>72.0</ele><time>2026-03-28T14:37:44.999Z</time></trkpt><trkpt lat="45.43115327426074" lon="11.177451519473873"><ele>72.0</ele><time>2026-03-28T14:37:45.999Z</time></trkpt><trkpt lat="45.431068990906354" lon="11.177432715869758"><ele>72.0</ele><time>2026-03-28T14:37:46.999Z</time></trkpt><trkpt lat="45.4309974830249" lon="11.177414837177752"><ele>72.0</ele><time>2026-03-28T14:37:47.999Z</time></trkpt><trkpt lat="45.43091714385204" lon="11.177392046985227"><ele>72.0</ele><time>2026-03-28T14:37:49.999Z</time></trkpt><trkpt lat="45.430795075809485" lon="11.177363650437911"><ele>72.0</ele><time>2026-03-28T14:38:21.999Z</time></trkpt><trkpt lat="45.43069666085656" lon="11.177339649438846"><ele>72.0</ele><time>2026-03-28T14:38:22.999Z</time></trkpt><trkpt lat="45.430576485006945" lon="11.17730863810637"><ele>72.0</ele><time>2026-03-28T14:38:23.999Z</time></trkpt><trkpt lat="45.430430220197806" lon="11.17727350221155"><ele>71.0</ele><time>2026-03-28T14:38:24.999Z</time></trkpt><trkpt lat="45.430287015882605" lon="11.177242433993621"><ele>70.0</ele><time>2026-03-28T14:38:26Z</time></trkpt><trkpt lat="45.430129980858375" lon="11.177203870388105"><ele>69.0</ele><time>2026-03-28T14:38:27Z</time></trkpt><trkpt lat="45.4299562896909" lon="11.17716042448279"><ele>69.0</ele><time>2026-03-28T14:38:28Z</time></trkpt><trkpt lat="45.4297626396368" lon="11.177112200433035"><ele>69.0</ele><time>2026-03-28T14:38:29Z</time></trkpt><trkpt lat="45.42954782610967" lon="11.177068564071991"><ele>69.0</ele><time>2026-03-28T14:38:30Z</time></trkpt><trkpt lat="45.42931465439589" lon="11.177013587930787"><ele>68.0</ele><time>2026-03-28T14:38:31Z</time></trkpt><trkpt lat="45.42905547185889" lon="11.176959775139949"><ele>67.0</ele><time>2026-03-28T14:38:32Z</time></trkpt><trkpt lat="45.4288212822638" lon="11.176919241002393"><ele>65.66666666666666</ele><time>2026-03-28T14:38:33Z</time></trkpt><trkpt lat="45.428608445067226" lon="11.176883583873305"><ele>64.33333333333333</ele><time>2026-03-28T14:38:34Z</time></trkpt><trkpt lat="45.42840532561428" lon="11.176852595321948"><ele>63.0</ele><time>2026-03-28T14:38:35Z</time></trkpt><trkpt lat="45.428199185597386" lon="11.176823049088476"><ele>63.0</ele><time>2026-03-28T14:38:36Z</time></trkpt><trkpt lat="45.42799125541091" lon="11.176794452510144"><ele>63.0</ele><time>2026-03-28T14:38:37Z</time></trkpt><trkpt lat="45.427776377095384" lon="11.176769919128303"><ele>63.0</ele><time>2026-03-28T14:38:38Z</time></trkpt><trkpt lat="45.42755458182597" lon="11.176755418063186"><ele>62.66666666666667</ele><time>2026-03-28T14:38:39Z</time></trkpt><trkpt lat="45.42733385176655" lon="11.17674456231023"><ele>62.333333333333336</ele><time>2026-03-28T14:38:40Z</time></trkpt><trkpt lat="45.42711668069696" lon="11.17674162577941"><ele>62.0</ele><time>2026-03-28T14:38:41Z</time></trkpt><trkpt lat="45.426887445292806" lon="11.17672478830972"><ele>62.0</ele><time>2026-03-28T14:38:42Z</time></trkpt><trkpt lat="45.426657823821245" lon="11.17670848200824"><ele>62.0</ele><time>2026-03-28T14:38:43Z</time></trkpt><trkpt lat="45.426427954668" lon="11.176682836138605"><ele>62.0</ele><time>2026-03-28T14:38:44Z</time></trkpt><trkpt lat="45.426200199529504" lon="11.176660176318068"><ele>62.0</ele><time>2026-03-28T14:38:45Z</time></trkpt><trkpt lat="45.42596634209871" lon="11.176625903999527"><ele>62.0</ele><time>2026-03-28T14:38:46Z</time></trkpt><trkpt lat="45.425758893001" lon="11.176600658919643"><ele>62.0</ele><time>2026-03-28T14:38:47Z</time></trkpt><trkpt lat="45.42556743561108" lon="11.176575744807845"><ele>62.0</ele><time>2026-03-28T14:38:48Z</time></trkpt><trkpt lat="45.425388389596186" lon="11.176555098916394"><ele>61.333333333333336</ele><time>2026-03-28T14:38:49Z</time></trkpt><trkpt lat="45.42521004640138" lon="11.176526668038685"><ele>60.66666666666667</ele><time>2026-03-28T14:38:50Z</time></trkpt><trkpt lat="45.42503238833248" lon="11.1765020613719"><ele>60.0</ele><time>2026-03-28T14:38:51Z</time></trkpt><trkpt lat="45.42484399023994" lon="11.176472815295792"><ele>58.66666666666667</ele><time>2026-03-28T14:38:52Z</time></trkpt><trkpt lat="45.424644403114385" lon="11.176442638649899"><ele>57.333333333333336</ele><time>2026-03-28T14:38:53Z</time></trkpt><trkpt lat="45.42445052416806" lon="11.176417743889814"><ele>56.0</ele><time>2026-03-28T14:38:54Z</time></trkpt><trkpt lat="45.424259554331066" lon="11.176394877832049"><ele>56.0</ele><time>2026-03-28T14:38:55Z</time></trkpt><trkpt lat="45.42406757320361" lon="11.17636997114129"><ele>56.0</ele><time>2026-03-28T14:38:56Z</time></trkpt><trkpt lat="45.423879826289344" lon="11.176348456883467"><ele>56.0</ele><time>2026-03-28T14:38:57Z</time></trkpt><trkpt lat="45.42369397519113" lon="11.176324021094304"><ele>56.333333333333336</ele><time>2026-03-28T14:38:58Z</time></trkpt><trkpt lat="45.423508129176845" lon="11.176301566855434"><ele>56.66666666666667</ele><time>2026-03-28T14:38:59Z</time></trkpt><trkpt lat="45.42333554481066" lon="11.176289123841954"><ele>57.0</ele><time>2026-03-28T14:39:00Z</time></trkpt><trkpt lat="45.42316876728451" lon="11.176276503024706"><ele>57.0</ele><time>2026-03-28T14:39:01Z</time></trkpt><trkpt lat="45.42301675840286" lon="11.176264154742562"><ele>57.0</ele><time>2026-03-28T14:39:02Z</time></trkpt><trkpt lat="45.422862829844085" lon="11.176249520112043"><ele>57.0</ele><time>2026-03-28T14:39:03Z</time></trkpt><trkpt lat="45.42272813762404" lon="11.176243325977028"><ele>57.0</ele><time>2026-03-28T14:39:04Z</time></trkpt><trkpt lat="45.42259450716097" lon="11.176242710779807"><ele>56.75</ele><time>2026-03-28T14:39:05Z</time></trkpt><trkpt lat="45.4224506537446" lon="11.176232333683119"><ele>56.5</ele><time>2026-03-28T14:39:06Z</time></trkpt><trkpt lat="45.42231543953936" lon="11.17622827257339"><ele>56.25</ele><time>2026-03-28T14:39:07Z</time></trkpt><trkpt lat="45.42217820011626" lon="11.176216166068176"><ele>56.0</ele><time>2026-03-28T14:39:08Z</time></trkpt><trkpt lat="45.42204900135136" lon="11.176208257108152"><ele>55.5</ele><time>2026-03-28T14:39:09Z</time></trkpt><trkpt lat="45.42191835815244" lon="11.176202108622066"><ele>55.0</ele><time>2026-03-28T14:39:10Z</time></trkpt><trkpt lat="45.42178604832793" lon="11.17619975986679"><ele>54.5</ele><time>2026-03-28T14:39:11Z</time></trkpt><trkpt lat="45.42164583680803" lon="11.176190656216303"><ele>54.0</ele><time>2026-03-28T14:39:12Z</time></trkpt><trkpt lat="45.42150791131859" lon="11.176173465040266"><ele>54.0</ele><time>2026-03-28T14:39:13Z</time></trkpt><trkpt lat="45.421363376865365" lon="11.176148675439494"><ele>54.0</ele><time>2026-03-28T14:39:14Z</time></trkpt><trkpt lat="45.421224567427195" lon="11.176122016320479"><ele>54.0</ele><time>2026-03-28T14:39:15Z</time></trkpt><trkpt lat="45.421089495618666" lon="11.17609390035849"><ele>54.0</ele><time>2026-03-28T14:39:16Z</time></trkpt><trkpt lat="45.42096311513205" lon="11.176063564037621"><ele>54.0</ele><time>2026-03-28T14:39:17Z</time></trkpt><trkpt lat="45.42083843257176" lon="11.176033730428797"><ele>54.0</ele><time>2026-03-28T14:39:18Z</time></trkpt><trkpt lat="45.42071007829951" lon="11.176003213759715"><ele>54.0</ele><time>2026-03-28T14:39:19Z</time></trkpt><trkpt lat="45.420577469328656" lon="11.175964718053068"><ele>54.0</ele><time>2026-03-28T14:39:20Z</time></trkpt><trkpt lat="45.42044959038724" lon="11.175922114301278"><ele>54.25</ele><time>2026-03-28T14:39:21Z</time></trkpt><trkpt lat="45.42032095521275" lon="11.175876599701601"><ele>54.5</ele><time>2026-03-28T14:39:22Z</time></trkpt><trkpt lat="45.42020229904304" lon="11.175822510409304"><ele>54.75</ele><time>2026-03-28T14:39:23Z</time></trkpt><trkpt lat="45.42007681599377" lon="11.175770375839651"><ele>55.0</ele><time>2026-03-28T14:39:24Z</time></trkpt><trkpt lat="45.41994884309017" lon="11.175716009347985"><ele>55.0</ele><time>2026-03-28T14:39:25Z</time></trkpt><trkpt lat="45.41982145104045" lon="11.175660900090433"><ele>55.0</ele><time>2026-03-28T14:39:26Z</time></trkpt><trkpt lat="45.419694389760934" lon="11.175607194246403"><ele>55.0</ele><time>2026-03-28T14:39:27Z</time></trkpt><trkpt lat="45.41956935607179" lon="11.175546116479543"><ele>55.0</ele><time>2026-03-28T14:39:28Z</time></trkpt><trkpt lat="45.419445102001156" lon="11.175494969882426"><ele>54.0</ele><time>2026-03-28T14:39:29Z</time></trkpt><trkpt lat="45.419311874087676" lon="11.175443435504015"><ele>53.0</ele><time>2026-03-28T14:39:30Z</time></trkpt><trkpt lat="45.41918466997806" lon="11.175389024295333"><ele>52.0</ele><time>2026-03-28T14:39:31Z</time></trkpt><trkpt lat="45.41905375013722" lon="11.175330826213742"><ele>51.0</ele><time>2026-03-28T14:39:32Z</time></trkpt><trkpt lat="45.418934669792264" lon="11.175263769645625"><ele>51.66666666666667</ele><time>2026-03-28T14:39:33Z</time></trkpt><trkpt lat="45.418813390756554" lon="11.175192339922603"><ele>52.333333333333336</ele><time>2026-03-28T14:39:34Z</time></trkpt><trkpt lat="45.41866999094157" lon="11.175102198580738"><ele>53.0</ele><time>2026-03-28T14:39:35Z</time></trkpt><trkpt lat="45.418480855438034" lon="11.175059251693927"><ele>53.0</ele><time>2026-03-28T14:39:36Z</time></trkpt><trkpt lat="45.41834908446833" lon="11.17501359086988"><ele>53.0</ele><time>2026-03-28T14:39:37Z</time></trkpt><trkpt lat="45.41822406398026" lon="11.174967620524022"><ele>53.0</ele><time>2026-03-28T14:39:38Z</time></trkpt><trkpt lat="45.41810142848761" lon="11.174913505074764"><ele>53.0</ele><time>2026-03-28T14:39:39Z</time></trkpt><trkpt lat="45.41798098830819" lon="11.17487729222251"><ele>52.25</ele><time>2026-03-28T14:39:40Z</time></trkpt><trkpt lat="45.41786233999516" lon="11.174837108185976"><ele>51.5</ele><time>2026-03-28T14:39:41Z</time></trkpt><trkpt lat="45.417754850209406" lon="11.174797952268127"><ele>50.75</ele><time>2026-03-28T14:39:42Z</time></trkpt><trkpt lat="45.417649214990895" lon="11.174760235692066"><ele>50.0</ele><time>2026-03-28T14:39:42.999Z</time></trkpt><trkpt lat="45.41754239560891" lon="11.174727142604844"><ele>50.0</ele><time>2026-03-28T14:39:43.999Z</time></trkpt><trkpt lat="45.41744009074385" lon="11.174694857878858"><ele>50.0</ele><time>2026-03-28T14:39:44.999Z</time></trkpt><trkpt lat="45.41733976033896" lon="11.174661241713071"><ele>50.0</ele><time>2026-03-28T14:39:45.999Z</time></trkpt><trkpt lat="45.417243809791756" lon="11.174630540233904"><ele>50.0</ele><time>2026-03-28T14:39:46.999Z</time></trkpt><trkpt lat="45.4171490582623" lon="11.174604855806427"><ele>50.0</ele><time>2026-03-28T14:39:47.999Z</time></trkpt><trkpt lat="45.41705235991105" lon="11.174575467718864"><ele>49.66666666666667</ele><time>2026-03-28T14:39:48.999Z</time></trkpt><trkpt lat="45.416968775390494" lon="11.174545610636756"><ele>49.333333333333336</ele><time>2026-03-28T14:39:49.999Z</time></trkpt><trkpt lat="45.41689908589209" lon="11.174525054205633"><ele>49.0</ele><time>2026-03-28T14:39:50.999Z</time></trkpt><trkpt lat="45.41682709681755" lon="11.174497299674092"><ele>48.66666666666667</ele><time>2026-03-28T14:39:51.999Z</time></trkpt><trkpt lat="45.416764689307875" lon="11.17447904432564"><ele>48.333333333333336</ele><time>2026-03-28T14:39:52.999Z</time></trkpt><trkpt lat="45.416653817429335" lon="11.174447664842367"><ele>48.0</ele><time>2026-03-28T14:39:54.999Z</time></trkpt><trkpt lat="45.41656670198275" lon="11.174418689512427"><ele>48.0</ele><time>2026-03-28T14:39:56.999Z</time></trkpt><trkpt lat="45.416485424404" lon="11.174395599530547"><ele>48.0</ele><time>2026-03-28T14:39:59.999Z</time></trkpt><trkpt lat="45.41640968360805" lon="11.174366963704149"><ele>48.0</ele><time>2026-03-28T14:40:03.999Z</time></trkpt><trkpt lat="45.416342336946386" lon="11.174340223410116"><ele>48.0</ele><time>2026-03-28T14:40:52Z</time></trkpt><trkpt lat="45.41624808054982" lon="11.174291502452613"><ele>48.0</ele><time>2026-03-28T14:40:54Z</time></trkpt><trkpt lat="45.416142869643394" lon="11.174499532874403"><ele>48.0</ele><time>2026-03-28T14:40:56Z</time></trkpt><trkpt lat="45.41611782950485" lon="11.174586818332044"><ele>48.0</ele><time>2026-03-28T14:40:57Z</time></trkpt><trkpt lat="45.41610394928113" lon="11.174677095713255"><ele>48.0</ele><time>2026-03-28T14:40:58Z</time></trkpt><trkpt lat="45.41610048846068" lon="11.174772661658558"><ele>48.0</ele><time>2026-03-28T14:40:59Z</time></trkpt><trkpt lat="45.41607236679546" lon="11.174946097947684"><ele>48.0</ele><time>2026-03-28T14:41:01Z</time></trkpt><trkpt lat="45.41605557921078" lon="11.175043079434229"><ele>48.0</ele><time>2026-03-28T14:41:02Z</time></trkpt><trkpt lat="45.416040671873255" lon="11.175142078789644"><ele>48.0</ele><time>2026-03-28T14:41:03Z</time></trkpt><trkpt lat="45.41601839951753" lon="11.175307189736595"><ele>48.0</ele><time>2026-03-28T14:41:05Z</time></trkpt><trkpt lat="45.41599396442698" lon="11.175489320133993"><ele>48.0</ele><time>2026-03-28T14:41:07Z</time></trkpt><trkpt lat="45.41597956821631" lon="11.175616663408157"><ele>48.0</ele><time>2026-03-28T14:41:08Z</time></trkpt><trkpt lat="45.41594655958761" lon="11.175763165621678"><ele>48.0</ele><time>2026-03-28T14:41:09Z</time></trkpt><trkpt lat="45.41591888446824" lon="11.17593676175066"><ele>48.25</ele><time>2026-03-28T14:41:10Z</time></trkpt><trkpt lat="45.41590747371634" lon="11.17610867514141"><ele>48.5</ele><time>2026-03-28T14:41:11Z</time></trkpt><trkpt lat="45.415865648957876" lon="11.176276528685172"><ele>48.75</ele><time>2026-03-28T14:41:12Z</time></trkpt><trkpt lat="45.41583680144889" lon="11.176460067858153"><ele>49.0</ele><time>2026-03-28T14:41:13Z</time></trkpt><trkpt lat="45.415807533374846" lon="11.176646282644882"><ele>49.0</ele><time>2026-03-28T14:41:14Z</time></trkpt><trkpt lat="45.41579268150399" lon="11.176828327283657"><ele>49.0</ele><time>2026-03-28T14:41:15Z</time></trkpt><trkpt lat="45.41576069050808" lon="11.177005159808608"><ele>49.0</ele><time>2026-03-28T14:41:16Z</time></trkpt><trkpt lat="45.41573488373092" lon="11.177180282077972"><ele>49.0</ele><time>2026-03-28T14:41:17Z</time></trkpt><trkpt lat="45.415706597440746" lon="11.177350497055622"><ele>49.2</ele><time>2026-03-28T14:41:18Z</time></trkpt><trkpt lat="45.41567674026126" lon="11.177519687368479"><ele>49.400000000000006</ele><time>2026-03-28T14:41:19Z</time></trkpt><trkpt lat="45.41564843426733" lon="11.1776800333072"><ele>49.6</ele><time>2026-03-28T14:41:20Z</time></trkpt><trkpt lat="45.41562182522899" lon="11.177826940244136"><ele>49.8</ele><time>2026-03-28T14:41:21Z</time></trkpt><trkpt lat="45.41560087736746" lon="11.177971531736382"><ele>50.0</ele><time>2026-03-28T14:41:22Z</time></trkpt><trkpt lat="45.4155777513775" lon="11.178109927264979"><ele>50.0</ele><time>2026-03-28T14:41:23Z</time></trkpt><trkpt lat="45.415555448979184" lon="11.178252007934233"><ele>50.0</ele><time>2026-03-28T14:41:24Z</time></trkpt><trkpt lat="45.415534061915814" lon="11.178407445463385"><ele>50.0</ele><time>2026-03-28T14:41:25Z</time></trkpt><trkpt lat="45.41551385975975" lon="11.178562216683831"><ele>50.0</ele><time>2026-03-28T14:41:26Z</time></trkpt><trkpt lat="45.41548831465136" lon="11.178708642460098"><ele>50.0</ele><time>2026-03-28T14:41:27Z</time></trkpt><trkpt lat="45.415462840941224" lon="11.178862454916814"><ele>49.8</ele><time>2026-03-28T14:41:28Z</time></trkpt><trkpt lat="45.415440694617" lon="11.179014649598672"><ele>49.6</ele><time>2026-03-28T14:41:29Z</time></trkpt><trkpt lat="45.41541428673515" lon="11.179172819301346"><ele>49.400000000000006</ele><time>2026-03-28T14:41:30Z</time></trkpt><trkpt lat="45.41538970990743" lon="11.179327654070084"><ele>49.2</ele><time>2026-03-28T14:41:31Z</time></trkpt><trkpt lat="45.415365950731804" lon="11.179484265719498"><ele>49.0</ele><time>2026-03-28T14:41:32Z</time></trkpt><trkpt lat="45.41534366666731" lon="11.17963314231573"><ele>49.0</ele><time>2026-03-28T14:41:33Z</time></trkpt><trkpt lat="45.41532202379208" lon="11.179782967308759"><ele>49.0</ele><time>2026-03-28T14:41:34Z</time></trkpt><trkpt lat="45.415302260030415" lon="11.179930321943319"><ele>49.0</ele><time>2026-03-28T14:41:35Z</time></trkpt><trkpt lat="45.415285393565334" lon="11.18007253357233"><ele>49.0</ele><time>2026-03-28T14:41:36Z</time></trkpt><trkpt lat="45.415263968016674" lon="11.180210532509545"><ele>49.0</ele><time>2026-03-28T14:41:37Z</time></trkpt><trkpt lat="45.41524269745532" lon="11.180346180142024"><ele>49.0</ele><time>2026-03-28T14:41:38Z</time></trkpt><trkpt lat="45.4152223687391" lon="11.180475515761968"><ele>49.0</ele><time>2026-03-28T14:41:39Z</time></trkpt><trkpt lat="45.415207502996736" lon="11.180607221484374"><ele>49.0</ele><time>2026-03-28T14:41:40Z</time></trkpt><trkpt lat="45.41519258196513" lon="11.180738350128182"><ele>49.0</ele><time>2026-03-28T14:41:41Z</time></trkpt><trkpt lat="45.415173696532506" lon="11.18086646159595"><ele>49.0</ele><time>2026-03-28T14:41:42Z</time></trkpt><trkpt lat="45.415152128727655" lon="11.180992626719945"><ele>49.0</ele><time>2026-03-28T14:41:43Z</time></trkpt><trkpt lat="45.41512895605687" lon="11.181119161446464"><ele>49.0</ele><time>2026-03-28T14:41:44Z</time></trkpt><trkpt lat="45.41511461878164" lon="11.181241077929204"><ele>49.0</ele><time>2026-03-28T14:41:44.999Z</time></trkpt><trkpt lat="45.415100071676136" lon="11.18137497065655"><ele>49.0</ele><time>2026-03-28T14:41:45.999Z</time></trkpt><trkpt lat="45.415085842671736" lon="11.181502946338696"><ele>49.0</ele><time>2026-03-28T14:41:46.999Z</time></trkpt><trkpt lat="45.4150654397235" lon="11.18163701936177"><ele>48.99999999999999</ele><time>2026-03-28T14:41:47.999Z</time></trkpt><trkpt lat="45.415044572473285" lon="11.181774876519231"><ele>49.0</ele><time>2026-03-28T14:41:48.999Z</time></trkpt><trkpt lat="45.41502823877561" lon="11.181898577997465"><ele>49.0</ele><time>2026-03-28T14:41:49.999Z</time></trkpt><trkpt lat="45.41500819609785" lon="11.182011913167232"><ele>49.0</ele><time>2026-03-28T14:41:50.999Z</time></trkpt><trkpt lat="45.41499160296133" lon="11.18211476804768"><ele>48.99999999999999</ele><time>2026-03-28T14:41:51.999Z</time></trkpt><trkpt lat="45.41497768888556" lon="11.182208564891877"><ele>49.0</ele><time>2026-03-28T14:41:52.999Z</time></trkpt><trkpt lat="45.41494998141687" lon="11.182359101876305"><ele>49.0</ele><time>2026-03-28T14:41:54.999Z</time></trkpt><trkpt lat="45.4149184833882" lon="11.182487860117577"><ele>49.0</ele><time>2026-03-28T14:41:56.999Z</time></trkpt><trkpt lat="45.414894960498124" lon="11.18262938907574"><ele>49.0</ele><time>2026-03-28T14:41:58.999Z</time></trkpt><trkpt lat="45.41487149678772" lon="11.182792875670854"><ele>49.0</ele><time>2026-03-28T14:42:00.999Z</time></trkpt><trkpt lat="45.41484760721759" lon="11.182952600661427"><ele>49.0</ele><time>2026-03-28T14:42:02.999Z</time></trkpt><trkpt lat="45.41483159587617" lon="11.183075599587262"><ele>49.0</ele><time>2026-03-28T14:42:04.999Z</time></trkpt><trkpt lat="45.41481569785396" lon="11.183195475628061"><ele>49.0</ele><time>2026-03-28T14:42:06.999Z</time></trkpt><trkpt lat="45.414804698788686" lon="11.183302014582214"><ele>49.0</ele><time>2026-03-28T14:42:08.999Z</time></trkpt><trkpt lat="45.41478533661792" lon="11.183477218937327"><ele>49.0</ele><time>2026-03-28T14:42:10.999Z</time></trkpt><trkpt lat="45.414773146205654" lon="11.183584855130457"><ele>49.0</ele><time>2026-03-28T14:42:11.999Z</time></trkpt><trkpt lat="45.41475453166573" lon="11.183722224585082"><ele>49.0</ele><time>2026-03-28T14:42:12.999Z</time></trkpt><trkpt lat="45.41472820596555" lon="11.183875036564766"><ele>49.0</ele><time>2026-03-28T14:42:13.999Z</time></trkpt><trkpt lat="45.41470497660059" lon="11.184041149698672"><ele>49.0</ele><time>2026-03-28T14:42:14.999Z</time></trkpt><trkpt lat="45.41468209718258" lon="11.1842134838168"><ele>49.0</ele><time>2026-03-28T14:42:15.999Z</time></trkpt><trkpt lat="45.4146688680423" lon="11.184375763420347"><ele>49.0</ele><time>2026-03-28T14:42:16.999Z</time></trkpt><trkpt lat="45.41465273861305" lon="11.18453489243964"><ele>49.0</ele><time>2026-03-28T14:42:17.999Z</time></trkpt><trkpt lat="45.41462118258955" lon="11.18473891385516"><ele>49.0</ele><time>2026-03-28T14:42:18.999Z</time></trkpt><trkpt lat="45.414586988980915" lon="11.18496948208477"><ele>49.0</ele><time>2026-03-28T14:42:19.999Z</time></trkpt><trkpt lat="45.41453145054548" lon="11.185268241586016"><ele>49.5</ele><time>2026-03-28T14:42:20.999Z</time></trkpt><trkpt lat="45.41446973169084" lon="11.185628241971058"><ele>50.0</ele><time>2026-03-28T14:42:21.999Z</time></trkpt><trkpt lat="45.41442303804966" lon="11.185932329580503"><ele>49.333333333333336</ele><time>2026-03-28T14:42:22.999Z</time></trkpt><trkpt lat="45.414382412009246" lon="11.186188779681814"><ele>48.66666666666667</ele><time>2026-03-28T14:42:23.999Z</time></trkpt><trkpt lat="45.41435131213129" lon="11.18641782127648"><ele>48.0</ele><time>2026-03-28T14:42:24.999Z</time></trkpt><trkpt lat="45.41432089354628" lon="11.18662066311208"><ele>48.0</ele><time>2026-03-28T14:42:25.999Z</time></trkpt><trkpt lat="45.414292597851635" lon="11.186798091918995"><ele>48.0</ele><time>2026-03-28T14:42:26.999Z</time></trkpt><trkpt lat="45.41426655221039" lon="11.186966153789411"><ele>48.0</ele><time>2026-03-28T14:42:27.999Z</time></trkpt><trkpt lat="45.41424787853498" lon="11.187128672416664"><ele>48.0</ele><time>2026-03-28T14:42:28.999Z</time></trkpt><trkpt lat="45.41422497159304" lon="11.1872728806848"><ele>47.5</ele><time>2026-03-28T14:42:29.999Z</time></trkpt><trkpt lat="45.41419828247476" lon="11.187411884234761"><ele>47.0</ele><time>2026-03-28T14:42:30.999Z</time></trkpt><trkpt lat="45.41416789747416" lon="11.187583425838607"><ele>46.5</ele><time>2026-03-28T14:42:31.999Z</time></trkpt><trkpt lat="45.41413411063676" lon="11.187782348487717"><ele>46.0</ele><time>2026-03-28T14:42:32.999Z</time></trkpt><trkpt lat="45.41410438688784" lon="11.188023136679812"><ele>46.5</ele><time>2026-03-28T14:42:33.999Z</time></trkpt><trkpt lat="45.41407258176765" lon="11.188318873360023"><ele>47.0</ele><time>2026-03-28T14:42:34.999Z</time></trkpt><trkpt lat="45.414026528841596" lon="11.188665052558425"><ele>47.0</ele><time>2026-03-28T14:42:35.999Z</time></trkpt><trkpt lat="45.41397279665118" lon="11.18900653615163"><ele>47.0</ele><time>2026-03-28T14:42:36.999Z</time></trkpt><trkpt lat="45.413928723952615" lon="11.189292789646082"><ele>47.0</ele><time>2026-03-28T14:42:38Z</time></trkpt><trkpt lat="45.4138846097216" lon="11.189562136176557"><ele>47.0</ele><time>2026-03-28T14:42:39Z</time></trkpt><trkpt lat="45.41384669970422" lon="11.189819201881289"><ele>47.0</ele><time>2026-03-28T14:42:40Z</time></trkpt><trkpt lat="45.413807113451554" lon="11.190072464704603"><ele>46.666666666666664</ele><time>2026-03-28T14:42:41Z</time></trkpt><trkpt lat="45.41376639530351" lon="11.1903250151964"><ele>46.333333333333336</ele><time>2026-03-28T14:42:42Z</time></trkpt><trkpt lat="45.41372615648203" lon="11.19057783660865"><ele>46.0</ele><time>2026-03-28T14:42:43Z</time></trkpt><trkpt lat="45.41369414423328" lon="11.190815822721609"><ele>46.0</ele><time>2026-03-28T14:42:44Z</time></trkpt><trkpt lat="45.41365731747047" lon="11.19106025204926"><ele>46.0</ele><time>2026-03-28T14:42:45Z</time></trkpt><trkpt lat="45.41361404775798" lon="11.191319384385125"><ele>46.0</ele><time>2026-03-28T14:42:46Z</time></trkpt><trkpt lat="45.413579800819925" lon="11.1915869158874"><ele>45.0</ele><time>2026-03-28T14:42:47Z</time></trkpt><trkpt lat="45.41354483540516" lon="11.19185419082697"><ele>44.0</ele><time>2026-03-28T14:42:48Z</time></trkpt><trkpt lat="45.413504082359644" lon="11.192138257727784"><ele>43.0</ele><time>2026-03-28T14:42:49Z</time></trkpt><trkpt lat="45.413455424632794" lon="11.19243565371005"><ele>42.66666666666667</ele><time>2026-03-28T14:42:50Z</time></trkpt><trkpt lat="45.413411050075545" lon="11.192727856959982"><ele>42.333333333333336</ele><time>2026-03-28T14:42:51Z</time></trkpt><trkpt lat="45.413368977027844" lon="11.193031617490602"><ele>42.0</ele><time>2026-03-28T14:42:52Z</time></trkpt><trkpt lat="45.41332524611316" lon="11.193338636052703"><ele>41.5</ele><time>2026-03-28T14:42:53Z</time></trkpt><trkpt lat="45.413281212262035" lon="11.193648121746522"><ele>41.0</ele><time>2026-03-28T14:42:54Z</time></trkpt><trkpt lat="45.41323050616001" lon="11.193969730786728"><ele>41.0</ele><time>2026-03-28T14:42:55Z</time></trkpt><trkpt lat="45.41318103923902" lon="11.194293247300397"><ele>41.0</ele><time>2026-03-28T14:42:56Z</time></trkpt><trkpt lat="45.41313736212464" lon="11.194615136119587"><ele>41.0</ele><time>2026-03-28T14:42:57Z</time></trkpt><trkpt lat="45.413094566543094" lon="11.194924833961732"><ele>41.0</ele><time>2026-03-28T14:42:58Z</time></trkpt><trkpt lat="45.413048441219566" lon="11.195237429784125"><ele>41.0</ele><time>2026-03-28T14:42:59Z</time></trkpt><trkpt lat="45.41300208503988" lon="11.195540032981116"><ele>40.33333333333333</ele><time>2026-03-28T14:43:00Z</time></trkpt><trkpt lat="45.412956363183895" lon="11.195844409945815"><ele>39.666666666666664</ele><time>2026-03-28T14:43:01Z</time></trkpt><trkpt lat="45.412913798906224" lon="11.196149155902761"><ele>39.0</ele><time>2026-03-28T14:43:02Z</time></trkpt><trkpt lat="45.41286828434028" lon="11.196456972061437"><ele>38.0</ele><time>2026-03-28T14:43:03Z</time></trkpt><trkpt lat="45.41282223296376" lon="11.19675936696715"><ele>37.0</ele><time>2026-03-28T14:43:04Z</time></trkpt><trkpt lat="45.41278053682115" lon="11.197056489939504"><ele>36.0</ele><time>2026-03-28T14:43:05Z</time></trkpt><trkpt lat="45.41274318379747" lon="11.197323202393608"><ele>36.0</ele><time>2026-03-28T14:43:06Z</time></trkpt><trkpt lat="45.41270505618434" lon="11.19757561402871"><ele>36.0</ele><time>2026-03-28T14:43:07Z</time></trkpt><trkpt lat="45.41267045393824" lon="11.19782528134563"><ele>36.0</ele><time>2026-03-28T14:43:08Z</time></trkpt><trkpt lat="45.41263192877407" lon="11.198087998739677"><ele>35.333333333333336</ele><time>2026-03-28T14:43:09Z</time></trkpt><trkpt lat="45.41259418372121" lon="11.198360917142818"><ele>34.66666666666667</ele><time>2026-03-28T14:43:10Z</time></trkpt><trkpt lat="45.41255257779743" lon="11.198637112453458"><ele>34.0</ele><time>2026-03-28T14:43:11Z</time></trkpt><trkpt lat="45.412513611603984" lon="11.198915081171416"><ele>33.66666666666667</ele><time>2026-03-28T14:43:12Z</time></trkpt><trkpt lat="45.41247509216056" lon="11.199195500050871"><ele>33.333333333333336</ele><time>2026-03-28T14:43:13Z</time></trkpt><trkpt lat="45.41243405118189" lon="11.199464255496556"><ele>33.0</ele><time>2026-03-28T14:43:14Z</time></trkpt><trkpt lat="45.4123951403811" lon="11.199733169330372"><ele>32.333333333333336</ele><time>2026-03-28T14:43:15Z</time></trkpt><trkpt lat="45.41235522622487" lon="11.200002278408768"><ele>31.666666666666668</ele><time>2026-03-28T14:43:16Z</time></trkpt><trkpt lat="45.41230894982244" lon="11.200270607174412"><ele>31.0</ele><time>2026-03-28T14:43:17Z</time></trkpt><trkpt lat="45.412266320000924" lon="11.200540659382131"><ele>29.666666666666668</ele><time>2026-03-28T14:43:18Z</time></trkpt><trkpt lat="45.412225394622745" lon="11.200809636339155"><ele>28.333333333333336</ele><time>2026-03-28T14:43:19Z</time></trkpt><trkpt lat="45.41218242425374" lon="11.201075120236272"><ele>27.0</ele><time>2026-03-28T14:43:20Z</time></trkpt><trkpt lat="45.41213726782051" lon="11.201339205092061"><ele>27.333333333333336</ele><time>2026-03-28T14:43:21Z</time></trkpt><trkpt lat="45.41210074632205" lon="11.20160552619633"><ele>27.666666666666668</ele><time>2026-03-28T14:43:22Z</time></trkpt><trkpt lat="45.412063716052984" lon="11.201871960912317"><ele>28.0</ele><time>2026-03-28T14:43:23Z</time></trkpt><trkpt lat="45.41202259805384" lon="11.202138039094628"><ele>27.666666666666668</ele><time>2026-03-28T14:43:24Z</time></trkpt><trkpt lat="45.41198585442118" lon="11.202403013572138"><ele>27.333333333333336</ele><time>2026-03-28T14:43:25Z</time></trkpt><trkpt lat="45.41195016056179" lon="11.202668499621385"><ele>27.0</ele><time>2026-03-28T14:43:26Z</time></trkpt><trkpt lat="45.41190301166522" lon="11.202939860369543"><ele>26.333333333333336</ele><time>2026-03-28T14:43:27Z</time></trkpt><trkpt lat="45.41185564520359" lon="11.203206690997776"><ele>25.666666666666668</ele><time>2026-03-28T14:43:28Z</time></trkpt><trkpt lat="45.411805543177934" lon="11.203472335286907"><ele>25.0</ele><time>2026-03-28T14:43:29Z</time></trkpt><trkpt lat="45.41176124619129" lon="11.203741092114969"><ele>25.333333333333336</ele><time>2026-03-28T14:43:30Z</time></trkpt><trkpt lat="45.41171682825337" lon="11.204011962299289"><ele>25.666666666666664</ele><time>2026-03-28T14:43:31Z</time></trkpt><trkpt lat="45.41167843483168" lon="11.204282181509742"><ele>26.0</ele><time>2026-03-28T14:43:32Z</time></trkpt><trkpt lat="45.41164096869703" lon="11.204551424071433"><ele>26.0</ele><time>2026-03-28T14:43:33Z</time></trkpt><trkpt lat="45.41160409613913" lon="11.204818660100747"><ele>26.0</ele><time>2026-03-28T14:43:34Z</time></trkpt><trkpt lat="45.41156754235333" lon="11.205100215803228"><ele>26.0</ele><time>2026-03-28T14:43:35Z</time></trkpt><trkpt lat="45.41152264759213" lon="11.205395682224347"><ele>25.666666666666664</ele><time>2026-03-28T14:43:36Z</time></trkpt><trkpt lat="45.411482091084245" lon="11.205686354137743"><ele>25.333333333333336</ele><time>2026-03-28T14:43:36.999Z</time></trkpt><trkpt lat="45.41144420308469" lon="11.20597417196853"><ele>25.0</ele><time>2026-03-28T14:43:37.999Z</time></trkpt><trkpt lat="45.41140664148573" lon="11.206263410397947"><ele>25.333333333333336</ele><time>2026-03-28T14:43:38.999Z</time></trkpt><trkpt lat="45.41136400237497" lon="11.20654978262489"><ele>25.666666666666664</ele><time>2026-03-28T14:43:39.999Z</time></trkpt><trkpt lat="45.411325469644254" lon="11.206838268038181"><ele>26.0</ele><time>2026-03-28T14:43:40.999Z</time></trkpt><trkpt lat="45.411286748148804" lon="11.207122666562285"><ele>25.333333333333332</ele><time>2026-03-28T14:43:41.999Z</time></trkpt><trkpt lat="45.41124078543727" lon="11.207404897133669"><ele>24.666666666666664</ele><time>2026-03-28T14:43:42.999Z</time></trkpt><trkpt lat="45.41120437393651" lon="11.207691190370822"><ele>24.0</ele><time>2026-03-28T14:43:43.999Z</time></trkpt><trkpt lat="45.41115439679367" lon="11.20797322745483"><ele>24.0</ele><time>2026-03-28T14:43:44.999Z</time></trkpt><trkpt lat="45.411111108347114" lon="11.208255069400312"><ele>24.0</ele><time>2026-03-28T14:43:45.999Z</time></trkpt><trkpt lat="45.41107370829755" lon="11.208540031711934"><ele>24.0</ele><time>2026-03-28T14:43:46.999Z</time></trkpt><trkpt lat="45.411029464013964" lon="11.208821697737893"><ele>24.0</ele><time>2026-03-28T14:43:47.999Z</time></trkpt><trkpt lat="45.41098788389055" lon="11.209109754405352"><ele>24.0</ele><time>2026-03-28T14:43:48.999Z</time></trkpt><trkpt lat="45.41093953180767" lon="11.209392231666468"><ele>24.0</ele><time>2026-03-28T14:43:49.999Z</time></trkpt><trkpt lat="45.41089863534574" lon="11.209678017381385"><ele>24.666666666666664</ele><time>2026-03-28T14:43:50.999Z</time></trkpt><trkpt lat="45.4108568435496" lon="11.209955701175174"><ele>25.333333333333332</ele><time>2026-03-28T14:43:51.999Z</time></trkpt><trkpt lat="45.41081387123199" lon="11.210241275933122"><ele>26.0</ele><time>2026-03-28T14:43:52.999Z</time></trkpt><trkpt lat="45.41076960925304" lon="11.210527489142821"><ele>26.666666666666664</ele><time>2026-03-28T14:43:53.999Z</time></trkpt><trkpt lat="45.410731292753475" lon="11.210809342986565"><ele>27.333333333333336</ele><time>2026-03-28T14:43:54.999Z</time></trkpt><trkpt lat="45.410692028443776" lon="11.211092826968887"><ele>28.0</ele><time>2026-03-28T14:43:55.999Z</time></trkpt><trkpt lat="45.41064981209343" lon="11.21137919279296"><ele>28.333333333333336</ele><time>2026-03-28T14:43:56.999Z</time></trkpt><trkpt lat="45.410604212534714" lon="11.211665975182758"><ele>28.666666666666664</ele><time>2026-03-28T14:43:57.999Z</time></trkpt><trkpt lat="45.41056212446577" lon="11.211950816623595"><ele>29.0</ele><time>2026-03-28T14:43:58.999Z</time></trkpt><trkpt lat="45.410518166092324" lon="11.21223286946434"><ele>28.666666666666664</ele><time>2026-03-28T14:43:59.999Z</time></trkpt><trkpt lat="45.41047481332935" lon="11.212515474018673"><ele>28.333333333333336</ele><time>2026-03-28T14:44:00.999Z</time></trkpt><trkpt lat="45.41042963955173" lon="11.212799968759553"><ele>28.0</ele><time>2026-03-28T14:44:01.999Z</time></trkpt><trkpt lat="45.41038188269029" lon="11.213087712780034"><ele>28.333333333333336</ele><time>2026-03-28T14:44:02.999Z</time></trkpt><trkpt lat="45.410341211200375" lon="11.213372134731596"><ele>28.666666666666664</ele><time>2026-03-28T14:44:03.999Z</time></trkpt><trkpt lat="45.41030319084942" lon="11.213657620797523"><ele>29.0</ele><time>2026-03-28T14:44:04.999Z</time></trkpt><trkpt lat="45.41026080752966" lon="11.213919813420459"><ele>29.0</ele><time>2026-03-28T14:44:05.999Z</time></trkpt><trkpt lat="45.41021772704202" lon="11.21415157642616"><ele>29.0</ele><time>2026-03-28T14:44:06.999Z</time></trkpt><trkpt lat="45.41019232944338" lon="11.214374038354187"><ele>29.0</ele><time>2026-03-28T14:44:07.999Z</time></trkpt><trkpt lat="45.41016271581793" lon="11.214585408645707"><ele>29.0</ele><time>2026-03-28T14:44:08.999Z</time></trkpt><trkpt lat="45.41012906336149" lon="11.214793258215595"><ele>29.0</ele><time>2026-03-28T14:44:09.999Z</time></trkpt><trkpt lat="45.41009837803522" lon="11.21500153488414"><ele>29.0</ele><time>2026-03-28T14:44:10.999Z</time></trkpt><trkpt lat="45.41006966304762" lon="11.21521198213672"><ele>29.25</ele><time>2026-03-28T14:44:11.999Z</time></trkpt><trkpt lat="45.41003810043711" lon="11.215428440786255"><ele>29.5</ele><time>2026-03-28T14:44:12.999Z</time></trkpt><trkpt lat="45.41000546162973" lon="11.215633859636776"><ele>29.75</ele><time>2026-03-28T14:44:13.999Z</time></trkpt><trkpt lat="45.40997298955736" lon="11.215833000664928"><ele>30.0</ele><time>2026-03-28T14:44:14.999Z</time></trkpt><trkpt lat="45.40993905976175" lon="11.216031141683978"><ele>30.25</ele><time>2026-03-28T14:44:15.999Z</time></trkpt><trkpt lat="45.40990898848262" lon="11.216225011200429"><ele>30.5</ele><time>2026-03-28T14:44:16.999Z</time></trkpt><trkpt lat="45.40987635877524" lon="11.21643040494441"><ele>30.75</ele><time>2026-03-28T14:44:17.999Z</time></trkpt><trkpt lat="45.409842622456914" lon="11.216652851927801"><ele>31.0</ele><time>2026-03-28T14:44:18.999Z</time></trkpt><trkpt lat="45.40981255835646" lon="11.216876564987102"><ele>31.0</ele><time>2026-03-28T14:44:19.999Z</time></trkpt><trkpt lat="45.40977991644142" lon="11.21710249885933"><ele>31.0</ele><time>2026-03-28T14:44:20.999Z</time></trkpt><trkpt lat="45.409751099404254" lon="11.217304227424211"><ele>31.0</ele><time>2026-03-28T14:44:21.999Z</time></trkpt><trkpt lat="45.409719533496045" lon="11.217494025873636"><ele>31.0</ele><time>2026-03-28T14:44:22.999Z</time></trkpt><trkpt lat="45.40969393738403" lon="11.217668932966733"><ele>30.75</ele><time>2026-03-28T14:44:23.999Z</time></trkpt><trkpt lat="45.40966844638046" lon="11.217836802575057"><ele>30.5</ele><time>2026-03-28T14:44:24.999Z</time></trkpt><trkpt lat="45.409644683438536" lon="11.217997060242167"><ele>30.25</ele><time>2026-03-28T14:44:25.999Z</time></trkpt><trkpt lat="45.40961682420495" lon="11.218164488746364"><ele>30.0</ele><time>2026-03-28T14:44:26.999Z</time></trkpt><trkpt lat="45.40959500671433" lon="11.218334086867289"><ele>29.5</ele><time>2026-03-28T14:44:27.999Z</time></trkpt><trkpt lat="45.409567041144484" lon="11.218505512782944"><ele>29.0</ele><time>2026-03-28T14:44:28.999Z</time></trkpt><trkpt lat="45.40954024224703" lon="11.218687278137152"><ele>28.5</ele><time>2026-03-28T14:44:29.999Z</time></trkpt><trkpt lat="45.4095149513198" lon="11.218867954501025"><ele>28.0</ele><time>2026-03-28T14:44:30.999Z</time></trkpt><trkpt lat="45.409488605958124" lon="11.219043350585064"><ele>28.0</ele><time>2026-03-28T14:44:31.999Z</time></trkpt><trkpt lat="45.409460524154504" lon="11.219230279853338"><ele>28.0</ele><time>2026-03-28T14:44:32.999Z</time></trkpt><trkpt lat="45.40943131378222" lon="11.21941645966249"><ele>28.0</ele><time>2026-03-28T14:44:33.999Z</time></trkpt><trkpt lat="45.40940189085463" lon="11.219604743438195"><ele>28.0</ele><time>2026-03-28T14:44:34.999Z</time></trkpt><trkpt lat="45.40937259951531" lon="11.219790554465675"><ele>28.75</ele><time>2026-03-28T14:44:35.999Z</time></trkpt><trkpt lat="45.409345649892686" lon="11.219986534926932"><ele>29.5</ele><time>2026-03-28T14:44:36.999Z</time></trkpt><trkpt lat="45.40932033150877" lon="11.220162997473336"><ele>30.25</ele><time>2026-03-28T14:44:37.999Z</time></trkpt><trkpt lat="45.4092949796409" lon="11.220328393146078"><ele>31.0</ele><time>2026-03-28T14:44:38.999Z</time></trkpt><trkpt lat="45.409268232740175" lon="11.220485112857071"><ele>31.0</ele><time>2026-03-28T14:44:39.999Z</time></trkpt><trkpt lat="45.409244857029485" lon="11.22064462651205"><ele>31.0</ele><time>2026-03-28T14:44:40.999Z</time></trkpt><trkpt lat="45.409224768815186" lon="11.220798585824143"><ele>31.0</ele><time>2026-03-28T14:44:41.999Z</time></trkpt><trkpt lat="45.409205811822595" lon="11.22093762749676"><ele>31.0</ele><time>2026-03-28T14:44:42.999Z</time></trkpt><trkpt lat="45.4091872762185" lon="11.221066111378962"><ele>31.0</ele><time>2026-03-28T14:44:44Z</time></trkpt><trkpt lat="45.40917187847647" lon="11.221174348725253"><ele>30.666666666666668</ele><time>2026-03-28T14:44:45Z</time></trkpt><trkpt lat="45.40915259249447" lon="11.221280910261603"><ele>30.333333333333336</ele><time>2026-03-28T14:44:46Z</time></trkpt><trkpt lat="45.409131409969795" lon="11.221373104448377"><ele>30.0</ele><time>2026-03-28T14:44:47Z</time></trkpt><trkpt lat="45.40908882433295" lon="11.221456329454883"><ele>29.666666666666664</ele><time>2026-03-28T14:44:49Z</time></trkpt><trkpt lat="45.409025714066246" lon="11.221530257947594"><ele>29.333333333333332</ele><time>2026-03-28T14:44:51Z</time></trkpt><trkpt lat="45.40896833202529" lon="11.221599521027366"><ele>29.0</ele><time>2026-03-28T14:44:52Z</time></trkpt><trkpt lat="45.40889950820027" lon="11.221685852016309"><ele>29.0</ele><time>2026-03-28T14:44:53Z</time></trkpt><trkpt lat="45.40884128768945" lon="11.2217766946876"><ele>29.0</ele><time>2026-03-28T14:44:54Z</time></trkpt><trkpt lat="45.40880800449176" lon="11.221877489680338"><ele>29.0</ele><time>2026-03-28T14:44:55Z</time></trkpt><trkpt lat="45.408782692988645" lon="11.222005726342523"><ele>29.0</ele><time>2026-03-28T14:44:56Z</time></trkpt><trkpt lat="45.408771353033515" lon="11.222145548842423"><ele>29.0</ele><time>2026-03-28T14:44:57Z</time></trkpt><trkpt lat="45.4087958356691" lon="11.2222905724302"><ele>28.75</ele><time>2026-03-28T14:44:58Z</time></trkpt><trkpt lat="45.40884014853803" lon="11.222436603140048"><ele>28.5</ele><time>2026-03-28T14:44:59Z</time></trkpt><trkpt lat="45.40888832519144" lon="11.222599034400771"><ele>28.25</ele><time>2026-03-28T14:45:00Z</time></trkpt><trkpt lat="45.408910191591126" lon="11.222774858726833"><ele>28.0</ele><time>2026-03-28T14:45:01Z</time></trkpt><trkpt lat="45.40890100402406" lon="11.22297808621904"><ele>28.333333333333336</ele><time>2026-03-28T14:45:02Z</time></trkpt><trkpt lat="45.40887471980759" lon="11.223181391819974"><ele>28.666666666666664</ele><time>2026-03-28T14:45:03Z</time></trkpt><trkpt lat="45.4088371718335" lon="11.2234039476625"><ele>29.0</ele><time>2026-03-28T14:45:04Z</time></trkpt><trkpt lat="45.40880330866133" lon="11.223624957019531"><ele>29.25</ele><time>2026-03-28T14:45:05Z</time></trkpt><trkpt lat="45.40877623976189" lon="11.223824953371688"><ele>29.5</ele><time>2026-03-28T14:45:06Z</time></trkpt><trkpt lat="45.40874694878086" lon="11.22401922612087"><ele>29.75</ele><time>2026-03-28T14:45:07Z</time></trkpt><trkpt lat="45.40871837868941" lon="11.224223399950947"><ele>30.0</ele><time>2026-03-28T14:45:08Z</time></trkpt><trkpt lat="45.40868945321576" lon="11.22442886619088"><ele>30.0</ele><time>2026-03-28T14:45:09Z</time></trkpt><trkpt lat="45.408658708343516" lon="11.224632979546534"><ele>30.0</ele><time>2026-03-28T14:45:10Z</time></trkpt><trkpt lat="45.4086270855273" lon="11.224831498514542"><ele>30.0</ele><time>2026-03-28T14:45:11Z</time></trkpt><trkpt lat="45.40859141416564" lon="11.225031481808342"><ele>30.0</ele><time>2026-03-28T14:45:12Z</time></trkpt><trkpt lat="45.40855409118897" lon="11.22523902968339"><ele>30.0</ele><time>2026-03-28T14:45:13Z</time></trkpt><trkpt lat="45.408524870699154" lon="11.225451393031005"><ele>30.0</ele><time>2026-03-28T14:45:14Z</time></trkpt><trkpt lat="45.40849708310165" lon="11.225664268237251"><ele>30.0</ele><time>2026-03-28T14:45:15Z</time></trkpt><trkpt lat="45.408469226573416" lon="11.225874659076064"><ele>30.0</ele><time>2026-03-28T14:45:16Z</time></trkpt><trkpt lat="45.40843859364506" lon="11.22609337823989"><ele>30.0</ele><time>2026-03-28T14:45:17Z</time></trkpt><trkpt lat="45.40840658883133" lon="11.226301229621395"><ele>30.0</ele><time>2026-03-28T14:45:18Z</time></trkpt><trkpt lat="45.408379648079205" lon="11.226511690378702"><ele>30.0</ele><time>2026-03-28T14:45:19Z</time></trkpt><trkpt lat="45.40835252945103" lon="11.226729043147387"><ele>30.0</ele><time>2026-03-28T14:45:20Z</time></trkpt><trkpt lat="45.40831799510754" lon="11.226941597028034"><ele>30.0</ele><time>2026-03-28T14:45:21Z</time></trkpt><trkpt lat="45.40828575548623" lon="11.227155726477582"><ele>30.333333333333336</ele><time>2026-03-28T14:45:22Z</time></trkpt><trkpt lat="45.40825480955081" lon="11.227375597424144"><ele>30.666666666666668</ele><time>2026-03-28T14:45:23Z</time></trkpt><trkpt lat="45.408222258274876" lon="11.227595252022432"><ele>31.0</ele><time>2026-03-28T14:45:24Z</time></trkpt><trkpt lat="45.40819178928067" lon="11.227796501684832"><ele>31.0</ele><time>2026-03-28T14:45:25Z</time></trkpt><trkpt lat="45.40816413118148" lon="11.227991215644606"><ele>31.0</ele><time>2026-03-28T14:45:26Z</time></trkpt><trkpt lat="45.408134538699386" lon="11.228184160556175"><ele>31.0</ele><time>2026-03-28T14:45:27Z</time></trkpt><trkpt lat="45.408103204977266" lon="11.228378905971407"><ele>31.0</ele><time>2026-03-28T14:45:28Z</time></trkpt><trkpt lat="45.408072283856875" lon="11.228569846966499"><ele>31.25</ele><time>2026-03-28T14:45:29Z</time></trkpt><trkpt lat="45.40804349817419" lon="11.228755116927088"><ele>31.5</ele><time>2026-03-28T14:45:30Z</time></trkpt><trkpt lat="45.408013325054014" lon="11.22895432320864"><ele>31.75</ele><time>2026-03-28T14:45:31Z</time></trkpt><trkpt lat="45.40798511070787" lon="11.229155618328894"><ele>32.0</ele><time>2026-03-28T14:45:32Z</time></trkpt><trkpt lat="45.40795812613039" lon="11.229357601974716"><ele>31.5</ele><time>2026-03-28T14:45:33Z</time></trkpt><trkpt lat="45.40792859576376" lon="11.229552172497133"><ele>31.0</ele><time>2026-03-28T14:45:34Z</time></trkpt><trkpt lat="45.407900772700636" lon="11.229737936099166"><ele>30.5</ele><time>2026-03-28T14:45:35Z</time></trkpt><trkpt lat="45.407877061543026" lon="11.229925332275263"><ele>30.0</ele><time>2026-03-28T14:45:36Z</time></trkpt><trkpt lat="45.40785086663188" lon="11.230092739233568"><ele>30.0</ele><time>2026-03-28T14:45:37Z</time></trkpt><trkpt lat="45.40781953253743" lon="11.230257825299365"><ele>30.0</ele><time>2026-03-28T14:45:38Z</time></trkpt><trkpt lat="45.407793828391306" lon="11.23043504398241"><ele>30.0</ele><time>2026-03-28T14:45:39Z</time></trkpt><trkpt lat="45.40776658790722" lon="11.23062406353236"><ele>30.0</ele><time>2026-03-28T14:45:40Z</time></trkpt><trkpt lat="45.407739362947225" lon="11.23081569836763"><ele>30.666666666666664</ele><time>2026-03-28T14:45:41Z</time></trkpt><trkpt lat="45.40771324222158" lon="11.231009656267352"><ele>31.333333333333332</ele><time>2026-03-28T14:45:42Z</time></trkpt><trkpt lat="45.40768014206799" lon="11.231245759243684"><ele>32.0</ele><time>2026-03-28T14:45:43Z</time></trkpt><trkpt lat="45.40765002159471" lon="11.231471462378861"><ele>32.33333333333333</ele><time>2026-03-28T14:45:44Z</time></trkpt><trkpt lat="45.4076143159641" lon="11.231712512175308"><ele>32.666666666666664</ele><time>2026-03-28T14:45:45Z</time></trkpt><trkpt lat="45.407582543728076" lon="11.231945037137264"><ele>33.0</ele><time>2026-03-28T14:45:46Z</time></trkpt><trkpt lat="45.407547702919466" lon="11.232172905287175"><ele>32.75</ele><time>2026-03-28T14:45:47Z</time></trkpt><trkpt lat="45.407509561138845" lon="11.232390248115207"><ele>32.5</ele><time>2026-03-28T14:45:48Z</time></trkpt><trkpt lat="45.40747576982101" lon="11.232588637013498"><ele>32.25</ele><time>2026-03-28T14:45:49Z</time></trkpt><trkpt lat="45.40744306648167" lon="11.232788646636607"><ele>32.0</ele><time>2026-03-28T14:45:50Z</time></trkpt><trkpt lat="45.40741359691266" lon="11.2329834513081"><ele>31.5</ele><time>2026-03-28T14:45:51Z</time></trkpt><trkpt lat="45.407388334694005" lon="11.233162310274873"><ele>31.0</ele><time>2026-03-28T14:45:52Z</time></trkpt><trkpt lat="45.40736306918131" lon="11.233337273232618"><ele>30.5</ele><time>2026-03-28T14:45:53Z</time></trkpt><trkpt lat="45.40733661777763" lon="11.2335276055347"><ele>30.0</ele><time>2026-03-28T14:45:54Z</time></trkpt><trkpt lat="45.407306714224525" lon="11.233719119977957"><ele>30.0</ele><time>2026-03-28T14:45:55Z</time></trkpt><trkpt lat="45.40727937942634" lon="11.233910785109732"><ele>30.0</ele><time>2026-03-28T14:45:56Z</time></trkpt><trkpt lat="45.40725289429123" lon="11.234095779601068"><ele>30.0</ele><time>2026-03-28T14:45:57Z</time></trkpt><trkpt lat="45.40722329696301" lon="11.23429140502895"><ele>30.0</ele><time>2026-03-28T14:45:58Z</time></trkpt><trkpt lat="45.407192301282485" lon="11.234482723966902"><ele>30.0</ele><time>2026-03-28T14:45:59Z</time></trkpt><trkpt lat="45.40716398112093" lon="11.234666336390102"><ele>30.0</ele><time>2026-03-28T14:46:00Z</time></trkpt><trkpt lat="45.407140603207075" lon="11.23484469376154"><ele>30.0</ele><time>2026-03-28T14:46:01Z</time></trkpt><trkpt lat="45.40711363875058" lon="11.23502819205577"><ele>30.0</ele><time>2026-03-28T14:46:02Z</time></trkpt><trkpt lat="45.407084750363424" lon="11.235208018522515"><ele>30.0</ele><time>2026-03-28T14:46:03Z</time></trkpt><trkpt lat="45.407055551513" lon="11.235383807877474"><ele>30.0</ele><time>2026-03-28T14:46:04Z</time></trkpt><trkpt lat="45.40702699891331" lon="11.235559496940699"><ele>30.0</ele><time>2026-03-28T14:46:05Z</time></trkpt><trkpt lat="45.407001285205446" lon="11.235739648482403"><ele>30.0</ele><time>2026-03-28T14:46:06Z</time></trkpt><trkpt lat="45.40697600832251" lon="11.235923471351228"><ele>29.75</ele><time>2026-03-28T14:46:06.999Z</time></trkpt><trkpt lat="45.406946058469295" lon="11.236109171032457"><ele>29.5</ele><time>2026-03-28T14:46:07.999Z</time></trkpt><trkpt lat="45.40691841734211" lon="11.236294251908873"><ele>29.25</ele><time>2026-03-28T14:46:08.999Z</time></trkpt><trkpt lat="45.40689288033069" lon="11.236478994705257"><ele>29.0</ele><time>2026-03-28T14:46:09.999Z</time></trkpt><trkpt lat="45.40685850505559" lon="11.236663015083902"><ele>29.0</ele><time>2026-03-28T14:46:10.999Z</time></trkpt><trkpt lat="45.40682604945167" lon="11.236849989418491"><ele>29.0</ele><time>2026-03-28T14:46:11.999Z</time></trkpt><trkpt lat="45.40679791065749" lon="11.237035663685342"><ele>29.0</ele><time>2026-03-28T14:46:12.999Z</time></trkpt><trkpt lat="45.40677360869428" lon="11.237211220434267"><ele>29.0</ele><time>2026-03-28T14:46:13.999Z</time></trkpt><trkpt lat="45.406749068050765" lon="11.237363819873464"><ele>28.999999999999996</ele><time>2026-03-28T14:46:14.999Z</time></trkpt><trkpt lat="45.40672664380162" lon="11.237505181585272"><ele>29.0</ele><time>2026-03-28T14:46:15.999Z</time></trkpt><trkpt lat="45.406710621737446" lon="11.237620798299965"><ele>29.0</ele><time>2026-03-28T14:46:16.999Z</time></trkpt><trkpt lat="45.40669780749816" lon="11.237727069727834"><ele>29.0</ele><time>2026-03-28T14:46:17.999Z</time></trkpt><trkpt lat="45.40668659150915" lon="11.237830590523968"><ele>28.999999999999996</ele><time>2026-03-28T14:46:18.999Z</time></trkpt><trkpt lat="45.40667662739718" lon="11.237931268455245"><ele>29.0</ele><time>2026-03-28T14:46:19.999Z</time></trkpt><trkpt lat="45.406667084280166" lon="11.238026690024357"><ele>28.999999999999996</ele><time>2026-03-28T14:46:20.999Z</time></trkpt><trkpt lat="45.40665913757888" lon="11.238117766000656"><ele>29.0</ele><time>2026-03-28T14:46:21.999Z</time></trkpt><trkpt lat="45.406648831010514" lon="11.238208558410488"><ele>29.0</ele><time>2026-03-28T14:46:22.999Z</time></trkpt><trkpt lat="45.40663318772953" lon="11.238316986851304"><ele>29.0</ele><time>2026-03-28T14:46:23.999Z</time></trkpt><trkpt lat="45.40661269657544" lon="11.238444866630322"><ele>28.999999999999996</ele><time>2026-03-28T14:46:24.999Z</time></trkpt><trkpt lat="45.40659379311847" lon="11.23857190825093"><ele>29.0</ele><time>2026-03-28T14:46:25.999Z</time></trkpt><trkpt lat="45.40657664155298" lon="11.23869175843123"><ele>28.999999999999996</ele><time>2026-03-28T14:46:26.999Z</time></trkpt><trkpt lat="45.40656219458026" lon="11.238808822463838"><ele>29.0</ele><time>2026-03-28T14:46:27.999Z</time></trkpt><trkpt lat="45.40654688951189" lon="11.238930516154753"><ele>29.0</ele><time>2026-03-28T14:46:28.999Z</time></trkpt><trkpt lat="45.40653598277103" lon="11.239027954728586"><ele>29.0</ele><time>2026-03-28T14:46:29.999Z</time></trkpt><trkpt lat="45.406526623705176" lon="11.239118357012432"><ele>28.999999999999996</ele><time>2026-03-28T14:46:30.999Z</time></trkpt><trkpt lat="45.406508034306384" lon="11.239287944531313"><ele>29.0</ele><time>2026-03-28T14:46:32.999Z</time></trkpt><trkpt lat="45.406469803054485" lon="11.239445371620999"><ele>29.0</ele><time>2026-03-28T14:46:34.999Z</time></trkpt><trkpt lat="45.40640372771441" lon="11.239570428112279"><ele>29.0</ele><time>2026-03-28T14:46:36.999Z</time></trkpt><trkpt lat="45.40634679275278" lon="11.239689861370998"><ele>29.0</ele><time>2026-03-28T14:46:38.999Z</time></trkpt><trkpt lat="45.40635537285319" lon="11.239824245059056"><ele>29.0</ele><time>2026-03-28T14:46:40.999Z</time></trkpt><trkpt lat="45.40636505664206" lon="11.239935580393551"><ele>29.0</ele><time>2026-03-28T14:46:42.999Z</time></trkpt><trkpt lat="45.40636965539699" lon="11.240031419764247"><ele>29.2</ele><time>2026-03-28T14:46:44.999Z</time></trkpt><trkpt lat="45.40636228915969" lon="11.240140769983078"><ele>29.4</ele><time>2026-03-28T14:46:48.999Z</time></trkpt><trkpt lat="45.40634919918825" lon="11.240265338020333"><ele>29.6</ele><time>2026-03-28T14:46:53Z</time></trkpt><trkpt lat="45.40633186444575" lon="11.240416243589126"><ele>29.8</ele><time>2026-03-28T14:46:55Z</time></trkpt><trkpt lat="45.40630153657782" lon="11.240589147816669"><ele>30.0</ele><time>2026-03-28T14:46:57Z</time></trkpt><trkpt lat="45.40626163531908" lon="11.24066312749912"><ele>30.0</ele><time>2026-03-28T14:46:58Z</time></trkpt><trkpt lat="45.40626924497589" lon="11.240754485271319"><ele>30.0</ele><time>2026-03-28T14:46:59Z</time></trkpt><trkpt lat="45.40624734760654" lon="11.24084965296379"><ele>30.0</ele><time>2026-03-28T14:47:00Z</time></trkpt><trkpt lat="45.40622723845751" lon="11.240954851060549"><ele>30.0</ele><time>2026-03-28T14:47:01Z</time></trkpt><trkpt lat="45.4062123008943" lon="11.241081167663513"><ele>30.0</ele><time>2026-03-28T14:47:02Z</time></trkpt><trkpt lat="45.40619807055651" lon="11.241207132710668"><ele>30.0</ele><time>2026-03-28T14:47:03Z</time></trkpt><trkpt lat="45.406181730934094" lon="11.24131566287903"><ele>30.0</ele><time>2026-03-28T14:47:04Z</time></trkpt><trkpt lat="45.4061634971971" lon="11.241417680064904"><ele>30.0</ele><time>2026-03-28T14:47:05Z</time></trkpt><trkpt lat="45.40614922232976" lon="11.241510433499611"><ele>30.0</ele><time>2026-03-28T14:47:06Z</time></trkpt><trkpt lat="45.406123482285516" lon="11.241687371842225"><ele>30.0</ele><time>2026-03-28T14:47:07Z</time></trkpt><trkpt lat="45.40610460574669" lon="11.241816322946415"><ele>30.0</ele><time>2026-03-28T14:47:08Z</time></trkpt><trkpt lat="45.40609029315455" lon="11.241938962072393"><ele>30.0</ele><time>2026-03-28T14:47:09Z</time></trkpt><trkpt lat="45.40608049878508" lon="11.242093065380562"><ele>29.666666666666664</ele><time>2026-03-28T14:47:10Z</time></trkpt><trkpt lat="45.406053709365565" lon="11.242298161361218"><ele>29.333333333333332</ele><time>2026-03-28T14:47:11Z</time></trkpt><trkpt lat="45.40601024641614" lon="11.242560663662077"><ele>29.0</ele><time>2026-03-28T14:47:12Z</time></trkpt><trkpt lat="45.40595603530979" lon="11.242870472864572"><ele>29.0</ele><time>2026-03-28T14:47:13Z</time></trkpt><trkpt lat="45.40590384925343" lon="11.243245004205285"><ele>29.0</ele><time>2026-03-28T14:47:14Z</time></trkpt><trkpt lat="45.40585005766192" lon="11.243614739219346"><ele>29.0</ele><time>2026-03-28T14:47:15Z</time></trkpt><trkpt lat="45.4058002270992" lon="11.24391077143201"><ele>29.0</ele><time>2026-03-28T14:47:16Z</time></trkpt><trkpt lat="45.405752653246374" lon="11.24417713831443"><ele>29.0</ele><time>2026-03-28T14:47:17Z</time></trkpt><trkpt lat="45.405707526837155" lon="11.244415866107433"><ele>29.333333333333332</ele><time>2026-03-28T14:47:18Z</time></trkpt><trkpt lat="45.40567483801469" lon="11.244640650063056"><ele>29.666666666666664</ele><time>2026-03-28T14:47:19Z</time></trkpt><trkpt lat="45.40564768391492" lon="11.244849716712661"><ele>30.0</ele><time>2026-03-28T14:47:20Z</time></trkpt><trkpt lat="45.40561890286645" lon="11.245045520134195"><ele>30.0</ele><time>2026-03-28T14:47:21Z</time></trkpt><trkpt lat="45.40558785584053" lon="11.245226493026665"><ele>30.0</ele><time>2026-03-28T14:47:22Z</time></trkpt><trkpt lat="45.40556577619301" lon="11.245396217637492"><ele>30.0</ele><time>2026-03-28T14:47:23Z</time></trkpt><trkpt lat="45.4055417531686" lon="11.245552439642161"><ele>30.0</ele><time>2026-03-28T14:47:24Z</time></trkpt><trkpt lat="45.40551793232806" lon="11.245694981279167"><ele>30.0</ele><time>2026-03-28T14:47:25Z</time></trkpt><trkpt lat="45.40549777449526" lon="11.245838009955719"><ele>30.0</ele><time>2026-03-28T14:47:26Z</time></trkpt><trkpt lat="45.4054744349606" lon="11.245985721996027"><ele>30.0</ele><time>2026-03-28T14:47:27Z</time></trkpt><trkpt lat="45.4054508048799" lon="11.246126754615458"><ele>30.0</ele><time>2026-03-28T14:47:28Z</time></trkpt><trkpt lat="45.40542914532036" lon="11.246269597045245"><ele>30.0</ele><time>2026-03-28T14:47:29Z</time></trkpt><trkpt lat="45.40540938418844" lon="11.246417927140275"><ele>30.0</ele><time>2026-03-28T14:47:30Z</time></trkpt><trkpt lat="45.40538777215051" lon="11.246559459582299"><ele>30.0</ele><time>2026-03-28T14:47:31Z</time></trkpt><trkpt lat="45.40536625421539" lon="11.246692541227368"><ele>30.0</ele><time>2026-03-28T14:47:32Z</time></trkpt><trkpt lat="45.40533939677619" lon="11.246819929798148"><ele>30.0</ele><time>2026-03-28T14:47:33Z</time></trkpt><trkpt lat="45.40531082514919" lon="11.24694401349904"><ele>30.0</ele><time>2026-03-28T14:47:34Z</time></trkpt><trkpt lat="45.40529042447702" lon="11.247070921791115"><ele>30.0</ele><time>2026-03-28T14:47:35Z</time></trkpt><trkpt lat="45.40526741715288" lon="11.247201066760645"><ele>30.0</ele><time>2026-03-28T14:47:36Z</time></trkpt><trkpt lat="45.405262403706146" lon="11.247340639050796"><ele>30.0</ele><time>2026-03-28T14:47:37Z</time></trkpt><trkpt lat="45.40524412114325" lon="11.24747073749802"><ele>30.0</ele><time>2026-03-28T14:47:38Z</time></trkpt><trkpt lat="45.405225174935346" lon="11.247609502084808"><ele>30.0</ele><time>2026-03-28T14:47:39Z</time></trkpt><trkpt lat="45.40521124105017" lon="11.247746668778676"><ele>29.8</ele><time>2026-03-28T14:47:40Z</time></trkpt><trkpt lat="45.40518855759457" lon="11.247876268622193"><ele>29.6</ele><time>2026-03-28T14:47:41Z</time></trkpt><trkpt lat="45.4051665780322" lon="11.248011248333572"><ele>29.4</ele><time>2026-03-28T14:47:42Z</time></trkpt><trkpt lat="45.40513645310691" lon="11.248145044985968"><ele>29.2</ele><time>2026-03-28T14:47:43Z</time></trkpt><trkpt lat="45.40511538076176" lon="11.248284140797713"><ele>29.0</ele><time>2026-03-28T14:47:44Z</time></trkpt><trkpt lat="45.405090494022424" lon="11.248419590994004"><ele>29.0</ele><time>2026-03-28T14:47:45Z</time></trkpt><trkpt lat="45.40507031857368" lon="11.248553338204102"><ele>29.0</ele><time>2026-03-28T14:47:46Z</time></trkpt><trkpt lat="45.40505219583134" lon="11.24869288273546"><ele>29.0</ele><time>2026-03-28T14:47:47Z</time></trkpt><trkpt lat="45.405032335099975" lon="11.248833986700696"><ele>29.0</ele><time>2026-03-28T14:47:48Z</time></trkpt><trkpt lat="45.40500764982354" lon="11.248975406703732"><ele>29.0</ele><time>2026-03-28T14:47:49Z</time></trkpt><trkpt lat="45.404987375104355" lon="11.249120926415657"><ele>29.0</ele><time>2026-03-28T14:47:50Z</time></trkpt><trkpt lat="45.40496530045765" lon="11.249275826234777"><ele>29.0</ele><time>2026-03-28T14:47:51Z</time></trkpt><trkpt lat="45.404943439440295" lon="11.249450380796326"><ele>29.0</ele><time>2026-03-28T14:47:52Z</time></trkpt><trkpt lat="45.40491834418794" lon="11.249617521991684"><ele>29.0</ele><time>2026-03-28T14:47:53Z</time></trkpt><trkpt lat="45.404897124196516" lon="11.249799063728176"><ele>28.666666666666664</ele><time>2026-03-28T14:47:54Z</time></trkpt><trkpt lat="45.4048717293845" lon="11.249990251584006"><ele>28.333333333333336</ele><time>2026-03-28T14:47:55Z</time></trkpt><trkpt lat="45.40484512897233" lon="11.25020284454071"><ele>28.0</ele><time>2026-03-28T14:47:56Z</time></trkpt><trkpt lat="45.404817247482804" lon="11.25043131895082"><ele>28.0</ele><time>2026-03-28T14:47:57Z</time></trkpt><trkpt lat="45.40478956450406" lon="11.250672143673222"><ele>28.0</ele><time>2026-03-28T14:47:58Z</time></trkpt><trkpt lat="45.4047631489365" lon="11.250924353777261"><ele>28.0</ele><time>2026-03-28T14:47:59Z</time></trkpt><trkpt lat="45.40473547115983" lon="11.251183360878546"><ele>28.0</ele><time>2026-03-28T14:48:00Z</time></trkpt><trkpt lat="45.404709944200214" lon="11.251428256164155"><ele>28.0</ele><time>2026-03-28T14:48:01Z</time></trkpt><trkpt lat="45.40469095726932" lon="11.251640831475235"><ele>28.0</ele><time>2026-03-28T14:48:02Z</time></trkpt><trkpt lat="45.404672058194386" lon="11.251844008936247"><ele>28.666666666666668</ele><time>2026-03-28T14:48:03Z</time></trkpt><trkpt lat="45.40464676396309" lon="11.252063633550451"><ele>29.333333333333336</ele><time>2026-03-28T14:48:04Z</time></trkpt><trkpt lat="45.40462481871792" lon="11.252276197492165"><ele>30.0</ele><time>2026-03-28T14:48:05Z</time></trkpt><trkpt lat="45.404600078632285" lon="11.252485788053201"><ele>28.666666666666664</ele><time>2026-03-28T14:48:06Z</time></trkpt><trkpt lat="45.40457669164318" lon="11.252713153160894"><ele>27.333333333333332</ele><time>2026-03-28T14:48:07Z</time></trkpt><trkpt lat="45.40455248021946" lon="11.252952044563465"><ele>26.0</ele><time>2026-03-28T14:48:07.999Z</time></trkpt><trkpt lat="45.40452724535317" lon="11.253189730439304"><ele>25.666666666666664</ele><time>2026-03-28T14:48:08.999Z</time></trkpt><trkpt lat="45.40450082571309" lon="11.253412233566463"><ele>25.333333333333336</ele><time>2026-03-28T14:48:09.999Z</time></trkpt><trkpt lat="45.40447343469224" lon="11.253632716149182"><ele>25.0</ele><time>2026-03-28T14:48:10.999Z</time></trkpt><trkpt lat="45.404449221789086" lon="11.253847210569429"><ele>24.333333333333336</ele><time>2026-03-28T14:48:11.999Z</time></trkpt><trkpt lat="45.40441987729799" lon="11.254065397898293"><ele>23.666666666666668</ele><time>2026-03-28T14:48:12.999Z</time></trkpt><trkpt lat="45.40439078602774" lon="11.254284937641106"><ele>23.0</ele><time>2026-03-28T14:48:13.999Z</time></trkpt><trkpt lat="45.404366412186654" lon="11.254510028800214"><ele>23.0</ele><time>2026-03-28T14:48:14.999Z</time></trkpt><trkpt lat="45.4043406945495" lon="11.25474519731635"><ele>23.0</ele><time>2026-03-28T14:48:15.999Z</time></trkpt><trkpt lat="45.404312177246425" lon="11.254985864445459"><ele>23.0</ele><time>2026-03-28T14:48:16.999Z</time></trkpt><trkpt lat="45.40428210313667" lon="11.255225830144935"><ele>22.666666666666668</ele><time>2026-03-28T14:48:17.999Z</time></trkpt><trkpt lat="45.40425482372085" lon="11.255456764906558"><ele>22.333333333333332</ele><time>2026-03-28T14:48:18.999Z</time></trkpt><trkpt lat="45.40423151789207" lon="11.25569289066492"><ele>22.0</ele><time>2026-03-28T14:48:19.999Z</time></trkpt><trkpt lat="45.40420703379988" lon="11.255924442560318"><ele>23.0</ele><time>2026-03-28T14:48:20.999Z</time></trkpt><trkpt lat="45.404184472832654" lon="11.256165617155617"><ele>24.0</ele><time>2026-03-28T14:48:21.999Z</time></trkpt><trkpt lat="45.40415850340031" lon="11.256396919346543"><ele>25.0</ele><time>2026-03-28T14:48:22.999Z</time></trkpt><trkpt lat="45.404132776934" lon="11.256622452482532"><ele>25.0</ele><time>2026-03-28T14:48:23.999Z</time></trkpt><trkpt lat="45.404104331682134" lon="11.25686164636728"><ele>25.0</ele><time>2026-03-28T14:48:24.999Z</time></trkpt><trkpt lat="45.40408014785189" lon="11.257092588683049"><ele>25.0</ele><time>2026-03-28T14:48:25.999Z</time></trkpt><trkpt lat="45.40405353073025" lon="11.25731648768696"><ele>25.0</ele><time>2026-03-28T14:48:26.999Z</time></trkpt><trkpt lat="45.40402544836306" lon="11.25754224265696"><ele>25.0</ele><time>2026-03-28T14:48:27.999Z</time></trkpt><trkpt lat="45.403993620692916" lon="11.257741133504663"><ele>25.0</ele><time>2026-03-28T14:48:28.999Z</time></trkpt><trkpt lat="45.40395813346933" lon="11.257943078836858"><ele>25.25</ele><time>2026-03-28T14:48:29.999Z</time></trkpt><trkpt lat="45.40391793909879" lon="11.258149230311025"><ele>25.5</ele><time>2026-03-28T14:48:30.999Z</time></trkpt><trkpt lat="45.403874513042354" lon="11.258341721063951"><ele>25.75</ele><time>2026-03-28T14:48:31.999Z</time></trkpt><trkpt lat="45.403829201770485" lon="11.258526425778076"><ele>26.0</ele><time>2026-03-28T14:48:32.999Z</time></trkpt><trkpt lat="45.40378590686865" lon="11.258711274122541"><ele>26.0</ele><time>2026-03-28T14:48:33.999Z</time></trkpt><trkpt lat="45.403744903320366" lon="11.258885045956141"><ele>26.0</ele><time>2026-03-28T14:48:34.999Z</time></trkpt><trkpt lat="45.4037071691677" lon="11.259049233186138"><ele>26.0</ele><time>2026-03-28T14:48:35.999Z</time></trkpt><trkpt lat="45.40366916530925" lon="11.259208952611678"><ele>26.0</ele><time>2026-03-28T14:48:36.999Z</time></trkpt><trkpt lat="45.40363684018723" lon="11.259357044062591"><ele>26.200000000000003</ele><time>2026-03-28T14:48:37.999Z</time></trkpt><trkpt lat="45.403608869178726" lon="11.2594931459007"><ele>26.400000000000002</ele><time>2026-03-28T14:48:38.999Z</time></trkpt><trkpt lat="45.40358034699224" lon="11.259618466876674"><ele>26.6</ele><time>2026-03-28T14:48:39.999Z</time></trkpt><trkpt lat="45.403556706121655" lon="11.259743422734912"><ele>26.8</ele><time>2026-03-28T14:48:40.999Z</time></trkpt><trkpt lat="45.4035336036304" lon="11.259861470959562"><ele>27.0</ele><time>2026-03-28T14:48:41.999Z</time></trkpt><trkpt lat="45.403508126073895" lon="11.259975506660895"><ele>27.333333333333332</ele><time>2026-03-28T14:48:42.999Z</time></trkpt><trkpt lat="45.40348242170234" lon="11.26009498128806"><ele>27.666666666666664</ele><time>2026-03-28T14:48:43.999Z</time></trkpt><trkpt lat="45.40345711108072" lon="11.260212969647473"><ele>28.0</ele><time>2026-03-28T14:48:44.999Z</time></trkpt><trkpt lat="45.403435926265544" lon="11.260329787177037"><ele>28.333333333333332</ele><time>2026-03-28T14:48:45.999Z</time></trkpt><trkpt lat="45.40341632043801" lon="11.2604429912911"><ele>28.666666666666664</ele><time>2026-03-28T14:48:46.999Z</time></trkpt><trkpt lat="45.40339851792068" lon="11.260548904281523"><ele>29.0</ele><time>2026-03-28T14:48:47.999Z</time></trkpt><trkpt lat="45.40338297187154" lon="11.260637129440283"><ele>29.499999999999996</ele><time>2026-03-28T14:48:48.999Z</time></trkpt><trkpt lat="45.40335021696656" lon="11.260809359564524"><ele>30.0</ele><time>2026-03-28T14:48:50.999Z</time></trkpt><trkpt lat="45.40333450751302" lon="11.260900124836061"><ele>30.5</ele><time>2026-03-28T14:48:51.999Z</time></trkpt><trkpt lat="45.403316851629754" lon="11.260998361092406"><ele>31.0</ele><time>2026-03-28T14:48:52.999Z</time></trkpt><trkpt lat="45.40329913927122" lon="11.261090176550647"><ele>31.499999999999996</ele><time>2026-03-28T14:48:53.999Z</time></trkpt><trkpt lat="45.403268113525115" lon="11.261255979851176"><ele>32.0</ele><time>2026-03-28T14:48:56Z</time></trkpt><trkpt lat="45.4032572206092" lon="11.261352481165423"><ele>32.166666666666664</ele><time>2026-03-28T14:48:58Z</time></trkpt><trkpt lat="45.40322015904292" lon="11.261487972115416"><ele>32.33333333333333</ele><time>2026-03-28T14:49:03Z</time></trkpt><trkpt lat="45.403211684412824" lon="11.261625890588522"><ele>32.5</ele><time>2026-03-28T14:49:05Z</time></trkpt><trkpt lat="45.403211211336696" lon="11.261769491039539"><ele>32.666666666666664</ele><time>2026-03-28T14:49:07Z</time></trkpt><trkpt lat="45.403206926205826" lon="11.261870936566439"><ele>32.833333333333336</ele><time>2026-03-28T14:49:08Z</time></trkpt><trkpt lat="45.403197981524805" lon="11.261963152027432"><ele>33.0</ele><time>2026-03-28T14:49:09Z</time></trkpt><trkpt lat="45.40316922228699" lon="11.262114243788197"><ele>33.0</ele><time>2026-03-28T14:49:11Z</time></trkpt><trkpt lat="45.40314768935567" lon="11.262206832096778"><ele>33.0</ele><time>2026-03-28T14:49:12Z</time></trkpt><trkpt lat="45.403132177916014" lon="11.262328987670156"><ele>33.0</ele><time>2026-03-28T14:49:13Z</time></trkpt><trkpt lat="45.403123149725026" lon="11.26245227537328"><ele>33.0</ele><time>2026-03-28T14:49:14Z</time></trkpt><trkpt lat="45.40312171487082" lon="11.262572598960693"><ele>33.0</ele><time>2026-03-28T14:49:15Z</time></trkpt><trkpt lat="45.40312135924942" lon="11.262717987276229"><ele>33.0</ele><time>2026-03-28T14:49:16Z</time></trkpt><trkpt lat="45.40313898255586" lon="11.262910524540786"><ele>32.333333333333336</ele><time>2026-03-28T14:49:17Z</time></trkpt><trkpt lat="45.40317940501958" lon="11.263129597776636"><ele>31.666666666666668</ele><time>2026-03-28T14:49:18Z</time></trkpt><trkpt lat="45.40323498617736" lon="11.263370416754258"><ele>31.0</ele><time>2026-03-28T14:49:19Z</time></trkpt><trkpt lat="45.403305206325754" lon="11.263592035854343"><ele>31.0</ele><time>2026-03-28T14:49:20Z</time></trkpt><trkpt lat="45.40338237013934" lon="11.263823521064653"><ele>31.0</ele><time>2026-03-28T14:49:21Z</time></trkpt><trkpt lat="45.403450626455225" lon="11.264030215230084"><ele>31.0</ele><time>2026-03-28T14:49:22Z</time></trkpt><trkpt lat="45.40351359316242" lon="11.264225978456333"><ele>31.0</ele><time>2026-03-28T14:49:23Z</time></trkpt><trkpt lat="45.40356138573583" lon="11.264410087030196"><ele>31.0</ele><time>2026-03-28T14:49:24Z</time></trkpt><trkpt lat="45.4035920612292" lon="11.264579509955878"><ele>31.0</ele><time>2026-03-28T14:49:25Z</time></trkpt><trkpt lat="45.403601199938564" lon="11.264737277678778"><ele>31.0</ele><time>2026-03-28T14:49:26Z</time></trkpt><trkpt lat="45.40358247276122" lon="11.264894807412848"><ele>31.200000000000003</ele><time>2026-03-28T14:49:27Z</time></trkpt><trkpt lat="45.403533843704516" lon="11.265051140565797"><ele>31.400000000000002</ele><time>2026-03-28T14:49:28Z</time></trkpt><trkpt lat="45.4034692326447" lon="11.265183539864985"><ele>31.6</ele><time>2026-03-28T14:49:29Z</time></trkpt><trkpt lat="45.40341483499263" lon="11.265293756238934"><ele>31.8</ele><time>2026-03-28T14:49:30Z</time></trkpt><trkpt lat="45.403396154056274" lon="11.26540448971047"><ele>32.0</ele><time>2026-03-28T14:49:31Z</time></trkpt><trkpt lat="45.403424553486396" lon="11.265540357312897"><ele>31.75</ele><time>2026-03-28T14:49:32Z</time></trkpt><trkpt lat="45.403490057805456" lon="11.265684874353234"><ele>31.5</ele><time>2026-03-28T14:49:33Z</time></trkpt><trkpt lat="45.40357230851881" lon="11.265849874134744"><ele>31.25</ele><time>2026-03-28T14:49:34Z</time></trkpt><trkpt lat="45.40364534234962" lon="11.26600640559477"><ele>31.0</ele><time>2026-03-28T14:49:35Z</time></trkpt><trkpt lat="45.40370965443631" lon="11.266143402276706"><ele>31.0</ele><time>2026-03-28T14:49:36Z</time></trkpt><trkpt lat="45.40376828088592" lon="11.266266106741464"><ele>31.0</ele><time>2026-03-28T14:49:37Z</time></trkpt><trkpt lat="45.40381310119145" lon="11.266389424746365"><ele>31.0</ele><time>2026-03-28T14:49:38Z</time></trkpt><trkpt lat="45.40384039579745" lon="11.266517824138663"><ele>31.0</ele><time>2026-03-28T14:49:39Z</time></trkpt><trkpt lat="45.40385589780797" lon="11.266657127737265"><ele>31.0</ele><time>2026-03-28T14:49:40Z</time></trkpt><trkpt lat="45.40385495239461" lon="11.266823874715383"><ele>30.666666666666668</ele><time>2026-03-28T14:49:41Z</time></trkpt><trkpt lat="45.40386889285212" lon="11.267027432912005"><ele>30.333333333333336</ele><time>2026-03-28T14:49:42Z</time></trkpt><trkpt lat="45.40389903808948" lon="11.267291378272144"><ele>30.0</ele><time>2026-03-28T14:49:43Z</time></trkpt><trkpt lat="45.4039315940442" lon="11.267624719464504"><ele>30.5</ele><time>2026-03-28T14:49:44Z</time></trkpt><trkpt lat="45.403966430738826" lon="11.268008005449632"><ele>31.0</ele><time>2026-03-28T14:49:45Z</time></trkpt><trkpt lat="45.40400348521657" lon="11.268434829861478"><ele>31.0</ele><time>2026-03-28T14:49:46Z</time></trkpt><trkpt lat="45.404046716679396" lon="11.268898744691445"><ele>31.0</ele><time>2026-03-28T14:49:47Z</time></trkpt><trkpt lat="45.4040916227482" lon="11.269391467253316"><ele>30.5</ele><time>2026-03-28T14:49:48Z</time></trkpt><trkpt lat="45.40413376944149" lon="11.269841297490473"><ele>30.0</ele><time>2026-03-28T14:49:49Z</time></trkpt><trkpt lat="45.404172619515585" lon="11.27024422501666"><ele>30.0</ele><time>2026-03-28T14:49:50Z</time></trkpt><trkpt lat="45.40420641568854" lon="11.270606801041092"><ele>30.0</ele><time>2026-03-28T14:49:51Z</time></trkpt><trkpt lat="45.404235514787985" lon="11.270954873447554"><ele>30.5</ele><time>2026-03-28T14:49:52Z</time></trkpt><trkpt lat="45.40425932883552" lon="11.27128395837045"><ele>31.0</ele><time>2026-03-28T14:49:53Z</time></trkpt><trkpt lat="45.40428564753911" lon="11.27159315242156"><ele>31.0</ele><time>2026-03-28T14:49:54Z</time></trkpt><trkpt lat="45.40431278457557" lon="11.271888601466085"><ele>31.0</ele><time>2026-03-28T14:49:55Z</time></trkpt><trkpt lat="45.404339240335446" lon="11.272179404388956"><ele>31.0</ele><time>2026-03-28T14:49:56Z</time></trkpt><trkpt lat="45.40436121531105" lon="11.27246715752944"><ele>30.666666666666668</ele><time>2026-03-28T14:49:57Z</time></trkpt><trkpt lat="45.40438771594511" lon="11.272773631696268"><ele>30.333333333333336</ele><time>2026-03-28T14:49:58Z</time></trkpt><trkpt lat="45.40441102713189" lon="11.27308112922279"><ele>30.0</ele><time>2026-03-28T14:49:59Z</time></trkpt><trkpt lat="45.40444080128676" lon="11.273384371926547"><ele>30.0</ele><time>2026-03-28T14:50:00Z</time></trkpt><trkpt lat="45.4044700074984" lon="11.273677641365316"><ele>30.0</ele><time>2026-03-28T14:50:01Z</time></trkpt><trkpt lat="45.404494083310055" lon="11.2739617437627"><ele>30.0</ele><time>2026-03-28T14:50:02Z</time></trkpt><trkpt lat="45.404517043185784" lon="11.274229565157373"><ele>30.0</ele><time>2026-03-28T14:50:03Z</time></trkpt><trkpt lat="45.404539384130196" lon="11.274468680459941"><ele>30.0</ele><time>2026-03-28T14:50:04Z</time></trkpt><trkpt lat="45.404556879912256" lon="11.274708159593851"><ele>30.0</ele><time>2026-03-28T14:50:05Z</time></trkpt><trkpt lat="45.40457614967118" lon="11.274931521766746"><ele>30.0</ele><time>2026-03-28T14:50:06Z</time></trkpt><trkpt lat="45.40459642275228" lon="11.275152196918457"><ele>30.0</ele><time>2026-03-28T14:50:07Z</time></trkpt><trkpt lat="45.40461682988841" lon="11.275382544065135"><ele>30.0</ele><time>2026-03-28T14:50:08Z</time></trkpt><trkpt lat="45.404635547988015" lon="11.275598022387054"><ele>30.0</ele><time>2026-03-28T14:50:09Z</time></trkpt><trkpt lat="45.40465453937428" lon="11.275816002086799"><ele>30.0</ele><time>2026-03-28T14:50:10Z</time></trkpt><trkpt lat="45.404671377984165" lon="11.276036526633492"><ele>30.0</ele><time>2026-03-28T14:50:11Z</time></trkpt><trkpt lat="45.404688868397116" lon="11.276248852008154"><ele>29.75</ele><time>2026-03-28T14:50:12Z</time></trkpt><trkpt lat="45.40470468605273" lon="11.276453408962578"><ele>29.5</ele><time>2026-03-28T14:50:13Z</time></trkpt><trkpt lat="45.40472273872253" lon="11.276647367500596"><ele>29.25</ele><time>2026-03-28T14:50:14Z</time></trkpt><trkpt lat="45.404740848680795" lon="11.276843919636175"><ele>29.0</ele><time>2026-03-28T14:50:15Z</time></trkpt><trkpt lat="45.40476512946328" lon="11.277040548681937"><ele>29.0</ele><time>2026-03-28T14:50:16Z</time></trkpt><trkpt lat="45.404785555666855" lon="11.27722001041708"><ele>29.0</ele><time>2026-03-28T14:50:17Z</time></trkpt><trkpt lat="45.404802230444936" lon="11.277377697297341"><ele>29.0</ele><time>2026-03-28T14:50:18Z</time></trkpt><trkpt lat="45.40481158708801" lon="11.277530124365583"><ele>29.0</ele><time>2026-03-28T14:50:19Z</time></trkpt><trkpt lat="45.40482036361079" lon="11.27767325584829"><ele>29.0</ele><time>2026-03-28T14:50:20Z</time></trkpt><trkpt lat="45.40483667624568" lon="11.277812122968598"><ele>29.2</ele><time>2026-03-28T14:50:21Z</time></trkpt><trkpt lat="45.40485008712485" lon="11.277963264848506"><ele>29.4</ele><time>2026-03-28T14:50:22Z</time></trkpt><trkpt lat="45.4048630388436" lon="11.278119565621251"><ele>29.6</ele><time>2026-03-28T14:50:22.999Z</time></trkpt><trkpt lat="45.4048803442219" lon="11.278278939146004"><ele>29.8</ele><time>2026-03-28T14:50:23.999Z</time></trkpt><trkpt lat="45.40489297326954" lon="11.278442819406129"><ele>30.0</ele><time>2026-03-28T14:50:24.999Z</time></trkpt><trkpt lat="45.40490863930044" lon="11.27861962714213"><ele>30.25</ele><time>2026-03-28T14:50:25.999Z</time></trkpt><trkpt lat="45.40492179729448" lon="11.278804948085629"><ele>30.5</ele><time>2026-03-28T14:50:26.999Z</time></trkpt><trkpt lat="45.404945386761256" lon="11.279004846726675"><ele>30.75</ele><time>2026-03-28T14:50:27.999Z</time></trkpt><trkpt lat="45.404959782702974" lon="11.279211744321659"><ele>31.0</ele><time>2026-03-28T14:50:28.999Z</time></trkpt><trkpt lat="45.40497623007237" lon="11.279426604014285"><ele>31.0</ele><time>2026-03-28T14:50:29.999Z</time></trkpt><trkpt lat="45.40499436803863" lon="11.279642575991272"><ele>31.0</ele><time>2026-03-28T14:50:30.999Z</time></trkpt><trkpt lat="45.40501421529483" lon="11.279863291221298"><ele>31.0</ele><time>2026-03-28T14:50:31.999Z</time></trkpt><trkpt lat="45.405032034489224" lon="11.28008928261001"><ele>30.666666666666668</ele><time>2026-03-28T14:50:32.999Z</time></trkpt><trkpt lat="45.40505374931279" lon="11.280320047253205"><ele>30.333333333333336</ele><time>2026-03-28T14:50:33.999Z</time></trkpt><trkpt lat="45.40507961462625" lon="11.280553994017962"><ele>30.0</ele><time>2026-03-28T14:50:34.999Z</time></trkpt><trkpt lat="45.4051028355584" lon="11.280798646817424"><ele>30.0</ele><time>2026-03-28T14:50:35.999Z</time></trkpt><trkpt lat="45.405123472292644" lon="11.2810450925497"><ele>30.0</ele><time>2026-03-28T14:50:36.999Z</time></trkpt><trkpt lat="45.405139111585825" lon="11.28128036809487"><ele>30.0</ele><time>2026-03-28T14:50:37.999Z</time></trkpt><trkpt lat="45.405161681608185" lon="11.281507278490725"><ele>30.0</ele><time>2026-03-28T14:50:38.999Z</time></trkpt><trkpt lat="45.405185928584515" lon="11.281732359798962"><ele>30.0</ele><time>2026-03-28T14:50:39.999Z</time></trkpt><trkpt lat="45.40520345852671" lon="11.281951978128523"><ele>30.0</ele><time>2026-03-28T14:50:40.999Z</time></trkpt><trkpt lat="45.40522299491859" lon="11.282161041505137"><ele>30.25</ele><time>2026-03-28T14:50:41.999Z</time></trkpt><trkpt lat="45.4052419591154" lon="11.282362989788956"><ele>30.5</ele><time>2026-03-28T14:50:42.999Z</time></trkpt><trkpt lat="45.405262755231334" lon="11.28256963190745"><ele>30.75</ele><time>2026-03-28T14:50:43.999Z</time></trkpt><trkpt lat="45.405282175551406" lon="11.282778907979543"><ele>31.0</ele><time>2026-03-28T14:50:44.999Z</time></trkpt><trkpt lat="45.405300496697365" lon="11.282991906691656"><ele>31.0</ele><time>2026-03-28T14:50:45.999Z</time></trkpt><trkpt lat="45.4053151095413" lon="11.28321049740301"><ele>31.0</ele><time>2026-03-28T14:50:46.999Z</time></trkpt><trkpt lat="45.405335936684246" lon="11.283435926254954"><ele>31.0</ele><time>2026-03-28T14:50:47.999Z</time></trkpt><trkpt lat="45.40535664563404" lon="11.283659059269954"><ele>31.0</ele><time>2026-03-28T14:50:48.999Z</time></trkpt><trkpt lat="45.40537815859914" lon="11.283895955180633"><ele>31.0</ele><time>2026-03-28T14:50:49.999Z</time></trkpt><trkpt lat="45.405402243039546" lon="11.284134112329228"><ele>31.0</ele><time>2026-03-28T14:50:50.999Z</time></trkpt><trkpt lat="45.405423467375435" lon="11.284364441208147"><ele>31.0</ele><time>2026-03-28T14:50:51.999Z</time></trkpt><trkpt lat="45.40544541239061" lon="11.284590622769713"><ele>31.0</ele><time>2026-03-28T14:50:52.999Z</time></trkpt><trkpt lat="45.405461859176185" lon="11.284822745986414"><ele>31.0</ele><time>2026-03-28T14:50:53.999Z</time></trkpt><trkpt lat="45.40548189083428" lon="11.285054155104401"><ele>30.666666666666668</ele><time>2026-03-28T14:50:54.999Z</time></trkpt><trkpt lat="45.40550504746961" lon="11.285292467730969"><ele>30.333333333333336</ele><time>2026-03-28T14:50:55.999Z</time></trkpt><trkpt lat="45.40552767523467" lon="11.285531754832435"><ele>30.0</ele><time>2026-03-28T14:50:56.999Z</time></trkpt><trkpt lat="45.4055485161553" lon="11.28576771319588"><ele>30.0</ele><time>2026-03-28T14:50:57.999Z</time></trkpt><trkpt lat="45.40557052287352" lon="11.286001490435355"><ele>30.0</ele><time>2026-03-28T14:50:58.999Z</time></trkpt><trkpt lat="45.40559513958611" lon="11.286240759030465"><ele>30.0</ele><time>2026-03-28T14:50:59.999Z</time></trkpt><trkpt lat="45.40561820870943" lon="11.286479513676865"><ele>30.0</ele><time>2026-03-28T14:51:00.999Z</time></trkpt><trkpt lat="45.40563938030657" lon="11.286721731072651"><ele>30.0</ele><time>2026-03-28T14:51:02Z</time></trkpt><trkpt lat="45.405659331922486" lon="11.286953692821077"><ele>30.0</ele><time>2026-03-28T14:51:03Z</time></trkpt><trkpt lat="45.405684390497036" lon="11.28719342148974"><ele>30.0</ele><time>2026-03-28T14:51:04Z</time></trkpt><trkpt lat="45.405710170307664" lon="11.287434573432012"><ele>30.0</ele><time>2026-03-28T14:51:05Z</time></trkpt><trkpt lat="45.405733683988906" lon="11.287672748103425"><ele>30.0</ele><time>2026-03-28T14:51:06Z</time></trkpt><trkpt lat="45.40575471552012" lon="11.287911482753362"><ele>29.333333333333336</ele><time>2026-03-28T14:51:07Z</time></trkpt><trkpt lat="45.405772860299784" lon="11.288144005225574"><ele>28.666666666666668</ele><time>2026-03-28T14:51:08Z</time></trkpt><trkpt lat="45.40579807932418" lon="11.288384159949855"><ele>28.0</ele><time>2026-03-28T14:51:09Z</time></trkpt><trkpt lat="45.40581808371087" lon="11.288639696244259"><ele>28.0</ele><time>2026-03-28T14:51:10Z</time></trkpt><trkpt lat="45.40584286743736" lon="11.288896667571692"><ele>28.0</ele><time>2026-03-28T14:51:11Z</time></trkpt><trkpt lat="45.40586808014191" lon="11.289161031459127"><ele>28.0</ele><time>2026-03-28T14:51:12Z</time></trkpt><trkpt lat="45.40589622700892" lon="11.289418759700272"><ele>28.666666666666668</ele><time>2026-03-28T14:51:13Z</time></trkpt><trkpt lat="45.40592042971701" lon="11.28968126741769"><ele>29.333333333333336</ele><time>2026-03-28T14:51:14Z</time></trkpt><trkpt lat="45.40594252937907" lon="11.289933124847979"><ele>30.0</ele><time>2026-03-28T14:51:15Z</time></trkpt><trkpt lat="45.405963993969486" lon="11.290183818247414"><ele>30.0</ele><time>2026-03-28T14:51:16Z</time></trkpt><trkpt lat="45.405988619948154" lon="11.29043285597363"><ele>30.0</ele><time>2026-03-28T14:51:17Z</time></trkpt><trkpt lat="45.40601490305628" lon="11.290692234831923"><ele>30.0</ele><time>2026-03-28T14:51:18Z</time></trkpt><trkpt lat="45.406043881951334" lon="11.290946948052563"><ele>29.666666666666664</ele><time>2026-03-28T14:51:19Z</time></trkpt><trkpt lat="45.406066049223334" lon="11.291201532757979"><ele>29.333333333333332</ele><time>2026-03-28T14:51:20Z</time></trkpt><trkpt lat="45.40608940598349" lon="11.291453486534111"><ele>29.0</ele><time>2026-03-28T14:51:21Z</time></trkpt><trkpt lat="45.40611086920323" lon="11.291703807660088"><ele>29.0</ele><time>2026-03-28T14:51:22Z</time></trkpt><trkpt lat="45.40613751410629" lon="11.291971781937407"><ele>29.0</ele><time>2026-03-28T14:51:23Z</time></trkpt><trkpt lat="45.406160942620865" lon="11.292220767108857"><ele>29.0</ele><time>2026-03-28T14:51:24Z</time></trkpt><trkpt lat="45.40618223448395" lon="11.292483224681632"><ele>29.333333333333332</ele><time>2026-03-28T14:51:25Z</time></trkpt><trkpt lat="45.406204022550355" lon="11.292730169552474"><ele>29.666666666666664</ele><time>2026-03-28T14:51:26Z</time></trkpt><trkpt lat="45.406228950786826" lon="11.292990160837766"><ele>30.0</ele><time>2026-03-28T14:51:27Z</time></trkpt><trkpt lat="45.4062558865586" lon="11.29324190197491"><ele>30.0</ele><time>2026-03-28T14:51:28Z</time></trkpt><trkpt lat="45.40627743727947" lon="11.293509406262821"><ele>30.0</ele><time>2026-03-28T14:51:29Z</time></trkpt><trkpt lat="45.406303833719626" lon="11.29375796032518"><ele>30.0</ele><time>2026-03-28T14:51:30Z</time></trkpt><trkpt lat="45.40632396872771" lon="11.294020074438585"><ele>30.333333333333336</ele><time>2026-03-28T14:51:31Z</time></trkpt><trkpt lat="45.40634716702665" lon="11.29426718116891"><ele>30.666666666666668</ele><time>2026-03-28T14:51:32Z</time></trkpt><trkpt lat="45.406369039243835" lon="11.294529840592368"><ele>31.0</ele><time>2026-03-28T14:51:33Z</time></trkpt><trkpt lat="45.406394891228615" lon="11.2947647336074"><ele>31.0</ele><time>2026-03-28T14:51:34Z</time></trkpt><trkpt lat="45.406421137065976" lon="11.294979809741815"><ele>31.0</ele><time>2026-03-28T14:51:35Z</time></trkpt><trkpt lat="45.40644585100284" lon="11.295175269650658"><ele>31.0</ele><time>2026-03-28T14:51:36Z</time></trkpt><trkpt lat="45.4064751078307" lon="11.295358932913985"><ele>31.0</ele><time>2026-03-28T14:51:37Z</time></trkpt><trkpt lat="45.40649782759473" lon="11.295506214160959"><ele>30.6</ele><time>2026-03-28T14:51:38Z</time></trkpt><trkpt lat="45.406504611395384" lon="11.295627244432703"><ele>30.200000000000003</ele><time>2026-03-28T14:51:39Z</time></trkpt><trkpt lat="45.40649236656834" lon="11.295737690877287"><ele>29.799999999999997</ele><time>2026-03-28T14:51:40Z</time></trkpt><trkpt lat="45.40645202237548" lon="11.29585659798545"><ele>29.4</ele><time>2026-03-28T14:51:41Z</time></trkpt><trkpt lat="45.40642509910592" lon="11.29599109526295"><ele>29.0</ele><time>2026-03-28T14:51:42Z</time></trkpt><trkpt lat="45.40643901429501" lon="11.296138838901987"><ele>29.0</ele><time>2026-03-28T14:51:43Z</time></trkpt><trkpt lat="45.40649022517489" lon="11.29626004804262"><ele>29.0</ele><time>2026-03-28T14:51:44Z</time></trkpt><trkpt lat="45.40657744648905" lon="11.296353882788615"><ele>29.0</ele><time>2026-03-28T14:51:45Z</time></trkpt><trkpt lat="45.4066903556466" lon="11.296387188650996"><ele>29.0</ele><time>2026-03-28T14:51:46Z</time></trkpt><trkpt lat="45.406771588737215" lon="11.296570104371117"><ele>29.0</ele><time>2026-03-28T14:51:47Z</time></trkpt><trkpt lat="45.406835892967635" lon="11.296752404059324"><ele>29.0</ele><time>2026-03-28T14:51:48Z</time></trkpt><trkpt lat="45.406892548859936" lon="11.296982439922177"><ele>29.0</ele><time>2026-03-28T14:51:49Z</time></trkpt><trkpt lat="45.40695746878809" lon="11.297238863998695"><ele>29.0</ele><time>2026-03-28T14:51:50Z</time></trkpt><trkpt lat="45.40703340272133" lon="11.29749379224565"><ele>29.0</ele><time>2026-03-28T14:51:51Z</time></trkpt><trkpt lat="45.40710367068207" lon="11.297720562076927"><ele>29.0</ele><time>2026-03-28T14:51:52Z</time></trkpt><trkpt lat="45.40716412247178" lon="11.297918254321868"><ele>29.333333333333332</ele><time>2026-03-28T14:51:53Z</time></trkpt><trkpt lat="45.40722054990353" lon="11.298108910032125"><ele>29.666666666666664</ele><time>2026-03-28T14:51:54Z</time></trkpt><trkpt lat="45.40727727329114" lon="11.298314590757826"><ele>30.0</ele><time>2026-03-28T14:51:55Z</time></trkpt><trkpt lat="45.40733380625922" lon="11.298511439778979"><ele>30.0</ele><time>2026-03-28T14:51:56Z</time></trkpt><trkpt lat="45.407393275025164" lon="11.298714502232276"><ele>30.0</ele><time>2026-03-28T14:51:57Z</time></trkpt><trkpt lat="45.4074528259637" lon="11.298916618161392"><ele>30.0</ele><time>2026-03-28T14:51:58Z</time></trkpt><trkpt lat="45.40750921974748" lon="11.299110521590435"><ele>29.333333333333336</ele><time>2026-03-28T14:51:59Z</time></trkpt><trkpt lat="45.40756844595644" lon="11.299311809997292"><ele>28.666666666666668</ele><time>2026-03-28T14:52:00Z</time></trkpt><trkpt lat="45.40762653084285" lon="11.29952419973537"><ele>28.0</ele><time>2026-03-28T14:52:01Z</time></trkpt><trkpt lat="45.40768564451936" lon="11.299721528540596"><ele>28.0</ele><time>2026-03-28T14:52:02Z</time></trkpt><trkpt lat="45.40774953430056" lon="11.299943504689741"><ele>28.0</ele><time>2026-03-28T14:52:03Z</time></trkpt><trkpt lat="45.4078121219469" lon="11.300161244707564"><ele>28.0</ele><time>2026-03-28T14:52:04Z</time></trkpt><trkpt lat="45.40788165163815" lon="11.300405854768465"><ele>28.0</ele><time>2026-03-28T14:52:05Z</time></trkpt><trkpt lat="45.407952281686576" lon="11.300643113832386"><ele>28.0</ele><time>2026-03-28T14:52:06Z</time></trkpt><trkpt lat="45.408027043178144" lon="11.300901114481077"><ele>28.0</ele><time>2026-03-28T14:52:07Z</time></trkpt><trkpt lat="45.40809463855546" lon="11.301122413633061"><ele>28.0</ele><time>2026-03-28T14:52:08Z</time></trkpt><trkpt lat="45.408156467050176" lon="11.301346080312205"><ele>28.0</ele><time>2026-03-28T14:52:09Z</time></trkpt><trkpt lat="45.40822260693473" lon="11.301562609969466"><ele>28.0</ele><time>2026-03-28T14:52:10Z</time></trkpt><trkpt lat="45.408290494112215" lon="11.301804363378412"><ele>28.0</ele><time>2026-03-28T14:52:11Z</time></trkpt><trkpt lat="45.40835876091949" lon="11.302046208017124"><ele>28.0</ele><time>2026-03-28T14:52:12Z</time></trkpt><trkpt lat="45.40842851635669" lon="11.302279396728238"><ele>28.0</ele><time>2026-03-28T14:52:13Z</time></trkpt><trkpt lat="45.40849665375296" lon="11.302517306958222"><ele>28.333333333333336</ele><time>2026-03-28T14:52:14Z</time></trkpt><trkpt lat="45.40856779047659" lon="11.302757885300693"><ele>28.666666666666664</ele><time>2026-03-28T14:52:15Z</time></trkpt><trkpt lat="45.408637712323056" lon="11.302998009854548"><ele>29.0</ele><time>2026-03-28T14:52:16Z</time></trkpt><trkpt lat="45.40870615840361" lon="11.303238602501295"><ele>29.0</ele><time>2026-03-28T14:52:17Z</time></trkpt><trkpt lat="45.40877342036023" lon="11.303485075647917"><ele>29.0</ele><time>2026-03-28T14:52:18Z</time></trkpt><trkpt lat="45.408843045945616" lon="11.303718325655113"><ele>29.0</ele><time>2026-03-28T14:52:18.999Z</time></trkpt><trkpt lat="45.408911044079154" lon="11.303962918682268"><ele>29.0</ele><time>2026-03-28T14:52:19.999Z</time></trkpt><trkpt lat="45.408982043747514" lon="11.304197310324483"><ele>29.0</ele><time>2026-03-28T14:52:20.999Z</time></trkpt><trkpt lat="45.409052705841695" lon="11.304437319768706"><ele>29.0</ele><time>2026-03-28T14:52:21.999Z</time></trkpt><trkpt lat="45.409122904849156" lon="11.304666172060527"><ele>28.666666666666664</ele><time>2026-03-28T14:52:22.999Z</time></trkpt><trkpt lat="45.40918186008" lon="11.304896040310464"><ele>28.333333333333336</ele><time>2026-03-28T14:52:23.999Z</time></trkpt><trkpt lat="45.40924119755987" lon="11.305100015070265"><ele>28.0</ele><time>2026-03-28T14:52:24.999Z</time></trkpt><trkpt lat="45.40930119501847" lon="11.305313658490478"><ele>28.0</ele><time>2026-03-28T14:52:25.999Z</time></trkpt><trkpt lat="45.409358183650006" lon="11.305510685222208"><ele>28.0</ele><time>2026-03-28T14:52:26.999Z</time></trkpt><trkpt lat="45.40942084654046" lon="11.305711733737981"><ele>28.0</ele><time>2026-03-28T14:52:27.999Z</time></trkpt><trkpt lat="45.409482868748924" lon="11.305931373256813"><ele>28.0</ele><time>2026-03-28T14:52:28.999Z</time></trkpt><trkpt lat="45.40953818764986" lon="11.306127815326635"><ele>28.0</ele><time>2026-03-28T14:52:29.999Z</time></trkpt><trkpt lat="45.40958769633375" lon="11.306298295612253"><ele>28.0</ele><time>2026-03-28T14:52:30.999Z</time></trkpt><trkpt lat="45.40963264428149" lon="11.306453185883589"><ele>28.0</ele><time>2026-03-28T14:52:31.999Z</time></trkpt><trkpt lat="45.409667430780054" lon="11.306585376575187"><ele>28.2</ele><time>2026-03-28T14:52:32.999Z</time></trkpt><trkpt lat="45.40970066269096" lon="11.306688910591317"><ele>28.4</ele><time>2026-03-28T14:52:33.999Z</time></trkpt><trkpt lat="45.40969649685941" lon="11.306857958436359"><ele>28.599999999999998</ele><time>2026-03-28T14:52:35.999Z</time></trkpt><trkpt lat="45.40959344473637" lon="11.306957600020032"><ele>28.799999999999997</ele><time>2026-03-28T14:52:37.999Z</time></trkpt><trkpt lat="45.40951709480022" lon="11.306981330274148"><ele>29.0</ele><time>2026-03-28T14:52:38.999Z</time></trkpt><trkpt lat="45.40943403300287" lon="11.30700124044528"><ele>29.5</ele><time>2026-03-28T14:52:39.999Z</time></trkpt><trkpt lat="45.409323930443186" lon="11.307021816980475"><ele>30.0</ele><time>2026-03-28T14:52:40.999Z</time></trkpt><trkpt lat="45.40919332552002" lon="11.307054608626068"><ele>30.5</ele><time>2026-03-28T14:52:41.999Z</time></trkpt><trkpt lat="45.409036210027985" lon="11.307093880243029"><ele>31.0</ele><time>2026-03-28T14:52:42.999Z</time></trkpt><trkpt lat="45.40887075198748" lon="11.307135677434825"><ele>30.0</ele><time>2026-03-28T14:52:43.999Z</time></trkpt><trkpt lat="45.40869366856595" lon="11.307185960905821"><ele>29.0</ele><time>2026-03-28T14:52:44.999Z</time></trkpt><trkpt lat="45.408537370505684" lon="11.307222043394919"><ele>28.0</ele><time>2026-03-28T14:52:45.999Z</time></trkpt><trkpt lat="45.40837218108892" lon="11.307257428540085"><ele>27.666666666666668</ele><time>2026-03-28T14:52:46.999Z</time></trkpt><trkpt lat="45.40821176265247" lon="11.307300720213373"><ele>27.333333333333336</ele><time>2026-03-28T14:52:47.999Z</time></trkpt><trkpt lat="45.408047457725715" lon="11.307337357938012"><ele>27.0</ele><time>2026-03-28T14:52:48.999Z</time></trkpt><trkpt lat="45.407889555133586" lon="11.307375652235347"><ele>27.666666666666664</ele><time>2026-03-28T14:52:49.999Z</time></trkpt><trkpt lat="45.407721761634924" lon="11.307415425055838"><ele>28.333333333333332</ele><time>2026-03-28T14:52:50.999Z</time></trkpt><trkpt lat="45.40754780433972" lon="11.307455669666627"><ele>29.0</ele><time>2026-03-28T14:52:51.999Z</time></trkpt><trkpt lat="45.4073470009568" lon="11.307505906754415"><ele>29.5</ele><time>2026-03-28T14:52:52.999Z</time></trkpt><trkpt lat="45.40711847306958" lon="11.307562747624269"><ele>30.0</ele><time>2026-03-28T14:52:53.999Z</time></trkpt><trkpt lat="45.406894514945755" lon="11.307614551369744"><ele>30.0</ele><time>2026-03-28T14:52:54.999Z</time></trkpt><trkpt lat="45.406711353560084" lon="11.307662787857563"><ele>30.0</ele><time>2026-03-28T14:52:55.999Z</time></trkpt><trkpt lat="45.4065259343139" lon="11.307703570843207"><ele>30.0</ele><time>2026-03-28T14:52:56.999Z</time></trkpt><trkpt lat="45.40636658335513" lon="11.30774483254616"><ele>28.666666666666664</ele><time>2026-03-28T14:52:57.999Z</time></trkpt><trkpt lat="45.40617817573521" lon="11.307790262568478"><ele>27.333333333333332</ele><time>2026-03-28T14:52:58.999Z</time></trkpt><trkpt lat="45.4059878592856" lon="11.307832924219651"><ele>26.0</ele><time>2026-03-28T14:52:59.999Z</time></trkpt><trkpt lat="45.40578567967166" lon="11.307878449509872"><ele>26.0</ele><time>2026-03-28T14:53:00.999Z</time></trkpt><trkpt lat="45.40557263575187" lon="11.307923990781154"><ele>26.0</ele><time>2026-03-28T14:53:01.999Z</time></trkpt><trkpt lat="45.40535611429309" lon="11.307967965524888"><ele>26.0</ele><time>2026-03-28T14:53:02.999Z</time></trkpt><trkpt lat="45.40513847297599" lon="11.308003645020216"><ele>26.333333333333332</ele><time>2026-03-28T14:53:03.999Z</time></trkpt><trkpt lat="45.40492400218798" lon="11.308030380301313"><ele>26.666666666666664</ele><time>2026-03-28T14:53:04.999Z</time></trkpt><trkpt lat="45.404716035717584" lon="11.3080437538734"><ele>27.0</ele><time>2026-03-28T14:53:05.999Z</time></trkpt><trkpt lat="45.40451923212099" lon="11.308046822599238"><ele>27.0</ele><time>2026-03-28T14:53:06.999Z</time></trkpt><trkpt lat="45.40433667120816" lon="11.308046713939088"><ele>27.0</ele><time>2026-03-28T14:53:08Z</time></trkpt><trkpt lat="45.40417126592551" lon="11.308052537262405"><ele>27.0</ele><time>2026-03-28T14:53:09Z</time></trkpt><trkpt lat="45.40401355991571" lon="11.30803282601027"><ele>27.0</ele><time>2026-03-28T14:53:10Z</time></trkpt><trkpt lat="45.40387196160005" lon="11.30804786018562"><ele>27.0</ele><time>2026-03-28T14:53:11Z</time></trkpt><trkpt lat="45.40374292897529" lon="11.308035738075853"><ele>27.0</ele><time>2026-03-28T14:53:12Z</time></trkpt><trkpt lat="45.40361790876674" lon="11.308031652759125"><ele>27.0</ele><time>2026-03-28T14:53:13Z</time></trkpt><trkpt lat="45.40349396467415" lon="11.308027674654975"><ele>27.0</ele><time>2026-03-28T14:53:14Z</time></trkpt><trkpt lat="45.40337028569229" lon="11.308024640959587"><ele>27.000000000000004</ele><time>2026-03-28T14:53:15Z</time></trkpt><trkpt lat="45.403250332831625" lon="11.308025890738387"><ele>27.000000000000004</ele><time>2026-03-28T14:53:16Z</time></trkpt><trkpt lat="45.40314323816816" lon="11.308024599059987"><ele>27.0</ele><time>2026-03-28T14:53:17Z</time></trkpt><trkpt lat="45.403047536620775" lon="11.308016632983211"><ele>27.0</ele><time>2026-03-28T14:53:18Z</time></trkpt><trkpt lat="45.40295533038601" lon="11.30801738796817"><ele>27.0</ele><time>2026-03-28T14:53:19Z</time></trkpt><trkpt lat="45.402852194624565" lon="11.308009992360583"><ele>27.000000000000004</ele><time>2026-03-28T14:53:20Z</time></trkpt><trkpt lat="45.40275992913733" lon="11.308005871337404"><ele>27.000000000000004</ele><time>2026-03-28T14:53:21Z</time></trkpt><trkpt lat="45.40265004509749" lon="11.308003250377087"><ele>27.0</ele><time>2026-03-28T14:53:22Z</time></trkpt><trkpt lat="45.40253495456016" lon="11.30800161200575"><ele>27.0</ele><time>2026-03-28T14:53:23Z</time></trkpt><trkpt lat="45.40240214016327" lon="11.308008264408496"><ele>27.0</ele><time>2026-03-28T14:53:24Z</time></trkpt><trkpt lat="45.40227789051469" lon="11.30800415353189"><ele>27.0</ele><time>2026-03-28T14:53:25Z</time></trkpt><trkpt lat="45.40215758005258" lon="11.308011675546858"><ele>27.0</ele><time>2026-03-28T14:53:26Z</time></trkpt><trkpt lat="45.40203561848298" lon="11.30801637240902"><ele>27.0</ele><time>2026-03-28T14:53:27Z</time></trkpt><trkpt lat="45.401913566659815" lon="11.308033361028517"><ele>27.0</ele><time>2026-03-28T14:53:28Z</time></trkpt><trkpt lat="45.40179028138971" lon="11.308040091549003"><ele>27.0</ele><time>2026-03-28T14:53:29Z</time></trkpt><trkpt lat="45.401669636013466" lon="11.308043865000634"><ele>27.0</ele><time>2026-03-28T14:53:30Z</time></trkpt><trkpt lat="45.401543303660304" lon="11.308049758494962"><ele>27.0</ele><time>2026-03-28T14:53:31Z</time></trkpt><trkpt lat="45.40141759213818" lon="11.308067774586462"><ele>27.200000000000003</ele><time>2026-03-28T14:53:32Z</time></trkpt><trkpt lat="45.40129878841854" lon="11.308088137664463"><ele>27.400000000000002</ele><time>2026-03-28T14:53:33Z</time></trkpt><trkpt lat="45.40119039346899" lon="11.308107616204671"><ele>27.599999999999998</ele><time>2026-03-28T14:53:34Z</time></trkpt><trkpt lat="45.40109048974954" lon="11.308120132679516"><ele>27.799999999999997</ele><time>2026-03-28T14:53:35Z</time></trkpt><trkpt lat="45.401001045375075" lon="11.308129112014734"><ele>28.0</ele><time>2026-03-28T14:53:36Z</time></trkpt><trkpt lat="45.40091523304004" lon="11.308113484882114"><ele>28.0</ele><time>2026-03-28T14:53:37Z</time></trkpt><trkpt lat="45.400801938099974" lon="11.308145657532984"><ele>28.0</ele><time>2026-03-28T14:53:38Z</time></trkpt><trkpt lat="45.400683975390535" lon="11.308149714007408"><ele>28.0</ele><time>2026-03-28T14:53:39Z</time></trkpt><trkpt lat="45.400560174835235" lon="11.308157624636129"><ele>28.0</ele><time>2026-03-28T14:53:40Z</time></trkpt><trkpt lat="45.40043148476174" lon="11.308174001540307"><ele>28.25</ele><time>2026-03-28T14:53:41Z</time></trkpt><trkpt lat="45.400310133286204" lon="11.308184036433518"><ele>28.5</ele><time>2026-03-28T14:53:42Z</time></trkpt><trkpt lat="45.400188537915824" lon="11.308190980327485"><ele>28.75</ele><time>2026-03-28T14:53:43Z</time></trkpt><trkpt lat="45.400065197920654" lon="11.308198003072926"><ele>29.0</ele><time>2026-03-28T14:53:44Z</time></trkpt><trkpt lat="45.39993629146605" lon="11.308206855682576"><ele>29.0</ele><time>2026-03-28T14:53:45Z</time></trkpt><trkpt lat="45.399814894448895" lon="11.30821814874833"><ele>29.0</ele><time>2026-03-28T14:53:46Z</time></trkpt><trkpt lat="45.399695638516285" lon="11.308230261597526"><ele>29.0</ele><time>2026-03-28T14:53:47Z</time></trkpt><trkpt lat="45.39958763213081" lon="11.308234622265845"><ele>29.0</ele><time>2026-03-28T14:53:48Z</time></trkpt><trkpt lat="45.399488527667046" lon="11.308244014881247"><ele>29.0</ele><time>2026-03-28T14:53:49Z</time></trkpt><trkpt lat="45.39940072370849" lon="11.30824644834288"><ele>29.0</ele><time>2026-03-28T14:53:50Z</time></trkpt><trkpt lat="45.39932749117806" lon="11.308246588558927"><ele>29.0</ele><time>2026-03-28T14:53:51Z</time></trkpt><trkpt lat="45.3992438610897" lon="11.308254361242858"><ele>29.0</ele><time>2026-03-28T14:53:53Z</time></trkpt><trkpt lat="45.399162021684475" lon="11.308284233819373"><ele>29.0</ele><time>2026-03-28T14:54:19Z</time></trkpt><trkpt lat="45.399174067759645" lon="11.308507863285648"><ele>29.0</ele><time>2026-03-28T14:54:20Z</time></trkpt><trkpt lat="45.3991926422476" lon="11.308635066017116"><ele>29.0</ele><time>2026-03-28T14:54:21Z</time></trkpt><trkpt lat="45.39920905568657" lon="11.308760641246426"><ele>29.0</ele><time>2026-03-28T14:54:22Z</time></trkpt><trkpt lat="45.399220253166945" lon="11.308890956023461"><ele>29.0</ele><time>2026-03-28T14:54:23Z</time></trkpt><trkpt lat="45.39923045620923" lon="11.309025321186258"><ele>29.0</ele><time>2026-03-28T14:54:24Z</time></trkpt><trkpt lat="45.39923688489709" lon="11.309158712863432"><ele>29.0</ele><time>2026-03-28T14:54:25Z</time></trkpt><trkpt lat="45.39924495971837" lon="11.309297308314587"><ele>29.0</ele><time>2026-03-28T14:54:26Z</time></trkpt><trkpt lat="45.399253753908866" lon="11.309437044689632"><ele>29.0</ele><time>2026-03-28T14:54:27Z</time></trkpt><trkpt lat="45.39926525818602" lon="11.309585317919554"><ele>29.0</ele><time>2026-03-28T14:54:28Z</time></trkpt><trkpt lat="45.3992765196944" lon="11.309752639712066"><ele>29.0</ele><time>2026-03-28T14:54:29Z</time></trkpt><trkpt lat="45.3992838431678" lon="11.309923434678172"><ele>29.0</ele><time>2026-03-28T14:54:30Z</time></trkpt><trkpt lat="45.39929022007128" lon="11.310079965213072"><ele>29.0</ele><time>2026-03-28T14:54:31Z</time></trkpt><trkpt lat="45.39929994476823" lon="11.310237585635656"><ele>29.0</ele><time>2026-03-28T14:54:32Z</time></trkpt><trkpt lat="45.39929884277509" lon="11.310402150293488"><ele>29.0</ele><time>2026-03-28T14:54:33Z</time></trkpt><trkpt lat="45.3993034137832" lon="11.310578993513403"><ele>29.0</ele><time>2026-03-28T14:54:34Z</time></trkpt><trkpt lat="45.39931064195864" lon="11.310766980144216"><ele>29.0</ele><time>2026-03-28T14:54:35Z</time></trkpt><trkpt lat="45.399314126430426" lon="11.310970167010765"><ele>29.0</ele><time>2026-03-28T14:54:36Z</time></trkpt><trkpt lat="45.399306261235445" lon="11.311210891502384"><ele>29.0</ele><time>2026-03-28T14:54:37Z</time></trkpt><trkpt lat="45.39929410394982" lon="11.311470011153743"><ele>28.666666666666664</ele><time>2026-03-28T14:54:38Z</time></trkpt><trkpt lat="45.39928329543549" lon="11.311731548699287"><ele>28.333333333333336</ele><time>2026-03-28T14:54:39Z</time></trkpt><trkpt lat="45.39927479134406" lon="11.311973659245607"><ele>28.0</ele><time>2026-03-28T14:54:40Z</time></trkpt><trkpt lat="45.399265612793286" lon="11.312179897078261"><ele>28.25</ele><time>2026-03-28T14:54:41Z</time></trkpt><trkpt lat="45.39926059156515" lon="11.312374334292414"><ele>28.5</ele><time>2026-03-28T14:54:42Z</time></trkpt><trkpt lat="45.399256051873685" lon="11.312575241817157"><ele>28.75</ele><time>2026-03-28T14:54:43Z</time></trkpt><trkpt lat="45.39924810936921" lon="11.312776372369187"><ele>29.0</ele><time>2026-03-28T14:54:44Z</time></trkpt><trkpt lat="45.3992441766195" lon="11.31298679701185"><ele>28.666666666666664</ele><time>2026-03-28T14:54:45Z</time></trkpt><trkpt lat="45.39923893122062" lon="11.31321120982209"><ele>28.333333333333336</ele><time>2026-03-28T14:54:46Z</time></trkpt><trkpt lat="45.39922956458918" lon="11.313446177856882"><ele>28.0</ele><time>2026-03-28T14:54:47Z</time></trkpt><trkpt lat="45.3992231623272" lon="11.313672474027037"><ele>28.0</ele><time>2026-03-28T14:54:48Z</time></trkpt><trkpt lat="45.399216198246755" lon="11.313892169867419"><ele>28.0</ele><time>2026-03-28T14:54:49Z</time></trkpt><trkpt lat="45.39920783963298" lon="11.314100434654197"><ele>28.0</ele><time>2026-03-28T14:54:50Z</time></trkpt><trkpt lat="45.399200301182034" lon="11.314301668757551"><ele>28.0</ele><time>2026-03-28T14:54:51Z</time></trkpt><trkpt lat="45.39919395683757" lon="11.314496174619155"><ele>28.0</ele><time>2026-03-28T14:54:52Z</time></trkpt><trkpt lat="45.399185761561874" lon="11.314698897477722"><ele>28.0</ele><time>2026-03-28T14:54:53Z</time></trkpt><trkpt lat="45.39917832376121" lon="11.314904407099494"><ele>28.0</ele><time>2026-03-28T14:54:54Z</time></trkpt><trkpt lat="45.399172546192716" lon="11.3151126836463"><ele>28.0</ele><time>2026-03-28T14:54:55Z</time></trkpt><trkpt lat="45.39916669835736" lon="11.315323034553131"><ele>28.0</ele><time>2026-03-28T14:54:56Z</time></trkpt><trkpt lat="45.399158850493606" lon="11.31554266023376"><ele>28.0</ele><time>2026-03-28T14:54:57Z</time></trkpt><trkpt lat="45.39914876448237" lon="11.315748576577203"><ele>28.0</ele><time>2026-03-28T14:54:58Z</time></trkpt><trkpt lat="45.39914118467704" lon="11.315964172428155"><ele>28.0</ele><time>2026-03-28T14:54:59Z</time></trkpt><trkpt lat="45.39913717848781" lon="11.316177101230512"><ele>28.0</ele><time>2026-03-28T14:55:00Z</time></trkpt><trkpt lat="45.399128118134264" lon="11.316386001604158"><ele>28.0</ele><time>2026-03-28T14:55:00.999Z</time></trkpt><trkpt lat="45.39912179652094" lon="11.316585584650289"><ele>28.0</ele><time>2026-03-28T14:55:01.999Z</time></trkpt><trkpt lat="45.39911333536522" lon="11.316791778451254"><ele>28.0</ele><time>2026-03-28T14:55:02.999Z</time></trkpt><trkpt lat="45.39910978563087" lon="11.316999875389508"><ele>28.0</ele><time>2026-03-28T14:55:03.999Z</time></trkpt><trkpt lat="45.39910493056068" lon="11.317213055558392"><ele>28.0</ele><time>2026-03-28T14:55:04.999Z</time></trkpt><trkpt lat="45.399099428085215" lon="11.31741942887541"><ele>28.0</ele><time>2026-03-28T14:55:05.999Z</time></trkpt><trkpt lat="45.39908972450594" lon="11.317625668884103"><ele>27.75</ele><time>2026-03-28T14:55:06.999Z</time></trkpt><trkpt lat="45.39908038535911" lon="11.317839286861462"><ele>27.5</ele><time>2026-03-28T14:55:07.999Z</time></trkpt><trkpt lat="45.39907492272913" lon="11.318053066770618"><ele>27.25</ele><time>2026-03-28T14:55:08.999Z</time></trkpt><trkpt lat="45.399068410598574" lon="11.31826399764604"><ele>27.0</ele><time>2026-03-28T14:55:09.999Z</time></trkpt><trkpt lat="45.39906147630096" lon="11.318473773375707"><ele>27.0</ele><time>2026-03-28T14:55:10.999Z</time></trkpt><trkpt lat="45.399055866202616" lon="11.318694561770819"><ele>27.0</ele><time>2026-03-28T14:55:11.999Z</time></trkpt><trkpt lat="45.39905179778903" lon="11.31891392628119"><ele>27.0</ele><time>2026-03-28T14:55:12.999Z</time></trkpt><trkpt lat="45.39904990341249" lon="11.31913238289539"><ele>27.0</ele><time>2026-03-28T14:55:14Z</time></trkpt><trkpt lat="45.399049482620214" lon="11.319359235024525"><ele>27.0</ele><time>2026-03-28T14:55:15Z</time></trkpt><trkpt lat="45.39905622457472" lon="11.319590570302136"><ele>27.0</ele><time>2026-03-28T14:55:16Z</time></trkpt><trkpt lat="45.39906449771547" lon="11.319818960142346"><ele>27.333333333333336</ele><time>2026-03-28T14:55:17Z</time></trkpt><trkpt lat="45.39906934118657" lon="11.320028827974184"><ele>27.666666666666668</ele><time>2026-03-28T14:55:18Z</time></trkpt><trkpt lat="45.399080620120216" lon="11.320245113981267"><ele>28.0</ele><time>2026-03-28T14:55:19Z</time></trkpt><trkpt lat="45.39908868170309" lon="11.320474343298821"><ele>28.666666666666668</ele><time>2026-03-28T14:55:20Z</time></trkpt><trkpt lat="45.39909839025544" lon="11.320733431228568"><ele>29.333333333333336</ele><time>2026-03-28T14:55:21Z</time></trkpt><trkpt lat="45.39910779544162" lon="11.320982382231332"><ele>30.0</ele><time>2026-03-28T14:55:22Z</time></trkpt><trkpt lat="45.39911014158859" lon="11.32122761083961"><ele>29.333333333333336</ele><time>2026-03-28T14:55:23Z</time></trkpt><trkpt lat="45.39911912601992" lon="11.321469876453447"><ele>28.666666666666668</ele><time>2026-03-28T14:55:24Z</time></trkpt><trkpt lat="45.39913485020685" lon="11.321701730674421"><ele>28.0</ele><time>2026-03-28T14:55:25Z</time></trkpt><trkpt lat="45.39914360807073" lon="11.321949032138406"><ele>28.0</ele><time>2026-03-28T14:55:26Z</time></trkpt><trkpt lat="45.39914467007157" lon="11.322193419277964"><ele>28.0</ele><time>2026-03-28T14:55:27Z</time></trkpt><trkpt lat="45.39915303080134" lon="11.322437691181904"><ele>28.0</ele><time>2026-03-28T14:55:28Z</time></trkpt><trkpt lat="45.39916475096806" lon="11.32269745220762"><ele>28.0</ele><time>2026-03-28T14:55:29Z</time></trkpt><trkpt lat="45.39917631766243" lon="11.322945567158818"><ele>28.0</ele><time>2026-03-28T14:55:30Z</time></trkpt><trkpt lat="45.39918362662938" lon="11.323164432635025"><ele>28.0</ele><time>2026-03-28T14:55:31Z</time></trkpt><trkpt lat="45.39918739018029" lon="11.323394632608206"><ele>28.25</ele><time>2026-03-28T14:55:32Z</time></trkpt><trkpt lat="45.39919467544339" lon="11.323601245106998"><ele>28.5</ele><time>2026-03-28T14:55:33Z</time></trkpt><trkpt lat="45.399201650554524" lon="11.323799773611382"><ele>28.75</ele><time>2026-03-28T14:55:34Z</time></trkpt><trkpt lat="45.39921135866815" lon="11.32399090383288"><ele>29.0</ele><time>2026-03-28T14:55:35Z</time></trkpt><trkpt lat="45.39921661404306" lon="11.324203076088164"><ele>29.0</ele><time>2026-03-28T14:55:36Z</time></trkpt><trkpt lat="45.3992208253419" lon="11.324449617372132"><ele>29.0</ele><time>2026-03-28T14:55:37Z</time></trkpt><trkpt lat="45.39921853585086" lon="11.324709997899054"><ele>29.0</ele><time>2026-03-28T14:55:38Z</time></trkpt><trkpt lat="45.399206896454885" lon="11.324978260078412"><ele>29.0</ele><time>2026-03-28T14:55:39Z</time></trkpt><trkpt lat="45.39920271627255" lon="11.325224791621423"><ele>29.0</ele><time>2026-03-28T14:55:40Z</time></trkpt><trkpt lat="45.39919294950217" lon="11.32543713064067"><ele>29.0</ele><time>2026-03-28T14:55:41Z</time></trkpt><trkpt lat="45.399191100132555" lon="11.325620171135416"><ele>29.0</ele><time>2026-03-28T14:55:42Z</time></trkpt><trkpt lat="45.3991827625012" lon="11.325814921047323"><ele>29.0</ele><time>2026-03-28T14:55:43Z</time></trkpt><trkpt lat="45.39917764583804" lon="11.325985225305786"><ele>29.0</ele><time>2026-03-28T14:55:44Z</time></trkpt><trkpt lat="45.399170257840076" lon="11.326154545570917"><ele>29.0</ele><time>2026-03-28T14:55:45Z</time></trkpt><trkpt lat="45.39916348978183" lon="11.326313919592401"><ele>29.166666666666664</ele><time>2026-03-28T14:55:46Z</time></trkpt><trkpt lat="45.39915635926989" lon="11.32645922350593"><ele>29.333333333333332</ele><time>2026-03-28T14:55:47Z</time></trkpt><trkpt lat="45.39915195569687" lon="11.32658983832983"><ele>29.5</ele><time>2026-03-28T14:55:48Z</time></trkpt><trkpt lat="45.39915222413333" lon="11.32670550810639"><ele>29.666666666666664</ele><time>2026-03-28T14:55:49Z</time></trkpt><trkpt lat="45.39915080836661" lon="11.326818720129166"><ele>29.833333333333332</ele><time>2026-03-28T14:55:50Z</time></trkpt><trkpt lat="45.39914603686087" lon="11.326933139220973"><ele>30.0</ele><time>2026-03-28T14:55:51Z</time></trkpt><trkpt lat="45.399143979071724" lon="11.327080821329215"><ele>29.75</ele><time>2026-03-28T14:55:52Z</time></trkpt><trkpt lat="45.39914137126678" lon="11.327254491531264"><ele>29.5</ele><time>2026-03-28T14:55:53Z</time></trkpt><trkpt lat="45.399136635012326" lon="11.327435909618313"><ele>29.25</ele><time>2026-03-28T14:55:54Z</time></trkpt><trkpt lat="45.39913819684407" lon="11.327618362694487"><ele>29.0</ele><time>2026-03-28T14:55:55Z</time></trkpt><trkpt lat="45.3991346610204" lon="11.32778599783524"><ele>29.0</ele><time>2026-03-28T14:55:56Z</time></trkpt><trkpt lat="45.39912602203349" lon="11.327987855147905"><ele>29.0</ele><time>2026-03-28T14:55:57Z</time></trkpt><trkpt lat="45.39911777928703" lon="11.328204769696505"><ele>29.0</ele><time>2026-03-28T14:55:58Z</time></trkpt><trkpt lat="45.399106824006694" lon="11.328395056639474"><ele>29.0</ele><time>2026-03-28T14:55:59Z</time></trkpt><trkpt lat="45.39909315092105" lon="11.32861498368695"><ele>29.0</ele><time>2026-03-28T14:56:00Z</time></trkpt><trkpt lat="45.399073711969834" lon="11.328814388144766"><ele>29.0</ele><time>2026-03-28T14:56:01Z</time></trkpt><trkpt lat="45.39905590391067" lon="11.328994319305272"><ele>29.0</ele><time>2026-03-28T14:56:02Z</time></trkpt><trkpt lat="45.399037249286074" lon="11.329174013721532"><ele>29.0</ele><time>2026-03-28T14:56:03Z</time></trkpt><trkpt lat="45.39902050763373" lon="11.329350235200604"><ele>29.0</ele><time>2026-03-28T14:56:04Z</time></trkpt><trkpt lat="45.39900599425817" lon="11.329525564311025"><ele>29.0</ele><time>2026-03-28T14:56:05Z</time></trkpt><trkpt lat="45.398991091132785" lon="11.329680544866163"><ele>29.0</ele><time>2026-03-28T14:56:06Z</time></trkpt><trkpt lat="45.39898008039255" lon="11.329835197781787"><ele>29.0</ele><time>2026-03-28T14:56:07Z</time></trkpt><trkpt lat="45.39897436278417" lon="11.329999303206021"><ele>29.0</ele><time>2026-03-28T14:56:08Z</time></trkpt><trkpt lat="45.39896106065917" lon="11.33016551796763"><ele>29.0</ele><time>2026-03-28T14:56:09Z</time></trkpt><trkpt lat="45.398946753696436" lon="11.330342925169658"><ele>29.0</ele><time>2026-03-28T14:56:10Z</time></trkpt><trkpt lat="45.398920844310865" lon="11.330521379832529"><ele>29.0</ele><time>2026-03-28T14:56:11Z</time></trkpt><trkpt lat="45.39888202546604" lon="11.330703039332148"><ele>28.75</ele><time>2026-03-28T14:56:12Z</time></trkpt><trkpt lat="45.398842745351914" lon="11.330872538744918"><ele>28.5</ele><time>2026-03-28T14:56:13Z</time></trkpt><trkpt lat="45.398809010570226" lon="11.331037058146725"><ele>28.25</ele><time>2026-03-28T14:56:14Z</time></trkpt><trkpt lat="45.39877707812372" lon="11.33120282352628"><ele>28.0</ele><time>2026-03-28T14:56:15Z</time></trkpt><trkpt lat="45.398747092508465" lon="11.331368919405278"><ele>28.25</ele><time>2026-03-28T14:56:16Z</time></trkpt><trkpt lat="45.39870897745084" lon="11.33153099257183"><ele>28.5</ele><time>2026-03-28T14:56:17Z</time></trkpt><trkpt lat="45.3986773085214" lon="11.331688494315447"><ele>28.75</ele><time>2026-03-28T14:56:18Z</time></trkpt><trkpt lat="45.398638694927946" lon="11.331848351080321"><ele>29.0</ele><time>2026-03-28T14:56:19Z</time></trkpt><trkpt lat="45.39859684530786" lon="11.332005490111667"><ele>29.0</ele><time>2026-03-28T14:56:20Z</time></trkpt><trkpt lat="45.39854896659546" lon="11.332175653442564"><ele>29.0</ele><time>2026-03-28T14:56:21Z</time></trkpt><trkpt lat="45.39850450792258" lon="11.33234556677449"><ele>29.0</ele><time>2026-03-28T14:56:22Z</time></trkpt><trkpt lat="45.398460740434764" lon="11.332534179880541"><ele>29.0</ele><time>2026-03-28T14:56:23Z</time></trkpt><trkpt lat="45.39841644760327" lon="11.332726714976124"><ele>29.0</ele><time>2026-03-28T14:56:24Z</time></trkpt><trkpt lat="45.398374594413944" lon="11.332932961969162"><ele>29.0</ele><time>2026-03-28T14:56:25Z</time></trkpt><trkpt lat="45.39833530364002" lon="11.333130924386388"><ele>29.0</ele><time>2026-03-28T14:56:26Z</time></trkpt><trkpt lat="45.39828951134202" lon="11.333349389219158"><ele>29.0</ele><time>2026-03-28T14:56:27Z</time></trkpt><trkpt lat="45.39824782740957" lon="11.333566866523755"><ele>29.0</ele><time>2026-03-28T14:56:28Z</time></trkpt><trkpt lat="45.398210661047" lon="11.33378769820413"><ele>29.0</ele><time>2026-03-28T14:56:29Z</time></trkpt><trkpt lat="45.39816945763305" lon="11.33398594640016"><ele>28.75</ele><time>2026-03-28T14:56:30Z</time></trkpt><trkpt lat="45.39813284851688" lon="11.334166409588034"><ele>28.5</ele><time>2026-03-28T14:56:31Z</time></trkpt><trkpt lat="45.398101015158474" lon="11.334333995082776"><ele>28.25</ele><time>2026-03-28T14:56:32Z</time></trkpt><trkpt lat="45.39807089435175" lon="11.334494138824319"><ele>28.0</ele><time>2026-03-28T14:56:33Z</time></trkpt><trkpt lat="45.39804205622738" lon="11.33464740418367"><ele>28.0</ele><time>2026-03-28T14:56:34Z</time></trkpt><trkpt lat="45.398008343347236" lon="11.334813366647067"><ele>28.0</ele><time>2026-03-28T14:56:35Z</time></trkpt><trkpt lat="45.39797169204105" lon="11.334981540063824"><ele>28.0</ele><time>2026-03-28T14:56:36Z</time></trkpt><trkpt lat="45.3979334962419" lon="11.33514408828056"><ele>28.0</ele><time>2026-03-28T14:56:37Z</time></trkpt><trkpt lat="45.39789446001929" lon="11.335310506931497"><ele>28.25</ele><time>2026-03-28T14:56:38Z</time></trkpt><trkpt lat="45.39784681749808" lon="11.335483888360235"><ele>28.5</ele><time>2026-03-28T14:56:39Z</time></trkpt><trkpt lat="45.39780234624527" lon="11.335654504837095"><ele>28.75</ele><time>2026-03-28T14:56:40Z</time></trkpt><trkpt lat="45.39775850372615" lon="11.33583715378011"><ele>29.0</ele><time>2026-03-28T14:56:41Z</time></trkpt><trkpt lat="45.39771326296879" lon="11.33602447380997"><ele>29.0</ele><time>2026-03-28T14:56:42Z</time></trkpt><trkpt lat="45.39766587606098" lon="11.336218409865952"><ele>29.0</ele><time>2026-03-28T14:56:43Z</time></trkpt><trkpt lat="45.39762374631744" lon="11.336426024097998"><ele>29.0</ele><time>2026-03-28T14:56:44Z</time></trkpt><trkpt lat="45.39759349968938" lon="11.336657338414835"><ele>29.0</ele><time>2026-03-28T14:56:45Z</time></trkpt><trkpt lat="45.39756599143643" lon="11.33692254546741"><ele>29.0</ele><time>2026-03-28T14:56:46Z</time></trkpt><trkpt lat="45.39754080225176" lon="11.337181071633026"><ele>29.0</ele><time>2026-03-28T14:56:47Z</time></trkpt><trkpt lat="45.39752485665827" lon="11.337399950401439"><ele>29.0</ele><time>2026-03-28T14:56:48Z</time></trkpt><trkpt lat="45.39749434370633" lon="11.33760827894864"><ele>29.0</ele><time>2026-03-28T14:56:49Z</time></trkpt><trkpt lat="45.397465948242825" lon="11.337790905306486"><ele>29.0</ele><time>2026-03-28T14:56:50Z</time></trkpt><trkpt lat="45.39743799680226" lon="11.337957295437583"><ele>29.0</ele><time>2026-03-28T14:56:51Z</time></trkpt><trkpt lat="45.39740088559387" lon="11.338117484294195"><ele>28.75</ele><time>2026-03-28T14:56:52Z</time></trkpt><trkpt lat="45.39737108162949" lon="11.338265104037134"><ele>28.5</ele><time>2026-03-28T14:56:53Z</time></trkpt><trkpt lat="45.397345606858664" lon="11.338433341072319"><ele>28.25</ele><time>2026-03-28T14:56:54Z</time></trkpt><trkpt lat="45.39730944366597" lon="11.338618501766591"><ele>28.0</ele><time>2026-03-28T14:56:55Z</time></trkpt><trkpt lat="45.39727188165432" lon="11.338818604772797"><ele>28.0</ele><time>2026-03-28T14:56:56Z</time></trkpt><trkpt lat="45.39723977535313" lon="11.339024802494537"><ele>28.0</ele><time>2026-03-28T14:56:57Z</time></trkpt><trkpt lat="45.39721297393087" lon="11.3392376549653"><ele>28.0</ele><time>2026-03-28T14:56:58Z</time></trkpt><trkpt lat="45.39718949079625" lon="11.339455433084003"><ele>28.0</ele><time>2026-03-28T14:56:59Z</time></trkpt><trkpt lat="45.39717136348519" lon="11.339677537780165"><ele>28.0</ele><time>2026-03-28T14:57:00Z</time></trkpt><trkpt lat="45.397151765884836" lon="11.339891929626036"><ele>28.0</ele><time>2026-03-28T14:57:01Z</time></trkpt><trkpt lat="45.397127640815434" lon="11.340116796830799"><ele>28.0</ele><time>2026-03-28T14:57:02Z</time></trkpt><trkpt lat="45.39710340346954" lon="11.340330017703732"><ele>28.0</ele><time>2026-03-28T14:57:03Z</time></trkpt><trkpt lat="45.39708642151531" lon="11.340544013665403"><ele>28.0</ele><time>2026-03-28T14:57:04Z</time></trkpt><trkpt lat="45.397063471060605" lon="11.340754414863909"><ele>28.0</ele><time>2026-03-28T14:57:05Z</time></trkpt><trkpt lat="45.397040871794935" lon="11.340961286063257"><ele>28.0</ele><time>2026-03-28T14:57:06Z</time></trkpt><trkpt lat="45.397021050749515" lon="11.34116319480107"><ele>28.0</ele><time>2026-03-28T14:57:07Z</time></trkpt><trkpt lat="45.39699574199676" lon="11.341357521346279"><ele>28.0</ele><time>2026-03-28T14:57:08Z</time></trkpt><trkpt lat="45.39696876882653" lon="11.341558489545282"><ele>28.0</ele><time>2026-03-28T14:57:09Z</time></trkpt><trkpt lat="45.39692856978444" lon="11.3417576563244"><ele>28.0</ele><time>2026-03-28T14:57:10Z</time></trkpt><trkpt lat="45.39687959508587" lon="11.3419595139565"><ele>28.0</ele><time>2026-03-28T14:57:11Z</time></trkpt><trkpt lat="45.39682565194318" lon="11.342151897494789"><ele>28.0</ele><time>2026-03-28T14:57:12Z</time></trkpt><trkpt lat="45.39676845480301" lon="11.342347846283083"><ele>28.0</ele><time>2026-03-28T14:57:13Z</time></trkpt><trkpt lat="45.39671064361735" lon="11.342543628384359"><ele>28.0</ele><time>2026-03-28T14:57:14Z</time></trkpt><trkpt lat="45.39665648284351" lon="11.342750373607577"><ele>28.0</ele><time>2026-03-28T14:57:15Z</time></trkpt><trkpt lat="45.39660054160446" lon="11.342955654088415"><ele>27.666666666666668</ele><time>2026-03-28T14:57:16Z</time></trkpt><trkpt lat="45.39654152341437" lon="11.343166426033953"><ele>27.333333333333336</ele><time>2026-03-28T14:57:17Z</time></trkpt><trkpt lat="45.396485326033925" lon="11.343363554746707"><ele>27.0</ele><time>2026-03-28T14:57:18Z</time></trkpt><trkpt lat="45.39643242822606" lon="11.343552189283512"><ele>27.0</ele><time>2026-03-28T14:57:19Z</time></trkpt><trkpt lat="45.396381541529934" lon="11.3437433090215"><ele>27.0</ele><time>2026-03-28T14:57:20Z</time></trkpt><trkpt lat="45.39632685623009" lon="11.343946398523185"><ele>27.0</ele><time>2026-03-28T14:57:21Z</time></trkpt><trkpt lat="45.39626711545085" lon="11.344154779814291"><ele>27.0</ele><time>2026-03-28T14:57:22Z</time></trkpt><trkpt lat="45.396206080721385" lon="11.344361553844537"><ele>27.0</ele><time>2026-03-28T14:57:23Z</time></trkpt><trkpt lat="45.396146614778594" lon="11.34456455419638"><ele>27.0</ele><time>2026-03-28T14:57:24Z</time></trkpt><trkpt lat="45.39608926890805" lon="11.344768552999106"><ele>27.0</ele><time>2026-03-28T14:57:25Z</time></trkpt><trkpt lat="45.396033295701415" lon="11.344975158896306"><ele>27.0</ele><time>2026-03-28T14:57:26Z</time></trkpt><trkpt lat="45.39597325773752" lon="11.345186715242393"><ele>27.0</ele><time>2026-03-28T14:57:27Z</time></trkpt><trkpt lat="45.39591601602042" lon="11.345381762071316"><ele>27.0</ele><time>2026-03-28T14:57:28Z</time></trkpt><trkpt lat="45.39585897512541" lon="11.345591395938493"><ele>27.0</ele><time>2026-03-28T14:57:29Z</time></trkpt><trkpt lat="45.395811904210476" lon="11.345814165930983"><ele>27.0</ele><time>2026-03-28T14:57:30Z</time></trkpt><trkpt lat="45.39576709247709" lon="11.346046465971027"><ele>27.0</ele><time>2026-03-28T14:57:31Z</time></trkpt><trkpt lat="45.3957350137481" lon="11.346260224899787"><ele>27.0</ele><time>2026-03-28T14:57:32Z</time></trkpt><trkpt lat="45.39570513054693" lon="11.346451038611658"><ele>27.0</ele><time>2026-03-28T14:57:33Z</time></trkpt><trkpt lat="45.39567099947447" lon="11.346701333569314"><ele>27.333333333333336</ele><time>2026-03-28T14:57:34Z</time></trkpt><trkpt lat="45.395636839971964" lon="11.34697413011871"><ele>27.666666666666668</ele><time>2026-03-28T14:57:35Z</time></trkpt><trkpt lat="45.395606242834326" lon="11.34719349879703"><ele>28.0</ele><time>2026-03-28T14:57:36Z</time></trkpt><trkpt lat="45.39556654935461" lon="11.347441841442354"><ele>28.0</ele><time>2026-03-28T14:57:37Z</time></trkpt><trkpt lat="45.39552104268447" lon="11.347677438457698"><ele>28.0</ele><time>2026-03-28T14:57:38Z</time></trkpt><trkpt lat="45.39546327754449" lon="11.347882888942419"><ele>28.0</ele><time>2026-03-28T14:57:39Z</time></trkpt><trkpt lat="45.39538819322491" lon="11.348090981045637"><ele>27.666666666666668</ele><time>2026-03-28T14:57:40Z</time></trkpt><trkpt lat="45.39531724506498" lon="11.348276457809037"><ele>27.333333333333336</ele><time>2026-03-28T14:57:41Z</time></trkpt><trkpt lat="45.395234497234405" lon="11.348504801290268"><ele>27.0</ele><time>2026-03-28T14:57:42Z</time></trkpt><trkpt lat="45.395144658883595" lon="11.34875518136879"><ele>27.5</ele><time>2026-03-28T14:57:43Z</time></trkpt><trkpt lat="45.39506695699972" lon="11.34896107105315"><ele>28.0</ele><time>2026-03-28T14:57:44Z</time></trkpt><trkpt lat="45.39499845684865" lon="11.349140154670845"><ele>28.5</ele><time>2026-03-28T14:57:45Z</time></trkpt><trkpt lat="45.394939053972884" lon="11.349307928168562"><ele>29.0</ele><time>2026-03-28T14:57:46Z</time></trkpt><trkpt lat="45.394880104610216" lon="11.349477495432842"><ele>29.0</ele><time>2026-03-28T14:57:47Z</time></trkpt><trkpt lat="45.39482494181143" lon="11.349641641756271"><ele>29.0</ele><time>2026-03-28T14:57:48Z</time></trkpt><trkpt lat="45.39476467533241" lon="11.349808646006888"><ele>29.0</ele><time>2026-03-28T14:57:49Z</time></trkpt><trkpt lat="45.39470042876123" lon="11.349995848200107"><ele>29.0</ele><time>2026-03-28T14:57:50Z</time></trkpt><trkpt lat="45.39462705688533" lon="11.350182839458638"><ele>28.5</ele><time>2026-03-28T14:57:51Z</time></trkpt><trkpt lat="45.39455791545695" lon="11.350368469806583"><ele>28.0</ele><time>2026-03-28T14:57:52Z</time></trkpt><trkpt lat="45.39448772677306" lon="11.350540507078588"><ele>27.5</ele><time>2026-03-28T14:57:53Z</time></trkpt><trkpt lat="45.39441369476963" lon="11.350720781457388"><ele>27.0</ele><time>2026-03-28T14:57:54Z</time></trkpt><trkpt lat="45.39434434854785" lon="11.35089565226093"><ele>27.0</ele><time>2026-03-28T14:57:55Z</time></trkpt><trkpt lat="45.39427811335079" lon="11.351054257808448"><ele>27.0</ele><time>2026-03-28T14:57:56Z</time></trkpt><trkpt lat="45.39420957994051" lon="11.351213683382603"><ele>27.0</ele><time>2026-03-28T14:57:57Z</time></trkpt><trkpt lat="45.39414279178262" lon="11.351377204310172"><ele>27.0</ele><time>2026-03-28T14:57:58Z</time></trkpt><trkpt lat="45.39407054115745" lon="11.35154589285879"><ele>27.25</ele><time>2026-03-28T14:57:59Z</time></trkpt><trkpt lat="45.39400427918426" lon="11.35170905509816"><ele>27.5</ele><time>2026-03-28T14:58:00Z</time></trkpt><trkpt lat="45.393941953318745" lon="11.351884475221246"><ele>27.75</ele><time>2026-03-28T14:58:01Z</time></trkpt><trkpt lat="45.39387309341301" lon="11.352056773531462"><ele>28.0</ele><time>2026-03-28T14:58:02Z</time></trkpt><trkpt lat="45.39380172841003" lon="11.352228556278433"><ele>28.25</ele><time>2026-03-28T14:58:03Z</time></trkpt><trkpt lat="45.39373915579422" lon="11.352389561592773"><ele>28.5</ele><time>2026-03-28T14:58:04Z</time></trkpt><trkpt lat="45.393678994156815" lon="11.352547323118761"><ele>28.75</ele><time>2026-03-28T14:58:05Z</time></trkpt><trkpt lat="45.39362138329838" lon="11.352717562199516"><ele>29.0</ele><time>2026-03-28T14:58:06Z</time></trkpt><trkpt lat="45.39356171440594" lon="11.352897344904216"><ele>29.0</ele><time>2026-03-28T14:58:07Z</time></trkpt><trkpt lat="45.393498833417674" lon="11.353066577662599"><ele>29.0</ele><time>2026-03-28T14:58:08Z</time></trkpt><trkpt lat="45.39344566807581" lon="11.353243218385158"><ele>29.0</ele><time>2026-03-28T14:58:09Z</time></trkpt><trkpt lat="45.393394282368156" lon="11.35343022064815"><ele>29.0</ele><time>2026-03-28T14:58:10Z</time></trkpt><trkpt lat="45.39333312770471" lon="11.353616583232377"><ele>29.0</ele><time>2026-03-28T14:58:11Z</time></trkpt><trkpt lat="45.39326882360432" lon="11.35380451013089"><ele>29.0</ele><time>2026-03-28T14:58:12Z</time></trkpt><trkpt lat="45.39320195887733" lon="11.353993815378052"><ele>29.0</ele><time>2026-03-28T14:58:13Z</time></trkpt><trkpt lat="45.39313573675767" lon="11.35418166788529"><ele>29.0</ele><time>2026-03-28T14:58:14Z</time></trkpt><trkpt lat="45.393056322675875" lon="11.354357759677722"><ele>29.0</ele><time>2026-03-28T14:58:15Z</time></trkpt><trkpt lat="45.392962117750265" lon="11.354530820046332"><ele>29.0</ele><time>2026-03-28T14:58:16Z</time></trkpt><trkpt lat="45.39286538440933" lon="11.354692245930988"><ele>29.0</ele><time>2026-03-28T14:58:17Z</time></trkpt><trkpt lat="45.392769148119605" lon="11.35484859180518"><ele>29.0</ele><time>2026-03-28T14:58:18Z</time></trkpt><trkpt lat="45.39267425556554" lon="11.35502381104032"><ele>29.0</ele><time>2026-03-28T14:58:19Z</time></trkpt><trkpt lat="45.392577115859865" lon="11.355209060205723"><ele>29.0</ele><time>2026-03-28T14:58:20Z</time></trkpt><trkpt lat="45.3924754332209" lon="11.355367360465051"><ele>29.0</ele><time>2026-03-28T14:58:21Z</time></trkpt><trkpt lat="45.39238243467596" lon="11.355501604176016"><ele>29.0</ele><time>2026-03-28T14:58:22Z</time></trkpt><trkpt lat="45.3922939535952" lon="11.35564930645172"><ele>28.666666666666664</ele><time>2026-03-28T14:58:23Z</time></trkpt><trkpt lat="45.39219102340743" lon="11.355858055176057"><ele>28.333333333333336</ele><time>2026-03-28T14:58:24Z</time></trkpt><trkpt lat="45.39210609990793" lon="11.356044058524681"><ele>28.0</ele><time>2026-03-28T14:58:25Z</time></trkpt><trkpt lat="45.39204015903209" lon="11.356215116469151"><ele>28.0</ele><time>2026-03-28T14:58:26Z</time></trkpt><trkpt lat="45.39198111226761" lon="11.356386815645015"><ele>28.0</ele><time>2026-03-28T14:58:27Z</time></trkpt><trkpt lat="45.391922179758275" lon="11.356568702942312"><ele>28.0</ele><time>2026-03-28T14:58:28Z</time></trkpt><trkpt lat="45.3918765853076" lon="11.356734562174704"><ele>28.0</ele><time>2026-03-28T14:58:29Z</time></trkpt><trkpt lat="45.39183723490207" lon="11.356903793306026"><ele>28.0</ele><time>2026-03-28T14:58:30Z</time></trkpt><trkpt lat="45.39180132438781" lon="11.35706995350388"><ele>28.0</ele><time>2026-03-28T14:58:31Z</time></trkpt><trkpt lat="45.39176853088577" lon="11.357240834003912"><ele>28.0</ele><time>2026-03-28T14:58:32Z</time></trkpt><trkpt lat="45.39174099018366" lon="11.357408736744995"><ele>28.0</ele><time>2026-03-28T14:58:33Z</time></trkpt><trkpt lat="45.39171544212885" lon="11.357575439407588"><ele>28.0</ele><time>2026-03-28T14:58:34Z</time></trkpt><trkpt lat="45.391692979008276" lon="11.357732770082025"><ele>27.999999999999996</ele><time>2026-03-28T14:58:35Z</time></trkpt><trkpt lat="45.391676025140555" lon="11.357871984136008"><ele>27.999999999999996</ele><time>2026-03-28T14:58:36Z</time></trkpt><trkpt lat="45.3916629720098" lon="11.358017968528014"><ele>28.0</ele><time>2026-03-28T14:58:37Z</time></trkpt><trkpt lat="45.39164978235871" lon="11.358144994906311"><ele>28.0</ele><time>2026-03-28T14:58:38Z</time></trkpt><trkpt lat="45.39163522675664" lon="11.358268409572842"><ele>28.0</ele><time>2026-03-28T14:58:39Z</time></trkpt><trkpt lat="45.39161808325634" lon="11.358398058225426"><ele>27.999999999999996</ele><time>2026-03-28T14:58:40Z</time></trkpt><trkpt lat="45.3916032845514" lon="11.358513202672928"><ele>27.999999999999996</ele><time>2026-03-28T14:58:41Z</time></trkpt><trkpt lat="45.39157727350278" lon="11.358668722270496"><ele>28.0</ele><time>2026-03-28T14:58:42Z</time></trkpt><trkpt lat="45.39155272169706" lon="11.35883838052746"><ele>28.0</ele><time>2026-03-28T14:58:43Z</time></trkpt><trkpt lat="45.39153941757583" lon="11.358997849063929"><ele>28.0</ele><time>2026-03-28T14:58:44Z</time></trkpt><trkpt lat="45.39151946596062" lon="11.35914738721202"><ele>28.0</ele><time>2026-03-28T14:58:45Z</time></trkpt><trkpt lat="45.391492725769474" lon="11.359312627671684"><ele>28.0</ele><time>2026-03-28T14:58:46Z</time></trkpt><trkpt lat="45.391464644832396" lon="11.359479775870687"><ele>28.0</ele><time>2026-03-28T14:58:47Z</time></trkpt><trkpt lat="45.39143088185758" lon="11.359653666807299"><ele>28.0</ele><time>2026-03-28T14:58:48Z</time></trkpt><trkpt lat="45.39139539853173" lon="11.359815272370245"><ele>28.0</ele><time>2026-03-28T14:58:49Z</time></trkpt><trkpt lat="45.39136079580859" lon="11.359969168550105"><ele>28.0</ele><time>2026-03-28T14:58:50Z</time></trkpt><trkpt lat="45.391323603277634" lon="11.360143090548254"><ele>28.0</ele><time>2026-03-28T14:58:51Z</time></trkpt><trkpt lat="45.391293629412" lon="11.360338257407523"><ele>28.0</ele><time>2026-03-28T14:58:52Z</time></trkpt><trkpt lat="45.39126030619659" lon="11.360511205152568"><ele>28.0</ele><time>2026-03-28T14:58:53Z</time></trkpt><trkpt lat="45.3912268426524" lon="11.360685099714173"><ele>28.0</ele><time>2026-03-28T14:58:54Z</time></trkpt><trkpt lat="45.391202393706905" lon="11.360855986275233"><ele>28.0</ele><time>2026-03-28T14:58:55Z</time></trkpt><trkpt lat="45.3911871522093" lon="11.361025509809187"><ele>28.25</ele><time>2026-03-28T14:58:56Z</time></trkpt><trkpt lat="45.391162507037684" lon="11.361205662715502"><ele>28.5</ele><time>2026-03-28T14:58:57Z</time></trkpt><trkpt lat="45.391134434609846" lon="11.36138210169292"><ele>28.75</ele><time>2026-03-28T14:58:58Z</time></trkpt><trkpt lat="45.39111006999868" lon="11.361574058944008"><ele>29.0</ele><time>2026-03-28T14:58:59Z</time></trkpt><trkpt lat="45.391075942561876" lon="11.361765361187157"><ele>29.25</ele><time>2026-03-28T14:59:00Z</time></trkpt><trkpt lat="45.39105016193862" lon="11.361951093166933"><ele>29.5</ele><time>2026-03-28T14:59:01Z</time></trkpt><trkpt lat="45.391024232756656" lon="11.362137046310407"><ele>29.75</ele><time>2026-03-28T14:59:02Z</time></trkpt><trkpt lat="45.391001847292635" lon="11.362319179436511"><ele>30.0</ele><time>2026-03-28T14:59:03Z</time></trkpt><trkpt lat="45.390976660054" lon="11.36251438287748"><ele>29.5</ele><time>2026-03-28T14:59:04Z</time></trkpt><trkpt lat="45.39095174591279" lon="11.362703424720888"><ele>29.0</ele><time>2026-03-28T14:59:05Z</time></trkpt><trkpt lat="45.39093026949034" lon="11.362885670215707"><ele>28.5</ele><time>2026-03-28T14:59:06Z</time></trkpt><trkpt lat="45.39090172455209" lon="11.36307130364287"><ele>28.0</ele><time>2026-03-28T14:59:07Z</time></trkpt><trkpt lat="45.39087297064094" lon="11.36325434323317"><ele>28.0</ele><time>2026-03-28T14:59:08Z</time></trkpt><trkpt lat="45.39084798118483" lon="11.363441542453772"><ele>28.0</ele><time>2026-03-28T14:59:08.999Z</time></trkpt><trkpt lat="45.39082122793393" lon="11.363623510478341"><ele>28.0</ele><time>2026-03-28T14:59:09.999Z</time></trkpt><trkpt lat="45.39080094456157" lon="11.363799255402416"><ele>28.0</ele><time>2026-03-28T14:59:10.999Z</time></trkpt><trkpt lat="45.39077621053355" lon="11.363953200979863"><ele>28.0</ele><time>2026-03-28T14:59:11.999Z</time></trkpt><trkpt lat="45.39075401131527" lon="11.364106516655514"><ele>27.999999999999996</ele><time>2026-03-28T14:59:12.999Z</time></trkpt><trkpt lat="45.39073143891477" lon="11.36425449227023"><ele>27.999999999999996</ele><time>2026-03-28T14:59:13.999Z</time></trkpt><trkpt lat="45.390710286808854" lon="11.364405350597668"><ele>28.0</ele><time>2026-03-28T14:59:14.999Z</time></trkpt><trkpt lat="45.390689552907304" lon="11.364545175483016"><ele>28.0</ele><time>2026-03-28T14:59:15.999Z</time></trkpt><trkpt lat="45.390667868181936" lon="11.364699830650773"><ele>28.0</ele><time>2026-03-28T14:59:16.999Z</time></trkpt><trkpt lat="45.39064434857094" lon="11.364859433535592"><ele>28.0</ele><time>2026-03-28T14:59:17.999Z</time></trkpt><trkpt lat="45.39061923006668" lon="11.365017835094289"><ele>28.0</ele><time>2026-03-28T14:59:18.999Z</time></trkpt><trkpt lat="45.39059742285096" lon="11.365183543285239"><ele>28.0</ele><time>2026-03-28T14:59:19.999Z</time></trkpt><trkpt lat="45.39057382655372" lon="11.365348327841632"><ele>28.0</ele><time>2026-03-28T14:59:20.999Z</time></trkpt><trkpt lat="45.390552719424036" lon="11.365509495845618"><ele>27.999999999999996</ele><time>2026-03-28T14:59:21.999Z</time></trkpt><trkpt lat="45.390535119317576" lon="11.365668850158189"><ele>27.999999999999996</ele><time>2026-03-28T14:59:22.999Z</time></trkpt><trkpt lat="45.39052277774284" lon="11.365824417124617"><ele>28.0</ele><time>2026-03-28T14:59:23.999Z</time></trkpt><trkpt lat="45.39052118833291" lon="11.365977281603165"><ele>28.0</ele><time>2026-03-28T14:59:24.999Z</time></trkpt><trkpt lat="45.39052846352336" lon="11.366124032993694"><ele>27.75</ele><time>2026-03-28T14:59:26Z</time></trkpt><trkpt lat="45.39054327134018" lon="11.366278482782507"><ele>27.5</ele><time>2026-03-28T14:59:27Z</time></trkpt><trkpt lat="45.39056675463215" lon="11.366441666411525"><ele>27.25</ele><time>2026-03-28T14:59:28Z</time></trkpt><trkpt lat="45.390608797594716" lon="11.366631763197358"><ele>27.0</ele><time>2026-03-28T14:59:29Z</time></trkpt><trkpt lat="45.390660585288295" lon="11.366849240273503"><ele>27.0</ele><time>2026-03-28T14:59:30Z</time></trkpt><trkpt lat="45.39070513063022" lon="11.367048825596056"><ele>27.0</ele><time>2026-03-28T14:59:31Z</time></trkpt><trkpt lat="45.390747539926345" lon="11.367258091738638"><ele>27.0</ele><time>2026-03-28T14:59:32Z</time></trkpt><trkpt lat="45.390791285408476" lon="11.367485581302766"><ele>27.0</ele><time>2026-03-28T14:59:33Z</time></trkpt><trkpt lat="45.3908227148546" lon="11.367676947662721"><ele>27.0</ele><time>2026-03-28T14:59:34Z</time></trkpt><trkpt lat="45.39084559149808" lon="11.36787543962614"><ele>27.0</ele><time>2026-03-28T14:59:35Z</time></trkpt><trkpt lat="45.39085248904399" lon="11.368083804248718"><ele>27.0</ele><time>2026-03-28T14:59:36Z</time></trkpt><trkpt lat="45.39084735564385" lon="11.368295919597422"><ele>27.0</ele><time>2026-03-28T14:59:37Z</time></trkpt><trkpt lat="45.39083243469914" lon="11.368504365425352"><ele>27.0</ele><time>2026-03-28T14:59:38Z</time></trkpt><trkpt lat="45.390807257752776" lon="11.368716772296466"><ele>27.0</ele><time>2026-03-28T14:59:39Z</time></trkpt><trkpt lat="45.39078251782734" lon="11.368923051501197"><ele>27.0</ele><time>2026-03-28T14:59:40Z</time></trkpt><trkpt lat="45.39076400464177" lon="11.369130527492205"><ele>27.0</ele><time>2026-03-28T14:59:41Z</time></trkpt><trkpt lat="45.39074643387763" lon="11.369318166060463"><ele>27.0</ele><time>2026-03-28T14:59:42Z</time></trkpt><trkpt lat="45.39073230131097" lon="11.369491747268603"><ele>27.0</ele><time>2026-03-28T14:59:43Z</time></trkpt><trkpt lat="45.390717719467496" lon="11.369651317490119"><ele>27.0</ele><time>2026-03-28T14:59:44Z</time></trkpt><trkpt lat="45.39070522631737" lon="11.369793575915262"><ele>27.200000000000003</ele><time>2026-03-28T14:59:45Z</time></trkpt><trkpt lat="45.390694910857" lon="11.369924548712554"><ele>27.400000000000002</ele><time>2026-03-28T14:59:46Z</time></trkpt><trkpt lat="45.39068549279534" lon="11.370051349246497"><ele>27.599999999999998</ele><time>2026-03-28T14:59:47Z</time></trkpt><trkpt lat="45.39068694879138" lon="11.370209510094668"><ele>27.799999999999997</ele><time>2026-03-28T14:59:48Z</time></trkpt><trkpt lat="45.39068119252163" lon="11.370382099359626"><ele>28.0</ele><time>2026-03-28T14:59:49Z</time></trkpt><trkpt lat="45.390664799494594" lon="11.370527303031187"><ele>28.2</ele><time>2026-03-28T14:59:50Z</time></trkpt><trkpt lat="45.390640442561896" lon="11.370672527334547"><ele>28.4</ele><time>2026-03-28T14:59:51Z</time></trkpt><trkpt lat="45.39060755894967" lon="11.370812952788684"><ele>28.599999999999998</ele><time>2026-03-28T14:59:52Z</time></trkpt><trkpt lat="45.39058198445405" lon="11.370966707424815"><ele>28.799999999999997</ele><time>2026-03-28T14:59:53Z</time></trkpt><trkpt lat="45.390541794166886" lon="11.37112457572424"><ele>29.0</ele><time>2026-03-28T14:59:54Z</time></trkpt><trkpt lat="45.39048581957112" lon="11.371289214417926"><ele>29.333333333333332</ele><time>2026-03-28T14:59:55Z</time></trkpt><trkpt lat="45.39042314326895" lon="11.371461196766166"><ele>29.666666666666664</ele><time>2026-03-28T14:59:56Z</time></trkpt><trkpt lat="45.390359721275104" lon="11.37166560328718"><ele>30.0</ele><time>2026-03-28T14:59:57Z</time></trkpt><trkpt lat="45.39029530553721" lon="11.371878412525737"><ele>30.0</ele><time>2026-03-28T14:59:58Z</time></trkpt><trkpt lat="45.39022108880778" lon="11.37210112539207"><ele>30.0</ele><time>2026-03-28T14:59:59Z</time></trkpt><trkpt lat="45.39015658902457" lon="11.372297034301399"><ele>30.0</ele><time>2026-03-28T15:00:00Z</time></trkpt><trkpt lat="45.39009943772396" lon="11.37248285494133"><ele>30.25</ele><time>2026-03-28T15:00:01Z</time></trkpt><trkpt lat="45.39004119351565" lon="11.372663949429736"><ele>30.5</ele><time>2026-03-28T15:00:02Z</time></trkpt><trkpt lat="45.38998568055825" lon="11.372839640754579"><ele>30.75</ele><time>2026-03-28T15:00:03Z</time></trkpt><trkpt lat="45.38992724153288" lon="11.373021517894689"><ele>31.0</ele><time>2026-03-28T15:00:04Z</time></trkpt><trkpt lat="45.38987383964925" lon="11.37320586299065"><ele>30.5</ele><time>2026-03-28T15:00:05Z</time></trkpt><trkpt lat="45.38981520208366" lon="11.373387881355468"><ele>30.0</ele><time>2026-03-28T15:00:06Z</time></trkpt><trkpt lat="45.389757009358014" lon="11.37357375738021"><ele>29.5</ele><time>2026-03-28T15:00:07Z</time></trkpt><trkpt lat="45.3897080620282" lon="11.373762192743378"><ele>29.0</ele><time>2026-03-28T15:00:08Z</time></trkpt><trkpt lat="45.389667678521946" lon="11.373950621351675"><ele>28.75</ele><time>2026-03-28T15:00:09Z</time></trkpt><trkpt lat="45.38962723557868" lon="11.374143841077053"><ele>28.5</ele><time>2026-03-28T15:00:10Z</time></trkpt><trkpt lat="45.38959540799943" lon="11.374337792214385"><ele>28.25</ele><time>2026-03-28T15:00:11Z</time></trkpt><trkpt lat="45.38956500994896" lon="11.374532437416724"><ele>28.0</ele><time>2026-03-28T15:00:12Z</time></trkpt><trkpt lat="45.38954391316863" lon="11.374715558283972"><ele>28.0</ele><time>2026-03-28T15:00:13Z</time></trkpt><trkpt lat="45.389528299514346" lon="11.374907512179327"><ele>28.0</ele><time>2026-03-28T15:00:14Z</time></trkpt><trkpt lat="45.38951131185644" lon="11.375106108504848"><ele>28.0</ele><time>2026-03-28T15:00:15Z</time></trkpt><trkpt lat="45.38949996327556" lon="11.375299742548759"><ele>28.0</ele><time>2026-03-28T15:00:16Z</time></trkpt><trkpt lat="45.389486051010934" lon="11.375497257904684"><ele>28.0</ele><time>2026-03-28T15:00:17Z</time></trkpt><trkpt lat="45.38947847763666" lon="11.375696558914889"><ele>28.0</ele><time>2026-03-28T15:00:18Z</time></trkpt><trkpt lat="45.389474352628795" lon="11.37589235846277"><ele>28.0</ele><time>2026-03-28T15:00:19Z</time></trkpt><trkpt lat="45.38946841508633" lon="11.376085761435148"><ele>28.0</ele><time>2026-03-28T15:00:20Z</time></trkpt><trkpt lat="45.38946138244483" lon="11.376267755646833"><ele>28.0</ele><time>2026-03-28T15:00:21Z</time></trkpt><trkpt lat="45.38945554327782" lon="11.37644613777526"><ele>28.0</ele><time>2026-03-28T15:00:22Z</time></trkpt><trkpt lat="45.38945245246652" lon="11.376634930961188"><ele>28.0</ele><time>2026-03-28T15:00:23Z</time></trkpt><trkpt lat="45.38944746500027" lon="11.376827258834416"><ele>28.0</ele><time>2026-03-28T15:00:24Z</time></trkpt><trkpt lat="45.389441258985684" lon="11.377030060485149"><ele>28.25</ele><time>2026-03-28T15:00:25Z</time></trkpt><trkpt lat="45.389434010143134" lon="11.37722113332721"><ele>28.5</ele><time>2026-03-28T15:00:26Z</time></trkpt><trkpt lat="45.38942736634377" lon="11.377406855338405"><ele>28.75</ele><time>2026-03-28T15:00:27Z</time></trkpt><trkpt lat="45.38941878574898" lon="11.377585704200532"><ele>29.0</ele><time>2026-03-28T15:00:28Z</time></trkpt><trkpt lat="45.389409660923505" lon="11.377761092325136"><ele>29.0</ele><time>2026-03-28T15:00:29Z</time></trkpt><trkpt lat="45.389404650300925" lon="11.377946990654005"><ele>29.0</ele><time>2026-03-28T15:00:30Z</time></trkpt><trkpt lat="45.38939984869238" lon="11.37812154860999"><ele>29.0</ele><time>2026-03-28T15:00:31Z</time></trkpt><trkpt lat="45.38938632449448" lon="11.378283796405672"><ele>29.0</ele><time>2026-03-28T15:00:32Z</time></trkpt><trkpt lat="45.38937904845473" lon="11.378446924773538"><ele>28.75</ele><time>2026-03-28T15:00:33Z</time></trkpt><trkpt lat="45.38938018578102" lon="11.37865577775143"><ele>28.5</ele><time>2026-03-28T15:00:34Z</time></trkpt><trkpt lat="45.38937697475115" lon="11.378839016428415"><ele>28.25</ele><time>2026-03-28T15:00:35Z</time></trkpt><trkpt lat="45.38936817122639" lon="11.379024613518773"><ele>28.0</ele><time>2026-03-28T15:00:36Z</time></trkpt><trkpt lat="45.38935983677052" lon="11.379209658079274"><ele>28.0</ele><time>2026-03-28T15:00:37Z</time></trkpt><trkpt lat="45.38934850785956" lon="11.379382041958003"><ele>28.0</ele><time>2026-03-28T15:00:38Z</time></trkpt><trkpt lat="45.3893319358375" lon="11.379548590604069"><ele>28.0</ele><time>2026-03-28T15:00:39Z</time></trkpt><trkpt lat="45.389306837217745" lon="11.379705792623398"><ele>28.0</ele><time>2026-03-28T15:00:40Z</time></trkpt><trkpt lat="45.38927493574643" lon="11.379855352555799"><ele>28.0</ele><time>2026-03-28T15:00:41Z</time></trkpt><trkpt lat="45.38924040350851" lon="11.38001706792636"><ele>28.0</ele><time>2026-03-28T15:00:42Z</time></trkpt><trkpt lat="45.38920153150424" lon="11.380185835067548"><ele>28.0</ele><time>2026-03-28T15:00:43Z</time></trkpt><trkpt lat="45.38917285313988" lon="11.380354601910344"><ele>28.0</ele><time>2026-03-28T15:00:44Z</time></trkpt><trkpt lat="45.389142088255426" lon="11.380510698213772"><ele>28.000000000000004</ele><time>2026-03-28T15:00:45Z</time></trkpt><trkpt lat="45.389116199677126" lon="11.380655446353012"><ele>28.0</ele><time>2026-03-28T15:00:46Z</time></trkpt><trkpt lat="45.38909674948666" lon="11.38078622960721"><ele>28.0</ele><time>2026-03-28T15:00:47Z</time></trkpt><trkpt lat="45.389077870844766" lon="11.380903216649292"><ele>28.0</ele><time>2026-03-28T15:00:48Z</time></trkpt><trkpt lat="45.389065183204146" lon="11.381001249685243"><ele>28.000000000000004</ele><time>2026-03-28T15:00:49Z</time></trkpt><trkpt lat="45.38905500210788" lon="11.381096016041392"><ele>28.0</ele><time>2026-03-28T15:00:50Z</time></trkpt><trkpt lat="45.38904187534116" lon="11.381187695077703"><ele>28.000000000000004</ele><time>2026-03-28T15:00:51Z</time></trkpt><trkpt lat="45.38903774584992" lon="11.381278238169484"><ele>28.0</ele><time>2026-03-28T15:00:52Z</time></trkpt><trkpt lat="45.389020874085205" lon="11.381374689078092"><ele>28.0</ele><time>2026-03-28T15:00:53Z</time></trkpt><trkpt lat="45.388980777291806" lon="11.381480239471621"><ele>28.0</ele><time>2026-03-28T15:00:54Z</time></trkpt><trkpt lat="45.38894434534787" lon="11.381583303746652"><ele>28.000000000000004</ele><time>2026-03-28T15:00:55Z</time></trkpt><trkpt lat="45.388938663097164" lon="11.381679340063846"><ele>28.0</ele><time>2026-03-28T15:00:56Z</time></trkpt><trkpt lat="45.38892171874604" lon="11.381799530932392"><ele>28.166666666666668</ele><time>2026-03-28T15:00:58Z</time></trkpt><trkpt lat="45.38884347987898" lon="11.381780662523266"><ele>28.333333333333336</ele><time>2026-03-28T15:01:00Z</time></trkpt><trkpt lat="45.38877734938655" lon="11.381761201732202"><ele>28.5</ele><time>2026-03-28T15:01:02Z</time></trkpt><trkpt lat="45.388778631039266" lon="11.38191451666503"><ele>28.666666666666664</ele><time>2026-03-28T15:01:04Z</time></trkpt><trkpt lat="45.388720975242215" lon="11.381986143092004"><ele>28.833333333333332</ele><time>2026-03-28T15:01:06Z</time></trkpt><trkpt lat="45.38870318786465" lon="11.382089813877457"><ele>29.0</ele><time>2026-03-28T15:18:16.999Z</time></trkpt><trkpt lat="45.38873291297357" lon="11.382181595927397"><ele>28.999999999999996</ele><time>2026-03-28T15:18:18.999Z</time></trkpt><trkpt lat="45.38880683413582" lon="11.382178487089579"><ele>29.0</ele><time>2026-03-28T15:18:21Z</time></trkpt><trkpt lat="45.38887204284714" lon="11.382134104781265"><ele>29.0</ele><time>2026-03-28T15:18:34Z</time></trkpt><trkpt lat="45.38895068914381" lon="11.381985049712961"><ele>29.0</ele><time>2026-03-28T15:18:37Z</time></trkpt><trkpt lat="45.388992079136145" lon="11.38187448853773"><ele>28.999999999999996</ele><time>2026-03-28T15:18:38Z</time></trkpt><trkpt lat="45.389039836398595" lon="11.381800439673796"><ele>29.0</ele><time>2026-03-28T15:18:39Z</time></trkpt><trkpt lat="45.38909420536386" lon="11.381729370184896"><ele>28.999999999999996</ele><time>2026-03-28T15:18:40Z</time></trkpt><trkpt lat="45.389133821661716" lon="11.38164516273154"><ele>29.0</ele><time>2026-03-28T15:18:41Z</time></trkpt><trkpt lat="45.389107809287104" lon="11.381479551693326"><ele>29.0</ele><time>2026-03-28T15:18:43Z</time></trkpt><trkpt lat="45.389048437038284" lon="11.381449258557916"><ele>29.0</ele><time>2026-03-28T15:18:44Z</time></trkpt><trkpt lat="45.38897109178442" lon="11.381466896233091"><ele>28.999999999999996</ele><time>2026-03-28T15:18:45Z</time></trkpt><trkpt lat="45.388905721017025" lon="11.381509252133567"><ele>29.0</ele><time>2026-03-28T15:18:46Z</time></trkpt><trkpt lat="45.388836999409186" lon="11.38152051105017"><ele>29.0</ele><time>2026-03-28T15:18:47Z</time></trkpt><trkpt lat="45.388772044115704" lon="11.381495918171755"><ele>29.0</ele><time>2026-03-28T15:18:48Z</time></trkpt><trkpt lat="45.388710105749325" lon="11.381465423757795"><ele>29.0</ele><time>2026-03-28T15:18:49Z</time></trkpt><trkpt lat="45.388590022276844" lon="11.381416061030336"><ele>29.0</ele><time>2026-03-28T15:18:51Z</time></trkpt><trkpt lat="45.38847325225939" lon="11.381378349523732"><ele>29.0</ele><time>2026-03-28T15:18:53Z</time></trkpt><trkpt lat="45.38834968595881" lon="11.38133456465336"><ele>28.833333333333332</ele><time>2026-03-28T15:18:55Z</time></trkpt><trkpt lat="45.38828238842065" lon="11.381313307561877"><ele>28.666666666666664</ele><time>2026-03-28T15:18:56Z</time></trkpt><trkpt lat="45.38821731319641" lon="11.381286834176949"><ele>28.5</ele><time>2026-03-28T15:18:57Z</time></trkpt><trkpt lat="45.38809024319155" lon="11.381250931708355"><ele>28.333333333333336</ele><time>2026-03-28T15:18:59Z</time></trkpt><trkpt lat="45.388025390815535" lon="11.381224067961632"><ele>28.166666666666668</ele><time>2026-03-28T15:19:00Z</time></trkpt><trkpt lat="45.38796202839908" lon="11.381208941367987"><ele>28.0</ele><time>2026-03-28T15:19:01Z</time></trkpt><trkpt lat="45.387882742695524" lon="11.381185794914702"><ele>27.799999999999997</ele><time>2026-03-28T15:19:02Z</time></trkpt><trkpt lat="45.3877795870781" lon="11.381148233232468"><ele>27.599999999999998</ele><time>2026-03-28T15:19:03Z</time></trkpt><trkpt lat="45.38768128666701" lon="11.38111125265145"><ele>27.400000000000002</ele><time>2026-03-28T15:19:04Z</time></trkpt><trkpt lat="45.387584602665385" lon="11.381075965856919"><ele>27.200000000000003</ele><time>2026-03-28T15:19:05Z</time></trkpt><trkpt lat="45.38750371271869" lon="11.381045881002954"><ele>27.0</ele><time>2026-03-28T15:19:06Z</time></trkpt><trkpt lat="45.38743755865102" lon="11.38102757208503"><ele>27.0</ele><time>2026-03-28T15:19:07Z</time></trkpt><trkpt lat="45.387362443660116" lon="11.381000832539922"><ele>27.000000000000004</ele><time>2026-03-28T15:19:08Z</time></trkpt><trkpt lat="45.38729791193002" lon="11.380974192784157"><ele>27.000000000000004</ele><time>2026-03-28T15:19:09Z</time></trkpt><trkpt lat="45.387187819567245" lon="11.380929962050871"><ele>27.0</ele><time>2026-03-28T15:19:11Z</time></trkpt><trkpt lat="45.38709114322619" lon="11.380896702333457"><ele>27.0</ele><time>2026-03-28T15:19:13Z</time></trkpt><trkpt lat="45.38699348720338" lon="11.380864523955019"><ele>26.8</ele><time>2026-03-28T15:19:15Z</time></trkpt><trkpt lat="45.38689676423874" lon="11.380831371529146"><ele>26.6</ele><time>2026-03-28T15:19:17Z</time></trkpt><trkpt lat="45.38680125139953" lon="11.38077477369716"><ele>26.400000000000002</ele><time>2026-03-28T15:19:19Z</time></trkpt><trkpt lat="45.38671268200896" lon="11.380761739930964"><ele>26.200000000000003</ele><time>2026-03-28T15:19:21Z</time></trkpt><trkpt lat="45.386694918249454" lon="11.380637006261423"><ele>26.0</ele><time>2026-03-28T15:19:22Z</time></trkpt><trkpt lat="45.386648723212986" lon="11.380529051606972"><ele>25.833333333333332</ele><time>2026-03-28T15:19:24Z</time></trkpt><trkpt lat="45.3866158316265" lon="11.380414713242796"><ele>25.666666666666664</ele><time>2026-03-28T15:19:26Z</time></trkpt><trkpt lat="45.386570707764285" lon="11.380299804392497"><ele>25.5</ele><time>2026-03-28T15:19:27.999Z</time></trkpt><trkpt lat="45.386586167452286" lon="11.380184811044185"><ele>25.333333333333336</ele><time>2026-03-28T15:19:29.999Z</time></trkpt><trkpt lat="45.386559915165904" lon="11.380040705288323"><ele>25.166666666666668</ele><time>2026-03-28T15:20:01.999Z</time></trkpt><trkpt lat="45.386537449513334" lon="11.37994103095645"><ele>25.0</ele><time>2026-03-28T15:20:04.999Z</time></trkpt><trkpt lat="45.38652486668457" lon="11.379818162506664"><ele>25.4</ele><time>2026-03-28T15:20:06.999Z</time></trkpt><trkpt lat="45.3865067304572" lon="11.379645141612544"><ele>25.8</ele><time>2026-03-28T15:20:08.999Z</time></trkpt><trkpt lat="45.386497807031404" lon="11.379546511857702"><ele>26.200000000000003</ele><time>2026-03-28T15:20:09.999Z</time></trkpt><trkpt lat="45.38649183154916" lon="11.37945043732593"><ele>26.6</ele><time>2026-03-28T15:20:10.999Z</time></trkpt><trkpt lat="45.386469879759275" lon="11.379302981274074"><ele>27.0</ele><time>2026-03-28T15:20:11.999Z</time></trkpt><trkpt lat="45.38645092579115" lon="11.379168474009921"><ele>27.0</ele><time>2026-03-28T15:20:12.999Z</time></trkpt><trkpt lat="45.386435136740104" lon="11.379049709088042"><ele>27.000000000000004</ele><time>2026-03-28T15:20:13.999Z</time></trkpt><trkpt lat="45.386417580099405" lon="11.378917337466502"><ele>27.000000000000004</ele><time>2026-03-28T15:20:14.999Z</time></trkpt><trkpt lat="45.386402537984104" lon="11.378784753551578"><ele>27.0</ele><time>2026-03-28T15:20:15.999Z</time></trkpt><trkpt lat="45.386385822448496" lon="11.378635191041948"><ele>27.0</ele><time>2026-03-28T15:20:16.999Z</time></trkpt><trkpt lat="45.38636462139995" lon="11.378471583330358"><ele>27.0</ele><time>2026-03-28T15:20:17.999Z</time></trkpt><trkpt lat="45.386347595094634" lon="11.378311332194102"><ele>27.0</ele><time>2026-03-28T15:20:18.999Z</time></trkpt><trkpt lat="45.38633024105913" lon="11.378144258489662"><ele>27.0</ele><time>2026-03-28T15:20:19.999Z</time></trkpt><trkpt lat="45.38631039967113" lon="11.377967495838483"><ele>27.0</ele><time>2026-03-28T15:20:20.999Z</time></trkpt><trkpt lat="45.3862945919773" lon="11.377811562841096"><ele>26.833333333333332</ele><time>2026-03-28T15:20:21.999Z</time></trkpt><trkpt lat="45.38628090500927" lon="11.377675184331482"><ele>26.666666666666664</ele><time>2026-03-28T15:20:22.999Z</time></trkpt><trkpt lat="45.386266651731475" lon="11.377547576812317"><ele>26.5</ele><time>2026-03-28T15:20:23.999Z</time></trkpt><trkpt lat="45.386244098886536" lon="11.377435747928029"><ele>26.333333333333332</ele><time>2026-03-28T15:20:24.999Z</time></trkpt><trkpt lat="45.386206970849116" lon="11.377342570792266"><ele>26.166666666666664</ele><time>2026-03-28T15:20:26Z</time></trkpt><trkpt lat="45.38615453605558" lon="11.377273990669261"><ele>26.0</ele><time>2026-03-28T15:20:27Z</time></trkpt><trkpt lat="45.386088233562866" lon="11.377227906523396"><ele>25.999999999999996</ele><time>2026-03-28T15:20:28Z</time></trkpt><trkpt lat="45.386009821065215" lon="11.377197435991187"><ele>26.0</ele><time>2026-03-28T15:20:29Z</time></trkpt><trkpt lat="45.38592005476541" lon="11.377204210960041"><ele>26.0</ele><time>2026-03-28T15:20:30Z</time></trkpt><trkpt lat="45.38583969698801" lon="11.37724331857366"><ele>26.0</ele><time>2026-03-28T15:20:31Z</time></trkpt><trkpt lat="45.38577882290784" lon="11.377309365833035"><ele>25.999999999999996</ele><time>2026-03-28T15:20:32Z</time></trkpt><trkpt lat="45.38573388900757" lon="11.37739441422467"><ele>26.0</ele><time>2026-03-28T15:20:33Z</time></trkpt><trkpt lat="45.38569504384515" lon="11.377504902952163"><ele>26.0</ele><time>2026-03-28T15:20:34Z</time></trkpt><trkpt lat="45.385674026559805" lon="11.377634879104534"><ele>26.0</ele><time>2026-03-28T15:20:35Z</time></trkpt><trkpt lat="45.38567222357002" lon="11.377778831272428"><ele>26.0</ele><time>2026-03-28T15:20:36Z</time></trkpt><trkpt lat="45.385676459414185" lon="11.377920466753285"><ele>26.0</ele><time>2026-03-28T15:20:37Z</time></trkpt><trkpt lat="45.38567492569015" lon="11.378051726521667"><ele>26.0</ele><time>2026-03-28T15:20:38Z</time></trkpt><trkpt lat="45.385668454954384" lon="11.378185274305174"><ele>26.0</ele><time>2026-03-28T15:20:39Z</time></trkpt><trkpt lat="45.385665492458706" lon="11.378319989995907"><ele>26.0</ele><time>2026-03-28T15:20:40Z</time></trkpt><trkpt lat="45.38565429921708" lon="11.378466621578022"><ele>26.0</ele><time>2026-03-28T15:20:41Z</time></trkpt><trkpt lat="45.385615229406085" lon="11.378609673550075"><ele>26.0</ele><time>2026-03-28T15:20:42Z</time></trkpt><trkpt lat="45.38556045165675" lon="11.378740350767838"><ele>26.0</ele><time>2026-03-28T15:20:43Z</time></trkpt><trkpt lat="45.38548182303972" lon="11.378852281746124"><ele>25.5</ele><time>2026-03-28T15:20:44Z</time></trkpt><trkpt lat="45.38538233662467" lon="11.378942446626365"><ele>25.0</ele><time>2026-03-28T15:20:45Z</time></trkpt><trkpt lat="45.38526666789739" lon="11.379002561604903"><ele>24.5</ele><time>2026-03-28T15:20:46Z</time></trkpt><trkpt lat="45.385157798441206" lon="11.379070703353609"><ele>24.0</ele><time>2026-03-28T15:20:47Z</time></trkpt><trkpt lat="45.38501693130589" lon="11.379040917709798"><ele>24.0</ele><time>2026-03-28T15:20:48Z</time></trkpt><trkpt lat="45.384901829050115" lon="11.379071900089295"><ele>24.0</ele><time>2026-03-28T15:20:49Z</time></trkpt><trkpt lat="45.384778582163726" lon="11.379101724581446"><ele>24.0</ele><time>2026-03-28T15:20:50Z</time></trkpt><trkpt lat="45.38464867703009" lon="11.379139959647755"><ele>24.0</ele><time>2026-03-28T15:20:51Z</time></trkpt><trkpt lat="45.38452494458465" lon="11.379175244765634"><ele>24.75</ele><time>2026-03-28T15:20:52Z</time></trkpt><trkpt lat="45.38439909199673" lon="11.379214546694447"><ele>25.5</ele><time>2026-03-28T15:20:53Z</time></trkpt><trkpt lat="45.38427427371488" lon="11.379254824040874"><ele>26.25</ele><time>2026-03-28T15:20:54Z</time></trkpt><trkpt lat="45.38414168033987" lon="11.37929410734988"><ele>27.0</ele><time>2026-03-28T15:20:55Z</time></trkpt><trkpt lat="45.38400286149433" lon="11.379330463576803"><ele>27.0</ele><time>2026-03-28T15:20:56Z</time></trkpt><trkpt lat="45.38385648475542" lon="11.379367167441883"><ele>27.0</ele><time>2026-03-28T15:20:57Z</time></trkpt><trkpt lat="45.38371242773328" lon="11.37940000011417"><ele>27.0</ele><time>2026-03-28T15:20:58Z</time></trkpt><trkpt lat="45.38356307509705" lon="11.379430634990925"><ele>27.0</ele><time>2026-03-28T15:20:59Z</time></trkpt><trkpt lat="45.38341400756348" lon="11.379463282257817"><ele>26.333333333333336</ele><time>2026-03-28T15:21:00Z</time></trkpt><trkpt lat="45.38326253209596" lon="11.379499691947682"><ele>25.666666666666668</ele><time>2026-03-28T15:21:01Z</time></trkpt><trkpt lat="45.38311614399751" lon="11.379536465778513"><ele>25.0</ele><time>2026-03-28T15:21:02Z</time></trkpt><trkpt lat="45.382967271403515" lon="11.379570182650767"><ele>24.75</ele><time>2026-03-28T15:21:03Z</time></trkpt><trkpt lat="45.38282507515475" lon="11.379603775802272"><ele>24.5</ele><time>2026-03-28T15:21:04Z</time></trkpt><trkpt lat="45.3826791832937" lon="11.379638324552003"><ele>24.25</ele><time>2026-03-28T15:21:05Z</time></trkpt><trkpt lat="45.382525219976294" lon="11.379674112512687"><ele>24.0</ele><time>2026-03-28T15:21:06Z</time></trkpt><trkpt lat="45.38236695699786" lon="11.379713226796442"><ele>23.333333333333332</ele><time>2026-03-28T15:21:07Z</time></trkpt><trkpt lat="45.38221095508554" lon="11.379754969808063"><ele>22.666666666666664</ele><time>2026-03-28T15:21:08Z</time></trkpt><trkpt lat="45.382050131163524" lon="11.37979669343324"><ele>22.0</ele><time>2026-03-28T15:21:09Z</time></trkpt><trkpt lat="45.38189126691639" lon="11.37983570924915"><ele>22.0</ele><time>2026-03-28T15:21:10Z</time></trkpt><trkpt lat="45.38172668349309" lon="11.37987262788538"><ele>22.0</ele><time>2026-03-28T15:21:11Z</time></trkpt><trkpt lat="45.381567214548596" lon="11.37990331338778"><ele>22.0</ele><time>2026-03-28T15:21:12Z</time></trkpt><trkpt lat="45.3814061167563" lon="11.379936665417313"><ele>22.333333333333332</ele><time>2026-03-28T15:21:13Z</time></trkpt><trkpt lat="45.381241681709795" lon="11.379976009934204"><ele>22.666666666666668</ele><time>2026-03-28T15:21:14Z</time></trkpt><trkpt lat="45.38109897581544" lon="11.380010168802846"><ele>23.0</ele><time>2026-03-28T15:21:15Z</time></trkpt><trkpt lat="45.380961407871695" lon="11.3800390741472"><ele>23.0</ele><time>2026-03-28T15:21:16Z</time></trkpt><trkpt lat="45.38078562383403" lon="11.38008171782028"><ele>23.0</ele><time>2026-03-28T15:21:17Z</time></trkpt><trkpt lat="45.38058396473286" lon="11.380136232220012"><ele>23.0</ele><time>2026-03-28T15:21:18Z</time></trkpt><trkpt lat="45.380365512503055" lon="11.3801848881517"><ele>23.0</ele><time>2026-03-28T15:21:19Z</time></trkpt><trkpt lat="45.38015104007531" lon="11.38023268442505"><ele>23.0</ele><time>2026-03-28T15:21:20Z</time></trkpt><trkpt lat="45.37996339208975" lon="11.380280805200652"><ele>23.0</ele><time>2026-03-28T15:21:21Z</time></trkpt><trkpt lat="45.379783333063656" lon="11.38032575442315"><ele>23.0</ele><time>2026-03-28T15:21:22Z</time></trkpt><trkpt lat="45.37958976134869" lon="11.380370459495358"><ele>23.0</ele><time>2026-03-28T15:21:23Z</time></trkpt><trkpt lat="45.37939864989619" lon="11.380410773567245"><ele>23.0</ele><time>2026-03-28T15:21:24Z</time></trkpt><trkpt lat="45.37921145626669" lon="11.380455034748726"><ele>23.0</ele><time>2026-03-28T15:21:25Z</time></trkpt><trkpt lat="45.37903369665265" lon="11.380498646384119"><ele>23.0</ele><time>2026-03-28T15:21:26Z</time></trkpt><trkpt lat="45.378871190366205" lon="11.380545803302569"><ele>23.0</ele><time>2026-03-28T15:21:27Z</time></trkpt><trkpt lat="45.37868923485273" lon="11.380578175252118"><ele>23.333333333333336</ele><time>2026-03-28T15:21:28Z</time></trkpt><trkpt lat="45.378510586121955" lon="11.3806134339868"><ele>23.666666666666668</ele><time>2026-03-28T15:21:29Z</time></trkpt><trkpt lat="45.378334732178466" lon="11.380658816962198"><ele>24.0</ele><time>2026-03-28T15:21:30Z</time></trkpt><trkpt lat="45.37815054582013" lon="11.380697201484335"><ele>25.0</ele><time>2026-03-28T15:21:30.999Z</time></trkpt><trkpt lat="45.37797509296462" lon="11.380741892435017"><ele>26.0</ele><time>2026-03-28T15:21:31.999Z</time></trkpt><trkpt lat="45.377796375607744" lon="11.380786617992769"><ele>27.0</ele><time>2026-03-28T15:21:32.999Z</time></trkpt><trkpt lat="45.377612941132455" lon="11.38083771506092"><ele>27.0</ele><time>2026-03-28T15:21:33.999Z</time></trkpt><trkpt lat="45.377419699403646" lon="11.380900864040843"><ele>27.0</ele><time>2026-03-28T15:21:34.999Z</time></trkpt><trkpt lat="45.377222706190814" lon="11.38098388729247"><ele>27.0</ele><time>2026-03-28T15:21:35.999Z</time></trkpt><trkpt lat="45.37702690216341" lon="11.381077949199868"><ele>26.666666666666664</ele><time>2026-03-28T15:21:36.999Z</time></trkpt><trkpt lat="45.37684236731321" lon="11.381194784436858"><ele>26.333333333333332</ele><time>2026-03-28T15:21:37.999Z</time></trkpt><trkpt lat="45.37666434834746" lon="11.38131114493935"><ele>26.0</ele><time>2026-03-28T15:21:38.999Z</time></trkpt><trkpt lat="45.37648587430925" lon="11.381445930329223"><ele>26.0</ele><time>2026-03-28T15:21:39.999Z</time></trkpt><trkpt lat="45.37632416703658" lon="11.381573774127794"><ele>26.0</ele><time>2026-03-28T15:21:40.999Z</time></trkpt><trkpt lat="45.37618193576802" lon="11.381694751185757"><ele>26.0</ele><time>2026-03-28T15:21:41.999Z</time></trkpt><trkpt lat="45.37604913096554" lon="11.381817346651118"><ele>26.0</ele><time>2026-03-28T15:21:42.999Z</time></trkpt><trkpt lat="45.37591576217136" lon="11.381950479029486"><ele>26.0</ele><time>2026-03-28T15:21:43.999Z</time></trkpt><trkpt lat="45.375773854966276" lon="11.382088826426854"><ele>26.0</ele><time>2026-03-28T15:21:44.999Z</time></trkpt><trkpt lat="45.37563333300416" lon="11.382222614922394"><ele>25.666666666666664</ele><time>2026-03-28T15:21:45.999Z</time></trkpt><trkpt lat="45.37549294543164" lon="11.382356721589693"><ele>25.333333333333336</ele><time>2026-03-28T15:21:46.999Z</time></trkpt><trkpt lat="45.37535426635333" lon="11.382492602046348"><ele>25.0</ele><time>2026-03-28T15:21:47.999Z</time></trkpt><trkpt lat="45.37521914046524" lon="11.382619607290167"><ele>25.0</ele><time>2026-03-28T15:21:48.999Z</time></trkpt><trkpt lat="45.375098350049356" lon="11.382732149505781"><ele>25.0</ele><time>2026-03-28T15:21:49.999Z</time></trkpt><trkpt lat="45.374977168057804" lon="11.382849021877403"><ele>25.0</ele><time>2026-03-28T15:21:50.999Z</time></trkpt><trkpt lat="45.37486256763311" lon="11.382956650177334"><ele>25.0</ele><time>2026-03-28T15:21:51.999Z</time></trkpt><trkpt lat="45.37474915900426" lon="11.383056234375271"><ele>24.6</ele><time>2026-03-28T15:21:52.999Z</time></trkpt><trkpt lat="45.374643929071" lon="11.383140066250778"><ele>24.2</ele><time>2026-03-28T15:21:53.999Z</time></trkpt><trkpt lat="45.374546549091235" lon="11.383210445939977"><ele>23.799999999999997</ele><time>2026-03-28T15:21:54.999Z</time></trkpt><trkpt lat="45.374452535275275" lon="11.383268809708763"><ele>23.4</ele><time>2026-03-28T15:21:55.999Z</time></trkpt><trkpt lat="45.37434728338902" lon="11.383300472973973"><ele>23.0</ele><time>2026-03-28T15:21:56.999Z</time></trkpt><trkpt lat="45.37426499230693" lon="11.383363896266932"><ele>23.0</ele><time>2026-03-28T15:21:57.999Z</time></trkpt><trkpt lat="45.37417032944862" lon="11.383401809248129"><ele>23.0</ele><time>2026-03-28T15:21:58.999Z</time></trkpt><trkpt lat="45.37407454320715" lon="11.383431465229306"><ele>23.0</ele><time>2026-03-28T15:21:59.999Z</time></trkpt><trkpt lat="45.37398142339393" lon="11.383444356485901"><ele>23.0</ele><time>2026-03-28T15:22:00.999Z</time></trkpt><trkpt lat="45.37388070852076" lon="11.383433876755662"><ele>23.0</ele><time>2026-03-28T15:22:01.999Z</time></trkpt><trkpt lat="45.37376512893971" lon="11.383401292398284"><ele>23.2</ele><time>2026-03-28T15:22:02.999Z</time></trkpt><trkpt lat="45.37366473102578" lon="11.383354651378594"><ele>23.4</ele><time>2026-03-28T15:22:03.999Z</time></trkpt><trkpt lat="45.37357022480415" lon="11.383281882740503"><ele>23.599999999999998</ele><time>2026-03-28T15:22:04.999Z</time></trkpt><trkpt lat="45.37348105501622" lon="11.383190472361976"><ele>23.799999999999997</ele><time>2026-03-28T15:22:05.999Z</time></trkpt><trkpt lat="45.373380443154275" lon="11.383106851740578"><ele>24.0</ele><time>2026-03-28T15:22:06.999Z</time></trkpt><trkpt lat="45.3732733064139" lon="11.38306216911576"><ele>24.0</ele><time>2026-03-28T15:22:07.999Z</time></trkpt><trkpt lat="45.37315587749358" lon="11.38304931263318"><ele>24.0</ele><time>2026-03-28T15:22:08.999Z</time></trkpt><trkpt lat="45.373039533203745" lon="11.38306011040254"><ele>24.0</ele><time>2026-03-28T15:22:09.999Z</time></trkpt><trkpt lat="45.37292990684813" lon="11.38309480660081"><ele>24.0</ele><time>2026-03-28T15:22:10.999Z</time></trkpt><trkpt lat="45.372826655816304" lon="11.383173780609212"><ele>24.4</ele><time>2026-03-28T15:22:11.999Z</time></trkpt><trkpt lat="45.37273484954955" lon="11.383279789431725"><ele>24.799999999999997</ele><time>2026-03-28T15:22:12.999Z</time></trkpt><trkpt lat="45.37266392755872" lon="11.383410889925319"><ele>25.200000000000003</ele><time>2026-03-28T15:22:13.999Z</time></trkpt><trkpt lat="45.37263095349728" lon="11.38354917636855"><ele>25.6</ele><time>2026-03-28T15:22:14.999Z</time></trkpt><trkpt lat="45.372627535283065" lon="11.38369191314463"><ele>26.0</ele><time>2026-03-28T15:22:15.999Z</time></trkpt><trkpt lat="45.37265695264988" lon="11.383825867857206"><ele>26.200000000000003</ele><time>2026-03-28T15:22:16.999Z</time></trkpt><trkpt lat="45.372718913495596" lon="11.383955069671153"><ele>26.400000000000002</ele><time>2026-03-28T15:22:17.999Z</time></trkpt><trkpt lat="45.37280855616352" lon="11.384070933186672"><ele>26.6</ele><time>2026-03-28T15:22:18.999Z</time></trkpt><trkpt lat="45.37291070311768" lon="11.384151943090611"><ele>26.8</ele><time>2026-03-28T15:22:19.999Z</time></trkpt><trkpt lat="45.373002931414526" lon="11.384210724211707"><ele>27.0</ele><time>2026-03-28T15:22:20.999Z</time></trkpt><trkpt lat="45.37307776569418" lon="11.384276429049798"><ele>27.0</ele><time>2026-03-28T15:22:21.999Z</time></trkpt><trkpt lat="45.37313025501134" lon="11.384364813888835"><ele>27.0</ele><time>2026-03-28T15:22:22.999Z</time></trkpt><trkpt lat="45.37315526515366" lon="11.384477145099217"><ele>27.0</ele><time>2026-03-28T15:22:23.999Z</time></trkpt><trkpt lat="45.37315192798421" lon="11.384601053416516"><ele>27.0</ele><time>2026-03-28T15:22:24.999Z</time></trkpt><trkpt lat="45.37312711764321" lon="11.384726082954623"><ele>27.0</ele><time>2026-03-28T15:22:25.999Z</time></trkpt><trkpt lat="45.37307654124555" lon="11.384817387145317"><ele>27.0</ele><time>2026-03-28T15:22:26.999Z</time></trkpt><trkpt lat="45.373010046487586" lon="11.384923890953297"><ele>27.0</ele><time>2026-03-28T15:22:27.999Z</time></trkpt><trkpt lat="45.37297032349402" lon="11.385065675145388"><ele>27.0</ele><time>2026-03-28T15:22:28.999Z</time></trkpt><trkpt lat="45.37296144274676" lon="11.385243428033027"><ele>27.0</ele><time>2026-03-28T15:22:29.999Z</time></trkpt><trkpt lat="45.37296187047082" lon="11.385432664086267"><ele>27.0</ele><time>2026-03-28T15:22:30.999Z</time></trkpt><trkpt lat="45.37295700619086" lon="11.385627656182992"><ele>27.25</ele><time>2026-03-28T15:22:32Z</time></trkpt><trkpt lat="45.372952542633186" lon="11.385807128463924"><ele>27.5</ele><time>2026-03-28T15:22:33Z</time></trkpt><trkpt lat="45.37295300396812" lon="11.386005066271048"><ele>27.75</ele><time>2026-03-28T15:22:34Z</time></trkpt><trkpt lat="45.372959129322375" lon="11.3862081336886"><ele>28.0</ele><time>2026-03-28T15:22:35Z</time></trkpt><trkpt lat="45.3729651906403" lon="11.386411020265228"><ele>27.333333333333336</ele><time>2026-03-28T15:22:36Z</time></trkpt><trkpt lat="45.37296401544391" lon="11.386629415103338"><ele>26.666666666666664</ele><time>2026-03-28T15:22:37Z</time></trkpt><trkpt lat="45.37296803038912" lon="11.386846425520575"><ele>26.0</ele><time>2026-03-28T15:22:38Z</time></trkpt><trkpt lat="45.3729762038293" lon="11.387060704798436"><ele>25.666666666666664</ele><time>2026-03-28T15:22:39Z</time></trkpt><trkpt lat="45.372984348537614" lon="11.387279534765934"><ele>25.333333333333336</ele><time>2026-03-28T15:22:40Z</time></trkpt><trkpt lat="45.37299371806456" lon="11.387497441762447"><ele>25.0</ele><time>2026-03-28T15:22:41Z</time></trkpt><trkpt lat="45.37300257112661" lon="11.387710749507903"><ele>25.0</ele><time>2026-03-28T15:22:42Z</time></trkpt><trkpt lat="45.373015701633925" lon="11.387919598146782"><ele>25.0</ele><time>2026-03-28T15:22:43Z</time></trkpt><trkpt lat="45.373030268540546" lon="11.38813201100579"><ele>25.0</ele><time>2026-03-28T15:22:44Z</time></trkpt><trkpt lat="45.3730426227141" lon="11.38835826758521"><ele>25.0</ele><time>2026-03-28T15:22:45Z</time></trkpt><trkpt lat="45.37304532540349" lon="11.388586203475022"><ele>25.0</ele><time>2026-03-28T15:22:46Z</time></trkpt><trkpt lat="45.373048350295946" lon="11.388810917146508"><ele>25.0</ele><time>2026-03-28T15:22:47Z</time></trkpt><trkpt lat="45.373055238851876" lon="11.38902263157139"><ele>25.0</ele><time>2026-03-28T15:22:48Z</time></trkpt><trkpt lat="45.37306465362975" lon="11.389229933479593"><ele>25.0</ele><time>2026-03-28T15:22:49Z</time></trkpt><trkpt lat="45.373072259815736" lon="11.389439401349595"><ele>25.0</ele><time>2026-03-28T15:22:50Z</time></trkpt><trkpt lat="45.37307961682767" lon="11.389643455715992"><ele>25.0</ele><time>2026-03-28T15:22:51Z</time></trkpt><trkpt lat="45.37308510739938" lon="11.38984795755582"><ele>25.0</ele><time>2026-03-28T15:22:52Z</time></trkpt><trkpt lat="45.373094139205655" lon="11.390031151987523"><ele>25.0</ele><time>2026-03-28T15:22:53Z</time></trkpt><trkpt lat="45.37309943061012" lon="11.390200811194545"><ele>25.0</ele><time>2026-03-28T15:22:54Z</time></trkpt><trkpt lat="45.37309593555503" lon="11.390359872300168"><ele>25.0</ele><time>2026-03-28T15:22:55Z</time></trkpt><trkpt lat="45.37308517812605" lon="11.39049540288966"><ele>24.666666666666668</ele><time>2026-03-28T15:22:56Z</time></trkpt><trkpt lat="45.37306520236948" lon="11.39061214646606"><ele>24.333333333333336</ele><time>2026-03-28T15:22:57Z</time></trkpt><trkpt lat="45.37306814421719" lon="11.390717817110103"><ele>24.0</ele><time>2026-03-28T15:22:58Z</time></trkpt><trkpt lat="45.373072815489564" lon="11.390837575174272"><ele>23.666666666666668</ele><time>2026-03-28T15:22:59Z</time></trkpt><trkpt lat="45.37307807658281" lon="11.390972451634724"><ele>23.333333333333336</ele><time>2026-03-28T15:23:00Z</time></trkpt><trkpt lat="45.373080897948114" lon="11.391113992597461"><ele>23.0</ele><time>2026-03-28T15:23:01Z</time></trkpt><trkpt lat="45.373085612125415" lon="11.391243567449326"><ele>23.0</ele><time>2026-03-28T15:23:02Z</time></trkpt><trkpt lat="45.373118020068794" lon="11.39137604626"><ele>23.0</ele><time>2026-03-28T15:23:03Z</time></trkpt><trkpt lat="45.373137798752566" lon="11.391543587918683"><ele>23.0</ele><time>2026-03-28T15:23:04Z</time></trkpt><trkpt lat="45.37314466145085" lon="11.391764308468359"><ele>23.0</ele><time>2026-03-28T15:23:05Z</time></trkpt><trkpt lat="45.37315225908006" lon="11.392026152691901"><ele>23.666666666666668</ele><time>2026-03-28T15:23:06Z</time></trkpt><trkpt lat="45.373165508608274" lon="11.392308032108783"><ele>24.333333333333336</ele><time>2026-03-28T15:23:07Z</time></trkpt><trkpt lat="45.37317201379505" lon="11.392568592330244"><ele>25.0</ele><time>2026-03-28T15:23:08Z</time></trkpt><trkpt lat="45.37317231293747" lon="11.392787827796235"><ele>25.333333333333336</ele><time>2026-03-28T15:23:09Z</time></trkpt><trkpt lat="45.37316925766832" lon="11.393016711721815"><ele>25.666666666666664</ele><time>2026-03-28T15:23:10Z</time></trkpt><trkpt lat="45.373162849477865" lon="11.393256307283783"><ele>26.0</ele><time>2026-03-28T15:23:11Z</time></trkpt><trkpt lat="45.37315039479355" lon="11.393494832218032"><ele>26.0</ele><time>2026-03-28T15:23:12Z</time></trkpt><trkpt lat="45.37312772593193" lon="11.393730558404163"><ele>26.0</ele><time>2026-03-28T15:23:13Z</time></trkpt><trkpt lat="45.37309863339417" lon="11.393960323077808"><ele>26.0</ele><time>2026-03-28T15:23:14Z</time></trkpt><trkpt lat="45.37306307383662" lon="11.394194905731133"><ele>26.0</ele><time>2026-03-28T15:23:15Z</time></trkpt><trkpt lat="45.37301480493774" lon="11.394443194849774"><ele>26.0</ele><time>2026-03-28T15:23:16Z</time></trkpt><trkpt lat="45.372963751991215" lon="11.394660032286822"><ele>26.0</ele><time>2026-03-28T15:23:17Z</time></trkpt><trkpt lat="45.37291113225919" lon="11.394864317195518"><ele>26.333333333333332</ele><time>2026-03-28T15:23:18Z</time></trkpt><trkpt lat="45.37285880137833" lon="11.39506617711289"><ele>26.666666666666664</ele><time>2026-03-28T15:23:19Z</time></trkpt><trkpt lat="45.37280369865055" lon="11.395284187284712"><ele>27.0</ele><time>2026-03-28T15:23:20Z</time></trkpt><trkpt lat="45.3727451469364" lon="11.395502895505023"><ele>26.0</ele><time>2026-03-28T15:23:21Z</time></trkpt><trkpt lat="45.372680584005586" lon="11.395715924952833"><ele>25.0</ele><time>2026-03-28T15:23:22Z</time></trkpt><trkpt lat="45.372602113288465" lon="11.395942111335023"><ele>24.0</ele><time>2026-03-28T15:23:23Z</time></trkpt><trkpt lat="45.37251581312759" lon="11.396174449235335"><ele>23.666666666666668</ele><time>2026-03-28T15:23:24Z</time></trkpt><trkpt lat="45.37243603150988" lon="11.3963906650344"><ele>23.333333333333336</ele><time>2026-03-28T15:23:25Z</time></trkpt><trkpt lat="45.37234088460717" lon="11.396625725589109"><ele>23.0</ele><time>2026-03-28T15:23:26Z</time></trkpt><trkpt lat="45.372258210309354" lon="11.3968545192289"><ele>23.0</ele><time>2026-03-28T15:23:27Z</time></trkpt><trkpt lat="45.37217414789612" lon="11.397081992824587"><ele>23.0</ele><time>2026-03-28T15:23:28Z</time></trkpt><trkpt lat="45.372087216053075" lon="11.397313312932773"><ele>23.0</ele><time>2026-03-28T15:23:29Z</time></trkpt><trkpt lat="45.372007756661546" lon="11.397536263997816"><ele>23.0</ele><time>2026-03-28T15:23:30Z</time></trkpt><trkpt lat="45.371927511796876" lon="11.397762869041955"><ele>23.0</ele><time>2026-03-28T15:23:31Z</time></trkpt><trkpt lat="45.37183952583366" lon="11.39799615494419"><ele>23.0</ele><time>2026-03-28T15:23:32Z</time></trkpt><trkpt lat="45.371750721786725" lon="11.398233555304563"><ele>22.666666666666668</ele><time>2026-03-28T15:23:33Z</time></trkpt><trkpt lat="45.371669769201674" lon="11.398453026629024"><ele>22.333333333333332</ele><time>2026-03-28T15:23:34Z</time></trkpt><trkpt lat="45.371583829275984" lon="11.398684939424728"><ele>22.0</ele><time>2026-03-28T15:23:34.999Z</time></trkpt><trkpt lat="45.37150001434265" lon="11.398906300369813"><ele>22.0</ele><time>2026-03-28T15:23:35.999Z</time></trkpt><trkpt lat="45.37141564424513" lon="11.39913469040707"><ele>22.0</ele><time>2026-03-28T15:23:36.999Z</time></trkpt><trkpt lat="45.37133108359529" lon="11.399367185761601"><ele>22.0</ele><time>2026-03-28T15:23:37.999Z</time></trkpt><trkpt lat="45.371241813346714" lon="11.399598504474838"><ele>22.333333333333332</ele><time>2026-03-28T15:23:38.999Z</time></trkpt><trkpt lat="45.371160110743126" lon="11.39979839765397"><ele>22.666666666666668</ele><time>2026-03-28T15:23:39.999Z</time></trkpt><trkpt lat="45.37106406017786" lon="11.399990383797226"><ele>23.0</ele><time>2026-03-28T15:23:40.999Z</time></trkpt><trkpt lat="45.37096242684775" lon="11.400158029972197"><ele>23.0</ele><time>2026-03-28T15:23:41.999Z</time></trkpt><trkpt lat="45.3708444241726" lon="11.400328777998938"><ele>23.0</ele><time>2026-03-28T15:23:42.999Z</time></trkpt><trkpt lat="45.37072091050508" lon="11.400493042902205"><ele>23.0</ele><time>2026-03-28T15:23:43.999Z</time></trkpt><trkpt lat="45.37058608639443" lon="11.400654826231833"><ele>22.666666666666668</ele><time>2026-03-28T15:23:44.999Z</time></trkpt><trkpt lat="45.37046061920825" lon="11.400797809771001"><ele>22.333333333333332</ele><time>2026-03-28T15:23:45.999Z</time></trkpt><trkpt lat="45.3703387735747" lon="11.400945413167696"><ele>22.0</ele><time>2026-03-28T15:23:46.999Z</time></trkpt><trkpt lat="45.370211023759396" lon="11.401109548951377"><ele>22.0</ele><time>2026-03-28T15:23:47.999Z</time></trkpt><trkpt lat="45.370087628422155" lon="11.401286531964976"><ele>22.0</ele><time>2026-03-28T15:23:48.999Z</time></trkpt><trkpt lat="45.369986210226934" lon="11.40147774486056"><ele>22.0</ele><time>2026-03-28T15:23:49.999Z</time></trkpt><trkpt lat="45.369903215202335" lon="11.40167754170882"><ele>22.666666666666664</ele><time>2026-03-28T15:23:50.999Z</time></trkpt><trkpt lat="45.369828306431266" lon="11.401896115229036"><ele>23.333333333333332</ele><time>2026-03-28T15:23:51.999Z</time></trkpt><trkpt lat="45.36976604475265" lon="11.402119704324242"><ele>24.0</ele><time>2026-03-28T15:23:52.999Z</time></trkpt><trkpt lat="45.36970558564161" lon="11.402364391693077"><ele>23.666666666666668</ele><time>2026-03-28T15:23:53.999Z</time></trkpt><trkpt lat="45.36965222693371" lon="11.402599927252348"><ele>23.333333333333336</ele><time>2026-03-28T15:23:54.999Z</time></trkpt><trkpt lat="45.36958851155582" lon="11.402858461839434"><ele>23.0</ele><time>2026-03-28T15:23:55.999Z</time></trkpt><trkpt lat="45.369532628624775" lon="11.403107382456877"><ele>23.0</ele><time>2026-03-28T15:23:56.999Z</time></trkpt><trkpt lat="45.36947846012042" lon="11.403365439603604"><ele>23.0</ele><time>2026-03-28T15:23:57.999Z</time></trkpt><trkpt lat="45.3694284988245" lon="11.403614692824354"><ele>23.0</ele><time>2026-03-28T15:23:58.999Z</time></trkpt><trkpt lat="45.36938133328867" lon="11.403860391881217"><ele>23.0</ele><time>2026-03-28T15:23:59.999Z</time></trkpt><trkpt lat="45.36932814642611" lon="11.404112422383928"><ele>23.0</ele><time>2026-03-28T15:24:00.999Z</time></trkpt><trkpt lat="45.36928078815567" lon="11.404359686034951"><ele>23.0</ele><time>2026-03-28T15:24:01.999Z</time></trkpt><trkpt lat="45.36922812333405" lon="11.404616809328395"><ele>22.666666666666668</ele><time>2026-03-28T15:24:02.999Z</time></trkpt><trkpt lat="45.3691757318668" lon="11.404863555778652"><ele>22.333333333333332</ele><time>2026-03-28T15:24:03.999Z</time></trkpt><trkpt lat="45.369133865257886" lon="11.405083495825345"><ele>22.0</ele><time>2026-03-28T15:24:04.999Z</time></trkpt><trkpt lat="45.369085598016504" lon="11.405314193988348"><ele>22.0</ele><time>2026-03-28T15:24:05.999Z</time></trkpt><trkpt lat="45.36903739573722" lon="11.405534751038196"><ele>22.0</ele><time>2026-03-28T15:24:06.999Z</time></trkpt><trkpt lat="45.36899413208064" lon="11.405754291081879"><ele>22.0</ele><time>2026-03-28T15:24:07.999Z</time></trkpt><trkpt lat="45.36894748059127" lon="11.405973914894147"><ele>22.0</ele><time>2026-03-28T15:24:08.999Z</time></trkpt><trkpt lat="45.36890493884644" lon="11.406184567657958"><ele>22.0</ele><time>2026-03-28T15:24:09.999Z</time></trkpt><trkpt lat="45.368873278477636" lon="11.406378115806929"><ele>22.0</ele><time>2026-03-28T15:24:10.999Z</time></trkpt><trkpt lat="45.36885653400503" lon="11.406567789606315"><ele>22.0</ele><time>2026-03-28T15:24:11.999Z</time></trkpt><trkpt lat="45.36885277196426" lon="11.406758703400623"><ele>22.5</ele><time>2026-03-28T15:24:12.999Z</time></trkpt><trkpt lat="45.36886045009788" lon="11.406937671496223"><ele>23.0</ele><time>2026-03-28T15:24:13.999Z</time></trkpt><trkpt lat="45.3688703975579" lon="11.407099707581128"><ele>23.5</ele><time>2026-03-28T15:24:14.999Z</time></trkpt><trkpt lat="45.36887906707226" lon="11.407252277644117"><ele>24.0</ele><time>2026-03-28T15:24:15.999Z</time></trkpt><trkpt lat="45.36887024670056" lon="11.40739750504686"><ele>23.799999999999997</ele><time>2026-03-28T15:24:16.999Z</time></trkpt><trkpt lat="45.368842960959995" lon="11.407531196298857"><ele>23.599999999999998</ele><time>2026-03-28T15:24:17.999Z</time></trkpt><trkpt lat="45.368802256583486" lon="11.407648885591392"><ele>23.4</ele><time>2026-03-28T15:24:18.999Z</time></trkpt><trkpt lat="45.36876877080827" lon="11.407771730871751"><ele>23.2</ele><time>2026-03-28T15:24:19.999Z</time></trkpt><trkpt lat="45.36875968234091" lon="11.40790092317918"><ele>23.0</ele><time>2026-03-28T15:24:20.999Z</time></trkpt><trkpt lat="45.36876714767755" lon="11.408037023364601"><ele>23.0</ele><time>2026-03-28T15:24:21.999Z</time></trkpt><trkpt lat="45.368769608072895" lon="11.408179308484302"><ele>23.0</ele><time>2026-03-28T15:24:22.999Z</time></trkpt><trkpt lat="45.3687480042749" lon="11.408338266836628"><ele>23.0</ele><time>2026-03-28T15:24:23.999Z</time></trkpt><trkpt lat="45.368700401200904" lon="11.408509709228964"><ele>23.0</ele><time>2026-03-28T15:24:24.999Z</time></trkpt><trkpt lat="45.3686275322097" lon="11.40868177958177"><ele>22.666666666666668</ele><time>2026-03-28T15:24:25.999Z</time></trkpt><trkpt lat="45.368539160068906" lon="11.40885304477062"><ele>22.333333333333332</ele><time>2026-03-28T15:24:26.999Z</time></trkpt><trkpt lat="45.36844364319856" lon="11.409034909522884"><ele>22.0</ele><time>2026-03-28T15:24:27.999Z</time></trkpt><trkpt lat="45.368346398098055" lon="11.409229871633977"><ele>22.0</ele><time>2026-03-28T15:24:28.999Z</time></trkpt><trkpt lat="45.3682543821905" lon="11.409429706760747"><ele>22.0</ele><time>2026-03-28T15:24:29.999Z</time></trkpt><trkpt lat="45.36815588380427" lon="11.409638087859571"><ele>22.0</ele><time>2026-03-28T15:24:30.999Z</time></trkpt><trkpt lat="45.36805823327567" lon="11.409826091587519"><ele>22.666666666666664</ele><time>2026-03-28T15:24:31.999Z</time></trkpt><trkpt lat="45.36794541963605" lon="11.410018329057355"><ele>23.333333333333332</ele><time>2026-03-28T15:24:32.999Z</time></trkpt><trkpt lat="45.367829148797746" lon="11.410205520420352"><ele>24.0</ele><time>2026-03-28T15:24:33.999Z</time></trkpt><trkpt lat="45.36770018453993" lon="11.410396603242708"><ele>23.333333333333332</ele><time>2026-03-28T15:24:34.999Z</time></trkpt><trkpt lat="45.367567421852804" lon="11.410579623435893"><ele>22.666666666666664</ele><time>2026-03-28T15:24:35.999Z</time></trkpt><trkpt lat="45.367433524635246" lon="11.41075849575309"><ele>22.0</ele><time>2026-03-28T15:24:36.999Z</time></trkpt><trkpt lat="45.36729736006435" lon="11.410940676859985"><ele>22.0</ele><time>2026-03-28T15:24:38Z</time></trkpt><trkpt lat="45.367178282857246" lon="11.411112546470033"><ele>22.0</ele><time>2026-03-28T15:24:39Z</time></trkpt><trkpt lat="45.36704592396455" lon="11.411287058880239"><ele>22.0</ele><time>2026-03-28T15:24:40Z</time></trkpt><trkpt lat="45.36690614177433" lon="11.411469420182293"><ele>22.0</ele><time>2026-03-28T15:24:41Z</time></trkpt><trkpt lat="45.36675873505952" lon="11.411662840262016"><ele>22.0</ele><time>2026-03-28T15:24:42Z</time></trkpt><trkpt lat="45.3666133489774" lon="11.411856000718618"><ele>22.0</ele><time>2026-03-28T15:24:43Z</time></trkpt><trkpt lat="45.36647401630347" lon="11.412049748397655"><ele>21.666666666666664</ele><time>2026-03-28T15:24:44Z</time></trkpt><trkpt lat="45.3663369324972" lon="11.412238948671568"><ele>21.333333333333332</ele><time>2026-03-28T15:24:45Z</time></trkpt><trkpt lat="45.366201888815496" lon="11.412427277212425"><ele>21.0</ele><time>2026-03-28T15:24:46Z</time></trkpt><trkpt lat="45.36605851219042" lon="11.41262109535652"><ele>21.0</ele><time>2026-03-28T15:24:47Z</time></trkpt><trkpt lat="45.36591627831438" lon="11.4128117440859"><ele>21.0</ele><time>2026-03-28T15:24:48Z</time></trkpt><trkpt lat="45.36577222185749" lon="11.41299852267084"><ele>21.0</ele><time>2026-03-28T15:24:49Z</time></trkpt><trkpt lat="45.365632181500615" lon="11.41318620857364"><ele>21.666666666666668</ele><time>2026-03-28T15:24:50Z</time></trkpt><trkpt lat="45.36548969124159" lon="11.41337447648121"><ele>22.333333333333336</ele><time>2026-03-28T15:24:51Z</time></trkpt><trkpt lat="45.36534942309416" lon="11.413561086651411"><ele>23.0</ele><time>2026-03-28T15:24:52Z</time></trkpt><trkpt lat="45.365210178125004" lon="11.413748831488599"><ele>22.333333333333336</ele><time>2026-03-28T15:24:53Z</time></trkpt><trkpt lat="45.365069947361114" lon="11.41393417881913"><ele>21.666666666666668</ele><time>2026-03-28T15:24:54Z</time></trkpt><trkpt lat="45.364931437426506" lon="11.414118506910805"><ele>21.0</ele><time>2026-03-28T15:24:55Z</time></trkpt><trkpt lat="45.3647928025796" lon="11.41430726654628"><ele>21.0</ele><time>2026-03-28T15:24:56Z</time></trkpt><trkpt lat="45.364656074959925" lon="11.414491210078292"><ele>21.0</ele><time>2026-03-28T15:24:57Z</time></trkpt><trkpt lat="45.36450718994214" lon="11.414680782388508"><ele>21.0</ele><time>2026-03-28T15:24:58Z</time></trkpt><trkpt lat="45.364350314822104" lon="11.414878701672466"><ele>21.666666666666668</ele><time>2026-03-28T15:24:59Z</time></trkpt><trkpt lat="45.36418555828454" lon="11.415089456687399"><ele>22.333333333333336</ele><time>2026-03-28T15:25:00Z</time></trkpt><trkpt lat="45.36401161970249" lon="11.415291810108558"><ele>23.0</ele><time>2026-03-28T15:25:01Z</time></trkpt><trkpt lat="45.36384034994654" lon="11.415489927215638"><ele>23.0</ele><time>2026-03-28T15:25:02Z</time></trkpt><trkpt lat="45.36367326196588" lon="11.415684221925725"><ele>23.0</ele><time>2026-03-28T15:25:03Z</time></trkpt><trkpt lat="45.36350934128249" lon="11.415875761674448"><ele>23.0</ele><time>2026-03-28T15:25:04Z</time></trkpt><trkpt lat="45.36334169218645" lon="11.416075962631389"><ele>23.0</ele><time>2026-03-28T15:25:05Z</time></trkpt><trkpt lat="45.36317245835164" lon="11.416273807557376"><ele>23.0</ele><time>2026-03-28T15:25:06Z</time></trkpt><trkpt lat="45.36300432951854" lon="11.416471656754622"><ele>23.0</ele><time>2026-03-28T15:25:07Z</time></trkpt><trkpt lat="45.36283791369636" lon="11.416665225840422"><ele>23.0</ele><time>2026-03-28T15:25:08Z</time></trkpt><trkpt lat="45.362667663855895" lon="11.416863965400173"><ele>23.0</ele><time>2026-03-28T15:25:09Z</time></trkpt><trkpt lat="45.36250272902913" lon="11.417058632152473"><ele>23.0</ele><time>2026-03-28T15:25:10Z</time></trkpt><trkpt lat="45.362338212449515" lon="11.417256500547442"><ele>23.0</ele><time>2026-03-28T15:25:11Z</time></trkpt><trkpt lat="45.36217310207681" lon="11.417452444410074"><ele>23.0</ele><time>2026-03-28T15:25:12Z</time></trkpt><trkpt lat="45.362005875330446" lon="11.417642945520186"><ele>23.0</ele><time>2026-03-28T15:25:13Z</time></trkpt><trkpt lat="45.36184222262374" lon="11.41783239963456"><ele>23.666666666666668</ele><time>2026-03-28T15:25:14Z</time></trkpt><trkpt lat="45.36168904742847" lon="11.418010479605266"><ele>24.333333333333336</ele><time>2026-03-28T15:25:15Z</time></trkpt><trkpt lat="45.36154305899293" lon="11.418182257165164"><ele>25.0</ele><time>2026-03-28T15:25:16Z</time></trkpt><trkpt lat="45.361398656722294" lon="11.418353050658668"><ele>24.666666666666668</ele><time>2026-03-28T15:25:17Z</time></trkpt><trkpt lat="45.3612494946779" lon="11.418532222677344"><ele>24.333333333333336</ele><time>2026-03-28T15:25:18Z</time></trkpt><trkpt lat="45.361105655254" lon="11.418710369277944"><ele>24.0</ele><time>2026-03-28T15:25:19Z</time></trkpt><trkpt lat="45.360966716273545" lon="11.418887885142992"><ele>23.333333333333332</ele><time>2026-03-28T15:25:20Z</time></trkpt><trkpt lat="45.36082799561895" lon="11.419082305009988"><ele>22.666666666666664</ele><time>2026-03-28T15:25:21Z</time></trkpt><trkpt lat="45.36069444486084" lon="11.419287434962891"><ele>22.0</ele><time>2026-03-28T15:25:22Z</time></trkpt><trkpt lat="45.360566154123646" lon="11.41950943139635"><ele>22.333333333333332</ele><time>2026-03-28T15:25:23Z</time></trkpt><trkpt lat="45.360441345067535" lon="11.419734738099262"><ele>22.666666666666668</ele><time>2026-03-28T15:25:24Z</time></trkpt><trkpt lat="45.3603193260307" lon="11.41997109319934"><ele>23.0</ele><time>2026-03-28T15:25:25Z</time></trkpt><trkpt lat="45.36020114489065" lon="11.420218261071208"><ele>23.0</ele><time>2026-03-28T15:25:26Z</time></trkpt><trkpt lat="45.36008784673306" lon="11.420475079643849"><ele>23.0</ele><time>2026-03-28T15:25:27Z</time></trkpt><trkpt lat="45.35998444145517" lon="11.420737712243877"><ele>23.0</ele><time>2026-03-28T15:25:28Z</time></trkpt><trkpt lat="45.35988711488242" lon="11.421004442095517"><ele>23.333333333333336</ele><time>2026-03-28T15:25:29Z</time></trkpt><trkpt lat="45.359793767155764" lon="11.421280654537698"><ele>23.666666666666668</ele><time>2026-03-28T15:25:30Z</time></trkpt><trkpt lat="45.35970621723324" lon="11.421560152704902"><ele>24.0</ele><time>2026-03-28T15:25:31Z</time></trkpt><trkpt lat="45.35962510551957" lon="11.421847783835798"><ele>24.0</ele><time>2026-03-28T15:25:32Z</time></trkpt><trkpt lat="45.35955680707758" lon="11.422140452020573"><ele>24.0</ele><time>2026-03-28T15:25:33Z</time></trkpt><trkpt lat="45.35949245704208" lon="11.42243688004941"><ele>24.0</ele><time>2026-03-28T15:25:34Z</time></trkpt><trkpt lat="45.359432862960496" lon="11.422727801715018"><ele>24.666666666666664</ele><time>2026-03-28T15:25:35Z</time></trkpt><trkpt lat="45.35937197462676" lon="11.42301826920936"><ele>25.333333333333332</ele><time>2026-03-28T15:25:36Z</time></trkpt><trkpt lat="45.35931117950567" lon="11.423308470177302"><ele>26.0</ele><time>2026-03-28T15:25:37Z</time></trkpt><trkpt lat="45.35925096178871" lon="11.423600635333942"><ele>26.666666666666664</ele><time>2026-03-28T15:25:38Z</time></trkpt><trkpt lat="45.35919323476837" lon="11.423865728037342"><ele>27.333333333333336</ele><time>2026-03-28T15:25:39Z</time></trkpt><trkpt lat="45.359138141188886" lon="11.424115637628757"><ele>28.0</ele><time>2026-03-28T15:25:40Z</time></trkpt><trkpt lat="45.35908192657426" lon="11.42434897235781"><ele>28.0</ele><time>2026-03-28T15:25:41Z</time></trkpt><trkpt lat="45.3590426763172" lon="11.42455660943537"><ele>28.0</ele><time>2026-03-28T15:25:41.999Z</time></trkpt><trkpt lat="45.35899822123667" lon="11.42475997297589"><ele>28.0</ele><time>2026-03-28T15:25:42.999Z</time></trkpt><trkpt lat="45.35895518694916" lon="11.424951756759409"><ele>28.0</ele><time>2026-03-28T15:25:43.999Z</time></trkpt><trkpt lat="45.35891185929605" lon="11.4251343640817"><ele>28.5</ele><time>2026-03-28T15:25:44.999Z</time></trkpt><trkpt lat="45.35887378894547" lon="11.42532073434647"><ele>29.0</ele><time>2026-03-28T15:25:45.999Z</time></trkpt><trkpt lat="45.35883249780637" lon="11.425514989540517"><ele>29.5</ele><time>2026-03-28T15:25:46.999Z</time></trkpt><trkpt lat="45.35879285001241" lon="11.425715355004229"><ele>30.0</ele><time>2026-03-28T15:25:47.999Z</time></trkpt><trkpt lat="45.35874588680094" lon="11.42592353628133"><ele>28.333333333333336</ele><time>2026-03-28T15:25:48.999Z</time></trkpt><trkpt lat="45.35870594927564" lon="11.426148734132198"><ele>26.666666666666668</ele><time>2026-03-28T15:25:49.999Z</time></trkpt><trkpt lat="45.35866613935759" lon="11.426371421194846"><ele>25.0</ele><time>2026-03-28T15:25:50.999Z</time></trkpt><trkpt lat="45.358632445311606" lon="11.426582694530598"><ele>25.0</ele><time>2026-03-28T15:25:51.999Z</time></trkpt><trkpt lat="45.35859773429879" lon="11.426799819206899"><ele>25.0</ele><time>2026-03-28T15:25:52.999Z</time></trkpt><trkpt lat="45.35856996411958" lon="11.427017430530494"><ele>25.0</ele><time>2026-03-28T15:25:53.999Z</time></trkpt><trkpt lat="45.35854420262952" lon="11.427231120605088"><ele>25.0</ele><time>2026-03-28T15:25:54.999Z</time></trkpt><trkpt lat="45.358524164340984" lon="11.427415920280463"><ele>25.0</ele><time>2026-03-28T15:25:55.999Z</time></trkpt><trkpt lat="45.3584994090584" lon="11.42761037005633"><ele>25.0</ele><time>2026-03-28T15:25:56.999Z</time></trkpt><trkpt lat="45.35848283680464" lon="11.42779842284654"><ele>25.0</ele><time>2026-03-28T15:25:57.999Z</time></trkpt><trkpt lat="45.358465892398065" lon="11.427978752660193"><ele>24.6</ele><time>2026-03-28T15:25:58.999Z</time></trkpt><trkpt lat="45.35845047679283" lon="11.42815018834691"><ele>24.2</ele><time>2026-03-28T15:25:59.999Z</time></trkpt><trkpt lat="45.35843092078377" lon="11.428314305189772"><ele>23.799999999999997</ele><time>2026-03-28T15:26:00.999Z</time></trkpt><trkpt lat="45.3584148689941" lon="11.428467037288685"><ele>23.4</ele><time>2026-03-28T15:26:01.999Z</time></trkpt><trkpt lat="45.35839832662578" lon="11.428608565945654"><ele>23.0</ele><time>2026-03-28T15:26:02.999Z</time></trkpt><trkpt lat="45.358384757959044" lon="11.428746037663798"><ele>22.833333333333336</ele><time>2026-03-28T15:26:03.999Z</time></trkpt><trkpt lat="45.35837201569689" lon="11.428873408093123"><ele>22.666666666666668</ele><time>2026-03-28T15:26:04.999Z</time></trkpt><trkpt lat="45.35835756003033" lon="11.428992079666065"><ele>22.5</ele><time>2026-03-28T15:26:05.999Z</time></trkpt><trkpt lat="45.35834123718872" lon="11.429100923015211"><ele>22.333333333333332</ele><time>2026-03-28T15:26:06.999Z</time></trkpt><trkpt lat="45.358327633647235" lon="11.42920496706486"><ele>22.166666666666664</ele><time>2026-03-28T15:26:07.999Z</time></trkpt><trkpt lat="45.35831105954181" lon="11.429312500182126"><ele>22.0</ele><time>2026-03-28T15:26:08.999Z</time></trkpt><trkpt lat="45.358277201835655" lon="11.429435340300643"><ele>22.0</ele><time>2026-03-28T15:26:09.999Z</time></trkpt><trkpt lat="45.35822331401947" lon="11.429541930607074"><ele>22.0</ele><time>2026-03-28T15:26:10.999Z</time></trkpt><trkpt lat="45.35815788620672" lon="11.42962556087086"><ele>22.0</ele><time>2026-03-28T15:26:11.999Z</time></trkpt><trkpt lat="45.35809577436654" lon="11.429726764432335"><ele>22.0</ele><time>2026-03-28T15:26:12.999Z</time></trkpt><trkpt lat="45.35806768806212" lon="11.42985124452019"><ele>22.0</ele><time>2026-03-28T15:26:13.999Z</time></trkpt><trkpt lat="45.35806396720702" lon="11.429997406899211"><ele>22.0</ele><time>2026-03-28T15:26:14.999Z</time></trkpt><trkpt lat="45.35809795887111" lon="11.430132679183485"><ele>22.0</ele><time>2026-03-28T15:26:15.999Z</time></trkpt><trkpt lat="45.358155086216556" lon="11.430282437818212"><ele>22.0</ele><time>2026-03-28T15:26:16.999Z</time></trkpt><trkpt lat="45.35818733872962" lon="11.430471706193101"><ele>22.0</ele><time>2026-03-28T15:26:17.999Z</time></trkpt><trkpt lat="45.358183663156815" lon="11.430696801371928"><ele>22.0</ele><time>2026-03-28T15:26:18.999Z</time></trkpt><trkpt lat="45.35816353763849" lon="11.430931745147381"><ele>22.0</ele><time>2026-03-28T15:26:19.999Z</time></trkpt><trkpt lat="45.35814109546523" lon="11.431152673045878"><ele>22.0</ele><time>2026-03-28T15:26:20.999Z</time></trkpt><trkpt lat="45.358122498316185" lon="11.431358158572815"><ele>22.0</ele><time>2026-03-28T15:26:21.999Z</time></trkpt><trkpt lat="45.358102183458755" lon="11.431555425719647"><ele>22.0</ele><time>2026-03-28T15:26:22.999Z</time></trkpt><trkpt lat="45.35807994784339" lon="11.43175865753287"><ele>22.0</ele><time>2026-03-28T15:26:23.999Z</time></trkpt><trkpt lat="45.358056621263806" lon="11.431974601501755"><ele>22.0</ele><time>2026-03-28T15:26:24.999Z</time></trkpt><trkpt lat="45.35802875721722" lon="11.432207510766318"><ele>21.75</ele><time>2026-03-28T15:26:25.999Z</time></trkpt><trkpt lat="45.35800581006507" lon="11.432420823115425"><ele>21.5</ele><time>2026-03-28T15:26:26.999Z</time></trkpt><trkpt lat="45.35798167473248" lon="11.432632508844698"><ele>21.25</ele><time>2026-03-28T15:26:27.999Z</time></trkpt><trkpt lat="45.35795741975614" lon="11.432833329861943"><ele>21.0</ele><time>2026-03-28T15:26:28.999Z</time></trkpt><trkpt lat="45.357937738593144" lon="11.433035990228323"><ele>20.666666666666668</ele><time>2026-03-28T15:26:29.999Z</time></trkpt><trkpt lat="45.35791612236624" lon="11.433259732214765"><ele>20.333333333333336</ele><time>2026-03-28T15:26:30.999Z</time></trkpt><trkpt lat="45.35789358277302" lon="11.43348587939981"><ele>20.0</ele><time>2026-03-28T15:26:31.999Z</time></trkpt><trkpt lat="45.357865028229895" lon="11.43371977218394"><ele>20.666666666666668</ele><time>2026-03-28T15:26:32.999Z</time></trkpt><trkpt lat="45.35784436954081" lon="11.433942599880496"><ele>21.333333333333332</ele><time>2026-03-28T15:26:33.999Z</time></trkpt><trkpt lat="45.35781749232992" lon="11.43417858111061"><ele>22.0</ele><time>2026-03-28T15:26:34.999Z</time></trkpt><trkpt lat="45.35779032379311" lon="11.434414339242299"><ele>22.333333333333332</ele><time>2026-03-28T15:26:35.999Z</time></trkpt><trkpt lat="45.3577618286784" lon="11.434659691671238"><ele>22.666666666666668</ele><time>2026-03-28T15:26:36.999Z</time></trkpt><trkpt lat="45.35773280385143" lon="11.434912853009482"><ele>23.0</ele><time>2026-03-28T15:26:37.999Z</time></trkpt><trkpt lat="45.35770307433015" lon="11.435149665541651"><ele>23.0</ele><time>2026-03-28T15:26:38.999Z</time></trkpt><trkpt lat="45.35765982053849" lon="11.435408158985933"><ele>23.0</ele><time>2026-03-28T15:26:39.999Z</time></trkpt><trkpt lat="45.357609379342826" lon="11.435672979961357"><ele>23.0</ele><time>2026-03-28T15:26:40.999Z</time></trkpt><trkpt lat="45.357546851245786" lon="11.435929817906977"><ele>23.666666666666668</ele><time>2026-03-28T15:26:41.999Z</time></trkpt><trkpt lat="45.357483530684846" lon="11.43616445229605"><ele>24.333333333333336</ele><time>2026-03-28T15:26:42.999Z</time></trkpt><trkpt lat="45.357415079207904" lon="11.436399938364538"><ele>25.0</ele><time>2026-03-28T15:26:44Z</time></trkpt><trkpt lat="45.35733811693015" lon="11.436635217677306"><ele>25.333333333333336</ele><time>2026-03-28T15:26:45Z</time></trkpt><trkpt lat="45.35725299617602" lon="11.436864571617834"><ele>25.666666666666664</ele><time>2026-03-28T15:26:46Z</time></trkpt><trkpt lat="45.35716196900388" lon="11.437088784217853"><ele>26.0</ele><time>2026-03-28T15:26:47Z</time></trkpt><trkpt lat="45.35706806258037" lon="11.437315277246709"><ele>25.0</ele><time>2026-03-28T15:26:48Z</time></trkpt><trkpt lat="45.35697046235318" lon="11.43753295452861"><ele>24.0</ele><time>2026-03-28T15:26:49Z</time></trkpt><trkpt lat="45.356877514721525" lon="11.437756076340584"><ele>23.0</ele><time>2026-03-28T15:26:50Z</time></trkpt><trkpt lat="45.356775044436034" lon="11.437978736446611"><ele>23.0</ele><time>2026-03-28T15:26:51Z</time></trkpt><trkpt lat="45.35668595265878" lon="11.438195768369077"><ele>23.0</ele><time>2026-03-28T15:26:52Z</time></trkpt><trkpt lat="45.35659252849459" lon="11.438414274793628"><ele>23.0</ele><time>2026-03-28T15:26:53Z</time></trkpt><trkpt lat="45.356504387722204" lon="11.438631206345178"><ele>23.0</ele><time>2026-03-28T15:26:54Z</time></trkpt><trkpt lat="45.356405097201595" lon="11.438850903197618"><ele>23.0</ele><time>2026-03-28T15:26:55Z</time></trkpt><trkpt lat="45.356311830681314" lon="11.439071707189187"><ele>23.0</ele><time>2026-03-28T15:26:56Z</time></trkpt><trkpt lat="45.35621585232629" lon="11.439293871669575"><ele>23.0</ele><time>2026-03-28T15:26:57Z</time></trkpt><trkpt lat="45.35612491673472" lon="11.439511213157145"><ele>23.0</ele><time>2026-03-28T15:26:58Z</time></trkpt><trkpt lat="45.35603414396144" lon="11.439729531139259"><ele>23.0</ele><time>2026-03-28T15:26:59Z</time></trkpt><trkpt lat="45.355938370066795" lon="11.439950089837069"><ele>24.0</ele><time>2026-03-28T15:27:00Z</time></trkpt><trkpt lat="45.355840834813485" lon="11.440170465291125"><ele>25.0</ele><time>2026-03-28T15:27:01Z</time></trkpt><trkpt lat="45.35574258925866" lon="11.44039133695087"><ele>26.0</ele><time>2026-03-28T15:27:02Z</time></trkpt><trkpt lat="45.35565190730759" lon="11.440610617401095"><ele>26.666666666666664</ele><time>2026-03-28T15:27:03Z</time></trkpt><trkpt lat="45.35555780221213" lon="11.440829728457777"><ele>27.333333333333336</ele><time>2026-03-28T15:27:04Z</time></trkpt><trkpt lat="45.3554721399452" lon="11.441048267703398"><ele>28.0</ele><time>2026-03-28T15:27:05Z</time></trkpt><trkpt lat="45.35536604753053" lon="11.441267989800343"><ele>28.0</ele><time>2026-03-28T15:27:06Z</time></trkpt><trkpt lat="45.355275515202564" lon="11.441489162830589"><ele>28.0</ele><time>2026-03-28T15:27:07Z</time></trkpt><trkpt lat="45.355175458808844" lon="11.44170356206045"><ele>28.0</ele><time>2026-03-28T15:27:08Z</time></trkpt><trkpt lat="45.355084178901116" lon="11.44192516794066"><ele>28.0</ele><time>2026-03-28T15:27:09Z</time></trkpt><trkpt lat="45.354970189598596" lon="11.442121586857953"><ele>28.0</ele><time>2026-03-28T15:27:10Z</time></trkpt><trkpt lat="45.35484777581938" lon="11.442320785048368"><ele>28.0</ele><time>2026-03-28T15:27:11Z</time></trkpt><trkpt lat="45.354709004454385" lon="11.442490973192893"><ele>27.666666666666668</ele><time>2026-03-28T15:27:12Z</time></trkpt><trkpt lat="45.35457301619551" lon="11.442660983233292"><ele>27.333333333333336</ele><time>2026-03-28T15:27:13Z</time></trkpt><trkpt lat="45.35442471895598" lon="11.44280631048792"><ele>27.0</ele><time>2026-03-28T15:27:14Z</time></trkpt><trkpt lat="45.35427163238547" lon="11.442946323462198"><ele>28.0</ele><time>2026-03-28T15:27:15Z</time></trkpt><trkpt lat="45.354113585873414" lon="11.443063396294715"><ele>29.0</ele><time>2026-03-28T15:27:16Z</time></trkpt><trkpt lat="45.35397265448455" lon="11.443148408061655"><ele>30.0</ele><time>2026-03-28T15:27:17Z</time></trkpt><trkpt lat="45.35383555277254" lon="11.443229430104145"><ele>30.0</ele><time>2026-03-28T15:27:18Z</time></trkpt><trkpt lat="45.35368986701515" lon="11.44330623760012"><ele>30.0</ele><time>2026-03-28T15:27:19Z</time></trkpt><trkpt lat="45.35354175939533" lon="11.44338863763001"><ele>30.0</ele><time>2026-03-28T15:27:20Z</time></trkpt><trkpt lat="45.353407814294506" lon="11.443459285047425"><ele>30.0</ele><time>2026-03-28T15:27:21Z</time></trkpt><trkpt lat="45.35326620628288" lon="11.443541511048764"><ele>30.0</ele><time>2026-03-28T15:27:22Z</time></trkpt><trkpt lat="45.35312758697535" lon="11.443634606500584"><ele>30.0</ele><time>2026-03-28T15:27:23Z</time></trkpt><trkpt lat="45.35297653455272" lon="11.44371985100062"><ele>29.333333333333336</ele><time>2026-03-28T15:27:24Z</time></trkpt><trkpt lat="45.3528284725092" lon="11.443796219360838"><ele>28.666666666666668</ele><time>2026-03-28T15:27:25Z</time></trkpt><trkpt lat="45.35268507730672" lon="11.443878498087537"><ele>28.0</ele><time>2026-03-28T15:27:26Z</time></trkpt><trkpt lat="45.35254394549393" lon="11.443966962712398"><ele>29.0</ele><time>2026-03-28T15:27:27Z</time></trkpt><trkpt lat="45.352393917425545" lon="11.444071054500746"><ele>30.0</ele><time>2026-03-28T15:27:28Z</time></trkpt><trkpt lat="45.35225313221338" lon="11.444180668329784"><ele>31.0</ele><time>2026-03-28T15:27:29Z</time></trkpt><trkpt lat="45.35211088924284" lon="11.444298474374127"><ele>31.0</ele><time>2026-03-28T15:27:30Z</time></trkpt><trkpt lat="45.35195941114271" lon="11.444443686675509"><ele>31.0</ele><time>2026-03-28T15:27:31Z</time></trkpt><trkpt lat="45.35181522568821" lon="11.444598205233385"><ele>31.0</ele><time>2026-03-28T15:27:32Z</time></trkpt><trkpt lat="45.35168008976167" lon="11.444771438761233"><ele>33.0</ele><time>2026-03-28T15:27:33Z</time></trkpt><trkpt lat="45.351558019953856" lon="11.444948355495944"><ele>35.0</ele><time>2026-03-28T15:27:34Z</time></trkpt><trkpt lat="45.35144382903288" lon="11.445138252744899"><ele>37.0</ele><time>2026-03-28T15:27:35Z</time></trkpt><trkpt lat="45.35134291890271" lon="11.445336923124895"><ele>39.333333333333336</ele><time>2026-03-28T15:27:36Z</time></trkpt><trkpt lat="45.35122728098231" lon="11.445575177943494"><ele>41.666666666666664</ele><time>2026-03-28T15:27:37Z</time></trkpt><trkpt lat="45.35112861195659" lon="11.44579324149449"><ele>44.0</ele><time>2026-03-28T15:27:38Z</time></trkpt><trkpt lat="45.3510362443546" lon="11.445979398519949"><ele>44.0</ele><time>2026-03-28T15:27:39Z</time></trkpt><trkpt lat="45.350942766083804" lon="11.446154389573945"><ele>44.0</ele><time>2026-03-28T15:27:40Z</time></trkpt><trkpt lat="45.35085656567106" lon="11.446333716828336"><ele>44.0</ele><time>2026-03-28T15:27:41Z</time></trkpt><trkpt lat="45.35077874491229" lon="11.446519105545601"><ele>44.33333333333333</ele><time>2026-03-28T15:27:42Z</time></trkpt><trkpt lat="45.35070514944142" lon="11.44671580581642"><ele>44.666666666666664</ele><time>2026-03-28T15:27:43Z</time></trkpt><trkpt lat="45.35064007274486" lon="11.446922430768904"><ele>45.0</ele><time>2026-03-28T15:27:44Z</time></trkpt><trkpt lat="45.350585176230524" lon="11.447140571525717"><ele>45.0</ele><time>2026-03-28T15:27:45Z</time></trkpt><trkpt lat="45.35055087283161" lon="11.447353523315062"><ele>45.0</ele><time>2026-03-28T15:27:46Z</time></trkpt><trkpt lat="45.35052756022756" lon="11.447571551099848"><ele>45.0</ele><time>2026-03-28T15:27:47Z</time></trkpt><trkpt lat="45.35050201032119" lon="11.44779410559766"><ele>40.666666666666664</ele><time>2026-03-28T15:27:48Z</time></trkpt><trkpt lat="45.35046753644436" lon="11.448021184293644"><ele>36.33333333333333</ele><time>2026-03-28T15:27:49Z</time></trkpt><trkpt lat="45.35042401092256" lon="11.448243781247864"><ele>32.0</ele><time>2026-03-28T15:27:50Z</time></trkpt><trkpt lat="45.35036722941352" lon="11.448475279108402"><ele>32.0</ele><time>2026-03-28T15:27:51Z</time></trkpt><trkpt lat="45.35030606891716" lon="11.448678146561713"><ele>32.0</ele><time>2026-03-28T15:27:52Z</time></trkpt><trkpt lat="45.350227805907345" lon="11.448878391000376"><ele>32.0</ele><time>2026-03-28T15:27:53Z</time></trkpt><trkpt lat="45.35014083075642" lon="11.449066902605308"><ele>33.33333333333333</ele><time>2026-03-28T15:27:54Z</time></trkpt><trkpt lat="45.350045195432166" lon="11.449243620245529"><ele>34.666666666666664</ele><time>2026-03-28T15:27:55Z</time></trkpt><trkpt lat="45.3499408284475" lon="11.449423852183008"><ele>36.0</ele><time>2026-03-28T15:27:56Z</time></trkpt><trkpt lat="45.34983487150255" lon="11.449593990842605"><ele>38.0</ele><time>2026-03-28T15:27:56.999Z</time></trkpt><trkpt lat="45.34972375313384" lon="11.449767842691589"><ele>40.0</ele><time>2026-03-28T15:27:57.999Z</time></trkpt><trkpt lat="45.349619062507436" lon="11.449940728782197"><ele>42.0</ele><time>2026-03-28T15:27:58.999Z</time></trkpt><trkpt lat="45.34951113247492" lon="11.450127895366535"><ele>39.666666666666664</ele><time>2026-03-28T15:27:59.999Z</time></trkpt><trkpt lat="45.349404601640444" lon="11.450307261260303"><ele>37.33333333333333</ele><time>2026-03-28T15:28:00.999Z</time></trkpt><trkpt lat="45.34929890890863" lon="11.450496221345846"><ele>35.0</ele><time>2026-03-28T15:28:01.999Z</time></trkpt><trkpt lat="45.34918678158591" lon="11.45067284248138"><ele>35.0</ele><time>2026-03-28T15:28:02.999Z</time></trkpt><trkpt lat="45.34907882987874" lon="11.450849948196122"><ele>35.0</ele><time>2026-03-28T15:28:03.999Z</time></trkpt><trkpt lat="45.34897236796739" lon="11.451045844457653"><ele>35.0</ele><time>2026-03-28T15:28:04.999Z</time></trkpt><trkpt lat="45.348871778604114" lon="11.451264709780352"><ele>32.666666666666664</ele><time>2026-03-28T15:28:05.999Z</time></trkpt><trkpt lat="45.34877900280865" lon="11.451501091091629"><ele>30.333333333333336</ele><time>2026-03-28T15:28:06.999Z</time></trkpt><trkpt lat="45.34869514783416" lon="11.451739335493572"><ele>28.0</ele><time>2026-03-28T15:28:07.999Z</time></trkpt><trkpt lat="45.348622045888455" lon="11.451963702298555"><ele>29.333333333333336</ele><time>2026-03-28T15:28:08.999Z</time></trkpt><trkpt lat="45.348540890210856" lon="11.452198494600276"><ele>30.666666666666664</ele><time>2026-03-28T15:28:09.999Z</time></trkpt><trkpt lat="45.34846867431716" lon="11.452413523345307"><ele>32.0</ele><time>2026-03-28T15:28:10.999Z</time></trkpt><trkpt lat="45.348401615488534" lon="11.452627180602773"><ele>32.0</ele><time>2026-03-28T15:28:11.999Z</time></trkpt><trkpt lat="45.34833578545303" lon="11.45282339163606"><ele>32.0</ele><time>2026-03-28T15:28:12.999Z</time></trkpt><trkpt lat="45.3482662480974" lon="11.453005990975695"><ele>32.0</ele><time>2026-03-28T15:28:13.999Z</time></trkpt><trkpt lat="45.34818944139246" lon="11.453196384741707"><ele>33.666666666666664</ele><time>2026-03-28T15:28:14.999Z</time></trkpt><trkpt lat="45.34810157594368" lon="11.453378305806364"><ele>35.333333333333336</ele><time>2026-03-28T15:28:15.999Z</time></trkpt><trkpt lat="45.34800730169489" lon="11.453548417760345"><ele>37.0</ele><time>2026-03-28T15:28:16.999Z</time></trkpt><trkpt lat="45.34790610543629" lon="11.453716134921903"><ele>34.333333333333336</ele><time>2026-03-28T15:28:17.999Z</time></trkpt><trkpt lat="45.34780066662256" lon="11.453880515390207"><ele>31.666666666666664</ele><time>2026-03-28T15:28:18.999Z</time></trkpt><trkpt lat="45.347690817762285" lon="11.454032174521377"><ele>29.0</ele><time>2026-03-28T15:28:19.999Z</time></trkpt><trkpt lat="45.34756949920769" lon="11.454177024539357"><ele>29.0</ele><time>2026-03-28T15:28:20.999Z</time></trkpt><trkpt lat="45.34744334660323" lon="11.454311143486693"><ele>29.0</ele><time>2026-03-28T15:28:21.999Z</time></trkpt><trkpt lat="45.34732397021125" lon="11.45441831250169"><ele>29.0</ele><time>2026-03-28T15:28:22.999Z</time></trkpt><trkpt lat="45.34720386244693" lon="11.454512658467442"><ele>29.0</ele><time>2026-03-28T15:28:23.999Z</time></trkpt><trkpt lat="45.34707406638645" lon="11.454603631862497"><ele>29.5</ele><time>2026-03-28T15:28:24.999Z</time></trkpt><trkpt lat="45.34692885576104" lon="11.454670635956093"><ele>30.0</ele><time>2026-03-28T15:28:25.999Z</time></trkpt><trkpt lat="45.34679069436686" lon="11.454751815257566"><ele>30.5</ele><time>2026-03-28T15:28:26.999Z</time></trkpt><trkpt lat="45.346660599960025" lon="11.454825750579387"><ele>31.0</ele><time>2026-03-28T15:28:27.999Z</time></trkpt><trkpt lat="45.34653990978205" lon="11.454893700184325"><ele>31.0</ele><time>2026-03-28T15:28:28.999Z</time></trkpt><trkpt lat="45.34641901511544" lon="11.454960064769098"><ele>31.0</ele><time>2026-03-28T15:28:29.999Z</time></trkpt><trkpt lat="45.34629577143384" lon="11.455027718842961"><ele>31.0</ele><time>2026-03-28T15:28:30.999Z</time></trkpt><trkpt lat="45.34617535301936" lon="11.455093042472429"><ele>31.0</ele><time>2026-03-28T15:28:31.999Z</time></trkpt><trkpt lat="45.34605947384215" lon="11.455155525880954"><ele>28.6</ele><time>2026-03-28T15:28:32.999Z</time></trkpt><trkpt lat="45.34595036612127" lon="11.455214358054176"><ele>26.200000000000003</ele><time>2026-03-28T15:28:33.999Z</time></trkpt><trkpt lat="45.34585333975606" lon="11.45529066852454"><ele>23.799999999999997</ele><time>2026-03-28T15:28:34.999Z</time></trkpt><trkpt lat="45.34575782387319" lon="11.455329427748007"><ele>21.4</ele><time>2026-03-28T15:28:35.999Z</time></trkpt><trkpt lat="45.34566476217922" lon="11.455363507506275"><ele>19.0</ele><time>2026-03-28T15:28:36.999Z</time></trkpt><trkpt lat="45.34557361208537" lon="11.455394213192362"><ele>18.4</ele><time>2026-03-28T15:28:37.999Z</time></trkpt><trkpt lat="45.345484562482234" lon="11.45541384299486"><ele>17.799999999999997</ele><time>2026-03-28T15:28:38.999Z</time></trkpt><trkpt lat="45.34539312219931" lon="11.455412930616607"><ele>17.200000000000003</ele><time>2026-03-28T15:28:39.999Z</time></trkpt><trkpt lat="45.34529620362402" lon="11.455374039475632"><ele>16.6</ele><time>2026-03-28T15:28:40.999Z</time></trkpt><trkpt lat="45.345199742512534" lon="11.455328787720926"><ele>16.0</ele><time>2026-03-28T15:28:41.999Z</time></trkpt><trkpt lat="45.345110313042376" lon="11.455316036920532"><ele>15.999999999999998</ele><time>2026-03-28T15:28:42.999Z</time></trkpt><trkpt lat="45.345039437234966" lon="11.455315711279066"><ele>16.0</ele><time>2026-03-28T15:28:43.999Z</time></trkpt><trkpt lat="45.344971910346956" lon="11.455410291436745"><ele>16.0</ele><time>2026-03-28T15:28:44.999Z</time></trkpt><trkpt lat="45.34492022354095" lon="11.45550809913437"><ele>16.0</ele><time>2026-03-28T15:28:45.999Z</time></trkpt><trkpt lat="45.34489366847678" lon="11.455624072543937"><ele>15.999999999999998</ele><time>2026-03-28T15:28:46.999Z</time></trkpt><trkpt lat="45.34489785050725" lon="11.455732740933835"><ele>16.0</ele><time>2026-03-28T15:28:47.999Z</time></trkpt><trkpt lat="45.34492863815093" lon="11.455837218919202"><ele>16.5</ele><time>2026-03-28T15:28:48.999Z</time></trkpt><trkpt lat="45.34497502786304" lon="11.455937047185508"><ele>17.0</ele><time>2026-03-28T15:28:50Z</time></trkpt><trkpt lat="45.34503112964017" lon="11.45600970028982"><ele>17.5</ele><time>2026-03-28T15:28:51Z</time></trkpt><trkpt lat="45.3450938940427" lon="11.456097584372598"><ele>18.0</ele><time>2026-03-28T15:28:52Z</time></trkpt><trkpt lat="45.34514771195156" lon="11.45618040664805"><ele>18.5</ele><time>2026-03-28T15:28:53Z</time></trkpt><trkpt lat="45.34519772744376" lon="11.456279270994028"><ele>19.0</ele><time>2026-03-28T15:28:54Z</time></trkpt><trkpt lat="45.34525136763905" lon="11.456380376726175"><ele>19.166666666666664</ele><time>2026-03-28T15:28:55Z</time></trkpt><trkpt lat="45.34531051347133" lon="11.456486848472988"><ele>19.333333333333332</ele><time>2026-03-28T15:28:56Z</time></trkpt><trkpt lat="45.34537424812191" lon="11.456594370008146"><ele>19.5</ele><time>2026-03-28T15:28:57Z</time></trkpt><trkpt lat="45.345426482368964" lon="11.456679890224471"><ele>19.666666666666668</ele><time>2026-03-28T15:28:58Z</time></trkpt><trkpt lat="45.34546764604096" lon="11.456764090625501"><ele>19.833333333333336</ele><time>2026-03-28T15:28:59Z</time></trkpt><trkpt lat="45.345504789129414" lon="11.456851091450748"><ele>20.0</ele><time>2026-03-28T15:29:00Z</time></trkpt><trkpt lat="45.34553769739843" lon="11.45693865817929"><ele>21.0</ele><time>2026-03-28T15:29:01Z</time></trkpt><trkpt lat="45.34557165390933" lon="11.457042590840022"><ele>22.0</ele><time>2026-03-28T15:29:02Z</time></trkpt><trkpt lat="45.34560483704416" lon="11.457165951512424"><ele>23.0</ele><time>2026-03-28T15:29:03Z</time></trkpt><trkpt lat="45.34563701027899" lon="11.457293919426075"><ele>24.0</ele><time>2026-03-28T15:29:04Z</time></trkpt><trkpt lat="45.34566701395653" lon="11.457440046067111"><ele>25.0</ele><time>2026-03-28T15:29:05Z</time></trkpt><trkpt lat="45.34569148083618" lon="11.457578124165599"><ele>25.0</ele><time>2026-03-28T15:29:06Z</time></trkpt><trkpt lat="45.345714989189155" lon="11.457721578264747"><ele>25.0</ele><time>2026-03-28T15:29:07Z</time></trkpt><trkpt lat="45.34574041605661" lon="11.457871147703584"><ele>25.0</ele><time>2026-03-28T15:29:08Z</time></trkpt><trkpt lat="45.34576556332467" lon="11.458030254936961"><ele>25.0</ele><time>2026-03-28T15:29:09Z</time></trkpt><trkpt lat="45.34578928409453" lon="11.45817003889292"><ele>25.0</ele><time>2026-03-28T15:29:10Z</time></trkpt><trkpt lat="45.34581116704852" lon="11.45829289505846"><ele>24.6</ele><time>2026-03-28T15:29:11Z</time></trkpt><trkpt lat="45.345830843249765" lon="11.458416451348285"><ele>24.2</ele><time>2026-03-28T15:29:12Z</time></trkpt><trkpt lat="45.34584898233067" lon="11.4585374144741"><ele>23.799999999999997</ele><time>2026-03-28T15:29:13Z</time></trkpt><trkpt lat="45.34586845721505" lon="11.458674134430648"><ele>23.4</ele><time>2026-03-28T15:29:14Z</time></trkpt><trkpt lat="45.34588788117182" lon="11.458815015433395"><ele>23.0</ele><time>2026-03-28T15:29:15Z</time></trkpt><trkpt lat="45.34591177379341" lon="11.458962197739126"><ele>22.5</ele><time>2026-03-28T15:29:16Z</time></trkpt><trkpt lat="45.345933088391945" lon="11.459103391202762"><ele>22.0</ele><time>2026-03-28T15:29:17Z</time></trkpt><trkpt lat="45.345958035639455" lon="11.45925598229384"><ele>21.5</ele><time>2026-03-28T15:29:18Z</time></trkpt><trkpt lat="45.34599084775453" lon="11.459426565654958"><ele>21.0</ele><time>2026-03-28T15:29:19Z</time></trkpt><trkpt lat="45.34602394494169" lon="11.459586636715603"><ele>20.8</ele><time>2026-03-28T15:29:20Z</time></trkpt><trkpt lat="45.34605232139153" lon="11.459730755159095"><ele>20.6</ele><time>2026-03-28T15:29:21Z</time></trkpt><trkpt lat="45.34608026107768" lon="11.459861314770103"><ele>20.4</ele><time>2026-03-28T15:29:22Z</time></trkpt><trkpt lat="45.34612069897724" lon="11.45997468870864"><ele>20.2</ele><time>2026-03-28T15:29:23Z</time></trkpt><trkpt lat="45.346164463495256" lon="11.460085462519377"><ele>20.0</ele><time>2026-03-28T15:29:24Z</time></trkpt><trkpt lat="45.34620945158416" lon="11.460182743000843"><ele>20.0</ele><time>2026-03-28T15:29:25Z</time></trkpt><trkpt lat="45.34625892416138" lon="11.460282353035502"><ele>20.0</ele><time>2026-03-28T15:29:26Z</time></trkpt><trkpt lat="45.34631042309061" lon="11.460373412830187"><ele>20.0</ele><time>2026-03-28T15:29:27Z</time></trkpt><trkpt lat="45.346351954816235" lon="11.460476444392189"><ele>20.0</ele><time>2026-03-28T15:29:28Z</time></trkpt><trkpt lat="45.3463749506455" lon="11.460582593363718"><ele>20.0</ele><time>2026-03-28T15:29:29Z</time></trkpt><trkpt lat="45.34638137082007" lon="11.460697380485636"><ele>20.0</ele><time>2026-03-28T15:29:30Z</time></trkpt><trkpt lat="45.34637539316906" lon="11.46080915632178"><ele>20.0</ele><time>2026-03-28T15:29:31Z</time></trkpt><trkpt lat="45.34639574172205" lon="11.460911931796623"><ele>20.0</ele><time>2026-03-28T15:29:32Z</time></trkpt><trkpt lat="45.34643817842587" lon="11.460990984522466"><ele>20.0</ele><time>2026-03-28T15:29:33Z</time></trkpt><trkpt lat="45.34637739096589" lon="11.461113047720078"><ele>20.0</ele><time>2026-03-28T15:29:34Z</time></trkpt><trkpt lat="45.346434471991294" lon="11.461248327041636"><ele>20.0</ele><time>2026-03-28T15:29:36Z</time></trkpt><trkpt lat="45.34657810077376" lon="11.461192182197681"><ele>19.8</ele><time>2026-03-28T15:30:56Z</time></trkpt><trkpt lat="45.34664744459542" lon="11.461183393364061"><ele>19.6</ele><time>2026-03-28T15:30:57Z</time></trkpt><trkpt lat="45.34675382382457" lon="11.461182584263916"><ele>19.4</ele><time>2026-03-28T15:30:59Z</time></trkpt><trkpt lat="45.34682724493207" lon="11.461162989724237"><ele>19.2</ele><time>2026-03-28T15:31:02Z</time></trkpt><trkpt lat="45.34675733320792" lon="11.46128469469194"><ele>19.0</ele><time>2026-03-28T15:31:03Z</time></trkpt><trkpt lat="45.34681623440728" lon="11.46139793855661"><ele>18.8</ele><time>2026-03-28T15:31:06Z</time></trkpt><trkpt lat="45.34687012554679" lon="11.461476142800418"><ele>18.599999999999998</ele><time>2026-03-28T15:31:08Z</time></trkpt><trkpt lat="45.3469180909681" lon="11.461545747916215"><ele>18.4</ele><time>2026-03-28T15:31:10Z</time></trkpt><trkpt lat="45.34707318086956" lon="11.461501226470585"><ele>18.2</ele><time>2026-03-28T15:31:12Z</time></trkpt><trkpt lat="45.34715675874663" lon="11.461608870468131"><ele>18.0</ele><time>2026-03-28T15:31:14Z</time></trkpt><trkpt lat="45.347197359700495" lon="11.461678336166976"><ele>18.0</ele><time>2026-03-28T15:31:15Z</time></trkpt><trkpt lat="45.34725002421703" lon="11.461765480237746"><ele>18.0</ele><time>2026-03-28T15:31:16Z</time></trkpt><trkpt lat="45.34732143096618" lon="11.461868914888646"><ele>18.0</ele><time>2026-03-28T15:31:17Z</time></trkpt><trkpt lat="45.34740150926046" lon="11.461984647662476"><ele>18.0</ele><time>2026-03-28T15:31:18Z</time></trkpt><trkpt lat="45.34748970945891" lon="11.462118451496984"><ele>18.0</ele><time>2026-03-28T15:31:19Z</time></trkpt><trkpt lat="45.34759223532404" lon="11.462267132209467"><ele>18.333333333333332</ele><time>2026-03-28T15:31:20Z</time></trkpt><trkpt lat="45.34770797704262" lon="11.46242671351543"><ele>18.666666666666664</ele><time>2026-03-28T15:31:21Z</time></trkpt><trkpt lat="45.347840487491084" lon="11.462615434325077"><ele>19.0</ele><time>2026-03-28T15:31:22Z</time></trkpt><trkpt lat="45.347977372655706" lon="11.462818619552504"><ele>18.666666666666664</ele><time>2026-03-28T15:31:23Z</time></trkpt><trkpt lat="45.34810436583681" lon="11.46300357039636"><ele>18.333333333333332</ele><time>2026-03-28T15:31:24Z</time></trkpt><trkpt lat="45.34822836959523" lon="11.463178818367327"><ele>18.0</ele><time>2026-03-28T15:31:25Z</time></trkpt><trkpt lat="45.348345646134774" lon="11.463355041314246"><ele>18.0</ele><time>2026-03-28T15:31:26Z</time></trkpt><trkpt lat="45.348464356253295" lon="11.463527969213073"><ele>18.0</ele><time>2026-03-28T15:31:27Z</time></trkpt><trkpt lat="45.3485802364836" lon="11.463694698471771"><ele>18.0</ele><time>2026-03-28T15:31:28Z</time></trkpt><trkpt lat="45.34869891666167" lon="11.463868614117668"><ele>18.0</ele><time>2026-03-28T15:31:29Z</time></trkpt><trkpt lat="45.34882125368705" lon="11.4640476000783"><ele>18.0</ele><time>2026-03-28T15:31:30Z</time></trkpt><trkpt lat="45.34892747190175" lon="11.464204497512956"><ele>18.0</ele><time>2026-03-28T15:31:31Z</time></trkpt><trkpt lat="45.34902431541864" lon="11.464348451375267"><ele>18.5</ele><time>2026-03-28T15:31:32Z</time></trkpt><trkpt lat="45.349115220459936" lon="11.464482821905717"><ele>19.0</ele><time>2026-03-28T15:31:33Z</time></trkpt><trkpt lat="45.34920297924307" lon="11.464607732573278"><ele>19.5</ele><time>2026-03-28T15:31:34Z</time></trkpt><trkpt lat="45.34928958472067" lon="11.464734169626617"><ele>20.0</ele><time>2026-03-28T15:31:35Z</time></trkpt><trkpt lat="45.34937746632328" lon="11.46485663831002"><ele>20.25</ele><time>2026-03-28T15:31:36Z</time></trkpt><trkpt lat="45.349468177176306" lon="11.464978421834958"><ele>20.5</ele><time>2026-03-28T15:31:37Z</time></trkpt><trkpt lat="45.34957094975185" lon="11.465104508406307"><ele>20.75</ele><time>2026-03-28T15:31:38Z</time></trkpt><trkpt lat="45.349687276479465" lon="11.46522774718971"><ele>21.0</ele><time>2026-03-28T15:31:39Z</time></trkpt><trkpt lat="45.349810632966744" lon="11.465354624072011"><ele>20.333333333333332</ele><time>2026-03-28T15:31:40Z</time></trkpt><trkpt lat="45.34994274317846" lon="11.465486326778802"><ele>19.666666666666664</ele><time>2026-03-28T15:31:41Z</time></trkpt><trkpt lat="45.35008086206477" lon="11.465615662771091"><ele>19.0</ele><time>2026-03-28T15:31:42Z</time></trkpt><trkpt lat="45.35022386161162" lon="11.465742551626127"><ele>19.0</ele><time>2026-03-28T15:31:43Z</time></trkpt><trkpt lat="45.35037894184958" lon="11.465864930239483"><ele>19.0</ele><time>2026-03-28T15:31:44Z</time></trkpt><trkpt lat="45.350539901751695" lon="11.465980152111742"><ele>19.0</ele><time>2026-03-28T15:31:45Z</time></trkpt><trkpt lat="45.35070817789343" lon="11.466081839051448"><ele>20.333333333333332</ele><time>2026-03-28T15:31:46Z</time></trkpt><trkpt lat="45.35088568189677" lon="11.46617199044875"><ele>21.666666666666668</ele><time>2026-03-28T15:31:47Z</time></trkpt><trkpt lat="45.3510367276465" lon="11.46623573864792"><ele>23.0</ele><time>2026-03-28T15:31:48Z</time></trkpt><trkpt lat="45.351162683054625" lon="11.466291059103343"><ele>23.0</ele><time>2026-03-28T15:31:49Z</time></trkpt><trkpt lat="45.35128913661279" lon="11.466351167681585"><ele>23.0</ele><time>2026-03-28T15:31:50Z</time></trkpt><trkpt lat="45.35142135461973" lon="11.466415488035786"><ele>23.0</ele><time>2026-03-28T15:31:51Z</time></trkpt><trkpt lat="45.351563705824496" lon="11.466482544065002"><ele>23.0</ele><time>2026-03-28T15:31:52Z</time></trkpt><trkpt lat="45.35169776974375" lon="11.466540298028601"><ele>23.5</ele><time>2026-03-28T15:31:53Z</time></trkpt><trkpt lat="45.35182427114285" lon="11.466597417029858"><ele>24.0</ele><time>2026-03-28T15:31:54Z</time></trkpt><trkpt lat="45.351939928448395" lon="11.466658381766454"><ele>24.5</ele><time>2026-03-28T15:31:55Z</time></trkpt><trkpt lat="45.352047943991316" lon="11.46672661070672"><ele>25.0</ele><time>2026-03-28T15:31:56Z</time></trkpt><trkpt lat="45.35214761104431" lon="11.466818040928844"><ele>25.5</ele><time>2026-03-28T15:31:57Z</time></trkpt><trkpt lat="45.35224475392474" lon="11.466933616695323"><ele>26.0</ele><time>2026-03-28T15:31:58Z</time></trkpt><trkpt lat="45.35233491305172" lon="11.467067635405074"><ele>26.5</ele><time>2026-03-28T15:31:59Z</time></trkpt><trkpt lat="45.35242331259255" lon="11.467205978649089"><ele>27.0</ele><time>2026-03-28T15:32:00Z</time></trkpt><trkpt lat="45.352501358838055" lon="11.46735272752"><ele>27.0</ele><time>2026-03-28T15:32:01Z</time></trkpt><trkpt lat="45.3525748437434" lon="11.467512327610129"><ele>27.0</ele><time>2026-03-28T15:32:01.999Z</time></trkpt><trkpt lat="45.35264426314306" lon="11.467693348965451"><ele>27.0</ele><time>2026-03-28T15:32:02.999Z</time></trkpt><trkpt lat="45.35271102588712" lon="11.467885433752123"><ele>27.0</ele><time>2026-03-28T15:32:03.999Z</time></trkpt><trkpt lat="45.3527747490998" lon="11.46809228387733"><ele>27.0</ele><time>2026-03-28T15:32:04.999Z</time></trkpt><trkpt lat="45.35283060585327" lon="11.468311452787416"><ele>27.0</ele><time>2026-03-28T15:32:05.999Z</time></trkpt><trkpt lat="45.35286873346485" lon="11.468528035210792"><ele>27.0</ele><time>2026-03-28T15:32:06.999Z</time></trkpt><trkpt lat="45.35288789786151" lon="11.468738531724687"><ele>27.0</ele><time>2026-03-28T15:32:07.999Z</time></trkpt><trkpt lat="45.35289744801748" lon="11.468962305670699"><ele>27.0</ele><time>2026-03-28T15:32:08.999Z</time></trkpt><trkpt lat="45.35289220091208" lon="11.469185721997572"><ele>27.0</ele><time>2026-03-28T15:32:09.999Z</time></trkpt><trkpt lat="45.35287164484441" lon="11.469421462420568"><ele>27.0</ele><time>2026-03-28T15:32:10.999Z</time></trkpt><trkpt lat="45.35285269471104" lon="11.469660847475337"><ele>27.0</ele><time>2026-03-28T15:32:11.999Z</time></trkpt><trkpt lat="45.35282297016326" lon="11.469882213287075"><ele>27.0</ele><time>2026-03-28T15:32:12.999Z</time></trkpt><trkpt lat="45.35279465236107" lon="11.470095696300309"><ele>27.0</ele><time>2026-03-28T15:32:13.999Z</time></trkpt><trkpt lat="45.352773645438475" lon="11.470300008558809"><ele>27.0</ele><time>2026-03-28T15:32:14.999Z</time></trkpt><trkpt lat="45.352737699297066" lon="11.470516324068376"><ele>27.0</ele><time>2026-03-28T15:32:15.999Z</time></trkpt><trkpt lat="45.35266747001884" lon="11.470728793599097"><ele>27.0</ele><time>2026-03-28T15:32:16.999Z</time></trkpt><trkpt lat="45.35260325008522" lon="11.470956382523104"><ele>27.0</ele><time>2026-03-28T15:32:17.999Z</time></trkpt><trkpt lat="45.35251864065159" lon="11.47117723033016"><ele>27.0</ele><time>2026-03-28T15:32:18.999Z</time></trkpt><trkpt lat="45.35242950347857" lon="11.471401815674124"><ele>27.0</ele><time>2026-03-28T15:32:19.999Z</time></trkpt><trkpt lat="45.35234124192585" lon="11.471634328103766"><ele>27.0</ele><time>2026-03-28T15:32:20.999Z</time></trkpt><trkpt lat="45.35225733030457" lon="11.471868567139978"><ele>27.0</ele><time>2026-03-28T15:32:21.999Z</time></trkpt><trkpt lat="45.35217149881297" lon="11.472111884021473"><ele>24.333333333333332</ele><time>2026-03-28T15:32:22.999Z</time></trkpt><trkpt lat="45.352089001060016" lon="11.47235253807785"><ele>21.666666666666664</ele><time>2026-03-28T15:32:23.999Z</time></trkpt><trkpt lat="45.35200590543301" lon="11.472595359404373"><ele>19.0</ele><time>2026-03-28T15:32:24.999Z</time></trkpt><trkpt lat="45.351922569119616" lon="11.47284661539942"><ele>19.333333333333332</ele><time>2026-03-28T15:32:25.999Z</time></trkpt><trkpt lat="45.35184411845814" lon="11.473113962969549"><ele>19.666666666666668</ele><time>2026-03-28T15:32:26.999Z</time></trkpt><trkpt lat="45.351755378026716" lon="11.473378059070399"><ele>20.0</ele><time>2026-03-28T15:32:27.999Z</time></trkpt><trkpt lat="45.351675587180864" lon="11.473640503699581"><ele>19.666666666666668</ele><time>2026-03-28T15:32:28.999Z</time></trkpt><trkpt lat="45.351603887400245" lon="11.47388622566283"><ele>19.333333333333332</ele><time>2026-03-28T15:32:29.999Z</time></trkpt><trkpt lat="45.351528137203346" lon="11.474135753438055"><ele>19.0</ele><time>2026-03-28T15:32:30.999Z</time></trkpt><trkpt lat="45.351452389531175" lon="11.474381483166951"><ele>19.0</ele><time>2026-03-28T15:32:31.999Z</time></trkpt><trkpt lat="45.35137306659781" lon="11.474625640092908"><ele>19.0</ele><time>2026-03-28T15:32:32.999Z</time></trkpt><trkpt lat="45.35130275877123" lon="11.47486202519106"><ele>19.0</ele><time>2026-03-28T15:32:33.999Z</time></trkpt><trkpt lat="45.351239430595285" lon="11.475103092697184"><ele>19.0</ele><time>2026-03-28T15:32:34.999Z</time></trkpt><trkpt lat="45.351193932365796" lon="11.475343105654657"><ele>19.0</ele><time>2026-03-28T15:32:35.999Z</time></trkpt><trkpt lat="45.35116351671707" lon="11.475570154637397"><ele>19.0</ele><time>2026-03-28T15:32:36.999Z</time></trkpt><trkpt lat="45.35114133589518" lon="11.475787392830664"><ele>18.666666666666664</ele><time>2026-03-28T15:32:37.999Z</time></trkpt><trkpt lat="45.35112611814171" lon="11.476011196002753"><ele>18.333333333333332</ele><time>2026-03-28T15:32:38.999Z</time></trkpt><trkpt lat="45.35112226917497" lon="11.476244298708915"><ele>18.0</ele><time>2026-03-28T15:32:39.999Z</time></trkpt><trkpt lat="45.351135757769676" lon="11.476474855471174"><ele>18.0</ele><time>2026-03-28T15:32:40.999Z</time></trkpt><trkpt lat="45.351154943279695" lon="11.476706739583298"><ele>18.0</ele><time>2026-03-28T15:32:41.999Z</time></trkpt><trkpt lat="45.35116364997212" lon="11.47693746169764"><ele>18.0</ele><time>2026-03-28T15:32:42.999Z</time></trkpt><trkpt lat="45.35115070321202" lon="11.477169333165197"><ele>17.666666666666668</ele><time>2026-03-28T15:32:43.999Z</time></trkpt><trkpt lat="45.351113549315635" lon="11.477397319559067"><ele>17.333333333333336</ele><time>2026-03-28T15:32:44.999Z</time></trkpt><trkpt lat="45.35106050991205" lon="11.477628188323239"><ele>17.0</ele><time>2026-03-28T15:32:45.999Z</time></trkpt><trkpt lat="45.350990594342825" lon="11.477867082708036"><ele>16.666666666666668</ele><time>2026-03-28T15:32:46.999Z</time></trkpt><trkpt lat="45.35090709093184" lon="11.478112664872954"><ele>16.333333333333332</ele><time>2026-03-28T15:32:47.999Z</time></trkpt><trkpt lat="45.35081915537175" lon="11.478360167682167"><ele>16.0</ele><time>2026-03-28T15:32:48.999Z</time></trkpt><trkpt lat="45.35073474478732" lon="11.478609037825443"><ele>16.0</ele><time>2026-03-28T15:32:49.999Z</time></trkpt><trkpt lat="45.3506589369406" lon="11.478857605052669"><ele>16.0</ele><time>2026-03-28T15:32:50.999Z</time></trkpt><trkpt lat="45.35058589130551" lon="11.479107835805566"><ele>16.0</ele><time>2026-03-28T15:32:51.999Z</time></trkpt><trkpt lat="45.35051427628867" lon="11.479355074519201"><ele>15.666666666666666</ele><time>2026-03-28T15:32:52.999Z</time></trkpt><trkpt lat="45.350440457085355" lon="11.479607010791794"><ele>15.333333333333332</ele><time>2026-03-28T15:32:53.999Z</time></trkpt><trkpt lat="45.35037309299426" lon="11.479861416263539"><ele>15.0</ele><time>2026-03-28T15:32:54.999Z</time></trkpt><trkpt lat="45.35031213080559" lon="11.480107643921112"><ele>15.0</ele><time>2026-03-28T15:32:55.999Z</time></trkpt><trkpt lat="45.350255144945315" lon="11.480360059933819"><ele>15.0</ele><time>2026-03-28T15:32:56.999Z</time></trkpt><trkpt lat="45.35019915716836" lon="11.480609542559518"><ele>15.0</ele><time>2026-03-28T15:32:57.999Z</time></trkpt><trkpt lat="45.35014251130564" lon="11.480876649871739"><ele>15.0</ele><time>2026-03-28T15:32:58.999Z</time></trkpt><trkpt lat="45.35009103065928" lon="11.481142669364958"><ele>15.0</ele><time>2026-03-28T15:32:59.999Z</time></trkpt><trkpt lat="45.35004209587391" lon="11.481408078349471"><ele>15.0</ele><time>2026-03-28T15:33:00.999Z</time></trkpt><trkpt lat="45.34999780486576" lon="11.481676693106536"><ele>15.0</ele><time>2026-03-28T15:33:02Z</time></trkpt><trkpt lat="45.34995411996621" lon="11.481948466355265"><ele>15.0</ele><time>2026-03-28T15:33:03Z</time></trkpt><trkpt lat="45.34990896929435" lon="11.482220599425041"><ele>15.0</ele><time>2026-03-28T15:33:04Z</time></trkpt><trkpt lat="45.34985988510738" lon="11.482493988236223"><ele>15.0</ele><time>2026-03-28T15:33:05Z</time></trkpt><trkpt lat="45.34981277493292" lon="11.482757591773307"><ele>15.0</ele><time>2026-03-28T15:33:06Z</time></trkpt><trkpt lat="45.34976537893186" lon="11.483025037546996"><ele>15.0</ele><time>2026-03-28T15:33:07Z</time></trkpt><trkpt lat="45.34971865295428" lon="11.483296320181006"><ele>15.333333333333332</ele><time>2026-03-28T15:33:08Z</time></trkpt><trkpt lat="45.34967472520606" lon="11.483563903312302"><ele>15.666666666666666</ele><time>2026-03-28T15:33:09Z</time></trkpt><trkpt lat="45.34963022854963" lon="11.48383412911815"><ele>16.0</ele><time>2026-03-28T15:33:10Z</time></trkpt><trkpt lat="45.349588254666365" lon="11.484079825391355"><ele>15.5</ele><time>2026-03-28T15:33:11Z</time></trkpt><trkpt lat="45.34954999216786" lon="11.484299650536292"><ele>15.0</ele><time>2026-03-28T15:33:12Z</time></trkpt><trkpt lat="45.349515962314214" lon="11.48450818613066"><ele>14.5</ele><time>2026-03-28T15:33:13Z</time></trkpt><trkpt lat="45.349484052669126" lon="11.484694095728084"><ele>14.0</ele><time>2026-03-28T15:33:14Z</time></trkpt><trkpt lat="45.34945401479845" lon="11.484868056068981"><ele>14.0</ele><time>2026-03-28T15:33:15Z</time></trkpt><trkpt lat="45.34942589553313" lon="11.485025773928403"><ele>14.0</ele><time>2026-03-28T15:33:16Z</time></trkpt><trkpt lat="45.34940244597191" lon="11.485168746088561"><ele>14.0</ele><time>2026-03-28T15:33:17Z</time></trkpt><trkpt lat="45.34936683882993" lon="11.485321191147037"><ele>14.0</ele><time>2026-03-28T15:33:18Z</time></trkpt><trkpt lat="45.349332253371976" lon="11.485522226349866"><ele>14.333333333333334</ele><time>2026-03-28T15:33:19Z</time></trkpt><trkpt lat="45.349287949717265" lon="11.48577975060667"><ele>14.666666666666668</ele><time>2026-03-28T15:33:20Z</time></trkpt><trkpt lat="45.34923709318014" lon="11.486070567866197"><ele>15.0</ele><time>2026-03-28T15:33:21Z</time></trkpt><trkpt lat="45.34918869242186" lon="11.48635290650557"><ele>15.0</ele><time>2026-03-28T15:33:22Z</time></trkpt><trkpt lat="45.349128344172726" lon="11.486646487295484"><ele>15.0</ele><time>2026-03-28T15:33:23Z</time></trkpt><trkpt lat="45.349080386835254" lon="11.486937516818886"><ele>15.0</ele><time>2026-03-28T15:33:24Z</time></trkpt><trkpt lat="45.34904113912464" lon="11.487202619602696"><ele>15.0</ele><time>2026-03-28T15:33:25Z</time></trkpt><trkpt lat="45.349012896733086" lon="11.48744705497023"><ele>15.0</ele><time>2026-03-28T15:33:26Z</time></trkpt><trkpt lat="45.34900231173606" lon="11.487694422381534"><ele>15.0</ele><time>2026-03-28T15:33:27Z</time></trkpt><trkpt lat="45.349007543712574" lon="11.487957366157643"><ele>15.0</ele><time>2026-03-28T15:33:28Z</time></trkpt><trkpt lat="45.34904259709509" lon="11.48821732955723"><ele>15.0</ele><time>2026-03-28T15:33:29Z</time></trkpt><trkpt lat="45.349090293151626" lon="11.488493388383159"><ele>15.0</ele><time>2026-03-28T15:33:30Z</time></trkpt><trkpt lat="45.34914060867613" lon="11.48877543066578"><ele>15.0</ele><time>2026-03-28T15:33:31Z</time></trkpt><trkpt lat="45.34918753767985" lon="11.489076829273962"><ele>15.0</ele><time>2026-03-28T15:33:32Z</time></trkpt><trkpt lat="45.34923913184763" lon="11.489388998820594"><ele>15.0</ele><time>2026-03-28T15:33:33Z</time></trkpt><trkpt lat="45.34929172664655" lon="11.489680889232126"><ele>15.0</ele><time>2026-03-28T15:33:34Z</time></trkpt><trkpt lat="45.34933891108066" lon="11.489950535209804"><ele>15.0</ele><time>2026-03-28T15:33:35Z</time></trkpt><trkpt lat="45.34940672596565" lon="11.490208812494853"><ele>15.0</ele><time>2026-03-28T15:33:36Z</time></trkpt><trkpt lat="45.3494990732275" lon="11.490456837926944"><ele>15.333333333333332</ele><time>2026-03-28T15:33:37Z</time></trkpt><trkpt lat="45.34961359027614" lon="11.490707548090297"><ele>15.666666666666666</ele><time>2026-03-28T15:33:38Z</time></trkpt><trkpt lat="45.34973701870596" lon="11.490955814538152"><ele>16.0</ele><time>2026-03-28T15:33:39Z</time></trkpt><trkpt lat="45.34986088744656" lon="11.49121115678186"><ele>16.0</ele><time>2026-03-28T15:33:40Z</time></trkpt><trkpt lat="45.34997918674549" lon="11.491465476087217"><ele>16.0</ele><time>2026-03-28T15:33:41Z</time></trkpt><trkpt lat="45.350100577401435" lon="11.491727516966547"><ele>16.0</ele><time>2026-03-28T15:33:42Z</time></trkpt><trkpt lat="45.350221486686785" lon="11.491997951735058"><ele>16.0</ele><time>2026-03-28T15:33:43Z</time></trkpt><trkpt lat="45.35034488199987" lon="11.49226641858978"><ele>16.0</ele><time>2026-03-28T15:33:44Z</time></trkpt><trkpt lat="45.35046929018869" lon="11.492531324822933"><ele>16.0</ele><time>2026-03-28T15:33:45Z</time></trkpt><trkpt lat="45.350596138912586" lon="11.49280284742361"><ele>15.5</ele><time>2026-03-28T15:33:46Z</time></trkpt><trkpt lat="45.350722244433854" lon="11.493080788348902"><ele>15.0</ele><time>2026-03-28T15:33:47Z</time></trkpt><trkpt lat="45.350849194440706" lon="11.493356800101441"><ele>15.0</ele><time>2026-03-28T15:33:48Z</time></trkpt><trkpt lat="45.35097854773975" lon="11.493635127030524"><ele>15.0</ele><time>2026-03-28T15:33:49Z</time></trkpt><trkpt lat="45.35110920371728" lon="11.493903733020797"><ele>15.333333333333332</ele><time>2026-03-28T15:33:50Z</time></trkpt><trkpt lat="45.35123643043871" lon="11.494169325001522"><ele>15.666666666666666</ele><time>2026-03-28T15:33:51Z</time></trkpt><trkpt lat="45.35134994524647" lon="11.494415121135585"><ele>16.0</ele><time>2026-03-28T15:33:52Z</time></trkpt><trkpt lat="45.35145507567155" lon="11.494645749765374"><ele>16.333333333333332</ele><time>2026-03-28T15:33:53Z</time></trkpt><trkpt lat="45.35156089301228" lon="11.494875181698978"><ele>16.666666666666668</ele><time>2026-03-28T15:33:54Z</time></trkpt><trkpt lat="45.35166622851592" lon="11.495099664214893"><ele>17.0</ele><time>2026-03-28T15:33:55Z</time></trkpt><trkpt lat="45.35176686351045" lon="11.495309893102752"><ele>17.333333333333336</ele><time>2026-03-28T15:33:56Z</time></trkpt><trkpt lat="45.3518677672359" lon="11.495534836011037"><ele>17.666666666666668</ele><time>2026-03-28T15:33:57Z</time></trkpt><trkpt lat="45.351964792862226" lon="11.495752535984154"><ele>18.0</ele><time>2026-03-28T15:33:58Z</time></trkpt><trkpt lat="45.35205890546549" lon="11.49596692865461"><ele>18.0</ele><time>2026-03-28T15:33:58.999Z</time></trkpt><trkpt lat="45.352149420673776" lon="11.496197526888015"><ele>18.0</ele><time>2026-03-28T15:33:59.999Z</time></trkpt><trkpt lat="45.35223721841178" lon="11.496423815832058"><ele>18.0</ele><time>2026-03-28T15:34:00.999Z</time></trkpt><trkpt lat="45.352322706931936" lon="11.496660760204747"><ele>17.333333333333332</ele><time>2026-03-28T15:34:01.999Z</time></trkpt><trkpt lat="45.35239921253543" lon="11.496900668744587"><ele>16.666666666666664</ele><time>2026-03-28T15:34:02.999Z</time></trkpt><trkpt lat="45.352476903305046" lon="11.497135663512974"><ele>16.0</ele><time>2026-03-28T15:34:03.999Z</time></trkpt><trkpt lat="45.35255106531864" lon="11.497375364994264"><ele>16.0</ele><time>2026-03-28T15:34:04.999Z</time></trkpt><trkpt lat="45.35262789862563" lon="11.497607023957084"><ele>16.0</ele><time>2026-03-28T15:34:05.999Z</time></trkpt><trkpt lat="45.35270661751248" lon="11.497839296023797"><ele>16.0</ele><time>2026-03-28T15:34:06.999Z</time></trkpt><trkpt lat="45.352771662819215" lon="11.498092844206662"><ele>16.333333333333332</ele><time>2026-03-28T15:34:07.999Z</time></trkpt><trkpt lat="45.352833497528316" lon="11.498348138576555"><ele>16.666666666666668</ele><time>2026-03-28T15:34:08.999Z</time></trkpt><trkpt lat="45.35288103898328" lon="11.498607491947947"><ele>17.0</ele><time>2026-03-28T15:34:09.999Z</time></trkpt><trkpt lat="45.352902308588924" lon="11.498884024906724"><ele>17.333333333333336</ele><time>2026-03-28T15:34:10.999Z</time></trkpt><trkpt lat="45.35290977493797" lon="11.499162063383668"><ele>17.666666666666668</ele><time>2026-03-28T15:34:11.999Z</time></trkpt><trkpt lat="45.35291076579465" lon="11.499437979456566"><ele>18.0</ele><time>2026-03-28T15:34:12.999Z</time></trkpt><trkpt lat="45.352911905765446" lon="11.499716885926173"><ele>18.0</ele><time>2026-03-28T15:34:13.999Z</time></trkpt><trkpt lat="45.35291849122042" lon="11.499999311804771"><ele>18.0</ele><time>2026-03-28T15:34:14.999Z</time></trkpt><trkpt lat="45.35291739314831" lon="11.50027925064826"><ele>18.0</ele><time>2026-03-28T15:34:15.999Z</time></trkpt><trkpt lat="45.35292144384228" lon="11.500551968189825"><ele>17.666666666666668</ele><time>2026-03-28T15:34:16.999Z</time></trkpt><trkpt lat="45.35292229950901" lon="11.500828331129561"><ele>17.333333333333336</ele><time>2026-03-28T15:34:17.999Z</time></trkpt><trkpt lat="45.35293137075481" lon="11.50110418122678"><ele>17.0</ele><time>2026-03-28T15:34:18.999Z</time></trkpt><trkpt lat="45.35294394504553" lon="11.501381824849183"><ele>17.0</ele><time>2026-03-28T15:34:19.999Z</time></trkpt><trkpt lat="45.35296683304015" lon="11.501651166536602"><ele>17.0</ele><time>2026-03-28T15:34:20.999Z</time></trkpt><trkpt lat="45.35300052806662" lon="11.501918943091427"><ele>17.0</ele><time>2026-03-28T15:34:21.999Z</time></trkpt><trkpt lat="45.353044186324524" lon="11.502189338425943"><ele>16.666666666666668</ele><time>2026-03-28T15:34:22.999Z</time></trkpt><trkpt lat="45.35309537227373" lon="11.502455028883938"><ele>16.333333333333332</ele><time>2026-03-28T15:34:23.999Z</time></trkpt><trkpt lat="45.35315209032466" lon="11.502719142768743"><ele>16.0</ele><time>2026-03-28T15:34:24.999Z</time></trkpt><trkpt lat="45.35320869338175" lon="11.502981024632463"><ele>16.0</ele><time>2026-03-28T15:34:25.999Z</time></trkpt><trkpt lat="45.35327025607944" lon="11.503241575421722"><ele>16.0</ele><time>2026-03-28T15:34:26.999Z</time></trkpt><trkpt lat="45.353327395386124" lon="11.50350540698311"><ele>16.0</ele><time>2026-03-28T15:34:27.999Z</time></trkpt><trkpt lat="45.35337741450218" lon="11.503772803924681"><ele>16.0</ele><time>2026-03-28T15:34:28.999Z</time></trkpt><trkpt lat="45.353432884352245" lon="11.504030078811926"><ele>16.0</ele><time>2026-03-28T15:34:29.999Z</time></trkpt><trkpt lat="45.353481013298826" lon="11.504264708981921"><ele>16.0</ele><time>2026-03-28T15:34:30.999Z</time></trkpt><trkpt lat="45.3535300134919" lon="11.50447427956696"><ele>16.0</ele><time>2026-03-28T15:34:31.999Z</time></trkpt><trkpt lat="45.353570587725756" lon="11.504677860589448"><ele>16.0</ele><time>2026-03-28T15:34:32.999Z</time></trkpt><trkpt lat="45.3536115785089" lon="11.504866158019428"><ele>16.0</ele><time>2026-03-28T15:34:33.999Z</time></trkpt><trkpt lat="45.35365225649847" lon="11.505043435293894"><ele>16.0</ele><time>2026-03-28T15:34:34.999Z</time></trkpt><trkpt lat="45.35368434574093" lon="11.505216033066796"><ele>16.0</ele><time>2026-03-28T15:34:35.999Z</time></trkpt><trkpt lat="45.35371429764301" lon="11.50537687679097"><ele>16.0</ele><time>2026-03-28T15:34:36.999Z</time></trkpt><trkpt lat="45.353745196119036" lon="11.505523869079134"><ele>16.0</ele><time>2026-03-28T15:34:37.999Z</time></trkpt><trkpt lat="45.353770593204935" lon="11.505641738857873"><ele>16.0</ele><time>2026-03-28T15:34:38.999Z</time></trkpt><trkpt lat="45.35379088093441" lon="11.505738970635027"><ele>16.0</ele><time>2026-03-28T15:34:39.999Z</time></trkpt><trkpt lat="45.35381881753158" lon="11.505868573487577"><ele>16.0</ele><time>2026-03-28T15:34:41.999Z</time></trkpt><trkpt lat="45.353860723917236" lon="11.5060223197149"><ele>16.0</ele><time>2026-03-28T15:35:24Z</time></trkpt><trkpt lat="45.35388481514457" lon="11.506144173038587"><ele>16.0</ele><time>2026-03-28T15:35:25Z</time></trkpt><trkpt lat="45.35392221685071" lon="11.506314546212584"><ele>16.0</ele><time>2026-03-28T15:35:26Z</time></trkpt><trkpt lat="45.35396795007645" lon="11.506526245330212"><ele>16.0</ele><time>2026-03-28T15:35:27Z</time></trkpt><trkpt lat="45.3540259452791" lon="11.506788607198931"><ele>16.0</ele><time>2026-03-28T15:35:28Z</time></trkpt><trkpt lat="45.354087099192874" lon="11.50708683646546"><ele>16.0</ele><time>2026-03-28T15:35:29Z</time></trkpt><trkpt lat="45.35414958473916" lon="11.507387874297622"><ele>16.0</ele><time>2026-03-28T15:35:30Z</time></trkpt><trkpt lat="45.354216914824875" lon="11.507707955428868"><ele>16.0</ele><time>2026-03-28T15:35:31Z</time></trkpt><trkpt lat="45.35427794511123" lon="11.507990943339545"><ele>16.0</ele><time>2026-03-28T15:35:32Z</time></trkpt><trkpt lat="45.3543364924363" lon="11.508250468111106"><ele>15.666666666666666</ele><time>2026-03-28T15:35:33Z</time></trkpt><trkpt lat="45.35440596733167" lon="11.508476304813207"><ele>15.333333333333332</ele><time>2026-03-28T15:35:34Z</time></trkpt><trkpt lat="45.35449048033857" lon="11.508685392440272"><ele>15.0</ele><time>2026-03-28T15:35:35Z</time></trkpt><trkpt lat="45.35458752784083" lon="11.508894324826793"><ele>15.0</ele><time>2026-03-28T15:35:36Z</time></trkpt><trkpt lat="45.35469852091098" lon="11.509095853397632"><ele>15.0</ele><time>2026-03-28T15:35:37Z</time></trkpt><trkpt lat="45.35482234670138" lon="11.50929838267793"><ele>15.0</ele><time>2026-03-28T15:35:38Z</time></trkpt><trkpt lat="45.35494087574987" lon="11.509506080912983"><ele>15.333333333333332</ele><time>2026-03-28T15:35:39Z</time></trkpt><trkpt lat="45.35505447717106" lon="11.509714948688304"><ele>15.666666666666666</ele><time>2026-03-28T15:35:40Z</time></trkpt><trkpt lat="45.355168174375244" lon="11.509926403085792"><ele>16.0</ele><time>2026-03-28T15:35:41Z</time></trkpt><trkpt lat="45.35528782805315" lon="11.51015074493683"><ele>16.0</ele><time>2026-03-28T15:35:42Z</time></trkpt><trkpt lat="45.355406623980265" lon="11.510372298004832"><ele>16.0</ele><time>2026-03-28T15:35:43Z</time></trkpt><trkpt lat="45.35552571129375" lon="11.51059050921102"><ele>16.0</ele><time>2026-03-28T15:35:44Z</time></trkpt><trkpt lat="45.35564824017746" lon="11.510805148623561"><ele>16.0</ele><time>2026-03-28T15:35:45Z</time></trkpt><trkpt lat="45.35577355235645" lon="11.511019751578747"><ele>16.0</ele><time>2026-03-28T15:35:46Z</time></trkpt><trkpt lat="45.355932724420626" lon="11.511275150668265"><ele>16.0</ele><time>2026-03-28T15:35:47Z</time></trkpt><trkpt lat="45.35611976324178" lon="11.511563634435522"><ele>16.0</ele><time>2026-03-28T15:35:48Z</time></trkpt><trkpt lat="45.35633328795477" lon="11.51189008078141"><ele>16.0</ele><time>2026-03-28T15:35:49Z</time></trkpt><trkpt lat="45.356570283005034" lon="11.512240568610835"><ele>16.0</ele><time>2026-03-28T15:35:50Z</time></trkpt><trkpt lat="45.35682350606271" lon="11.51261989353545"><ele>16.0</ele><time>2026-03-28T15:35:51Z</time></trkpt><trkpt lat="45.35706009346733" lon="11.51297409656287"><ele>15.5</ele><time>2026-03-28T15:35:52Z</time></trkpt><trkpt lat="45.35726694691407" lon="11.513292162140715"><ele>15.0</ele><time>2026-03-28T15:35:53Z</time></trkpt><trkpt lat="45.357455295055196" lon="11.513579943321393"><ele>15.5</ele><time>2026-03-28T15:35:54Z</time></trkpt><trkpt lat="45.35763133284073" lon="11.51384660157924"><ele>16.0</ele><time>2026-03-28T15:35:55Z</time></trkpt><trkpt lat="45.357798754780795" lon="11.514096373781072"><ele>16.0</ele><time>2026-03-28T15:35:56Z</time></trkpt><trkpt lat="45.357958245563665" lon="11.514330199195113"><ele>16.0</ele><time>2026-03-28T15:35:57Z</time></trkpt><trkpt lat="45.358110148391305" lon="11.51455158225839"><ele>16.0</ele><time>2026-03-28T15:35:58Z</time></trkpt><trkpt lat="45.35825575845969" lon="11.514746149244226"><ele>16.0</ele><time>2026-03-28T15:35:59Z</time></trkpt><trkpt lat="45.35840064627883" lon="11.514926894929202"><ele>16.0</ele><time>2026-03-28T15:36:00Z</time></trkpt><trkpt lat="45.35854056384478" lon="11.515102888298369"><ele>16.0</ele><time>2026-03-28T15:36:01Z</time></trkpt><trkpt lat="45.358678424043276" lon="11.515283784056582"><ele>16.333333333333332</ele><time>2026-03-28T15:36:02Z</time></trkpt><trkpt lat="45.358818794060845" lon="11.515482999588507"><ele>16.666666666666668</ele><time>2026-03-28T15:36:03Z</time></trkpt><trkpt lat="45.35895648634117" lon="11.515675494006956"><ele>17.0</ele><time>2026-03-28T15:36:04Z</time></trkpt><trkpt lat="45.35910078440695" lon="11.515862517124512"><ele>17.0</ele><time>2026-03-28T15:36:05Z</time></trkpt><trkpt lat="45.359246412238186" lon="11.51603578721133"><ele>17.0</ele><time>2026-03-28T15:36:06Z</time></trkpt><trkpt lat="45.359399280473674" lon="11.516217387004064"><ele>17.0</ele><time>2026-03-28T15:36:07Z</time></trkpt><trkpt lat="45.35955837285752" lon="11.516414243801892"><ele>17.0</ele><time>2026-03-28T15:36:08Z</time></trkpt><trkpt lat="45.35971633111678" lon="11.516597671547332"><ele>17.0</ele><time>2026-03-28T15:36:09Z</time></trkpt><trkpt lat="45.359870661053606" lon="11.51676531931913"><ele>17.0</ele><time>2026-03-28T15:36:09.999Z</time></trkpt><trkpt lat="45.360017886882304" lon="11.516922259714272"><ele>16.666666666666668</ele><time>2026-03-28T15:36:10.999Z</time></trkpt><trkpt lat="45.36016093360449" lon="11.517094407571822"><ele>16.333333333333332</ele><time>2026-03-28T15:36:11.999Z</time></trkpt><trkpt lat="45.36031366831521" lon="11.51725709400571"><ele>16.0</ele><time>2026-03-28T15:36:12.999Z</time></trkpt><trkpt lat="45.360461404062804" lon="11.517377953147413"><ele>16.0</ele><time>2026-03-28T15:36:13.999Z</time></trkpt><trkpt lat="45.36061343895813" lon="11.51745948044728"><ele>16.0</ele><time>2026-03-28T15:36:14.999Z</time></trkpt><trkpt lat="45.36077611548946" lon="11.517525977681887"><ele>16.0</ele><time>2026-03-28T15:36:15.999Z</time></trkpt><trkpt lat="45.360942121935736" lon="11.517573979709844"><ele>16.0</ele><time>2026-03-28T15:36:16.999Z</time></trkpt><trkpt lat="45.36112054258127" lon="11.51760515003132"><ele>16.0</ele><time>2026-03-28T15:36:17.999Z</time></trkpt><trkpt lat="45.361299504962574" lon="11.51761798963894"><ele>16.0</ele><time>2026-03-28T15:36:18.999Z</time></trkpt><trkpt lat="45.361480555875445" lon="11.517607514889288"><ele>16.0</ele><time>2026-03-28T15:36:19.999Z</time></trkpt><trkpt lat="45.36165415506594" lon="11.51757794385056"><ele>16.0</ele><time>2026-03-28T15:36:20.999Z</time></trkpt><trkpt lat="45.36184104346244" lon="11.517557591953604"><ele>16.0</ele><time>2026-03-28T15:36:21.999Z</time></trkpt><trkpt lat="45.36202793233471" lon="11.517544169286998"><ele>16.0</ele><time>2026-03-28T15:36:22.999Z</time></trkpt><trkpt lat="45.36221440203082" lon="11.517534322929965"><ele>16.0</ele><time>2026-03-28T15:36:23.999Z</time></trkpt><trkpt lat="45.362391086206095" lon="11.51751563429614"><ele>16.0</ele><time>2026-03-28T15:36:24.999Z</time></trkpt><trkpt lat="45.36257908408327" lon="11.517503299784577"><ele>16.0</ele><time>2026-03-28T15:36:25.999Z</time></trkpt><trkpt lat="45.362755109217424" lon="11.517491521452346"><ele>16.0</ele><time>2026-03-28T15:36:26.999Z</time></trkpt><trkpt lat="45.36293878852213" lon="11.517476329975173"><ele>16.0</ele><time>2026-03-28T15:36:27.999Z</time></trkpt><trkpt lat="45.36313297577803" lon="11.517458889476174"><ele>16.0</ele><time>2026-03-28T15:36:28.999Z</time></trkpt><trkpt lat="45.363316297863825" lon="11.517439619966654"><ele>16.0</ele><time>2026-03-28T15:36:29.999Z</time></trkpt><trkpt lat="45.36350763173518" lon="11.517419379760694"><ele>16.0</ele><time>2026-03-28T15:36:30.999Z</time></trkpt><trkpt lat="45.36370113713402" lon="11.517403106467567"><ele>16.0</ele><time>2026-03-28T15:36:31.999Z</time></trkpt><trkpt lat="45.36389409077621" lon="11.517390345153528"><ele>16.0</ele><time>2026-03-28T15:36:32.999Z</time></trkpt><trkpt lat="45.36408479042068" lon="11.517377148638891"><ele>16.0</ele><time>2026-03-28T15:36:33.999Z</time></trkpt><trkpt lat="45.364275943369506" lon="11.517383664862333"><ele>16.0</ele><time>2026-03-28T15:36:34.999Z</time></trkpt><trkpt lat="45.36446970858779" lon="11.517406813992569"><ele>16.0</ele><time>2026-03-28T15:36:35.999Z</time></trkpt><trkpt lat="45.36466077034426" lon="11.51744848097762"><ele>16.0</ele><time>2026-03-28T15:36:36.999Z</time></trkpt><trkpt lat="45.36485146665609" lon="11.517510977829108"><ele>15.666666666666666</ele><time>2026-03-28T15:36:37.999Z</time></trkpt><trkpt lat="45.36503833532051" lon="11.517600435738986"><ele>15.333333333333332</ele><time>2026-03-28T15:36:38.999Z</time></trkpt><trkpt lat="45.36521425733361" lon="11.517709237768917"><ele>15.0</ele><time>2026-03-28T15:36:39.999Z</time></trkpt><trkpt lat="45.365384856081135" lon="11.517846327340594"><ele>15.333333333333332</ele><time>2026-03-28T15:36:40.999Z</time></trkpt><trkpt lat="45.36554438068964" lon="11.518000714170967"><ele>15.666666666666666</ele><time>2026-03-28T15:36:41.999Z</time></trkpt><trkpt lat="45.36569749223394" lon="11.51817604005514"><ele>16.0</ele><time>2026-03-28T15:36:42.999Z</time></trkpt><trkpt lat="45.36584580010907" lon="11.518348556917099"><ele>16.0</ele><time>2026-03-28T15:36:43.999Z</time></trkpt><trkpt lat="45.36600280199657" lon="11.518522481963181"><ele>16.0</ele><time>2026-03-28T15:36:44.999Z</time></trkpt><trkpt lat="45.36616035541956" lon="11.518674294189985"><ele>16.0</ele><time>2026-03-28T15:36:45.999Z</time></trkpt><trkpt lat="45.36631727586771" lon="11.518831869809157"><ele>16.0</ele><time>2026-03-28T15:36:46.999Z</time></trkpt><trkpt lat="45.366474552104556" lon="11.518998788357054"><ele>16.0</ele><time>2026-03-28T15:36:47.999Z</time></trkpt><trkpt lat="45.36662837255806" lon="11.519162987641216"><ele>16.0</ele><time>2026-03-28T15:36:48.999Z</time></trkpt><trkpt lat="45.36678497532611" lon="11.519326487541079"><ele>16.0</ele><time>2026-03-28T15:36:49.999Z</time></trkpt><trkpt lat="45.36694055488354" lon="11.519492918190375"><ele>16.0</ele><time>2026-03-28T15:36:50.999Z</time></trkpt><trkpt lat="45.36709568613289" lon="11.519659540443708"><ele>16.0</ele><time>2026-03-28T15:36:51.999Z</time></trkpt><trkpt lat="45.36724739892794" lon="11.51983354413482"><ele>16.0</ele><time>2026-03-28T15:36:52.999Z</time></trkpt><trkpt lat="45.367392066707275" lon="11.520011391957818"><ele>16.0</ele><time>2026-03-28T15:36:53.999Z</time></trkpt><trkpt lat="45.36752938297258" lon="11.520203339225185"><ele>16.0</ele><time>2026-03-28T15:36:54.999Z</time></trkpt><trkpt lat="45.36766191672851" lon="11.520400156577521"><ele>16.0</ele><time>2026-03-28T15:36:55.999Z</time></trkpt><trkpt lat="45.36779660710806" lon="11.520603115909381"><ele>16.0</ele><time>2026-03-28T15:36:56.999Z</time></trkpt><trkpt lat="45.367938959080746" lon="11.520791139263252"><ele>16.0</ele><time>2026-03-28T15:36:57.999Z</time></trkpt><trkpt lat="45.36808716306456" lon="11.520972687274883"><ele>16.0</ele><time>2026-03-28T15:36:58.999Z</time></trkpt><trkpt lat="45.368248392171914" lon="11.52111768131971"><ele>16.0</ele><time>2026-03-28T15:36:59.999Z</time></trkpt><trkpt lat="45.368424950094266" lon="11.521224420166453"><ele>16.0</ele><time>2026-03-28T15:37:00.999Z</time></trkpt><trkpt lat="45.36860556727154" lon="11.52132024749619"><ele>16.0</ele><time>2026-03-28T15:37:01.999Z</time></trkpt><trkpt lat="45.368788756476576" lon="11.52140802763127"><ele>16.0</ele><time>2026-03-28T15:37:02.999Z</time></trkpt><trkpt lat="45.36897353871342" lon="11.521497654378965"><ele>16.0</ele><time>2026-03-28T15:37:03.999Z</time></trkpt><trkpt lat="45.36915150331751" lon="11.521591316884516"><ele>16.0</ele><time>2026-03-28T15:37:04.999Z</time></trkpt><trkpt lat="45.369334687502366" lon="11.521694306072266"><ele>16.0</ele><time>2026-03-28T15:37:05.999Z</time></trkpt><trkpt lat="45.36951582640872" lon="11.521801928385361"><ele>16.0</ele><time>2026-03-28T15:37:06.999Z</time></trkpt><trkpt lat="45.36969649712375" lon="11.521890090896369"><ele>16.0</ele><time>2026-03-28T15:37:07.999Z</time></trkpt><trkpt lat="45.3698787246765" lon="11.521981335095475"><ele>16.0</ele><time>2026-03-28T15:37:08.999Z</time></trkpt><trkpt lat="45.37006255824433" lon="11.52207892943064"><ele>16.0</ele><time>2026-03-28T15:37:09.999Z</time></trkpt><trkpt lat="45.37024238916639" lon="11.522176274916802"><ele>16.0</ele><time>2026-03-28T15:37:10.999Z</time></trkpt><trkpt lat="45.37042104394688" lon="11.52226826117294"><ele>16.0</ele><time>2026-03-28T15:37:11.999Z</time></trkpt><trkpt lat="45.37059596585212" lon="11.522379948537326"><ele>16.0</ele><time>2026-03-28T15:37:12.999Z</time></trkpt><trkpt lat="45.37076229902674" lon="11.522501918904833"><ele>16.0</ele><time>2026-03-28T15:37:14Z</time></trkpt><trkpt lat="45.37090856521151" lon="11.522645478930805"><ele>16.0</ele><time>2026-03-28T15:37:15Z</time></trkpt><trkpt lat="45.37104468022311" lon="11.522811849882308"><ele>16.0</ele><time>2026-03-28T15:37:16Z</time></trkpt><trkpt lat="45.37116575355057" lon="11.522988832606535"><ele>16.0</ele><time>2026-03-28T15:37:17Z</time></trkpt><trkpt lat="45.371270522598586" lon="11.523185695856153"><ele>16.0</ele><time>2026-03-28T15:37:18Z</time></trkpt><trkpt lat="45.37137728507279" lon="11.523411553609389"><ele>16.0</ele><time>2026-03-28T15:37:19Z</time></trkpt><trkpt lat="45.37150314943247" lon="11.523612809322675"><ele>16.0</ele><time>2026-03-28T15:37:20Z</time></trkpt><trkpt lat="45.37164313963393" lon="11.523803937991737"><ele>16.0</ele><time>2026-03-28T15:37:21Z</time></trkpt><trkpt lat="45.37179361936384" lon="11.523960842771"><ele>16.0</ele><time>2026-03-28T15:37:22Z</time></trkpt><trkpt lat="45.371955837282776" lon="11.524098118814475"><ele>16.0</ele><time>2026-03-28T15:37:23Z</time></trkpt><trkpt lat="45.3721288205929" lon="11.524216417408457"><ele>16.0</ele><time>2026-03-28T15:37:24Z</time></trkpt><trkpt lat="45.37230791919131" lon="11.524332710210613"><ele>16.0</ele><time>2026-03-28T15:37:25Z</time></trkpt><trkpt lat="45.372486145160764" lon="11.524458683548138"><ele>15.666666666666666</ele><time>2026-03-28T15:37:26Z</time></trkpt><trkpt lat="45.37265199041695" lon="11.524585564107406"><ele>15.333333333333332</ele><time>2026-03-28T15:37:27Z</time></trkpt><trkpt lat="45.37282617134357" lon="11.524714079417015"><ele>15.0</ele><time>2026-03-28T15:37:28Z</time></trkpt><trkpt lat="45.37300318317571" lon="11.52483027060973"><ele>15.0</ele><time>2026-03-28T15:37:29Z</time></trkpt><trkpt lat="45.37318281836559" lon="11.52493263601026"><ele>15.0</ele><time>2026-03-28T15:37:30Z</time></trkpt><trkpt lat="45.37336239033301" lon="11.525031155297382"><ele>15.0</ele><time>2026-03-28T15:37:31Z</time></trkpt><trkpt lat="45.37354069459527" lon="11.525123890707913"><ele>15.0</ele><time>2026-03-28T15:37:32Z</time></trkpt><trkpt lat="45.373727317941544" lon="11.525223568458149"><ele>15.0</ele><time>2026-03-28T15:37:33Z</time></trkpt><trkpt lat="45.373892840573106" lon="11.52534166105192"><ele>15.0</ele><time>2026-03-28T15:37:34Z</time></trkpt><trkpt lat="45.37405804585594" lon="11.525489609119626"><ele>14.666666666666668</ele><time>2026-03-28T15:37:35Z</time></trkpt><trkpt lat="45.37421182668886" lon="11.52566014330498"><ele>14.333333333333334</ele><time>2026-03-28T15:37:36Z</time></trkpt><trkpt lat="45.37435407929413" lon="11.525846942202554"><ele>14.0</ele><time>2026-03-28T15:37:37Z</time></trkpt><trkpt lat="45.37448053487995" lon="11.52604704361752"><ele>14.333333333333334</ele><time>2026-03-28T15:37:38Z</time></trkpt><trkpt lat="45.37460169394824" lon="11.526269011189793"><ele>14.666666666666668</ele><time>2026-03-28T15:37:39Z</time></trkpt><trkpt lat="45.37471007666311" lon="11.52650679502541"><ele>15.0</ele><time>2026-03-28T15:37:40Z</time></trkpt><trkpt lat="45.37479831909183" lon="11.526749297164288"><ele>15.0</ele><time>2026-03-28T15:37:41Z</time></trkpt><trkpt lat="45.37487158635322" lon="11.526994445451937"><ele>15.0</ele><time>2026-03-28T15:37:42Z</time></trkpt><trkpt lat="45.37494623833979" lon="11.527245394840332"><ele>15.0</ele><time>2026-03-28T15:37:43Z</time></trkpt><trkpt lat="45.3750262320346" lon="11.527501617657244"><ele>15.0</ele><time>2026-03-28T15:37:44Z</time></trkpt><trkpt lat="45.37510756250686" lon="11.527758835791818"><ele>15.0</ele><time>2026-03-28T15:37:45Z</time></trkpt><trkpt lat="45.37518766567241" lon="11.528013705828531"><ele>15.0</ele><time>2026-03-28T15:37:46Z</time></trkpt><trkpt lat="45.37526379206626" lon="11.528273886667527"><ele>15.333333333333332</ele><time>2026-03-28T15:37:47Z</time></trkpt><trkpt lat="45.37533643350222" lon="11.52852707474011"><ele>15.666666666666666</ele><time>2026-03-28T15:37:48Z</time></trkpt><trkpt lat="45.37540709349259" lon="11.52876808646484"><ele>16.0</ele><time>2026-03-28T15:37:49Z</time></trkpt><trkpt lat="45.375480463711284" lon="11.52901950924169"><ele>15.333333333333332</ele><time>2026-03-28T15:37:50Z</time></trkpt><trkpt lat="45.37555799467076" lon="11.52927280230503"><ele>14.666666666666668</ele><time>2026-03-28T15:37:51Z</time></trkpt><trkpt lat="45.37563953877395" lon="11.529527383315747"><ele>14.0</ele><time>2026-03-28T15:37:52Z</time></trkpt><trkpt lat="45.375720994670225" lon="11.529777554621313"><ele>14.0</ele><time>2026-03-28T15:37:53Z</time></trkpt><trkpt lat="45.375805072619265" lon="11.530030477605898"><ele>14.0</ele><time>2026-03-28T15:37:54Z</time></trkpt><trkpt lat="45.37589687237469" lon="11.5302728497451"><ele>14.0</ele><time>2026-03-28T15:37:55Z</time></trkpt><trkpt lat="45.375992813801105" lon="11.53051313691735"><ele>14.666666666666668</ele><time>2026-03-28T15:37:56Z</time></trkpt><trkpt lat="45.37608598592377" lon="11.530752291047268"><ele>15.333333333333332</ele><time>2026-03-28T15:37:57Z</time></trkpt><trkpt lat="45.3761765514624" lon="11.53099128063706"><ele>16.0</ele><time>2026-03-28T15:37:58Z</time></trkpt><trkpt lat="45.37626833420634" lon="11.531232493749037"><ele>16.0</ele><time>2026-03-28T15:37:59Z</time></trkpt><trkpt lat="45.37636282044378" lon="11.53147456436152"><ele>16.0</ele><time>2026-03-28T15:38:00Z</time></trkpt><trkpt lat="45.37645938770308" lon="11.53172332269581"><ele>16.0</ele><time>2026-03-28T15:38:01Z</time></trkpt><trkpt lat="45.37655031160057" lon="11.531960742489737"><ele>16.0</ele><time>2026-03-28T15:38:02Z</time></trkpt><trkpt lat="45.376643466759816" lon="11.53220741463634"><ele>16.0</ele><time>2026-03-28T15:38:03Z</time></trkpt><trkpt lat="45.37673781878841" lon="11.53244810928106"><ele>16.0</ele><time>2026-03-28T15:38:04Z</time></trkpt><trkpt lat="45.376833688753244" lon="11.5326885534313"><ele>16.0</ele><time>2026-03-28T15:38:05Z</time></trkpt><trkpt lat="45.37692169503693" lon="11.532924410911303"><ele>16.0</ele><time>2026-03-28T15:38:06Z</time></trkpt><trkpt lat="45.37701096509894" lon="11.533168343457156"><ele>16.0</ele><time>2026-03-28T15:38:07Z</time></trkpt><trkpt lat="45.37710423038479" lon="11.533403968793118"><ele>16.0</ele><time>2026-03-28T15:38:08Z</time></trkpt><trkpt lat="45.37719992544343" lon="11.533643497798069"><ele>16.0</ele><time>2026-03-28T15:38:09Z</time></trkpt><trkpt lat="45.37729523520367" lon="11.533888087509066"><ele>16.0</ele><time>2026-03-28T15:38:10Z</time></trkpt><trkpt lat="45.37738077053764" lon="11.53412939467543"><ele>16.0</ele><time>2026-03-28T15:38:11Z</time></trkpt><trkpt lat="45.37744865750565" lon="11.5343646330894"><ele>16.0</ele><time>2026-03-28T15:38:12Z</time></trkpt><trkpt lat="45.37749715023703" lon="11.534582304787659"><ele>16.0</ele><time>2026-03-28T15:38:13Z</time></trkpt><trkpt lat="45.37753644595757" lon="11.534820812697614"><ele>16.0</ele><time>2026-03-28T15:38:14Z</time></trkpt><trkpt lat="45.37756827732031" lon="11.53505991993562"><ele>16.0</ele><time>2026-03-28T15:38:15Z</time></trkpt><trkpt lat="45.37759574006829" lon="11.535301990358656"><ele>16.0</ele><time>2026-03-28T15:38:16Z</time></trkpt><trkpt lat="45.377622699287365" lon="11.535538170307596"><ele>16.0</ele><time>2026-03-28T15:38:17Z</time></trkpt><trkpt lat="45.37765032637844" lon="11.535776888576633"><ele>16.0</ele><time>2026-03-28T15:38:18Z</time></trkpt><trkpt lat="45.37767705632247" lon="11.536018454668842"><ele>16.0</ele><time>2026-03-28T15:38:19Z</time></trkpt><trkpt lat="45.377706755169456" lon="11.536247341833663"><ele>16.333333333333332</ele><time>2026-03-28T15:38:20Z</time></trkpt><trkpt lat="45.37773924704254" lon="11.536481583139308"><ele>16.666666666666668</ele><time>2026-03-28T15:38:21Z</time></trkpt><trkpt lat="45.37777301330103" lon="11.536712915816167"><ele>17.0</ele><time>2026-03-28T15:38:22Z</time></trkpt><trkpt lat="45.37780421606336" lon="11.536952265240886"><ele>16.666666666666668</ele><time>2026-03-28T15:38:23Z</time></trkpt><trkpt lat="45.37784078402156" lon="11.537188967794545"><ele>16.333333333333332</ele><time>2026-03-28T15:38:24Z</time></trkpt><trkpt lat="45.377875402252805" lon="11.537429374810637"><ele>16.0</ele><time>2026-03-28T15:38:25Z</time></trkpt><trkpt lat="45.37791609890791" lon="11.537656657631805"><ele>16.333333333333332</ele><time>2026-03-28T15:38:26Z</time></trkpt><trkpt lat="45.377958175667146" lon="11.537887725987572"><ele>16.666666666666668</ele><time>2026-03-28T15:38:27Z</time></trkpt><trkpt lat="45.37799902967015" lon="11.538124002858243"><ele>17.0</ele><time>2026-03-28T15:38:28Z</time></trkpt><trkpt lat="45.37804403955506" lon="11.538361282127642"><ele>17.0</ele><time>2026-03-28T15:38:29Z</time></trkpt><trkpt lat="45.378088423937676" lon="11.538612405904065"><ele>17.0</ele><time>2026-03-28T15:38:30Z</time></trkpt><trkpt lat="45.378130049678475" lon="11.538868383573204"><ele>17.0</ele><time>2026-03-28T15:38:31Z</time></trkpt><trkpt lat="45.37817428049959" lon="11.539119483911863"><ele>16.333333333333336</ele><time>2026-03-28T15:38:31.999Z</time></trkpt><trkpt lat="45.37821750963442" lon="11.539384477132206"><ele>15.666666666666668</ele><time>2026-03-28T15:38:32.999Z</time></trkpt><trkpt lat="45.378275745119275" lon="11.539626550885735"><ele>15.0</ele><time>2026-03-28T15:38:33.999Z</time></trkpt><trkpt lat="45.378340115591165" lon="11.539869371388946"><ele>15.0</ele><time>2026-03-28T15:38:34.999Z</time></trkpt><trkpt lat="45.378407565704194" lon="11.540109750207145"><ele>15.0</ele><time>2026-03-28T15:38:35.999Z</time></trkpt><trkpt lat="45.37847927933244" lon="11.540345321288134"><ele>15.0</ele><time>2026-03-28T15:38:36.999Z</time></trkpt><trkpt lat="45.37854373416" lon="11.540595337905804"><ele>15.0</ele><time>2026-03-28T15:38:37.999Z</time></trkpt><trkpt lat="45.37860630437117" lon="11.540839806391007"><ele>15.0</ele><time>2026-03-28T15:38:38.999Z</time></trkpt><trkpt lat="45.37866782356536" lon="11.541083441650654"><ele>15.0</ele><time>2026-03-28T15:38:39.999Z</time></trkpt><trkpt lat="45.37872110930676" lon="11.541324018609037"><ele>15.0</ele><time>2026-03-28T15:38:40.999Z</time></trkpt><trkpt lat="45.378757695582955" lon="11.54157572676234"><ele>15.0</ele><time>2026-03-28T15:38:41.999Z</time></trkpt><trkpt lat="45.37878091057509" lon="11.54182658286179"><ele>15.0</ele><time>2026-03-28T15:38:42.999Z</time></trkpt><trkpt lat="45.378787218859976" lon="11.542073715964584"><ele>14.75</ele><time>2026-03-28T15:38:43.999Z</time></trkpt><trkpt lat="45.378778682875776" lon="11.542283565471118"><ele>14.5</ele><time>2026-03-28T15:38:44.999Z</time></trkpt><trkpt lat="45.37875949239408" lon="11.54247557681585"><ele>14.25</ele><time>2026-03-28T15:38:45.999Z</time></trkpt><trkpt lat="45.37873427773504" lon="11.542662014060406"><ele>14.0</ele><time>2026-03-28T15:38:46.999Z</time></trkpt><trkpt lat="45.37869657022591" lon="11.542850967802686"><ele>14.25</ele><time>2026-03-28T15:38:47.999Z</time></trkpt><trkpt lat="45.37864972104097" lon="11.54304635816283"><ele>14.5</ele><time>2026-03-28T15:38:48.999Z</time></trkpt><trkpt lat="45.37859656825399" lon="11.543239292412718"><ele>14.75</ele><time>2026-03-28T15:38:49.999Z</time></trkpt><trkpt lat="45.3785435442578" lon="11.543436710859563"><ele>15.0</ele><time>2026-03-28T15:38:50.999Z</time></trkpt><trkpt lat="45.37849105342915" lon="11.543636163249328"><ele>14.666666666666668</ele><time>2026-03-28T15:38:51.999Z</time></trkpt><trkpt lat="45.378440107439744" lon="11.543837569235714"><ele>14.333333333333334</ele><time>2026-03-28T15:38:52.999Z</time></trkpt><trkpt lat="45.37838805400448" lon="11.544035042194032"><ele>14.0</ele><time>2026-03-28T15:38:53.999Z</time></trkpt><trkpt lat="45.37833309968657" lon="11.544252411823512"><ele>14.0</ele><time>2026-03-28T15:38:54.999Z</time></trkpt><trkpt lat="45.378271896230544" lon="11.544480970793959"><ele>14.0</ele><time>2026-03-28T15:38:55.999Z</time></trkpt><trkpt lat="45.3782066255419" lon="11.544716200090814"><ele>14.0</ele><time>2026-03-28T15:38:56.999Z</time></trkpt><trkpt lat="45.37814218220071" lon="11.544965385433283"><ele>14.0</ele><time>2026-03-28T15:38:57.999Z</time></trkpt><trkpt lat="45.37809163574604" lon="11.54522612152047"><ele>14.0</ele><time>2026-03-28T15:38:58.999Z</time></trkpt><trkpt lat="45.378062393874515" lon="11.54548940850536"><ele>14.0</ele><time>2026-03-28T15:38:59.999Z</time></trkpt><trkpt lat="45.378053467048744" lon="11.545747049992123"><ele>14.0</ele><time>2026-03-28T15:39:00.999Z</time></trkpt><trkpt lat="45.37805117658418" lon="11.546001923286246"><ele>14.0</ele><time>2026-03-28T15:39:01.999Z</time></trkpt><trkpt lat="45.3780508698852" lon="11.546248540230787"><ele>14.0</ele><time>2026-03-28T15:39:02.999Z</time></trkpt><trkpt lat="45.37804624214148" lon="11.546501038567932"><ele>14.333333333333334</ele><time>2026-03-28T15:39:03.999Z</time></trkpt><trkpt lat="45.378042840285055" lon="11.546752625919394"><ele>14.666666666666668</ele><time>2026-03-28T15:39:04.999Z</time></trkpt><trkpt lat="45.37805518332602" lon="11.547007668695798"><ele>15.0</ele><time>2026-03-28T15:39:05.999Z</time></trkpt><trkpt lat="45.37808342996349" lon="11.547272072836396"><ele>15.0</ele><time>2026-03-28T15:39:06.999Z</time></trkpt><trkpt lat="45.3781215351437" lon="11.547524390761806"><ele>15.0</ele><time>2026-03-28T15:39:07.999Z</time></trkpt><trkpt lat="45.37816661228039" lon="11.54778087597344"><ele>15.0</ele><time>2026-03-28T15:39:08.999Z</time></trkpt><trkpt lat="45.378220755960704" lon="11.548023277316874"><ele>15.0</ele><time>2026-03-28T15:39:09.999Z</time></trkpt><trkpt lat="45.378279510119405" lon="11.54826213987462"><ele>15.0</ele><time>2026-03-28T15:39:10.999Z</time></trkpt><trkpt lat="45.37834207883837" lon="11.548500125964438"><ele>15.0</ele><time>2026-03-28T15:39:11.999Z</time></trkpt><trkpt lat="45.37840220682637" lon="11.548748284897245"><ele>14.666666666666668</ele><time>2026-03-28T15:39:12.999Z</time></trkpt><trkpt lat="45.37846086354292" lon="11.548991177426375"><ele>14.333333333333334</ele><time>2026-03-28T15:39:13.999Z</time></trkpt><trkpt lat="45.37851720811777" lon="11.549223523863066"><ele>14.0</ele><time>2026-03-28T15:39:14.999Z</time></trkpt><trkpt lat="45.378567018378185" lon="11.549442328712402"><ele>14.0</ele><time>2026-03-28T15:39:15.999Z</time></trkpt><trkpt lat="45.37861636389284" lon="11.549648937007582"><ele>14.0</ele><time>2026-03-28T15:39:16.999Z</time></trkpt><trkpt lat="45.37867344080462" lon="11.549860320044619"><ele>14.0</ele><time>2026-03-28T15:39:17.999Z</time></trkpt><trkpt lat="45.37872812772159" lon="11.550080208250934"><ele>14.0</ele><time>2026-03-28T15:39:18.999Z</time></trkpt><trkpt lat="45.37878259750512" lon="11.550306570428585"><ele>14.0</ele><time>2026-03-28T15:39:20Z</time></trkpt><trkpt lat="45.37883603012918" lon="11.55052548460886"><ele>14.0</ele><time>2026-03-28T15:39:21Z</time></trkpt><trkpt lat="45.37888922081628" lon="11.550745118102656"><ele>14.0</ele><time>2026-03-28T15:39:22Z</time></trkpt><trkpt lat="45.37894245301929" lon="11.550957522498084"><ele>14.0</ele><time>2026-03-28T15:39:23Z</time></trkpt><trkpt lat="45.378995875712135" lon="11.551174739912954"><ele>14.0</ele><time>2026-03-28T15:39:24Z</time></trkpt><trkpt lat="45.37904871291134" lon="11.551383671795675"><ele>14.25</ele><time>2026-03-28T15:39:25Z</time></trkpt><trkpt lat="45.37909740780715" lon="11.55159825197406"><ele>14.5</ele><time>2026-03-28T15:39:26Z</time></trkpt><trkpt lat="45.37914196087624" lon="11.551790490682466"><ele>14.75</ele><time>2026-03-28T15:39:27Z</time></trkpt><trkpt lat="45.379185601817674" lon="11.55196796552094"><ele>15.0</ele><time>2026-03-28T15:39:28Z</time></trkpt><trkpt lat="45.37922758823918" lon="11.552136232392469"><ele>15.6</ele><time>2026-03-28T15:39:29Z</time></trkpt><trkpt lat="45.37926763085523" lon="11.552294340601085"><ele>16.2</ele><time>2026-03-28T15:39:30Z</time></trkpt><trkpt lat="45.379301713026834" lon="11.552444459945534"><ele>16.8</ele><time>2026-03-28T15:39:31Z</time></trkpt><trkpt lat="45.37933490121178" lon="11.552583815309909"><ele>17.4</ele><time>2026-03-28T15:39:32Z</time></trkpt><trkpt lat="45.3793701044765" lon="11.552720216331313"><ele>18.0</ele><time>2026-03-28T15:39:33Z</time></trkpt><trkpt lat="45.37940894835939" lon="11.55286904052677"><ele>17.8</ele><time>2026-03-28T15:39:34Z</time></trkpt><trkpt lat="45.37944617862431" lon="11.553012975554047"><ele>17.6</ele><time>2026-03-28T15:39:35Z</time></trkpt><trkpt lat="45.37948218333618" lon="11.553165669735158"><ele>17.4</ele><time>2026-03-28T15:39:36Z</time></trkpt><trkpt lat="45.37951298819866" lon="11.553303189799284"><ele>17.2</ele><time>2026-03-28T15:39:37Z</time></trkpt><trkpt lat="45.37954271432191" lon="11.55343181957268"><ele>17.0</ele><time>2026-03-28T15:39:38Z</time></trkpt><trkpt lat="45.37957986195866" lon="11.553553447829195"><ele>17.0</ele><time>2026-03-28T15:39:39Z</time></trkpt><trkpt lat="45.37963059010084" lon="11.553672364729602"><ele>17.0</ele><time>2026-03-28T15:39:40Z</time></trkpt><trkpt lat="45.37969062269435" lon="11.553805218386094"><ele>17.0</ele><time>2026-03-28T15:39:41Z</time></trkpt><trkpt lat="45.379713941150285" lon="11.55397068761418"><ele>17.0</ele><time>2026-03-28T15:39:42Z</time></trkpt><trkpt lat="45.379760634988116" lon="11.554133162438172"><ele>17.0</ele><time>2026-03-28T15:39:43Z</time></trkpt><trkpt lat="45.379793029573314" lon="11.554306210773934"><ele>17.0</ele><time>2026-03-28T15:39:44Z</time></trkpt><trkpt lat="45.37983691186528" lon="11.554475287547309"><ele>17.0</ele><time>2026-03-28T15:39:45Z</time></trkpt><trkpt lat="45.37989704633125" lon="11.554652384220134"><ele>17.0</ele><time>2026-03-28T15:39:46Z</time></trkpt><trkpt lat="45.37997315728554" lon="11.554835030347686"><ele>17.0</ele><time>2026-03-28T15:39:47Z</time></trkpt><trkpt lat="45.38006217600016" lon="11.555027106319708"><ele>17.0</ele><time>2026-03-28T15:39:48Z</time></trkpt><trkpt lat="45.38017083043166" lon="11.555237536129317"><ele>17.0</ele><time>2026-03-28T15:39:49Z</time></trkpt><trkpt lat="45.38028680282428" lon="11.555439319753779"><ele>17.0</ele><time>2026-03-28T15:39:50Z</time></trkpt><trkpt lat="45.38041033555081" lon="11.555629338835345"><ele>17.0</ele><time>2026-03-28T15:39:51Z</time></trkpt><trkpt lat="45.380550894315114" lon="11.555829654350081"><ele>17.0</ele><time>2026-03-28T15:39:52Z</time></trkpt><trkpt lat="45.38070466000711" lon="11.556034800374169"><ele>16.333333333333336</ele><time>2026-03-28T15:39:53Z</time></trkpt><trkpt lat="45.380860949290394" lon="11.556226870112676"><ele>15.666666666666668</ele><time>2026-03-28T15:39:54Z</time></trkpt><trkpt lat="45.38101226168051" lon="11.55640461397584"><ele>15.0</ele><time>2026-03-28T15:39:55Z</time></trkpt><trkpt lat="45.381153257982156" lon="11.556567528706328"><ele>15.0</ele><time>2026-03-28T15:39:56Z</time></trkpt><trkpt lat="45.3812859730877" lon="11.55673185785348"><ele>15.0</ele><time>2026-03-28T15:39:57Z</time></trkpt><trkpt lat="45.381407201979144" lon="11.55687803866195"><ele>15.0</ele><time>2026-03-28T15:39:58Z</time></trkpt><trkpt lat="45.38153065612787" lon="11.55703244651611"><ele>15.666666666666668</ele><time>2026-03-28T15:39:59Z</time></trkpt><trkpt lat="45.38166350030444" lon="11.557188345677837"><ele>16.333333333333336</ele><time>2026-03-28T15:40:00Z</time></trkpt><trkpt lat="45.38179664273488" lon="11.557340873679859"><ele>17.0</ele><time>2026-03-28T15:40:01Z</time></trkpt><trkpt lat="45.38192825640231" lon="11.55749584241414"><ele>17.0</ele><time>2026-03-28T15:40:02Z</time></trkpt><trkpt lat="45.382063944324564" lon="11.557664139545667"><ele>17.0</ele><time>2026-03-28T15:40:03Z</time></trkpt><trkpt lat="45.38221653914858" lon="11.557833550298923"><ele>17.0</ele><time>2026-03-28T15:40:04Z</time></trkpt><trkpt lat="45.38240225334156" lon="11.558042609423369"><ele>17.0</ele><time>2026-03-28T15:40:05Z</time></trkpt><trkpt lat="45.3826006822429" lon="11.558292238997678"><ele>17.0</ele><time>2026-03-28T15:40:06Z</time></trkpt><trkpt lat="45.38280888320043" lon="11.558568694747004"><ele>16.5</ele><time>2026-03-28T15:40:07Z</time></trkpt><trkpt lat="45.38300435206009" lon="11.558836412805995"><ele>16.0</ele><time>2026-03-28T15:40:08Z</time></trkpt><trkpt lat="45.38316944308365" lon="11.559083495136795"><ele>15.666666666666666</ele><time>2026-03-28T15:40:09Z</time></trkpt><trkpt lat="45.383310362212534" lon="11.559326522563236"><ele>15.333333333333332</ele><time>2026-03-28T15:40:10Z</time></trkpt><trkpt lat="45.383430498743905" lon="11.559568179029561"><ele>15.0</ele><time>2026-03-28T15:40:11Z</time></trkpt><trkpt lat="45.38353363026881" lon="11.559801137943142"><ele>15.0</ele><time>2026-03-28T15:40:12Z</time></trkpt><trkpt lat="45.3836329991867" lon="11.560038203464915"><ele>15.0</ele><time>2026-03-28T15:40:13Z</time></trkpt><trkpt lat="45.38373108402321" lon="11.560280378086997"><ele>15.0</ele><time>2026-03-28T15:40:14Z</time></trkpt><trkpt lat="45.38382944057563" lon="11.560536018642601"><ele>15.0</ele><time>2026-03-28T15:40:15Z</time></trkpt><trkpt lat="45.383924663604645" lon="11.56078715844511"><ele>15.0</ele><time>2026-03-28T15:40:16Z</time></trkpt><trkpt lat="45.384023008236824" lon="11.561038250803596"><ele>15.0</ele><time>2026-03-28T15:40:17Z</time></trkpt><trkpt lat="45.384121454433576" lon="11.561291194229277"><ele>15.0</ele><time>2026-03-28T15:40:18Z</time></trkpt><trkpt lat="45.38422022620442" lon="11.561540373317492"><ele>15.0</ele><time>2026-03-28T15:40:19Z</time></trkpt><trkpt lat="45.38432251899654" lon="11.561800728276452"><ele>15.0</ele><time>2026-03-28T15:40:20Z</time></trkpt><trkpt lat="45.38441916866647" lon="11.562051227427297"><ele>15.0</ele><time>2026-03-28T15:40:21Z</time></trkpt><trkpt lat="45.3845156865494" lon="11.562301786007938"><ele>15.0</ele><time>2026-03-28T15:40:22Z</time></trkpt><trkpt lat="45.38460645610226" lon="11.562529954492721"><ele>15.0</ele><time>2026-03-28T15:40:23Z</time></trkpt><trkpt lat="45.38469468155308" lon="11.562759676291153"><ele>15.0</ele><time>2026-03-28T15:40:24Z</time></trkpt><trkpt lat="45.384781157702164" lon="11.562976156721758"><ele>15.0</ele><time>2026-03-28T15:40:25Z</time></trkpt><trkpt lat="45.38486616709016" lon="11.563201521621998"><ele>15.0</ele><time>2026-03-28T15:40:26Z</time></trkpt><trkpt lat="45.384949261398305" lon="11.563407110595042"><ele>15.0</ele><time>2026-03-28T15:40:27Z</time></trkpt><trkpt lat="45.38503316234286" lon="11.563609372480789"><ele>15.0</ele><time>2026-03-28T15:40:28Z</time></trkpt><trkpt lat="45.38511894172908" lon="11.563791562419063"><ele>15.0</ele><time>2026-03-28T15:40:29Z</time></trkpt><trkpt lat="45.38521357656505" lon="11.563953988757813"><ele>15.0</ele><time>2026-03-28T15:40:30Z</time></trkpt><trkpt lat="45.38531738960602" lon="11.564114340083465"><ele>15.0</ele><time>2026-03-28T15:40:31Z</time></trkpt><trkpt lat="45.38541603690685" lon="11.564262671876964"><ele>15.0</ele><time>2026-03-28T15:40:32Z</time></trkpt><trkpt lat="45.38550535338191" lon="11.564399752992859"><ele>15.0</ele><time>2026-03-28T15:40:32.999Z</time></trkpt><trkpt lat="45.38558706258712" lon="11.564527962678898"><ele>15.0</ele><time>2026-03-28T15:40:33.999Z</time></trkpt><trkpt lat="45.38566028378698" lon="11.564645646334958"><ele>15.0</ele><time>2026-03-28T15:40:34.999Z</time></trkpt><trkpt lat="45.385720104201056" lon="11.564760147900367"><ele>15.0</ele><time>2026-03-28T15:40:35.999Z</time></trkpt><trkpt lat="45.385757570594386" lon="11.56488566532408"><ele>15.0</ele><time>2026-03-28T15:40:36.999Z</time></trkpt><trkpt lat="45.38576284184679" lon="11.56501271064406"><ele>15.0</ele><time>2026-03-28T15:40:37.999Z</time></trkpt><trkpt lat="45.385743899869716" lon="11.565159046209157"><ele>15.0</ele><time>2026-03-28T15:40:38.999Z</time></trkpt><trkpt lat="45.38571119033441" lon="11.565302504020636"><ele>15.0</ele><time>2026-03-28T15:40:39.999Z</time></trkpt><trkpt lat="45.38567036339074" lon="11.565446821682084"><ele>15.0</ele><time>2026-03-28T15:40:40.999Z</time></trkpt><trkpt lat="45.38561536814612" lon="11.565571739732208"><ele>15.0</ele><time>2026-03-28T15:40:41.999Z</time></trkpt><trkpt lat="45.38553696542945" lon="11.565698215464728"><ele>15.0</ele><time>2026-03-28T15:40:42.999Z</time></trkpt><trkpt lat="45.38544588366856" lon="11.565808007132603"><ele>15.0</ele><time>2026-03-28T15:40:43.999Z</time></trkpt><trkpt lat="45.38535284797814" lon="11.565919770301166"><ele>15.0</ele><time>2026-03-28T15:40:44.999Z</time></trkpt><trkpt lat="45.38526064442305" lon="11.566037588106433"><ele>15.0</ele><time>2026-03-28T15:40:45.999Z</time></trkpt><trkpt lat="45.38516730914564" lon="11.56616299383852"><ele>15.0</ele><time>2026-03-28T15:40:46.999Z</time></trkpt><trkpt lat="45.385076070031744" lon="11.56628775499056"><ele>15.0</ele><time>2026-03-28T15:40:47.999Z</time></trkpt><trkpt lat="45.38498851590028" lon="11.56642244177059"><ele>15.0</ele><time>2026-03-28T15:40:48.999Z</time></trkpt><trkpt lat="45.38490064443399" lon="11.566587940186938"><ele>15.0</ele><time>2026-03-28T15:40:49.999Z</time></trkpt><trkpt lat="45.38482642161133" lon="11.566783183271161"><ele>15.0</ele><time>2026-03-28T15:40:50.999Z</time></trkpt><trkpt lat="45.38476943238632" lon="11.567013611818954"><ele>15.333333333333332</ele><time>2026-03-28T15:40:51.999Z</time></trkpt><trkpt lat="45.38472644715121" lon="11.567259081976957"><ele>15.666666666666666</ele><time>2026-03-28T15:40:52.999Z</time></trkpt><trkpt lat="45.38470404426087" lon="11.567516634821795"><ele>16.0</ele><time>2026-03-28T15:40:53.999Z</time></trkpt><trkpt lat="45.38469303099846" lon="11.567815755953491"><ele>14.5</ele><time>2026-03-28T15:40:54.999Z</time></trkpt><trkpt lat="45.38469773016437" lon="11.568137597989589"><ele>13.0</ele><time>2026-03-28T15:40:55.999Z</time></trkpt><trkpt lat="45.38470855762266" lon="11.56846823546711"><ele>13.0</ele><time>2026-03-28T15:40:56.999Z</time></trkpt><trkpt lat="45.3847079623664" lon="11.568817286095335"><ele>13.0</ele><time>2026-03-28T15:40:57.999Z</time></trkpt><trkpt lat="45.38470477570478" lon="11.56912405211151"><ele>13.0</ele><time>2026-03-28T15:40:58.999Z</time></trkpt><trkpt lat="45.38470272510173" lon="11.569399434698177"><ele>13.0</ele><time>2026-03-28T15:40:59.999Z</time></trkpt><trkpt lat="45.38470462810065" lon="11.569652813417731"><ele>13.0</ele><time>2026-03-28T15:41:00.999Z</time></trkpt><trkpt lat="45.3847060157016" lon="11.56988403899724"><ele>13.25</ele><time>2026-03-28T15:41:01.999Z</time></trkpt><trkpt lat="45.38470602042111" lon="11.570107118301923"><ele>13.5</ele><time>2026-03-28T15:41:02.999Z</time></trkpt><trkpt lat="45.38470862318785" lon="11.570313642201604"><ele>13.75</ele><time>2026-03-28T15:41:03.999Z</time></trkpt><trkpt lat="45.38470590737506" lon="11.57051220985071"><ele>14.0</ele><time>2026-03-28T15:41:04.999Z</time></trkpt><trkpt lat="45.38469617068644" lon="11.570686902160311"><ele>14.000000000000002</ele><time>2026-03-28T15:41:05.999Z</time></trkpt><trkpt lat="45.38467281628252" lon="11.570824086084093"><ele>14.0</ele><time>2026-03-28T15:41:06.999Z</time></trkpt><trkpt lat="45.38463705468276" lon="11.5709269423909"><ele>14.0</ele><time>2026-03-28T15:41:07.999Z</time></trkpt><trkpt lat="45.38457636090822" lon="11.57101352964986"><ele>14.0</ele><time>2026-03-28T15:41:08.999Z</time></trkpt><trkpt lat="45.38451697079397" lon="11.571095559311876"><ele>14.000000000000002</ele><time>2026-03-28T15:41:09.999Z</time></trkpt><trkpt lat="45.38448477619513" lon="11.57119851095445"><ele>14.0</ele><time>2026-03-28T15:41:10.999Z</time></trkpt><trkpt lat="45.384483562335355" lon="11.571323728944703"><ele>14.6</ele><time>2026-03-28T15:41:11.999Z</time></trkpt><trkpt lat="45.38450077124405" lon="11.57146235415906"><ele>15.2</ele><time>2026-03-28T15:41:12.999Z</time></trkpt><trkpt lat="45.3845469383502" lon="11.571600635763058"><ele>15.799999999999999</ele><time>2026-03-28T15:41:13.999Z</time></trkpt><trkpt lat="45.384537165836626" lon="11.571772993015285"><ele>16.4</ele><time>2026-03-28T15:41:14.999Z</time></trkpt><trkpt lat="45.384485901726805" lon="11.57191630412408"><ele>17.0</ele><time>2026-03-28T15:41:15.999Z</time></trkpt><trkpt lat="45.384445936503134" lon="11.572095507343432"><ele>17.5</ele><time>2026-03-28T15:41:16.999Z</time></trkpt><trkpt lat="45.38438754741137" lon="11.572278766606013"><ele>18.0</ele><time>2026-03-28T15:41:17.999Z</time></trkpt><trkpt lat="45.384334827002725" lon="11.57247439575556"><ele>18.5</ele><time>2026-03-28T15:41:18.999Z</time></trkpt><trkpt lat="45.384283960921586" lon="11.572666612951567"><ele>19.0</ele><time>2026-03-28T15:41:19.999Z</time></trkpt><trkpt lat="45.38424121691233" lon="11.572839851141895"><ele>18.25</ele><time>2026-03-28T15:41:20.999Z</time></trkpt><trkpt lat="45.384194073973326" lon="11.573018225615423"><ele>17.5</ele><time>2026-03-28T15:41:21.999Z</time></trkpt><trkpt lat="45.384146656916236" lon="11.573207256136252"><ele>16.75</ele><time>2026-03-28T15:41:22.999Z</time></trkpt><trkpt lat="45.38409479188128" lon="11.573404813350338"><ele>16.0</ele><time>2026-03-28T15:41:23.999Z</time></trkpt><trkpt lat="45.38403972250093" lon="11.573620201014275"><ele>16.0</ele><time>2026-03-28T15:41:24.999Z</time></trkpt><trkpt lat="45.383980929303796" lon="11.573836317940005"><ele>16.0</ele><time>2026-03-28T15:41:26Z</time></trkpt><trkpt lat="45.38392815217518" lon="11.574045264008776"><ele>16.0</ele><time>2026-03-28T15:41:27Z</time></trkpt><trkpt lat="45.38387778932971" lon="11.574242249448542"><ele>16.0</ele><time>2026-03-28T15:41:28Z</time></trkpt><trkpt lat="45.38382797351042" lon="11.574435099542253"><ele>16.0</ele><time>2026-03-28T15:41:29Z</time></trkpt><trkpt lat="45.38377304314331" lon="11.574638393552432"><ele>16.0</ele><time>2026-03-28T15:41:30Z</time></trkpt><trkpt lat="45.3837205853836" lon="11.574839885327995"><ele>16.0</ele><time>2026-03-28T15:41:31Z</time></trkpt><trkpt lat="45.38366836243537" lon="11.575040299506995"><ele>16.0</ele><time>2026-03-28T15:41:32Z</time></trkpt><trkpt lat="45.383619450548345" lon="11.575245494141864"><ele>16.0</ele><time>2026-03-28T15:41:33Z</time></trkpt><trkpt lat="45.38356487676968" lon="11.575445781997606"><ele>16.0</ele><time>2026-03-28T15:41:34Z</time></trkpt><trkpt lat="45.38350766281446" lon="11.57564312635266"><ele>16.333333333333332</ele><time>2026-03-28T15:41:35Z</time></trkpt><trkpt lat="45.38345355374396" lon="11.575848668666847"><ele>16.666666666666668</ele><time>2026-03-28T15:41:36Z</time></trkpt><trkpt lat="45.38340069363262" lon="11.576059050332821"><ele>17.0</ele><time>2026-03-28T15:41:37Z</time></trkpt><trkpt lat="45.38334744210317" lon="11.576256617251548"><ele>17.0</ele><time>2026-03-28T15:41:38Z</time></trkpt><trkpt lat="45.38329555058954" lon="11.576456689023404"><ele>17.0</ele><time>2026-03-28T15:41:39Z</time></trkpt><trkpt lat="45.38324488051651" lon="11.576652354779291"><ele>17.0</ele><time>2026-03-28T15:41:40Z</time></trkpt><trkpt lat="45.383189029179974" lon="11.576860260874682"><ele>17.0</ele><time>2026-03-28T15:41:41Z</time></trkpt><trkpt lat="45.383135052608964" lon="11.577063284913624"><ele>17.0</ele><time>2026-03-28T15:41:42Z</time></trkpt><trkpt lat="45.38308403078685" lon="11.577275256190957"><ele>17.0</ele><time>2026-03-28T15:41:43Z</time></trkpt><trkpt lat="45.383020718124" lon="11.577501730159014"><ele>16.75</ele><time>2026-03-28T15:41:44Z</time></trkpt><trkpt lat="45.382963627818015" lon="11.577702284645367"><ele>16.5</ele><time>2026-03-28T15:41:45Z</time></trkpt><trkpt lat="45.38292264142054" lon="11.57787995916011"><ele>16.25</ele><time>2026-03-28T15:41:46Z</time></trkpt><trkpt lat="45.382884936623405" lon="11.578052907478456"><ele>16.0</ele><time>2026-03-28T15:41:47Z</time></trkpt><trkpt lat="45.38284131088887" lon="11.578208533333594"><ele>16.0</ele><time>2026-03-28T15:41:48Z</time></trkpt><trkpt lat="45.38279999724957" lon="11.578352096858039"><ele>16.0</ele><time>2026-03-28T15:41:49Z</time></trkpt><trkpt lat="45.382772601595164" lon="11.57844651269626"><ele>16.0</ele><time>2026-03-28T15:41:50Z</time></trkpt><trkpt lat="45.3827357717277" lon="11.578588479061256"><ele>16.0</ele><time>2026-03-28T15:41:52Z</time></trkpt><trkpt lat="45.382702934461264" lon="11.578729133281767"><ele>16.0</ele><time>2026-03-28T15:41:54Z</time></trkpt><trkpt lat="45.38266762462596" lon="11.578861451668107"><ele>16.0</ele><time>2026-03-28T15:41:56Z</time></trkpt><trkpt lat="45.38263259395799" lon="11.578988035561151"><ele>16.0</ele><time>2026-03-28T15:41:58Z</time></trkpt><trkpt lat="45.38260603484837" lon="11.57908968582901"><ele>16.0</ele><time>2026-03-28T15:42:00Z</time></trkpt><trkpt lat="45.382575686764454" lon="11.579198579462245"><ele>16.0</ele><time>2026-03-28T15:42:02Z</time></trkpt><trkpt lat="45.382542957243764" lon="11.579316993554983"><ele>16.0</ele><time>2026-03-28T15:42:04Z</time></trkpt><trkpt lat="45.38250569557368" lon="11.579509083059827"><ele>16.25</ele><time>2026-03-28T15:42:06Z</time></trkpt><trkpt lat="45.38245809120464" lon="11.579670872829062"><ele>16.5</ele><time>2026-03-28T15:42:07Z</time></trkpt><trkpt lat="45.38242761293145" lon="11.579852365232634"><ele>16.75</ele><time>2026-03-28T15:42:08Z</time></trkpt><trkpt lat="45.3824235371029" lon="11.580033976260458"><ele>17.0</ele><time>2026-03-28T15:42:09Z</time></trkpt><trkpt lat="45.38240734059057" lon="11.580214027290284"><ele>17.25</ele><time>2026-03-28T15:42:10Z</time></trkpt><trkpt lat="45.382381320080256" lon="11.580391920404578"><ele>17.5</ele><time>2026-03-28T15:42:11Z</time></trkpt><trkpt lat="45.38236781820553" lon="11.58056957292308"><ele>17.75</ele><time>2026-03-28T15:42:12Z</time></trkpt><trkpt lat="45.382371113523" lon="11.58073941893208"><ele>18.0</ele><time>2026-03-28T15:42:13Z</time></trkpt><trkpt lat="45.38235538465663" lon="11.580898468236306"><ele>18.0</ele><time>2026-03-28T15:42:14Z</time></trkpt><trkpt lat="45.382340828964125" lon="11.581056348476537"><ele>18.0</ele><time>2026-03-28T15:42:15Z</time></trkpt><trkpt lat="45.38232626646376" lon="11.581208435556114"><ele>18.0</ele><time>2026-03-28T15:42:16Z</time></trkpt><trkpt lat="45.382314324546805" lon="11.5813535199096"><ele>18.0</ele><time>2026-03-28T15:42:17Z</time></trkpt><trkpt lat="45.382304339315965" lon="11.581492344481488"><ele>18.0</ele><time>2026-03-28T15:42:18Z</time></trkpt><trkpt lat="45.38229532679149" lon="11.581630092493816"><ele>17.5</ele><time>2026-03-28T15:42:19Z</time></trkpt><trkpt lat="45.38228631065784" lon="11.581773254441556"><ele>17.0</ele><time>2026-03-28T15:42:20Z</time></trkpt><trkpt lat="45.38228425085228" lon="11.58194113918776"><ele>16.5</ele><time>2026-03-28T15:42:21Z</time></trkpt><trkpt lat="45.38226413122729" lon="11.582152517931908"><ele>16.0</ele><time>2026-03-28T15:42:22Z</time></trkpt><trkpt lat="45.38225792057902" lon="11.582412734102181"><ele>16.0</ele><time>2026-03-28T15:42:23Z</time></trkpt><trkpt lat="45.38225363151357" lon="11.582704959569057"><ele>16.0</ele><time>2026-03-28T15:42:24Z</time></trkpt><trkpt lat="45.38226403973651" lon="11.5830086822332"><ele>16.0</ele><time>2026-03-28T15:42:25Z</time></trkpt><trkpt lat="45.38227903364821" lon="11.583363452088276"><ele>16.0</ele><time>2026-03-28T15:42:26Z</time></trkpt><trkpt lat="45.3823059666982" lon="11.583763204067722"><ele>16.0</ele><time>2026-03-28T15:42:27Z</time></trkpt><trkpt lat="45.38231481636387" lon="11.584195689653864"><ele>16.0</ele><time>2026-03-28T15:42:28Z</time></trkpt><trkpt lat="45.38233180569286" lon="11.58465297670702"><ele>16.0</ele><time>2026-03-28T15:42:29Z</time></trkpt><trkpt lat="45.382348847507295" lon="11.585136529835447"><ele>16.5</ele><time>2026-03-28T15:42:30Z</time></trkpt><trkpt lat="45.382372073732135" lon="11.585638951771275"><ele>17.0</ele><time>2026-03-28T15:42:31Z</time></trkpt><trkpt lat="45.38239205007426" lon="11.586108744201901"><ele>17.0</ele><time>2026-03-28T15:42:32Z</time></trkpt><trkpt lat="45.38240536427396" lon="11.586526243721927"><ele>17.0</ele><time>2026-03-28T15:42:33Z</time></trkpt><trkpt lat="45.382422300670605" lon="11.586915735776662"><ele>17.0</ele><time>2026-03-28T15:42:34Z</time></trkpt><trkpt lat="45.38243309945185" lon="11.587287998196903"><ele>17.0</ele><time>2026-03-28T15:42:35Z</time></trkpt><trkpt lat="45.382443842428465" lon="11.587637499848578"><ele>16.5</ele><time>2026-03-28T15:42:36Z</time></trkpt><trkpt lat="45.38245761918387" lon="11.587973806937363"><ele>16.0</ele><time>2026-03-28T15:42:37Z</time></trkpt><trkpt lat="45.38247397991425" lon="11.588298377537896"><ele>16.0</ele><time>2026-03-28T15:42:38Z</time></trkpt><trkpt lat="45.38248298447766" lon="11.588619243694058"><ele>16.0</ele><time>2026-03-28T15:42:39Z</time></trkpt><trkpt lat="45.382495935935204" lon="11.588929772963299"><ele>16.0</ele><time>2026-03-28T15:42:40Z</time></trkpt><trkpt lat="45.38250986609291" lon="11.589233292412926"><ele>16.0</ele><time>2026-03-28T15:42:41Z</time></trkpt><trkpt lat="45.38252195907997" lon="11.58953531401804"><ele>16.0</ele><time>2026-03-28T15:42:42Z</time></trkpt><trkpt lat="45.382533255428164" lon="11.589833953417816"><ele>16.0</ele><time>2026-03-28T15:42:43Z</time></trkpt><trkpt lat="45.3825498712967" lon="11.590119952949065"><ele>15.666666666666666</ele><time>2026-03-28T15:42:44Z</time></trkpt><trkpt lat="45.38256291899672" lon="11.590411045296186"><ele>15.333333333333332</ele><time>2026-03-28T15:42:45Z</time></trkpt><trkpt lat="45.38257383192461" lon="11.5906922465582"><ele>15.0</ele><time>2026-03-28T15:42:46Z</time></trkpt><trkpt lat="45.382586114064466" lon="11.590974741973648"><ele>15.0</ele><time>2026-03-28T15:42:47Z</time></trkpt><trkpt lat="45.382596694757424" lon="11.591251452277046"><ele>15.0</ele><time>2026-03-28T15:42:48Z</time></trkpt><trkpt lat="45.382607535287654" lon="11.59153488863053"><ele>15.0</ele><time>2026-03-28T15:42:49Z</time></trkpt><trkpt lat="45.38261444055708" lon="11.59180987928879"><ele>15.0</ele><time>2026-03-28T15:42:49.999Z</time></trkpt><trkpt lat="45.38262642658243" lon="11.592086597043055"><ele>15.0</ele><time>2026-03-28T15:42:50.999Z</time></trkpt><trkpt lat="45.38263902078064" lon="11.592352925411909"><ele>15.0</ele><time>2026-03-28T15:42:51.999Z</time></trkpt><trkpt lat="45.38265074179293" lon="11.592631771859612"><ele>15.0</ele><time>2026-03-28T15:42:52.999Z</time></trkpt><trkpt lat="45.3826599498947" lon="11.59290349643359"><ele>15.0</ele><time>2026-03-28T15:42:53.999Z</time></trkpt><trkpt lat="45.38267401130761" lon="11.59318279321241"><ele>15.0</ele><time>2026-03-28T15:42:54.999Z</time></trkpt><trkpt lat="45.38268425915072" lon="11.59346511552066"><ele>15.333333333333332</ele><time>2026-03-28T15:42:55.999Z</time></trkpt><trkpt lat="45.38269525050628" lon="11.593742580024074"><ele>15.666666666666666</ele><time>2026-03-28T15:42:56.999Z</time></trkpt><trkpt lat="45.382700919688" lon="11.59399908833496"><ele>16.0</ele><time>2026-03-28T15:42:57.999Z</time></trkpt><trkpt lat="45.382704869818625" lon="11.594231964803258"><ele>16.0</ele><time>2026-03-28T15:42:58.999Z</time></trkpt><trkpt lat="45.38271445848424" lon="11.59446646323225"><ele>16.0</ele><time>2026-03-28T15:42:59.999Z</time></trkpt><trkpt lat="45.38272692521926" lon="11.59467681336202"><ele>16.0</ele><time>2026-03-28T15:43:00.999Z</time></trkpt><trkpt lat="45.38273660962054" lon="11.594892252818251"><ele>16.0</ele><time>2026-03-28T15:43:01.999Z</time></trkpt><trkpt lat="45.38274878638098" lon="11.595114487464443"><ele>16.0</ele><time>2026-03-28T15:43:02.999Z</time></trkpt><trkpt lat="45.3827714419171" lon="11.59535516057899"><ele>16.0</ele><time>2026-03-28T15:43:03.999Z</time></trkpt><trkpt lat="45.382828206029956" lon="11.59557416382407"><ele>16.333333333333332</ele><time>2026-03-28T15:43:04.999Z</time></trkpt><trkpt lat="45.382907907917954" lon="11.595795876610199"><ele>16.666666666666668</ele><time>2026-03-28T15:43:05.999Z</time></trkpt><trkpt lat="45.38300683139754" lon="11.59601120271186"><ele>17.0</ele><time>2026-03-28T15:43:06.999Z</time></trkpt><trkpt lat="45.38311038092308" lon="11.59620373467349"><ele>16.333333333333336</ele><time>2026-03-28T15:43:07.999Z</time></trkpt><trkpt lat="45.38321179847389" lon="11.5963876660572"><ele>15.666666666666668</ele><time>2026-03-28T15:43:08.999Z</time></trkpt><trkpt lat="45.38331108552442" lon="11.596580621534514"><ele>15.0</ele><time>2026-03-28T15:43:09.999Z</time></trkpt><trkpt lat="45.38340807301465" lon="11.596766809317524"><ele>15.0</ele><time>2026-03-28T15:43:10.999Z</time></trkpt><trkpt lat="45.38350792852319" lon="11.59695722068834"><ele>15.0</ele><time>2026-03-28T15:43:11.999Z</time></trkpt><trkpt lat="45.38361130350489" lon="11.597139794508637"><ele>15.0</ele><time>2026-03-28T15:43:12.999Z</time></trkpt><trkpt lat="45.38370692456654" lon="11.597343972627637"><ele>15.0</ele><time>2026-03-28T15:43:13.999Z</time></trkpt><trkpt lat="45.38378591602724" lon="11.59755248572388"><ele>15.0</ele><time>2026-03-28T15:43:14.999Z</time></trkpt><trkpt lat="45.38384231643269" lon="11.597785387466454"><ele>15.0</ele><time>2026-03-28T15:43:15.999Z</time></trkpt><trkpt lat="45.3838790789577" lon="11.598012387854821"><ele>15.0</ele><time>2026-03-28T15:43:16.999Z</time></trkpt><trkpt lat="45.38389387656936" lon="11.59825853878735"><ele>15.0</ele><time>2026-03-28T15:43:17.999Z</time></trkpt><trkpt lat="45.38389097257255" lon="11.598503067793047"><ele>15.0</ele><time>2026-03-28T15:43:18.999Z</time></trkpt><trkpt lat="45.383875898709164" lon="11.598743829904883"><ele>15.0</ele><time>2026-03-28T15:43:19.999Z</time></trkpt><trkpt lat="45.38385700053988" lon="11.59898676107606"><ele>15.0</ele><time>2026-03-28T15:43:20.999Z</time></trkpt><trkpt lat="45.38384294959057" lon="11.599219563841832"><ele>15.0</ele><time>2026-03-28T15:43:21.999Z</time></trkpt><trkpt lat="45.383825909152385" lon="11.599460683786432"><ele>15.666666666666668</ele><time>2026-03-28T15:43:22.999Z</time></trkpt><trkpt lat="45.38381292070332" lon="11.599694524260558"><ele>16.333333333333336</ele><time>2026-03-28T15:43:23.999Z</time></trkpt><trkpt lat="45.38380077334793" lon="11.599938722229382"><ele>17.0</ele><time>2026-03-28T15:43:24.999Z</time></trkpt><trkpt lat="45.383785301309345" lon="11.600183075978277"><ele>17.0</ele><time>2026-03-28T15:43:25.999Z</time></trkpt><trkpt lat="45.38377050303363" lon="11.600421438499026"><ele>17.0</ele><time>2026-03-28T15:43:26.999Z</time></trkpt><trkpt lat="45.38375589595824" lon="11.600660816922831"><ele>17.0</ele><time>2026-03-28T15:43:27.999Z</time></trkpt><trkpt lat="45.383746780388385" lon="11.600902064494013"><ele>17.0</ele><time>2026-03-28T15:43:28.999Z</time></trkpt><trkpt lat="45.38374274341066" lon="11.60113750946172"><ele>17.0</ele><time>2026-03-28T15:43:29.999Z</time></trkpt><trkpt lat="45.38373839812672" lon="11.60138192146739"><ele>17.0</ele><time>2026-03-28T15:43:30.999Z</time></trkpt><trkpt lat="45.383731682546134" lon="11.601621055172842"><ele>17.0</ele><time>2026-03-28T15:43:32Z</time></trkpt><trkpt lat="45.38372021355442" lon="11.601840657377423"><ele>17.0</ele><time>2026-03-28T15:43:33Z</time></trkpt><trkpt lat="45.38370216070579" lon="11.60204152526508"><ele>17.0</ele><time>2026-03-28T15:43:34Z</time></trkpt><trkpt lat="45.3836816528711" lon="11.602221674020814"><ele>17.0</ele><time>2026-03-28T15:43:35Z</time></trkpt><trkpt lat="45.38366498405985" lon="11.602407655394712"><ele>16.75</ele><time>2026-03-28T15:43:36Z</time></trkpt><trkpt lat="45.38365308859287" lon="11.602601556323167"><ele>16.5</ele><time>2026-03-28T15:43:37Z</time></trkpt><trkpt lat="45.383642017420435" lon="11.60280293565148"><ele>16.25</ele><time>2026-03-28T15:43:38Z</time></trkpt><trkpt lat="45.38363147101593" lon="11.603012624639883"><ele>16.0</ele><time>2026-03-28T15:43:39Z</time></trkpt><trkpt lat="45.38362239893888" lon="11.603232050989135"><ele>16.666666666666664</ele><time>2026-03-28T15:43:40Z</time></trkpt><trkpt lat="45.38361295400052" lon="11.603463937775924"><ele>17.333333333333332</ele><time>2026-03-28T15:43:41Z</time></trkpt><trkpt lat="45.38359890401345" lon="11.603703905974392"><ele>18.0</ele><time>2026-03-28T15:43:42Z</time></trkpt><trkpt lat="45.38358903486428" lon="11.603915236730225"><ele>18.0</ele><time>2026-03-28T15:43:43Z</time></trkpt><trkpt lat="45.38357663213158" lon="11.604110759007892"><ele>18.0</ele><time>2026-03-28T15:43:44Z</time></trkpt><trkpt lat="45.38354860601796" lon="11.604298869171563"><ele>18.0</ele><time>2026-03-28T15:43:45Z</time></trkpt><trkpt lat="45.383503812500734" lon="11.604475300644962"><ele>18.0</ele><time>2026-03-28T15:43:46Z</time></trkpt><trkpt lat="45.38343918103897" lon="11.604638735365148"><ele>17.75</ele><time>2026-03-28T15:43:47Z</time></trkpt><trkpt lat="45.38335416582596" lon="11.604785065156713"><ele>17.5</ele><time>2026-03-28T15:43:48Z</time></trkpt><trkpt lat="45.383247712185344" lon="11.604900407142079"><ele>17.25</ele><time>2026-03-28T15:43:49Z</time></trkpt><trkpt lat="45.383107882207746" lon="11.605000807054045"><ele>17.0</ele><time>2026-03-28T15:43:50Z</time></trkpt><trkpt lat="45.38295462989059" lon="11.605069127454732"><ele>16.333333333333336</ele><time>2026-03-28T15:43:51Z</time></trkpt><trkpt lat="45.3827882432651" lon="11.60507086142887"><ele>15.666666666666668</ele><time>2026-03-28T15:43:52Z</time></trkpt><trkpt lat="45.3826228005098" lon="11.605115940420411"><ele>15.0</ele><time>2026-03-28T15:43:53Z</time></trkpt><trkpt lat="45.382448366598275" lon="11.605162420280573"><ele>15.0</ele><time>2026-03-28T15:43:54Z</time></trkpt><trkpt lat="45.38227432063151" lon="11.605247734223616"><ele>15.0</ele><time>2026-03-28T15:43:55Z</time></trkpt><trkpt lat="45.38212438052636" lon="11.605369742975544"><ele>15.0</ele><time>2026-03-28T15:43:56Z</time></trkpt><trkpt lat="45.38198506976645" lon="11.605516031381033"><ele>16.0</ele><time>2026-03-28T15:43:57Z</time></trkpt><trkpt lat="45.38187219443036" lon="11.605693579849843"><ele>17.0</ele><time>2026-03-28T15:43:58Z</time></trkpt><trkpt lat="45.38177437852038" lon="11.60588707432112"><ele>18.0</ele><time>2026-03-28T15:43:59Z</time></trkpt><trkpt lat="45.38165018169574" lon="11.606104854733834"><ele>17.666666666666668</ele><time>2026-03-28T15:44:00Z</time></trkpt><trkpt lat="45.38152875821188" lon="11.606314399717531"><ele>17.333333333333336</ele><time>2026-03-28T15:44:01Z</time></trkpt><trkpt lat="45.38141685010268" lon="11.606496725810187"><ele>17.0</ele><time>2026-03-28T15:44:02Z</time></trkpt><trkpt lat="45.38131226517411" lon="11.606673574440002"><ele>17.333333333333336</ele><time>2026-03-28T15:44:03Z</time></trkpt><trkpt lat="45.38120690871586" lon="11.606853381238839"><ele>17.666666666666668</ele><time>2026-03-28T15:44:04Z</time></trkpt><trkpt lat="45.381104510543146" lon="11.607032138110732"><ele>18.0</ele><time>2026-03-28T15:44:05Z</time></trkpt><trkpt lat="45.38100707076868" lon="11.607189978518015"><ele>18.0</ele><time>2026-03-28T15:44:06Z</time></trkpt><trkpt lat="45.38091317318083" lon="11.607337808085585"><ele>18.0</ele><time>2026-03-28T15:44:07Z</time></trkpt><trkpt lat="45.38082044540678" lon="11.607483349815904"><ele>18.0</ele><time>2026-03-28T15:44:08Z</time></trkpt><trkpt lat="45.38073914816178" lon="11.607619739395766"><ele>18.0</ele><time>2026-03-28T15:44:09Z</time></trkpt><trkpt lat="45.38065800010441" lon="11.607750501372134"><ele>18.25</ele><time>2026-03-28T15:44:10Z</time></trkpt><trkpt lat="45.38057599747713" lon="11.60788163558822"><ele>18.5</ele><time>2026-03-28T15:44:11Z</time></trkpt><trkpt lat="45.38049106206594" lon="11.608017268860445"><ele>18.75</ele><time>2026-03-28T15:44:12Z</time></trkpt><trkpt lat="45.380408404737125" lon="11.6081537259911"><ele>19.0</ele><time>2026-03-28T15:44:13Z</time></trkpt><trkpt lat="45.3803242363582" lon="11.608294310600645"><ele>19.0</ele><time>2026-03-28T15:44:14Z</time></trkpt><trkpt lat="45.380237875854114" lon="11.608431200352074"><ele>19.0</ele><time>2026-03-28T15:44:15Z</time></trkpt><trkpt lat="45.380156583663556" lon="11.608572631872223"><ele>19.0</ele><time>2026-03-28T15:44:16Z</time></trkpt><trkpt lat="45.38006962208789" lon="11.608717515178451"><ele>19.0</ele><time>2026-03-28T15:44:17Z</time></trkpt><trkpt lat="45.37998964433211" lon="11.608859208842501"><ele>18.25</ele><time>2026-03-28T15:44:18Z</time></trkpt><trkpt lat="45.37990524956083" lon="11.609003577704437"><ele>17.5</ele><time>2026-03-28T15:44:19Z</time></trkpt><trkpt lat="45.37982721877826" lon="11.60916297367293"><ele>16.75</ele><time>2026-03-28T15:44:20Z</time></trkpt><trkpt lat="45.379765097707775" lon="11.609326563291836"><ele>16.0</ele><time>2026-03-28T15:44:21Z</time></trkpt><trkpt lat="45.37971637588475" lon="11.60950523219382"><ele>16.0</ele><time>2026-03-28T15:44:22Z</time></trkpt><trkpt lat="45.379673623506854" lon="11.609681746449967"><ele>16.0</ele><time>2026-03-28T15:44:23Z</time></trkpt><trkpt lat="45.37963655329209" lon="11.609849344685664"><ele>16.0</ele><time>2026-03-28T15:44:24Z</time></trkpt><trkpt lat="45.379608929352464" lon="11.61000741852583"><ele>16.0</ele><time>2026-03-28T15:44:25Z</time></trkpt><trkpt lat="45.37958769092395" lon="11.610160908260287"><ele>16.0</ele><time>2026-03-28T15:44:26Z</time></trkpt><trkpt lat="45.37957924157292" lon="11.610302009409946"><ele>16.0</ele><time>2026-03-28T15:44:27Z</time></trkpt><trkpt lat="45.37957482713686" lon="11.610429729017497"><ele>16.0</ele><time>2026-03-28T15:44:28Z</time></trkpt><trkpt lat="45.37957419505957" lon="11.610534705044369"><ele>16.0</ele><time>2026-03-28T15:44:29Z</time></trkpt><trkpt lat="45.37955964676013" lon="11.610624657894391"><ele>16.0</ele><time>2026-03-28T15:44:30Z</time></trkpt><trkpt lat="45.37946073724001" lon="11.610768080459627"><ele>16.0</ele><time>2026-03-28T15:44:32Z</time></trkpt><trkpt lat="45.37937849582305" lon="11.610832631445776"><ele>16.0</ele><time>2026-03-28T15:44:33Z</time></trkpt><trkpt lat="45.3793026834923" lon="11.610924697279973"><ele>16.0</ele><time>2026-03-28T15:44:34Z</time></trkpt><trkpt lat="45.379267726794204" lon="11.611046611874587"><ele>16.0</ele><time>2026-03-28T15:44:35Z</time></trkpt><trkpt lat="45.379257048654296" lon="11.611200062006624"><ele>16.0</ele><time>2026-03-28T15:44:36Z</time></trkpt><trkpt lat="45.37927738687253" lon="11.611351147336476"><ele>15.4</ele><time>2026-03-28T15:44:37Z</time></trkpt><trkpt lat="45.37932511140313" lon="11.611478076446124"><ele>14.8</ele><time>2026-03-28T15:44:38Z</time></trkpt><trkpt lat="45.379394828879235" lon="11.611589471161254"><ele>14.200000000000001</ele><time>2026-03-28T15:44:39Z</time></trkpt><trkpt lat="45.379459905222525" lon="11.611716684915896"><ele>13.600000000000001</ele><time>2026-03-28T15:44:40Z</time></trkpt><trkpt lat="45.37949705229698" lon="11.611880431205941"><ele>13.0</ele><time>2026-03-28T15:44:41Z</time></trkpt><trkpt lat="45.37950825656901" lon="11.61207507483443"><ele>13.0</ele><time>2026-03-28T15:44:42Z</time></trkpt><trkpt lat="45.37951382275504" lon="11.61228954664196"><ele>13.0</ele><time>2026-03-28T15:44:43Z</time></trkpt><trkpt lat="45.37951992537889" lon="11.6125217645143"><ele>13.0</ele><time>2026-03-28T15:44:44Z</time></trkpt><trkpt lat="45.379527755644766" lon="11.612725956968497"><ele>13.0</ele><time>2026-03-28T15:44:45Z</time></trkpt><trkpt lat="45.37952401303846" lon="11.612911598360668"><ele>13.0</ele><time>2026-03-28T15:44:46Z</time></trkpt><trkpt lat="45.37952236569783" lon="11.613110510990959"><ele>13.0</ele><time>2026-03-28T15:44:46.999Z</time></trkpt><trkpt lat="45.3795251485338" lon="11.613333869728043"><ele>13.0</ele><time>2026-03-28T15:44:47.999Z</time></trkpt><trkpt lat="45.3795039972945" lon="11.613612444930729"><ele>13.0</ele><time>2026-03-28T15:44:48.999Z</time></trkpt><trkpt lat="45.37951027290168" lon="11.613906444147247"><ele>13.0</ele><time>2026-03-28T15:44:49.999Z</time></trkpt><trkpt lat="45.3794945877207" lon="11.614152530095637"><ele>13.0</ele><time>2026-03-28T15:44:50.999Z</time></trkpt><trkpt lat="45.37948913649859" lon="11.61437719151309"><ele>13.0</ele><time>2026-03-28T15:44:51.999Z</time></trkpt><trkpt lat="45.37949149629771" lon="11.61459277017791"><ele>13.0</ele><time>2026-03-28T15:44:52.999Z</time></trkpt><trkpt lat="45.379495928879194" lon="11.614828355343272"><ele>13.0</ele><time>2026-03-28T15:44:53.999Z</time></trkpt><trkpt lat="45.37949928462615" lon="11.61504662141242"><ele>13.0</ele><time>2026-03-28T15:44:54.999Z</time></trkpt><trkpt lat="45.379501493894054" lon="11.615232426872602"><ele>13.0</ele><time>2026-03-28T15:44:55.999Z</time></trkpt><trkpt lat="45.379504399286326" lon="11.615407021429181"><ele>13.0</ele><time>2026-03-28T15:44:56.999Z</time></trkpt><trkpt lat="45.37950999673273" lon="11.615571671069418"><ele>13.0</ele><time>2026-03-28T15:44:57.999Z</time></trkpt><trkpt lat="45.379515041936656" lon="11.61573164004947"><ele>13.0</ele><time>2026-03-28T15:44:58.999Z</time></trkpt><trkpt lat="45.37952217210969" lon="11.615886402460868"><ele>13.0</ele><time>2026-03-28T15:44:59.999Z</time></trkpt><trkpt lat="45.37953275183595" lon="11.616043122912734"><ele>13.0</ele><time>2026-03-28T15:45:00.999Z</time></trkpt><trkpt lat="45.379544076392136" lon="11.616213056815743"><ele>13.0</ele><time>2026-03-28T15:45:01.999Z</time></trkpt><trkpt lat="45.37955273469904" lon="11.616401420358008"><ele>13.0</ele><time>2026-03-28T15:45:02.999Z</time></trkpt><trkpt lat="45.37956657418113" lon="11.616618522982241"><ele>13.0</ele><time>2026-03-28T15:45:03.999Z</time></trkpt><trkpt lat="45.37958558134338" lon="11.616886130953407"><ele>13.0</ele><time>2026-03-28T15:45:04.999Z</time></trkpt><trkpt lat="45.37961486383172" lon="11.61717490213347"><ele>13.0</ele><time>2026-03-28T15:45:05.999Z</time></trkpt><trkpt lat="45.37965048231849" lon="11.617480954708332"><ele>13.0</ele><time>2026-03-28T15:45:06.999Z</time></trkpt><trkpt lat="45.37968947181819" lon="11.61779500382216"><ele>13.0</ele><time>2026-03-28T15:45:07.999Z</time></trkpt><trkpt lat="45.37972520761023" lon="11.618103220662524"><ele>13.0</ele><time>2026-03-28T15:45:08.999Z</time></trkpt><trkpt lat="45.379752730472866" lon="11.618416166344275"><ele>13.0</ele><time>2026-03-28T15:45:09.999Z</time></trkpt><trkpt lat="45.37978722648262" lon="11.618734812708604"><ele>13.0</ele><time>2026-03-28T15:45:10.999Z</time></trkpt><trkpt lat="45.37983070338594" lon="11.619050572681582"><ele>13.0</ele><time>2026-03-28T15:45:11.999Z</time></trkpt><trkpt lat="45.37988173906863" lon="11.619337671154188"><ele>13.0</ele><time>2026-03-28T15:45:12.999Z</time></trkpt><trkpt lat="45.37993353724655" lon="11.619621446622414"><ele>13.0</ele><time>2026-03-28T15:45:13.999Z</time></trkpt><trkpt lat="45.37998597708651" lon="11.61991661729831"><ele>13.0</ele><time>2026-03-28T15:45:14.999Z</time></trkpt><trkpt lat="45.38003835310464" lon="11.620214408683369"><ele>13.0</ele><time>2026-03-28T15:45:15.999Z</time></trkpt><trkpt lat="45.380092831079445" lon="11.620504722358069"><ele>13.0</ele><time>2026-03-28T15:45:16.999Z</time></trkpt><trkpt lat="45.38014934435151" lon="11.620801363161652"><ele>13.0</ele><time>2026-03-28T15:45:17.999Z</time></trkpt><trkpt lat="45.380205739898315" lon="11.621093292442243"><ele>13.0</ele><time>2026-03-28T15:45:18.999Z</time></trkpt><trkpt lat="45.38026172294544" lon="11.621388249796986"><ele>13.0</ele><time>2026-03-28T15:45:19.999Z</time></trkpt><trkpt lat="45.380317216213676" lon="11.621689694055405"><ele>13.333333333333332</ele><time>2026-03-28T15:45:20.999Z</time></trkpt><trkpt lat="45.380371341968974" lon="11.621995838488413"><ele>13.666666666666668</ele><time>2026-03-28T15:45:21.999Z</time></trkpt><trkpt lat="45.380426008642814" lon="11.622289545696875"><ele>14.0</ele><time>2026-03-28T15:45:22.999Z</time></trkpt><trkpt lat="45.38048247947549" lon="11.622588414265598"><ele>14.0</ele><time>2026-03-28T15:45:23.999Z</time></trkpt><trkpt lat="45.38054085537977" lon="11.622887210213143"><ele>14.0</ele><time>2026-03-28T15:45:24.999Z</time></trkpt><trkpt lat="45.38059879833065" lon="11.623189080117344"><ele>14.0</ele><time>2026-03-28T15:45:25.999Z</time></trkpt><trkpt lat="45.38065627968608" lon="11.623487338288788"><ele>13.666666666666668</ele><time>2026-03-28T15:45:26.999Z</time></trkpt><trkpt lat="45.38071287717722" lon="11.623785698954302"><ele>13.333333333333332</ele><time>2026-03-28T15:45:27.999Z</time></trkpt><trkpt lat="45.38076855955389" lon="11.624089229546618"><ele>13.0</ele><time>2026-03-28T15:45:28.999Z</time></trkpt><trkpt lat="45.380824688860976" lon="11.624380260594648"><ele>12.666666666666666</ele><time>2026-03-28T15:45:29.999Z</time></trkpt><trkpt lat="45.38087934491253" lon="11.624683979175906"><ele>12.333333333333332</ele><time>2026-03-28T15:45:30.999Z</time></trkpt><trkpt lat="45.38093786208121" lon="11.624981555331823"><ele>12.0</ele><time>2026-03-28T15:45:31.999Z</time></trkpt><trkpt lat="45.380996085842845" lon="11.62527098726377"><ele>12.0</ele><time>2026-03-28T15:45:32.999Z</time></trkpt><trkpt lat="45.38105311501231" lon="11.625570978849591"><ele>12.0</ele><time>2026-03-28T15:45:33.999Z</time></trkpt><trkpt lat="45.38111190738857" lon="11.625865854418437"><ele>12.0</ele><time>2026-03-28T15:45:34.999Z</time></trkpt><trkpt lat="45.381170328011585" lon="11.626168517319197"><ele>11.666666666666666</ele><time>2026-03-28T15:45:35.999Z</time></trkpt><trkpt lat="45.381222208593634" lon="11.626462412851366"><ele>11.333333333333332</ele><time>2026-03-28T15:45:36.999Z</time></trkpt><trkpt lat="45.38127024757351" lon="11.626762455657609"><ele>11.0</ele><time>2026-03-28T15:45:38Z</time></trkpt><trkpt lat="45.38130586741876" lon="11.627066325116498"><ele>11.666666666666666</ele><time>2026-03-28T15:45:39Z</time></trkpt><trkpt lat="45.381323841685905" lon="11.627351249164795"><ele>12.333333333333332</ele><time>2026-03-28T15:45:40Z</time></trkpt><trkpt lat="45.38131682035612" lon="11.62762960189053"><ele>13.0</ele><time>2026-03-28T15:45:41Z</time></trkpt><trkpt lat="45.38129250776682" lon="11.627914909986735"><ele>13.333333333333332</ele><time>2026-03-28T15:45:42Z</time></trkpt><trkpt lat="45.381249350126716" lon="11.628201698702041"><ele>13.666666666666668</ele><time>2026-03-28T15:45:43Z</time></trkpt><trkpt lat="45.38119073555263" lon="11.628472901101578"><ele>14.0</ele><time>2026-03-28T15:45:44Z</time></trkpt><trkpt lat="45.38111952112949" lon="11.628723283856255"><ele>14.0</ele><time>2026-03-28T15:45:45Z</time></trkpt><trkpt lat="45.38105283009286" lon="11.628952082484886"><ele>14.0</ele><time>2026-03-28T15:45:46Z</time></trkpt><trkpt lat="45.38100637803209" lon="11.629171799665864"><ele>14.0</ele><time>2026-03-28T15:45:47Z</time></trkpt><trkpt lat="45.38097070951117" lon="11.629427633031236"><ele>14.0</ele><time>2026-03-28T15:45:48Z</time></trkpt><trkpt lat="45.38095296385021" lon="11.629715479059138"><ele>14.0</ele><time>2026-03-28T15:45:49Z</time></trkpt><trkpt lat="45.38095782904533" lon="11.630020487738149"><ele>14.0</ele><time>2026-03-28T15:45:50Z</time></trkpt><trkpt lat="45.380972925504956" lon="11.630364711103182"><ele>14.0</ele><time>2026-03-28T15:45:51Z</time></trkpt><trkpt lat="45.38098482663003" lon="11.630743698427732"><ele>14.0</ele><time>2026-03-28T15:45:52Z</time></trkpt><trkpt lat="45.3809942217152" lon="11.631134105708501"><ele>13.666666666666668</ele><time>2026-03-28T15:45:53Z</time></trkpt><trkpt lat="45.38100385436196" lon="11.631458266466161"><ele>13.333333333333332</ele><time>2026-03-28T15:45:54Z</time></trkpt><trkpt lat="45.381011164743015" lon="11.631712369025173"><ele>13.0</ele><time>2026-03-28T15:45:55Z</time></trkpt><trkpt lat="45.38101609896586" lon="11.631938868952782"><ele>12.75</ele><time>2026-03-28T15:45:56Z</time></trkpt><trkpt lat="45.38102104983946" lon="11.632165757569986"><ele>12.5</ele><time>2026-03-28T15:45:57Z</time></trkpt><trkpt lat="45.381028879314684" lon="11.632369212177972"><ele>12.25</ele><time>2026-03-28T15:45:58Z</time></trkpt><trkpt lat="45.381032578472066" lon="11.632577567568875"><ele>12.0</ele><time>2026-03-28T15:45:59Z</time></trkpt><trkpt lat="45.38103762983517" lon="11.632776064128592"><ele>12.0</ele><time>2026-03-28T15:46:00Z</time></trkpt><trkpt lat="45.38104320345084" lon="11.632973227194185"><ele>12.0</ele><time>2026-03-28T15:46:01Z</time></trkpt><trkpt lat="45.3810494749778" lon="11.633169407985148"><ele>12.0</ele><time>2026-03-28T15:46:02Z</time></trkpt><trkpt lat="45.38105619820365" lon="11.63337302694668"><ele>12.0</ele><time>2026-03-28T15:46:03Z</time></trkpt><trkpt lat="45.38106240407458" lon="11.633578358827563"><ele>12.25</ele><time>2026-03-28T15:46:04Z</time></trkpt><trkpt lat="45.381067641324854" lon="11.633786291239183"><ele>12.5</ele><time>2026-03-28T15:46:05Z</time></trkpt><trkpt lat="45.38107181479868" lon="11.633982716019341"><ele>12.75</ele><time>2026-03-28T15:46:06Z</time></trkpt><trkpt lat="45.38107811946256" lon="11.634181195411216"><ele>13.0</ele><time>2026-03-28T15:46:07Z</time></trkpt><trkpt lat="45.38108267264689" lon="11.634375465279643"><ele>13.25</ele><time>2026-03-28T15:46:08Z</time></trkpt><trkpt lat="45.38108577770393" lon="11.634582680305241"><ele>13.5</ele><time>2026-03-28T15:46:09Z</time></trkpt><trkpt lat="45.38108764740086" lon="11.634786114171762"><ele>13.75</ele><time>2026-03-28T15:46:10Z</time></trkpt><trkpt lat="45.38109108030019" lon="11.634989187932288"><ele>14.0</ele><time>2026-03-28T15:46:11Z</time></trkpt><trkpt lat="45.38109969802205" lon="11.635204711541064"><ele>13.75</ele><time>2026-03-28T15:46:12Z</time></trkpt><trkpt lat="45.38112018122082" lon="11.63540663419645"><ele>13.5</ele><time>2026-03-28T15:46:13Z</time></trkpt><trkpt lat="45.38114653293204" lon="11.635615664595349"><ele>13.25</ele><time>2026-03-28T15:46:14Z</time></trkpt><trkpt lat="45.38117920495378" lon="11.635823121186908"><ele>13.0</ele><time>2026-03-28T15:46:15Z</time></trkpt><trkpt lat="45.38121068888318" lon="11.636032680090544"><ele>12.75</ele><time>2026-03-28T15:46:16Z</time></trkpt><trkpt lat="45.38124734708657" lon="11.636238711299942"><ele>12.5</ele><time>2026-03-28T15:46:17Z</time></trkpt><trkpt lat="45.381286618771504" lon="11.636439517888032"><ele>12.25</ele><time>2026-03-28T15:46:18Z</time></trkpt><trkpt lat="45.38132290031472" lon="11.636640078061225"><ele>12.0</ele><time>2026-03-28T15:46:19Z</time></trkpt><trkpt lat="45.381345793959255" lon="11.63684356950833"><ele>12.0</ele><time>2026-03-28T15:46:20Z</time></trkpt><trkpt lat="45.38135019305214" lon="11.637045482766663"><ele>12.0</ele><time>2026-03-28T15:46:21Z</time></trkpt><trkpt lat="45.381338270320555" lon="11.637246024985114"><ele>12.0</ele><time>2026-03-28T15:46:22Z</time></trkpt><trkpt lat="45.38131473931343" lon="11.637445011511947"><ele>12.0</ele><time>2026-03-28T15:46:23Z</time></trkpt><trkpt lat="45.38128646034858" lon="11.637645392029041"><ele>12.5</ele><time>2026-03-28T15:46:24Z</time></trkpt><trkpt lat="45.3812582995819" lon="11.637844985989638"><ele>13.0</ele><time>2026-03-28T15:46:25Z</time></trkpt><trkpt lat="45.38123890265426" lon="11.638042263469506"><ele>13.5</ele><time>2026-03-28T15:46:26Z</time></trkpt><trkpt lat="45.38121705712737" lon="11.63823938434747"><ele>14.0</ele><time>2026-03-28T15:46:27Z</time></trkpt><trkpt lat="45.38118616589159" lon="11.63843574342847"><ele>14.25</ele><time>2026-03-28T15:46:28Z</time></trkpt><trkpt lat="45.38115972970462" lon="11.638641655991526"><ele>14.5</ele><time>2026-03-28T15:46:29Z</time></trkpt><trkpt lat="45.381144518670915" lon="11.6388475682135"><ele>14.75</ele><time>2026-03-28T15:46:30Z</time></trkpt><trkpt lat="45.38112837773408" lon="11.6390615741768"><ele>15.0</ele><time>2026-03-28T15:46:31Z</time></trkpt><trkpt lat="45.38111143108099" lon="11.639272377093079"><ele>14.5</ele><time>2026-03-28T15:46:32Z</time></trkpt><trkpt lat="45.38110333135194" lon="11.639483471919378"><ele>14.0</ele><time>2026-03-28T15:46:33Z</time></trkpt><trkpt lat="45.38109896223441" lon="11.63969051285298"><ele>13.5</ele><time>2026-03-28T15:46:34Z</time></trkpt><trkpt lat="45.38109481496363" lon="11.639902560897195"><ele>13.0</ele><time>2026-03-28T15:46:35Z</time></trkpt><trkpt lat="45.38109981290136" lon="11.640107770616291"><ele>12.666666666666666</ele><time>2026-03-28T15:46:36Z</time></trkpt><trkpt lat="45.38110754983795" lon="11.640317799520956"><ele>12.333333333333332</ele><time>2026-03-28T15:46:37Z</time></trkpt><trkpt lat="45.3811140408881" lon="11.640537266032906"><ele>12.0</ele><time>2026-03-28T15:46:38Z</time></trkpt><trkpt lat="45.38111822178682" lon="11.640781344222551"><ele>12.0</ele><time>2026-03-28T15:46:39Z</time></trkpt><trkpt lat="45.38112628195905" lon="11.641030001019045"><ele>12.0</ele><time>2026-03-28T15:46:40Z</time></trkpt><trkpt lat="45.38113593368868" lon="11.641293982246406"><ele>12.0</ele><time>2026-03-28T15:46:41Z</time></trkpt><trkpt lat="45.38114250493139" lon="11.641569901472247"><ele>12.0</ele><time>2026-03-28T15:46:42Z</time></trkpt><trkpt lat="45.38115039733374" lon="11.641837262845055"><ele>12.0</ele><time>2026-03-28T15:46:43Z</time></trkpt><trkpt lat="45.38115755430936" lon="11.642104745569242"><ele>12.0</ele><time>2026-03-28T15:46:44Z</time></trkpt><trkpt lat="45.381162047359076" lon="11.642376836756457"><ele>12.333333333333332</ele><time>2026-03-28T15:46:45Z</time></trkpt><trkpt lat="45.381165796717994" lon="11.642645501756444"><ele>12.666666666666666</ele><time>2026-03-28T15:46:46Z</time></trkpt><trkpt lat="45.381173388086616" lon="11.64291127236395"><ele>13.0</ele><time>2026-03-28T15:46:47Z</time></trkpt><trkpt lat="45.381184363857784" lon="11.643173201056628"><ele>13.333333333333332</ele><time>2026-03-28T15:46:48Z</time></trkpt><trkpt lat="45.38119260690553" lon="11.643436822598643"><ele>13.666666666666668</ele><time>2026-03-28T15:46:49Z</time></trkpt><trkpt lat="45.38119823102781" lon="11.643710574292548"><ele>14.0</ele><time>2026-03-28T15:46:50Z</time></trkpt><trkpt lat="45.381203617128776" lon="11.643979185368838"><ele>14.0</ele><time>2026-03-28T15:46:51Z</time></trkpt><trkpt lat="45.381208715658694" lon="11.644245816981314"><ele>14.0</ele><time>2026-03-28T15:46:52Z</time></trkpt><trkpt lat="45.381212772176134" lon="11.644497606096575"><ele>14.0</ele><time>2026-03-28T15:46:53Z</time></trkpt><trkpt lat="45.38122262662437" lon="11.644740166751756"><ele>14.0</ele><time>2026-03-28T15:46:54Z</time></trkpt><trkpt lat="45.381232239762134" lon="11.644986552701367"><ele>14.0</ele><time>2026-03-28T15:46:55Z</time></trkpt><trkpt lat="45.38123631077272" lon="11.645243365028955"><ele>14.0</ele><time>2026-03-28T15:46:55.999Z</time></trkpt><trkpt lat="45.381240431292156" lon="11.645502455555237"><ele>14.0</ele><time>2026-03-28T15:46:56.999Z</time></trkpt><trkpt lat="45.3812437011741" lon="11.64575595736872"><ele>14.0</ele><time>2026-03-28T15:46:57.999Z</time></trkpt><trkpt lat="45.381249585598376" lon="11.646026254718844"><ele>14.0</ele><time>2026-03-28T15:46:58.999Z</time></trkpt><trkpt lat="45.381262318722435" lon="11.646284538561877"><ele>14.0</ele><time>2026-03-28T15:46:59.999Z</time></trkpt><trkpt lat="45.38128610716265" lon="11.646530531536067"><ele>14.0</ele><time>2026-03-28T15:47:00.999Z</time></trkpt><trkpt lat="45.38131347067376" lon="11.646769016232142"><ele>14.0</ele><time>2026-03-28T15:47:01.999Z</time></trkpt><trkpt lat="45.38134960022483" lon="11.64699640293076"><ele>14.0</ele><time>2026-03-28T15:47:02.999Z</time></trkpt><trkpt lat="45.38139635295282" lon="11.64721342651303"><ele>14.0</ele><time>2026-03-28T15:47:03.999Z</time></trkpt><trkpt lat="45.3814484106956" lon="11.647423482153801"><ele>14.0</ele><time>2026-03-28T15:47:04.999Z</time></trkpt><trkpt lat="45.38150433669953" lon="11.647599997828937"><ele>14.0</ele><time>2026-03-28T15:47:05.999Z</time></trkpt><trkpt lat="45.38155790312693" lon="11.647764486968043"><ele>13.999999999999998</ele><time>2026-03-28T15:47:06.999Z</time></trkpt><trkpt lat="45.38161437061404" lon="11.647901761696462"><ele>13.999999999999998</ele><time>2026-03-28T15:47:07.999Z</time></trkpt><trkpt lat="45.38166104889327" lon="11.648028397566561"><ele>14.0</ele><time>2026-03-28T15:47:08.999Z</time></trkpt><trkpt lat="45.38167269386251" lon="11.64814618021578"><ele>14.0</ele><time>2026-03-28T15:47:09.999Z</time></trkpt><trkpt lat="45.38165033547274" lon="11.648258129447612"><ele>14.0</ele><time>2026-03-28T15:47:10.999Z</time></trkpt><trkpt lat="45.381612641579615" lon="11.6483443224888"><ele>14.0</ele><time>2026-03-28T15:47:11.999Z</time></trkpt><trkpt lat="45.381600960214676" lon="11.64843631781979"><ele>14.0</ele><time>2026-03-28T15:47:12.999Z</time></trkpt><trkpt lat="45.381620773164016" lon="11.648534084113795"><ele>14.0</ele><time>2026-03-28T15:47:13.999Z</time></trkpt><trkpt lat="45.38166845339169" lon="11.648618328151459"><ele>14.0</ele><time>2026-03-28T15:47:14.999Z</time></trkpt><trkpt lat="45.381727378413295" lon="11.648667034179162"><ele>14.0</ele><time>2026-03-28T15:47:15.999Z</time></trkpt><trkpt lat="45.38179200510198" lon="11.64870724067364"><ele>14.0</ele><time>2026-03-28T15:47:16.999Z</time></trkpt><trkpt lat="45.38183262517577" lon="11.648814522956588"><ele>14.0</ele><time>2026-03-28T15:47:17.999Z</time></trkpt><trkpt lat="45.3818965457268" lon="11.648917840603259"><ele>13.999999999999998</ele><time>2026-03-28T15:47:18.999Z</time></trkpt><trkpt lat="45.381971452714964" lon="11.649017566681033"><ele>13.999999999999998</ele><time>2026-03-28T15:47:19.999Z</time></trkpt><trkpt lat="45.38205930291952" lon="11.649122377994528"><ele>14.0</ele><time>2026-03-28T15:47:20.999Z</time></trkpt><trkpt lat="45.38215868038759" lon="11.649236306760727"><ele>14.0</ele><time>2026-03-28T15:47:21.999Z</time></trkpt><trkpt lat="45.38226445757087" lon="11.649361109602182"><ele>14.333333333333334</ele><time>2026-03-28T15:47:22.999Z</time></trkpt><trkpt lat="45.38237680085097" lon="11.649501057290488"><ele>14.666666666666668</ele><time>2026-03-28T15:47:23.999Z</time></trkpt><trkpt lat="45.382496195513475" lon="11.649651005060676"><ele>15.0</ele><time>2026-03-28T15:47:24.999Z</time></trkpt><trkpt lat="45.38262336905652" lon="11.649810461597989"><ele>15.0</ele><time>2026-03-28T15:47:25.999Z</time></trkpt><trkpt lat="45.382751728802084" lon="11.649961064544641"><ele>15.0</ele><time>2026-03-28T15:47:26.999Z</time></trkpt><trkpt lat="45.382881561515816" lon="11.650108456002352"><ele>15.0</ele><time>2026-03-28T15:47:27.999Z</time></trkpt><trkpt lat="45.383022917780515" lon="11.650260574971018"><ele>15.333333333333332</ele><time>2026-03-28T15:47:28.999Z</time></trkpt><trkpt lat="45.383171042311325" lon="11.650421025194207"><ele>15.666666666666666</ele><time>2026-03-28T15:47:29.999Z</time></trkpt><trkpt lat="45.38331460133814" lon="11.65056885205628"><ele>16.0</ele><time>2026-03-28T15:47:30.999Z</time></trkpt><trkpt lat="45.383445842764814" lon="11.650702423388962"><ele>16.0</ele><time>2026-03-28T15:47:31.999Z</time></trkpt><trkpt lat="45.38356079810669" lon="11.650828345150337"><ele>16.0</ele><time>2026-03-28T15:47:32.999Z</time></trkpt><trkpt lat="45.383655221673756" lon="11.650955550787991"><ele>16.0</ele><time>2026-03-28T15:47:33.999Z</time></trkpt><trkpt lat="45.383730483204296" lon="11.65110577438111"><ele>16.0</ele><time>2026-03-28T15:47:34.999Z</time></trkpt><trkpt lat="45.38378074181264" lon="11.651264227204571"><ele>16.2</ele><time>2026-03-28T15:47:35.999Z</time></trkpt><trkpt lat="45.383809339819805" lon="11.651431479179918"><ele>16.400000000000002</ele><time>2026-03-28T15:47:36.999Z</time></trkpt><trkpt lat="45.383818560390836" lon="11.651575248061606"><ele>16.6</ele><time>2026-03-28T15:47:37.999Z</time></trkpt><trkpt lat="45.3838229971819" lon="11.651691967393257"><ele>16.8</ele><time>2026-03-28T15:47:38.999Z</time></trkpt><trkpt lat="45.3838207395893" lon="11.651790718369961"><ele>17.0</ele><time>2026-03-28T15:47:39.999Z</time></trkpt><trkpt lat="45.38383047906721" lon="11.651937976442008"><ele>16.833333333333336</ele><time>2026-03-28T15:47:41.999Z</time></trkpt><trkpt lat="45.38381891285929" lon="11.652083888414813"><ele>16.666666666666668</ele><time>2026-03-28T15:47:44Z</time></trkpt><trkpt lat="45.383797523667965" lon="11.652172992932124"><ele>16.5</ele><time>2026-03-28T15:47:45Z</time></trkpt><trkpt lat="45.38376478568265" lon="11.652255532586219"><ele>16.333333333333332</ele><time>2026-03-28T15:47:46Z</time></trkpt><trkpt lat="45.38370601391279" lon="11.652374014453128"><ele>16.166666666666664</ele><time>2026-03-28T15:47:48Z</time></trkpt><trkpt lat="45.38372784290173" lon="11.65249892512985"><ele>16.0</ele><time>2026-03-28T15:47:50Z</time></trkpt><trkpt lat="45.38381795673003" lon="11.652554833555598"><ele>16.400000000000002</ele><time>2026-03-28T15:47:52Z</time></trkpt><trkpt lat="45.383946233252324" lon="11.65254170799524"><ele>16.8</ele><time>2026-03-28T15:47:54Z</time></trkpt><trkpt lat="45.38401770336834" lon="11.652552957372622"><ele>17.200000000000003</ele><time>2026-03-28T15:47:55Z</time></trkpt><trkpt lat="45.38409795089363" lon="11.652595575241294"><ele>17.6</ele><time>2026-03-28T15:47:56Z</time></trkpt><trkpt lat="45.38417635901991" lon="11.652651917713367"><ele>18.0</ele><time>2026-03-28T15:47:57Z</time></trkpt><trkpt lat="45.38425158039565" lon="11.65270164806078"><ele>18.0</ele><time>2026-03-28T15:47:58Z</time></trkpt><trkpt lat="45.384323248247284" lon="11.652750482317948"><ele>18.0</ele><time>2026-03-28T15:47:59Z</time></trkpt><trkpt lat="45.384388077219874" lon="11.65279234395222"><ele>18.0</ele><time>2026-03-28T15:48:00Z</time></trkpt><trkpt lat="45.384462339903784" lon="11.652837708441847"><ele>18.0</ele><time>2026-03-28T15:48:01Z</time></trkpt><trkpt lat="45.38453673003367" lon="11.652874391783879"><ele>18.0</ele><time>2026-03-28T15:48:02Z</time></trkpt><trkpt lat="45.384613163522296" lon="11.652902954491116"><ele>18.0</ele><time>2026-03-28T15:48:03Z</time></trkpt><trkpt lat="45.38469314091118" lon="11.652918624167686"><ele>17.666666666666668</ele><time>2026-03-28T15:48:04Z</time></trkpt><trkpt lat="45.38476649389387" lon="11.652918011126951"><ele>17.333333333333332</ele><time>2026-03-28T15:48:05Z</time></trkpt><trkpt lat="45.38483263089467" lon="11.652914710178724"><ele>17.0</ele><time>2026-03-28T15:48:06Z</time></trkpt><trkpt lat="45.38490490578673" lon="11.652905979710708"><ele>16.666666666666664</ele><time>2026-03-28T15:48:07Z</time></trkpt><trkpt lat="45.384984138942784" lon="11.652892022790493"><ele>16.333333333333332</ele><time>2026-03-28T15:48:08Z</time></trkpt><trkpt lat="45.38506431793006" lon="11.652879589814146"><ele>16.0</ele><time>2026-03-28T15:48:09Z</time></trkpt><trkpt lat="45.38514418331816" lon="11.65286917285246"><ele>15.999999999999998</ele><time>2026-03-28T15:48:10Z</time></trkpt><trkpt lat="45.38522374828297" lon="11.652859663026677"><ele>16.0</ele><time>2026-03-28T15:48:11Z</time></trkpt><trkpt lat="45.38529272637636" lon="11.652839841259748"><ele>16.0</ele><time>2026-03-28T15:48:12Z</time></trkpt><trkpt lat="45.385358066313884" lon="11.652818020539717"><ele>16.0</ele><time>2026-03-28T15:48:13Z</time></trkpt><trkpt lat="45.38545490690386" lon="11.652779165748283"><ele>15.999999999999998</ele><time>2026-03-28T15:48:15Z</time></trkpt><trkpt lat="45.38556347868816" lon="11.652807289917693"><ele>16.0</ele><time>2026-03-28T15:48:17Z</time></trkpt><trkpt lat="45.38565450312703" lon="11.652779946697953"><ele>16.0</ele><time>2026-03-28T15:48:18Z</time></trkpt><trkpt lat="45.38576802678927" lon="11.65282351360866"><ele>16.0</ele><time>2026-03-28T15:48:19Z</time></trkpt><trkpt lat="45.38588549287324" lon="11.65288689785689"><ele>16.0</ele><time>2026-03-28T15:48:20Z</time></trkpt><trkpt lat="45.385999144676596" lon="11.652961127928318"><ele>16.0</ele><time>2026-03-28T15:48:21Z</time></trkpt><trkpt lat="45.386107200704494" lon="11.65304876929413"><ele>16.0</ele><time>2026-03-28T15:48:22Z</time></trkpt><trkpt lat="45.38621467747803" lon="11.653144484123747"><ele>16.0</ele><time>2026-03-28T15:48:23Z</time></trkpt><trkpt lat="45.38633440150989" lon="11.653255847999276"><ele>16.0</ele><time>2026-03-28T15:48:24Z</time></trkpt><trkpt lat="45.38646554963886" lon="11.65336627042572"><ele>16.0</ele><time>2026-03-28T15:48:25Z</time></trkpt><trkpt lat="45.3865943904999" lon="11.653471147858541"><ele>16.333333333333332</ele><time>2026-03-28T15:48:26Z</time></trkpt><trkpt lat="45.38672789224945" lon="11.653587284902697"><ele>16.666666666666668</ele><time>2026-03-28T15:48:27Z</time></trkpt><trkpt lat="45.386860385177705" lon="11.653696670411767"><ele>17.0</ele><time>2026-03-28T15:48:28Z</time></trkpt><trkpt lat="45.38699036987141" lon="11.653808408384737"><ele>17.0</ele><time>2026-03-28T15:48:29Z</time></trkpt><trkpt lat="45.38712377500618" lon="11.653933465116408"><ele>17.0</ele><time>2026-03-28T15:48:30Z</time></trkpt><trkpt lat="45.387252989895245" lon="11.654053504181526"><ele>17.0</ele><time>2026-03-28T15:48:31Z</time></trkpt><trkpt lat="45.387373759323985" lon="11.654165654278549"><ele>17.2</ele><time>2026-03-28T15:48:32Z</time></trkpt><trkpt lat="45.38748159612038" lon="11.654263811334854"><ele>17.4</ele><time>2026-03-28T15:48:33Z</time></trkpt><trkpt lat="45.38758400235841" lon="11.654352012971168"><ele>17.6</ele><time>2026-03-28T15:48:34Z</time></trkpt><trkpt lat="45.38766548163719" lon="11.654429163912319"><ele>17.8</ele><time>2026-03-28T15:48:35Z</time></trkpt><trkpt lat="45.3877338514666" lon="11.654506822097519"><ele>18.0</ele><time>2026-03-28T15:48:37Z</time></trkpt><trkpt lat="45.38783123185027" lon="11.654619029701948"><ele>17.75</ele><time>2026-03-28T15:48:42Z</time></trkpt><trkpt lat="45.38791038873558" lon="11.654680051986952"><ele>17.5</ele><time>2026-03-28T15:48:43Z</time></trkpt><trkpt lat="45.38800653478809" lon="11.654761653750816"><ele>17.25</ele><time>2026-03-28T15:48:44Z</time></trkpt><trkpt lat="45.38811381301082" lon="11.654870246477335"><ele>17.0</ele><time>2026-03-28T15:48:45Z</time></trkpt><trkpt lat="45.38821491989075" lon="11.654976656809543"><ele>17.0</ele><time>2026-03-28T15:48:46Z</time></trkpt><trkpt lat="45.38831830566055" lon="11.655083441749769"><ele>17.0</ele><time>2026-03-28T15:48:47Z</time></trkpt><trkpt lat="45.3884190492961" lon="11.655189410436652"><ele>17.0</ele><time>2026-03-28T15:48:48Z</time></trkpt><trkpt lat="45.388518868532834" lon="11.655293103130253"><ele>17.0</ele><time>2026-03-28T15:48:49Z</time></trkpt><trkpt lat="45.38861893349328" lon="11.65539985607805"><ele>16.6</ele><time>2026-03-28T15:48:50Z</time></trkpt><trkpt lat="45.38871456501361" lon="11.655503897618388"><ele>16.2</ele><time>2026-03-28T15:48:51Z</time></trkpt><trkpt lat="45.38880206036067" lon="11.655590547119099"><ele>15.8</ele><time>2026-03-28T15:48:52Z</time></trkpt><trkpt lat="45.388877278969495" lon="11.65567121801712"><ele>15.4</ele><time>2026-03-28T15:48:53Z</time></trkpt><trkpt lat="45.3889328177606" lon="11.655754650093165"><ele>15.0</ele><time>2026-03-28T15:48:54Z</time></trkpt><trkpt lat="45.3889677085159" lon="11.655858612496266"><ele>15.0</ele><time>2026-03-28T15:48:55Z</time></trkpt><trkpt lat="45.3889839497557" lon="11.655978673195552"><ele>15.0</ele><time>2026-03-28T15:48:56Z</time></trkpt><trkpt lat="45.389018069471604" lon="11.656090097396788"><ele>15.0</ele><time>2026-03-28T15:48:57Z</time></trkpt><trkpt lat="45.38907774398565" lon="11.656159180404176"><ele>15.0</ele><time>2026-03-28T15:48:57.999Z</time></trkpt><trkpt lat="45.38916785660107" lon="11.656195449686841"><ele>15.0</ele><time>2026-03-28T15:48:58.999Z</time></trkpt><trkpt lat="45.389271442393316" lon="11.656201513597297"><ele>15.0</ele><time>2026-03-28T15:48:59.999Z</time></trkpt><trkpt lat="45.38937407924698" lon="11.656170427558557"><ele>14.666666666666668</ele><time>2026-03-28T15:49:00.999Z</time></trkpt><trkpt lat="45.38948516597973" lon="11.656294758106748"><ele>14.333333333333334</ele><time>2026-03-28T15:49:01.999Z</time></trkpt><trkpt lat="45.38960457106936" lon="11.656434368554967"><ele>14.0</ele><time>2026-03-28T15:49:02.999Z</time></trkpt><trkpt lat="45.389752918389945" lon="11.656608853208132"><ele>14.0</ele><time>2026-03-28T15:49:03.999Z</time></trkpt><trkpt lat="45.389897180664434" lon="11.656771295734023"><ele>14.0</ele><time>2026-03-28T15:49:04.999Z</time></trkpt><trkpt lat="45.390052599807305" lon="11.656963413941625"><ele>14.0</ele><time>2026-03-28T15:49:05.999Z</time></trkpt><trkpt lat="45.390198834699625" lon="11.65717663150041"><ele>14.0</ele><time>2026-03-28T15:49:06.999Z</time></trkpt><trkpt lat="45.390335300881496" lon="11.65741674355527"><ele>14.0</ele><time>2026-03-28T15:49:07.999Z</time></trkpt><trkpt lat="45.39047902281699" lon="11.657707491432664"><ele>14.5</ele><time>2026-03-28T15:49:08.999Z</time></trkpt><trkpt lat="45.39062334664679" lon="11.658000990788983"><ele>15.0</ele><time>2026-03-28T15:49:09.999Z</time></trkpt><trkpt lat="45.39075376820504" lon="11.658259630708137"><ele>15.0</ele><time>2026-03-28T15:49:10.999Z</time></trkpt><trkpt lat="45.39087411165271" lon="11.658495322325306"><ele>15.0</ele><time>2026-03-28T15:49:11.999Z</time></trkpt><trkpt lat="45.39098515012431" lon="11.658713765947004"><ele>15.0</ele><time>2026-03-28T15:49:12.999Z</time></trkpt><trkpt lat="45.391085938567" lon="11.658923995889603"><ele>15.0</ele><time>2026-03-28T15:49:13.999Z</time></trkpt><trkpt lat="45.39118490777987" lon="11.65912033666458"><ele>15.0</ele><time>2026-03-28T15:49:14.999Z</time></trkpt><trkpt lat="45.39128753302446" lon="11.659328128251142"><ele>15.0</ele><time>2026-03-28T15:49:15.999Z</time></trkpt><trkpt lat="45.39139203353858" lon="11.659533523288015"><ele>15.0</ele><time>2026-03-28T15:49:16.999Z</time></trkpt><trkpt lat="45.39149616797818" lon="11.659724848240499"><ele>15.0</ele><time>2026-03-28T15:49:17.999Z</time></trkpt><trkpt lat="45.391600748732564" lon="11.659939293718542"><ele>15.0</ele><time>2026-03-28T15:49:18.999Z</time></trkpt><trkpt lat="45.39170425563788" lon="11.66015009276872"><ele>14.333333333333332</ele><time>2026-03-28T15:49:19.999Z</time></trkpt><trkpt lat="45.391806639086454" lon="11.660352425054635"><ele>13.666666666666666</ele><time>2026-03-28T15:49:20.999Z</time></trkpt><trkpt lat="45.3919157734904" lon="11.660574482465554"><ele>13.0</ele><time>2026-03-28T15:49:21.999Z</time></trkpt><trkpt lat="45.39202210815698" lon="11.660777989697943"><ele>13.0</ele><time>2026-03-28T15:49:22.999Z</time></trkpt><trkpt lat="45.39212893867991" lon="11.66099209441333"><ele>13.0</ele><time>2026-03-28T15:49:23.999Z</time></trkpt><trkpt lat="45.39223791926148" lon="11.66121607635818"><ele>13.0</ele><time>2026-03-28T15:49:24.999Z</time></trkpt><trkpt lat="45.392339117737244" lon="11.66141972206564"><ele>13.666666666666666</ele><time>2026-03-28T15:49:25.999Z</time></trkpt><trkpt lat="45.39244091263406" lon="11.66163985043457"><ele>14.333333333333332</ele><time>2026-03-28T15:49:26.999Z</time></trkpt><trkpt lat="45.39254057090126" lon="11.661855031190393"><ele>15.0</ele><time>2026-03-28T15:49:27.999Z</time></trkpt><trkpt lat="45.392636599424655" lon="11.66207711265436"><ele>15.5</ele><time>2026-03-28T15:49:28.999Z</time></trkpt><trkpt lat="45.39282482489051" lon="11.662512031806163"><ele>16.0</ele><time>2026-03-28T15:49:30.999Z</time></trkpt><trkpt lat="45.392922481071096" lon="11.662727820092748"><ele>16.666666666666664</ele><time>2026-03-28T15:49:31.999Z</time></trkpt><trkpt lat="45.39301438599183" lon="11.66295384060238"><ele>17.333333333333332</ele><time>2026-03-28T15:49:32.999Z</time></trkpt><trkpt lat="45.393115047389394" lon="11.663162950696183"><ele>18.0</ele><time>2026-03-28T15:49:33.999Z</time></trkpt><trkpt lat="45.39320873674315" lon="11.663385951027092"><ele>18.0</ele><time>2026-03-28T15:49:34.999Z</time></trkpt><trkpt lat="45.39330497928883" lon="11.66360565767174"><ele>18.0</ele><time>2026-03-28T15:49:35.999Z</time></trkpt><trkpt lat="45.39339789957006" lon="11.663826544559353"><ele>18.0</ele><time>2026-03-28T15:49:36.999Z</time></trkpt><trkpt lat="45.39349484891875" lon="11.664043323427856"><ele>18.333333333333332</ele><time>2026-03-28T15:49:37.999Z</time></trkpt><trkpt lat="45.39358181574553" lon="11.664268775947264"><ele>18.666666666666664</ele><time>2026-03-28T15:49:38.999Z</time></trkpt><trkpt lat="45.39366235801618" lon="11.664497607544593"><ele>19.0</ele><time>2026-03-28T15:49:39.999Z</time></trkpt><trkpt lat="45.39371978235373" lon="11.664745303729632"><ele>19.666666666666664</ele><time>2026-03-28T15:49:40.999Z</time></trkpt><trkpt lat="45.393761377030195" lon="11.66500254659937"><ele>20.333333333333332</ele><time>2026-03-28T15:49:41.999Z</time></trkpt><trkpt lat="45.393771476516385" lon="11.665263615063749"><ele>21.0</ele><time>2026-03-28T15:49:42.999Z</time></trkpt><trkpt lat="45.393774098053065" lon="11.66552059130364"><ele>21.0</ele><time>2026-03-28T15:49:43.999Z</time></trkpt><trkpt lat="45.39376458273722" lon="11.66577906279005"><ele>21.0</ele><time>2026-03-28T15:49:44.999Z</time></trkpt><trkpt lat="45.39376343399358" lon="11.666042262807713"><ele>21.0</ele><time>2026-03-28T15:49:45.999Z</time></trkpt><trkpt lat="45.393768327395115" lon="11.666297592337822"><ele>20.666666666666668</ele><time>2026-03-28T15:49:46.999Z</time></trkpt><trkpt lat="45.39378673105619" lon="11.666549479013867"><ele>20.333333333333336</ele><time>2026-03-28T15:49:47.999Z</time></trkpt><trkpt lat="45.393795525396115" lon="11.666806274190826"><ele>20.0</ele><time>2026-03-28T15:49:48.999Z</time></trkpt><trkpt lat="45.39381938064413" lon="11.667064461240198"><ele>19.666666666666668</ele><time>2026-03-28T15:49:50Z</time></trkpt><trkpt lat="45.39381741496133" lon="11.66732360726992"><ele>19.333333333333332</ele><time>2026-03-28T15:49:51Z</time></trkpt><trkpt lat="45.39382808524343" lon="11.667586926306555"><ele>19.0</ele><time>2026-03-28T15:49:52Z</time></trkpt><trkpt lat="45.39383217819983" lon="11.667843132818536"><ele>17.666666666666664</ele><time>2026-03-28T15:49:53Z</time></trkpt><trkpt lat="45.393848012937354" lon="11.668100084722397"><ele>16.333333333333332</ele><time>2026-03-28T15:49:54Z</time></trkpt><trkpt lat="45.39386063023199" lon="11.668354390852592"><ele>15.0</ele><time>2026-03-28T15:49:55Z</time></trkpt><trkpt lat="45.393878747068506" lon="11.668616075351354"><ele>15.0</ele><time>2026-03-28T15:49:56Z</time></trkpt><trkpt lat="45.393881534231525" lon="11.668872588123175"><ele>15.0</ele><time>2026-03-28T15:49:57Z</time></trkpt><trkpt lat="45.39389742442079" lon="11.669132322062069"><ele>15.0</ele><time>2026-03-28T15:49:58Z</time></trkpt><trkpt lat="45.39390357346995" lon="11.669381967272514"><ele>15.0</ele><time>2026-03-28T15:49:59Z</time></trkpt><trkpt lat="45.39392433116723" lon="11.669639875471493"><ele>15.0</ele><time>2026-03-28T15:50:00Z</time></trkpt><trkpt lat="45.3939344211986" lon="11.669895862822319"><ele>15.0</ele><time>2026-03-28T15:50:01Z</time></trkpt><trkpt lat="45.39395033765933" lon="11.670161857883123"><ele>15.0</ele><time>2026-03-28T15:50:02Z</time></trkpt><trkpt lat="45.393950272648446" lon="11.67041482554926"><ele>15.0</ele><time>2026-03-28T15:50:03Z</time></trkpt><trkpt lat="45.39395805266313" lon="11.670676324795824"><ele>15.0</ele><time>2026-03-28T15:50:04Z</time></trkpt><trkpt lat="45.393967558760586" lon="11.670923981306526"><ele>14.666666666666668</ele><time>2026-03-28T15:50:05Z</time></trkpt><trkpt lat="45.39398271710272" lon="11.671183901919859"><ele>14.333333333333334</ele><time>2026-03-28T15:50:06Z</time></trkpt><trkpt lat="45.393987645417695" lon="11.671440407793064"><ele>14.0</ele><time>2026-03-28T15:50:07Z</time></trkpt><trkpt lat="45.39398466687964" lon="11.671703834912732"><ele>14.333333333333334</ele><time>2026-03-28T15:50:08Z</time></trkpt><trkpt lat="45.393966433830386" lon="11.671958059522494"><ele>14.666666666666668</ele><time>2026-03-28T15:50:09Z</time></trkpt><trkpt lat="45.39393975574889" lon="11.672217392321624"><ele>15.0</ele><time>2026-03-28T15:50:10Z</time></trkpt><trkpt lat="45.39390127102038" lon="11.672464767426847"><ele>15.0</ele><time>2026-03-28T15:50:11Z</time></trkpt><trkpt lat="45.39385573978474" lon="11.672719244796069"><ele>15.0</ele><time>2026-03-28T15:50:12Z</time></trkpt><trkpt lat="45.39381255552911" lon="11.67296241127743"><ele>15.0</ele><time>2026-03-28T15:50:13Z</time></trkpt><trkpt lat="45.393774816904866" lon="11.673224753831443"><ele>16.0</ele><time>2026-03-28T15:50:14Z</time></trkpt><trkpt lat="45.39374010512559" lon="11.673470781896949"><ele>17.0</ele><time>2026-03-28T15:50:15Z</time></trkpt><trkpt lat="45.39369752497837" lon="11.673721217784264"><ele>18.0</ele><time>2026-03-28T15:50:16Z</time></trkpt><trkpt lat="45.39365410691725" lon="11.673965074693701"><ele>18.0</ele><time>2026-03-28T15:50:17Z</time></trkpt><trkpt lat="45.393616821194115" lon="11.674223341217521"><ele>18.0</ele><time>2026-03-28T15:50:18Z</time></trkpt><trkpt lat="45.39357286919744" lon="11.67447674048495"><ele>18.0</ele><time>2026-03-28T15:50:19Z</time></trkpt><trkpt lat="45.39353889153206" lon="11.67473443363824"><ele>18.333333333333332</ele><time>2026-03-28T15:50:20Z</time></trkpt><trkpt lat="45.39349965310728" lon="11.674978252032982"><ele>18.666666666666664</ele><time>2026-03-28T15:50:21Z</time></trkpt><trkpt lat="45.39346166935144" lon="11.675234956872691"><ele>19.0</ele><time>2026-03-28T15:50:22Z</time></trkpt><trkpt lat="45.393425271132394" lon="11.675458782147473"><ele>18.5</ele><time>2026-03-28T15:50:23Z</time></trkpt><trkpt lat="45.39339440230503" lon="11.675652866789246"><ele>18.0</ele><time>2026-03-28T15:50:24Z</time></trkpt><trkpt lat="45.393368481912354" lon="11.67584900142539"><ele>17.5</ele><time>2026-03-28T15:50:25Z</time></trkpt><trkpt lat="45.39336747701236" lon="11.676034949121266"><ele>17.0</ele><time>2026-03-28T15:50:26Z</time></trkpt><trkpt lat="45.39339015842223" lon="11.676228993001398"><ele>17.0</ele><time>2026-03-28T15:50:27Z</time></trkpt><trkpt lat="45.39342894219895" lon="11.676421108556454"><ele>17.0</ele><time>2026-03-28T15:50:28Z</time></trkpt><trkpt lat="45.39348595157282" lon="11.676595384240876"><ele>17.0</ele><time>2026-03-28T15:50:29Z</time></trkpt><trkpt lat="45.39356481091103" lon="11.676779857762494"><ele>17.0</ele><time>2026-03-28T15:50:30Z</time></trkpt><trkpt lat="45.393657508177256" lon="11.676974999511833"><ele>17.0</ele><time>2026-03-28T15:50:31Z</time></trkpt><trkpt lat="45.39375711297816" lon="11.677188152057765"><ele>17.0</ele><time>2026-03-28T15:50:32Z</time></trkpt><trkpt lat="45.39386851476434" lon="11.677404736923346"><ele>17.0</ele><time>2026-03-28T15:50:33Z</time></trkpt><trkpt lat="45.393983652101895" lon="11.677616573086027"><ele>16.666666666666668</ele><time>2026-03-28T15:50:34Z</time></trkpt><trkpt lat="45.394100076140326" lon="11.677836659441505"><ele>16.333333333333332</ele><time>2026-03-28T15:50:35Z</time></trkpt><trkpt lat="45.39422479012556" lon="11.678071671469427"><ele>16.0</ele><time>2026-03-28T15:50:36Z</time></trkpt><trkpt lat="45.394355453069224" lon="11.67831722454282"><ele>16.0</ele><time>2026-03-28T15:50:37Z</time></trkpt><trkpt lat="45.39449429390987" lon="11.678573018703116"><ele>16.0</ele><time>2026-03-28T15:50:38Z</time></trkpt><trkpt lat="45.39462499824298" lon="11.678816597580154"><ele>16.0</ele><time>2026-03-28T15:50:39Z</time></trkpt><trkpt lat="45.39474494422908" lon="11.67904766960212"><ele>16.333333333333332</ele><time>2026-03-28T15:50:40Z</time></trkpt><trkpt lat="45.39485715819969" lon="11.679262257582478"><ele>16.666666666666668</ele><time>2026-03-28T15:50:41Z</time></trkpt><trkpt lat="45.394976166682746" lon="11.679491218157361"><ele>17.0</ele><time>2026-03-28T15:50:42Z</time></trkpt><trkpt lat="45.3950972136668" lon="11.679715390961436"><ele>16.0</ele><time>2026-03-28T15:50:43Z</time></trkpt><trkpt lat="45.395219128956654" lon="11.679951710592476"><ele>15.0</ele><time>2026-03-28T15:50:44Z</time></trkpt><trkpt lat="45.39533954079158" lon="11.680188618767716"><ele>14.0</ele><time>2026-03-28T15:50:45Z</time></trkpt><trkpt lat="45.395455826389814" lon="11.68040600264195"><ele>14.333333333333334</ele><time>2026-03-28T15:50:46Z</time></trkpt><trkpt lat="45.3955622994252" lon="11.680607430378323"><ele>14.666666666666668</ele><time>2026-03-28T15:50:47Z</time></trkpt><trkpt lat="45.39566461658245" lon="11.680811129721617"><ele>15.0</ele><time>2026-03-28T15:50:48Z</time></trkpt><trkpt lat="45.395769176260245" lon="11.68100595944827"><ele>15.0</ele><time>2026-03-28T15:50:49Z</time></trkpt><trkpt lat="45.39587478304072" lon="11.681210901556021"><ele>15.0</ele><time>2026-03-28T15:50:50Z</time></trkpt><trkpt lat="45.3959849675612" lon="11.681397017536277"><ele>15.0</ele><time>2026-03-28T15:50:51Z</time></trkpt><trkpt lat="45.39609648683992" lon="11.68160113522832"><ele>15.0</ele><time>2026-03-28T15:50:52Z</time></trkpt><trkpt lat="45.39620082174371" lon="11.681795238714528"><ele>15.0</ele><time>2026-03-28T15:50:53Z</time></trkpt><trkpt lat="45.39630862343749" lon="11.682004371416639"><ele>15.0</ele><time>2026-03-28T15:50:54Z</time></trkpt><trkpt lat="45.39642088179179" lon="11.682214144897848"><ele>14.666666666666668</ele><time>2026-03-28T15:50:55Z</time></trkpt><trkpt lat="45.39652875572618" lon="11.682402734000819"><ele>14.333333333333334</ele><time>2026-03-28T15:50:56Z</time></trkpt><trkpt lat="45.3966357673527" lon="11.682608533169502"><ele>14.0</ele><time>2026-03-28T15:50:57Z</time></trkpt><trkpt lat="45.396746321980615" lon="11.682810796547654"><ele>14.0</ele><time>2026-03-28T15:50:58Z</time></trkpt><trkpt lat="45.39686101672748" lon="11.683000688173626"><ele>14.0</ele><time>2026-03-28T15:50:59Z</time></trkpt><trkpt lat="45.39696691830493" lon="11.68320920616378"><ele>14.0</ele><time>2026-03-28T15:51:00Z</time></trkpt><trkpt lat="45.397076611123566" lon="11.683415675245767"><ele>14.0</ele><time>2026-03-28T15:51:01Z</time></trkpt><trkpt lat="45.39718284943147" lon="11.683600246835883"><ele>14.0</ele><time>2026-03-28T15:51:02Z</time></trkpt><trkpt lat="45.397280515964944" lon="11.683791751750022"><ele>14.0</ele><time>2026-03-28T15:51:03Z</time></trkpt><trkpt lat="45.39738396686814" lon="11.683981162797837"><ele>14.0</ele><time>2026-03-28T15:51:04Z</time></trkpt><trkpt lat="45.397486078676586" lon="11.684172367940343"><ele>14.0</ele><time>2026-03-28T15:51:05Z</time></trkpt><trkpt lat="45.39758976771242" lon="11.684368582596539"><ele>14.0</ele><time>2026-03-28T15:51:06Z</time></trkpt><trkpt lat="45.397695853421084" lon="11.684563829603992"><ele>14.0</ele><time>2026-03-28T15:51:06.999Z</time></trkpt><trkpt lat="45.397797290332434" lon="11.684757538515246"><ele>14.0</ele><time>2026-03-28T15:51:07.999Z</time></trkpt><trkpt lat="45.39790112515672" lon="11.68495935659073"><ele>14.0</ele><time>2026-03-28T15:51:08.999Z</time></trkpt><trkpt lat="45.39800671440452" lon="11.685153240587903"><ele>14.333333333333334</ele><time>2026-03-28T15:51:09.999Z</time></trkpt><trkpt lat="45.39810914477298" lon="11.685358565994422"><ele>14.666666666666668</ele><time>2026-03-28T15:51:10.999Z</time></trkpt><trkpt lat="45.398215264307574" lon="11.685552399434306"><ele>15.0</ele><time>2026-03-28T15:51:11.999Z</time></trkpt><trkpt lat="45.39832310594313" lon="11.685753059243195"><ele>15.0</ele><time>2026-03-28T15:51:12.999Z</time></trkpt><trkpt lat="45.398426597467804" lon="11.68594949560995"><ele>15.0</ele><time>2026-03-28T15:51:13.999Z</time></trkpt><trkpt lat="45.39853018531927" lon="11.686151863838521"><ele>15.0</ele><time>2026-03-28T15:51:14.999Z</time></trkpt><trkpt lat="45.39863520431179" lon="11.686351052394796"><ele>14.666666666666668</ele><time>2026-03-28T15:51:15.999Z</time></trkpt><trkpt lat="45.39873954481602" lon="11.686546018950574"><ele>14.333333333333334</ele><time>2026-03-28T15:51:16.999Z</time></trkpt><trkpt lat="45.398851792513796" lon="11.686762301105531"><ele>14.0</ele><time>2026-03-28T15:51:17.999Z</time></trkpt><trkpt lat="45.39898662978204" lon="11.686990561051774"><ele>13.5</ele><time>2026-03-28T15:51:18.999Z</time></trkpt><trkpt lat="45.39913667712858" lon="11.687248835236389"><ele>13.0</ele><time>2026-03-28T15:51:19.999Z</time></trkpt><trkpt lat="45.39928962578276" lon="11.687537325805227"><ele>13.5</ele><time>2026-03-28T15:51:20.999Z</time></trkpt><trkpt lat="45.39944028475649" lon="11.687843302830485"><ele>14.0</ele><time>2026-03-28T15:51:21.999Z</time></trkpt><trkpt lat="45.3995752937019" lon="11.688123912632678"><ele>14.666666666666668</ele><time>2026-03-28T15:51:22.999Z</time></trkpt><trkpt lat="45.399707618102056" lon="11.688378947357885"><ele>15.333333333333332</ele><time>2026-03-28T15:51:23.999Z</time></trkpt><trkpt lat="45.39984442215538" lon="11.688629969854453"><ele>16.0</ele><time>2026-03-28T15:51:24.999Z</time></trkpt><trkpt lat="45.39997943121533" lon="11.688876275072355"><ele>16.333333333333332</ele><time>2026-03-28T15:51:25.999Z</time></trkpt><trkpt lat="45.400107249228085" lon="11.689113588683826"><ele>16.666666666666668</ele><time>2026-03-28T15:51:26.999Z</time></trkpt><trkpt lat="45.400233612596445" lon="11.689348283328606"><ele>17.0</ele><time>2026-03-28T15:51:27.999Z</time></trkpt><trkpt lat="45.4003545686752" lon="11.689583384276862"><ele>16.666666666666668</ele><time>2026-03-28T15:51:28.999Z</time></trkpt><trkpt lat="45.400481099182294" lon="11.68981869667823"><ele>16.333333333333332</ele><time>2026-03-28T15:51:29.999Z</time></trkpt><trkpt lat="45.40060642421883" lon="11.690049306636832"><ele>16.0</ele><time>2026-03-28T15:51:30.999Z</time></trkpt><trkpt lat="45.40073040480271" lon="11.69028021981897"><ele>15.666666666666666</ele><time>2026-03-28T15:51:31.999Z</time></trkpt><trkpt lat="45.400857530037335" lon="11.690516592388997"><ele>15.333333333333332</ele><time>2026-03-28T15:51:32.999Z</time></trkpt><trkpt lat="45.4009842113179" lon="11.69075026798048"><ele>15.0</ele><time>2026-03-28T15:51:33.999Z</time></trkpt><trkpt lat="45.40110784871382" lon="11.690975744886167"><ele>15.0</ele><time>2026-03-28T15:51:34.999Z</time></trkpt><trkpt lat="45.40122804880509" lon="11.69120018734808"><ele>15.0</ele><time>2026-03-28T15:51:35.999Z</time></trkpt><trkpt lat="45.40134004332027" lon="11.69141521035479"><ele>15.0</ele><time>2026-03-28T15:51:36.999Z</time></trkpt><trkpt lat="45.40143901298264" lon="11.691607243342833"><ele>15.0</ele><time>2026-03-28T15:51:37.999Z</time></trkpt><trkpt lat="45.401537230893396" lon="11.691790859825929"><ele>15.0</ele><time>2026-03-28T15:51:38.999Z</time></trkpt><trkpt lat="45.401626360649104" lon="11.691947650719456"><ele>15.0</ele><time>2026-03-28T15:51:39.999Z</time></trkpt><trkpt lat="45.40170956016166" lon="11.6920930435565"><ele>15.0</ele><time>2026-03-28T15:51:40.999Z</time></trkpt><trkpt lat="45.401786411101604" lon="11.692204929945007"><ele>15.6</ele><time>2026-03-28T15:51:41.999Z</time></trkpt><trkpt lat="45.40185745870901" lon="11.692279925959856"><ele>16.2</ele><time>2026-03-28T15:51:42.999Z</time></trkpt><trkpt lat="45.40191503299187" lon="11.6923330575558"><ele>16.8</ele><time>2026-03-28T15:51:43.999Z</time></trkpt><trkpt lat="45.40198675427244" lon="11.692414199630065"><ele>17.4</ele><time>2026-03-28T15:51:45.999Z</time></trkpt><trkpt lat="45.40203234796214" lon="11.69252488397852"><ele>18.0</ele><time>2026-03-28T15:51:47.999Z</time></trkpt><trkpt lat="45.40207576043227" lon="11.692702006145733"><ele>18.2</ele><time>2026-03-28T15:51:49.999Z</time></trkpt><trkpt lat="45.40207303353691" lon="11.692803174497751"><ele>18.4</ele><time>2026-03-28T15:51:50.999Z</time></trkpt><trkpt lat="45.402042715005145" lon="11.692899868770422"><ele>18.599999999999998</ele><time>2026-03-28T15:51:51.999Z</time></trkpt><trkpt lat="45.401984448030156" lon="11.693003892066164"><ele>18.8</ele><time>2026-03-28T15:51:52.999Z</time></trkpt><trkpt lat="45.401948501257486" lon="11.693137624664654"><ele>19.0</ele><time>2026-03-28T15:51:53.999Z</time></trkpt><trkpt lat="45.4018222796985" lon="11.693202413827274"><ele>19.0</ele><time>2026-03-28T15:51:54.999Z</time></trkpt><trkpt lat="45.40173614964907" lon="11.693294747475704"><ele>19.0</ele><time>2026-03-28T15:51:56Z</time></trkpt><trkpt lat="45.40164595331124" lon="11.693391028383115"><ele>19.0</ele><time>2026-03-28T15:51:57Z</time></trkpt><trkpt lat="45.40156084373104" lon="11.693493438557681"><ele>19.0</ele><time>2026-03-28T15:51:58Z</time></trkpt><trkpt lat="45.40147378441556" lon="11.693600770500815"><ele>19.0</ele><time>2026-03-28T15:51:59Z</time></trkpt><trkpt lat="45.4013803254082" lon="11.693717395153055"><ele>18.0</ele><time>2026-03-28T15:52:00Z</time></trkpt><trkpt lat="45.40125977048789" lon="11.693852274203135"><ele>17.0</ele><time>2026-03-28T15:52:01Z</time></trkpt><trkpt lat="45.40113252334751" lon="11.693999074530534"><ele>16.0</ele><time>2026-03-28T15:52:02Z</time></trkpt><trkpt lat="45.40098314793406" lon="11.694169878386639"><ele>16.0</ele><time>2026-03-28T15:52:03Z</time></trkpt><trkpt lat="45.40080344751719" lon="11.694348099275414"><ele>16.0</ele><time>2026-03-28T15:52:04Z</time></trkpt><trkpt lat="45.4006280551468" lon="11.694510793572334"><ele>16.0</ele><time>2026-03-28T15:52:05Z</time></trkpt><trkpt lat="45.40046635210408" lon="11.694649931358072"><ele>16.333333333333332</ele><time>2026-03-28T15:52:06Z</time></trkpt><trkpt lat="45.40030286549414" lon="11.694780720536063"><ele>16.666666666666668</ele><time>2026-03-28T15:52:07Z</time></trkpt><trkpt lat="45.40014378388977" lon="11.694911873108719"><ele>17.0</ele><time>2026-03-28T15:52:08Z</time></trkpt><trkpt lat="45.39998016727287" lon="11.695036381253209"><ele>17.0</ele><time>2026-03-28T15:52:09Z</time></trkpt><trkpt lat="45.39982834963107" lon="11.695158282965355"><ele>17.0</ele><time>2026-03-28T15:52:10Z</time></trkpt><trkpt lat="45.39966986308645" lon="11.695276628390348"><ele>17.0</ele><time>2026-03-28T15:52:11Z</time></trkpt><trkpt lat="45.39950544566085" lon="11.695401604421814"><ele>16.666666666666668</ele><time>2026-03-28T15:52:12Z</time></trkpt><trkpt lat="45.399357816189365" lon="11.69552481500452"><ele>16.333333333333332</ele><time>2026-03-28T15:52:13Z</time></trkpt><trkpt lat="45.39919850557693" lon="11.695650639037307"><ele>16.0</ele><time>2026-03-28T15:52:14Z</time></trkpt><trkpt lat="45.39903471643291" lon="11.695774969984257"><ele>16.0</ele><time>2026-03-28T15:52:15Z</time></trkpt><trkpt lat="45.398877253520624" lon="11.695899098078357"><ele>16.0</ele><time>2026-03-28T15:52:16Z</time></trkpt><trkpt lat="45.39871193603845" lon="11.696017844226269"><ele>16.0</ele><time>2026-03-28T15:52:17Z</time></trkpt><trkpt lat="45.39855005388584" lon="11.696130973892295"><ele>16.333333333333332</ele><time>2026-03-28T15:52:18Z</time></trkpt><trkpt lat="45.398387665977836" lon="11.69624087535038"><ele>16.666666666666668</ele><time>2026-03-28T15:52:19Z</time></trkpt><trkpt lat="45.39821950777359" lon="11.696343353157177"><ele>17.0</ele><time>2026-03-28T15:52:20Z</time></trkpt><trkpt lat="45.398062001375806" lon="11.696444152593093"><ele>17.0</ele><time>2026-03-28T15:52:21Z</time></trkpt><trkpt lat="45.39792168183195" lon="11.696535037631453"><ele>17.0</ele><time>2026-03-28T15:52:22Z</time></trkpt><trkpt lat="45.39778829206543" lon="11.696615719567163"><ele>17.0</ele><time>2026-03-28T15:52:23Z</time></trkpt><trkpt lat="45.397667857359664" lon="11.696692539966323"><ele>17.0</ele><time>2026-03-28T15:52:24Z</time></trkpt><trkpt lat="45.397549440363754" lon="11.696770788423946"><ele>17.0</ele><time>2026-03-28T15:52:25Z</time></trkpt><trkpt lat="45.39743587475471" lon="11.696849885542047"><ele>17.0</ele><time>2026-03-28T15:52:26Z</time></trkpt><trkpt lat="45.397334592660705" lon="11.696927780827794"><ele>17.0</ele><time>2026-03-28T15:52:27Z</time></trkpt><trkpt lat="45.397244444665446" lon="11.696993406373656"><ele>17.0</ele><time>2026-03-28T15:52:28Z</time></trkpt><trkpt lat="45.39715754455406" lon="11.697045417155099"><ele>17.0</ele><time>2026-03-28T15:52:29Z</time></trkpt><trkpt lat="45.397063555777976" lon="11.69707600401108"><ele>16.6</ele><time>2026-03-28T15:52:30Z</time></trkpt><trkpt lat="45.396958319423184" lon="11.69708930283644"><ele>16.2</ele><time>2026-03-28T15:52:31Z</time></trkpt><trkpt lat="45.39686695025388" lon="11.697101786629302"><ele>15.8</ele><time>2026-03-28T15:52:32Z</time></trkpt><trkpt lat="45.3967919044813" lon="11.69717460008134"><ele>15.4</ele><time>2026-03-28T15:52:33Z</time></trkpt><trkpt lat="45.39672455815346" lon="11.697293988991383"><ele>15.0</ele><time>2026-03-28T15:52:34Z</time></trkpt><trkpt lat="45.3966548512505" lon="11.69739368442035"><ele>15.0</ele><time>2026-03-28T15:52:35Z</time></trkpt><trkpt lat="45.396689551683586" lon="11.697560135216166"><ele>15.0</ele><time>2026-03-28T15:52:36Z</time></trkpt><trkpt lat="45.39673367412022" lon="11.697680689212081"><ele>15.0</ele><time>2026-03-28T15:52:37Z</time></trkpt><trkpt lat="45.39681613510499" lon="11.697806884007866"><ele>15.0</ele><time>2026-03-28T15:52:38Z</time></trkpt><trkpt lat="45.396922489045544" lon="11.697934815956327"><ele>15.0</ele><time>2026-03-28T15:52:39Z</time></trkpt><trkpt lat="45.39701658253595" lon="11.698095007156418"><ele>15.0</ele><time>2026-03-28T15:52:40Z</time></trkpt><trkpt lat="45.39712554471681" lon="11.698257373827895"><ele>15.0</ele><time>2026-03-28T15:52:41Z</time></trkpt><trkpt lat="45.397108167198965" lon="11.698544569024408"><ele>15.333333333333332</ele><time>2026-03-28T15:52:42Z</time></trkpt><trkpt lat="45.39714301151946" lon="11.698795158568199"><ele>15.666666666666666</ele><time>2026-03-28T15:52:43Z</time></trkpt><trkpt lat="45.397156490064944" lon="11.699043486412267"><ele>16.0</ele><time>2026-03-28T15:52:44Z</time></trkpt><trkpt lat="45.39717646053056" lon="11.699302154647217"><ele>15.666666666666666</ele><time>2026-03-28T15:52:45Z</time></trkpt><trkpt lat="45.397206527220206" lon="11.69958501758134"><ele>15.333333333333332</ele><time>2026-03-28T15:52:46Z</time></trkpt><trkpt lat="45.397243076209215" lon="11.699880507638973"><ele>15.0</ele><time>2026-03-28T15:52:47Z</time></trkpt><trkpt lat="45.397275735361404" lon="11.700175018105112"><ele>14.666666666666668</ele><time>2026-03-28T15:52:48Z</time></trkpt><trkpt lat="45.397303588629825" lon="11.700451028623986"><ele>14.333333333333334</ele><time>2026-03-28T15:52:49Z</time></trkpt><trkpt lat="45.397319044527094" lon="11.70071393194806"><ele>14.0</ele><time>2026-03-28T15:52:50Z</time></trkpt><trkpt lat="45.39731349503129" lon="11.700968078612547"><ele>14.333333333333334</ele><time>2026-03-28T15:52:51Z</time></trkpt><trkpt lat="45.397297690400485" lon="11.701203152936817"><ele>14.666666666666668</ele><time>2026-03-28T15:52:52Z</time></trkpt><trkpt lat="45.39727178788272" lon="11.701440699974937"><ele>15.0</ele><time>2026-03-28T15:52:53Z</time></trkpt><trkpt lat="45.397248917958564" lon="11.701702660220912"><ele>14.666666666666668</ele><time>2026-03-28T15:52:54Z</time></trkpt><trkpt lat="45.39722723448752" lon="11.701960112521471"><ele>14.333333333333334</ele><time>2026-03-28T15:52:55Z</time></trkpt><trkpt lat="45.3971982968117" lon="11.702207097235172"><ele>14.0</ele><time>2026-03-28T15:52:56Z</time></trkpt><trkpt lat="45.39715008687811" lon="11.70244967629363"><ele>14.0</ele><time>2026-03-28T15:52:57Z</time></trkpt><trkpt lat="45.39708209514665" lon="11.702658717209534"><ele>14.0</ele><time>2026-03-28T15:52:58Z</time></trkpt><trkpt lat="45.39699526620996" lon="11.7028395083493"><ele>14.0</ele><time>2026-03-28T15:52:59Z</time></trkpt><trkpt lat="45.396884702425474" lon="11.703006142024625"><ele>14.0</ele><time>2026-03-28T15:53:00Z</time></trkpt><trkpt lat="45.39675176808833" lon="11.703147127804815"><ele>14.0</ele><time>2026-03-28T15:53:01Z</time></trkpt><trkpt lat="45.39660435409631" lon="11.703260989012346"><ele>14.0</ele><time>2026-03-28T15:53:02Z</time></trkpt><trkpt lat="45.3964492945645" lon="11.703369663296066"><ele>14.0</ele><time>2026-03-28T15:53:03Z</time></trkpt><trkpt lat="45.396290149616426" lon="11.703477899439314"><ele>14.0</ele><time>2026-03-28T15:53:04Z</time></trkpt><trkpt lat="45.39613168480922" lon="11.703579351687187"><ele>14.0</ele><time>2026-03-28T15:53:05Z</time></trkpt><trkpt lat="45.39595946028245" lon="11.70367829078809"><ele>14.0</ele><time>2026-03-28T15:53:06Z</time></trkpt><trkpt lat="45.39578609476168" lon="11.703767925536935"><ele>14.0</ele><time>2026-03-28T15:53:07Z</time></trkpt><trkpt lat="45.39560747222478" lon="11.703848040649111"><ele>14.0</ele><time>2026-03-28T15:53:08Z</time></trkpt><trkpt lat="45.39543373530332" lon="11.703916725861383"><ele>14.0</ele><time>2026-03-28T15:53:09Z</time></trkpt><trkpt lat="45.39525030174273" lon="11.703981565800287"><ele>14.0</ele><time>2026-03-28T15:53:10Z</time></trkpt><trkpt lat="45.395075518271994" lon="11.704036001755192"><ele>14.0</ele><time>2026-03-28T15:53:11Z</time></trkpt><trkpt lat="45.39489431908079" lon="11.704078581888979"><ele>14.0</ele><time>2026-03-28T15:53:12Z</time></trkpt><trkpt lat="45.3947099912859" lon="11.704105194814526"><ele>14.0</ele><time>2026-03-28T15:53:13Z</time></trkpt><trkpt lat="45.3945292192152" lon="11.704107460651255"><ele>14.0</ele><time>2026-03-28T15:53:14Z</time></trkpt><trkpt lat="45.39434421248241" lon="11.704099415319865"><ele>14.0</ele><time>2026-03-28T15:53:14.999Z</time></trkpt><trkpt lat="45.394161150448454" lon="11.704094824142121"><ele>14.0</ele><time>2026-03-28T15:53:15.999Z</time></trkpt><trkpt lat="45.393963550949564" lon="11.704084863763411"><ele>14.0</ele><time>2026-03-28T15:53:16.999Z</time></trkpt><trkpt lat="45.39376023722786" lon="11.704068162968587"><ele>14.0</ele><time>2026-03-28T15:53:17.999Z</time></trkpt><trkpt lat="45.393565379793195" lon="11.704052916856817"><ele>14.0</ele><time>2026-03-28T15:53:18.999Z</time></trkpt><trkpt lat="45.39338138548624" lon="11.704044139308097"><ele>14.0</ele><time>2026-03-28T15:53:19.999Z</time></trkpt><trkpt lat="45.39320153473497" lon="11.704058776136717"><ele>14.0</ele><time>2026-03-28T15:53:20.999Z</time></trkpt><trkpt lat="45.39301881172025" lon="11.704099269404532"><ele>14.0</ele><time>2026-03-28T15:53:21.999Z</time></trkpt><trkpt lat="45.392843951186784" lon="11.704173447833941"><ele>14.0</ele><time>2026-03-28T15:53:22.999Z</time></trkpt><trkpt lat="45.39264809432974" lon="11.704268960310369"><ele>14.0</ele><time>2026-03-28T15:53:23.999Z</time></trkpt><trkpt lat="45.39243969091734" lon="11.70438596457611"><ele>14.0</ele><time>2026-03-28T15:53:24.999Z</time></trkpt><trkpt lat="45.392234961786606" lon="11.70456506244838"><ele>14.5</ele><time>2026-03-28T15:53:25.999Z</time></trkpt><trkpt lat="45.392009593246314" lon="11.70471252324031"><ele>15.0</ele><time>2026-03-28T15:53:26.999Z</time></trkpt><trkpt lat="45.39179495006707" lon="11.704890236080507"><ele>15.0</ele><time>2026-03-28T15:53:27.999Z</time></trkpt><trkpt lat="45.39160901565012" lon="11.705071614550958"><ele>15.0</ele><time>2026-03-28T15:53:28.999Z</time></trkpt><trkpt lat="45.39142927004358" lon="11.70521082586399"><ele>15.0</ele><time>2026-03-28T15:53:29.999Z</time></trkpt><trkpt lat="45.391244373883225" lon="11.705320045345713"><ele>14.333333333333332</ele><time>2026-03-28T15:53:30.999Z</time></trkpt><trkpt lat="45.391060251557654" lon="11.705390578589713"><ele>13.666666666666666</ele><time>2026-03-28T15:53:31.999Z</time></trkpt><trkpt lat="45.39087803253537" lon="11.705433699036735"><ele>13.0</ele><time>2026-03-28T15:53:32.999Z</time></trkpt><trkpt lat="45.390704859880394" lon="11.705499912449662"><ele>13.0</ele><time>2026-03-28T15:53:33.999Z</time></trkpt><trkpt lat="45.39054324031048" lon="11.705610005976146"><ele>13.0</ele><time>2026-03-28T15:53:34.999Z</time></trkpt><trkpt lat="45.39040109388776" lon="11.705746955903178"><ele>13.0</ele><time>2026-03-28T15:53:35.999Z</time></trkpt><trkpt lat="45.390279769404025" lon="11.705923493222594"><ele>13.333333333333332</ele><time>2026-03-28T15:53:36.999Z</time></trkpt><trkpt lat="45.39015066652624" lon="11.706154628604164"><ele>13.666666666666668</ele><time>2026-03-28T15:53:37.999Z</time></trkpt><trkpt lat="45.390015146521385" lon="11.70642810391393"><ele>14.0</ele><time>2026-03-28T15:53:38.999Z</time></trkpt><trkpt lat="45.389875253870194" lon="11.70670122328198"><ele>14.0</ele><time>2026-03-28T15:53:39.999Z</time></trkpt><trkpt lat="45.38976210214234" lon="11.706926992788299"><ele>14.0</ele><time>2026-03-28T15:53:40.999Z</time></trkpt><trkpt lat="45.389652752615085" lon="11.70714821795165"><ele>14.0</ele><time>2026-03-28T15:53:41.999Z</time></trkpt><trkpt lat="45.389543933047776" lon="11.707384645556518"><ele>14.0</ele><time>2026-03-28T15:53:42.999Z</time></trkpt><trkpt lat="45.38944647258798" lon="11.707638980193769"><ele>14.0</ele><time>2026-03-28T15:53:43.999Z</time></trkpt><trkpt lat="45.38935651751459" lon="11.707904093549939"><ele>14.0</ele><time>2026-03-28T15:53:44.999Z</time></trkpt><trkpt lat="45.38926870007526" lon="11.708167585991186"><ele>14.0</ele><time>2026-03-28T15:53:45.999Z</time></trkpt><trkpt lat="45.38919537662105" lon="11.708437137521413"><ele>14.0</ele><time>2026-03-28T15:53:46.999Z</time></trkpt><trkpt lat="45.38912872283477" lon="11.70872065420789"><ele>14.0</ele><time>2026-03-28T15:53:47.999Z</time></trkpt><trkpt lat="45.38907499940447" lon="11.709002855446036"><ele>14.0</ele><time>2026-03-28T15:53:48.999Z</time></trkpt><trkpt lat="45.38902238266307" lon="11.709294559447963"><ele>14.0</ele><time>2026-03-28T15:53:49.999Z</time></trkpt><trkpt lat="45.38897825810251" lon="11.709583987594819"><ele>14.0</ele><time>2026-03-28T15:53:50.999Z</time></trkpt><trkpt lat="45.38894839589745" lon="11.709855752769244"><ele>14.0</ele><time>2026-03-28T15:53:51.999Z</time></trkpt><trkpt lat="45.388923097992034" lon="11.710124738435514"><ele>14.0</ele><time>2026-03-28T15:53:52.999Z</time></trkpt><trkpt lat="45.388903862291336" lon="11.710382162303514"><ele>14.0</ele><time>2026-03-28T15:53:53.999Z</time></trkpt><trkpt lat="45.38889005814774" lon="11.710626084707883"><ele>14.0</ele><time>2026-03-28T15:53:54.999Z</time></trkpt><trkpt lat="45.38888660465226" lon="11.710856536901861"><ele>14.0</ele><time>2026-03-28T15:53:55.999Z</time></trkpt><trkpt lat="45.38888825490272" lon="11.71106916717054"><ele>14.0</ele><time>2026-03-28T15:53:56.999Z</time></trkpt><trkpt lat="45.38887714416386" lon="11.711251051407983"><ele>14.0</ele><time>2026-03-28T15:53:57.999Z</time></trkpt><trkpt lat="45.38884676200561" lon="11.711424817618417"><ele>14.5</ele><time>2026-03-28T15:53:58.999Z</time></trkpt><trkpt lat="45.388795016222915" lon="11.711574515969026"><ele>15.0</ele><time>2026-03-28T15:53:59.999Z</time></trkpt><trkpt lat="45.38873089780792" lon="11.71170880683236"><ele>15.5</ele><time>2026-03-28T15:54:00.999Z</time></trkpt><trkpt lat="45.38867629667989" lon="11.711839569545393"><ele>16.0</ele><time>2026-03-28T15:54:02Z</time></trkpt><trkpt lat="45.38865258542753" lon="11.711996123678682"><ele>16.0</ele><time>2026-03-28T15:54:03Z</time></trkpt><trkpt lat="45.388669171008836" lon="11.712164329116575"><ele>16.0</ele><time>2026-03-28T15:54:04Z</time></trkpt><trkpt lat="45.38873791060013" lon="11.712331066927678"><ele>16.0</ele><time>2026-03-28T15:54:05Z</time></trkpt><trkpt lat="45.388744838386" lon="11.71254736815307"><ele>16.0</ele><time>2026-03-28T15:54:06Z</time></trkpt><trkpt lat="45.38879350272431" lon="11.71275653586635"><ele>15.333333333333332</ele><time>2026-03-28T15:54:07Z</time></trkpt><trkpt lat="45.388701529185724" lon="11.712970292974454"><ele>14.666666666666668</ele><time>2026-03-28T15:54:08Z</time></trkpt><trkpt lat="45.388630783956174" lon="11.713170202102521"><ele>14.0</ele><time>2026-03-28T15:54:09Z</time></trkpt><trkpt lat="45.38853540266672" lon="11.713386933763962"><ele>14.0</ele><time>2026-03-28T15:54:10Z</time></trkpt><trkpt lat="45.388397168964765" lon="11.713610093905146"><ele>14.0</ele><time>2026-03-28T15:54:11Z</time></trkpt><trkpt lat="45.38823639206811" lon="11.71384106273972"><ele>14.0</ele><time>2026-03-28T15:54:12Z</time></trkpt><trkpt lat="45.38805026641043" lon="11.714068985513132"><ele>14.0</ele><time>2026-03-28T15:54:13Z</time></trkpt><trkpt lat="45.38783913338013" lon="11.714296172809323"><ele>14.0</ele><time>2026-03-28T15:54:14Z</time></trkpt><trkpt lat="45.387605884648835" lon="11.714535456987825"><ele>14.0</ele><time>2026-03-28T15:54:15Z</time></trkpt><trkpt lat="45.38740055367842" lon="11.714752645991272"><ele>14.0</ele><time>2026-03-28T15:54:16Z</time></trkpt><trkpt lat="45.38721521230339" lon="11.714951257888757"><ele>14.0</ele><time>2026-03-28T15:54:17Z</time></trkpt><trkpt lat="45.38704480322324" lon="11.715133593239308"><ele>14.0</ele><time>2026-03-28T15:54:18Z</time></trkpt><trkpt lat="45.38689387850342" lon="11.715297391035456"><ele>14.0</ele><time>2026-03-28T15:54:19Z</time></trkpt><trkpt lat="45.38673812181322" lon="11.71544034761479"><ele>14.0</ele><time>2026-03-28T15:54:20Z</time></trkpt><trkpt lat="45.38657669268309" lon="11.715540576975195"><ele>14.0</ele><time>2026-03-28T15:54:21Z</time></trkpt><trkpt lat="45.38642488356751" lon="11.715647923119814"><ele>14.0</ele><time>2026-03-28T15:54:22Z</time></trkpt><trkpt lat="45.38626907929099" lon="11.715761600863479"><ele>13.666666666666668</ele><time>2026-03-28T15:54:23Z</time></trkpt><trkpt lat="45.38609931779421" lon="11.715841630036529"><ele>13.333333333333332</ele><time>2026-03-28T15:54:24Z</time></trkpt><trkpt lat="45.38591828890866" lon="11.715899207923753"><ele>13.0</ele><time>2026-03-28T15:54:25Z</time></trkpt><trkpt lat="45.38572161478577" lon="11.715979049103847"><ele>13.0</ele><time>2026-03-28T15:54:26Z</time></trkpt><trkpt lat="45.385505561735854" lon="11.716064174733933"><ele>13.0</ele><time>2026-03-28T15:54:27Z</time></trkpt><trkpt lat="45.38527864991847" lon="11.716159870868289"><ele>13.0</ele><time>2026-03-28T15:54:28Z</time></trkpt><trkpt lat="45.3850791557765" lon="11.716269313388763"><ele>13.0</ele><time>2026-03-28T15:54:29Z</time></trkpt><trkpt lat="45.38490249012678" lon="11.716393931861006"><ele>13.0</ele><time>2026-03-28T15:54:30Z</time></trkpt><trkpt lat="45.384732255425995" lon="11.716532502941874"><ele>13.0</ele><time>2026-03-28T15:54:31Z</time></trkpt><trkpt lat="45.384562520556344" lon="11.716698290992904"><ele>13.0</ele><time>2026-03-28T15:54:32Z</time></trkpt><trkpt lat="45.38438817161489" lon="11.716903449804324"><ele>13.0</ele><time>2026-03-28T15:54:33Z</time></trkpt><trkpt lat="45.38422287591723" lon="11.717126485341113"><ele>13.0</ele><time>2026-03-28T15:54:34Z</time></trkpt><trkpt lat="45.38406577354404" lon="11.717370678606946"><ele>13.0</ele><time>2026-03-28T15:54:35Z</time></trkpt><trkpt lat="45.38392004638774" lon="11.717614287060771"><ele>13.0</ele><time>2026-03-28T15:54:36Z</time></trkpt><trkpt lat="45.3838232572276" lon="11.717823173922223"><ele>13.0</ele><time>2026-03-28T15:54:37Z</time></trkpt><trkpt lat="45.38376014779699" lon="11.718020852569328"><ele>13.0</ele><time>2026-03-28T15:54:38Z</time></trkpt><trkpt lat="45.38372289023182" lon="11.718227103678773"><ele>13.0</ele><time>2026-03-28T15:54:39Z</time></trkpt><trkpt lat="45.38370556252375" lon="11.718447870557526"><ele>13.0</ele><time>2026-03-28T15:54:40Z</time></trkpt><trkpt lat="45.383703398379225" lon="11.718666592618415"><ele>13.0</ele><time>2026-03-28T15:54:41Z</time></trkpt><trkpt lat="45.38372105884053" lon="11.718862349216472"><ele>13.0</ele><time>2026-03-28T15:54:42Z</time></trkpt><trkpt lat="45.38374331300497" lon="11.719035079511507"><ele>13.25</ele><time>2026-03-28T15:54:43Z</time></trkpt><trkpt lat="45.383734841553064" lon="11.719203575437305"><ele>13.5</ele><time>2026-03-28T15:54:44Z</time></trkpt><trkpt lat="45.38368553956461" lon="11.71936639730463"><ele>13.75</ele><time>2026-03-28T15:54:45Z</time></trkpt><trkpt lat="45.383617123465704" lon="11.7195111958713"><ele>14.0</ele><time>2026-03-28T15:54:46Z</time></trkpt><trkpt lat="45.38357080084231" lon="11.719644155152341"><ele>13.5</ele><time>2026-03-28T15:54:47Z</time></trkpt><trkpt lat="45.38357280156126" lon="11.719787429828143"><ele>13.0</ele><time>2026-03-28T15:54:48Z</time></trkpt><trkpt lat="45.38361718127261" lon="11.719927457730915"><ele>12.5</ele><time>2026-03-28T15:54:49Z</time></trkpt><trkpt lat="45.38370279833476" lon="11.720043433244376"><ele>12.0</ele><time>2026-03-28T15:54:50Z</time></trkpt><trkpt lat="45.38382058182251" lon="11.72012486745253"><ele>13.0</ele><time>2026-03-28T15:54:51Z</time></trkpt><trkpt lat="45.38389868943149" lon="11.72029176816065"><ele>14.0</ele><time>2026-03-28T15:54:52Z</time></trkpt><trkpt lat="45.38399786273597" lon="11.72042036079065"><ele>15.0</ele><time>2026-03-28T15:54:53Z</time></trkpt><trkpt lat="45.384004665516116" lon="11.720706116437198"><ele>15.0</ele><time>2026-03-28T15:54:54Z</time></trkpt><trkpt lat="45.38404876910875" lon="11.720970131216331"><ele>15.0</ele><time>2026-03-28T15:54:55Z</time></trkpt><trkpt lat="45.38408695552452" lon="11.721256796675558"><ele>15.0</ele><time>2026-03-28T15:54:56Z</time></trkpt><trkpt lat="45.3841137372509" lon="11.721556383065801"><ele>15.0</ele><time>2026-03-28T15:54:57Z</time></trkpt><trkpt lat="45.384125933898154" lon="11.721850805786916"><ele>15.0</ele><time>2026-03-28T15:54:58Z</time></trkpt><trkpt lat="45.384126364177064" lon="11.722175173505352"><ele>15.0</ele><time>2026-03-28T15:54:59Z</time></trkpt><trkpt lat="45.38411941805009" lon="11.72250663904421"><ele>14.5</ele><time>2026-03-28T15:55:00Z</time></trkpt><trkpt lat="45.38411745606273" lon="11.722821345923732"><ele>14.0</ele><time>2026-03-28T15:55:01Z</time></trkpt><trkpt lat="45.38412151008159" lon="11.723147794646133"><ele>14.0</ele><time>2026-03-28T15:55:02Z</time></trkpt><trkpt lat="45.38412420716433" lon="11.723459443463575"><ele>14.0</ele><time>2026-03-28T15:55:03Z</time></trkpt><trkpt lat="45.3841275958514" lon="11.72377736885669"><ele>14.0</ele><time>2026-03-28T15:55:04Z</time></trkpt><trkpt lat="45.38412554499319" lon="11.724106965995395"><ele>13.5</ele><time>2026-03-28T15:55:05Z</time></trkpt><trkpt lat="45.384124099714285" lon="11.724439146363052"><ele>13.0</ele><time>2026-03-28T15:55:06Z</time></trkpt><trkpt lat="45.38412387058433" lon="11.724760387156465"><ele>13.0</ele><time>2026-03-28T15:55:07Z</time></trkpt><trkpt lat="45.384124518420045" lon="11.725084985543484"><ele>13.0</ele><time>2026-03-28T15:55:08Z</time></trkpt><trkpt lat="45.38412522766792" lon="11.725414935301242"><ele>13.5</ele><time>2026-03-28T15:55:09Z</time></trkpt><trkpt lat="45.384124940951686" lon="11.725743806341749"><ele>14.0</ele><time>2026-03-28T15:55:10Z</time></trkpt><trkpt lat="45.3841189928848" lon="11.726075892002783"><ele>14.5</ele><time>2026-03-28T15:55:11Z</time></trkpt><trkpt lat="45.38411235770394" lon="11.726406273510982"><ele>15.0</ele><time>2026-03-28T15:55:12Z</time></trkpt><trkpt lat="45.38410356600949" lon="11.726738759530104"><ele>15.0</ele><time>2026-03-28T15:55:13Z</time></trkpt><trkpt lat="45.38409245224655" lon="11.727061142288896"><ele>15.0</ele><time>2026-03-28T15:55:14Z</time></trkpt><trkpt lat="45.384078650680785" lon="11.727355767127696"><ele>15.0</ele><time>2026-03-28T15:55:15Z</time></trkpt><trkpt lat="45.38405485960613" lon="11.727641171473927"><ele>15.0</ele><time>2026-03-28T15:55:16Z</time></trkpt><trkpt lat="45.38400369167757" lon="11.727920298408142"><ele>15.0</ele><time>2026-03-28T15:55:17Z</time></trkpt><trkpt lat="45.38391953860104" lon="11.728184903735931"><ele>15.0</ele><time>2026-03-28T15:55:18Z</time></trkpt><trkpt lat="45.38381000381762" lon="11.728433975661561"><ele>14.333333333333332</ele><time>2026-03-28T15:55:19Z</time></trkpt><trkpt lat="45.38368261592953" lon="11.728664249789524"><ele>13.666666666666666</ele><time>2026-03-28T15:55:20Z</time></trkpt><trkpt lat="45.38353367096938" lon="11.728876350813369"><ele>13.0</ele><time>2026-03-28T15:55:21Z</time></trkpt><trkpt lat="45.383369700991814" lon="11.729054025529736"><ele>13.0</ele><time>2026-03-28T15:55:22Z</time></trkpt><trkpt lat="45.38318793808929" lon="11.729198589131483"><ele>13.0</ele><time>2026-03-28T15:55:23Z</time></trkpt><trkpt lat="45.38299279770578" lon="11.729308916480495"><ele>13.0</ele><time>2026-03-28T15:55:24Z</time></trkpt><trkpt lat="45.382781010148285" lon="11.729390057023277"><ele>12.5</ele><time>2026-03-28T15:55:25Z</time></trkpt><trkpt lat="45.382538279342086" lon="11.72942254503345"><ele>12.0</ele><time>2026-03-28T15:55:26Z</time></trkpt><trkpt lat="45.38226939904589" lon="11.729502062520327"><ele>12.5</ele><time>2026-03-28T15:55:27Z</time></trkpt><trkpt lat="45.38197928227639" lon="11.729551617977966"><ele>13.0</ele><time>2026-03-28T15:55:28Z</time></trkpt><trkpt lat="45.38166949832697" lon="11.729617123078981"><ele>13.0</ele><time>2026-03-28T15:55:29Z</time></trkpt><trkpt lat="45.38133696940147" lon="11.729693716961084"><ele>13.0</ele><time>2026-03-28T15:55:30Z</time></trkpt><trkpt lat="45.38101715395175" lon="11.72975949725344"><ele>13.0</ele><time>2026-03-28T15:55:30.999Z</time></trkpt><trkpt lat="45.3807356136195" lon="11.729810871780929"><ele>13.0</ele><time>2026-03-28T15:55:31.999Z</time></trkpt><trkpt lat="45.380475154903884" lon="11.72985956460637"><ele>12.5</ele><time>2026-03-28T15:55:32.999Z</time></trkpt><trkpt lat="45.38023798062868" lon="11.729912546711528"><ele>12.0</ele><time>2026-03-28T15:55:33.999Z</time></trkpt><trkpt lat="45.38000937812202" lon="11.729956007607038"><ele>12.0</ele><time>2026-03-28T15:55:34.999Z</time></trkpt><trkpt lat="45.379794090836405" lon="11.729998328669815"><ele>12.0</ele><time>2026-03-28T15:55:35.999Z</time></trkpt><trkpt lat="45.37959487561184" lon="11.730054734061566"><ele>12.0</ele><time>2026-03-28T15:55:36.999Z</time></trkpt><trkpt lat="45.37940462878019" lon="11.73014223509125"><ele>12.333333333333332</ele><time>2026-03-28T15:55:37.999Z</time></trkpt><trkpt lat="45.379215670050314" lon="11.730261013845446"><ele>12.666666666666666</ele><time>2026-03-28T15:55:38.999Z</time></trkpt><trkpt lat="45.3790403401075" lon="11.730405917082837"><ele>13.0</ele><time>2026-03-28T15:55:39.999Z</time></trkpt><trkpt lat="45.37887300486805" lon="11.73056771199348"><ele>12.666666666666666</ele><time>2026-03-28T15:55:40.999Z</time></trkpt><trkpt lat="45.37868830736459" lon="11.730686189563267"><ele>12.333333333333332</ele><time>2026-03-28T15:55:41.999Z</time></trkpt><trkpt lat="45.37851468119652" lon="11.730826832526123"><ele>12.0</ele><time>2026-03-28T15:55:42.999Z</time></trkpt><trkpt lat="45.37836976224799" lon="11.731065135249867"><ele>12.0</ele><time>2026-03-28T15:55:43.999Z</time></trkpt><trkpt lat="45.37819784999077" lon="11.731224288567493"><ele>12.0</ele><time>2026-03-28T15:55:44.999Z</time></trkpt><trkpt lat="45.37802501568346" lon="11.731374251499243"><ele>12.0</ele><time>2026-03-28T15:55:45.999Z</time></trkpt><trkpt lat="45.37784101833113" lon="11.73150985671374"><ele>12.0</ele><time>2026-03-28T15:55:46.999Z</time></trkpt><trkpt lat="45.37765618528783" lon="11.731625124149664"><ele>12.0</ele><time>2026-03-28T15:55:47.999Z</time></trkpt><trkpt lat="45.37746037551361" lon="11.731718617660642"><ele>12.0</ele><time>2026-03-28T15:55:48.999Z</time></trkpt><trkpt lat="45.37726575261265" lon="11.731802577158682"><ele>12.0</ele><time>2026-03-28T15:55:49.999Z</time></trkpt><trkpt lat="45.37707171697411" lon="11.731885955377658"><ele>12.0</ele><time>2026-03-28T15:55:50.999Z</time></trkpt><trkpt lat="45.37687065201026" lon="11.73197149246437"><ele>12.0</ele><time>2026-03-28T15:55:51.999Z</time></trkpt><trkpt lat="45.376678055611855" lon="11.732069163406871"><ele>12.0</ele><time>2026-03-28T15:55:52.999Z</time></trkpt><trkpt lat="45.376482896784346" lon="11.732168786513451"><ele>12.0</ele><time>2026-03-28T15:55:53.999Z</time></trkpt><trkpt lat="45.376283509804665" lon="11.732263368860886"><ele>12.0</ele><time>2026-03-28T15:55:54.999Z</time></trkpt><trkpt lat="45.37608808154152" lon="11.732355507818243"><ele>12.0</ele><time>2026-03-28T15:55:55.999Z</time></trkpt><trkpt lat="45.375890453945075" lon="11.7324433739523"><ele>12.0</ele><time>2026-03-28T15:55:56.999Z</time></trkpt><trkpt lat="45.3756913468161" lon="11.732528901859007"><ele>12.0</ele><time>2026-03-28T15:55:57.999Z</time></trkpt><trkpt lat="45.37549391827073" lon="11.732610070533891"><ele>12.0</ele><time>2026-03-28T15:55:58.999Z</time></trkpt><trkpt lat="45.375295411604576" lon="11.732677968902594"><ele>12.0</ele><time>2026-03-28T15:55:59.999Z</time></trkpt><trkpt lat="45.37508689716656" lon="11.732733717013415"><ele>12.0</ele><time>2026-03-28T15:56:00.999Z</time></trkpt><trkpt lat="45.37488904186921" lon="11.732785739764719"><ele>12.666666666666668</ele><time>2026-03-28T15:56:01.999Z</time></trkpt><trkpt lat="45.37468734698175" lon="11.732827561919574"><ele>13.333333333333334</ele><time>2026-03-28T15:56:02.999Z</time></trkpt><trkpt lat="45.3744843636532" lon="11.732867883118752"><ele>14.0</ele><time>2026-03-28T15:56:03.999Z</time></trkpt><trkpt lat="45.37428401044843" lon="11.732910965786658"><ele>14.0</ele><time>2026-03-28T15:56:04.999Z</time></trkpt><trkpt lat="45.374084785467915" lon="11.7329545339104"><ele>14.0</ele><time>2026-03-28T15:56:05.999Z</time></trkpt><trkpt lat="45.37390567201517" lon="11.732991051210261"><ele>14.0</ele><time>2026-03-28T15:56:06.999Z</time></trkpt><trkpt lat="45.37372666778111" lon="11.73301895782723"><ele>14.0</ele><time>2026-03-28T15:56:08Z</time></trkpt><trkpt lat="45.3735648759959" lon="11.73304224302015"><ele>14.0</ele><time>2026-03-28T15:56:09Z</time></trkpt><trkpt lat="45.37340948697783" lon="11.733034018886976"><ele>14.0</ele><time>2026-03-28T15:56:10Z</time></trkpt><trkpt lat="45.37326283395095" lon="11.732958392442624"><ele>14.0</ele><time>2026-03-28T15:56:11Z</time></trkpt><trkpt lat="45.37308928728175" lon="11.732876142735908"><ele>14.0</ele><time>2026-03-28T15:56:12Z</time></trkpt><trkpt lat="45.37293857198379" lon="11.732725388238327"><ele>14.0</ele><time>2026-03-28T15:56:13Z</time></trkpt><trkpt lat="45.372799490688074" lon="11.732566188341593"><ele>14.0</ele><time>2026-03-28T15:56:14Z</time></trkpt><trkpt lat="45.37267732461469" lon="11.732438761617841"><ele>14.0</ele><time>2026-03-28T15:56:15Z</time></trkpt><trkpt lat="45.37255948662754" lon="11.73234369806199"><ele>14.0</ele><time>2026-03-28T15:56:16Z</time></trkpt><trkpt lat="45.37243716207551" lon="11.732265437879605"><ele>14.0</ele><time>2026-03-28T15:56:17Z</time></trkpt><trkpt lat="45.372330092938064" lon="11.732223335011335"><ele>14.0</ele><time>2026-03-28T15:56:18Z</time></trkpt><trkpt lat="45.37223334943582" lon="11.732186211120782"><ele>13.999999999999998</ele><time>2026-03-28T15:56:19Z</time></trkpt><trkpt lat="45.37214933299805" lon="11.732121891031044"><ele>13.999999999999998</ele><time>2026-03-28T15:56:20Z</time></trkpt><trkpt lat="45.3720705226466" lon="11.732045841074681"><ele>14.0</ele><time>2026-03-28T15:56:21Z</time></trkpt><trkpt lat="45.37199088528308" lon="11.732004893663166"><ele>14.0</ele><time>2026-03-28T15:56:22Z</time></trkpt><trkpt lat="45.371844209714226" lon="11.732045900627726"><ele>14.0</ele><time>2026-03-28T15:56:24Z</time></trkpt><trkpt lat="45.37178861611788" lon="11.732147399191252"><ele>13.999999999999998</ele><time>2026-03-28T15:56:25Z</time></trkpt><trkpt lat="45.37178366094941" lon="11.732287435830727"><ele>13.999999999999998</ele><time>2026-03-28T15:56:26Z</time></trkpt><trkpt lat="45.37178458804484" lon="11.732436948978533"><ele>14.0</ele><time>2026-03-28T15:56:27Z</time></trkpt><trkpt lat="45.37178450424353" lon="11.732579788579102"><ele>14.0</ele><time>2026-03-28T15:56:28Z</time></trkpt><trkpt lat="45.371773091428054" lon="11.732713672632766"><ele>14.2</ele><time>2026-03-28T15:56:29Z</time></trkpt><trkpt lat="45.37176860618669" lon="11.732842750344208"><ele>14.399999999999999</ele><time>2026-03-28T15:56:30Z</time></trkpt><trkpt lat="45.37177240843187" lon="11.732967034161774"><ele>14.6</ele><time>2026-03-28T15:56:31Z</time></trkpt><trkpt lat="45.37177456596387" lon="11.733093517688985"><ele>14.8</ele><time>2026-03-28T15:56:32Z</time></trkpt><trkpt lat="45.37177828027181" lon="11.733226211338492"><ele>15.0</ele><time>2026-03-28T15:56:33Z</time></trkpt><trkpt lat="45.371781826384215" lon="11.733384241369698"><ele>14.5</ele><time>2026-03-28T15:56:34Z</time></trkpt><trkpt lat="45.371790462593914" lon="11.733565930427384"><ele>14.0</ele><time>2026-03-28T15:56:35Z</time></trkpt><trkpt lat="45.37180502759558" lon="11.733751137539846"><ele>13.5</ele><time>2026-03-28T15:56:36Z</time></trkpt><trkpt lat="45.371815394721835" lon="11.733944151656582"><ele>13.0</ele><time>2026-03-28T15:56:37Z</time></trkpt><trkpt lat="45.3718235395595" lon="11.734161817344157"><ele>13.0</ele><time>2026-03-28T15:56:38Z</time></trkpt><trkpt lat="45.37183528875086" lon="11.734378935215364"><ele>13.0</ele><time>2026-03-28T15:56:39Z</time></trkpt><trkpt lat="45.37184375558526" lon="11.73458677638129"><ele>13.0</ele><time>2026-03-28T15:56:40Z</time></trkpt><trkpt lat="45.37185362044207" lon="11.734779952975432"><ele>13.0</ele><time>2026-03-28T15:56:41Z</time></trkpt><trkpt lat="45.37186339237354" lon="11.7349767499941"><ele>13.0</ele><time>2026-03-28T15:56:42Z</time></trkpt><trkpt lat="45.371874942088496" lon="11.735176049070082"><ele>13.0</ele><time>2026-03-28T15:56:43Z</time></trkpt><trkpt lat="45.37188548597048" lon="11.735374355778626"><ele>13.0</ele><time>2026-03-28T15:56:44Z</time></trkpt><trkpt lat="45.371896182934094" lon="11.73557558248784"><ele>13.0</ele><time>2026-03-28T15:56:45Z</time></trkpt><trkpt lat="45.37190755463294" lon="11.735777124045727"><ele>13.0</ele><time>2026-03-28T15:56:46Z</time></trkpt><trkpt lat="45.37191746448368" lon="11.735983443154671"><ele>13.0</ele><time>2026-03-28T15:56:47Z</time></trkpt><trkpt lat="45.37192751462961" lon="11.736186464199825"><ele>13.0</ele><time>2026-03-28T15:56:48Z</time></trkpt><trkpt lat="45.371937401624535" lon="11.736384755821991"><ele>13.0</ele><time>2026-03-28T15:56:49Z</time></trkpt><trkpt lat="45.371946023999016" lon="11.736587774006297"><ele>13.0</ele><time>2026-03-28T15:56:50Z</time></trkpt><trkpt lat="45.37195324866407" lon="11.736789956055572"><ele>13.0</ele><time>2026-03-28T15:56:51Z</time></trkpt><trkpt lat="45.37196049115218" lon="11.736992606618939"><ele>13.0</ele><time>2026-03-28T15:56:52Z</time></trkpt><trkpt lat="45.37196988137398" lon="11.737190710137595"><ele>13.0</ele><time>2026-03-28T15:56:53Z</time></trkpt><trkpt lat="45.3719804836652" lon="11.737395571515844"><ele>13.0</ele><time>2026-03-28T15:56:54Z</time></trkpt><trkpt lat="45.37199024501144" lon="11.737596116855322"><ele>13.0</ele><time>2026-03-28T15:56:55Z</time></trkpt><trkpt lat="45.372001866743965" lon="11.737797994597866"><ele>13.0</ele><time>2026-03-28T15:56:56Z</time></trkpt><trkpt lat="45.37201257445896" lon="11.738003304039397"><ele>13.0</ele><time>2026-03-28T15:56:57Z</time></trkpt><trkpt lat="45.37202276337884" lon="11.738206847365552"><ele>13.25</ele><time>2026-03-28T15:56:58Z</time></trkpt><trkpt lat="45.37203310547529" lon="11.738409271493383"><ele>13.5</ele><time>2026-03-28T15:56:59Z</time></trkpt><trkpt lat="45.37204340415933" lon="11.738607645425233"><ele>13.75</ele><time>2026-03-28T15:57:00Z</time></trkpt><trkpt lat="45.37205297483972" lon="11.738808159968317"><ele>14.0</ele><time>2026-03-28T15:57:01Z</time></trkpt><trkpt lat="45.372062327743315" lon="11.73901030960222"><ele>14.0</ele><time>2026-03-28T15:57:02Z</time></trkpt><trkpt lat="45.37207168912175" lon="11.739212693047007"><ele>14.0</ele><time>2026-03-28T15:57:03Z</time></trkpt><trkpt lat="45.372089457489786" lon="11.73962304376578"><ele>14.0</ele><time>2026-03-28T15:57:05Z</time></trkpt><trkpt lat="45.37209981350817" lon="11.739824432727344"><ele>13.75</ele><time>2026-03-28T15:57:06Z</time></trkpt><trkpt lat="45.37210828338331" lon="11.740031365453813"><ele>13.5</ele><time>2026-03-28T15:57:07Z</time></trkpt><trkpt lat="45.372116797324985" lon="11.740237105607331"><ele>13.25</ele><time>2026-03-28T15:57:08Z</time></trkpt><trkpt lat="45.37212794085478" lon="11.740437587783187"><ele>13.0</ele><time>2026-03-28T15:57:09Z</time></trkpt><trkpt lat="45.372136982833425" lon="11.74064182096779"><ele>13.0</ele><time>2026-03-28T15:57:10Z</time></trkpt><trkpt lat="45.37214772950659" lon="11.740846775566505"><ele>13.0</ele><time>2026-03-28T15:57:11Z</time></trkpt><trkpt lat="45.37215514243477" lon="11.741055758166292"><ele>13.0</ele><time>2026-03-28T15:57:12Z</time></trkpt><trkpt lat="45.37216587854369" lon="11.74125884634074"><ele>13.0</ele><time>2026-03-28T15:57:13Z</time></trkpt><trkpt lat="45.372177330748116" lon="11.741462933412206"><ele>13.0</ele><time>2026-03-28T15:57:14Z</time></trkpt><trkpt lat="45.37218799224643" lon="11.741667820899153"><ele>13.0</ele><time>2026-03-28T15:57:15Z</time></trkpt><trkpt lat="45.372195859128766" lon="11.741873709908736"><ele>13.0</ele><time>2026-03-28T15:57:16Z</time></trkpt><trkpt lat="45.37220704414369" lon="11.742070107915382"><ele>13.0</ele><time>2026-03-28T15:57:17Z</time></trkpt><trkpt lat="45.37221515784626" lon="11.742223577917915"><ele>13.0</ele><time>2026-03-28T15:57:18Z</time></trkpt><trkpt lat="45.37222021518647" lon="11.742339904103554"><ele>13.0</ele><time>2026-03-28T15:57:19Z</time></trkpt><trkpt lat="45.37222472734765" lon="11.742433015547153"><ele>13.0</ele><time>2026-03-28T15:57:20Z</time></trkpt><trkpt lat="45.372230171032925" lon="11.742588980444728"><ele>13.0</ele><time>2026-03-28T15:57:22Z</time></trkpt><trkpt lat="45.372236013954115" lon="11.74273132687059"><ele>13.0</ele><time>2026-03-28T15:57:24Z</time></trkpt><trkpt lat="45.372244189455344" lon="11.742884038636323"><ele>13.2</ele><time>2026-03-28T15:57:26Z</time></trkpt><trkpt lat="45.37225134032184" lon="11.743048338039898"><ele>13.4</ele><time>2026-03-28T15:57:28Z</time></trkpt><trkpt lat="45.37226311153051" lon="11.743148553568728"><ele>13.599999999999998</ele><time>2026-03-28T15:57:28.999Z</time></trkpt><trkpt lat="45.372277544289055" lon="11.743295797824599"><ele>13.799999999999999</ele><time>2026-03-28T15:57:30.999Z</time></trkpt><trkpt lat="45.37228717529508" lon="11.743387736550037"><ele>14.0</ele><time>2026-03-28T15:57:33.999Z</time></trkpt><trkpt lat="45.372278637269595" lon="11.743566559764888"><ele>14.000000000000002</ele><time>2026-03-28T15:57:37.999Z</time></trkpt><trkpt lat="45.372271555565376" lon="11.7436652521062"><ele>14.0</ele><time>2026-03-28T15:57:38.999Z</time></trkpt><trkpt lat="45.37227850510637" lon="11.743832052403613"><ele>14.0</ele><time>2026-03-28T15:57:40.999Z</time></trkpt><trkpt lat="45.37229616860655" lon="11.744010272734966"><ele>14.0</ele><time>2026-03-28T15:57:42.999Z</time></trkpt><trkpt lat="45.37230335042603" lon="11.74410494988025"><ele>14.000000000000002</ele><time>2026-03-28T15:57:43.999Z</time></trkpt><trkpt lat="45.37231199482504" lon="11.744196363011957"><ele>14.0</ele><time>2026-03-28T15:57:44.999Z</time></trkpt><trkpt lat="45.37232995219792" lon="11.744344360294805"><ele>14.000000000000002</ele><time>2026-03-28T15:57:46.999Z</time></trkpt><trkpt lat="45.37234762500776" lon="11.744441021296966"><ele>14.0</ele><time>2026-03-28T15:57:49.999Z</time></trkpt><trkpt lat="45.372365517578764" lon="11.744555077658797"><ele>14.0</ele><time>2026-03-28T15:57:54.999Z</time></trkpt><trkpt lat="45.37238818218044" lon="11.744652968143567"><ele>14.0</ele><time>2026-03-28T15:57:57.999Z</time></trkpt><trkpt lat="45.37242139760971" lon="11.744754373325918"><ele>14.000000000000002</ele><time>2026-03-28T15:57:59.999Z</time></trkpt><trkpt lat="45.37244830302142" lon="11.744840029415347"><ele>14.0</ele><time>2026-03-28T15:58:03.999Z</time></trkpt><trkpt lat="45.37245669567526" lon="11.744972087139335"><ele>14.0</ele><time>2026-03-28T15:58:10.999Z</time></trkpt><trkpt lat="45.372457077911086" lon="11.745077899434394"><ele>13.999999999999998</ele><time>2026-03-28T15:58:11.999Z</time></trkpt><trkpt lat="45.37252562132037" lon="11.745218332101496"><ele>13.999999999999998</ele><time>2026-03-28T15:58:14Z</time></trkpt><trkpt lat="45.37263801499722" lon="11.745253051990677"><ele>14.0</ele><time>2026-03-28T15:58:16Z</time></trkpt><trkpt lat="45.37270567714771" lon="11.745281351221314"><ele>14.0</ele><time>2026-03-28T15:58:17Z</time></trkpt><trkpt lat="45.37277911057883" lon="11.745349915168598"><ele>14.0</ele><time>2026-03-28T15:58:18Z</time></trkpt><trkpt lat="45.37284559114933" lon="11.745431084004135"><ele>13.999999999999998</ele><time>2026-03-28T15:58:19Z</time></trkpt><trkpt lat="45.37292208212004" lon="11.745527367595338"><ele>13.999999999999998</ele><time>2026-03-28T15:58:20Z</time></trkpt><trkpt lat="45.37300251178024" lon="11.745626425314088"><ele>14.0</ele><time>2026-03-28T15:58:21Z</time></trkpt><trkpt lat="45.37307753457068" lon="11.745716513406503"><ele>14.0</ele><time>2026-03-28T15:58:22Z</time></trkpt><trkpt lat="45.373156298341996" lon="11.74581759331896"><ele>13.5</ele><time>2026-03-28T15:58:23Z</time></trkpt><trkpt lat="45.3732407062411" lon="11.745948692486243"><ele>13.0</ele><time>2026-03-28T15:58:24Z</time></trkpt><trkpt lat="45.37332281346844" lon="11.746097725835144"><ele>12.5</ele><time>2026-03-28T15:58:25Z</time></trkpt><trkpt lat="45.37340155559255" lon="11.746245763913068"><ele>12.0</ele><time>2026-03-28T15:58:26Z</time></trkpt><trkpt lat="45.3734714062323" lon="11.746394954698124"><ele>12.0</ele><time>2026-03-28T15:58:27Z</time></trkpt><trkpt lat="45.37353489813101" lon="11.746554542053074"><ele>12.0</ele><time>2026-03-28T15:58:28Z</time></trkpt><trkpt lat="45.37359360575594" lon="11.74673237886093"><ele>12.0</ele><time>2026-03-28T15:58:29Z</time></trkpt><trkpt lat="45.373648532371725" lon="11.746920531174942"><ele>12.0</ele><time>2026-03-28T15:58:30Z</time></trkpt><trkpt lat="45.37370140325901" lon="11.747112830527485"><ele>12.0</ele><time>2026-03-28T15:58:31Z</time></trkpt><trkpt lat="45.37375664628271" lon="11.747298021927715"><ele>12.0</ele><time>2026-03-28T15:58:32Z</time></trkpt><trkpt lat="45.3738122866438" lon="11.747474167945828"><ele>12.0</ele><time>2026-03-28T15:58:33Z</time></trkpt><trkpt lat="45.373868266132995" lon="11.74765865260586"><ele>12.0</ele><time>2026-03-28T15:58:34Z</time></trkpt><trkpt lat="45.37392055996402" lon="11.747845835295353"><ele>12.25</ele><time>2026-03-28T15:58:35Z</time></trkpt><trkpt lat="45.37397449633228" lon="11.748026594689042"><ele>12.5</ele><time>2026-03-28T15:58:36Z</time></trkpt><trkpt lat="45.37403141869967" lon="11.748217368502244"><ele>12.75</ele><time>2026-03-28T15:58:37Z</time></trkpt><trkpt lat="45.37408835680824" lon="11.748405135496542"><ele>13.0</ele><time>2026-03-28T15:58:38Z</time></trkpt><trkpt lat="45.374149684037" lon="11.74859973358745"><ele>13.25</ele><time>2026-03-28T15:58:39Z</time></trkpt><trkpt lat="45.37420981834346" lon="11.748790269993982"><ele>13.5</ele><time>2026-03-28T15:58:40Z</time></trkpt><trkpt lat="45.374269525898484" lon="11.748982883081634"><ele>13.75</ele><time>2026-03-28T15:58:41Z</time></trkpt><trkpt lat="45.37432456650067" lon="11.749164383524207"><ele>14.0</ele><time>2026-03-28T15:58:42Z</time></trkpt><trkpt lat="45.37437873705348" lon="11.749346460724748"><ele>14.25</ele><time>2026-03-28T15:58:43Z</time></trkpt><trkpt lat="45.374431727691224" lon="11.749514369579215"><ele>14.5</ele><time>2026-03-28T15:58:44Z</time></trkpt><trkpt lat="45.374480008304445" lon="11.749681812920699"><ele>14.75</ele><time>2026-03-28T15:58:45Z</time></trkpt><trkpt lat="45.374525870085755" lon="11.749832780366244"><ele>15.0</ele><time>2026-03-28T15:58:46Z</time></trkpt><trkpt lat="45.374572988614666" lon="11.749986637706881"><ele>15.0</ele><time>2026-03-28T15:58:47Z</time></trkpt><trkpt lat="45.374617874805686" lon="11.750133696407866"><ele>15.0</ele><time>2026-03-28T15:58:48Z</time></trkpt><trkpt lat="45.37466406152807" lon="11.75028512746401"><ele>15.0</ele><time>2026-03-28T15:58:49Z</time></trkpt><trkpt lat="45.37471012779867" lon="11.750447597220608"><ele>15.0</ele><time>2026-03-28T15:58:50Z</time></trkpt><trkpt lat="45.374758353736695" lon="11.750615166432787"><ele>14.75</ele><time>2026-03-28T15:58:51Z</time></trkpt><trkpt lat="45.37481071683601" lon="11.750782857018836"><ele>14.5</ele><time>2026-03-28T15:58:52Z</time></trkpt><trkpt lat="45.374866242253134" lon="11.750953650791361"><ele>14.25</ele><time>2026-03-28T15:58:53Z</time></trkpt><trkpt lat="45.37492677037141" lon="11.751136724328607"><ele>14.0</ele><time>2026-03-28T15:58:54Z</time></trkpt><trkpt lat="45.374992081389244" lon="11.751339535594143"><ele>13.75</ele><time>2026-03-28T15:58:55Z</time></trkpt><trkpt lat="45.375051957527404" lon="11.751540131722487"><ele>13.5</ele><time>2026-03-28T15:58:56Z</time></trkpt><trkpt lat="45.3751080326958" lon="11.751731112333854"><ele>13.25</ele><time>2026-03-28T15:58:57Z</time></trkpt><trkpt lat="45.37516285000141" lon="11.751915682034268"><ele>13.0</ele><time>2026-03-28T15:58:58Z</time></trkpt><trkpt lat="45.375218620081995" lon="11.752103571376011"><ele>13.0</ele><time>2026-03-28T15:58:59Z</time></trkpt><trkpt lat="45.37527725944004" lon="11.752293340297502"><ele>13.0</ele><time>2026-03-28T15:59:00Z</time></trkpt><trkpt lat="45.375334974759234" lon="11.75248397471407"><ele>13.0</ele><time>2026-03-28T15:59:01Z</time></trkpt><trkpt lat="45.37538727484092" lon="11.752666666983902"><ele>13.0</ele><time>2026-03-28T15:59:02Z</time></trkpt><trkpt lat="45.37544584108376" lon="11.752858533085467"><ele>13.0</ele><time>2026-03-28T15:59:03Z</time></trkpt><trkpt lat="45.375505420233395" lon="11.753040871269262"><ele>13.0</ele><time>2026-03-28T15:59:04Z</time></trkpt><trkpt lat="45.375561518128265" lon="11.753231370139993"><ele>13.0</ele><time>2026-03-28T15:59:05Z</time></trkpt><trkpt lat="45.37561625519544" lon="11.753420389047978"><ele>13.0</ele><time>2026-03-28T15:59:06Z</time></trkpt><trkpt lat="45.375672006491236" lon="11.753600971120047"><ele>13.0</ele><time>2026-03-28T15:59:07Z</time></trkpt><trkpt lat="45.37572144713489" lon="11.753769557366695"><ele>13.0</ele><time>2026-03-28T15:59:08Z</time></trkpt><trkpt lat="45.375776248118875" lon="11.753947565082205"><ele>13.0</ele><time>2026-03-28T15:59:09Z</time></trkpt><trkpt lat="45.37583195512821" lon="11.754129919683884"><ele>13.0</ele><time>2026-03-28T15:59:10Z</time></trkpt><trkpt lat="45.375885930386694" lon="11.75430971597087"><ele>13.25</ele><time>2026-03-28T15:59:11Z</time></trkpt><trkpt lat="45.37593664143416" lon="11.7544759919081"><ele>13.5</ele><time>2026-03-28T15:59:12Z</time></trkpt><trkpt lat="45.375983439421" lon="11.754629377039981"><ele>13.75</ele><time>2026-03-28T15:59:13Z</time></trkpt><trkpt lat="45.37602817757122" lon="11.754774439548925"><ele>14.0</ele><time>2026-03-28T15:59:14Z</time></trkpt><trkpt lat="45.37607023235745" lon="11.754920447294852"><ele>14.0</ele><time>2026-03-28T15:59:15Z</time></trkpt><trkpt lat="45.37611142845928" lon="11.755062421853244"><ele>13.999999999999998</ele><time>2026-03-28T15:59:16Z</time></trkpt><trkpt lat="45.37615277816276" lon="11.75520050741911"><ele>13.999999999999998</ele><time>2026-03-28T15:59:17Z</time></trkpt><trkpt lat="45.37619444913447" lon="11.755340655592201"><ele>14.0</ele><time>2026-03-28T15:59:18Z</time></trkpt><trkpt lat="45.37624080532786" lon="11.755486777669041"><ele>14.0</ele><time>2026-03-28T15:59:19Z</time></trkpt><trkpt lat="45.37628935621697" lon="11.755643533833021"><ele>14.0</ele><time>2026-03-28T15:59:20Z</time></trkpt><trkpt lat="45.376340538195876" lon="11.755813090176494"><ele>14.0</ele><time>2026-03-28T15:59:21Z</time></trkpt><trkpt lat="45.37639278757181" lon="11.755990628715498"><ele>14.0</ele><time>2026-03-28T15:59:22Z</time></trkpt><trkpt lat="45.376445082886896" lon="11.756171083261359"><ele>14.0</ele><time>2026-03-28T15:59:23Z</time></trkpt><trkpt lat="45.376498162134666" lon="11.756347610163582"><ele>14.0</ele><time>2026-03-28T15:59:24Z</time></trkpt><trkpt lat="45.376552895022805" lon="11.756521808687276"><ele>14.0</ele><time>2026-03-28T15:59:25Z</time></trkpt><trkpt lat="45.376606589644496" lon="11.756696996660477"><ele>14.0</ele><time>2026-03-28T15:59:26Z</time></trkpt><trkpt lat="45.37666080573498" lon="11.75687412035358"><ele>14.0</ele><time>2026-03-28T15:59:27Z</time></trkpt><trkpt lat="45.37671554296116" lon="11.75705659901263"><ele>14.0</ele><time>2026-03-28T15:59:28Z</time></trkpt><trkpt lat="45.37676593609466" lon="11.757228250415622"><ele>14.0</ele><time>2026-03-28T15:59:29Z</time></trkpt><trkpt lat="45.37681601349162" lon="11.757396449557227"><ele>14.0</ele><time>2026-03-28T15:59:30Z</time></trkpt><trkpt lat="45.37686618548373" lon="11.757561624811116"><ele>14.0</ele><time>2026-03-28T15:59:31Z</time></trkpt><trkpt lat="45.376919669102065" lon="11.757728673319312"><ele>14.0</ele><time>2026-03-28T15:59:32Z</time></trkpt><trkpt lat="45.3769715772983" lon="11.757899545070803"><ele>14.0</ele><time>2026-03-28T15:59:33Z</time></trkpt><trkpt lat="45.37702108235789" lon="11.758069957956735"><ele>14.0</ele><time>2026-03-28T15:59:34Z</time></trkpt><trkpt lat="45.377070104238406" lon="11.758233389880901"><ele>14.0</ele><time>2026-03-28T15:59:35Z</time></trkpt><trkpt lat="45.377116953976106" lon="11.758390571955417"><ele>14.25</ele><time>2026-03-28T15:59:36Z</time></trkpt><trkpt lat="45.37716254418412" lon="11.758545008821939"><ele>14.5</ele><time>2026-03-28T15:59:37Z</time></trkpt><trkpt lat="45.37720980452257" lon="11.758701497121075"><ele>14.75</ele><time>2026-03-28T15:59:37.999Z</time></trkpt><trkpt lat="45.377262329320324" lon="11.758856235995877"><ele>15.0</ele><time>2026-03-28T15:59:38.999Z</time></trkpt><trkpt lat="45.37731004836869" lon="11.759016344991718"><ele>15.0</ele><time>2026-03-28T15:59:39.999Z</time></trkpt><trkpt lat="45.37736173916919" lon="11.759181927838654"><ele>15.0</ele><time>2026-03-28T15:59:40.999Z</time></trkpt><trkpt lat="45.37741639693504" lon="11.75935671405233"><ele>15.0</ele><time>2026-03-28T15:59:41.999Z</time></trkpt><trkpt lat="45.37747492436083" lon="11.759547274113517"><ele>15.0</ele><time>2026-03-28T15:59:42.999Z</time></trkpt><trkpt lat="45.3775294073893" lon="11.759731341674481"><ele>15.25</ele><time>2026-03-28T15:59:43.999Z</time></trkpt><trkpt lat="45.377585566860176" lon="11.759909755949836"><ele>15.5</ele><time>2026-03-28T15:59:44.999Z</time></trkpt><trkpt lat="45.377638789937315" lon="11.760091918876434"><ele>15.75</ele><time>2026-03-28T15:59:45.999Z</time></trkpt><trkpt lat="45.3776954108605" lon="11.760270394829602"><ele>16.0</ele><time>2026-03-28T15:59:46.999Z</time></trkpt><trkpt lat="45.37774268934692" lon="11.760435102905769"><ele>16.0</ele><time>2026-03-28T15:59:47.999Z</time></trkpt><trkpt lat="45.37779155501203" lon="11.760596718091422"><ele>16.0</ele><time>2026-03-28T15:59:48.999Z</time></trkpt><trkpt lat="45.3778392780832" lon="11.760762120429748"><ele>16.0</ele><time>2026-03-28T15:59:49.999Z</time></trkpt><trkpt lat="45.377885996378765" lon="11.760926307487075"><ele>16.0</ele><time>2026-03-28T15:59:50.999Z</time></trkpt><trkpt lat="45.377935276518755" lon="11.761085850732352"><ele>15.5</ele><time>2026-03-28T15:59:51.999Z</time></trkpt><trkpt lat="45.37797976944243" lon="11.761238101843428"><ele>15.0</ele><time>2026-03-28T15:59:52.999Z</time></trkpt><trkpt lat="45.378026493494495" lon="11.761390115145991"><ele>14.5</ele><time>2026-03-28T15:59:53.999Z</time></trkpt><trkpt lat="45.37807258740596" lon="11.761540800324296"><ele>14.0</ele><time>2026-03-28T15:59:54.999Z</time></trkpt><trkpt lat="45.37811601048675" lon="11.761691000495581"><ele>14.0</ele><time>2026-03-28T15:59:55.999Z</time></trkpt><trkpt lat="45.37816014107493" lon="11.761839748219424"><ele>14.0</ele><time>2026-03-28T15:59:56.999Z</time></trkpt><trkpt lat="45.3782031853737" lon="11.762002936054952"><ele>14.0</ele><time>2026-03-28T15:59:57.999Z</time></trkpt><trkpt lat="45.3782482820951" lon="11.762157192066216"><ele>14.0</ele><time>2026-03-28T15:59:58.999Z</time></trkpt><trkpt lat="45.37829529776802" lon="11.762317905057321"><ele>14.25</ele><time>2026-03-28T15:59:59.999Z</time></trkpt><trkpt lat="45.37833947464" lon="11.762480597858211"><ele>14.5</ele><time>2026-03-28T16:00:00.999Z</time></trkpt><trkpt lat="45.37838392305874" lon="11.762642934724102"><ele>14.75</ele><time>2026-03-28T16:00:01.999Z</time></trkpt><trkpt lat="45.37842942801911" lon="11.76280530997706"><ele>15.0</ele><time>2026-03-28T16:00:02.999Z</time></trkpt><trkpt lat="45.37847974139658" lon="11.762968929283728"><ele>15.0</ele><time>2026-03-28T16:00:03.999Z</time></trkpt><trkpt lat="45.3785296597157" lon="11.763121778386806"><ele>15.0</ele><time>2026-03-28T16:00:04.999Z</time></trkpt><trkpt lat="45.37857879559528" lon="11.763277302664155"><ele>15.0</ele><time>2026-03-28T16:00:05.999Z</time></trkpt><trkpt lat="45.37862433494273" lon="11.76344305691149"><ele>15.0</ele><time>2026-03-28T16:00:06.999Z</time></trkpt><trkpt lat="45.3786778964344" lon="11.763613353332142"><ele>15.0</ele><time>2026-03-28T16:00:07.999Z</time></trkpt><trkpt lat="45.37873241918938" lon="11.763786694681038"><ele>15.0</ele><time>2026-03-28T16:00:08.999Z</time></trkpt><trkpt lat="45.37878980277393" lon="11.763968723176996"><ele>15.0</ele><time>2026-03-28T16:00:09.999Z</time></trkpt><trkpt lat="45.37884354594559" lon="11.764152279219992"><ele>15.0</ele><time>2026-03-28T16:00:10.999Z</time></trkpt><trkpt lat="45.37890185375343" lon="11.764341588442376"><ele>15.0</ele><time>2026-03-28T16:00:11.999Z</time></trkpt><trkpt lat="45.378955910690046" lon="11.764533507026044"><ele>15.0</ele><time>2026-03-28T16:00:12.999Z</time></trkpt><trkpt lat="45.37901245112877" lon="11.764714222593186"><ele>15.0</ele><time>2026-03-28T16:00:13.999Z</time></trkpt><trkpt lat="45.3790660753856" lon="11.764892616099361"><ele>15.0</ele><time>2026-03-28T16:00:14.999Z</time></trkpt><trkpt lat="45.3791188128058" lon="11.765070113315945"><ele>14.75</ele><time>2026-03-28T16:00:15.999Z</time></trkpt><trkpt lat="45.37916937931192" lon="11.76524093351696"><ele>14.5</ele><time>2026-03-28T16:00:16.999Z</time></trkpt><trkpt lat="45.37922045466406" lon="11.765407808441122"><ele>14.25</ele><time>2026-03-28T16:00:17.999Z</time></trkpt><trkpt lat="45.37927112964481" lon="11.76557577494294"><ele>14.0</ele><time>2026-03-28T16:00:18.999Z</time></trkpt><trkpt lat="45.37931919871697" lon="11.765734961639653"><ele>14.0</ele><time>2026-03-28T16:00:20Z</time></trkpt><trkpt lat="45.37936613075296" lon="11.76589312031846"><ele>14.0</ele><time>2026-03-28T16:00:21Z</time></trkpt><trkpt lat="45.37941461843211" lon="11.766052891685487"><ele>14.0</ele><time>2026-03-28T16:00:22Z</time></trkpt><trkpt lat="45.37946099282336" lon="11.766204936238658"><ele>14.0</ele><time>2026-03-28T16:00:23Z</time></trkpt><trkpt lat="45.37950479869703" lon="11.766350269236955"><ele>14.0</ele><time>2026-03-28T16:00:24Z</time></trkpt><trkpt lat="45.37954767334293" lon="11.766495813040242"><ele>13.999999999999998</ele><time>2026-03-28T16:00:25Z</time></trkpt><trkpt lat="45.37959004131929" lon="11.766631713258645"><ele>13.999999999999998</ele><time>2026-03-28T16:00:26Z</time></trkpt><trkpt lat="45.379628573702014" lon="11.766756288030304"><ele>14.0</ele><time>2026-03-28T16:00:27Z</time></trkpt><trkpt lat="45.379664627202345" lon="11.766875785708594"><ele>14.0</ele><time>2026-03-28T16:00:28Z</time></trkpt><trkpt lat="45.37969697432957" lon="11.766985418813318"><ele>14.0</ele><time>2026-03-28T16:00:29Z</time></trkpt><trkpt lat="45.37973054319225" lon="11.767080213547736"><ele>14.0</ele><time>2026-03-28T16:00:30Z</time></trkpt><trkpt lat="45.3797539268614" lon="11.767176047981435"><ele>14.0</ele><time>2026-03-28T16:00:31Z</time></trkpt><trkpt lat="45.379769354569326" lon="11.767265954363664"><ele>14.0</ele><time>2026-03-28T16:00:32Z</time></trkpt><trkpt lat="45.379773207164945" lon="11.767361249006287"><ele>14.0</ele><time>2026-03-28T16:00:33Z</time></trkpt><trkpt lat="45.379774319028535" lon="11.767468981235583"><ele>14.0</ele><time>2026-03-28T16:00:34Z</time></trkpt><trkpt lat="45.37980482046231" lon="11.767567462081287"><ele>14.0</ele><time>2026-03-28T16:00:35Z</time></trkpt><trkpt lat="45.379859912840466" lon="11.767641732719685"><ele>13.799999999999999</ele><time>2026-03-28T16:00:36Z</time></trkpt><trkpt lat="45.379920673475816" lon="11.767742204949178"><ele>13.599999999999998</ele><time>2026-03-28T16:00:37Z</time></trkpt><trkpt lat="45.37996424212307" lon="11.76786092253185"><ele>13.4</ele><time>2026-03-28T16:00:38Z</time></trkpt><trkpt lat="45.38000121558196" lon="11.767995054721101"><ele>13.2</ele><time>2026-03-28T16:00:39Z</time></trkpt><trkpt lat="45.38004671013038" lon="11.768153849989808"><ele>13.0</ele><time>2026-03-28T16:00:40Z</time></trkpt><trkpt lat="45.3801036690826" lon="11.768347534348536"><ele>13.0</ele><time>2026-03-28T16:00:41Z</time></trkpt><trkpt lat="45.38016311651952" lon="11.768546118348967"><ele>13.0</ele><time>2026-03-28T16:00:42Z</time></trkpt><trkpt lat="45.38021986586947" lon="11.768743074989882"><ele>13.0</ele><time>2026-03-28T16:00:43Z</time></trkpt><trkpt lat="45.38027833910909" lon="11.768935140533145"><ele>13.0</ele><time>2026-03-28T16:00:44Z</time></trkpt><trkpt lat="45.380335438494065" lon="11.769118677829812"><ele>13.0</ele><time>2026-03-28T16:00:45Z</time></trkpt><trkpt lat="45.380389103396524" lon="11.769317610927269"><ele>13.0</ele><time>2026-03-28T16:00:46Z</time></trkpt><trkpt lat="45.380449871290544" lon="11.769522080251797"><ele>13.0</ele><time>2026-03-28T16:00:47Z</time></trkpt><trkpt lat="45.38050537623143" lon="11.76971025283953"><ele>13.0</ele><time>2026-03-28T16:00:48Z</time></trkpt><trkpt lat="45.38056242103788" lon="11.769889820146519"><ele>13.0</ele><time>2026-03-28T16:00:49Z</time></trkpt><trkpt lat="45.38061695004264" lon="11.770066748440573"><ele>13.0</ele><time>2026-03-28T16:00:50Z</time></trkpt><trkpt lat="45.38066936806026" lon="11.77024390108398"><ele>13.0</ele><time>2026-03-28T16:00:51Z</time></trkpt><trkpt lat="45.38072248933929" lon="11.770420549053211"><ele>13.0</ele><time>2026-03-28T16:00:52Z</time></trkpt><trkpt lat="45.38077506036526" lon="11.770602584713993"><ele>13.0</ele><time>2026-03-28T16:00:53Z</time></trkpt><trkpt lat="45.38082663596796" lon="11.77078621457743"><ele>13.0</ele><time>2026-03-28T16:00:54Z</time></trkpt><trkpt lat="45.38087900386489" lon="11.770969374397101"><ele>13.0</ele><time>2026-03-28T16:00:55Z</time></trkpt><trkpt lat="45.38093237158817" lon="11.771146912669584"><ele>13.0</ele><time>2026-03-28T16:00:56Z</time></trkpt><trkpt lat="45.380986219751804" lon="11.77133208995232"><ele>12.75</ele><time>2026-03-28T16:00:57Z</time></trkpt><trkpt lat="45.38104598942952" lon="11.771523030148332"><ele>12.5</ele><time>2026-03-28T16:00:58Z</time></trkpt><trkpt lat="45.38110192773434" lon="11.771710719584409"><ele>12.25</ele><time>2026-03-28T16:00:59Z</time></trkpt><trkpt lat="45.381160697452934" lon="11.7719015647743"><ele>12.0</ele><time>2026-03-28T16:01:00Z</time></trkpt><trkpt lat="45.38121942377909" lon="11.772094289934326"><ele>12.0</ele><time>2026-03-28T16:01:01Z</time></trkpt><trkpt lat="45.38127395518027" lon="11.772279129492414"><ele>12.0</ele><time>2026-03-28T16:01:02Z</time></trkpt><trkpt lat="45.38132857907973" lon="11.772461773500433"><ele>12.0</ele><time>2026-03-28T16:01:03Z</time></trkpt><trkpt lat="45.38138117678583" lon="11.772646305313298"><ele>12.0</ele><time>2026-03-28T16:01:04Z</time></trkpt><trkpt lat="45.38143459227257" lon="11.772829228466824"><ele>12.0</ele><time>2026-03-28T16:01:05Z</time></trkpt><trkpt lat="45.381488487286404" lon="11.77301319424453"><ele>12.0</ele><time>2026-03-28T16:01:06Z</time></trkpt><trkpt lat="45.38154589393943" lon="11.773206053095214"><ele>12.0</ele><time>2026-03-28T16:01:07Z</time></trkpt><trkpt lat="45.38160341760047" lon="11.773396871053087"><ele>12.0</ele><time>2026-03-28T16:01:08Z</time></trkpt><trkpt lat="45.38165771712921" lon="11.773585216829304"><ele>12.25</ele><time>2026-03-28T16:01:09Z</time></trkpt><trkpt lat="45.3817148274554" lon="11.773773856941904"><ele>12.5</ele><time>2026-03-28T16:01:10Z</time></trkpt><trkpt lat="45.38177062043774" lon="11.773958934437188"><ele>12.75</ele><time>2026-03-28T16:01:11Z</time></trkpt><trkpt lat="45.381825902544556" lon="11.774147710600417"><ele>13.0</ele><time>2026-03-28T16:01:12Z</time></trkpt><trkpt lat="45.381883436929925" lon="11.774336501688305"><ele>12.75</ele><time>2026-03-28T16:01:13Z</time></trkpt><trkpt lat="45.381939462957234" lon="11.774525737676148"><ele>12.5</ele><time>2026-03-28T16:01:14Z</time></trkpt><trkpt lat="45.38199618652089" lon="11.77471243572572"><ele>12.25</ele><time>2026-03-28T16:01:15Z</time></trkpt><trkpt lat="45.38205249854332" lon="11.774906795200362"><ele>12.0</ele><time>2026-03-28T16:01:16Z</time></trkpt><trkpt lat="45.38210827102503" lon="11.775095573960785"><ele>12.0</ele><time>2026-03-28T16:01:17Z</time></trkpt><trkpt lat="45.38216600643097" lon="11.775283033234397"><ele>12.0</ele><time>2026-03-28T16:01:18Z</time></trkpt><trkpt lat="45.382222676823815" lon="11.775475433475638"><ele>12.0</ele><time>2026-03-28T16:01:19Z</time></trkpt><trkpt lat="45.382277649108424" lon="11.775663662584476"><ele>12.0</ele><time>2026-03-28T16:01:20Z</time></trkpt><trkpt lat="45.38232881239667" lon="11.77585530206611"><ele>12.5</ele><time>2026-03-28T16:01:21Z</time></trkpt><trkpt lat="45.382387562534795" lon="11.776044108051202"><ele>13.0</ele><time>2026-03-28T16:01:22Z</time></trkpt><trkpt lat="45.382445272047505" lon="11.77623310313779"><ele>13.5</ele><time>2026-03-28T16:01:23Z</time></trkpt><trkpt lat="45.38250067636382" lon="11.776425762473627"><ele>14.0</ele><time>2026-03-28T16:01:24Z</time></trkpt><trkpt lat="45.38255844431347" lon="11.776615641609567"><ele>14.0</ele><time>2026-03-28T16:01:25Z</time></trkpt><trkpt lat="45.382614949299224" lon="11.776803339681956"><ele>14.0</ele><time>2026-03-28T16:01:26Z</time></trkpt><trkpt lat="45.382669688735696" lon="11.776995334376958"><ele>14.0</ele><time>2026-03-28T16:01:27Z</time></trkpt><trkpt lat="45.38272436849348" lon="11.777183935134893"><ele>14.0</ele><time>2026-03-28T16:01:28Z</time></trkpt><trkpt lat="45.38278136917588" lon="11.77737507635224"><ele>13.5</ele><time>2026-03-28T16:01:29Z</time></trkpt><trkpt lat="45.382837263123136" lon="11.777564590153757"><ele>13.0</ele><time>2026-03-28T16:01:30Z</time></trkpt><trkpt lat="45.382893514406796" lon="11.777751751525171"><ele>12.5</ele><time>2026-03-28T16:01:31Z</time></trkpt><trkpt lat="45.38294974331952" lon="11.77794289154031"><ele>12.0</ele><time>2026-03-28T16:01:32Z</time></trkpt><trkpt lat="45.38300809275948" lon="11.778132872308426"><ele>11.75</ele><time>2026-03-28T16:01:33Z</time></trkpt><trkpt lat="45.38306349332104" lon="11.778323683416481"><ele>11.5</ele><time>2026-03-28T16:01:34Z</time></trkpt><trkpt lat="45.38311761761759" lon="11.77851420623193"><ele>11.25</ele><time>2026-03-28T16:01:35Z</time></trkpt><trkpt lat="45.383172674092144" lon="11.778706216325226"><ele>11.0</ele><time>2026-03-28T16:01:36Z</time></trkpt><trkpt lat="45.38323291265589" lon="11.778890101049086"><ele>10.75</ele><time>2026-03-28T16:01:37Z</time></trkpt><trkpt lat="45.38328733686614" lon="11.779065168727671"><ele>10.5</ele><time>2026-03-28T16:01:38Z</time></trkpt><trkpt lat="45.38333341666039" lon="11.779225980359442"><ele>10.25</ele><time>2026-03-28T16:01:39Z</time></trkpt><trkpt lat="45.383372284313616" lon="11.779369061937485"><ele>10.0</ele><time>2026-03-28T16:01:40Z</time></trkpt><trkpt lat="45.38341160688395" lon="11.77950019586204"><ele>10.0</ele><time>2026-03-28T16:01:40.999Z</time></trkpt><trkpt lat="45.38344923574372" lon="11.779629507250164"><ele>10.0</ele><time>2026-03-28T16:01:41.999Z</time></trkpt><trkpt lat="45.38348400219283" lon="11.779745000571838"><ele>10.0</ele><time>2026-03-28T16:01:42.999Z</time></trkpt><trkpt lat="45.383510716390035" lon="11.779830947499526"><ele>10.0</ele><time>2026-03-28T16:01:43.999Z</time></trkpt><trkpt lat="45.383533923845754" lon="11.779914899418355"><ele>10.0</ele><time>2026-03-28T16:01:44.999Z</time></trkpt><trkpt lat="45.38357607677856" lon="11.780040750792093"><ele>10.0</ele><time>2026-03-28T16:01:46.999Z</time></trkpt><trkpt lat="45.383592624694394" lon="11.780134289510912"><ele>10.4</ele><time>2026-03-28T16:01:50.999Z</time></trkpt><trkpt lat="45.383598469544694" lon="11.780243659056962"><ele>10.8</ele><time>2026-03-28T16:01:55.999Z</time></trkpt><trkpt lat="45.38356516759114" lon="11.78037881530712"><ele>11.2</ele><time>2026-03-28T16:01:59.999Z</time></trkpt><trkpt lat="45.38352750272719" lon="11.780533050588918"><ele>11.6</ele><time>2026-03-28T16:02:01.999Z</time></trkpt><trkpt lat="45.38352681054003" lon="11.780708385048893"><ele>12.0</ele><time>2026-03-28T16:02:03.999Z</time></trkpt><trkpt lat="45.383516579037064" lon="11.780820375511105"><ele>12.0</ele><time>2026-03-28T16:02:04.999Z</time></trkpt><trkpt lat="45.383479549592025" lon="11.780918584342189"><ele>12.0</ele><time>2026-03-28T16:02:05.999Z</time></trkpt><trkpt lat="45.3834325943363" lon="11.781023576987094"><ele>12.0</ele><time>2026-03-28T16:02:06.999Z</time></trkpt><trkpt lat="45.38337434425179" lon="11.781143751243485"><ele>12.0</ele><time>2026-03-28T16:02:07.999Z</time></trkpt><trkpt lat="45.38331404747853" lon="11.78126460391219"><ele>12.0</ele><time>2026-03-28T16:02:08.999Z</time></trkpt><trkpt lat="45.38325242206667" lon="11.781394606211355"><ele>11.75</ele><time>2026-03-28T16:02:09.999Z</time></trkpt><trkpt lat="45.383194686236116" lon="11.781524803536248"><ele>11.5</ele><time>2026-03-28T16:02:10.999Z</time></trkpt><trkpt lat="45.38312854887938" lon="11.781666728016754"><ele>11.25</ele><time>2026-03-28T16:02:11.999Z</time></trkpt><trkpt lat="45.38305437966892" lon="11.78182029329719"><ele>11.0</ele><time>2026-03-28T16:02:12.999Z</time></trkpt><trkpt lat="45.38297852755365" lon="11.78198351386202"><ele>10.75</ele><time>2026-03-28T16:02:13.999Z</time></trkpt><trkpt lat="45.3829027021135" lon="11.782148256959251"><ele>10.5</ele><time>2026-03-28T16:02:14.999Z</time></trkpt><trkpt lat="45.38282505784811" lon="11.782317187358824"><ele>10.25</ele><time>2026-03-28T16:02:15.999Z</time></trkpt><trkpt lat="45.38273873156336" lon="11.782501719350767"><ele>10.0</ele><time>2026-03-28T16:02:16.999Z</time></trkpt><trkpt lat="45.38265768350829" lon="11.782677310813707"><ele>10.0</ele><time>2026-03-28T16:02:17.999Z</time></trkpt><trkpt lat="45.382572580013516" lon="11.7828687151247"><ele>10.0</ele><time>2026-03-28T16:02:18.999Z</time></trkpt><trkpt lat="45.3824845369639" lon="11.78306878515478"><ele>10.0</ele><time>2026-03-28T16:02:19.999Z</time></trkpt><trkpt lat="45.38240163848687" lon="11.783261867553293"><ele>10.0</ele><time>2026-03-28T16:02:20.999Z</time></trkpt><trkpt lat="45.38232308010632" lon="11.7834481995214"><ele>10.0</ele><time>2026-03-28T16:02:21.999Z</time></trkpt><trkpt lat="45.38224165156285" lon="11.783645635250622"><ele>10.0</ele><time>2026-03-28T16:02:22.999Z</time></trkpt><trkpt lat="45.382166066286686" lon="11.78384410153712"><ele>10.0</ele><time>2026-03-28T16:02:23.999Z</time></trkpt><trkpt lat="45.38208318696684" lon="11.784065465512548"><ele>10.0</ele><time>2026-03-28T16:02:24.999Z</time></trkpt><trkpt lat="45.382000920575194" lon="11.784278804111318"><ele>10.0</ele><time>2026-03-28T16:02:26Z</time></trkpt><trkpt lat="45.38191901510364" lon="11.784496709512577"><ele>10.0</ele><time>2026-03-28T16:02:27Z</time></trkpt><trkpt lat="45.38184805888233" lon="11.784706538752651"><ele>10.0</ele><time>2026-03-28T16:02:28Z</time></trkpt><trkpt lat="45.38176885730018" lon="11.784923972073395"><ele>10.0</ele><time>2026-03-28T16:02:29Z</time></trkpt><trkpt lat="45.38170191379401" lon="11.785134879843644"><ele>10.0</ele><time>2026-03-28T16:02:30Z</time></trkpt><trkpt lat="45.38163375126653" lon="11.78534341562768"><ele>10.0</ele><time>2026-03-28T16:02:31Z</time></trkpt><trkpt lat="45.38156956995523" lon="11.785554050662164"><ele>10.0</ele><time>2026-03-28T16:02:32Z</time></trkpt><trkpt lat="45.38150640493279" lon="11.785767918082515"><ele>10.0</ele><time>2026-03-28T16:02:33Z</time></trkpt><trkpt lat="45.38144109341422" lon="11.78598049387313"><ele>10.0</ele><time>2026-03-28T16:02:34Z</time></trkpt><trkpt lat="45.3813733231412" lon="11.786209572379862"><ele>10.0</ele><time>2026-03-28T16:02:35Z</time></trkpt><trkpt lat="45.38131004126905" lon="11.786434776590019"><ele>10.0</ele><time>2026-03-28T16:02:36Z</time></trkpt><trkpt lat="45.3812444522649" lon="11.786664656469593"><ele>10.0</ele><time>2026-03-28T16:02:37Z</time></trkpt><trkpt lat="45.38117743498632" lon="11.786890735637956"><ele>10.0</ele><time>2026-03-28T16:02:38Z</time></trkpt><trkpt lat="45.38111074817348" lon="11.787120831466805"><ele>10.333333333333334</ele><time>2026-03-28T16:02:39Z</time></trkpt><trkpt lat="45.381050751342926" lon="11.787339786693448"><ele>10.666666666666666</ele><time>2026-03-28T16:02:40Z</time></trkpt><trkpt lat="45.38098529047841" lon="11.787561900551559"><ele>11.0</ele><time>2026-03-28T16:02:41Z</time></trkpt><trkpt lat="45.380926264418264" lon="11.787776757592063"><ele>11.333333333333332</ele><time>2026-03-28T16:02:42Z</time></trkpt><trkpt lat="45.38086550860423" lon="11.7879898972051"><ele>11.666666666666666</ele><time>2026-03-28T16:02:43Z</time></trkpt><trkpt lat="45.38080472316993" lon="11.788205709162314"><ele>12.0</ele><time>2026-03-28T16:02:44Z</time></trkpt><trkpt lat="45.38074320347876" lon="11.788419406421927"><ele>12.0</ele><time>2026-03-28T16:02:45Z</time></trkpt><trkpt lat="45.38067812384383" lon="11.788639775016675"><ele>12.0</ele><time>2026-03-28T16:02:46Z</time></trkpt><trkpt lat="45.38061626894174" lon="11.788862046090667"><ele>12.0</ele><time>2026-03-28T16:02:47Z</time></trkpt><trkpt lat="45.38055151147387" lon="11.789086879716654"><ele>12.0</ele><time>2026-03-28T16:02:48Z</time></trkpt><trkpt lat="45.380488481057505" lon="11.789309144724355"><ele>12.0</ele><time>2026-03-28T16:02:49Z</time></trkpt><trkpt lat="45.38042212491239" lon="11.789533634340744"><ele>12.0</ele><time>2026-03-28T16:02:50Z</time></trkpt><trkpt lat="45.38035931590154" lon="11.789756637144256"><ele>12.0</ele><time>2026-03-28T16:02:51Z</time></trkpt><trkpt lat="45.38029605832926" lon="11.789978621721287"><ele>12.0</ele><time>2026-03-28T16:02:52Z</time></trkpt><trkpt lat="45.38023183461916" lon="11.79020206133171"><ele>12.0</ele><time>2026-03-28T16:02:53Z</time></trkpt><trkpt lat="45.380169284651274" lon="11.790418738403291"><ele>11.666666666666666</ele><time>2026-03-28T16:02:54Z</time></trkpt><trkpt lat="45.38010414258216" lon="11.79064246731037"><ele>11.333333333333332</ele><time>2026-03-28T16:02:55Z</time></trkpt><trkpt lat="45.380038655946926" lon="11.790868777797856"><ele>11.0</ele><time>2026-03-28T16:02:56Z</time></trkpt><trkpt lat="45.379977217031964" lon="11.79109071279245"><ele>11.0</ele><time>2026-03-28T16:02:57Z</time></trkpt><trkpt lat="45.37991386820931" lon="11.791311368814995"><ele>11.0</ele><time>2026-03-28T16:02:58Z</time></trkpt><trkpt lat="45.37984737912795" lon="11.79153144126637"><ele>11.0</ele><time>2026-03-28T16:02:59Z</time></trkpt><trkpt lat="45.37978214917074" lon="11.791751441543461"><ele>11.0</ele><time>2026-03-28T16:03:00Z</time></trkpt><trkpt lat="45.37971350244832" lon="11.79197736099623"><ele>11.0</ele><time>2026-03-28T16:03:01Z</time></trkpt><trkpt lat="45.37965324502632" lon="11.792200791844577"><ele>11.0</ele><time>2026-03-28T16:03:02Z</time></trkpt><trkpt lat="45.37959348376547" lon="11.792419357462505"><ele>11.0</ele><time>2026-03-28T16:03:03Z</time></trkpt><trkpt lat="45.379524660192494" lon="11.792646839383178"><ele>11.0</ele><time>2026-03-28T16:03:04Z</time></trkpt><trkpt lat="45.37946010747085" lon="11.792873692986774"><ele>11.0</ele><time>2026-03-28T16:03:05Z</time></trkpt><trkpt lat="45.3793974822793" lon="11.793099114674988"><ele>11.333333333333332</ele><time>2026-03-28T16:03:06Z</time></trkpt><trkpt lat="45.379336933751965" lon="11.793323242646961"><ele>11.666666666666666</ele><time>2026-03-28T16:03:07Z</time></trkpt><trkpt lat="45.379273056054046" lon="11.79354515226086"><ele>12.0</ele><time>2026-03-28T16:03:08Z</time></trkpt><trkpt lat="45.379207352610926" lon="11.79377361053221"><ele>12.0</ele><time>2026-03-28T16:03:09Z</time></trkpt><trkpt lat="45.37914139560722" lon="11.793997905672859"><ele>12.0</ele><time>2026-03-28T16:03:10Z</time></trkpt><trkpt lat="45.37908179754653" lon="11.7942190616087"><ele>12.0</ele><time>2026-03-28T16:03:11Z</time></trkpt><trkpt lat="45.37901581597143" lon="11.794445796666487"><ele>11.333333333333334</ele><time>2026-03-28T16:03:12Z</time></trkpt><trkpt lat="45.3789464993325" lon="11.79467122928791"><ele>10.666666666666668</ele><time>2026-03-28T16:03:13Z</time></trkpt><trkpt lat="45.3788777549936" lon="11.794893946467665"><ele>10.0</ele><time>2026-03-28T16:03:14Z</time></trkpt><trkpt lat="45.37881236727115" lon="11.795116063250646"><ele>9.666666666666668</ele><time>2026-03-28T16:03:15Z</time></trkpt><trkpt lat="45.37874999291294" lon="11.795342514403703"><ele>9.333333333333334</ele><time>2026-03-28T16:03:16Z</time></trkpt><trkpt lat="45.37868846236299" lon="11.795564060067374"><ele>9.0</ele><time>2026-03-28T16:03:17Z</time></trkpt><trkpt lat="45.37862675150602" lon="11.795788868418187"><ele>10.0</ele><time>2026-03-28T16:03:18Z</time></trkpt><trkpt lat="45.378560782667506" lon="11.796010147380036"><ele>11.0</ele><time>2026-03-28T16:03:19Z</time></trkpt><trkpt lat="45.37849421397331" lon="11.79623427506769"><ele>12.0</ele><time>2026-03-28T16:03:20Z</time></trkpt><trkpt lat="45.378434107144614" lon="11.79645601394629"><ele>12.0</ele><time>2026-03-28T16:03:21Z</time></trkpt><trkpt lat="45.37837069937618" lon="11.796676709021597"><ele>12.0</ele><time>2026-03-28T16:03:22Z</time></trkpt><trkpt lat="45.378297952138894" lon="11.796908085331992"><ele>12.0</ele><time>2026-03-28T16:03:23Z</time></trkpt><trkpt lat="45.378235677336946" lon="11.797181602130744"><ele>12.666666666666668</ele><time>2026-03-28T16:03:24Z</time></trkpt><trkpt lat="45.37815405899923" lon="11.797458327865469"><ele>13.333333333333334</ele><time>2026-03-28T16:03:25Z</time></trkpt><trkpt lat="45.378064467931736" lon="11.7977694563421"><ele>14.0</ele><time>2026-03-28T16:03:26Z</time></trkpt><trkpt lat="45.3779807979108" lon="11.798060023183538"><ele>14.0</ele><time>2026-03-28T16:03:27Z</time></trkpt><trkpt lat="45.37791353108938" lon="11.798293624794157"><ele>14.0</ele><time>2026-03-28T16:03:28Z</time></trkpt><trkpt lat="45.37784901525382" lon="11.798517673534873"><ele>14.0</ele><time>2026-03-28T16:03:29Z</time></trkpt><trkpt lat="45.37778603701215" lon="11.798736382444432"><ele>13.333333333333334</ele><time>2026-03-28T16:03:30Z</time></trkpt><trkpt lat="45.377724984069545" lon="11.798948405026689"><ele>12.666666666666668</ele><time>2026-03-28T16:03:31Z</time></trkpt><trkpt lat="45.37766447578109" lon="11.799158536592767"><ele>12.0</ele><time>2026-03-28T16:03:32Z</time></trkpt><trkpt lat="45.37760160134917" lon="11.799378253355295"><ele>11.333333333333334</ele><time>2026-03-28T16:03:33Z</time></trkpt><trkpt lat="45.377536265403556" lon="11.799614259983333"><ele>10.666666666666668</ele><time>2026-03-28T16:03:34Z</time></trkpt><trkpt lat="45.37749365449708" lon="11.799848111865977"><ele>10.0</ele><time>2026-03-28T16:03:35Z</time></trkpt><trkpt lat="45.37741983865935" lon="11.800089866836414"><ele>10.0</ele><time>2026-03-28T16:03:36Z</time></trkpt><trkpt lat="45.37738552277754" lon="11.800347219332252"><ele>10.0</ele><time>2026-03-28T16:03:37Z</time></trkpt><trkpt lat="45.377340787548114" lon="11.80060768279604"><ele>10.0</ele><time>2026-03-28T16:03:38Z</time></trkpt><trkpt lat="45.37730667115436" lon="11.800864585006504"><ele>10.666666666666668</ele><time>2026-03-28T16:03:39Z</time></trkpt><trkpt lat="45.377281968629326" lon="11.801121325449959"><ele>11.333333333333334</ele><time>2026-03-28T16:03:40Z</time></trkpt><trkpt lat="45.377265819460256" lon="11.801391125694861"><ele>12.0</ele><time>2026-03-28T16:03:41Z</time></trkpt><trkpt lat="45.37725799146715" lon="11.801663171244156"><ele>12.0</ele><time>2026-03-28T16:03:42Z</time></trkpt><trkpt lat="45.37725678504064" lon="11.801917370620801"><ele>12.0</ele><time>2026-03-28T16:03:43Z</time></trkpt><trkpt lat="45.37726577105274" lon="11.802154584763366"><ele>12.0</ele><time>2026-03-28T16:03:44Z</time></trkpt><trkpt lat="45.37727197489129" lon="11.802389467764947"><ele>12.0</ele><time>2026-03-28T16:03:45Z</time></trkpt><trkpt lat="45.37728638124143" lon="11.802631872548268"><ele>12.0</ele><time>2026-03-28T16:03:46Z</time></trkpt><trkpt lat="45.3773108049914" lon="11.802871080035146"><ele>12.0</ele><time>2026-03-28T16:03:47Z</time></trkpt><trkpt lat="45.37734963473557" lon="11.803120864435925"><ele>12.0</ele><time>2026-03-28T16:03:48Z</time></trkpt><trkpt lat="45.37739559163895" lon="11.803344159573658"><ele>12.0</ele><time>2026-03-28T16:03:49Z</time></trkpt><trkpt lat="45.37744530922081" lon="11.803567779573044"><ele>12.0</ele><time>2026-03-28T16:03:50Z</time></trkpt><trkpt lat="45.37750098533928" lon="11.80379298766598"><ele>12.0</ele><time>2026-03-28T16:03:51Z</time></trkpt><trkpt lat="45.37755923404759" lon="11.80402164613037"><ele>12.0</ele><time>2026-03-28T16:03:52Z</time></trkpt><trkpt lat="45.377622759596065" lon="11.804236121696448"><ele>12.0</ele><time>2026-03-28T16:03:53Z</time></trkpt><trkpt lat="45.37769788627838" lon="11.8044544109558"><ele>12.0</ele><time>2026-03-28T16:03:54Z</time></trkpt><trkpt lat="45.377780498691514" lon="11.804659860851073"><ele>12.0</ele><time>2026-03-28T16:03:54.999Z</time></trkpt><trkpt lat="45.37787241887047" lon="11.804871886773759"><ele>12.0</ele><time>2026-03-28T16:03:55.999Z</time></trkpt><trkpt lat="45.37796606391266" lon="11.805076838665881"><ele>12.0</ele><time>2026-03-28T16:03:56.999Z</time></trkpt><trkpt lat="45.37805995946404" lon="11.805269782415186"><ele>12.0</ele><time>2026-03-28T16:03:57.999Z</time></trkpt><trkpt lat="45.37816176039742" lon="11.805454155917328"><ele>12.0</ele><time>2026-03-28T16:03:58.999Z</time></trkpt><trkpt lat="45.37825911135981" lon="11.805616352730771"><ele>12.0</ele><time>2026-03-28T16:03:59.999Z</time></trkpt><trkpt lat="45.378359045167905" lon="11.805773240508133"><ele>12.0</ele><time>2026-03-28T16:04:00.999Z</time></trkpt><trkpt lat="45.37846697974955" lon="11.805930492866826"><ele>12.0</ele><time>2026-03-28T16:04:01.999Z</time></trkpt><trkpt lat="45.37858277460234" lon="11.806081768094828"><ele>12.0</ele><time>2026-03-28T16:04:02.999Z</time></trkpt><trkpt lat="45.378704256819525" lon="11.806231805223065"><ele>12.0</ele><time>2026-03-28T16:04:03.999Z</time></trkpt><trkpt lat="45.37882901714178" lon="11.806384942894981"><ele>12.0</ele><time>2026-03-28T16:04:04.999Z</time></trkpt><trkpt lat="45.378948606987976" lon="11.80653893289685"><ele>11.666666666666666</ele><time>2026-03-28T16:04:05.999Z</time></trkpt><trkpt lat="45.379071612820916" lon="11.80670756865074"><ele>11.333333333333332</ele><time>2026-03-28T16:04:06.999Z</time></trkpt><trkpt lat="45.37920112641187" lon="11.806866695630173"><ele>11.0</ele><time>2026-03-28T16:04:07.999Z</time></trkpt><trkpt lat="45.37933643681949" lon="11.807028234922084"><ele>11.0</ele><time>2026-03-28T16:04:08.999Z</time></trkpt><trkpt lat="45.37947013260579" lon="11.807188124903497"><ele>11.0</ele><time>2026-03-28T16:04:09.999Z</time></trkpt><trkpt lat="45.379605068680874" lon="11.807361311452373"><ele>11.0</ele><time>2026-03-28T16:04:10.999Z</time></trkpt><trkpt lat="45.379741257359484" lon="11.807522422347988"><ele>11.333333333333332</ele><time>2026-03-28T16:04:11.999Z</time></trkpt><trkpt lat="45.379875876485286" lon="11.807689791874683"><ele>11.666666666666666</ele><time>2026-03-28T16:04:12.999Z</time></trkpt><trkpt lat="45.38000460116707" lon="11.807840998208464"><ele>12.0</ele><time>2026-03-28T16:04:13.999Z</time></trkpt><trkpt lat="45.38012559696522" lon="11.807988850459447"><ele>12.0</ele><time>2026-03-28T16:04:14.999Z</time></trkpt><trkpt lat="45.38024650806597" lon="11.808130402003343"><ele>12.0</ele><time>2026-03-28T16:04:15.999Z</time></trkpt><trkpt lat="45.380375241534615" lon="11.808284555938465"><ele>12.0</ele><time>2026-03-28T16:04:16.999Z</time></trkpt><trkpt lat="45.380503217999006" lon="11.808436865879369"><ele>11.666666666666666</ele><time>2026-03-28T16:04:17.999Z</time></trkpt><trkpt lat="45.38063246044202" lon="11.808591466530538"><ele>11.333333333333332</ele><time>2026-03-28T16:04:18.999Z</time></trkpt><trkpt lat="45.38075957150412" lon="11.808745101286094"><ele>11.0</ele><time>2026-03-28T16:04:19.999Z</time></trkpt><trkpt lat="45.380891712597276" lon="11.808906224167355"><ele>11.0</ele><time>2026-03-28T16:04:20.999Z</time></trkpt><trkpt lat="45.381021093851416" lon="11.809059957595615"><ele>11.0</ele><time>2026-03-28T16:04:21.999Z</time></trkpt><trkpt lat="45.381152516326054" lon="11.809215345096435"><ele>11.0</ele><time>2026-03-28T16:04:22.999Z</time></trkpt><trkpt lat="45.38127767745656" lon="11.809367893837122"><ele>11.333333333333332</ele><time>2026-03-28T16:04:23.999Z</time></trkpt><trkpt lat="45.381404162335514" lon="11.809521928705243"><ele>11.666666666666666</ele><time>2026-03-28T16:04:24.999Z</time></trkpt><trkpt lat="45.38153253798696" lon="11.809682345459557"><ele>12.0</ele><time>2026-03-28T16:04:25.999Z</time></trkpt><trkpt lat="45.381658782975954" lon="11.809837825673384"><ele>12.0</ele><time>2026-03-28T16:04:26.999Z</time></trkpt><trkpt lat="45.38178504703515" lon="11.810003036670329"><ele>12.0</ele><time>2026-03-28T16:04:27.999Z</time></trkpt><trkpt lat="45.381908026856806" lon="11.810176532241613"><ele>12.0</ele><time>2026-03-28T16:04:28.999Z</time></trkpt><trkpt lat="45.38202486823319" lon="11.810344731096217"><ele>12.333333333333332</ele><time>2026-03-28T16:04:29.999Z</time></trkpt><trkpt lat="45.38213520099014" lon="11.810526379486664"><ele>12.666666666666666</ele><time>2026-03-28T16:04:30.999Z</time></trkpt><trkpt lat="45.38223959292679" lon="11.810716077893243"><ele>13.0</ele><time>2026-03-28T16:04:32Z</time></trkpt><trkpt lat="45.382340621456635" lon="11.810911010672854"><ele>12.666666666666666</ele><time>2026-03-28T16:04:33Z</time></trkpt><trkpt lat="45.38243878513746" lon="11.811109510886459"><ele>12.333333333333332</ele><time>2026-03-28T16:04:34Z</time></trkpt><trkpt lat="45.38252460972323" lon="11.811302913096895"><ele>12.0</ele><time>2026-03-28T16:04:35Z</time></trkpt><trkpt lat="45.3826038276001" lon="11.81148575467657"><ele>12.0</ele><time>2026-03-28T16:04:36Z</time></trkpt><trkpt lat="45.38267551335128" lon="11.811672547482813"><ele>12.0</ele><time>2026-03-28T16:04:37Z</time></trkpt><trkpt lat="45.382744991463746" lon="11.811871540895666"><ele>12.0</ele><time>2026-03-28T16:04:38Z</time></trkpt><trkpt lat="45.382810257626936" lon="11.812065905941827"><ele>11.666666666666666</ele><time>2026-03-28T16:04:39Z</time></trkpt><trkpt lat="45.382870717313715" lon="11.812275372947777"><ele>11.333333333333332</ele><time>2026-03-28T16:04:40Z</time></trkpt><trkpt lat="45.38292716398921" lon="11.812476981326197"><ele>11.0</ele><time>2026-03-28T16:04:41Z</time></trkpt><trkpt lat="45.382978745079114" lon="11.812697633685657"><ele>11.0</ele><time>2026-03-28T16:04:42Z</time></trkpt><trkpt lat="45.383024440190745" lon="11.81291854268354"><ele>11.0</ele><time>2026-03-28T16:04:43Z</time></trkpt><trkpt lat="45.38306464435471" lon="11.813151231757553"><ele>11.0</ele><time>2026-03-28T16:04:44Z</time></trkpt><trkpt lat="45.38310140866061" lon="11.8133815893487"><ele>11.0</ele><time>2026-03-28T16:04:45Z</time></trkpt><trkpt lat="45.383131205282396" lon="11.813621546223033"><ele>11.0</ele><time>2026-03-28T16:04:46Z</time></trkpt><trkpt lat="45.383156692504606" lon="11.81385696993265"><ele>11.0</ele><time>2026-03-28T16:04:47Z</time></trkpt><trkpt lat="45.3831795002416" lon="11.81406440272136"><ele>11.0</ele><time>2026-03-28T16:04:48Z</time></trkpt><trkpt lat="45.38319427672241" lon="11.814278747631692"><ele>11.0</ele><time>2026-03-28T16:04:49Z</time></trkpt><trkpt lat="45.383214199258184" lon="11.814511779358751"><ele>11.0</ele><time>2026-03-28T16:04:50Z</time></trkpt><trkpt lat="45.38323327104103" lon="11.814745048199715"><ele>11.333333333333332</ele><time>2026-03-28T16:04:51Z</time></trkpt><trkpt lat="45.38325322942367" lon="11.814951825849906"><ele>11.666666666666666</ele><time>2026-03-28T16:04:52Z</time></trkpt><trkpt lat="45.383266031017634" lon="11.815169650933624"><ele>12.0</ele><time>2026-03-28T16:04:53Z</time></trkpt><trkpt lat="45.38328261976362" lon="11.815394609662999"><ele>12.5</ele><time>2026-03-28T16:04:54Z</time></trkpt><trkpt lat="45.383296214642435" lon="11.815612040178442"><ele>13.0</ele><time>2026-03-28T16:04:55Z</time></trkpt><trkpt lat="45.383315651729866" lon="11.815825060348741"><ele>13.5</ele><time>2026-03-28T16:04:56Z</time></trkpt><trkpt lat="45.383337782952374" lon="11.816026696160177"><ele>14.0</ele><time>2026-03-28T16:04:57Z</time></trkpt><trkpt lat="45.38335694401332" lon="11.816235744823786"><ele>14.0</ele><time>2026-03-28T16:04:58Z</time></trkpt><trkpt lat="45.383377718411495" lon="11.81644045149209"><ele>14.0</ele><time>2026-03-28T16:04:59Z</time></trkpt><trkpt lat="45.383390824921484" lon="11.816652300257227"><ele>14.0</ele><time>2026-03-28T16:05:00Z</time></trkpt><trkpt lat="45.38340751245054" lon="11.816873465582173"><ele>13.333333333333334</ele><time>2026-03-28T16:05:01Z</time></trkpt><trkpt lat="45.38342644728954" lon="11.817100222926802"><ele>12.666666666666668</ele><time>2026-03-28T16:05:02Z</time></trkpt><trkpt lat="45.38344340424748" lon="11.817340855553969"><ele>12.0</ele><time>2026-03-28T16:05:03Z</time></trkpt><trkpt lat="45.38345407465823" lon="11.817585315521633"><ele>11.666666666666666</ele><time>2026-03-28T16:05:04Z</time></trkpt><trkpt lat="45.38345902202574" lon="11.817820148458367"><ele>11.333333333333332</ele><time>2026-03-28T16:05:05Z</time></trkpt><trkpt lat="45.38346480312922" lon="11.818066615417715"><ele>11.0</ele><time>2026-03-28T16:05:06Z</time></trkpt><trkpt lat="45.3834664604388" lon="11.818308236107185"><ele>10.333333333333332</ele><time>2026-03-28T16:05:07Z</time></trkpt><trkpt lat="45.383467407807224" lon="11.818544701845692"><ele>9.666666666666666</ele><time>2026-03-28T16:05:08Z</time></trkpt><trkpt lat="45.383463583014226" lon="11.818784024285911"><ele>9.0</ele><time>2026-03-28T16:05:09Z</time></trkpt><trkpt lat="45.383456942160564" lon="11.81902235426791"><ele>9.0</ele><time>2026-03-28T16:05:10Z</time></trkpt><trkpt lat="45.38344712016423" lon="11.81926143213998"><ele>9.0</ele><time>2026-03-28T16:05:11Z</time></trkpt><trkpt lat="45.38343486267635" lon="11.819500442449169"><ele>9.0</ele><time>2026-03-28T16:05:12Z</time></trkpt><trkpt lat="45.38341845305885" lon="11.819739705235815"><ele>9.333333333333334</ele><time>2026-03-28T16:05:13Z</time></trkpt><trkpt lat="45.38339844481144" lon="11.81996238832354"><ele>9.666666666666668</ele><time>2026-03-28T16:05:14Z</time></trkpt><trkpt lat="45.383380291060014" lon="11.820173629298734"><ele>10.0</ele><time>2026-03-28T16:05:15Z</time></trkpt><trkpt lat="45.38335914264268" lon="11.820376134813316"><ele>10.0</ele><time>2026-03-28T16:05:16Z</time></trkpt><trkpt lat="45.38333600823428" lon="11.82057029366829"><ele>10.0</ele><time>2026-03-28T16:05:17Z</time></trkpt><trkpt lat="45.38331115349265" lon="11.820766639213494"><ele>10.0</ele><time>2026-03-28T16:05:18Z</time></trkpt><trkpt lat="45.38328782906943" lon="11.820961145339801"><ele>10.0</ele><time>2026-03-28T16:05:19Z</time></trkpt><trkpt lat="45.383261940203575" lon="11.821170111453096"><ele>10.0</ele><time>2026-03-28T16:05:20Z</time></trkpt><trkpt lat="45.383234350611055" lon="11.82137524979752"><ele>10.0</ele><time>2026-03-28T16:05:21Z</time></trkpt><trkpt lat="45.38320447291501" lon="11.821585630476813"><ele>10.0</ele><time>2026-03-28T16:05:22Z</time></trkpt><trkpt lat="45.38317809012718" lon="11.82179067264481"><ele>10.0</ele><time>2026-03-28T16:05:23Z</time></trkpt><trkpt lat="45.38315088500588" lon="11.822000824958735"><ele>10.25</ele><time>2026-03-28T16:05:24Z</time></trkpt><trkpt lat="45.383124429456316" lon="11.822207502569148"><ele>10.5</ele><time>2026-03-28T16:05:25Z</time></trkpt><trkpt lat="45.3830985249231" lon="11.82242003316642"><ele>10.75</ele><time>2026-03-28T16:05:26Z</time></trkpt><trkpt lat="45.383072328089526" lon="11.822622411439397"><ele>11.0</ele><time>2026-03-28T16:05:27Z</time></trkpt><trkpt lat="45.383044492891" lon="11.822826616913574"><ele>11.0</ele><time>2026-03-28T16:05:28Z</time></trkpt><trkpt lat="45.3830135978278" lon="11.823033516813387"><ele>11.0</ele><time>2026-03-28T16:05:29Z</time></trkpt><trkpt lat="45.38298381588625" lon="11.823241392518833"><ele>11.0</ele><time>2026-03-28T16:05:30Z</time></trkpt><trkpt lat="45.38294295163099" lon="11.823453482444153"><ele>11.0</ele><time>2026-03-28T16:05:30.999Z</time></trkpt><trkpt lat="45.382898481221346" lon="11.823665822056725"><ele>11.0</ele><time>2026-03-28T16:05:31.999Z</time></trkpt><trkpt lat="45.38284898870358" lon="11.823894429560982"><ele>11.0</ele><time>2026-03-28T16:05:32.999Z</time></trkpt><trkpt lat="45.38279081486975" lon="11.824133992494477"><ele>11.0</ele><time>2026-03-28T16:05:33.999Z</time></trkpt><trkpt lat="45.38272464498489" lon="11.824366254165014"><ele>11.0</ele><time>2026-03-28T16:05:34.999Z</time></trkpt><trkpt lat="45.38265675089978" lon="11.824573856174435"><ele>11.0</ele><time>2026-03-28T16:05:35.999Z</time></trkpt><trkpt lat="45.38259489527909" lon="11.824751473581586"><ele>11.0</ele><time>2026-03-28T16:05:36.999Z</time></trkpt><trkpt lat="45.382529089638815" lon="11.824924983748193"><ele>11.0</ele><time>2026-03-28T16:05:37.999Z</time></trkpt><trkpt lat="45.38246558168469" lon="11.825106861007976"><ele>11.0</ele><time>2026-03-28T16:05:38.999Z</time></trkpt><trkpt lat="45.382392117914954" lon="11.825299265871418"><ele>11.0</ele><time>2026-03-28T16:05:39.999Z</time></trkpt><trkpt lat="45.382321219763284" lon="11.82548521914511"><ele>11.0</ele><time>2026-03-28T16:05:40.999Z</time></trkpt><trkpt lat="45.382253896392264" lon="11.82567526601396"><ele>11.0</ele><time>2026-03-28T16:05:41.999Z</time></trkpt><trkpt lat="45.38219003742777" lon="11.825875911315674"><ele>11.0</ele><time>2026-03-28T16:05:42.999Z</time></trkpt><trkpt lat="45.38211829053213" lon="11.826103089205855"><ele>11.0</ele><time>2026-03-28T16:05:43.999Z</time></trkpt><trkpt lat="45.38204157432972" lon="11.826344076622137"><ele>11.0</ele><time>2026-03-28T16:05:44.999Z</time></trkpt><trkpt lat="45.38196751826382" lon="11.826580949151122"><ele>11.0</ele><time>2026-03-28T16:05:45.999Z</time></trkpt><trkpt lat="45.38188048303552" lon="11.826856585272164"><ele>11.0</ele><time>2026-03-28T16:05:46.999Z</time></trkpt><trkpt lat="45.381791008326395" lon="11.82713458896939"><ele>11.0</ele><time>2026-03-28T16:05:47.999Z</time></trkpt><trkpt lat="45.38169469892538" lon="11.827426485991019"><ele>11.0</ele><time>2026-03-28T16:05:48.999Z</time></trkpt><trkpt lat="45.381593653480664" lon="11.827733516489198"><ele>11.666666666666666</ele><time>2026-03-28T16:05:49.999Z</time></trkpt><trkpt lat="45.38150006427054" lon="11.828016217335225"><ele>12.333333333333332</ele><time>2026-03-28T16:05:50.999Z</time></trkpt><trkpt lat="45.38141285576875" lon="11.8282870041032"><ele>13.0</ele><time>2026-03-28T16:05:51.999Z</time></trkpt><trkpt lat="45.38132699307189" lon="11.8285523845612"><ele>13.666666666666666</ele><time>2026-03-28T16:05:52.999Z</time></trkpt><trkpt lat="45.381246230011016" lon="11.828803072105362"><ele>14.333333333333332</ele><time>2026-03-28T16:05:53.999Z</time></trkpt><trkpt lat="45.38116591716071" lon="11.829052685986774"><ele>15.0</ele><time>2026-03-28T16:05:54.999Z</time></trkpt><trkpt lat="45.3810835057434" lon="11.829309052403788"><ele>15.0</ele><time>2026-03-28T16:05:55.999Z</time></trkpt><trkpt lat="45.381005771837415" lon="11.829563050447174"><ele>15.0</ele><time>2026-03-28T16:05:56.999Z</time></trkpt><trkpt lat="45.38091425817613" lon="11.829832991119911"><ele>15.0</ele><time>2026-03-28T16:05:57.999Z</time></trkpt><trkpt lat="45.38082792934547" lon="11.83010332857599"><ele>14.0</ele><time>2026-03-28T16:05:58.999Z</time></trkpt><trkpt lat="45.38074253964975" lon="11.83037172649657"><ele>13.0</ele><time>2026-03-28T16:05:59.999Z</time></trkpt><trkpt lat="45.38065694161435" lon="11.830644092147365"><ele>12.0</ele><time>2026-03-28T16:06:00.999Z</time></trkpt><trkpt lat="45.380565543671906" lon="11.830924734129896"><ele>12.0</ele><time>2026-03-28T16:06:01.999Z</time></trkpt><trkpt lat="45.38047829778563" lon="11.831202562633862"><ele>12.0</ele><time>2026-03-28T16:06:02.999Z</time></trkpt><trkpt lat="45.38038182712411" lon="11.831489595449101"><ele>12.0</ele><time>2026-03-28T16:06:03.999Z</time></trkpt><trkpt lat="45.38028769235236" lon="11.831777011758769"><ele>12.0</ele><time>2026-03-28T16:06:04.999Z</time></trkpt><trkpt lat="45.38019436083853" lon="11.832067097752162"><ele>12.0</ele><time>2026-03-28T16:06:05.999Z</time></trkpt><trkpt lat="45.38010023321137" lon="11.83235260208247"><ele>12.0</ele><time>2026-03-28T16:06:06.999Z</time></trkpt><trkpt lat="45.38000892353531" lon="11.832639984519979"><ele>12.0</ele><time>2026-03-28T16:06:07.999Z</time></trkpt><trkpt lat="45.37991024945047" lon="11.832925246435765"><ele>12.0</ele><time>2026-03-28T16:06:08.999Z</time></trkpt><trkpt lat="45.37981390554844" lon="11.833202740781754"><ele>12.0</ele><time>2026-03-28T16:06:09.999Z</time></trkpt><trkpt lat="45.37971873550432" lon="11.833478036771659"><ele>12.0</ele><time>2026-03-28T16:06:10.999Z</time></trkpt><trkpt lat="45.37962833507793" lon="11.833755696488232"><ele>12.0</ele><time>2026-03-28T16:06:11.999Z</time></trkpt><trkpt lat="45.37954345524717" lon="11.834031529373096"><ele>12.0</ele><time>2026-03-28T16:06:12.999Z</time></trkpt><trkpt lat="45.379455999849235" lon="11.834311837072333"><ele>11.666666666666666</ele><time>2026-03-28T16:06:13.999Z</time></trkpt><trkpt lat="45.379369240278905" lon="11.834591684257255"><ele>11.333333333333332</ele><time>2026-03-28T16:06:14.999Z</time></trkpt><trkpt lat="45.37928145508759" lon="11.834870050213775"><ele>11.0</ele><time>2026-03-28T16:06:15.999Z</time></trkpt><trkpt lat="45.379193921781706" lon="11.835149932225463"><ele>10.666666666666666</ele><time>2026-03-28T16:06:16.999Z</time></trkpt><trkpt lat="45.379107375985534" lon="11.835431917100859"><ele>10.333333333333334</ele><time>2026-03-28T16:06:17.999Z</time></trkpt><trkpt lat="45.379022201706476" lon="11.835712362653204"><ele>10.0</ele><time>2026-03-28T16:06:18.999Z</time></trkpt><trkpt lat="45.37893482739673" lon="11.835992072361922"><ele>10.0</ele><time>2026-03-28T16:06:19.999Z</time></trkpt><trkpt lat="45.37885199090714" lon="11.836274229850803"><ele>10.0</ele><time>2026-03-28T16:06:20.999Z</time></trkpt><trkpt lat="45.37876882022879" lon="11.836552036037595"><ele>10.0</ele><time>2026-03-28T16:06:21.999Z</time></trkpt><trkpt lat="45.37868221275968" lon="11.836834631992394"><ele>10.0</ele><time>2026-03-28T16:06:22.999Z</time></trkpt><trkpt lat="45.37859697454395" lon="11.83711374435949"><ele>10.0</ele><time>2026-03-28T16:06:23.999Z</time></trkpt><trkpt lat="45.378510243291274" lon="11.837398038839961"><ele>10.0</ele><time>2026-03-28T16:06:24.999Z</time></trkpt><trkpt lat="45.37842559525661" lon="11.83768110013838"><ele>9.666666666666668</ele><time>2026-03-28T16:06:25.999Z</time></trkpt><trkpt lat="45.37834074687614" lon="11.837962843725386"><ele>9.333333333333334</ele><time>2026-03-28T16:06:26.999Z</time></trkpt><trkpt lat="45.37825418190771" lon="11.838246749055147"><ele>9.0</ele><time>2026-03-28T16:06:27.999Z</time></trkpt><trkpt lat="45.3781678227638" lon="11.838529838915534"><ele>9.0</ele><time>2026-03-28T16:06:28.999Z</time></trkpt><trkpt lat="45.37808252639347" lon="11.83881360379725"><ele>9.0</ele><time>2026-03-28T16:06:29.999Z</time></trkpt><trkpt lat="45.377996128098154" lon="11.839097231991104"><ele>9.0</ele><time>2026-03-28T16:06:30.999Z</time></trkpt><trkpt lat="45.37791010348824" lon="11.839380556633834"><ele>9.0</ele><time>2026-03-28T16:06:31.999Z</time></trkpt><trkpt lat="45.377824222948426" lon="11.839664817599807"><ele>9.0</ele><time>2026-03-28T16:06:32.999Z</time></trkpt><trkpt lat="45.37773939113028" lon="11.839947807288072"><ele>9.0</ele><time>2026-03-28T16:06:33.999Z</time></trkpt><trkpt lat="45.377655836300995" lon="11.840233384758488"><ele>9.0</ele><time>2026-03-28T16:06:34.999Z</time></trkpt><trkpt lat="45.37757609162878" lon="11.840518951200064"><ele>9.0</ele><time>2026-03-28T16:06:35.999Z</time></trkpt><trkpt lat="45.37749408763614" lon="11.840808131310785"><ele>9.0</ele><time>2026-03-28T16:06:36.999Z</time></trkpt><trkpt lat="45.37740942737504" lon="11.841090756507654"><ele>9.0</ele><time>2026-03-28T16:06:38Z</time></trkpt><trkpt lat="45.37731968457758" lon="11.841372954604145"><ele>9.0</ele><time>2026-03-28T16:06:39Z</time></trkpt><trkpt lat="45.37722927413375" lon="11.84165445996173"><ele>9.0</ele><time>2026-03-28T16:06:40Z</time></trkpt><trkpt lat="45.37713786392134" lon="11.841933820599497"><ele>9.0</ele><time>2026-03-28T16:06:41Z</time></trkpt><trkpt lat="45.37704763708959" lon="11.842211610437479"><ele>9.0</ele><time>2026-03-28T16:06:42Z</time></trkpt><trkpt lat="45.37695089455492" lon="11.842486803286498"><ele>9.0</ele><time>2026-03-28T16:06:43Z</time></trkpt><trkpt lat="45.37685863376796" lon="11.842763649657503"><ele>9.333333333333334</ele><time>2026-03-28T16:06:44Z</time></trkpt><trkpt lat="45.37676291427757" lon="11.843042280036217"><ele>9.666666666666668</ele><time>2026-03-28T16:06:45Z</time></trkpt><trkpt lat="45.37667173513466" lon="11.843317622556432"><ele>10.0</ele><time>2026-03-28T16:06:46Z</time></trkpt><trkpt lat="45.37657359022084" lon="11.843594964890567"><ele>10.0</ele><time>2026-03-28T16:06:47Z</time></trkpt><trkpt lat="45.376477007951436" lon="11.843872649071345"><ele>10.0</ele><time>2026-03-28T16:06:48Z</time></trkpt><trkpt lat="45.376381256303226" lon="11.844148384535314"><ele>10.0</ele><time>2026-03-28T16:06:49Z</time></trkpt><trkpt lat="45.376283495224094" lon="11.844423219687577"><ele>10.0</ele><time>2026-03-28T16:06:50Z</time></trkpt><trkpt lat="45.37619659288882" lon="11.844671848574043"><ele>10.0</ele><time>2026-03-28T16:06:51Z</time></trkpt><trkpt lat="45.37611173983138" lon="11.844910826106167"><ele>10.0</ele><time>2026-03-28T16:06:52Z</time></trkpt><trkpt lat="45.376025856629596" lon="11.845146910020938"><ele>10.0</ele><time>2026-03-28T16:06:53Z</time></trkpt><trkpt lat="45.37594100228472" lon="11.845391497582975"><ele>10.0</ele><time>2026-03-28T16:06:54Z</time></trkpt><trkpt lat="45.375852760786785" lon="11.84563992584432"><ele>10.0</ele><time>2026-03-28T16:06:55Z</time></trkpt><trkpt lat="45.37576615697711" lon="11.845888688021374"><ele>10.333333333333334</ele><time>2026-03-28T16:06:56Z</time></trkpt><trkpt lat="45.37568097797666" lon="11.846137055591562"><ele>10.666666666666666</ele><time>2026-03-28T16:06:57Z</time></trkpt><trkpt lat="45.37558846838386" lon="11.84637835421346"><ele>11.0</ele><time>2026-03-28T16:06:58Z</time></trkpt><trkpt lat="45.37549801678496" lon="11.846614495202207"><ele>11.333333333333332</ele><time>2026-03-28T16:06:59Z</time></trkpt><trkpt lat="45.37540252191864" lon="11.84685623628193"><ele>11.666666666666666</ele><time>2026-03-28T16:07:00Z</time></trkpt><trkpt lat="45.37530683294884" lon="11.84710608132231"><ele>12.0</ele><time>2026-03-28T16:07:01Z</time></trkpt><trkpt lat="45.375211452947944" lon="11.847362808202531"><ele>12.0</ele><time>2026-03-28T16:07:02Z</time></trkpt><trkpt lat="45.375120018099615" lon="11.847613865591939"><ele>12.0</ele><time>2026-03-28T16:07:03Z</time></trkpt><trkpt lat="45.37502275321381" lon="11.847877330491578"><ele>12.0</ele><time>2026-03-28T16:07:04Z</time></trkpt><trkpt lat="45.37492306159705" lon="11.84813672432238"><ele>12.0</ele><time>2026-03-28T16:07:05Z</time></trkpt><trkpt lat="45.37482300508535" lon="11.848394016706584"><ele>12.0</ele><time>2026-03-28T16:07:06Z</time></trkpt><trkpt lat="45.374728305363284" lon="11.84864424181982"><ele>12.0</ele><time>2026-03-28T16:07:07Z</time></trkpt><trkpt lat="45.374632533797765" lon="11.848895071905016"><ele>12.0</ele><time>2026-03-28T16:07:08Z</time></trkpt><trkpt lat="45.37453726101311" lon="11.849143841770884"><ele>12.0</ele><time>2026-03-28T16:07:09Z</time></trkpt><trkpt lat="45.374443694015554" lon="11.849397120347854"><ele>12.0</ele><time>2026-03-28T16:07:10Z</time></trkpt><trkpt lat="45.37435022916325" lon="11.849651824214328"><ele>12.0</ele><time>2026-03-28T16:07:11Z</time></trkpt><trkpt lat="45.37425065815108" lon="11.849905320820959"><ele>12.0</ele><time>2026-03-28T16:07:12Z</time></trkpt><trkpt lat="45.37415611143123" lon="11.850148052304743"><ele>12.0</ele><time>2026-03-28T16:07:13Z</time></trkpt><trkpt lat="45.374057480081674" lon="11.85040121615653"><ele>12.0</ele><time>2026-03-28T16:07:14Z</time></trkpt><trkpt lat="45.37395574120105" lon="11.850647234512577"><ele>12.0</ele><time>2026-03-28T16:07:15Z</time></trkpt><trkpt lat="45.37384642950388" lon="11.850898936842903"><ele>12.0</ele><time>2026-03-28T16:07:16Z</time></trkpt><trkpt lat="45.373735071867245" lon="11.851149114846741"><ele>12.0</ele><time>2026-03-28T16:07:17Z</time></trkpt><trkpt lat="45.37361674201855" lon="11.851395198725912"><ele>12.0</ele><time>2026-03-28T16:07:18Z</time></trkpt><trkpt lat="45.37349242211808" lon="11.851640532076887"><ele>12.0</ele><time>2026-03-28T16:07:19Z</time></trkpt><trkpt lat="45.37335948927466" lon="11.851882212790338"><ele>12.333333333333332</ele><time>2026-03-28T16:07:20Z</time></trkpt><trkpt lat="45.37321648516877" lon="11.852112886162743"><ele>12.666666666666666</ele><time>2026-03-28T16:07:21Z</time></trkpt><trkpt lat="45.37306139602899" lon="11.852333501116156"><ele>13.0</ele><time>2026-03-28T16:07:22Z</time></trkpt><trkpt lat="45.37290465644616" lon="11.852542628975076"><ele>12.333333333333332</ele><time>2026-03-28T16:07:23Z</time></trkpt><trkpt lat="45.37274135006146" lon="11.852750970513805"><ele>11.666666666666666</ele><time>2026-03-28T16:07:24Z</time></trkpt><trkpt lat="45.37257730662502" lon="11.852952583155087"><ele>11.0</ele><time>2026-03-28T16:07:25Z</time></trkpt><trkpt lat="45.37240422126752" lon="11.853144372043714"><ele>11.0</ele><time>2026-03-28T16:07:26Z</time></trkpt><trkpt lat="45.372226527814256" lon="11.853327154181024"><ele>11.0</ele><time>2026-03-28T16:07:27Z</time></trkpt><trkpt lat="45.37204522953901" lon="11.85349489288078"><ele>11.0</ele><time>2026-03-28T16:07:28Z</time></trkpt><trkpt lat="45.37186137757216" lon="11.853656441469845"><ele>11.0</ele><time>2026-03-28T16:07:29Z</time></trkpt><trkpt lat="45.371670367808825" lon="11.853805545180792"><ele>11.0</ele><time>2026-03-28T16:07:30Z</time></trkpt><trkpt lat="45.37147819141482" lon="11.853943440465438"><ele>11.0</ele><time>2026-03-28T16:07:31Z</time></trkpt><trkpt lat="45.37128121345566" lon="11.854063619638564"><ele>11.0</ele><time>2026-03-28T16:07:32Z</time></trkpt><trkpt lat="45.37107822143298" lon="11.854164946382678"><ele>11.0</ele><time>2026-03-28T16:07:33Z</time></trkpt><trkpt lat="45.37086939967965" lon="11.854252108859717"><ele>11.0</ele><time>2026-03-28T16:07:34Z</time></trkpt><trkpt lat="45.370658255635284" lon="11.854330172107392"><ele>11.333333333333332</ele><time>2026-03-28T16:07:35Z</time></trkpt><trkpt lat="45.370449349856436" lon="11.854404974746354"><ele>11.666666666666666</ele><time>2026-03-28T16:07:36Z</time></trkpt><trkpt lat="45.37024227900852" lon="11.854469987404366"><ele>12.0</ele><time>2026-03-28T16:07:37Z</time></trkpt><trkpt lat="45.3700274719572" lon="11.854521716090712"><ele>12.0</ele><time>2026-03-28T16:07:38Z</time></trkpt><trkpt lat="45.36981207738993" lon="11.854557678136173"><ele>12.0</ele><time>2026-03-28T16:07:39Z</time></trkpt><trkpt lat="45.36959399274159" lon="11.85457947970375"><ele>12.0</ele><time>2026-03-28T16:07:40Z</time></trkpt><trkpt lat="45.36937271133805" lon="11.854591249766228"><ele>12.0</ele><time>2026-03-28T16:07:41Z</time></trkpt><trkpt lat="45.36915857331798" lon="11.854601030561012"><ele>12.0</ele><time>2026-03-28T16:07:42Z</time></trkpt><trkpt lat="45.36893317296771" lon="11.854610367452679"><ele>12.0</ele><time>2026-03-28T16:07:43Z</time></trkpt><trkpt lat="45.36872109709987" lon="11.854624958883663"><ele>11.666666666666666</ele><time>2026-03-28T16:07:44Z</time></trkpt><trkpt lat="45.36850220763859" lon="11.854637129348973"><ele>11.333333333333332</ele><time>2026-03-28T16:07:45Z</time></trkpt><trkpt lat="45.36828355646174" lon="11.854649028587756"><ele>11.0</ele><time>2026-03-28T16:07:46Z</time></trkpt><trkpt lat="45.36806562467172" lon="11.854663396217553"><ele>10.333333333333332</ele><time>2026-03-28T16:07:47Z</time></trkpt><trkpt lat="45.36784916523835" lon="11.854676664480188"><ele>9.666666666666666</ele><time>2026-03-28T16:07:48Z</time></trkpt><trkpt lat="45.36763296563382" lon="11.854688883951924"><ele>9.0</ele><time>2026-03-28T16:07:49Z</time></trkpt><trkpt lat="45.367417414126045" lon="11.854703019934727"><ele>9.0</ele><time>2026-03-28T16:07:50Z</time></trkpt><trkpt lat="45.3672005155794" lon="11.85471472456432"><ele>9.0</ele><time>2026-03-28T16:07:51Z</time></trkpt><trkpt lat="45.36698254381265" lon="11.854723267548932"><ele>9.0</ele><time>2026-03-28T16:07:52Z</time></trkpt><trkpt lat="45.36676623904564" lon="11.854731706172817"><ele>8.666666666666666</ele><time>2026-03-28T16:07:53Z</time></trkpt><trkpt lat="45.366546129462066" lon="11.85473560918866"><ele>8.333333333333332</ele><time>2026-03-28T16:07:54Z</time></trkpt><trkpt lat="45.36632803395555" lon="11.854736010028"><ele>8.0</ele><time>2026-03-28T16:07:55Z</time></trkpt><trkpt lat="45.36612017130296" lon="11.854739132290657"><ele>8.666666666666666</ele><time>2026-03-28T16:07:56Z</time></trkpt><trkpt lat="45.365925606622135" lon="11.854741098411274"><ele>9.333333333333334</ele><time>2026-03-28T16:07:57Z</time></trkpt><trkpt lat="45.36575042663767" lon="11.85474584493174"><ele>10.0</ele><time>2026-03-28T16:07:58Z</time></trkpt><trkpt lat="45.36558957516658" lon="11.854748571316057"><ele>9.25</ele><time>2026-03-28T16:07:59Z</time></trkpt><trkpt lat="45.36543389830767" lon="11.85473784482255"><ele>8.5</ele><time>2026-03-28T16:08:00Z</time></trkpt><trkpt lat="45.36528604983711" lon="11.854713709087083"><ele>7.75</ele><time>2026-03-28T16:08:01Z</time></trkpt><trkpt lat="45.36515567967779" lon="11.854651351101818"><ele>7.0</ele><time>2026-03-28T16:08:02Z</time></trkpt><trkpt lat="45.36503111439484" lon="11.854569497893424"><ele>7.0</ele><time>2026-03-28T16:08:03Z</time></trkpt><trkpt lat="45.36490619611073" lon="11.85447812700222"><ele>7.0</ele><time>2026-03-28T16:08:04Z</time></trkpt><trkpt lat="45.36479040298245" lon="11.854359804842518"><ele>7.0</ele><time>2026-03-28T16:08:05Z</time></trkpt><trkpt lat="45.36468600090125" lon="11.854221995548794"><ele>7.0</ele><time>2026-03-28T16:08:06Z</time></trkpt><trkpt lat="45.36456365441901" lon="11.854062388828313"><ele>7.666666666666667</ele><time>2026-03-28T16:08:07Z</time></trkpt><trkpt lat="45.36442085783446" lon="11.853890672067118"><ele>8.333333333333334</ele><time>2026-03-28T16:08:08Z</time></trkpt><trkpt lat="45.36429200404081" lon="11.85372845644469"><ele>9.0</ele><time>2026-03-28T16:08:08.999Z</time></trkpt><trkpt lat="45.364170449621206" lon="11.85356876437444"><ele>9.0</ele><time>2026-03-28T16:08:09.999Z</time></trkpt><trkpt lat="45.36405315592129" lon="11.853447432012644"><ele>9.0</ele><time>2026-03-28T16:08:10.999Z</time></trkpt><trkpt lat="45.36392691463547" lon="11.85335317682996"><ele>9.0</ele><time>2026-03-28T16:08:11.999Z</time></trkpt><trkpt lat="45.36379704954144" lon="11.8533052559244"><ele>9.0</ele><time>2026-03-28T16:08:12.999Z</time></trkpt><trkpt lat="45.363672074602746" lon="11.853303387996593"><ele>8.5</ele><time>2026-03-28T16:08:13.999Z</time></trkpt><trkpt lat="45.363541132990406" lon="11.853336394538323"><ele>8.0</ele><time>2026-03-28T16:08:14.999Z</time></trkpt><trkpt lat="45.36341359896627" lon="11.853409981033982"><ele>7.5</ele><time>2026-03-28T16:08:15.999Z</time></trkpt><trkpt lat="45.36330218202704" lon="11.853523844499382"><ele>7.0</ele><time>2026-03-28T16:08:16.999Z</time></trkpt><trkpt lat="45.36321432627118" lon="11.853668399441139"><ele>7.0</ele><time>2026-03-28T16:08:17.999Z</time></trkpt><trkpt lat="45.36314891742297" lon="11.853836149188067"><ele>7.0</ele><time>2026-03-28T16:08:18.999Z</time></trkpt><trkpt lat="45.363106355956944" lon="11.854029287276525"><ele>7.0</ele><time>2026-03-28T16:08:19.999Z</time></trkpt><trkpt lat="45.36309638629367" lon="11.854234442417344"><ele>7.0</ele><time>2026-03-28T16:08:20.999Z</time></trkpt><trkpt lat="45.36310456295745" lon="11.854455998255425"><ele>7.0</ele><time>2026-03-28T16:08:21.999Z</time></trkpt><trkpt lat="45.363126539600245" lon="11.854687577757122"><ele>7.0</ele><time>2026-03-28T16:08:22.999Z</time></trkpt><trkpt lat="45.3631508209238" lon="11.85497346847719"><ele>7.0</ele><time>2026-03-28T16:08:23.999Z</time></trkpt><trkpt lat="45.36316900358519" lon="11.855324171836498"><ele>6.5</ele><time>2026-03-28T16:08:24.999Z</time></trkpt><trkpt lat="45.363191815339356" lon="11.855718000420497"><ele>6.0</ele><time>2026-03-28T16:08:25.999Z</time></trkpt><trkpt lat="45.36321412612633" lon="11.856071107213273"><ele>6.0</ele><time>2026-03-28T16:08:26.999Z</time></trkpt><trkpt lat="45.363227159976866" lon="11.856373094929493"><ele>6.0</ele><time>2026-03-28T16:08:27.999Z</time></trkpt><trkpt lat="45.36323779527467" lon="11.856667142251625"><ele>6.0</ele><time>2026-03-28T16:08:28.999Z</time></trkpt><trkpt lat="45.363253201668726" lon="11.85694026181205"><ele>6.666666666666666</ele><time>2026-03-28T16:08:29.999Z</time></trkpt><trkpt lat="45.36326904252522" lon="11.857201621777772"><ele>7.333333333333333</ele><time>2026-03-28T16:08:30.999Z</time></trkpt><trkpt lat="45.36328443617051" lon="11.857459437510485"><ele>8.0</ele><time>2026-03-28T16:08:31.999Z</time></trkpt><trkpt lat="45.36329858366283" lon="11.857716263475996"><ele>8.0</ele><time>2026-03-28T16:08:32.999Z</time></trkpt><trkpt lat="45.36331057806754" lon="11.857977463558596"><ele>8.0</ele><time>2026-03-28T16:08:33.999Z</time></trkpt><trkpt lat="45.36331942998255" lon="11.858234283686238"><ele>8.0</ele><time>2026-03-28T16:08:34.999Z</time></trkpt><trkpt lat="45.36332957453895" lon="11.858487554077985"><ele>8.0</ele><time>2026-03-28T16:08:35.999Z</time></trkpt><trkpt lat="45.36334205361873" lon="11.858773995761107"><ele>8.0</ele><time>2026-03-28T16:08:36.999Z</time></trkpt><trkpt lat="45.363360818279894" lon="11.859067281592878"><ele>8.0</ele><time>2026-03-28T16:08:37.999Z</time></trkpt><trkpt lat="45.36338095021048" lon="11.859364524135943"><ele>7.666666666666666</ele><time>2026-03-28T16:08:38.999Z</time></trkpt><trkpt lat="45.36339698414646" lon="11.859664722185567"><ele>7.333333333333334</ele><time>2026-03-28T16:08:39.999Z</time></trkpt><trkpt lat="45.36341215065753" lon="11.85996794915849"><ele>7.0</ele><time>2026-03-28T16:08:40.999Z</time></trkpt><trkpt lat="45.36342996589771" lon="11.860279689581636"><ele>7.0</ele><time>2026-03-28T16:08:41.999Z</time></trkpt><trkpt lat="45.36344844250513" lon="11.860591113402409"><ele>7.0</ele><time>2026-03-28T16:08:42.999Z</time></trkpt><trkpt lat="45.36346182252271" lon="11.860912158704298"><ele>7.0</ele><time>2026-03-28T16:08:44Z</time></trkpt><trkpt lat="45.36347635298623" lon="11.861223862179436"><ele>7.333333333333334</ele><time>2026-03-28T16:08:45Z</time></trkpt><trkpt lat="45.36349184380188" lon="11.861539191258787"><ele>7.666666666666666</ele><time>2026-03-28T16:08:46Z</time></trkpt><trkpt lat="45.363509837973446" lon="11.861854882160037"><ele>8.0</ele><time>2026-03-28T16:08:47Z</time></trkpt><trkpt lat="45.363527610240325" lon="11.862171709107447"><ele>8.0</ele><time>2026-03-28T16:08:48Z</time></trkpt><trkpt lat="45.363542407171" lon="11.8624717571003"><ele>8.0</ele><time>2026-03-28T16:08:49Z</time></trkpt><trkpt lat="45.36355681728687" lon="11.862765011520327"><ele>8.0</ele><time>2026-03-28T16:08:50Z</time></trkpt><trkpt lat="45.36357284606404" lon="11.863050311307223"><ele>7.5</ele><time>2026-03-28T16:08:51Z</time></trkpt><trkpt lat="45.36359319133023" lon="11.863361915500219"><ele>7.0</ele><time>2026-03-28T16:08:52Z</time></trkpt><trkpt lat="45.36361116905934" lon="11.86369101662761"><ele>7.0</ele><time>2026-03-28T16:08:53Z</time></trkpt><trkpt lat="45.363629557872244" lon="11.864035639822855"><ele>7.0</ele><time>2026-03-28T16:08:54Z</time></trkpt><trkpt lat="45.363643394880604" lon="11.864400579675932"><ele>7.5</ele><time>2026-03-28T16:08:55Z</time></trkpt><trkpt lat="45.36366391008439" lon="11.864782941350738"><ele>8.0</ele><time>2026-03-28T16:08:56Z</time></trkpt><trkpt lat="45.36368754375773" lon="11.865198858384693"><ele>8.0</ele><time>2026-03-28T16:08:57Z</time></trkpt><trkpt lat="45.36371357284041" lon="11.865649206141422"><ele>8.0</ele><time>2026-03-28T16:08:58Z</time></trkpt><trkpt lat="45.36374747530791" lon="11.866122960257423"><ele>8.0</ele><time>2026-03-28T16:08:59Z</time></trkpt><trkpt lat="45.363789272350004" lon="11.866619144134756"><ele>8.0</ele><time>2026-03-28T16:09:00Z</time></trkpt><trkpt lat="45.36383138245572" lon="11.867095288248743"><ele>8.0</ele><time>2026-03-28T16:09:01Z</time></trkpt><trkpt lat="45.36388136240992" lon="11.867597143025463"><ele>8.0</ele><time>2026-03-28T16:09:02Z</time></trkpt><trkpt lat="45.36393807495232" lon="11.868133029482015"><ele>8.0</ele><time>2026-03-28T16:09:03Z</time></trkpt><trkpt lat="45.363998618530346" lon="11.868674605341301"><ele>8.0</ele><time>2026-03-28T16:09:04Z</time></trkpt><trkpt lat="45.36406222015004" lon="11.869151002970176"><ele>8.0</ele><time>2026-03-28T16:09:05Z</time></trkpt><trkpt lat="45.3641218570041" lon="11.869567640290315"><ele>8.0</ele><time>2026-03-28T16:09:06Z</time></trkpt><trkpt lat="45.36418036469173" lon="11.869965529097442"><ele>9.5</ele><time>2026-03-28T16:09:07Z</time></trkpt><trkpt lat="45.36424671281602" lon="11.870367323872058"><ele>11.0</ele><time>2026-03-28T16:09:08Z</time></trkpt><trkpt lat="45.36431918749892" lon="11.870790364825385"><ele>11.5</ele><time>2026-03-28T16:09:09Z</time></trkpt><trkpt lat="45.36439859747704" lon="11.871239214279534"><ele>12.0</ele><time>2026-03-28T16:09:10Z</time></trkpt><trkpt lat="45.36448345736973" lon="11.871724489896456"><ele>10.5</ele><time>2026-03-28T16:09:11Z</time></trkpt><trkpt lat="45.36457490233263" lon="11.87223288874046"><ele>9.0</ele><time>2026-03-28T16:09:12Z</time></trkpt><trkpt lat="45.3646687582886" lon="11.872744976561043"><ele>9.0</ele><time>2026-03-28T16:09:13Z</time></trkpt><trkpt lat="45.36475166710758" lon="11.87320356150867"><ele>9.0</ele><time>2026-03-28T16:09:14Z</time></trkpt><trkpt lat="45.3648245821608" lon="11.873611102742148"><ele>9.0</ele><time>2026-03-28T16:09:15Z</time></trkpt><trkpt lat="45.36488745185425" lon="11.873977235409289"><ele>9.0</ele><time>2026-03-28T16:09:16Z</time></trkpt><trkpt lat="45.36494940353757" lon="11.874324535651931"><ele>9.0</ele><time>2026-03-28T16:09:17Z</time></trkpt><trkpt lat="45.36501290060966" lon="11.874660169749266"><ele>9.0</ele><time>2026-03-28T16:09:18Z</time></trkpt><trkpt lat="45.36507365080908" lon="11.874976986342297"><ele>8.666666666666666</ele><time>2026-03-28T16:09:19Z</time></trkpt><trkpt lat="45.36512854090026" lon="11.87528030673357"><ele>8.333333333333332</ele><time>2026-03-28T16:09:20Z</time></trkpt><trkpt lat="45.365171302854094" lon="11.875574756184662"><ele>8.0</ele><time>2026-03-28T16:09:21Z</time></trkpt><trkpt lat="45.36521726933019" lon="11.875864107297646"><ele>7.666666666666666</ele><time>2026-03-28T16:09:22Z</time></trkpt><trkpt lat="45.36526988339008" lon="11.876164172498907"><ele>7.333333333333334</ele><time>2026-03-28T16:09:23Z</time></trkpt><trkpt lat="45.3653260332176" lon="11.876446307909932"><ele>7.0</ele><time>2026-03-28T16:09:24Z</time></trkpt><trkpt lat="45.36538163433115" lon="11.876735477892877"><ele>7.0</ele><time>2026-03-28T16:09:25Z</time></trkpt><trkpt lat="45.36543842550575" lon="11.877041928296983"><ele>7.0</ele><time>2026-03-28T16:09:26Z</time></trkpt><trkpt lat="45.3654955884675" lon="11.877343465714372"><ele>7.0</ele><time>2026-03-28T16:09:27Z</time></trkpt><trkpt lat="45.365554683603875" lon="11.877657919873366"><ele>7.0</ele><time>2026-03-28T16:09:28Z</time></trkpt><trkpt lat="45.365617014318694" lon="11.87797444221888"><ele>7.0</ele><time>2026-03-28T16:09:29Z</time></trkpt><trkpt lat="45.36567957137048" lon="11.878298235635725"><ele>7.5</ele><time>2026-03-28T16:09:30Z</time></trkpt><trkpt lat="45.36574165030353" lon="11.878611996642089"><ele>8.0</ele><time>2026-03-28T16:09:31Z</time></trkpt><trkpt lat="45.3658096053587" lon="11.878962660292403"><ele>8.0</ele><time>2026-03-28T16:09:32Z</time></trkpt><trkpt lat="45.365876156772245" lon="11.879322948053906"><ele>8.0</ele><time>2026-03-28T16:09:33Z</time></trkpt><trkpt lat="45.36594327867102" lon="11.879674232486247"><ele>8.0</ele><time>2026-03-28T16:09:34Z</time></trkpt><trkpt lat="45.36600609525731" lon="11.880046086141647"><ele>8.0</ele><time>2026-03-28T16:09:35Z</time></trkpt><trkpt lat="45.36607589972809" lon="11.88040907812009"><ele>8.0</ele><time>2026-03-28T16:09:36Z</time></trkpt><trkpt lat="45.36614344081301" lon="11.880771892870012"><ele>8.0</ele><time>2026-03-28T16:09:37Z</time></trkpt><trkpt lat="45.36621015692785" lon="11.881134520227905"><ele>8.0</ele><time>2026-03-28T16:09:38Z</time></trkpt><trkpt lat="45.36627335384361" lon="11.88148834153062"><ele>8.0</ele><time>2026-03-28T16:09:39Z</time></trkpt><trkpt lat="45.366336826385194" lon="11.881831724202197"><ele>8.5</ele><time>2026-03-28T16:09:40Z</time></trkpt><trkpt lat="45.36640177195259" lon="11.882189918532456"><ele>9.0</ele><time>2026-03-28T16:09:41Z</time></trkpt><trkpt lat="45.366466530511524" lon="11.8825349419893"><ele>9.0</ele><time>2026-03-28T16:09:42Z</time></trkpt><trkpt lat="45.36653128656371" lon="11.882884927973238"><ele>9.0</ele><time>2026-03-28T16:09:43Z</time></trkpt><trkpt lat="45.3665999766573" lon="11.88324429477941"><ele>8.0</ele><time>2026-03-28T16:09:44Z</time></trkpt><trkpt lat="45.366664792967434" lon="11.883603415555248"><ele>7.0</ele><time>2026-03-28T16:09:45Z</time></trkpt><trkpt lat="45.366728175176725" lon="11.883950746013797"><ele>7.5</ele><time>2026-03-28T16:09:46Z</time></trkpt><trkpt lat="45.3667898140391" lon="11.884295928371579"><ele>8.0</ele><time>2026-03-28T16:09:47Z</time></trkpt><trkpt lat="45.36685308287924" lon="11.884633227468143"><ele>8.0</ele><time>2026-03-28T16:09:48Z</time></trkpt><trkpt lat="45.36691517186743" lon="11.884966164784364"><ele>8.0</ele><time>2026-03-28T16:09:49Z</time></trkpt><trkpt lat="45.36697538645851" lon="11.88530548513108"><ele>7.5</ele><time>2026-03-28T16:09:50Z</time></trkpt><trkpt lat="45.36703767106598" lon="11.885642056600043"><ele>7.0</ele><time>2026-03-28T16:09:51Z</time></trkpt><trkpt lat="45.367106119745586" lon="11.886015661442595"><ele>7.0</ele><time>2026-03-28T16:09:52Z</time></trkpt><trkpt lat="45.367175923118914" lon="11.886390209715742"><ele>7.0</ele><time>2026-03-28T16:09:53Z</time></trkpt><trkpt lat="45.3672469685383" lon="11.886758070667577"><ele>7.5</ele><time>2026-03-28T16:09:54Z</time></trkpt><trkpt lat="45.367316007516614" lon="11.88712991637962"><ele>8.0</ele><time>2026-03-28T16:09:55Z</time></trkpt><trkpt lat="45.367382130264964" lon="11.88749773675077"><ele>7.0</ele><time>2026-03-28T16:09:56Z</time></trkpt><trkpt lat="45.36744323077743" lon="11.887856243424276"><ele>6.0</ele><time>2026-03-28T16:09:57Z</time></trkpt><trkpt lat="45.36750655781213" lon="11.888208475267806"><ele>7.0</ele><time>2026-03-28T16:09:58Z</time></trkpt><trkpt lat="45.36756667415827" lon="11.888551068799677"><ele>8.0</ele><time>2026-03-28T16:09:59Z</time></trkpt><trkpt lat="45.36762983518021" lon="11.888898839188258"><ele>8.0</ele><time>2026-03-28T16:10:00Z</time></trkpt><trkpt lat="45.36769398986159" lon="11.889263581413998"><ele>8.0</ele><time>2026-03-28T16:10:01Z</time></trkpt><trkpt lat="45.36776061378628" lon="11.889621938683048"><ele>8.0</ele><time>2026-03-28T16:10:02Z</time></trkpt><trkpt lat="45.36782620770528" lon="11.889983549858883"><ele>8.0</ele><time>2026-03-28T16:10:03Z</time></trkpt><trkpt lat="45.367896379489295" lon="11.890353390478069"><ele>7.5</ele><time>2026-03-28T16:10:04Z</time></trkpt><trkpt lat="45.36795753370246" lon="11.89069454123392"><ele>7.0</ele><time>2026-03-28T16:10:05Z</time></trkpt><trkpt lat="45.368016945768275" lon="11.891008993003549"><ele>7.0</ele><time>2026-03-28T16:10:06Z</time></trkpt><trkpt lat="45.368074451815176" lon="11.891322662758544"><ele>7.0</ele><time>2026-03-28T16:10:07Z</time></trkpt><trkpt lat="45.36812850480485" lon="11.891617621681235"><ele>7.0</ele><time>2026-03-28T16:10:08Z</time></trkpt><trkpt lat="45.368180759223215" lon="11.891906298761954"><ele>7.333333333333334</ele><time>2026-03-28T16:10:09Z</time></trkpt><trkpt lat="45.36823142322664" lon="11.892202944752254"><ele>7.666666666666666</ele><time>2026-03-28T16:10:10Z</time></trkpt><trkpt lat="45.36828480550445" lon="11.8924921833373"><ele>8.0</ele><time>2026-03-28T16:10:11Z</time></trkpt><trkpt lat="45.368340444585655" lon="11.892753192824205"><ele>8.0</ele><time>2026-03-28T16:10:12Z</time></trkpt><trkpt lat="45.36839319422591" lon="11.893012188548683"><ele>8.0</ele><time>2026-03-28T16:10:13Z</time></trkpt><trkpt lat="45.36844679832436" lon="11.893278000229559"><ele>8.0</ele><time>2026-03-28T16:10:14Z</time></trkpt><trkpt lat="45.36850540832552" lon="11.893538487015872"><ele>8.0</ele><time>2026-03-28T16:10:15Z</time></trkpt><trkpt lat="45.36856886964413" lon="11.893796988332332"><ele>8.0</ele><time>2026-03-28T16:10:16Z</time></trkpt><trkpt lat="45.36863947619258" lon="11.894063147894906"><ele>8.0</ele><time>2026-03-28T16:10:17Z</time></trkpt><trkpt lat="45.36870369536232" lon="11.894325478378757"><ele>7.666666666666666</ele><time>2026-03-28T16:10:18Z</time></trkpt><trkpt lat="45.36877137984323" lon="11.894583119295774"><ele>7.333333333333334</ele><time>2026-03-28T16:10:19Z</time></trkpt><trkpt lat="45.36884352052145" lon="11.894845469885015"><ele>7.0</ele><time>2026-03-28T16:10:19.999Z</time></trkpt><trkpt lat="45.36891309522676" lon="11.895111047866678"><ele>6.0</ele><time>2026-03-28T16:10:20.999Z</time></trkpt><trkpt lat="45.36899131514504" lon="11.89539115646302"><ele>5.0</ele><time>2026-03-28T16:10:21.999Z</time></trkpt><trkpt lat="45.36908183919199" lon="11.8957195583876"><ele>5.0</ele><time>2026-03-28T16:10:22.999Z</time></trkpt><trkpt lat="45.369161187213" lon="11.896005396798701"><ele>5.0</ele><time>2026-03-28T16:10:23.999Z</time></trkpt><trkpt lat="45.369237624394636" lon="11.896259642151882"><ele>5.0</ele><time>2026-03-28T16:10:24.999Z</time></trkpt><trkpt lat="45.36931726374059" lon="11.896525693137615"><ele>6.0</ele><time>2026-03-28T16:10:25.999Z</time></trkpt><trkpt lat="45.369398448672236" lon="11.896805046741566"><ele>7.0</ele><time>2026-03-28T16:10:26.999Z</time></trkpt><trkpt lat="45.36947458090857" lon="11.897084574208106"><ele>8.0</ele><time>2026-03-28T16:10:27.999Z</time></trkpt><trkpt lat="45.369549804336565" lon="11.897360705716844"><ele>7.666666666666666</ele><time>2026-03-28T16:10:28.999Z</time></trkpt><trkpt lat="45.36963163295657" lon="11.897639071575705"><ele>7.333333333333334</ele><time>2026-03-28T16:10:29.999Z</time></trkpt><trkpt lat="45.36971832044921" lon="11.897932269697229"><ele>7.0</ele><time>2026-03-28T16:10:30.999Z</time></trkpt><trkpt lat="45.36980814563931" lon="11.898229357311275"><ele>7.0</ele><time>2026-03-28T16:10:31.999Z</time></trkpt><trkpt lat="45.369898710018305" lon="11.898526931964858"><ele>7.0</ele><time>2026-03-28T16:10:32.999Z</time></trkpt><trkpt lat="45.369999072812405" lon="11.898877938106038"><ele>7.0</ele><time>2026-03-28T16:10:33.999Z</time></trkpt><trkpt lat="45.37010842594348" lon="11.899278420448391"><ele>7.0</ele><time>2026-03-28T16:10:34.999Z</time></trkpt><trkpt lat="45.37022537251545" lon="11.899698794688414"><ele>6.5</ele><time>2026-03-28T16:10:35.999Z</time></trkpt><trkpt lat="45.3703543002809" lon="11.900140999662959"><ele>6.0</ele><time>2026-03-28T16:10:36.999Z</time></trkpt><trkpt lat="45.37049634565623" lon="11.90060865080411"><ele>7.0</ele><time>2026-03-28T16:10:37.999Z</time></trkpt><trkpt lat="45.37063703608997" lon="11.90108706361742"><ele>8.0</ele><time>2026-03-28T16:10:38.999Z</time></trkpt><trkpt lat="45.37077953812295" lon="11.901585551663668"><ele>7.5</ele><time>2026-03-28T16:10:39.999Z</time></trkpt><trkpt lat="45.37092297112277" lon="11.902085975298089"><ele>7.0</ele><time>2026-03-28T16:10:40.999Z</time></trkpt><trkpt lat="45.37106500666201" lon="11.902552407326422"><ele>6.5</ele><time>2026-03-28T16:10:41.999Z</time></trkpt><trkpt lat="45.37120737345945" lon="11.902984691393051"><ele>6.0</ele><time>2026-03-28T16:10:42.999Z</time></trkpt><trkpt lat="45.371349301348324" lon="11.903394984264866"><ele>6.5</ele><time>2026-03-28T16:10:43.999Z</time></trkpt><trkpt lat="45.371489123660034" lon="11.903776157528242"><ele>7.0</ele><time>2026-03-28T16:10:44.999Z</time></trkpt><trkpt lat="45.3716206138026" lon="11.90411316147371"><ele>7.0</ele><time>2026-03-28T16:10:45.999Z</time></trkpt><trkpt lat="45.37174702821901" lon="11.904424478619713"><ele>7.0</ele><time>2026-03-28T16:10:46.999Z</time></trkpt><trkpt lat="45.37187369742786" lon="11.904717612567284"><ele>7.0</ele><time>2026-03-28T16:10:47.999Z</time></trkpt><trkpt lat="45.37201745692528" lon="11.905037324111357"><ele>7.0</ele><time>2026-03-28T16:10:48.999Z</time></trkpt><trkpt lat="45.37215834398356" lon="11.905355054518505"><ele>7.0</ele><time>2026-03-28T16:10:50Z</time></trkpt><trkpt lat="45.37228545002065" lon="11.905645222608326"><ele>7.0</ele><time>2026-03-28T16:10:51Z</time></trkpt><trkpt lat="45.37240783058697" lon="11.905927487915843"><ele>7.0</ele><time>2026-03-28T16:10:52Z</time></trkpt><trkpt lat="45.37252409221836" lon="11.906191095493481"><ele>7.0</ele><time>2026-03-28T16:10:53Z</time></trkpt><trkpt lat="45.372650947171174" lon="11.906435568864831"><ele>7.0</ele><time>2026-03-28T16:10:54Z</time></trkpt><trkpt lat="45.37277879361184" lon="11.906673599206751"><ele>7.0</ele><time>2026-03-28T16:10:55Z</time></trkpt><trkpt lat="45.37290571813309" lon="11.90691094755588"><ele>7.0</ele><time>2026-03-28T16:10:56Z</time></trkpt><trkpt lat="45.37303146772833" lon="11.907147166235347"><ele>7.0</ele><time>2026-03-28T16:10:57Z</time></trkpt><trkpt lat="45.37319320972009" lon="11.907421760862006"><ele>7.0</ele><time>2026-03-28T16:10:58Z</time></trkpt><trkpt lat="45.37338049037616" lon="11.907708130166311"><ele>7.0</ele><time>2026-03-28T16:10:59Z</time></trkpt><trkpt lat="45.373557513945244" lon="11.907933854203112"><ele>7.0</ele><time>2026-03-28T16:11:00Z</time></trkpt><trkpt lat="45.37371879417398" lon="11.90811660930934"><ele>7.0</ele><time>2026-03-28T16:11:01Z</time></trkpt><trkpt lat="45.37386596147769" lon="11.908278829087212"><ele>7.0</ele><time>2026-03-28T16:11:02Z</time></trkpt><trkpt lat="45.37399506112025" lon="11.908428922514572"><ele>7.75</ele><time>2026-03-28T16:11:03Z</time></trkpt><trkpt lat="45.37410800148348" lon="11.90856130885116"><ele>8.5</ele><time>2026-03-28T16:11:04Z</time></trkpt><trkpt lat="45.37421527359611" lon="11.908683659915821"><ele>9.25</ele><time>2026-03-28T16:11:05Z</time></trkpt><trkpt lat="45.37431387038995" lon="11.908795774247915"><ele>10.0</ele><time>2026-03-28T16:11:06Z</time></trkpt><trkpt lat="45.37440449683018" lon="11.908896647945381"><ele>10.0</ele><time>2026-03-28T16:11:07Z</time></trkpt><trkpt lat="45.374490586449475" lon="11.908996374824532"><ele>10.0</ele><time>2026-03-28T16:11:08Z</time></trkpt><trkpt lat="45.374566701613396" lon="11.909087906247914"><ele>10.0</ele><time>2026-03-28T16:11:09Z</time></trkpt><trkpt lat="45.37463012369178" lon="11.909164421494925"><ele>10.0</ele><time>2026-03-28T16:11:10Z</time></trkpt><trkpt lat="45.37469445610605" lon="11.909236355227174"><ele>10.0</ele><time>2026-03-28T16:11:11Z</time></trkpt><trkpt lat="45.374757157442275" lon="11.909304225836"><ele>10.0</ele><time>2026-03-28T16:11:12Z</time></trkpt><trkpt lat="45.37481267718734" lon="11.909368207824013"><ele>10.0</ele><time>2026-03-28T16:11:13Z</time></trkpt><trkpt lat="45.37487637905623" lon="11.909457169265307"><ele>10.0</ele><time>2026-03-28T16:11:14Z</time></trkpt><trkpt lat="45.37495204045706" lon="11.909540087230615"><ele>10.0</ele><time>2026-03-28T16:11:15Z</time></trkpt><trkpt lat="45.375013778263686" lon="11.909598574318892"><ele>10.0</ele><time>2026-03-28T16:11:16Z</time></trkpt><trkpt lat="45.375088544726474" lon="11.909773792045906"><ele>10.0</ele><time>2026-03-28T16:11:19Z</time></trkpt><trkpt lat="45.37506429565721" lon="11.909882107947869"><ele>10.0</ele><time>2026-03-28T16:11:20Z</time></trkpt><trkpt lat="45.3750135501315" lon="11.910001798459799"><ele>10.0</ele><time>2026-03-28T16:11:21Z</time></trkpt><trkpt lat="45.37495201074719" lon="11.910099771999718"><ele>10.0</ele><time>2026-03-28T16:11:22Z</time></trkpt><trkpt lat="45.37489795149437" lon="11.910197852138982"><ele>10.0</ele><time>2026-03-28T16:11:23Z</time></trkpt><trkpt lat="45.37484907375765" lon="11.91030297178596"><ele>10.0</ele><time>2026-03-28T16:11:24Z</time></trkpt><trkpt lat="45.37479945212037" lon="11.910428042118834"><ele>10.0</ele><time>2026-03-28T16:11:25Z</time></trkpt><trkpt lat="45.37474662096785" lon="11.910563432782483"><ele>10.0</ele><time>2026-03-28T16:11:26Z</time></trkpt><trkpt lat="45.374693858465236" lon="11.910687038376393"><ele>10.0</ele><time>2026-03-28T16:11:27Z</time></trkpt><trkpt lat="45.374640690271576" lon="11.910812068561977"><ele>10.0</ele><time>2026-03-28T16:11:28Z</time></trkpt><trkpt lat="45.374588090811066" lon="11.910950442164758"><ele>10.0</ele><time>2026-03-28T16:11:29Z</time></trkpt><trkpt lat="45.37453335990327" lon="11.91109266200265"><ele>10.25</ele><time>2026-03-28T16:11:30Z</time></trkpt><trkpt lat="45.3744733915828" lon="11.911233145534107"><ele>10.5</ele><time>2026-03-28T16:11:31Z</time></trkpt><trkpt lat="45.37441439388575" lon="11.911372981227126"><ele>10.75</ele><time>2026-03-28T16:11:32Z</time></trkpt><trkpt lat="45.3743505791603" lon="11.911519068073986"><ele>11.0</ele><time>2026-03-28T16:11:33Z</time></trkpt><trkpt lat="45.3742860181935" lon="11.911669829912162"><ele>10.75</ele><time>2026-03-28T16:11:34Z</time></trkpt><trkpt lat="45.37422011884007" lon="11.911831757629317"><ele>10.5</ele><time>2026-03-28T16:11:35Z</time></trkpt><trkpt lat="45.37415563242476" lon="11.911983765575027"><ele>10.25</ele><time>2026-03-28T16:11:36Z</time></trkpt><trkpt lat="45.37409189338798" lon="11.912128069253766"><ele>10.0</ele><time>2026-03-28T16:11:37Z</time></trkpt><trkpt lat="45.3740291458921" lon="11.912269489054964"><ele>10.0</ele><time>2026-03-28T16:11:38Z</time></trkpt><trkpt lat="45.3739683911958" lon="11.912414235567415"><ele>10.0</ele><time>2026-03-28T16:11:39Z</time></trkpt><trkpt lat="45.37390633344498" lon="11.912563182974116"><ele>10.0</ele><time>2026-03-28T16:11:40Z</time></trkpt><trkpt lat="45.37384596542801" lon="11.912709869018778"><ele>10.0</ele><time>2026-03-28T16:11:41Z</time></trkpt><trkpt lat="45.373783840761305" lon="11.91285568144928"><ele>10.0</ele><time>2026-03-28T16:11:42Z</time></trkpt><trkpt lat="45.3737206695607" lon="11.913001414182908"><ele>10.0</ele><time>2026-03-28T16:11:43Z</time></trkpt><trkpt lat="45.373658797891" lon="11.913148616039805"><ele>10.0</ele><time>2026-03-28T16:11:44Z</time></trkpt><trkpt lat="45.37359713635873" lon="11.913293430256918"><ele>10.0</ele><time>2026-03-28T16:11:45Z</time></trkpt><trkpt lat="45.373533456423296" lon="11.913439035744148"><ele>10.0</ele><time>2026-03-28T16:11:46Z</time></trkpt><trkpt lat="45.37346755270565" lon="11.913585769525671"><ele>10.0</ele><time>2026-03-28T16:11:47Z</time></trkpt><trkpt lat="45.37340851043263" lon="11.913737640189611"><ele>10.0</ele><time>2026-03-28T16:11:48Z</time></trkpt><trkpt lat="45.37334571992913" lon="11.913886631176254"><ele>10.0</ele><time>2026-03-28T16:11:49Z</time></trkpt><trkpt lat="45.37328490466364" lon="11.914031486215391"><ele>10.0</ele><time>2026-03-28T16:11:50Z</time></trkpt><trkpt lat="45.37322202598761" lon="11.914180423644948"><ele>10.0</ele><time>2026-03-28T16:11:51Z</time></trkpt><trkpt lat="45.373158291077935" lon="11.914328648469022"><ele>10.0</ele><time>2026-03-28T16:11:52Z</time></trkpt><trkpt lat="45.37309166987576" lon="11.914478577462878"><ele>10.0</ele><time>2026-03-28T16:11:53Z</time></trkpt><trkpt lat="45.37302092157262" lon="11.914636602608294"><ele>9.75</ele><time>2026-03-28T16:11:54Z</time></trkpt><trkpt lat="45.37294954644068" lon="11.914800121086955"><ele>9.5</ele><time>2026-03-28T16:11:55Z</time></trkpt><trkpt lat="45.37288046013154" lon="11.914966930978872"><ele>9.25</ele><time>2026-03-28T16:11:56Z</time></trkpt><trkpt lat="45.37281330291742" lon="11.915134808850782"><ele>9.0</ele><time>2026-03-28T16:11:57Z</time></trkpt><trkpt lat="45.37274197693812" lon="11.915296888084692"><ele>9.0</ele><time>2026-03-28T16:11:58Z</time></trkpt><trkpt lat="45.372667917532986" lon="11.915458940677226"><ele>9.0</ele><time>2026-03-28T16:11:59Z</time></trkpt><trkpt lat="45.37260278021693" lon="11.915620199859934"><ele>9.0</ele><time>2026-03-28T16:12:00Z</time></trkpt><trkpt lat="45.3725318983135" lon="11.915780707779986"><ele>9.0</ele><time>2026-03-28T16:12:01Z</time></trkpt><trkpt lat="45.3724648211328" lon="11.915943022584843"><ele>9.25</ele><time>2026-03-28T16:12:02Z</time></trkpt><trkpt lat="45.372395803427" lon="11.916108512293794"><ele>9.5</ele><time>2026-03-28T16:12:03Z</time></trkpt><trkpt lat="45.37232607287743" lon="11.916268244090766"><ele>9.75</ele><time>2026-03-28T16:12:04Z</time></trkpt><trkpt lat="45.37226213536564" lon="11.91642515345556"><ele>10.0</ele><time>2026-03-28T16:12:05Z</time></trkpt><trkpt lat="45.372200507560784" lon="11.916561017509437"><ele>10.0</ele><time>2026-03-28T16:12:06Z</time></trkpt><trkpt lat="45.37214361958823" lon="11.916692388777266"><ele>10.0</ele><time>2026-03-28T16:12:07Z</time></trkpt><trkpt lat="45.372092531723965" lon="11.916813608113584"><ele>10.0</ele><time>2026-03-28T16:12:08Z</time></trkpt><trkpt lat="45.37204474275638" lon="11.916927588893763"><ele>10.0</ele><time>2026-03-28T16:12:09Z</time></trkpt><trkpt lat="45.37199723020586" lon="11.917035486269604"><ele>10.0</ele><time>2026-03-28T16:12:10Z</time></trkpt><trkpt lat="45.37195007678687" lon="11.91714957275353"><ele>10.0</ele><time>2026-03-28T16:12:11Z</time></trkpt><trkpt lat="45.371899959969774" lon="11.917267684908479"><ele>10.0</ele><time>2026-03-28T16:12:12Z</time></trkpt><trkpt lat="45.37184786511635" lon="11.917386052931132"><ele>10.0</ele><time>2026-03-28T16:12:13Z</time></trkpt><trkpt lat="45.37179745212962" lon="11.917503446144911"><ele>10.0</ele><time>2026-03-28T16:12:14Z</time></trkpt><trkpt lat="45.37175025711857" lon="11.917617152151735"><ele>10.0</ele><time>2026-03-28T16:12:15Z</time></trkpt><trkpt lat="45.371704776951546" lon="11.917719744791475"><ele>10.0</ele><time>2026-03-28T16:12:16Z</time></trkpt><trkpt lat="45.37166420021471" lon="11.917811960105846"><ele>10.0</ele><time>2026-03-28T16:12:17Z</time></trkpt><trkpt lat="45.37162459533953" lon="11.917911528289364"><ele>10.0</ele><time>2026-03-28T16:12:18Z</time></trkpt><trkpt lat="45.371580823537684" lon="11.918017346509965"><ele>10.0</ele><time>2026-03-28T16:12:19Z</time></trkpt><trkpt lat="45.37153208605169" lon="11.918131271574682"><ele>10.0</ele><time>2026-03-28T16:12:20Z</time></trkpt><trkpt lat="45.37148242289231" lon="11.918244416903427"><ele>10.0</ele><time>2026-03-28T16:12:21Z</time></trkpt><trkpt lat="45.37144147221677" lon="11.91834687906586"><ele>10.0</ele><time>2026-03-28T16:12:22Z</time></trkpt><trkpt lat="45.37140194510557" lon="11.918440257442551"><ele>10.0</ele><time>2026-03-28T16:12:23Z</time></trkpt><trkpt lat="45.371364718685776" lon="11.918533764505538"><ele>10.0</ele><time>2026-03-28T16:12:24Z</time></trkpt><trkpt lat="45.3713282028401" lon="11.91863380838034"><ele>10.0</ele><time>2026-03-28T16:12:25Z</time></trkpt><trkpt lat="45.371281888982864" lon="11.91874653175969"><ele>10.0</ele><time>2026-03-28T16:12:26Z</time></trkpt><trkpt lat="45.37123895207292" lon="11.918855919117277"><ele>10.0</ele><time>2026-03-28T16:12:27Z</time></trkpt><trkpt lat="45.371196808026184" lon="11.918954019901744"><ele>10.0</ele><time>2026-03-28T16:12:28Z</time></trkpt><trkpt lat="45.37115590272048" lon="11.919053911924923"><ele>10.0</ele><time>2026-03-28T16:12:29Z</time></trkpt><trkpt lat="45.371111799521" lon="11.919161540561042"><ele>10.0</ele><time>2026-03-28T16:12:29.999Z</time></trkpt><trkpt lat="45.37106420874493" lon="11.919274819787642"><ele>10.0</ele><time>2026-03-28T16:12:30.999Z</time></trkpt><trkpt lat="45.37101186903136" lon="11.919398078144285"><ele>10.0</ele><time>2026-03-28T16:12:31.999Z</time></trkpt><trkpt lat="45.370960641614985" lon="11.919521209267607"><ele>10.2</ele><time>2026-03-28T16:12:32.999Z</time></trkpt><trkpt lat="45.37090723735673" lon="11.919648176322797"><ele>10.4</ele><time>2026-03-28T16:12:33.999Z</time></trkpt><trkpt lat="45.37085419795815" lon="11.919775723090742"><ele>10.600000000000001</ele><time>2026-03-28T16:12:34.999Z</time></trkpt><trkpt lat="45.37080442682697" lon="11.919894437896978"><ele>10.8</ele><time>2026-03-28T16:12:35.999Z</time></trkpt><trkpt lat="45.370760267384036" lon="11.919994901923086"><ele>11.0</ele><time>2026-03-28T16:12:36.999Z</time></trkpt><trkpt lat="45.37071904542154" lon="11.920084862468018"><ele>10.600000000000001</ele><time>2026-03-28T16:12:37.999Z</time></trkpt><trkpt lat="45.370660192127154" lon="11.920224621480227"><ele>10.200000000000001</ele><time>2026-03-28T16:12:39.999Z</time></trkpt><trkpt lat="45.37061744737771" lon="11.920310789550848"><ele>9.8</ele><time>2026-03-28T16:12:41.999Z</time></trkpt><trkpt lat="45.370537876227985" lon="11.92044721911931"><ele>9.4</ele><time>2026-03-28T16:13:15Z</time></trkpt><trkpt lat="45.37048709470984" lon="11.920565341434187"><ele>9.0</ele><time>2026-03-28T16:13:16Z</time></trkpt><trkpt lat="45.37042103173917" lon="11.920733342828877"><ele>9.0</ele><time>2026-03-28T16:13:17Z</time></trkpt><trkpt lat="45.37033588424531" lon="11.92093986499616"><ele>9.0</ele><time>2026-03-28T16:13:18Z</time></trkpt><trkpt lat="45.370231460142655" lon="11.921184821581315"><ele>9.0</ele><time>2026-03-28T16:13:19Z</time></trkpt><trkpt lat="45.37011526268979" lon="11.92145429382403"><ele>9.5</ele><time>2026-03-28T16:13:20Z</time></trkpt><trkpt lat="45.369989765190034" lon="11.92174511779982"><ele>10.0</ele><time>2026-03-28T16:13:21Z</time></trkpt><trkpt lat="45.369851580523274" lon="11.922075654581478"><ele>10.0</ele><time>2026-03-28T16:13:22Z</time></trkpt><trkpt lat="45.36969989551444" lon="11.92243239028921"><ele>10.0</ele><time>2026-03-28T16:13:23Z</time></trkpt><trkpt lat="45.369555721358005" lon="11.922772529313434"><ele>9.0</ele><time>2026-03-28T16:13:24Z</time></trkpt><trkpt lat="45.36943015601656" lon="11.923074129350754"><ele>8.0</ele><time>2026-03-28T16:13:25Z</time></trkpt><trkpt lat="45.36931829437577" lon="11.923346583903637"><ele>8.0</ele><time>2026-03-28T16:13:26Z</time></trkpt><trkpt lat="45.36920819703717" lon="11.92360285071145"><ele>8.0</ele><time>2026-03-28T16:13:27Z</time></trkpt><trkpt lat="45.36910983687602" lon="11.923836152739836"><ele>8.0</ele><time>2026-03-28T16:13:28Z</time></trkpt><trkpt lat="45.36901517564528" lon="11.924056259110431"><ele>8.0</ele><time>2026-03-28T16:13:29Z</time></trkpt><trkpt lat="45.368927791179786" lon="11.924260613428084"><ele>8.0</ele><time>2026-03-28T16:13:30Z</time></trkpt><trkpt lat="45.36884070945589" lon="11.924452509725402"><ele>8.0</ele><time>2026-03-28T16:13:31Z</time></trkpt><trkpt lat="45.36875954093739" lon="11.924637767826878"><ele>8.0</ele><time>2026-03-28T16:13:32Z</time></trkpt><trkpt lat="45.36867433578089" lon="11.924835446614512"><ele>8.0</ele><time>2026-03-28T16:13:33Z</time></trkpt><trkpt lat="45.36858432128071" lon="11.92504634698785"><ele>8.0</ele><time>2026-03-28T16:13:34Z</time></trkpt><trkpt lat="45.36850133596023" lon="11.925246261571992"><ele>7.666666666666666</ele><time>2026-03-28T16:13:35Z</time></trkpt><trkpt lat="45.368431352369804" lon="11.925437003599457"><ele>7.333333333333334</ele><time>2026-03-28T16:13:36Z</time></trkpt><trkpt lat="45.36835659117642" lon="11.925636498004769"><ele>7.0</ele><time>2026-03-28T16:13:37Z</time></trkpt><trkpt lat="45.36827548569267" lon="11.925824584531714"><ele>7.666666666666667</ele><time>2026-03-28T16:13:38Z</time></trkpt><trkpt lat="45.36818952521073" lon="11.926005217345322"><ele>8.333333333333334</ele><time>2026-03-28T16:13:39Z</time></trkpt><trkpt lat="45.368103861559895" lon="11.926192602273625"><ele>9.0</ele><time>2026-03-28T16:13:40Z</time></trkpt><trkpt lat="45.368020898496304" lon="11.926389349542825"><ele>9.333333333333334</ele><time>2026-03-28T16:13:41Z</time></trkpt><trkpt lat="45.36793938907535" lon="11.926584350208435"><ele>9.666666666666668</ele><time>2026-03-28T16:13:42Z</time></trkpt><trkpt lat="45.367863295626" lon="11.92676406579538"><ele>10.0</ele><time>2026-03-28T16:13:43Z</time></trkpt><trkpt lat="45.36778381343664" lon="11.926947767565576"><ele>10.0</ele><time>2026-03-28T16:13:44Z</time></trkpt><trkpt lat="45.36771055311358" lon="11.927122356093633"><ele>10.0</ele><time>2026-03-28T16:13:45Z</time></trkpt><trkpt lat="45.367630730018114" lon="11.92731086447167"><ele>10.0</ele><time>2026-03-28T16:13:46Z</time></trkpt><trkpt lat="45.36755377514122" lon="11.927490183388603"><ele>10.0</ele><time>2026-03-28T16:13:47Z</time></trkpt><trkpt lat="45.36748180031048" lon="11.927669446780971"><ele>9.75</ele><time>2026-03-28T16:13:48Z</time></trkpt><trkpt lat="45.367401772504316" lon="11.927849375447526"><ele>9.5</ele><time>2026-03-28T16:13:49Z</time></trkpt><trkpt lat="45.367322080401024" lon="11.928023559461124"><ele>9.25</ele><time>2026-03-28T16:13:50Z</time></trkpt><trkpt lat="45.367243497958164" lon="11.928204110687926"><ele>9.0</ele><time>2026-03-28T16:13:51Z</time></trkpt><trkpt lat="45.3671669343054" lon="11.92838130139693"><ele>8.75</ele><time>2026-03-28T16:13:52Z</time></trkpt><trkpt lat="45.36709381687485" lon="11.92856157950383"><ele>8.5</ele><time>2026-03-28T16:13:53Z</time></trkpt><trkpt lat="45.36702146614819" lon="11.928741739798358"><ele>8.25</ele><time>2026-03-28T16:13:54Z</time></trkpt><trkpt lat="45.36694332537005" lon="11.92892312318758"><ele>8.0</ele><time>2026-03-28T16:13:55Z</time></trkpt><trkpt lat="45.36686210104834" lon="11.929101664750457"><ele>8.0</ele><time>2026-03-28T16:13:56Z</time></trkpt><trkpt lat="45.36678298714903" lon="11.929278605531495"><ele>8.0</ele><time>2026-03-28T16:13:57Z</time></trkpt><trkpt lat="45.36671007425579" lon="11.92945369284096"><ele>8.0</ele><time>2026-03-28T16:13:58Z</time></trkpt><trkpt lat="45.3666373936117" lon="11.92963436969096"><ele>8.0</ele><time>2026-03-28T16:13:59Z</time></trkpt><trkpt lat="45.36656520159183" lon="11.929819567574594"><ele>8.0</ele><time>2026-03-28T16:14:00Z</time></trkpt><trkpt lat="45.366490205896696" lon="11.930002198091818"><ele>8.0</ele><time>2026-03-28T16:14:01Z</time></trkpt><trkpt lat="45.36641140682378" lon="11.93017605054867"><ele>8.0</ele><time>2026-03-28T16:14:02Z</time></trkpt><trkpt lat="45.36633749657083" lon="11.93032631385334"><ele>8.0</ele><time>2026-03-28T16:14:03Z</time></trkpt><trkpt lat="45.366273293181045" lon="11.930458354211408"><ele>7.833333333333333</ele><time>2026-03-28T16:14:04Z</time></trkpt><trkpt lat="45.36621846488663" lon="11.930575031441332"><ele>7.666666666666666</ele><time>2026-03-28T16:14:05Z</time></trkpt><trkpt lat="45.366170884174856" lon="11.930677126192744"><ele>7.5</ele><time>2026-03-28T16:14:06Z</time></trkpt><trkpt lat="45.366127269855845" lon="11.930762116494698"><ele>7.333333333333334</ele><time>2026-03-28T16:14:07Z</time></trkpt><trkpt lat="45.36608556815876" lon="11.93083802833229"><ele>7.166666666666667</ele><time>2026-03-28T16:14:08Z</time></trkpt><trkpt lat="45.366038961981836" lon="11.930917250529022"><ele>7.0</ele><time>2026-03-28T16:14:09Z</time></trkpt><trkpt lat="45.365988960665895" lon="11.930974379190065"><ele>7.000000000000001</ele><time>2026-03-28T16:14:10Z</time></trkpt><trkpt lat="45.36590782809227" lon="11.9310212305678"><ele>7.0</ele><time>2026-03-28T16:14:11Z</time></trkpt><trkpt lat="45.36583159095715" lon="11.931070807475331"><ele>7.0</ele><time>2026-03-28T16:14:12Z</time></trkpt><trkpt lat="45.365775630486944" lon="11.931134112507506"><ele>7.0</ele><time>2026-03-28T16:14:13Z</time></trkpt><trkpt lat="45.36577769892056" lon="11.931230652666272"><ele>7.000000000000001</ele><time>2026-03-28T16:14:14Z</time></trkpt><trkpt lat="45.36582675826669" lon="11.931352005300269"><ele>7.0</ele><time>2026-03-28T16:14:16Z</time></trkpt><trkpt lat="45.36585312033464" lon="11.93149504567612"><ele>7.0</ele><time>2026-03-28T16:14:18Z</time></trkpt><trkpt lat="45.365781397360514" lon="11.931589798214036"><ele>6.999999999999999</ele><time>2026-03-28T16:14:19Z</time></trkpt><trkpt lat="45.36571109740478" lon="11.931753809480542"><ele>6.999999999999999</ele><time>2026-03-28T16:14:21Z</time></trkpt><trkpt lat="45.365671627602616" lon="11.931850521768801"><ele>7.0</ele><time>2026-03-28T16:14:22Z</time></trkpt><trkpt lat="45.365622928940596" lon="11.9319682607666"><ele>7.0</ele><time>2026-03-28T16:14:23Z</time></trkpt><trkpt lat="45.36556673929634" lon="11.932086537696572"><ele>7.75</ele><time>2026-03-28T16:14:24Z</time></trkpt><trkpt lat="45.365502143553464" lon="11.932211368793162"><ele>8.5</ele><time>2026-03-28T16:14:25Z</time></trkpt><trkpt lat="45.36543956353006" lon="11.932348335662454"><ele>9.25</ele><time>2026-03-28T16:14:26Z</time></trkpt><trkpt lat="45.3653786302694" lon="11.932477139617045"><ele>10.0</ele><time>2026-03-28T16:14:27Z</time></trkpt><trkpt lat="45.3653089890144" lon="11.932621787400851"><ele>10.0</ele><time>2026-03-28T16:14:28Z</time></trkpt><trkpt lat="45.365236784445045" lon="11.932766648397047"><ele>10.0</ele><time>2026-03-28T16:14:29Z</time></trkpt><trkpt lat="45.36515992540154" lon="11.932914719198562"><ele>10.0</ele><time>2026-03-28T16:14:30Z</time></trkpt><trkpt lat="45.3650814044061" lon="11.933061967718817"><ele>10.0</ele><time>2026-03-28T16:14:31Z</time></trkpt><trkpt lat="45.3650065486213" lon="11.933212634749925"><ele>10.0</ele><time>2026-03-28T16:14:32Z</time></trkpt><trkpt lat="45.36492607495401" lon="11.93336962160385"><ele>10.0</ele><time>2026-03-28T16:14:33Z</time></trkpt><trkpt lat="45.36484696081474" lon="11.933527671958155"><ele>10.0</ele><time>2026-03-28T16:14:34Z</time></trkpt><trkpt lat="45.36476797481472" lon="11.933681678073354"><ele>10.0</ele><time>2026-03-28T16:14:35Z</time></trkpt><trkpt lat="45.36469293779563" lon="11.933830320289022"><ele>9.5</ele><time>2026-03-28T16:14:36Z</time></trkpt><trkpt lat="45.36462602243748" lon="11.93397371982966"><ele>9.0</ele><time>2026-03-28T16:14:37Z</time></trkpt><trkpt lat="45.36457600100586" lon="11.934127275907274"><ele>8.5</ele><time>2026-03-28T16:14:38Z</time></trkpt><trkpt lat="45.3645398341269" lon="11.93428541356793"><ele>8.0</ele><time>2026-03-28T16:14:39Z</time></trkpt><trkpt lat="45.36452055284222" lon="11.93445139768394"><ele>8.0</ele><time>2026-03-28T16:14:40Z</time></trkpt><trkpt lat="45.364499079616635" lon="11.934611905356716"><ele>8.0</ele><time>2026-03-28T16:14:41Z</time></trkpt><trkpt lat="45.36447398742655" lon="11.934772292822089"><ele>8.0</ele><time>2026-03-28T16:14:42Z</time></trkpt><trkpt lat="45.36444931467293" lon="11.934936531331127"><ele>8.0</ele><time>2026-03-28T16:14:43Z</time></trkpt><trkpt lat="45.36442320121995" lon="11.93510732356851"><ele>8.0</ele><time>2026-03-28T16:14:44Z</time></trkpt><trkpt lat="45.364398330352344" lon="11.935273810000025"><ele>8.0</ele><time>2026-03-28T16:14:45Z</time></trkpt><trkpt lat="45.364373985176705" lon="11.935432274601963"><ele>8.0</ele><time>2026-03-28T16:14:46Z</time></trkpt><trkpt lat="45.36434265033374" lon="11.935588870443219"><ele>8.0</ele><time>2026-03-28T16:14:47Z</time></trkpt><trkpt lat="45.364295525216164" lon="11.935738980359309"><ele>8.0</ele><time>2026-03-28T16:14:48Z</time></trkpt><trkpt lat="45.364216100546" lon="11.935866847950287"><ele>8.0</ele><time>2026-03-28T16:14:48.999Z</time></trkpt><trkpt lat="45.36414071666887" lon="11.936011092991759"><ele>8.0</ele><time>2026-03-28T16:14:49.999Z</time></trkpt><trkpt lat="45.36404581059338" lon="11.936129266166224"><ele>8.0</ele><time>2026-03-28T16:14:50.999Z</time></trkpt><trkpt lat="45.363952452392546" lon="11.936256224302102"><ele>8.0</ele><time>2026-03-28T16:14:51.999Z</time></trkpt><trkpt lat="45.36386276088432" lon="11.93638218265032"><ele>8.0</ele><time>2026-03-28T16:14:52.999Z</time></trkpt><trkpt lat="45.363775811648225" lon="11.936501291800738"><ele>8.0</ele><time>2026-03-28T16:14:53.999Z</time></trkpt><trkpt lat="45.363678730329774" lon="11.93662239369531"><ele>8.0</ele><time>2026-03-28T16:14:54.999Z</time></trkpt><trkpt lat="45.36357568358908" lon="11.93675251889407"><ele>8.0</ele><time>2026-03-28T16:14:55.999Z</time></trkpt><trkpt lat="45.3634761007477" lon="11.936886081910245"><ele>8.0</ele><time>2026-03-28T16:14:56.999Z</time></trkpt><trkpt lat="45.36338800654481" lon="11.937018528786247"><ele>8.0</ele><time>2026-03-28T16:14:57.999Z</time></trkpt><trkpt lat="45.363307260711274" lon="11.937149932740256"><ele>8.0</ele><time>2026-03-28T16:14:58.999Z</time></trkpt><trkpt lat="45.36322307569797" lon="11.937277187708906"><ele>8.0</ele><time>2026-03-28T16:14:59.999Z</time></trkpt><trkpt lat="45.36313362893744" lon="11.937411478737275"><ele>8.0</ele><time>2026-03-28T16:15:00.999Z</time></trkpt><trkpt lat="45.36303144167493" lon="11.937575692849968"><ele>8.0</ele><time>2026-03-28T16:15:02Z</time></trkpt><trkpt lat="45.3629192530661" lon="11.9377490992342"><ele>8.25</ele><time>2026-03-28T16:15:03Z</time></trkpt><trkpt lat="45.36281621055766" lon="11.93790270825097"><ele>8.5</ele><time>2026-03-28T16:15:04Z</time></trkpt><trkpt lat="45.36271876300948" lon="11.938039330767491"><ele>8.75</ele><time>2026-03-28T16:15:05Z</time></trkpt><trkpt lat="45.362627168184304" lon="11.938170179290752"><ele>9.0</ele><time>2026-03-28T16:15:06Z</time></trkpt><trkpt lat="45.36253401786304" lon="11.938306001305135"><ele>8.75</ele><time>2026-03-28T16:15:07Z</time></trkpt><trkpt lat="45.36244120527786" lon="11.938445983465241"><ele>8.5</ele><time>2026-03-28T16:15:08Z</time></trkpt><trkpt lat="45.36234173131794" lon="11.938594638444142"><ele>8.25</ele><time>2026-03-28T16:15:09Z</time></trkpt><trkpt lat="45.36224626273927" lon="11.938737813408924"><ele>8.0</ele><time>2026-03-28T16:15:10Z</time></trkpt><trkpt lat="45.36215377321917" lon="11.938876474834109"><ele>8.0</ele><time>2026-03-28T16:15:11Z</time></trkpt><trkpt lat="45.3620636610128" lon="11.939010258254058"><ele>8.0</ele><time>2026-03-28T16:15:12Z</time></trkpt><trkpt lat="45.3619735464829" lon="11.939139642944747"><ele>8.0</ele><time>2026-03-28T16:15:13Z</time></trkpt><trkpt lat="45.36188974792932" lon="11.939263248695593"><ele>8.0</ele><time>2026-03-28T16:15:14Z</time></trkpt><trkpt lat="45.361815977415816" lon="11.939373754686713"><ele>8.166666666666666</ele><time>2026-03-28T16:15:15Z</time></trkpt><trkpt lat="45.36174559634176" lon="11.939485825800347"><ele>8.333333333333332</ele><time>2026-03-28T16:15:16Z</time></trkpt><trkpt lat="45.36167598703233" lon="11.93959051425192"><ele>8.5</ele><time>2026-03-28T16:15:17Z</time></trkpt><trkpt lat="45.36161458190912" lon="11.939686929083404"><ele>8.666666666666666</ele><time>2026-03-28T16:15:18Z</time></trkpt><trkpt lat="45.361559293173954" lon="11.939773784024966"><ele>8.833333333333334</ele><time>2026-03-28T16:15:19Z</time></trkpt><trkpt lat="45.361508161451255" lon="11.939828026406294"><ele>9.0</ele><time>2026-03-28T16:15:20Z</time></trkpt><trkpt lat="45.361395455046214" lon="11.939850111060318"><ele>9.0</ele><time>2026-03-28T16:15:22Z</time></trkpt><trkpt lat="45.361322540608754" lon="11.93984130999258"><ele>9.0</ele><time>2026-03-28T16:15:23Z</time></trkpt><trkpt lat="45.3612592354491" lon="11.93986713933763"><ele>9.0</ele><time>2026-03-28T16:15:24Z</time></trkpt><trkpt lat="45.36121465413369" lon="11.939938333932131"><ele>9.0</ele><time>2026-03-28T16:15:25Z</time></trkpt><trkpt lat="45.36118685199488" lon="11.94004082627185"><ele>9.0</ele><time>2026-03-28T16:15:26Z</time></trkpt><trkpt lat="45.36118957203979" lon="11.940161611992632"><ele>9.0</ele><time>2026-03-28T16:15:27Z</time></trkpt><trkpt lat="45.3611800965992" lon="11.940304275781466"><ele>9.0</ele><time>2026-03-28T16:15:28Z</time></trkpt><trkpt lat="45.361124265792974" lon="11.94045275101126"><ele>9.0</ele><time>2026-03-28T16:15:29Z</time></trkpt><trkpt lat="45.36105088887493" lon="11.94056787210131"><ele>9.0</ele><time>2026-03-28T16:15:30Z</time></trkpt><trkpt lat="45.36097593264677" lon="11.940667331142302"><ele>9.0</ele><time>2026-03-28T16:15:31Z</time></trkpt><trkpt lat="45.3608983618217" lon="11.940771114677439"><ele>9.0</ele><time>2026-03-28T16:15:32Z</time></trkpt><trkpt lat="45.36082432583814" lon="11.940878821839371"><ele>8.8</ele><time>2026-03-28T16:15:33Z</time></trkpt><trkpt lat="45.36075148095887" lon="11.94098810942705"><ele>8.600000000000001</ele><time>2026-03-28T16:15:34Z</time></trkpt><trkpt lat="45.36067491816124" lon="11.941100677103327"><ele>8.4</ele><time>2026-03-28T16:15:35Z</time></trkpt><trkpt lat="45.36059663976678" lon="11.941220641127003"><ele>8.200000000000001</ele><time>2026-03-28T16:15:36Z</time></trkpt><trkpt lat="45.36052236003179" lon="11.94134715645992"><ele>8.0</ele><time>2026-03-28T16:15:37Z</time></trkpt><trkpt lat="45.360438907002724" lon="11.941487065690279"><ele>8.0</ele><time>2026-03-28T16:15:38Z</time></trkpt><trkpt lat="45.36035515827406" lon="11.94161778291114"><ele>8.0</ele><time>2026-03-28T16:15:39Z</time></trkpt><trkpt lat="45.36025827677233" lon="11.941759139341666"><ele>8.0</ele><time>2026-03-28T16:15:40Z</time></trkpt><trkpt lat="45.36016309618654" lon="11.941901437803336"><ele>8.0</ele><time>2026-03-28T16:15:41Z</time></trkpt><trkpt lat="45.36006275888846" lon="11.94205153096863"><ele>8.333333333333332</ele><time>2026-03-28T16:15:42Z</time></trkpt><trkpt lat="45.359958588000964" lon="11.942213838848286"><ele>8.666666666666666</ele><time>2026-03-28T16:15:43Z</time></trkpt><trkpt lat="45.35985451925154" lon="11.942373153419375"><ele>9.0</ele><time>2026-03-28T16:15:44Z</time></trkpt><trkpt lat="45.359747329079084" lon="11.942532926576744"><ele>9.0</ele><time>2026-03-28T16:15:45Z</time></trkpt><trkpt lat="45.35964111380562" lon="11.942695268517914"><ele>9.0</ele><time>2026-03-28T16:15:46Z</time></trkpt><trkpt lat="45.359532147858324" lon="11.942864168810436"><ele>9.0</ele><time>2026-03-28T16:15:47Z</time></trkpt><trkpt lat="45.359420376077416" lon="11.94303121429546"><ele>9.0</ele><time>2026-03-28T16:15:48Z</time></trkpt><trkpt lat="45.359306944984" lon="11.943200885237017"><ele>9.0</ele><time>2026-03-28T16:15:49Z</time></trkpt><trkpt lat="45.35918132727948" lon="11.943389590755883"><ele>9.0</ele><time>2026-03-28T16:15:50Z</time></trkpt><trkpt lat="45.359058094861155" lon="11.943578970360685"><ele>8.666666666666666</ele><time>2026-03-28T16:15:51Z</time></trkpt><trkpt lat="45.35893776632291" lon="11.94376213011417"><ele>8.333333333333332</ele><time>2026-03-28T16:15:52Z</time></trkpt><trkpt lat="45.358819080505214" lon="11.943939282638919"><ele>8.0</ele><time>2026-03-28T16:15:53Z</time></trkpt><trkpt lat="45.3587009973746" lon="11.944119745900007"><ele>7.666666666666666</ele><time>2026-03-28T16:15:54Z</time></trkpt><trkpt lat="45.35858086886379" lon="11.94430685881181"><ele>7.333333333333334</ele><time>2026-03-28T16:15:55Z</time></trkpt><trkpt lat="45.35845908707217" lon="11.944492826592555"><ele>7.0</ele><time>2026-03-28T16:15:56Z</time></trkpt><trkpt lat="45.358327755481675" lon="11.944685971523487"><ele>7.0</ele><time>2026-03-28T16:15:57Z</time></trkpt><trkpt lat="45.358204227848226" lon="11.944873837000584"><ele>7.0</ele><time>2026-03-28T16:15:58Z</time></trkpt><trkpt lat="45.35807628581462" lon="11.94505909335472"><ele>7.0</ele><time>2026-03-28T16:15:59Z</time></trkpt><trkpt lat="45.357955854301906" lon="11.94524399135756"><ele>6.666666666666667</ele><time>2026-03-28T16:16:00Z</time></trkpt><trkpt lat="45.3578244171188" lon="11.945433718064908"><ele>6.333333333333334</ele><time>2026-03-28T16:16:01Z</time></trkpt><trkpt lat="45.357707827006465" lon="11.945623935535341"><ele>6.0</ele><time>2026-03-28T16:16:02Z</time></trkpt><trkpt lat="45.357583245164214" lon="11.945805942323922"><ele>6.0</ele><time>2026-03-28T16:16:03Z</time></trkpt><trkpt lat="45.35746214672004" lon="11.945991075722322"><ele>6.0</ele><time>2026-03-28T16:16:04Z</time></trkpt><trkpt lat="45.35735200472183" lon="11.946170146415227"><ele>6.0</ele><time>2026-03-28T16:16:05Z</time></trkpt><trkpt lat="45.35723587314277" lon="11.946344166044849"><ele>5.666666666666667</ele><time>2026-03-28T16:16:06Z</time></trkpt><trkpt lat="45.35711801191207" lon="11.946518338691488"><ele>5.333333333333334</ele><time>2026-03-28T16:16:07Z</time></trkpt><trkpt lat="45.35700279071457" lon="11.946696175924941"><ele>5.0</ele><time>2026-03-28T16:16:08Z</time></trkpt><trkpt lat="45.35689542482174" lon="11.946866790705654"><ele>4.75</ele><time>2026-03-28T16:16:09Z</time></trkpt><trkpt lat="45.35678925801473" lon="11.947018443130432"><ele>4.5</ele><time>2026-03-28T16:16:10Z</time></trkpt><trkpt lat="45.35669523712595" lon="11.947168306159993"><ele>4.25</ele><time>2026-03-28T16:16:11Z</time></trkpt><trkpt lat="45.356596678632165" lon="11.947322633034306"><ele>4.0</ele><time>2026-03-28T16:16:12Z</time></trkpt><trkpt lat="45.35649742777271" lon="11.947479291565768"><ele>4.5</ele><time>2026-03-28T16:16:13Z</time></trkpt><trkpt lat="45.35638939802758" lon="11.947637167219968"><ele>5.0</ele><time>2026-03-28T16:16:14Z</time></trkpt><trkpt lat="45.356286237806884" lon="11.94778892147509"><ele>5.5</ele><time>2026-03-28T16:16:15Z</time></trkpt><trkpt lat="45.35619345275744" lon="11.947925177061014"><ele>6.0</ele><time>2026-03-28T16:16:16Z</time></trkpt><trkpt lat="45.356109242595444" lon="11.948054582846183"><ele>6.0</ele><time>2026-03-28T16:16:17Z</time></trkpt><trkpt lat="45.35603221322645" lon="11.94817655157384"><ele>6.0</ele><time>2026-03-28T16:16:18Z</time></trkpt><trkpt lat="45.355957689592096" lon="11.948291218051857"><ele>6.0</ele><time>2026-03-28T16:16:19Z</time></trkpt><trkpt lat="45.35588305058655" lon="11.948402935404042"><ele>6.0</ele><time>2026-03-28T16:16:20Z</time></trkpt><trkpt lat="45.355807983051236" lon="11.948515873778812"><ele>6.0</ele><time>2026-03-28T16:16:21Z</time></trkpt><trkpt lat="45.35573233272733" lon="11.948631003918074"><ele>6.0</ele><time>2026-03-28T16:16:22Z</time></trkpt><trkpt lat="45.35565717412284" lon="11.948743665569962"><ele>6.0</ele><time>2026-03-28T16:16:23Z</time></trkpt><trkpt lat="45.355588691211445" lon="11.948845975780314"><ele>6.0</ele><time>2026-03-28T16:16:24Z</time></trkpt><trkpt lat="45.355530861583496" lon="11.948930225735527"><ele>6.0</ele><time>2026-03-28T16:16:25Z</time></trkpt><trkpt lat="45.3554815014163" lon="11.949005267249715"><ele>6.0</ele><time>2026-03-28T16:16:26Z</time></trkpt><trkpt lat="45.3554345740877" lon="11.949073383123723"><ele>6.0</ele><time>2026-03-28T16:16:27Z</time></trkpt><trkpt lat="45.355348479239204" lon="11.94920156484909"><ele>6.199999999999999</ele><time>2026-03-28T16:16:29Z</time></trkpt><trkpt lat="45.355301598767475" lon="11.949272476283356"><ele>6.3999999999999995</ele><time>2026-03-28T16:16:30Z</time></trkpt><trkpt lat="45.355248557019586" lon="11.949352580790517"><ele>6.6</ele><time>2026-03-28T16:16:31Z</time></trkpt><trkpt lat="45.35518390761878" lon="11.949453847545302"><ele>6.8</ele><time>2026-03-28T16:16:32Z</time></trkpt><trkpt lat="45.35510728642963" lon="11.949574068625607"><ele>7.0</ele><time>2026-03-28T16:16:33Z</time></trkpt><trkpt lat="45.35502031837729" lon="11.949707547485131"><ele>7.0</ele><time>2026-03-28T16:16:34Z</time></trkpt><trkpt lat="45.35492642524771" lon="11.949845730447496"><ele>7.0</ele><time>2026-03-28T16:16:35Z</time></trkpt><trkpt lat="45.35482599694667" lon="11.949996331832962"><ele>7.0</ele><time>2026-03-28T16:16:36Z</time></trkpt><trkpt lat="45.354717266457065" lon="11.950159133579685"><ele>7.0</ele><time>2026-03-28T16:16:37Z</time></trkpt><trkpt lat="45.35460482107875" lon="11.950320460004638"><ele>6.75</ele><time>2026-03-28T16:16:38Z</time></trkpt><trkpt lat="45.35449658615555" lon="11.950473787185762"><ele>6.5</ele><time>2026-03-28T16:16:39Z</time></trkpt><trkpt lat="45.35439302681195" lon="11.95061783399854"><ele>6.25</ele><time>2026-03-28T16:16:40Z</time></trkpt><trkpt lat="45.35429870743372" lon="11.950756020775914"><ele>6.0</ele><time>2026-03-28T16:16:41Z</time></trkpt><trkpt lat="45.35420853005483" lon="11.950886832305677"><ele>6.0</ele><time>2026-03-28T16:16:42Z</time></trkpt><trkpt lat="45.35412265071874" lon="11.951010826620948"><ele>6.0</ele><time>2026-03-28T16:16:43Z</time></trkpt><trkpt lat="45.354042473044196" lon="11.951121101109605"><ele>6.0</ele><time>2026-03-28T16:16:44Z</time></trkpt><trkpt lat="45.353969696278774" lon="11.951212264570524"><ele>6.0</ele><time>2026-03-28T16:16:45Z</time></trkpt><trkpt lat="45.35389187662325" lon="11.951281613836702"><ele>6.0</ele><time>2026-03-28T16:16:46Z</time></trkpt><trkpt lat="45.35379092204546" lon="11.951311587368895"><ele>6.0</ele><time>2026-03-28T16:16:47Z</time></trkpt><trkpt lat="45.353670016167975" lon="11.951294736843924"><ele>6.0</ele><time>2026-03-28T16:16:47.999Z</time></trkpt><trkpt lat="45.353531363591195" lon="11.951234960489982"><ele>6.0</ele><time>2026-03-28T16:16:48.999Z</time></trkpt><trkpt lat="45.353381569098595" lon="11.951168550057334"><ele>6.0</ele><time>2026-03-28T16:16:49.999Z</time></trkpt><trkpt lat="45.353228894498045" lon="11.951129208565924"><ele>6.0</ele><time>2026-03-28T16:16:50.999Z</time></trkpt><trkpt lat="45.35309621824841" lon="11.95111118307048"><ele>6.0</ele><time>2026-03-28T16:16:51.999Z</time></trkpt><trkpt lat="45.35297486853023" lon="11.951089919700351"><ele>6.0</ele><time>2026-03-28T16:16:52.999Z</time></trkpt><trkpt lat="45.35286690551086" lon="11.951055118206154"><ele>6.0</ele><time>2026-03-28T16:16:53.999Z</time></trkpt><trkpt lat="45.3527690016818" lon="11.951040102165544"><ele>5.75</ele><time>2026-03-28T16:16:54.999Z</time></trkpt><trkpt lat="45.35267742846674" lon="11.951022733242233"><ele>5.5</ele><time>2026-03-28T16:16:55.999Z</time></trkpt><trkpt lat="45.35260342783542" lon="11.950993750436872"><ele>5.25</ele><time>2026-03-28T16:16:56.999Z</time></trkpt><trkpt lat="45.352529720843485" lon="11.950996823697102"><ele>5.0</ele><time>2026-03-28T16:16:58.999Z</time></trkpt><trkpt lat="45.352488789974274" lon="11.951328526566867"><ele>5.0</ele><time>2026-03-28T16:16:59.999Z</time></trkpt><trkpt lat="45.352511802126735" lon="11.951532827615045"><ele>5.0</ele><time>2026-03-28T16:17:00.999Z</time></trkpt><trkpt lat="45.35245584578831" lon="11.951800991783806"><ele>5.0</ele><time>2026-03-28T16:17:01.999Z</time></trkpt><trkpt lat="45.352426167972006" lon="11.952086379549192"><ele>5.0</ele><time>2026-03-28T16:17:02.999Z</time></trkpt><trkpt lat="45.35237905459202" lon="11.952432307057766"><ele>5.0</ele><time>2026-03-28T16:17:03.999Z</time></trkpt><trkpt lat="45.35231603575341" lon="11.95280316252192"><ele>5.0</ele><time>2026-03-28T16:17:04.999Z</time></trkpt><trkpt lat="45.352242805699134" lon="11.953128158692476"><ele>5.0</ele><time>2026-03-28T16:17:05.999Z</time></trkpt><trkpt lat="45.352143773630374" lon="11.95341273837017"><ele>5.0</ele><time>2026-03-28T16:17:06.999Z</time></trkpt><trkpt lat="45.35200901073652" lon="11.953689672539817"><ele>5.0</ele><time>2026-03-28T16:17:08Z</time></trkpt><trkpt lat="45.351834449767836" lon="11.953991464076818"><ele>6.0</ele><time>2026-03-28T16:17:09Z</time></trkpt><trkpt lat="45.35162950723932" lon="11.95431289082573"><ele>7.0</ele><time>2026-03-28T16:17:10Z</time></trkpt><trkpt lat="45.35140960418555" lon="11.954637218921963"><ele>7.0</ele><time>2026-03-28T16:17:11Z</time></trkpt><trkpt lat="45.351221484442455" lon="11.954911833784415"><ele>7.0</ele><time>2026-03-28T16:17:12Z</time></trkpt><trkpt lat="45.35106495110284" lon="11.955150534709114"><ele>7.0</ele><time>2026-03-28T16:17:13Z</time></trkpt><trkpt lat="45.35093516890496" lon="11.955354219994465"><ele>7.0</ele><time>2026-03-28T16:17:14Z</time></trkpt><trkpt lat="45.35081349886551" lon="11.95553582046327"><ele>7.0</ele><time>2026-03-28T16:17:15Z</time></trkpt><trkpt lat="45.35070193810931" lon="11.955703972102706"><ele>7.0</ele><time>2026-03-28T16:17:16Z</time></trkpt><trkpt lat="45.35060615992657" lon="11.955852371823203"><ele>7.0</ele><time>2026-03-28T16:17:17Z</time></trkpt><trkpt lat="45.350513184775615" lon="11.955984610226327"><ele>7.0</ele><time>2026-03-28T16:17:18Z</time></trkpt><trkpt lat="45.3504136579307" lon="11.956088312705653"><ele>7.0</ele><time>2026-03-28T16:17:19Z</time></trkpt><trkpt lat="45.35035002720177" lon="11.956205119719879"><ele>7.0</ele><time>2026-03-28T16:17:20Z</time></trkpt><trkpt lat="45.35028696168342" lon="11.956300190296544"><ele>6.999999999999999</ele><time>2026-03-28T16:17:21Z</time></trkpt><trkpt lat="45.350228853234796" lon="11.956388210405951"><ele>6.999999999999999</ele><time>2026-03-28T16:17:22Z</time></trkpt><trkpt lat="45.350167464185034" lon="11.956514366816894"><ele>7.0</ele><time>2026-03-28T16:17:23Z</time></trkpt><trkpt lat="45.35007784562805" lon="11.956651915268408"><ele>7.0</ele><time>2026-03-28T16:17:24Z</time></trkpt><trkpt lat="45.34996313102312" lon="11.956825979069176"><ele>7.0</ele><time>2026-03-28T16:17:25Z</time></trkpt><trkpt lat="45.34983712727919" lon="11.957017050103492"><ele>7.0</ele><time>2026-03-28T16:17:26Z</time></trkpt><trkpt lat="45.34970085496928" lon="11.957222774885631"><ele>7.0</ele><time>2026-03-28T16:17:27Z</time></trkpt><trkpt lat="45.3495641596215" lon="11.957429138291872"><ele>7.0</ele><time>2026-03-28T16:17:28Z</time></trkpt><trkpt lat="45.349425261823114" lon="11.957641067518452"><ele>7.0</ele><time>2026-03-28T16:17:29Z</time></trkpt><trkpt lat="45.34926714671798" lon="11.95785503500671"><ele>7.0</ele><time>2026-03-28T16:17:30Z</time></trkpt><trkpt lat="45.34912328259066" lon="11.95808128305316"><ele>7.0</ele><time>2026-03-28T16:17:31Z</time></trkpt><trkpt lat="45.34898895858267" lon="11.958303019698567"><ele>7.0</ele><time>2026-03-28T16:17:32Z</time></trkpt><trkpt lat="45.34884791674796" lon="11.95851377771068"><ele>7.0</ele><time>2026-03-28T16:17:33Z</time></trkpt><trkpt lat="45.34873560788562" lon="11.958698822146742"><ele>6.666666666666667</ele><time>2026-03-28T16:17:34Z</time></trkpt><trkpt lat="45.34860763740724" lon="11.958882737223213"><ele>6.333333333333334</ele><time>2026-03-28T16:17:35Z</time></trkpt><trkpt lat="45.34847549305514" lon="11.959081174196372"><ele>6.0</ele><time>2026-03-28T16:17:36Z</time></trkpt><trkpt lat="45.348341328627775" lon="11.959293560319548"><ele>6.333333333333334</ele><time>2026-03-28T16:17:37Z</time></trkpt><trkpt lat="45.34820516795587" lon="11.95950286030557"><ele>6.666666666666667</ele><time>2026-03-28T16:17:38Z</time></trkpt><trkpt lat="45.34807027759226" lon="11.959701251556213"><ele>7.0</ele><time>2026-03-28T16:17:39Z</time></trkpt><trkpt lat="45.34791961417468" lon="11.959903356656904"><ele>6.666666666666667</ele><time>2026-03-28T16:17:40Z</time></trkpt><trkpt lat="45.34777350397556" lon="11.96006329904726"><ele>6.333333333333334</ele><time>2026-03-28T16:17:41Z</time></trkpt><trkpt lat="45.34763452064773" lon="11.960185701610772"><ele>6.0</ele><time>2026-03-28T16:17:42Z</time></trkpt><trkpt lat="45.347476829366784" lon="11.960287935951364"><ele>6.0</ele><time>2026-03-28T16:17:43Z</time></trkpt><trkpt lat="45.347325510038594" lon="11.960343619148873"><ele>6.0</ele><time>2026-03-28T16:17:44Z</time></trkpt><trkpt lat="45.34717485064786" lon="11.960366175970691"><ele>6.0</ele><time>2026-03-28T16:17:45Z</time></trkpt><trkpt lat="45.34703391559809" lon="11.960318321944223"><ele>6.25</ele><time>2026-03-28T16:17:46Z</time></trkpt><trkpt lat="45.34690658362887" lon="11.960262282098176"><ele>6.5</ele><time>2026-03-28T16:17:47Z</time></trkpt><trkpt lat="45.34678594097051" lon="11.960183008768526"><ele>6.75</ele><time>2026-03-28T16:17:48Z</time></trkpt><trkpt lat="45.346659751161305" lon="11.960101548604532"><ele>7.0</ele><time>2026-03-28T16:17:49Z</time></trkpt><trkpt lat="45.34654512414146" lon="11.959970693964182"><ele>7.333333333333334</ele><time>2026-03-28T16:17:50Z</time></trkpt><trkpt lat="45.34642473366835" lon="11.95983291623783"><ele>7.666666666666666</ele><time>2026-03-28T16:17:51Z</time></trkpt><trkpt lat="45.34630142513081" lon="11.95967936632916"><ele>8.0</ele><time>2026-03-28T16:17:52Z</time></trkpt><trkpt lat="45.34618277896823" lon="11.959513954441018"><ele>8.0</ele><time>2026-03-28T16:17:53Z</time></trkpt><trkpt lat="45.346072597252125" lon="11.95935512620833"><ele>8.0</ele><time>2026-03-28T16:17:54Z</time></trkpt><trkpt lat="45.345956755315974" lon="11.959191768182741"><ele>8.0</ele><time>2026-03-28T16:17:55Z</time></trkpt><trkpt lat="45.34584541509387" lon="11.959048204251548"><ele>7.75</ele><time>2026-03-28T16:17:56Z</time></trkpt><trkpt lat="45.345738859405344" lon="11.95891138318703"><ele>7.5</ele><time>2026-03-28T16:17:57Z</time></trkpt><trkpt lat="45.345634823937424" lon="11.958766268106611"><ele>7.25</ele><time>2026-03-28T16:17:58Z</time></trkpt><trkpt lat="45.345532742743615" lon="11.95863414865404"><ele>7.0</ele><time>2026-03-28T16:17:59Z</time></trkpt><trkpt lat="45.34543714404291" lon="11.95849963310724"><ele>7.0</ele><time>2026-03-28T16:18:00Z</time></trkpt><trkpt lat="45.3453502116147" lon="11.958366415726609"><ele>7.0</ele><time>2026-03-28T16:18:01Z</time></trkpt><trkpt lat="45.345259026099605" lon="11.95823837445953"><ele>7.0</ele><time>2026-03-28T16:18:02Z</time></trkpt><trkpt lat="45.345158562626594" lon="11.95813998702345"><ele>7.0</ele><time>2026-03-28T16:18:03Z</time></trkpt><trkpt lat="45.3450556903113" lon="11.958044337046095"><ele>7.0</ele><time>2026-03-28T16:18:04Z</time></trkpt><trkpt lat="45.3449571831453" lon="11.957935158757037"><ele>7.0</ele><time>2026-03-28T16:18:05Z</time></trkpt><trkpt lat="45.34485550039903" lon="11.957818619320324"><ele>7.0</ele><time>2026-03-28T16:18:06Z</time></trkpt><trkpt lat="45.344752006008925" lon="11.957712628421616"><ele>7.0</ele><time>2026-03-28T16:18:07Z</time></trkpt><trkpt lat="45.34463623243597" lon="11.957617970659147"><ele>7.25</ele><time>2026-03-28T16:18:08Z</time></trkpt><trkpt lat="45.34450937203077" lon="11.957555061129845"><ele>7.5</ele><time>2026-03-28T16:18:09Z</time></trkpt><trkpt lat="45.344368948419" lon="11.957514561424412"><ele>7.75</ele><time>2026-03-28T16:18:10Z</time></trkpt><trkpt lat="45.34422933019179" lon="11.957463877104313"><ele>8.0</ele><time>2026-03-28T16:18:11Z</time></trkpt><trkpt lat="45.344085757556456" lon="11.957411576400423"><ele>8.25</ele><time>2026-03-28T16:18:12Z</time></trkpt><trkpt lat="45.34395576725663" lon="11.957363376019371"><ele>8.5</ele><time>2026-03-28T16:18:13Z</time></trkpt><trkpt lat="45.34383522081105" lon="11.957336980496416"><ele>8.75</ele><time>2026-03-28T16:18:14Z</time></trkpt><trkpt lat="45.34372998042194" lon="11.957293245453434"><ele>9.0</ele><time>2026-03-28T16:18:15Z</time></trkpt><trkpt lat="45.343634430973474" lon="11.957254121925025"><ele>8.666666666666666</ele><time>2026-03-28T16:18:16Z</time></trkpt><trkpt lat="45.343544981588025" lon="11.957206506188687"><ele>8.333333333333334</ele><time>2026-03-28T16:18:17Z</time></trkpt><trkpt lat="45.34347159031207" lon="11.95715012481727"><ele>8.0</ele><time>2026-03-28T16:18:18Z</time></trkpt><trkpt lat="45.34340644326218" lon="11.957070957709824"><ele>7.666666666666667</ele><time>2026-03-28T16:18:19Z</time></trkpt><trkpt lat="45.34335652787947" lon="11.956981954677527"><ele>7.333333333333334</ele><time>2026-03-28T16:18:20Z</time></trkpt><trkpt lat="45.34330143739779" lon="11.956909629794286"><ele>7.0</ele><time>2026-03-28T16:18:21Z</time></trkpt><trkpt lat="45.34323610267646" lon="11.956891443611974"><ele>7.0</ele><time>2026-03-28T16:18:22Z</time></trkpt><trkpt lat="45.34315196928096" lon="11.957010619303627"><ele>6.999999999999999</ele><time>2026-03-28T16:18:24Z</time></trkpt><trkpt lat="45.343133172197" lon="11.957120824317059"><ele>6.999999999999999</ele><time>2026-03-28T16:18:25Z</time></trkpt><trkpt lat="45.34312717986725" lon="11.95726830084662"><ele>7.0</ele><time>2026-03-28T16:18:26Z</time></trkpt><trkpt lat="45.34311127534826" lon="11.957455748888606"><ele>7.0</ele><time>2026-03-28T16:18:27Z</time></trkpt><trkpt lat="45.34307172836583" lon="11.957657302654168"><ele>6.666666666666667</ele><time>2026-03-28T16:18:28Z</time></trkpt><trkpt lat="45.34302246964527" lon="11.957858203889248"><ele>6.333333333333334</ele><time>2026-03-28T16:18:29Z</time></trkpt><trkpt lat="45.34298696479661" lon="11.958088357231505"><ele>6.0</ele><time>2026-03-28T16:18:30Z</time></trkpt><trkpt lat="45.342984966499934" lon="11.95832795949826"><ele>6.0</ele><time>2026-03-28T16:18:31Z</time></trkpt><trkpt lat="45.34299375857593" lon="11.958581935047693"><ele>6.0</ele><time>2026-03-28T16:18:32Z</time></trkpt><trkpt lat="45.34298257854492" lon="11.958812621161465"><ele>6.0</ele><time>2026-03-28T16:18:33Z</time></trkpt><trkpt lat="45.34293959843135" lon="11.959006714853016"><ele>6.0</ele><time>2026-03-28T16:18:34Z</time></trkpt><trkpt lat="45.342842691812514" lon="11.959186557940669"><ele>6.0</ele><time>2026-03-28T16:18:35Z</time></trkpt><trkpt lat="45.34275684911101" lon="11.959399520415666"><ele>6.0</ele><time>2026-03-28T16:18:36Z</time></trkpt><trkpt lat="45.342662503536424" lon="11.959595029220255"><ele>5.666666666666667</ele><time>2026-03-28T16:18:37Z</time></trkpt><trkpt lat="45.342597101642546" lon="11.959810759379943"><ele>5.333333333333334</ele><time>2026-03-28T16:18:38Z</time></trkpt><trkpt lat="45.342565889373844" lon="11.960027125436639"><ele>5.0</ele><time>2026-03-28T16:18:39Z</time></trkpt><trkpt lat="45.342561319119646" lon="11.96027818773422"><ele>5.0</ele><time>2026-03-28T16:18:40Z</time></trkpt><trkpt lat="45.342574650927354" lon="11.960545393584871"><ele>5.0</ele><time>2026-03-28T16:18:41Z</time></trkpt><trkpt lat="45.34259635428546" lon="11.960817792814112"><ele>5.0</ele><time>2026-03-28T16:18:42Z</time></trkpt><trkpt lat="45.3426159709974" lon="11.961110520328155"><ele>5.666666666666667</ele><time>2026-03-28T16:18:43Z</time></trkpt><trkpt lat="45.34263939459586" lon="11.961368256505299"><ele>6.333333333333334</ele><time>2026-03-28T16:18:44Z</time></trkpt><trkpt lat="45.34264965603561" lon="11.96161025313919"><ele>7.0</ele><time>2026-03-28T16:18:45Z</time></trkpt><trkpt lat="45.34266718885" lon="11.96182074244409"><ele>7.0</ele><time>2026-03-28T16:18:46Z</time></trkpt><trkpt lat="45.342682466143366" lon="11.962007817783473"><ele>7.0</ele><time>2026-03-28T16:18:47Z</time></trkpt><trkpt lat="45.34270063709659" lon="11.962188734955864"><ele>7.0</ele><time>2026-03-28T16:18:48Z</time></trkpt><trkpt lat="45.34271233440189" lon="11.962361056840855"><ele>7.0</ele><time>2026-03-28T16:18:49Z</time></trkpt><trkpt lat="45.34273654747456" lon="11.962512475183908"><ele>7.0</ele><time>2026-03-28T16:18:50Z</time></trkpt><trkpt lat="45.34276493712679" lon="11.962661701715628"><ele>6.999999999999999</ele><time>2026-03-28T16:18:51Z</time></trkpt><trkpt lat="45.34278233247568" lon="11.962796576601871"><ele>6.999999999999999</ele><time>2026-03-28T16:18:52Z</time></trkpt><trkpt lat="45.34278508214405" lon="11.962926949886446"><ele>7.0</ele><time>2026-03-28T16:18:53Z</time></trkpt><trkpt lat="45.34278711414101" lon="11.963039649643733"><ele>7.0</ele><time>2026-03-28T16:18:54Z</time></trkpt><trkpt lat="45.342783160866794" lon="11.963201410349146"><ele>7.0</ele><time>2026-03-28T16:18:56Z</time></trkpt><trkpt lat="45.3426746143013" lon="11.963305080403009"><ele>7.0</ele><time>2026-03-28T16:18:58Z</time></trkpt><trkpt lat="45.34258115326935" lon="11.963323068923243"><ele>7.0</ele><time>2026-03-28T16:18:59Z</time></trkpt><trkpt lat="45.342466933216215" lon="11.963331178035991"><ele>7.0</ele><time>2026-03-28T16:19:00Z</time></trkpt><trkpt lat="45.342319096562534" lon="11.963372216328104"><ele>7.0</ele><time>2026-03-28T16:19:01Z</time></trkpt><trkpt lat="45.34214794716979" lon="11.963431307079272"><ele>7.0</ele><time>2026-03-28T16:19:02Z</time></trkpt><trkpt lat="45.3419556314886" lon="11.96347897696866"><ele>7.0</ele><time>2026-03-28T16:19:02.999Z</time></trkpt><trkpt lat="45.34175154504731" lon="11.963529713496222"><ele>7.0</ele><time>2026-03-28T16:19:03.999Z</time></trkpt><trkpt lat="45.34157726523713" lon="11.96356145017208"><ele>7.0</ele><time>2026-03-28T16:19:04.999Z</time></trkpt><trkpt lat="45.34142174815999" lon="11.96356919659872"><ele>7.0</ele><time>2026-03-28T16:19:05.999Z</time></trkpt><trkpt lat="45.341275169185074" lon="11.963571775574712"><ele>7.0</ele><time>2026-03-28T16:19:06.999Z</time></trkpt><trkpt lat="45.341150595609626" lon="11.963579643954315"><ele>6.999999999999999</ele><time>2026-03-28T16:19:07.999Z</time></trkpt><trkpt lat="45.34105720810226" lon="11.963583690143457"><ele>6.999999999999999</ele><time>2026-03-28T16:19:08.999Z</time></trkpt><trkpt lat="45.340993315785916" lon="11.963576013273627"><ele>7.0</ele><time>2026-03-28T16:19:09.999Z</time></trkpt><trkpt lat="45.34099829765772" lon="11.963449491010408"><ele>7.0</ele><time>2026-03-28T16:19:11.999Z</time></trkpt><trkpt lat="45.34099276646236" lon="11.96329741796851"><ele>7.0</ele><time>2026-03-28T16:19:14Z</time></trkpt><trkpt lat="45.34098689003695" lon="11.96313799950586"><ele>7.0</ele><time>2026-03-28T16:19:16Z</time></trkpt><trkpt lat="45.34084149543805" lon="11.963241490491079"><ele>7.0</ele><time>2026-03-28T16:19:19Z</time></trkpt></trkseg></trk></gpx>